<?xml version="1.0" encoding="UTF-8" standalone="no" ?>
<gpx xmlns="http://www.topografix.com/GPX/1/1" xmlns:xsi="http://www.w3.org/2001/XMLSchema-instance" xsi:schemaLocation="http://www.topografix.com/GPX/1/1 http://www.topografix.com/GPX/1/1/gpx.xsd" version="1.1" creator="VisuGPX - https://www.visugpx.com">
  <metadata>
    <name>Ultra Bike Lozère - 700 km</name>
    <desc><![CDATA[Ultra Bike Lozère - 700 km]]></desc>
  </metadata>
  <wpt lat="44.80326" lon="3.2772">
    <ele>1008.6</ele>
    <name><![CDATA[CP 1 ]]></name>
    <desc><![CDATA[Fontaine Place du Foirail ]]></desc>
  </wpt>
  <wpt lat="44.72649" lon="3.85463">
    <ele>920.4</ele>
    <name><![CDATA[CP 2 ]]></name>
    <desc><![CDATA[Café de la Halle ]]></desc>
  </wpt>
  <wpt lat="44.1803" lon="3.74234">
    <ele>340.6</ele>
    <name><![CDATA[CP 3]]></name>
    <desc><![CDATA[Café du Globe]]></desc>
  </wpt>
  <wpt lat="44.05732" lon="3.30726">
    <ele>524.5</ele>
    <name><![CDATA[CP 4]]></name>
    <desc><![CDATA[Panneau d'entrée Cantobre]]></desc>
  </wpt>
  <trk>
    <name><![CDATA[Ultra Bike Lozère - 700 km]]></name>
    <extensions>
      <line xmlns="http://www.topografix.com/GPX/gpx_style/0/2">
        <color>0000FF</color>
        <width>4</width>
      </line>
    </extensions>
    <trkseg>
      <trkpt lat="44.43088" lon="3.22071">
        <ele>573.546096</ele>
        <time>2020-03-08T13:32:59.429Z</time>
      </trkpt>
      <trkpt lat="44.43088" lon="3.22071">
        <ele>573.546096</ele>
        <time>2020-03-08T13:32:59.429Z</time>
      </trkpt>
      <trkpt lat="44.43076" lon="3.22055">
        <ele>573.546096</ele>
        <time>2020-03-08T13:33:01.785Z</time>
      </trkpt>
      <trkpt lat="44.43052" lon="3.22046">
        <ele>573.546096</ele>
        <time>2020-03-08T13:33:05.465Z</time>
      </trkpt>
      <trkpt lat="44.43022" lon="3.22048">
        <ele>573.546096</ele>
        <time>2020-03-08T13:33:09.877Z</time>
      </trkpt>
      <trkpt lat="44.43008" lon="3.22046">
        <ele>573.546096</ele>
        <time>2020-03-08T13:33:11.801Z</time>
      </trkpt>
      <trkpt lat="44.43" lon="3.22035">
        <ele>573.335384</ele>
        <time>2020-03-08T13:33:13.670Z</time>
      </trkpt>
      <trkpt lat="44.42983" lon="3.21971">
        <ele>572.001709</ele>
        <time>2020-03-08T13:33:20.715Z</time>
      </trkpt>
      <trkpt lat="44.42974" lon="3.21939">
        <ele>571.324234</ele>
        <time>2020-03-08T13:33:24.261Z</time>
      </trkpt>
      <trkpt lat="44.42974" lon="3.21937">
        <ele>571.29177</ele>
        <time>2020-03-08T13:33:24.410Z</time>
      </trkpt>
      <trkpt lat="44.42964" lon="3.21882">
        <ele>570.181274</ele>
        <time>2020-03-08T13:33:30.413Z</time>
      </trkpt>
      <trkpt lat="44.42958" lon="3.21863">
        <ele>569.777812</ele>
        <time>2020-03-08T13:33:32.485Z</time>
      </trkpt>
      <trkpt lat="44.42952" lon="3.2185">
        <ele>569.455019</ele>
        <time>2020-03-08T13:33:34.501Z</time>
      </trkpt>
      <trkpt lat="44.42947" lon="3.21817">
        <ele>568.807775</ele>
        <time>2020-03-08T13:33:38.331Z</time>
      </trkpt>
      <trkpt lat="44.42948" lon="3.21798">
        <ele>568.529237</ele>
        <time>2020-03-08T13:33:41.030Z</time>
      </trkpt>
      <trkpt lat="44.42949" lon="3.21796">
        <ele>568.506403</ele>
        <time>2020-03-08T13:33:41.275Z</time>
      </trkpt>
      <trkpt lat="44.42949" lon="3.21793">
        <ele>568.482995</ele>
        <time>2020-03-08T13:33:41.458Z</time>
      </trkpt>
      <trkpt lat="44.42948" lon="3.21791">
        <ele>568.458938</ele>
        <time>2020-03-08T13:33:41.704Z</time>
      </trkpt>
      <trkpt lat="44.42951" lon="3.21774">
        <ele>568.312125</ele>
        <time>2020-03-08T13:33:43.121Z</time>
      </trkpt>
      <trkpt lat="44.42953" lon="3.21766">
        <ele>568.239619</ele>
        <time>2020-03-08T13:33:43.772Z</time>
      </trkpt>
      <trkpt lat="44.42966" lon="3.21746">
        <ele>568.005641</ele>
        <time>2020-03-08T13:33:46.192Z</time>
      </trkpt>
      <trkpt lat="44.42976" lon="3.21724">
        <ele>567.778832</ele>
        <time>2020-03-08T13:33:48.362Z</time>
      </trkpt>
      <trkpt lat="44.43046" lon="3.21631">
        <ele>566.603947</ele>
        <time>2020-03-08T13:34:00.063Z</time>
      </trkpt>
      <trkpt lat="44.43058" lon="3.21612">
        <ele>566.39829</ele>
        <time>2020-03-08T13:34:02.151Z</time>
      </trkpt>
      <trkpt lat="44.43061" lon="3.21608">
        <ele>566.354852</ele>
        <time>2020-03-08T13:34:02.822Z</time>
      </trkpt>
      <trkpt lat="44.43067" lon="3.216">
        <ele>566.266697</ele>
        <time>2020-03-08T13:34:03.963Z</time>
      </trkpt>
      <trkpt lat="44.43092" lon="3.21567">
        <ele>565.916966</ele>
        <time>2020-03-08T13:34:08.216Z</time>
      </trkpt>
      <trkpt lat="44.43104" lon="3.21552">
        <ele>565.756373</ele>
        <time>2020-03-08T13:34:09.951Z</time>
      </trkpt>
      <trkpt lat="44.43119" lon="3.21534">
        <ele>565.554959</ele>
        <time>2020-03-08T13:34:13.053Z</time>
      </trkpt>
      <trkpt lat="44.43125" lon="3.21526">
        <ele>565.467282</ele>
        <time>2020-03-08T13:34:13.953Z</time>
      </trkpt>
      <trkpt lat="44.43138" lon="3.2151">
        <ele>565.294275</ele>
        <time>2020-03-08T13:34:16.152Z</time>
      </trkpt>
      <trkpt lat="44.43146" lon="3.215">
        <ele>565.183569</ele>
        <time>2020-03-08T13:34:17.962Z</time>
      </trkpt>
      <trkpt lat="44.43168" lon="3.21475">
        <ele>564.89745</ele>
        <time>2020-03-08T13:34:21.265Z</time>
      </trkpt>
      <trkpt lat="44.43171" lon="3.21472">
        <ele>564.858621</ele>
        <time>2020-03-08T13:34:21.803Z</time>
      </trkpt>
      <trkpt lat="44.43177" lon="3.21466">
        <ele>564.781744</ele>
        <time>2020-03-08T13:34:22.660Z</time>
      </trkpt>
      <trkpt lat="44.43189" lon="3.21458">
        <ele>564.648135</ele>
        <time>2020-03-08T13:34:24.140Z</time>
      </trkpt>
      <trkpt lat="44.43201" lon="3.21452">
        <ele>564.466569</ele>
        <time>2020-03-08T13:34:25.725Z</time>
      </trkpt>
      <trkpt lat="44.43221" lon="3.21447">
        <ele>564.122452</ele>
        <time>2020-03-08T13:34:28.013Z</time>
      </trkpt>
      <trkpt lat="44.43241" lon="3.2144">
        <ele>563.77456</ele>
        <time>2020-03-08T13:34:30.387Z</time>
      </trkpt>
      <trkpt lat="44.4325" lon="3.21437">
        <ele>563.612739</ele>
        <time>2020-03-08T13:34:31.369Z</time>
      </trkpt>
      <trkpt lat="44.43256" lon="3.21436">
        <ele>563.51953</ele>
        <time>2020-03-08T13:34:32.150Z</time>
      </trkpt>
      <trkpt lat="44.43264" lon="3.21434">
        <ele>563.374583</ele>
        <time>2020-03-08T13:34:33.071Z</time>
      </trkpt>
      <trkpt lat="44.43274" lon="3.21432">
        <ele>563.20051</ele>
        <time>2020-03-08T13:34:34.303Z</time>
      </trkpt>
      <trkpt lat="44.43302" lon="3.21426">
        <ele>562.72069</ele>
        <time>2020-03-08T13:34:37.537Z</time>
      </trkpt>
      <trkpt lat="44.43309" lon="3.21422">
        <ele>562.591817</ele>
        <time>2020-03-08T13:34:39.290Z</time>
      </trkpt>
      <trkpt lat="44.43327" lon="3.21408">
        <ele>562.242727</ele>
        <time>2020-03-08T13:34:44.160Z</time>
      </trkpt>
      <trkpt lat="44.43336" lon="3.21397">
        <ele>562.038715</ele>
        <time>2020-03-08T13:34:46.776Z</time>
      </trkpt>
      <trkpt lat="44.43346" lon="3.2137">
        <ele>561.669513</ele>
        <time>2020-03-08T13:34:51.932Z</time>
      </trkpt>
      <trkpt lat="44.43346" lon="3.21363">
        <ele>561.578408</ele>
        <time>2020-03-08T13:34:53.057Z</time>
      </trkpt>
      <trkpt lat="44.43348" lon="3.21361">
        <ele>561.543382</ele>
        <time>2020-03-08T13:34:53.273Z</time>
      </trkpt>
      <trkpt lat="44.43351" lon="3.21353">
        <ele>561.401735</ele>
        <time>2020-03-08T13:34:53.934Z</time>
      </trkpt>
      <trkpt lat="44.4335" lon="3.21351">
        <ele>561.351459</ele>
        <time>2020-03-08T13:34:54.150Z</time>
      </trkpt>
      <trkpt lat="44.43349" lon="3.21348">
        <ele>561.292672</ele>
        <time>2020-03-08T13:34:54.444Z</time>
      </trkpt>
      <trkpt lat="44.43347" lon="3.21346">
        <ele>561.233372</ele>
        <time>2020-03-08T13:34:54.755Z</time>
      </trkpt>
      <trkpt lat="44.43348" lon="3.2134">
        <ele>561.117283</ele>
        <time>2020-03-08T13:34:55.779Z</time>
      </trkpt>
      <trkpt lat="44.4335" lon="3.21316">
        <ele>560.706965</ele>
        <time>2020-03-08T13:34:59.561Z</time>
      </trkpt>
      <trkpt lat="44.43346" lon="3.2121">
        <ele>558.873876</ele>
        <time>2020-03-08T13:35:16.009Z</time>
      </trkpt>
      <trkpt lat="44.4334" lon="3.21066">
        <ele>556.561831</ele>
        <time>2020-03-08T13:35:39.076Z</time>
      </trkpt>
      <trkpt lat="44.4334" lon="3.21066">
        <ele>556.561831</ele>
        <time>2020-03-08T13:35:39.084Z</time>
      </trkpt>
      <trkpt lat="44.4334" lon="3.21052">
        <ele>556.367697</ele>
        <time>2020-03-08T13:35:41.355Z</time>
      </trkpt>
      <trkpt lat="44.43348" lon="3.20887">
        <ele>554.070769</ele>
        <time>2020-03-08T13:36:08.487Z</time>
      </trkpt>
      <trkpt lat="44.43354" lon="3.20831">
        <ele>553.387994</ele>
        <time>2020-03-08T13:36:17.993Z</time>
      </trkpt>
      <trkpt lat="44.43376" lon="3.20719">
        <ele>552.16319</ele>
        <time>2020-03-08T13:36:37.973Z</time>
      </trkpt>
      <trkpt lat="44.43397" lon="3.20646">
        <ele>551.329461</ele>
        <time>2020-03-08T13:36:51.380Z</time>
      </trkpt>
      <trkpt lat="44.43416" lon="3.20587">
        <ele>550.487724</ele>
        <time>2020-03-08T13:37:02.199Z</time>
      </trkpt>
      <trkpt lat="44.43453" lon="3.205">
        <ele>548.983409</ele>
        <time>2020-03-08T13:37:10.223Z</time>
      </trkpt>
      <trkpt lat="44.43489" lon="3.2043">
        <ele>547.694741</ele>
        <time>2020-03-08T13:37:16.893Z</time>
      </trkpt>
      <trkpt lat="44.43494" lon="3.20419">
        <ele>547.503558</ele>
        <time>2020-03-08T13:37:17.839Z</time>
      </trkpt>
      <trkpt lat="44.43507" lon="3.20395">
        <ele>546.939711</ele>
        <time>2020-03-08T13:37:20.171Z</time>
      </trkpt>
      <trkpt lat="44.43548" lon="3.20319">
        <ele>544.892135</ele>
        <time>2020-03-08T13:37:27.174Z</time>
      </trkpt>
      <trkpt lat="44.43596" lon="3.20232">
        <ele>542.554525</ele>
        <time>2020-03-08T13:37:35.100Z</time>
      </trkpt>
      <trkpt lat="44.43601" lon="3.20223">
        <ele>542.306823</ele>
        <time>2020-03-08T13:37:35.868Z</time>
      </trkpt>
      <trkpt lat="44.43604" lon="3.20218">
        <ele>542.161367</ele>
        <time>2020-03-08T13:37:36.372Z</time>
      </trkpt>
      <trkpt lat="44.43619" lon="3.2019">
        <ele>541.370884</ele>
        <time>2020-03-08T13:37:38.993Z</time>
      </trkpt>
      <trkpt lat="44.43623" lon="3.20183">
        <ele>541.152257</ele>
        <time>2020-03-08T13:37:39.614Z</time>
      </trkpt>
      <trkpt lat="44.43632" lon="3.20167">
        <ele>540.683575</ele>
        <time>2020-03-08T13:37:41.180Z</time>
      </trkpt>
      <trkpt lat="44.43638" lon="3.20156">
        <ele>540.353131</ele>
        <time>2020-03-08T13:37:42.261Z</time>
      </trkpt>
      <trkpt lat="44.4364" lon="3.20154">
        <ele>540.274366</ele>
        <time>2020-03-08T13:37:42.533Z</time>
      </trkpt>
      <trkpt lat="44.43646" lon="3.20142">
        <ele>539.927181</ele>
        <time>2020-03-08T13:37:43.526Z</time>
      </trkpt>
      <trkpt lat="44.43732" lon="3.19993">
        <ele>535.410157</ele>
        <time>2020-03-08T13:37:57.369Z</time>
      </trkpt>
      <trkpt lat="44.4374" lon="3.19974">
        <ele>534.882075</ele>
        <time>2020-03-08T13:37:58.847Z</time>
      </trkpt>
      <trkpt lat="44.43753" lon="3.19961">
        <ele>534.365785</ele>
        <time>2020-03-08T13:38:00.453Z</time>
      </trkpt>
      <trkpt lat="44.43764" lon="3.19955">
        <ele>533.951833</ele>
        <time>2020-03-08T13:38:01.659Z</time>
      </trkpt>
      <trkpt lat="44.43773" lon="3.19949">
        <ele>533.618409</ele>
        <time>2020-03-08T13:38:02.614Z</time>
      </trkpt>
      <trkpt lat="44.43803" lon="3.19925">
        <ele>532.487902</ele>
        <time>2020-03-08T13:38:05.958Z</time>
      </trkpt>
      <trkpt lat="44.43854" lon="3.19894">
        <ele>530.620757</ele>
        <time>2020-03-08T13:38:11.582Z</time>
      </trkpt>
      <trkpt lat="44.43867" lon="3.19888">
        <ele>530.171522</ele>
        <time>2020-03-08T13:38:12.931Z</time>
      </trkpt>
      <trkpt lat="44.43879" lon="3.19881">
        <ele>530.172597</ele>
        <time>2020-03-08T13:38:14.255Z</time>
      </trkpt>
      <trkpt lat="44.43915" lon="3.19862">
        <ele>531.199293</ele>
        <time>2020-03-08T13:38:18.639Z</time>
      </trkpt>
      <trkpt lat="44.43934" lon="3.19851">
        <ele>531.757813</ele>
        <time>2020-03-08T13:38:23.763Z</time>
      </trkpt>
      <trkpt lat="44.43943" lon="3.19846">
        <ele>532.024826</ele>
        <time>2020-03-08T13:38:25.109Z</time>
      </trkpt>
      <trkpt lat="44.43947" lon="3.19844">
        <ele>532.136532</ele>
        <time>2020-03-08T13:38:25.850Z</time>
      </trkpt>
      <trkpt lat="44.43958" lon="3.19839">
        <ele>532.438885</ele>
        <time>2020-03-08T13:38:28.750Z</time>
      </trkpt>
      <trkpt lat="44.43966" lon="3.19831">
        <ele>532.693057</ele>
        <time>2020-03-08T13:38:32.469Z</time>
      </trkpt>
      <trkpt lat="44.43971" lon="3.19822">
        <ele>532.905275</ele>
        <time>2020-03-08T13:38:35.597Z</time>
      </trkpt>
      <trkpt lat="44.43977" lon="3.19813">
        <ele>533.141906</ele>
        <time>2020-03-08T13:38:38.311Z</time>
      </trkpt>
      <trkpt lat="44.43979" lon="3.19813">
        <ele>533.21946</ele>
        <time>2020-03-08T13:38:39.278Z</time>
      </trkpt>
      <trkpt lat="44.43984" lon="3.1981">
        <ele>533.357622</ele>
        <time>2020-03-08T13:38:41.250Z</time>
      </trkpt>
      <trkpt lat="44.43987" lon="3.19808">
        <ele>533.436557</ele>
        <time>2020-03-08T13:38:42.322Z</time>
      </trkpt>
      <trkpt lat="44.43997" lon="3.19808">
        <ele>533.714704</ele>
        <time>2020-03-08T13:38:46.846Z</time>
      </trkpt>
      <trkpt lat="44.44024" lon="3.19808">
        <ele>534.425853</ele>
        <time>2020-03-08T13:38:56.533Z</time>
      </trkpt>
      <trkpt lat="44.44043" lon="3.1981">
        <ele>534.924879</ele>
        <time>2020-03-08T13:39:04.970Z</time>
      </trkpt>
      <trkpt lat="44.44052" lon="3.19814">
        <ele>535.159871</ele>
        <time>2020-03-08T13:39:08.025Z</time>
      </trkpt>
      <trkpt lat="44.44067" lon="3.19821">
        <ele>535.578251</ele>
        <time>2020-03-08T13:39:16.045Z</time>
      </trkpt>
      <trkpt lat="44.44098" lon="3.19833">
        <ele>536.398341</ele>
        <time>2020-03-08T13:39:28.850Z</time>
      </trkpt>
      <trkpt lat="44.44111" lon="3.19838">
        <ele>536.741705</ele>
        <time>2020-03-08T13:39:35.446Z</time>
      </trkpt>
      <trkpt lat="44.44127" lon="3.19844">
        <ele>537.177671</ele>
        <time>2020-03-08T13:39:39.333Z</time>
      </trkpt>
      <trkpt lat="44.44221" lon="3.19879">
        <ele>538.919262</ele>
        <time>2020-03-08T13:39:52.814Z</time>
      </trkpt>
      <trkpt lat="44.44232" lon="3.19879">
        <ele>538.370919</ele>
        <time>2020-03-08T13:39:53.909Z</time>
      </trkpt>
      <trkpt lat="44.44251" lon="3.19868">
        <ele>537.395517</ele>
        <time>2020-03-08T13:39:56.102Z</time>
      </trkpt>
      <trkpt lat="44.44256" lon="3.19862">
        <ele>537.097527</ele>
        <time>2020-03-08T13:39:56.677Z</time>
      </trkpt>
      <trkpt lat="44.44287" lon="3.19791">
        <ele>534.316226</ele>
        <time>2020-03-08T13:40:02.116Z</time>
      </trkpt>
      <trkpt lat="44.44305" lon="3.19747">
        <ele>532.617885</ele>
        <time>2020-03-08T13:40:05.439Z</time>
      </trkpt>
      <trkpt lat="44.44315" lon="3.19723">
        <ele>531.70442</ele>
        <time>2020-03-08T13:40:07.231Z</time>
      </trkpt>
      <trkpt lat="44.44328" lon="3.19694">
        <ele>530.946348</ele>
        <time>2020-03-08T13:40:09.540Z</time>
      </trkpt>
      <trkpt lat="44.44337" lon="3.19676">
        <ele>530.91654</ele>
        <time>2020-03-08T13:40:10.970Z</time>
      </trkpt>
      <trkpt lat="44.44351" lon="3.19666">
        <ele>530.886509</ele>
        <time>2020-03-08T13:40:12.459Z</time>
      </trkpt>
      <trkpt lat="44.44361" lon="3.19662">
        <ele>530.866897</ele>
        <time>2020-03-08T13:40:13.539Z</time>
      </trkpt>
      <trkpt lat="44.44374" lon="3.19661">
        <ele>530.842252</ele>
        <time>2020-03-08T13:40:15.026Z</time>
      </trkpt>
      <trkpt lat="44.44402" lon="3.19678">
        <ele>530.783705</ele>
        <time>2020-03-08T13:40:20.685Z</time>
      </trkpt>
      <trkpt lat="44.44455" lon="3.19708">
        <ele>530.674186</ele>
        <time>2020-03-08T13:40:35.431Z</time>
      </trkpt>
      <trkpt lat="44.44478" lon="3.19715">
        <ele>530.629429</ele>
        <time>2020-03-08T13:40:41.834Z</time>
      </trkpt>
      <trkpt lat="44.44517" lon="3.19717">
        <ele>531.619853</ele>
        <time>2020-03-08T13:40:51.917Z</time>
      </trkpt>
      <trkpt lat="44.44553" lon="3.19701">
        <ele>532.737263</ele>
        <time>2020-03-08T13:41:02.939Z</time>
      </trkpt>
      <trkpt lat="44.44628" lon="3.19653">
        <ele>535.205193</ele>
        <time>2020-03-08T13:41:26.167Z</time>
      </trkpt>
      <trkpt lat="44.44665" lon="3.19614">
        <ele>536.050273</ele>
        <time>2020-03-08T13:41:36.917Z</time>
      </trkpt>
      <trkpt lat="44.44677" lon="3.19593">
        <ele>536.137736</ele>
        <time>2020-03-08T13:41:41.866Z</time>
      </trkpt>
      <trkpt lat="44.44692" lon="3.19566">
        <ele>536.247699</ele>
        <time>2020-03-08T13:41:46.251Z</time>
      </trkpt>
      <trkpt lat="44.44731" lon="3.19521">
        <ele>536.480544</ele>
        <time>2020-03-08T13:41:54.862Z</time>
      </trkpt>
      <trkpt lat="44.44755" lon="3.19502">
        <ele>536.604594</ele>
        <time>2020-03-08T13:41:58.249Z</time>
      </trkpt>
      <trkpt lat="44.44801" lon="3.19481">
        <ele>536.725575</ele>
        <time>2020-03-08T13:42:04.077Z</time>
      </trkpt>
      <trkpt lat="44.44839" lon="3.19477">
        <ele>536.550275</ele>
        <time>2020-03-08T13:42:08.228Z</time>
      </trkpt>
      <trkpt lat="44.44911" lon="3.19485">
        <ele>536.215307</ele>
        <time>2020-03-08T13:42:17.045Z</time>
      </trkpt>
      <trkpt lat="44.44939" lon="3.19485">
        <ele>536.089212</ele>
        <time>2020-03-08T13:42:21.165Z</time>
      </trkpt>
      <trkpt lat="44.44984" lon="3.19477">
        <ele>536.37087</ele>
        <time>2020-03-08T13:42:29.004Z</time>
      </trkpt>
      <trkpt lat="44.45077" lon="3.19438">
        <ele>539.25371</ele>
        <time>2020-03-08T13:42:54.772Z</time>
      </trkpt>
      <trkpt lat="44.45186" lon="3.19376">
        <ele>542.390884</ele>
        <time>2020-03-08T13:43:32.524Z</time>
      </trkpt>
      <trkpt lat="44.45212" lon="3.1935">
        <ele>543.11116</ele>
        <time>2020-03-08T13:43:41.487Z</time>
      </trkpt>
      <trkpt lat="44.45251" lon="3.19314">
        <ele>544.161238</ele>
        <time>2020-03-08T13:43:52.852Z</time>
      </trkpt>
      <trkpt lat="44.45354" lon="3.19232">
        <ele>543.714089</ele>
        <time>2020-03-08T13:44:09.421Z</time>
      </trkpt>
      <trkpt lat="44.4538" lon="3.19218">
        <ele>543.038576</ele>
        <time>2020-03-08T13:44:12.298Z</time>
      </trkpt>
      <trkpt lat="44.45412" lon="3.19215">
        <ele>542.268587</ele>
        <time>2020-03-08T13:44:15.432Z</time>
      </trkpt>
      <trkpt lat="44.45443" lon="3.19221">
        <ele>541.5282</ele>
        <time>2020-03-08T13:44:18.427Z</time>
      </trkpt>
      <trkpt lat="44.45489" lon="3.19246">
        <ele>540.025162</ele>
        <time>2020-03-08T13:44:23.233Z</time>
      </trkpt>
      <trkpt lat="44.45582" lon="3.19321">
        <ele>536.281756</ele>
        <time>2020-03-08T13:44:33.705Z</time>
      </trkpt>
      <trkpt lat="44.45619" lon="3.19369">
        <ele>534.671738</ele>
        <time>2020-03-08T13:44:38.968Z</time>
      </trkpt>
      <trkpt lat="44.45637" lon="3.19403">
        <ele>534.420771</ele>
        <time>2020-03-08T13:44:42.350Z</time>
      </trkpt>
      <trkpt lat="44.45692" lon="3.19501">
        <ele>533.692351</ele>
        <time>2020-03-08T13:44:53.283Z</time>
      </trkpt>
      <trkpt lat="44.45744" lon="3.19594">
        <ele>533.563561</ele>
        <time>2020-03-08T13:45:07.571Z</time>
      </trkpt>
      <trkpt lat="44.45756" lon="3.19618">
        <ele>533.80228</ele>
        <time>2020-03-08T13:45:11.657Z</time>
      </trkpt>
      <trkpt lat="44.45765" lon="3.19643">
        <ele>534.025386</ele>
        <time>2020-03-08T13:45:15.851Z</time>
      </trkpt>
      <trkpt lat="44.45783" lon="3.19671">
        <ele>534.324217</ele>
        <time>2020-03-08T13:45:20.861Z</time>
      </trkpt>
      <trkpt lat="44.45793" lon="3.19685">
        <ele>534.483319</ele>
        <time>2020-03-08T13:45:24.023Z</time>
      </trkpt>
      <trkpt lat="44.4581" lon="3.19703">
        <ele>534.729563</ele>
        <time>2020-03-08T13:45:28.092Z</time>
      </trkpt>
      <trkpt lat="44.45816" lon="3.19711">
        <ele>534.816751</ele>
        <time>2020-03-08T13:45:29.951Z</time>
      </trkpt>
      <trkpt lat="44.45817" lon="3.19723">
        <ele>534.919363</ele>
        <time>2020-03-08T13:45:31.779Z</time>
      </trkpt>
      <trkpt lat="44.45823" lon="3.19734">
        <ele>535.023347</ele>
        <time>2020-03-08T13:45:33.442Z</time>
      </trkpt>
      <trkpt lat="44.4583" lon="3.19741">
        <ele>535.126316</ele>
        <time>2020-03-08T13:45:35.228Z</time>
      </trkpt>
      <trkpt lat="44.45849" lon="3.19777">
        <ele>535.500894</ele>
        <time>2020-03-08T13:45:41.783Z</time>
      </trkpt>
      <trkpt lat="44.45857" lon="3.19788">
        <ele>535.639878</ele>
        <time>2020-03-08T13:45:44.386Z</time>
      </trkpt>
      <trkpt lat="44.45868" lon="3.19801">
        <ele>535.807215</ele>
        <time>2020-03-08T13:45:47.155Z</time>
      </trkpt>
      <trkpt lat="44.45896" lon="3.19827">
        <ele>536.209273</ele>
        <time>2020-03-08T13:45:54.007Z</time>
      </trkpt>
      <trkpt lat="44.4593" lon="3.19847">
        <ele>536.658619</ele>
        <time>2020-03-08T13:46:01.399Z</time>
      </trkpt>
      <trkpt lat="44.45956" lon="3.19855">
        <ele>536.972303</ele>
        <time>2020-03-08T13:46:06.417Z</time>
      </trkpt>
      <trkpt lat="44.45999" lon="3.1985">
        <ele>537.480058</ele>
        <time>2020-03-08T13:46:14.595Z</time>
      </trkpt>
      <trkpt lat="44.46278" lon="3.19737">
        <ele>539.550827</ele>
        <time>2020-03-08T13:47:07.914Z</time>
      </trkpt>
      <trkpt lat="44.46331" lon="3.19729">
        <ele>539.776505</ele>
        <time>2020-03-08T13:47:15.220Z</time>
      </trkpt>
      <trkpt lat="44.46386" lon="3.19733">
        <ele>539.535521</ele>
        <time>2020-03-08T13:47:22.589Z</time>
      </trkpt>
      <trkpt lat="44.46391" lon="3.19734">
        <ele>539.499363</ele>
        <time>2020-03-08T13:47:23.197Z</time>
      </trkpt>
      <trkpt lat="44.46428" lon="3.19747">
        <ele>539.258354</ele>
        <time>2020-03-08T13:47:27.840Z</time>
      </trkpt>
      <trkpt lat="44.46492" lon="3.19784">
        <ele>538.817639</ele>
        <time>2020-03-08T13:47:36.623Z</time>
      </trkpt>
      <trkpt lat="44.46555" lon="3.19828">
        <ele>538.837323</ele>
        <time>2020-03-08T13:47:46.106Z</time>
      </trkpt>
      <trkpt lat="44.46594" lon="3.19857">
        <ele>538.989945</ele>
        <time>2020-03-08T13:47:53.225Z</time>
      </trkpt>
      <trkpt lat="44.46695" lon="3.1994">
        <ele>539.633007</ele>
        <time>2020-03-08T13:48:14.533Z</time>
      </trkpt>
      <trkpt lat="44.4672" lon="3.19969">
        <ele>540.010418</ele>
        <time>2020-03-08T13:48:20.922Z</time>
      </trkpt>
      <trkpt lat="44.46759" lon="3.20019">
        <ele>540.638927</ele>
        <time>2020-03-08T13:48:31.386Z</time>
      </trkpt>
      <trkpt lat="44.46815" lon="3.20093">
        <ele>541.569874</ele>
        <time>2020-03-08T13:48:46.522Z</time>
      </trkpt>
      <trkpt lat="44.46953" lon="3.20252">
        <ele>544.322392</ele>
        <time>2020-03-08T13:49:23.188Z</time>
      </trkpt>
      <trkpt lat="44.47003" lon="3.20299">
        <ele>546.04921</ele>
        <time>2020-03-08T13:49:37.388Z</time>
      </trkpt>
      <trkpt lat="44.47047" lon="3.20328">
        <ele>547.463432</ele>
        <time>2020-03-08T13:49:50.483Z</time>
      </trkpt>
      <trkpt lat="44.47091" lon="3.20341">
        <ele>548.748293</ele>
        <time>2020-03-08T13:50:03.394Z</time>
      </trkpt>
      <trkpt lat="44.47117" lon="3.20338">
        <ele>549.619441</ele>
        <time>2020-03-08T13:50:11.656Z</time>
      </trkpt>
      <trkpt lat="44.47144" lon="3.20329">
        <ele>550.686383</ele>
        <time>2020-03-08T13:50:20.418Z</time>
      </trkpt>
      <trkpt lat="44.47226" lon="3.20291">
        <ele>554.089748</ele>
        <time>2020-03-08T13:50:48.674Z</time>
      </trkpt>
      <trkpt lat="44.47253" lon="3.20267">
        <ele>555.32663</ele>
        <time>2020-03-08T13:50:59.553Z</time>
      </trkpt>
      <trkpt lat="44.47419" lon="3.20043">
        <ele>559.249446</ele>
        <time>2020-03-08T13:51:53.221Z</time>
      </trkpt>
      <trkpt lat="44.47461" lon="3.20016">
        <ele>558.255637</ele>
        <time>2020-03-08T13:51:58.148Z</time>
      </trkpt>
      <trkpt lat="44.47504" lon="3.20013">
        <ele>557.320555</ele>
        <time>2020-03-08T13:52:02.543Z</time>
      </trkpt>
      <trkpt lat="44.47552" lon="3.20034">
        <ele>556.244243</ele>
        <time>2020-03-08T13:52:07.458Z</time>
      </trkpt>
      <trkpt lat="44.4761" lon="3.2008">
        <ele>554.774397</ele>
        <time>2020-03-08T13:52:13.957Z</time>
      </trkpt>
      <trkpt lat="44.47714" lon="3.20168">
        <ele>552.116894</ele>
        <time>2020-03-08T13:52:27.310Z</time>
      </trkpt>
      <trkpt lat="44.4782" lon="3.20256">
        <ele>553.305683</ele>
        <time>2020-03-08T13:52:50.125Z</time>
      </trkpt>
      <trkpt lat="44.47862" lon="3.20301">
        <ele>553.886289</ele>
        <time>2020-03-08T13:53:02.264Z</time>
      </trkpt>
      <trkpt lat="44.4794" lon="3.20403">
        <ele>556.845876</ele>
        <time>2020-03-08T13:53:29.730Z</time>
      </trkpt>
      <trkpt lat="44.47971" lon="3.20455">
        <ele>558.279948</ele>
        <time>2020-03-08T13:53:43.589Z</time>
      </trkpt>
      <trkpt lat="44.48008" lon="3.20607">
        <ele>561.569123</ele>
        <time>2020-03-08T13:54:15.613Z</time>
      </trkpt>
      <trkpt lat="44.47997" lon="3.2068">
        <ele>563.069039</ele>
        <time>2020-03-08T13:54:29.765Z</time>
      </trkpt>
      <trkpt lat="44.4796" lon="3.20759">
        <ele>564.477909</ele>
        <time>2020-03-08T13:54:46.340Z</time>
      </trkpt>
      <trkpt lat="44.47912" lon="3.20789">
        <ele>564.71081</ele>
        <time>2020-03-08T13:54:56.634Z</time>
      </trkpt>
      <trkpt lat="44.47839" lon="3.20807">
        <ele>565.039677</ele>
        <time>2020-03-08T13:55:06.815Z</time>
      </trkpt>
      <trkpt lat="44.47807" lon="3.2082">
        <ele>565.164926</ele>
        <time>2020-03-08T13:55:11.079Z</time>
      </trkpt>
      <trkpt lat="44.47729" lon="3.20859">
        <ele>564.719915</ele>
        <time>2020-03-08T13:55:21.039Z</time>
      </trkpt>
      <trkpt lat="44.47692" lon="3.20889">
        <ele>564.490234</ele>
        <time>2020-03-08T13:55:26.362Z</time>
      </trkpt>
      <trkpt lat="44.47665" lon="3.20949">
        <ele>564.215624</ele>
        <time>2020-03-08T13:55:33.691Z</time>
      </trkpt>
      <trkpt lat="44.47645" lon="3.21033">
        <ele>564.95596</ele>
        <time>2020-03-08T13:55:45.371Z</time>
      </trkpt>
      <trkpt lat="44.47605" lon="3.21183">
        <ele>566.356128</ele>
        <time>2020-03-08T13:56:09.367Z</time>
      </trkpt>
      <trkpt lat="44.4757" lon="3.21337">
        <ele>568.639287</ele>
        <time>2020-03-08T13:56:34.672Z</time>
      </trkpt>
      <trkpt lat="44.47543" lon="3.21472">
        <ele>570.694601</ele>
        <time>2020-03-08T13:56:59.488Z</time>
      </trkpt>
      <trkpt lat="44.4754" lon="3.21521">
        <ele>571.416255</ele>
        <time>2020-03-08T13:57:08.188Z</time>
      </trkpt>
      <trkpt lat="44.47544" lon="3.21566">
        <ele>572.103782</ele>
        <time>2020-03-08T13:57:16.263Z</time>
      </trkpt>
      <trkpt lat="44.47554" lon="3.21607">
        <ele>572.748396</ele>
        <time>2020-03-08T13:57:23.777Z</time>
      </trkpt>
      <trkpt lat="44.47569" lon="3.21636">
        <ele>573.274501</ele>
        <time>2020-03-08T13:57:29.383Z</time>
      </trkpt>
      <trkpt lat="44.47599" lon="3.21676">
        <ele>573.871919</ele>
        <time>2020-03-08T13:57:38.226Z</time>
      </trkpt>
      <trkpt lat="44.47783" lon="3.21818">
        <ele>574.869062</ele>
        <time>2020-03-08T13:58:10.916Z</time>
      </trkpt>
      <trkpt lat="44.47833" lon="3.21863">
        <ele>575.185061</ele>
        <time>2020-03-08T13:58:20.542Z</time>
      </trkpt>
      <trkpt lat="44.47861" lon="3.21896">
        <ele>575.381195</ele>
        <time>2020-03-08T13:58:27.086Z</time>
      </trkpt>
      <trkpt lat="44.47891" lon="3.21951">
        <ele>575.693782</ele>
        <time>2020-03-08T13:58:36.617Z</time>
      </trkpt>
      <trkpt lat="44.47979" lon="3.22241">
        <ele>576.99122</ele>
        <time>2020-03-08T13:59:18.272Z</time>
      </trkpt>
      <trkpt lat="44.48009" lon="3.2232">
        <ele>576.742437</ele>
        <time>2020-03-08T13:59:26.452Z</time>
      </trkpt>
      <trkpt lat="44.48026" lon="3.22395">
        <ele>576.522443</ele>
        <time>2020-03-08T13:59:33.072Z</time>
      </trkpt>
      <trkpt lat="44.48038" lon="3.22519">
        <ele>575.661041</ele>
        <time>2020-03-08T13:59:43.315Z</time>
      </trkpt>
      <trkpt lat="44.48032" lon="3.22588">
        <ele>575.178846</ele>
        <time>2020-03-08T13:59:49.475Z</time>
      </trkpt>
      <trkpt lat="44.48024" lon="3.22624">
        <ele>574.910661</ele>
        <time>2020-03-08T13:59:53.120Z</time>
      </trkpt>
      <trkpt lat="44.47994" lon="3.22706">
        <ele>574.864019</ele>
        <time>2020-03-08T14:00:02.667Z</time>
      </trkpt>
      <trkpt lat="44.47988" lon="3.2276">
        <ele>574.952128</ele>
        <time>2020-03-08T14:00:08.946Z</time>
      </trkpt>
      <trkpt lat="44.47993" lon="3.22794">
        <ele>575.008368</ele>
        <time>2020-03-08T14:00:13.148Z</time>
      </trkpt>
      <trkpt lat="44.48016" lon="3.22845">
        <ele>575.106047</ele>
        <time>2020-03-08T14:00:20.518Z</time>
      </trkpt>
      <trkpt lat="44.48122" lon="3.22989">
        <ele>575.821635</ele>
        <time>2020-03-08T14:00:44.399Z</time>
      </trkpt>
      <trkpt lat="44.48161" lon="3.23012">
        <ele>576.045733</ele>
        <time>2020-03-08T14:00:51.580Z</time>
      </trkpt>
      <trkpt lat="44.48207" lon="3.2302">
        <ele>576.935404</ele>
        <time>2020-03-08T14:01:00.479Z</time>
      </trkpt>
      <trkpt lat="44.48241" lon="3.23033">
        <ele>577.807731</ele>
        <time>2020-03-08T14:01:08.160Z</time>
      </trkpt>
      <trkpt lat="44.48314" lon="3.23061">
        <ele>579.680823</ele>
        <time>2020-03-08T14:01:27.684Z</time>
      </trkpt>
      <trkpt lat="44.48344" lon="3.23061">
        <ele>580.446947</ele>
        <time>2020-03-08T14:01:36.907Z</time>
      </trkpt>
      <trkpt lat="44.48369" lon="3.23049">
        <ele>581.461389</ele>
        <time>2020-03-08T14:01:45.310Z</time>
      </trkpt>
      <trkpt lat="44.48587" lon="3.2289">
        <ele>590.037914</ele>
        <time>2020-03-08T14:03:03.556Z</time>
      </trkpt>
      <trkpt lat="44.48766" lon="3.22767">
        <ele>591.457971</ele>
        <time>2020-03-08T14:03:35.983Z</time>
      </trkpt>
      <trkpt lat="44.48835" lon="3.22743">
        <ele>591.015384</ele>
        <time>2020-03-08T14:03:43.832Z</time>
      </trkpt>
      <trkpt lat="44.48989" lon="3.22757">
        <ele>587.778211</ele>
        <time>2020-03-08T14:04:00.293Z</time>
      </trkpt>
      <trkpt lat="44.49088" lon="3.22772">
        <ele>586.849621</ele>
        <time>2020-03-08T14:04:11.667Z</time>
      </trkpt>
      <trkpt lat="44.49126" lon="3.22789">
        <ele>586.666299</ele>
        <time>2020-03-08T14:04:16.883Z</time>
      </trkpt>
      <trkpt lat="44.4917" lon="3.22825">
        <ele>586.437205</ele>
        <time>2020-03-08T14:04:25.278Z</time>
      </trkpt>
      <trkpt lat="44.49201" lon="3.22862">
        <ele>586.932751</ele>
        <time>2020-03-08T14:04:33.331Z</time>
      </trkpt>
      <trkpt lat="44.49234" lon="3.22913">
        <ele>588.144085</ele>
        <time>2020-03-08T14:04:44.615Z</time>
      </trkpt>
      <trkpt lat="44.49255" lon="3.22984">
        <ele>589.487665</ele>
        <time>2020-03-08T14:04:58.781Z</time>
      </trkpt>
      <trkpt lat="44.49261" lon="3.23031">
        <ele>590.329837</ele>
        <time>2020-03-08T14:05:08.178Z</time>
      </trkpt>
      <trkpt lat="44.49244" lon="3.23129">
        <ele>592.468677</ele>
        <time>2020-03-08T14:05:29.556Z</time>
      </trkpt>
      <trkpt lat="44.49224" lon="3.2317">
        <ele>593.590417</ele>
        <time>2020-03-08T14:05:40.165Z</time>
      </trkpt>
      <trkpt lat="44.49161" lon="3.23264">
        <ele>596.460883</ele>
        <time>2020-03-08T14:06:04.634Z</time>
      </trkpt>
      <trkpt lat="44.49124" lon="3.23304">
        <ele>596.937908</ele>
        <time>2020-03-08T14:06:15.781Z</time>
      </trkpt>
      <trkpt lat="44.48943" lon="3.23418">
        <ele>597.577103</ele>
        <time>2020-03-08T14:06:48.492Z</time>
      </trkpt>
      <trkpt lat="44.48879" lon="3.23452">
        <ele>596.821967</ele>
        <time>2020-03-08T14:06:56.239Z</time>
      </trkpt>
      <trkpt lat="44.48847" lon="3.2348">
        <ele>596.408136</ele>
        <time>2020-03-08T14:07:00.319Z</time>
      </trkpt>
      <trkpt lat="44.48832" lon="3.23502">
        <ele>596.022021</ele>
        <time>2020-03-08T14:07:02.580Z</time>
      </trkpt>
      <trkpt lat="44.48814" lon="3.23542">
        <ele>595.279869</ele>
        <time>2020-03-08T14:07:06.110Z</time>
      </trkpt>
      <trkpt lat="44.48754" lon="3.23692">
        <ele>592.574143</ele>
        <time>2020-03-08T14:07:19.275Z</time>
      </trkpt>
      <trkpt lat="44.4873" lon="3.23768">
        <ele>591.734753</ele>
        <time>2020-03-08T14:07:25.994Z</time>
      </trkpt>
      <trkpt lat="44.48728" lon="3.23809">
        <ele>591.361103</ele>
        <time>2020-03-08T14:07:29.463Z</time>
      </trkpt>
      <trkpt lat="44.48734" lon="3.23845">
        <ele>591.032525</ele>
        <time>2020-03-08T14:07:32.586Z</time>
      </trkpt>
      <trkpt lat="44.48747" lon="3.23876">
        <ele>590.710591</ele>
        <time>2020-03-08T14:07:35.706Z</time>
      </trkpt>
      <trkpt lat="44.48771" lon="3.23907">
        <ele>590.292021</ele>
        <time>2020-03-08T14:07:39.882Z</time>
      </trkpt>
      <trkpt lat="44.4882" lon="3.23932">
        <ele>590.000786</ele>
        <time>2020-03-08T14:07:46.459Z</time>
      </trkpt>
      <trkpt lat="44.48955" lon="3.2397">
        <ele>589.647308</ele>
        <time>2020-03-08T14:08:05.500Z</time>
      </trkpt>
      <trkpt lat="44.48984" lon="3.23988">
        <ele>590.114367</ele>
        <time>2020-03-08T14:08:10.778Z</time>
      </trkpt>
      <trkpt lat="44.49001" lon="3.24012">
        <ele>590.56345</ele>
        <time>2020-03-08T14:08:14.925Z</time>
      </trkpt>
      <trkpt lat="44.49013" lon="3.24087">
        <ele>591.595802</ele>
        <time>2020-03-08T14:08:27.454Z</time>
      </trkpt>
      <trkpt lat="44.49018" lon="3.24209">
        <ele>593.292368</ele>
        <time>2020-03-08T14:08:50.523Z</time>
      </trkpt>
      <trkpt lat="44.49011" lon="3.243">
        <ele>594.760962</ele>
        <time>2020-03-08T14:09:08.963Z</time>
      </trkpt>
      <trkpt lat="44.49004" lon="3.24358">
        <ele>595.70004</ele>
        <time>2020-03-08T14:09:19.227Z</time>
      </trkpt>
      <trkpt lat="44.49005" lon="3.24429">
        <ele>596.850702</ele>
        <time>2020-03-08T14:09:29.924Z</time>
      </trkpt>
      <trkpt lat="44.49011" lon="3.24458">
        <ele>597.133502</ele>
        <time>2020-03-08T14:09:34.000Z</time>
      </trkpt>
      <trkpt lat="44.49019" lon="3.24479">
        <ele>597.215198</ele>
        <time>2020-03-08T14:09:36.868Z</time>
      </trkpt>
      <trkpt lat="44.49032" lon="3.24494">
        <ele>597.296842</ele>
        <time>2020-03-08T14:09:39.264Z</time>
      </trkpt>
      <trkpt lat="44.49051" lon="3.24501">
        <ele>597.395624</ele>
        <time>2020-03-08T14:09:42.008Z</time>
      </trkpt>
      <trkpt lat="44.49071" lon="3.24507">
        <ele>597.493019</ele>
        <time>2020-03-08T14:09:44.947Z</time>
      </trkpt>
      <trkpt lat="44.49079" lon="3.24507">
        <ele>597.531</ele>
        <time>2020-03-08T14:09:46.183Z</time>
      </trkpt>
      <trkpt lat="44.49126" lon="3.24514">
        <ele>597.761917</ele>
        <time>2020-03-08T14:09:53.970Z</time>
      </trkpt>
      <trkpt lat="44.49154" lon="3.24539">
        <ele>597.92506</ele>
        <time>2020-03-08T14:09:59.685Z</time>
      </trkpt>
      <trkpt lat="44.49177" lon="3.24549">
        <ele>598.236966</ele>
        <time>2020-03-08T14:10:03.569Z</time>
      </trkpt>
      <trkpt lat="44.49197" lon="3.24559">
        <ele>598.576204</ele>
        <time>2020-03-08T14:10:07.135Z</time>
      </trkpt>
      <trkpt lat="44.49212" lon="3.24573">
        <ele>598.866872</ele>
        <time>2020-03-08T14:10:10.827Z</time>
      </trkpt>
      <trkpt lat="44.49232" lon="3.24595">
        <ele>599.275859</ele>
        <time>2020-03-08T14:10:17.174Z</time>
      </trkpt>
      <trkpt lat="44.49254" lon="3.24609">
        <ele>599.655408</ele>
        <time>2020-03-08T14:10:22.762Z</time>
      </trkpt>
      <trkpt lat="44.49338" lon="3.24642">
        <ele>600.885537</ele>
        <time>2020-03-08T14:10:43.365Z</time>
      </trkpt>
      <trkpt lat="44.49365" lon="3.2466">
        <ele>600.992858</ele>
        <time>2020-03-08T14:10:49.366Z</time>
      </trkpt>
      <trkpt lat="44.49397" lon="3.24686">
        <ele>601.129078</ele>
        <time>2020-03-08T14:10:55.537Z</time>
      </trkpt>
      <trkpt lat="44.49502" lon="3.2477">
        <ele>601.413787</ele>
        <time>2020-03-08T14:11:12.138Z</time>
      </trkpt>
      <trkpt lat="44.49509" lon="3.24777">
        <ele>601.380065</ele>
        <time>2020-03-08T14:11:13.115Z</time>
      </trkpt>
      <trkpt lat="44.49522" lon="3.24789">
        <ele>601.325304</ele>
        <time>2020-03-08T14:11:15.136Z</time>
      </trkpt>
      <trkpt lat="44.49534" lon="3.24804">
        <ele>601.265491</ele>
        <time>2020-03-08T14:11:17.142Z</time>
      </trkpt>
      <trkpt lat="44.49563" lon="3.24873">
        <ele>601.058131</ele>
        <time>2020-03-08T14:11:24.815Z</time>
      </trkpt>
      <trkpt lat="44.49576" lon="3.24891">
        <ele>600.990343</ele>
        <time>2020-03-08T14:11:27.157Z</time>
      </trkpt>
      <trkpt lat="44.49601" lon="3.24901">
        <ele>600.897076</ele>
        <time>2020-03-08T14:11:31.223Z</time>
      </trkpt>
      <trkpt lat="44.49617" lon="3.24896">
        <ele>600.838654</ele>
        <time>2020-03-08T14:11:33.358Z</time>
      </trkpt>
      <trkpt lat="44.4967" lon="3.24852">
        <ele>601.322265</ele>
        <time>2020-03-08T14:11:43.560Z</time>
      </trkpt>
      <trkpt lat="44.49742" lon="3.24739">
        <ele>602.174928</ele>
        <time>2020-03-08T14:12:04.218Z</time>
      </trkpt>
      <trkpt lat="44.49826" lon="3.24677">
        <ele>602.983142</ele>
        <time>2020-03-08T14:12:23.323Z</time>
      </trkpt>
      <trkpt lat="44.49842" lon="3.24671">
        <ele>603.126191</ele>
        <time>2020-03-08T14:12:25.517Z</time>
      </trkpt>
      <trkpt lat="44.49859" lon="3.24671">
        <ele>603.273783</ele>
        <time>2020-03-08T14:12:29.624Z</time>
      </trkpt>
      <trkpt lat="44.49876" lon="3.24671">
        <ele>603.420558</ele>
        <time>2020-03-08T14:12:31.752Z</time>
      </trkpt>
      <trkpt lat="44.4993" lon="3.24682">
        <ele>603.808184</ele>
        <time>2020-03-08T14:12:41.821Z</time>
      </trkpt>
      <trkpt lat="44.49966" lon="3.24699">
        <ele>603.838108</ele>
        <time>2020-03-08T14:12:47.944Z</time>
      </trkpt>
      <trkpt lat="44.50036" lon="3.24746">
        <ele>603.897548</ele>
        <time>2020-03-08T14:12:58.439Z</time>
      </trkpt>
      <trkpt lat="44.50142" lon="3.24871">
        <ele>604.049972</ele>
        <time>2020-03-08T14:13:19.981Z</time>
      </trkpt>
      <trkpt lat="44.50181" lon="3.24912">
        <ele>604.114228</ele>
        <time>2020-03-08T14:13:27.860Z</time>
      </trkpt>
      <trkpt lat="44.50215" lon="3.24939">
        <ele>604.165964</ele>
        <time>2020-03-08T14:13:33.815Z</time>
      </trkpt>
      <trkpt lat="44.50245" lon="3.24953">
        <ele>604.024183</ele>
        <time>2020-03-08T14:13:38.363Z</time>
      </trkpt>
      <trkpt lat="44.50422" lon="3.24999">
        <ele>602.956571</ele>
        <time>2020-03-08T14:14:01.061Z</time>
      </trkpt>
      <trkpt lat="44.50478" lon="3.25013">
        <ele>602.867027</ele>
        <time>2020-03-08T14:14:08.118Z</time>
      </trkpt>
      <trkpt lat="44.50523" lon="3.25025">
        <ele>602.793192</ele>
        <time>2020-03-08T14:14:14.600Z</time>
      </trkpt>
      <trkpt lat="44.50648" lon="3.2507">
        <ele>604.105706</ele>
        <time>2020-03-08T14:14:38.072Z</time>
      </trkpt>
      <trkpt lat="44.5066" lon="3.25072">
        <ele>604.344362</ele>
        <time>2020-03-08T14:14:41.469Z</time>
      </trkpt>
      <trkpt lat="44.5068" lon="3.25076">
        <ele>604.708825</ele>
        <time>2020-03-08T14:14:45.925Z</time>
      </trkpt>
      <trkpt lat="44.50692" lon="3.25076">
        <ele>604.939018</ele>
        <time>2020-03-08T14:14:49.025Z</time>
      </trkpt>
      <trkpt lat="44.50704" lon="3.25083">
        <ele>605.185113</ele>
        <time>2020-03-08T14:14:52.555Z</time>
      </trkpt>
      <trkpt lat="44.50709" lon="3.25088">
        <ele>605.290021</ele>
        <time>2020-03-08T14:14:53.878Z</time>
      </trkpt>
      <trkpt lat="44.50721" lon="3.2509">
        <ele>605.515231</ele>
        <time>2020-03-08T14:14:56.652Z</time>
      </trkpt>
      <trkpt lat="44.50727" lon="3.25087">
        <ele>605.643561</ele>
        <time>2020-03-08T14:14:58.684Z</time>
      </trkpt>
      <trkpt lat="44.5074" lon="3.25083">
        <ele>605.874961</ele>
        <time>2020-03-08T14:15:02.053Z</time>
      </trkpt>
      <trkpt lat="44.50752" lon="3.25085">
        <ele>606.124237</ele>
        <time>2020-03-08T14:15:04.830Z</time>
      </trkpt>
      <trkpt lat="44.50765" lon="3.25087">
        <ele>606.46439</ele>
        <time>2020-03-08T14:15:08.725Z</time>
      </trkpt>
      <trkpt lat="44.50776" lon="3.25092">
        <ele>606.747857</ele>
        <time>2020-03-08T14:15:11.631Z</time>
      </trkpt>
      <trkpt lat="44.50838" lon="3.25115">
        <ele>608.400443</ele>
        <time>2020-03-08T14:15:28.375Z</time>
      </trkpt>
      <trkpt lat="44.50891" lon="3.25136">
        <ele>609.811886</ele>
        <time>2020-03-08T14:15:41.897Z</time>
      </trkpt>
      <trkpt lat="44.51036" lon="3.25202">
        <ele>612.840131</ele>
        <time>2020-03-08T14:16:17.432Z</time>
      </trkpt>
      <trkpt lat="44.51073" lon="3.25208">
        <ele>613.512253</ele>
        <time>2020-03-08T14:16:25.056Z</time>
      </trkpt>
      <trkpt lat="44.51101" lon="3.25197">
        <ele>614.077884</ele>
        <time>2020-03-08T14:16:30.462Z</time>
      </trkpt>
      <trkpt lat="44.51114" lon="3.25184">
        <ele>614.479478</ele>
        <time>2020-03-08T14:16:33.803Z</time>
      </trkpt>
      <trkpt lat="44.51134" lon="3.25161">
        <ele>615.11365</ele>
        <time>2020-03-08T14:16:38.867Z</time>
      </trkpt>
      <trkpt lat="44.51153" lon="3.25148">
        <ele>615.605345</ele>
        <time>2020-03-08T14:16:43.099Z</time>
      </trkpt>
      <trkpt lat="44.5117" lon="3.25145">
        <ele>616.028607</ele>
        <time>2020-03-08T14:16:47.515Z</time>
      </trkpt>
      <trkpt lat="44.51186" lon="3.2515">
        <ele>616.413672</ele>
        <time>2020-03-08T14:16:51.383Z</time>
      </trkpt>
      <trkpt lat="44.51206" lon="3.25171">
        <ele>617.023875</ele>
        <time>2020-03-08T14:16:58.190Z</time>
      </trkpt>
      <trkpt lat="44.51256" lon="3.25221">
        <ele>618.695705</ele>
        <time>2020-03-08T14:17:15.490Z</time>
      </trkpt>
      <trkpt lat="44.5126" lon="3.25148">
        <ele>621.057483</ele>
        <time>2020-03-08T14:17:31.008Z</time>
      </trkpt>
      <trkpt lat="44.51256" lon="3.25043">
        <ele>624.465804</ele>
        <time>2020-03-08T14:17:56.881Z</time>
      </trkpt>
      <trkpt lat="44.51269" lon="3.24964">
        <ele>627.103463</ele>
        <time>2020-03-08T14:18:18.572Z</time>
      </trkpt>
      <trkpt lat="44.51277" lon="3.24858">
        <ele>630.650042</ele>
        <time>2020-03-08T14:18:43.698Z</time>
      </trkpt>
      <trkpt lat="44.51293" lon="3.24768">
        <ele>633.734231</ele>
        <time>2020-03-08T14:19:04.483Z</time>
      </trkpt>
      <trkpt lat="44.51299" lon="3.24723">
        <ele>635.380296</ele>
        <time>2020-03-08T14:19:15.608Z</time>
      </trkpt>
      <trkpt lat="44.513" lon="3.2469">
        <ele>636.774068</ele>
        <time>2020-03-08T14:19:23.833Z</time>
      </trkpt>
      <trkpt lat="44.51288" lon="3.24615">
        <ele>640.035851</ele>
        <time>2020-03-08T14:19:43.412Z</time>
      </trkpt>
      <trkpt lat="44.51288" lon="3.24603">
        <ele>640.547763</ele>
        <time>2020-03-08T14:19:46.697Z</time>
      </trkpt>
      <trkpt lat="44.51291" lon="3.24563">
        <ele>642.274397</ele>
        <time>2020-03-08T14:19:57.981Z</time>
      </trkpt>
      <trkpt lat="44.51287" lon="3.24515">
        <ele>644.299697</ele>
        <time>2020-03-08T14:20:11.815Z</time>
      </trkpt>
      <trkpt lat="44.51278" lon="3.24481">
        <ele>646.014991</ele>
        <time>2020-03-08T14:20:23.389Z</time>
      </trkpt>
      <trkpt lat="44.51208" lon="3.24267">
        <ele>660.205804</ele>
        <time>2020-03-08T14:21:47.428Z</time>
      </trkpt>
      <trkpt lat="44.51202" lon="3.24218">
        <ele>662.919411</ele>
        <time>2020-03-08T14:22:04.787Z</time>
      </trkpt>
      <trkpt lat="44.51187" lon="3.24153">
        <ele>666.555679</ele>
        <time>2020-03-08T14:22:28.200Z</time>
      </trkpt>
      <trkpt lat="44.5118" lon="3.24122">
        <ele>668.345507</ele>
        <time>2020-03-08T14:22:39.065Z</time>
      </trkpt>
      <trkpt lat="44.51152" lon="3.23916">
        <ele>678.370809</ele>
        <time>2020-03-08T14:23:40.008Z</time>
      </trkpt>
      <trkpt lat="44.51166" lon="3.23773">
        <ele>684.372292</ele>
        <time>2020-03-08T14:24:17.046Z</time>
      </trkpt>
      <trkpt lat="44.51163" lon="3.23733">
        <ele>686.16037</ele>
        <time>2020-03-08T14:24:27.881Z</time>
      </trkpt>
      <trkpt lat="44.51154" lon="3.23707">
        <ele>687.416986</ele>
        <time>2020-03-08T14:24:35.509Z</time>
      </trkpt>
      <trkpt lat="44.51111" lon="3.2364">
        <ele>691.470072</ele>
        <time>2020-03-08T14:25:01.010Z</time>
      </trkpt>
      <trkpt lat="44.51055" lon="3.23582">
        <ele>695.825607</ele>
        <time>2020-03-08T14:25:30.053Z</time>
      </trkpt>
      <trkpt lat="44.51047" lon="3.23566">
        <ele>696.787103</ele>
        <time>2020-03-08T14:25:36.070Z</time>
      </trkpt>
      <trkpt lat="44.51046" lon="3.23543">
        <ele>697.959429</ele>
        <time>2020-03-08T14:25:43.231Z</time>
      </trkpt>
      <trkpt lat="44.51057" lon="3.23351">
        <ele>707.639396</ele>
        <time>2020-03-08T14:26:42.804Z</time>
      </trkpt>
      <trkpt lat="44.51064" lon="3.2332">
        <ele>709.277352</ele>
        <time>2020-03-08T14:26:52.865Z</time>
      </trkpt>
      <trkpt lat="44.51165" lon="3.23063">
        <ele>724.163929</ele>
        <time>2020-03-08T14:28:22.622Z</time>
      </trkpt>
      <trkpt lat="44.51169" lon="3.23045">
        <ele>725.141459</ele>
        <time>2020-03-08T14:28:28.293Z</time>
      </trkpt>
      <trkpt lat="44.5117" lon="3.22968">
        <ele>729.310083</ele>
        <time>2020-03-08T14:28:52.964Z</time>
      </trkpt>
      <trkpt lat="44.51178" lon="3.2294">
        <ele>730.914531</ele>
        <time>2020-03-08T14:29:02.542Z</time>
      </trkpt>
      <trkpt lat="44.51209" lon="3.22903">
        <ele>733.953116</ele>
        <time>2020-03-08T14:29:21.287Z</time>
      </trkpt>
      <trkpt lat="44.51216" lon="3.22878">
        <ele>735.496026</ele>
        <time>2020-03-08T14:29:30.352Z</time>
      </trkpt>
      <trkpt lat="44.51216" lon="3.22855">
        <ele>736.907069</ele>
        <time>2020-03-08T14:29:38.180Z</time>
      </trkpt>
      <trkpt lat="44.51203" lon="3.22819">
        <ele>739.392145</ele>
        <time>2020-03-08T14:29:51.899Z</time>
      </trkpt>
      <trkpt lat="44.51198" lon="3.22804">
        <ele>740.442007</ele>
        <time>2020-03-08T14:29:58.070Z</time>
      </trkpt>
      <trkpt lat="44.51195" lon="3.22758">
        <ele>743.335353</ele>
        <time>2020-03-08T14:30:14.732Z</time>
      </trkpt>
      <trkpt lat="44.51178" lon="3.2272">
        <ele>746.153658</ele>
        <time>2020-03-08T14:30:31.037Z</time>
      </trkpt>
      <trkpt lat="44.51175" lon="3.22695">
        <ele>747.732245</ele>
        <time>2020-03-08T14:30:40.296Z</time>
      </trkpt>
      <trkpt lat="44.51175" lon="3.22614">
        <ele>752.795671</ele>
        <time>2020-03-08T14:31:09.708Z</time>
      </trkpt>
      <trkpt lat="44.5119" lon="3.22569">
        <ele>756.034408</ele>
        <time>2020-03-08T14:31:28.295Z</time>
      </trkpt>
      <trkpt lat="44.51191" lon="3.22552">
        <ele>757.101627</ele>
        <time>2020-03-08T14:31:34.352Z</time>
      </trkpt>
      <trkpt lat="44.51174" lon="3.2248">
        <ele>762.008638</ele>
        <time>2020-03-08T14:32:02.285Z</time>
      </trkpt>
      <trkpt lat="44.51178" lon="3.22404">
        <ele>766.862755</ele>
        <time>2020-03-08T14:32:29.504Z</time>
      </trkpt>
      <trkpt lat="44.51185" lon="3.22376">
        <ele>768.669038</ele>
        <time>2020-03-08T14:32:40.040Z</time>
      </trkpt>
      <trkpt lat="44.51226" lon="3.22285">
        <ele>775.305327</ele>
        <time>2020-03-08T14:33:17.950Z</time>
      </trkpt>
      <trkpt lat="44.5124" lon="3.22265">
        <ele>776.976868</ele>
        <time>2020-03-08T14:33:27.404Z</time>
      </trkpt>
      <trkpt lat="44.51278" lon="3.2224">
        <ele>780.613681</ele>
        <time>2020-03-08T14:33:47.939Z</time>
      </trkpt>
      <trkpt lat="44.51286" lon="3.22225">
        <ele>781.722484</ele>
        <time>2020-03-08T14:33:54.148Z</time>
      </trkpt>
      <trkpt lat="44.51277" lon="3.22169">
        <ele>785.502932</ele>
        <time>2020-03-08T14:34:13.694Z</time>
      </trkpt>
      <trkpt lat="44.51278" lon="3.22012">
        <ele>795.89771</ele>
        <time>2020-03-08T14:35:14.554Z</time>
      </trkpt>
      <trkpt lat="44.51261" lon="3.21968">
        <ele>799.186222</ele>
        <time>2020-03-08T14:35:33.546Z</time>
      </trkpt>
      <trkpt lat="44.51235" lon="3.21954">
        <ele>801.246285</ele>
        <time>2020-03-08T14:35:46.423Z</time>
      </trkpt>
      <trkpt lat="44.51228" lon="3.21951">
        <ele>801.812011</ele>
        <time>2020-03-08T14:35:51.468Z</time>
      </trkpt>
      <trkpt lat="44.51216" lon="3.21946">
        <ele>802.778998</ele>
        <time>2020-03-08T14:35:56.638Z</time>
      </trkpt>
      <trkpt lat="44.5121" lon="3.21931">
        <ele>803.666996</ele>
        <time>2020-03-08T14:36:02.850Z</time>
      </trkpt>
      <trkpt lat="44.5121" lon="3.21909">
        <ele>804.874321</ele>
        <time>2020-03-08T14:36:10.993Z</time>
      </trkpt>
      <trkpt lat="44.5122" lon="3.21884">
        <ele>806.401702</ele>
        <time>2020-03-08T14:36:20.253Z</time>
      </trkpt>
      <trkpt lat="44.5124" lon="3.21871">
        <ele>808.064934</ele>
        <time>2020-03-08T14:36:30.327Z</time>
      </trkpt>
      <trkpt lat="44.51445" lon="3.21953">
        <ele>821.143194</ele>
        <time>2020-03-08T14:37:49.663Z</time>
      </trkpt>
      <trkpt lat="44.51448" lon="3.21951">
        <ele>821.306651</ele>
        <time>2020-03-08T14:37:51.729Z</time>
      </trkpt>
      <trkpt lat="44.51448" lon="3.2194">
        <ele>821.740545</ele>
        <time>2020-03-08T14:37:53.693Z</time>
      </trkpt>
      <trkpt lat="44.51434" lon="3.21927">
        <ele>822.728881</ele>
        <time>2020-03-08T14:37:59.077Z</time>
      </trkpt>
      <trkpt lat="44.51338" lon="3.21872">
        <ele>830.003498</ele>
        <time>2020-03-08T14:38:39.198Z</time>
      </trkpt>
      <trkpt lat="44.51321" lon="3.21849">
        <ele>831.5965</ele>
        <time>2020-03-08T14:38:49.565Z</time>
      </trkpt>
      <trkpt lat="44.51318" lon="3.21828">
        <ele>832.692127</ele>
        <time>2020-03-08T14:38:56.265Z</time>
      </trkpt>
      <trkpt lat="44.51323" lon="3.21771">
        <ele>835.829355</ele>
        <time>2020-03-08T14:39:16.157Z</time>
      </trkpt>
      <trkpt lat="44.51347" lon="3.21621">
        <ele>848.383676</ele>
        <time>2020-03-08T14:40:22.601Z</time>
      </trkpt>
      <trkpt lat="44.51369" lon="3.2153">
        <ele>856.299094</ele>
        <time>2020-03-08T14:41:08.220Z</time>
      </trkpt>
      <trkpt lat="44.51376" lon="3.21499">
        <ele>858.940968</ele>
        <time>2020-03-08T14:41:24.375Z</time>
      </trkpt>
      <trkpt lat="44.51379" lon="3.21469">
        <ele>861.385078</ele>
        <time>2020-03-08T14:41:38.051Z</time>
      </trkpt>
      <trkpt lat="44.51368" lon="3.21408">
        <ele>866.39601</ele>
        <time>2020-03-08T14:42:07.114Z</time>
      </trkpt>
      <trkpt lat="44.5141" lon="3.21246">
        <ele>878.69575</ele>
        <time>2020-03-08T14:43:15.068Z</time>
      </trkpt>
      <trkpt lat="44.51435" lon="3.21202">
        <ele>881.410849</ele>
        <time>2020-03-08T14:43:32.425Z</time>
      </trkpt>
      <trkpt lat="44.51496" lon="3.21141">
        <ele>886.584188</ele>
        <time>2020-03-08T14:44:01.599Z</time>
      </trkpt>
      <trkpt lat="44.51549" lon="3.21102">
        <ele>889.791008</ele>
        <time>2020-03-08T14:44:21.339Z</time>
      </trkpt>
      <trkpt lat="44.51671" lon="3.21014">
        <ele>895.203524</ele>
        <time>2020-03-08T14:45:01.500Z</time>
      </trkpt>
      <trkpt lat="44.51684" lon="3.21005">
        <ele>895.793104</ele>
        <time>2020-03-08T14:45:06.021Z</time>
      </trkpt>
      <trkpt lat="44.51706" lon="3.20989">
        <ele>896.803101</ele>
        <time>2020-03-08T14:45:13.698Z</time>
      </trkpt>
      <trkpt lat="44.51787" lon="3.20931">
        <ele>900.455269</ele>
        <time>2020-03-08T14:45:42.830Z</time>
      </trkpt>
      <trkpt lat="44.51813" lon="3.20907">
        <ele>901.680334</ele>
        <time>2020-03-08T14:45:52.517Z</time>
      </trkpt>
      <trkpt lat="44.51828" lon="3.20886">
        <ele>902.526054</ele>
        <time>2020-03-08T14:45:58.913Z</time>
      </trkpt>
      <trkpt lat="44.51864" lon="3.20798">
        <ele>904.350293</ele>
        <time>2020-03-08T14:46:19.575Z</time>
      </trkpt>
      <trkpt lat="44.51899" lon="3.2074">
        <ele>905.62183</ele>
        <time>2020-03-08T14:46:32.664Z</time>
      </trkpt>
      <trkpt lat="44.519" lon="3.20712">
        <ele>906.096897</ele>
        <time>2020-03-08T14:46:36.936Z</time>
      </trkpt>
      <trkpt lat="44.51891" lon="3.20695">
        <ele>906.448864</ele>
        <time>2020-03-08T14:46:40.098Z</time>
      </trkpt>
      <trkpt lat="44.51869" lon="3.20695">
        <ele>906.972408</ele>
        <time>2020-03-08T14:46:44.330Z</time>
      </trkpt>
      <trkpt lat="44.51789" lon="3.20728">
        <ele>908.382731</ele>
        <time>2020-03-08T14:46:58.719Z</time>
      </trkpt>
      <trkpt lat="44.51739" lon="3.20716">
        <ele>909.233421</ele>
        <time>2020-03-08T14:47:07.877Z</time>
      </trkpt>
      <trkpt lat="44.51714" lon="3.20681">
        <ele>909.8122</ele>
        <time>2020-03-08T14:47:17.630Z</time>
      </trkpt>
      <trkpt lat="44.51709" lon="3.20661">
        <ele>910.106698</ele>
        <time>2020-03-08T14:47:21.823Z</time>
      </trkpt>
      <trkpt lat="44.51704" lon="3.20542">
        <ele>914.182219</ele>
        <time>2020-03-08T14:47:48.864Z</time>
      </trkpt>
      <trkpt lat="44.51699" lon="3.20501">
        <ele>915.618126</ele>
        <time>2020-03-08T14:47:59.210Z</time>
      </trkpt>
      <trkpt lat="44.51696" lon="3.20482">
        <ele>916.30365</ele>
        <time>2020-03-08T14:48:05.218Z</time>
      </trkpt>
      <trkpt lat="44.5169" lon="3.20461">
        <ele>917.064448</ele>
        <time>2020-03-08T14:48:10.517Z</time>
      </trkpt>
      <trkpt lat="44.51647" lon="3.20375">
        <ele>920.817962</ele>
        <time>2020-03-08T14:48:39.679Z</time>
      </trkpt>
      <trkpt lat="44.51632" lon="3.20324">
        <ele>922.876882</ele>
        <time>2020-03-08T14:48:55.659Z</time>
      </trkpt>
      <trkpt lat="44.51643" lon="3.20219">
        <ele>926.79527</ele>
        <time>2020-03-08T14:49:21.075Z</time>
      </trkpt>
      <trkpt lat="44.51652" lon="3.20179">
        <ele>928.28074</ele>
        <time>2020-03-08T14:49:30.419Z</time>
      </trkpt>
      <trkpt lat="44.51794" lon="3.1987">
        <ele>939.02157</ele>
        <time>2020-03-08T14:50:51.413Z</time>
      </trkpt>
      <trkpt lat="44.51853" lon="3.19774">
        <ele>942.753716</ele>
        <time>2020-03-08T14:51:20.251Z</time>
      </trkpt>
      <trkpt lat="44.51865" lon="3.19717">
        <ele>944.61578</ele>
        <time>2020-03-08T14:51:34.205Z</time>
      </trkpt>
      <trkpt lat="44.51861" lon="3.19691">
        <ele>945.417597</ele>
        <time>2020-03-08T14:51:40.209Z</time>
      </trkpt>
      <trkpt lat="44.51851" lon="3.19669">
        <ele>946.222459</ele>
        <time>2020-03-08T14:51:46.244Z</time>
      </trkpt>
      <trkpt lat="44.51782" lon="3.19609">
        <ele>949.786531</ele>
        <time>2020-03-08T14:52:12.600Z</time>
      </trkpt>
      <trkpt lat="44.51717" lon="3.19579">
        <ele>952.747508</ele>
        <time>2020-03-08T14:52:34.147Z</time>
      </trkpt>
      <trkpt lat="44.51663" lon="3.19535">
        <ele>955.502247</ele>
        <time>2020-03-08T14:52:54.142Z</time>
      </trkpt>
      <trkpt lat="44.51585" lon="3.195">
        <ele>959.187624</ele>
        <time>2020-03-08T14:53:21.003Z</time>
      </trkpt>
      <trkpt lat="44.51555" lon="3.19497">
        <ele>960.735511</ele>
        <time>2020-03-08T14:53:31.464Z</time>
      </trkpt>
      <trkpt lat="44.51541" lon="3.1949">
        <ele>961.516801</ele>
        <time>2020-03-08T14:53:36.735Z</time>
      </trkpt>
      <trkpt lat="44.51533" lon="3.19473">
        <ele>962.260513</ele>
        <time>2020-03-08T14:53:41.891Z</time>
      </trkpt>
      <trkpt lat="44.51533" lon="3.19451">
        <ele>963.073528</ele>
        <time>2020-03-08T14:53:47.515Z</time>
      </trkpt>
      <trkpt lat="44.51539" lon="3.19435">
        <ele>963.752762</ele>
        <time>2020-03-08T14:53:52.196Z</time>
      </trkpt>
      <trkpt lat="44.51607" lon="3.19382">
        <ele>967.76077</ele>
        <time>2020-03-08T14:54:20.381Z</time>
      </trkpt>
      <trkpt lat="44.51656" lon="3.19283">
        <ele>972.201904</ele>
        <time>2020-03-08T14:54:52.196Z</time>
      </trkpt>
      <trkpt lat="44.51827" lon="3.19116">
        <ele>981.621654</ele>
        <time>2020-03-08T14:56:03.056Z</time>
      </trkpt>
      <trkpt lat="44.51881" lon="3.19089">
        <ele>983.972035</ele>
        <time>2020-03-08T14:56:19.697Z</time>
      </trkpt>
      <trkpt lat="44.51967" lon="3.19016">
        <ele>985.227031</ele>
        <time>2020-03-08T14:56:41.712Z</time>
      </trkpt>
      <trkpt lat="44.52072" lon="3.1897">
        <ele>985.96502</ele>
        <time>2020-03-08T14:56:57.659Z</time>
      </trkpt>
      <trkpt lat="44.52087" lon="3.18954">
        <ele>985.853169</ele>
        <time>2020-03-08T14:57:00.006Z</time>
      </trkpt>
      <trkpt lat="44.52128" lon="3.18838">
        <ele>985.308921</ele>
        <time>2020-03-08T14:57:11.179Z</time>
      </trkpt>
      <trkpt lat="44.52248" lon="3.18655">
        <ele>985.550292</ele>
        <time>2020-03-08T14:57:36.792Z</time>
      </trkpt>
      <trkpt lat="44.52309" lon="3.18504">
        <ele>987.161091</ele>
        <time>2020-03-08T14:58:02.908Z</time>
      </trkpt>
      <trkpt lat="44.52317" lon="3.18481">
        <ele>987.518249</ele>
        <time>2020-03-08T14:58:07.738Z</time>
      </trkpt>
      <trkpt lat="44.52344" lon="3.18419">
        <ele>988.506331</ele>
        <time>2020-03-08T14:58:20.426Z</time>
      </trkpt>
      <trkpt lat="44.52366" lon="3.18389">
        <ele>989.102229</ele>
        <time>2020-03-08T14:58:27.595Z</time>
      </trkpt>
      <trkpt lat="44.52403" lon="3.18351">
        <ele>989.834428</ele>
        <time>2020-03-08T14:58:37.606Z</time>
      </trkpt>
      <trkpt lat="44.52434" lon="3.18324">
        <ele>990.407565</ele>
        <time>2020-03-08T14:58:45.399Z</time>
      </trkpt>
      <trkpt lat="44.52443" lon="3.18317">
        <ele>990.579803</ele>
        <time>2020-03-08T14:58:47.601Z</time>
      </trkpt>
      <trkpt lat="44.52455" lon="3.18304">
        <ele>990.811505</ele>
        <time>2020-03-08T14:58:50.343Z</time>
      </trkpt>
      <trkpt lat="44.52472" lon="3.18286">
        <ele>991.144522</ele>
        <time>2020-03-08T14:58:54.825Z</time>
      </trkpt>
      <trkpt lat="44.52482" lon="3.18276">
        <ele>991.338898</ele>
        <time>2020-03-08T14:58:57.137Z</time>
      </trkpt>
      <trkpt lat="44.52497" lon="3.18252">
        <ele>991.699873</ele>
        <time>2020-03-08T14:59:02.052Z</time>
      </trkpt>
      <trkpt lat="44.52509" lon="3.18236">
        <ele>991.951988</ele>
        <time>2020-03-08T14:59:05.201Z</time>
      </trkpt>
      <trkpt lat="44.52559" lon="3.18174">
        <ele>993.960271</ele>
        <time>2020-03-08T14:59:19.081Z</time>
      </trkpt>
      <trkpt lat="44.52592" lon="3.18131">
        <ele>995.384231</ele>
        <time>2020-03-08T14:59:30.368Z</time>
      </trkpt>
      <trkpt lat="44.52616" lon="3.18078">
        <ele>996.778363</ele>
        <time>2020-03-08T14:59:44.093Z</time>
      </trkpt>
      <trkpt lat="44.52625" lon="3.18063">
        <ele>997.224267</ele>
        <time>2020-03-08T14:59:48.901Z</time>
      </trkpt>
      <trkpt lat="44.52666" lon="3.17977">
        <ele>1001.641657</ele>
        <time>2020-03-08T15:00:16.960Z</time>
      </trkpt>
      <trkpt lat="44.52689" lon="3.17943">
        <ele>1003.921472</ele>
        <time>2020-03-08T15:00:33.724Z</time>
      </trkpt>
      <trkpt lat="44.52711" lon="3.17929">
        <ele>1005.548407</ele>
        <time>2020-03-08T15:00:42.590Z</time>
      </trkpt>
      <trkpt lat="44.52739" lon="3.17919">
        <ele>1007.512705</ele>
        <time>2020-03-08T15:00:56.753Z</time>
      </trkpt>
      <trkpt lat="44.52767" lon="3.17918">
        <ele>1009.354194</ele>
        <time>2020-03-08T15:01:09.480Z</time>
      </trkpt>
      <trkpt lat="44.52791" lon="3.17932">
        <ele>1010.939528</ele>
        <time>2020-03-08T15:01:20.700Z</time>
      </trkpt>
      <trkpt lat="44.52811" lon="3.17954">
        <ele>1012.422096</ele>
        <time>2020-03-08T15:01:29.321Z</time>
      </trkpt>
      <trkpt lat="44.52824" lon="3.17954">
        <ele>1013.198169</ele>
        <time>2020-03-08T15:01:36.959Z</time>
      </trkpt>
      <trkpt lat="44.52831" lon="3.17937">
        <ele>1014.011935</ele>
        <time>2020-03-08T15:01:41.313Z</time>
      </trkpt>
      <trkpt lat="44.52827" lon="3.17923">
        <ele>1014.656968</ele>
        <time>2020-03-08T15:01:44.493Z</time>
      </trkpt>
      <trkpt lat="44.52804" lon="3.17853">
        <ele>1017.853598</ele>
        <time>2020-03-08T15:02:06.092Z</time>
      </trkpt>
      <trkpt lat="44.52806" lon="3.17825">
        <ele>1019.034551</ele>
        <time>2020-03-08T15:02:12.539Z</time>
      </trkpt>
      <trkpt lat="44.52839" lon="3.1774">
        <ele>1022.609747</ele>
        <time>2020-03-08T15:02:36.255Z</time>
      </trkpt>
      <trkpt lat="44.5285" lon="3.17662">
        <ele>1025.351784</ele>
        <time>2020-03-08T15:02:54.933Z</time>
      </trkpt>
      <trkpt lat="44.52844" lon="3.17641">
        <ele>1026.12557</ele>
        <time>2020-03-08T15:03:00.350Z</time>
      </trkpt>
      <trkpt lat="44.52831" lon="3.17628">
        <ele>1026.91204</ele>
        <time>2020-03-08T15:03:05.842Z</time>
      </trkpt>
      <trkpt lat="44.52819" lon="3.17631">
        <ele>1027.476624</ele>
        <time>2020-03-08T15:03:09.685Z</time>
      </trkpt>
      <trkpt lat="44.52791" lon="3.17659">
        <ele>1029.149991</ele>
        <time>2020-03-08T15:03:22.674Z</time>
      </trkpt>
      <trkpt lat="44.52776" lon="3.17664">
        <ele>1029.874078</ele>
        <time>2020-03-08T15:03:27.675Z</time>
      </trkpt>
      <trkpt lat="44.5276" lon="3.1766">
        <ele>1030.63219</ele>
        <time>2020-03-08T15:03:33.814Z</time>
      </trkpt>
      <trkpt lat="44.52706" lon="3.17606">
        <ele>1033.695336</ele>
        <time>2020-03-08T15:03:55.782Z</time>
      </trkpt>
      <trkpt lat="44.52677" lon="3.17592">
        <ele>1035.108591</ele>
        <time>2020-03-08T15:04:05.302Z</time>
      </trkpt>
      <trkpt lat="44.52659" lon="3.17595">
        <ele>1035.942278</ele>
        <time>2020-03-08T15:04:11.771Z</time>
      </trkpt>
      <trkpt lat="44.52637" lon="3.17604">
        <ele>1037.001396</ele>
        <time>2020-03-08T15:04:18.580Z</time>
      </trkpt>
      <trkpt lat="44.52606" lon="3.17613">
        <ele>1038.733412</ele>
        <time>2020-03-08T15:04:28.549Z</time>
      </trkpt>
      <trkpt lat="44.52595" lon="3.17606">
        <ele>1039.402564</ele>
        <time>2020-03-08T15:04:33.188Z</time>
      </trkpt>
      <trkpt lat="44.5259" lon="3.17597">
        <ele>1039.868352</ele>
        <time>2020-03-08T15:04:35.324Z</time>
      </trkpt>
      <trkpt lat="44.52582" lon="3.17574">
        <ele>1040.861584</ele>
        <time>2020-03-08T15:04:41.502Z</time>
      </trkpt>
      <trkpt lat="44.52562" lon="3.17503">
        <ele>1043.945428</ele>
        <time>2020-03-08T15:05:01.754Z</time>
      </trkpt>
      <trkpt lat="44.52551" lon="3.17487">
        <ele>1044.83358</ele>
        <time>2020-03-08T15:05:07.863Z</time>
      </trkpt>
      <trkpt lat="44.5252" lon="3.17463">
        <ele>1046.817664</ele>
        <time>2020-03-08T15:05:21.543Z</time>
      </trkpt>
      <trkpt lat="44.52511" lon="3.17443">
        <ele>1047.883317</ele>
        <time>2020-03-08T15:05:28.034Z</time>
      </trkpt>
      <trkpt lat="44.5248" lon="3.17295">
        <ele>1057.275041</ele>
        <time>2020-03-08T15:06:23.971Z</time>
      </trkpt>
      <trkpt lat="44.52445" lon="3.17192">
        <ele>1063.760946</ele>
        <time>2020-03-08T15:07:05.884Z</time>
      </trkpt>
      <trkpt lat="44.5244" lon="3.17167">
        <ele>1064.795783</ele>
        <time>2020-03-08T15:07:15.323Z</time>
      </trkpt>
      <trkpt lat="44.52451" lon="3.17152">
        <ele>1065.67422</ele>
        <time>2020-03-08T15:07:22.095Z</time>
      </trkpt>
      <trkpt lat="44.52478" lon="3.17133">
        <ele>1067.372796</ele>
        <time>2020-03-08T15:07:35.061Z</time>
      </trkpt>
      <trkpt lat="44.52505" lon="3.17123">
        <ele>1069.004232</ele>
        <time>2020-03-08T15:07:45.989Z</time>
      </trkpt>
      <trkpt lat="44.52533" lon="3.17115">
        <ele>1070.613167</ele>
        <time>2020-03-08T15:07:55.660Z</time>
      </trkpt>
      <trkpt lat="44.52547" lon="3.17117">
        <ele>1071.425921</ele>
        <time>2020-03-08T15:08:00.613Z</time>
      </trkpt>
      <trkpt lat="44.52571" lon="3.1711">
        <ele>1072.81723</ele>
        <time>2020-03-08T15:08:06.739Z</time>
      </trkpt>
      <trkpt lat="44.52581" lon="3.17102">
        <ele>1073.008074</ele>
        <time>2020-03-08T15:08:09.811Z</time>
      </trkpt>
      <trkpt lat="44.52589" lon="3.17079">
        <ele>1072.724331</ele>
        <time>2020-03-08T15:08:12.408Z</time>
      </trkpt>
      <trkpt lat="44.52602" lon="3.17038">
        <ele>1072.24534</ele>
        <time>2020-03-08T15:08:16.505Z</time>
      </trkpt>
      <trkpt lat="44.52631" lon="3.16974">
        <ele>1071.445685</ele>
        <time>2020-03-08T15:08:22.739Z</time>
      </trkpt>
      <trkpt lat="44.5264" lon="3.16956">
        <ele>1071.201291</ele>
        <time>2020-03-08T15:08:24.360Z</time>
      </trkpt>
      <trkpt lat="44.52658" lon="3.16933">
        <ele>1070.835101</ele>
        <time>2020-03-08T15:08:26.845Z</time>
      </trkpt>
      <trkpt lat="44.52674" lon="3.16913">
        <ele>1070.519985</ele>
        <time>2020-03-08T15:08:28.877Z</time>
      </trkpt>
      <trkpt lat="44.52681" lon="3.1689">
        <ele>1070.017903</ele>
        <time>2020-03-08T15:08:30.614Z</time>
      </trkpt>
      <trkpt lat="44.52665" lon="3.16808">
        <ele>1067.755982</ele>
        <time>2020-03-08T15:08:36.460Z</time>
      </trkpt>
      <trkpt lat="44.52657" lon="3.16714">
        <ele>1065.233519</ele>
        <time>2020-03-08T15:08:43.031Z</time>
      </trkpt>
      <trkpt lat="44.52642" lon="3.1667">
        <ele>1063.92602</ele>
        <time>2020-03-08T15:08:46.593Z</time>
      </trkpt>
      <trkpt lat="44.52635" lon="3.16607">
        <ele>1063.60079</ele>
        <time>2020-03-08T15:08:51.332Z</time>
      </trkpt>
      <trkpt lat="44.52635" lon="3.16545">
        <ele>1063.50546</ele>
        <time>2020-03-08T15:08:56.524Z</time>
      </trkpt>
      <trkpt lat="44.52652" lon="3.16442">
        <ele>1063.34297</ele>
        <time>2020-03-08T15:09:09.794Z</time>
      </trkpt>
      <trkpt lat="44.52666" lon="3.16399">
        <ele>1063.597333</ele>
        <time>2020-03-08T15:09:18.208Z</time>
      </trkpt>
      <trkpt lat="44.52677" lon="3.16382">
        <ele>1064.006391</ele>
        <time>2020-03-08T15:09:23.444Z</time>
      </trkpt>
      <trkpt lat="44.52706" lon="3.16357">
        <ele>1064.85775</ele>
        <time>2020-03-08T15:09:32.682Z</time>
      </trkpt>
      <trkpt lat="44.52736" lon="3.16347">
        <ele>1065.629024</ele>
        <time>2020-03-08T15:09:40.946Z</time>
      </trkpt>
      <trkpt lat="44.52804" lon="3.16344">
        <ele>1067.340317</ele>
        <time>2020-03-08T15:09:58.395Z</time>
      </trkpt>
      <trkpt lat="44.52826" lon="3.16338">
        <ele>1067.802489</ele>
        <time>2020-03-08T15:10:04.397Z</time>
      </trkpt>
      <trkpt lat="44.52847" lon="3.16332">
        <ele>1067.730481</ele>
        <time>2020-03-08T15:10:07.861Z</time>
      </trkpt>
      <trkpt lat="44.52884" lon="3.16314">
        <ele>1067.600388</ele>
        <time>2020-03-08T15:10:14.903Z</time>
      </trkpt>
      <trkpt lat="44.52933" lon="3.16269">
        <ele>1067.4067</ele>
        <time>2020-03-08T15:10:22.547Z</time>
      </trkpt>
      <trkpt lat="44.52959" lon="3.16264">
        <ele>1067.317872</ele>
        <time>2020-03-08T15:10:25.873Z</time>
      </trkpt>
      <trkpt lat="44.52974" lon="3.16268">
        <ele>1067.269567</ele>
        <time>2020-03-08T15:10:27.321Z</time>
      </trkpt>
      <trkpt lat="44.52996" lon="3.16285">
        <ele>1066.972355</ele>
        <time>2020-03-08T15:10:30.071Z</time>
      </trkpt>
      <trkpt lat="44.53021" lon="3.16331">
        <ele>1065.946659</ele>
        <time>2020-03-08T15:10:34.456Z</time>
      </trkpt>
      <trkpt lat="44.53039" lon="3.16346">
        <ele>1065.416234</ele>
        <time>2020-03-08T15:10:36.748Z</time>
      </trkpt>
      <trkpt lat="44.53059" lon="3.16346">
        <ele>1064.933658</ele>
        <time>2020-03-08T15:10:38.809Z</time>
      </trkpt>
      <trkpt lat="44.5309" lon="3.16329">
        <ele>1064.116692</ele>
        <time>2020-03-08T15:10:42.339Z</time>
      </trkpt>
      <trkpt lat="44.53115" lon="3.16332">
        <ele>1063.473289</ele>
        <time>2020-03-08T15:10:45.155Z</time>
      </trkpt>
      <trkpt lat="44.53158" lon="3.16347">
        <ele>1062.418138</ele>
        <time>2020-03-08T15:10:49.574Z</time>
      </trkpt>
      <trkpt lat="44.53189" lon="3.16356">
        <ele>1061.712037</ele>
        <time>2020-03-08T15:10:52.712Z</time>
      </trkpt>
      <trkpt lat="44.53227" lon="3.16368">
        <ele>1060.823405</ele>
        <time>2020-03-08T15:10:56.772Z</time>
      </trkpt>
      <trkpt lat="44.53251" lon="3.16357">
        <ele>1060.257927</ele>
        <time>2020-03-08T15:10:59.352Z</time>
      </trkpt>
      <trkpt lat="44.53257" lon="3.16347">
        <ele>1060.050295</ele>
        <time>2020-03-08T15:11:00.456Z</time>
      </trkpt>
      <trkpt lat="44.53265" lon="3.16331">
        <ele>1059.743362</ele>
        <time>2020-03-08T15:11:01.926Z</time>
      </trkpt>
      <trkpt lat="44.53267" lon="3.16318">
        <ele>1059.531762</ele>
        <time>2020-03-08T15:11:02.864Z</time>
      </trkpt>
      <trkpt lat="44.53263" lon="3.16299">
        <ele>1059.210224</ele>
        <time>2020-03-08T15:11:04.817Z</time>
      </trkpt>
      <trkpt lat="44.53251" lon="3.16272">
        <ele>1058.70802</ele>
        <time>2020-03-08T15:11:07.411Z</time>
      </trkpt>
      <trkpt lat="44.53246" lon="3.16258">
        <ele>1058.913557</ele>
        <time>2020-03-08T15:11:09.374Z</time>
      </trkpt>
      <trkpt lat="44.53245" lon="3.16213">
        <ele>1059.515066</ele>
        <time>2020-03-08T15:11:13.560Z</time>
      </trkpt>
      <trkpt lat="44.53327" lon="3.16053">
        <ele>1062.352068</ele>
        <time>2020-03-08T15:11:47.719Z</time>
      </trkpt>
      <trkpt lat="44.53339" lon="3.15989">
        <ele>1065.340843</ele>
        <time>2020-03-08T15:12:06.305Z</time>
      </trkpt>
      <trkpt lat="44.53352" lon="3.15953">
        <ele>1067.157069</ele>
        <time>2020-03-08T15:12:17.777Z</time>
      </trkpt>
      <trkpt lat="44.5339" lon="3.15884">
        <ele>1071.122919</ele>
        <time>2020-03-08T15:12:43.935Z</time>
      </trkpt>
      <trkpt lat="44.53397" lon="3.1587">
        <ele>1071.927401</ele>
        <time>2020-03-08T15:12:50.438Z</time>
      </trkpt>
      <trkpt lat="44.53435" lon="3.15801">
        <ele>1075.636059</ele>
        <time>2020-03-08T15:13:18.740Z</time>
      </trkpt>
      <trkpt lat="44.53447" lon="3.15764">
        <ele>1077.247557</ele>
        <time>2020-03-08T15:13:33.910Z</time>
      </trkpt>
      <trkpt lat="44.53457" lon="3.15731">
        <ele>1078.686506</ele>
        <time>2020-03-08T15:13:44.655Z</time>
      </trkpt>
      <trkpt lat="44.53469" lon="3.15715">
        <ele>1079.58648</ele>
        <time>2020-03-08T15:13:50.674Z</time>
      </trkpt>
      <trkpt lat="44.53499" lon="3.15696">
        <ele>1081.483628</ele>
        <time>2020-03-08T15:14:01.695Z</time>
      </trkpt>
      <trkpt lat="44.53532" lon="3.15688">
        <ele>1083.328339</ele>
        <time>2020-03-08T15:14:10.401Z</time>
      </trkpt>
      <trkpt lat="44.5355" lon="3.15674">
        <ele>1083.766055</ele>
        <time>2020-03-08T15:14:13.029Z</time>
      </trkpt>
      <trkpt lat="44.53553" lon="3.15661">
        <ele>1083.799325</ele>
        <time>2020-03-08T15:14:17.671Z</time>
      </trkpt>
      <trkpt lat="44.53552" lon="3.15651">
        <ele>1083.825803</ele>
        <time>2020-03-08T15:14:19.149Z</time>
      </trkpt>
      <trkpt lat="44.53549" lon="3.15641">
        <ele>1083.852656</ele>
        <time>2020-03-08T15:14:20.097Z</time>
      </trkpt>
      <trkpt lat="44.53546" lon="3.15636">
        <ele>1083.869844</ele>
        <time>2020-03-08T15:14:20.549Z</time>
      </trkpt>
      <trkpt lat="44.53525" lon="3.1562">
        <ele>1083.951277</ele>
        <time>2020-03-08T15:14:27.105Z</time>
      </trkpt>
      <trkpt lat="44.53511" lon="3.15616">
        <ele>1084.003726</ele>
        <time>2020-03-08T15:14:28.621Z</time>
      </trkpt>
      <trkpt lat="44.53508" lon="3.15628">
        <ele>1084.03516</ele>
        <time>2020-03-08T15:14:31.025Z</time>
      </trkpt>
      <trkpt lat="44.53491" lon="3.15628">
        <ele>1084.093098</ele>
        <time>2020-03-08T15:14:34.084Z</time>
      </trkpt>
      <trkpt lat="44.53464" lon="3.15609">
        <ele>1084.199771</ele>
        <time>2020-03-08T15:14:38.203Z</time>
      </trkpt>
      <trkpt lat="44.53457" lon="3.15588">
        <ele>1084.257958</ele>
        <time>2020-03-08T15:14:39.801Z</time>
      </trkpt>
      <trkpt lat="44.53436" lon="3.15417">
        <ele>1085.252305</ele>
        <time>2020-03-08T15:14:56.018Z</time>
      </trkpt>
      <trkpt lat="44.53429" lon="3.15402">
        <ele>1085.373557</ele>
        <time>2020-03-08T15:15:00.423Z</time>
      </trkpt>
      <trkpt lat="44.53413" lon="3.15385">
        <ele>1085.563591</ele>
        <time>2020-03-08T15:15:04.511Z</time>
      </trkpt>
      <trkpt lat="44.53391" lon="3.1537">
        <ele>1085.783879</ele>
        <time>2020-03-08T15:15:11.362Z</time>
      </trkpt>
      <trkpt lat="44.53382" lon="3.15363">
        <ele>1085.88607</ele>
        <time>2020-03-08T15:15:13.621Z</time>
      </trkpt>
      <trkpt lat="44.53375" lon="3.15355">
        <ele>1085.964048</ele>
        <time>2020-03-08T15:15:16.306Z</time>
      </trkpt>
      <trkpt lat="44.53359" lon="3.15336">
        <ele>1086.320805</ele>
        <time>2020-03-08T15:15:22.071Z</time>
      </trkpt>
      <trkpt lat="44.53351" lon="3.15321">
        <ele>1086.580149</ele>
        <time>2020-03-08T15:15:25.162Z</time>
      </trkpt>
      <trkpt lat="44.53349" lon="3.15318">
        <ele>1086.636729</ele>
        <time>2020-03-08T15:15:27.629Z</time>
      </trkpt>
      <trkpt lat="44.5331" lon="3.15044">
        <ele>1087.700488</ele>
        <time>2020-03-08T15:16:10.630Z</time>
      </trkpt>
      <trkpt lat="44.53314" lon="3.15017">
        <ele>1086.998067</ele>
        <time>2020-03-08T15:16:12.604Z</time>
      </trkpt>
      <trkpt lat="44.53356" lon="3.14928">
        <ele>1084.310795</ele>
        <time>2020-03-08T15:16:19.689Z</time>
      </trkpt>
      <trkpt lat="44.53367" lon="3.14893">
        <ele>1083.357178</ele>
        <time>2020-03-08T15:16:22.124Z</time>
      </trkpt>
      <trkpt lat="44.53387" lon="3.14801">
        <ele>1079.603213</ele>
        <time>2020-03-08T15:16:28.254Z</time>
      </trkpt>
      <trkpt lat="44.53389" lon="3.14745">
        <ele>1077.352716</ele>
        <time>2020-03-08T15:16:31.895Z</time>
      </trkpt>
      <trkpt lat="44.53403" lon="3.1471">
        <ele>1075.71385</ele>
        <time>2020-03-08T15:16:34.614Z</time>
      </trkpt>
      <trkpt lat="44.53429" lon="3.14669">
        <ele>1073.53932</ele>
        <time>2020-03-08T15:16:38.381Z</time>
      </trkpt>
      <trkpt lat="44.53512" lon="3.14597">
        <ele>1070.824013</ele>
        <time>2020-03-08T15:16:48.977Z</time>
      </trkpt>
      <trkpt lat="44.53572" lon="3.14527">
        <ele>1068.84812</ele>
        <time>2020-03-08T15:16:57.508Z</time>
      </trkpt>
      <trkpt lat="44.53573" lon="3.14516">
        <ele>1068.659102</ele>
        <time>2020-03-08T15:16:58.251Z</time>
      </trkpt>
      <trkpt lat="44.53572" lon="3.14508">
        <ele>1068.517158</ele>
        <time>2020-03-08T15:16:58.887Z</time>
      </trkpt>
      <trkpt lat="44.53565" lon="3.14491">
        <ele>1068.293153</ele>
        <time>2020-03-08T15:17:00.404Z</time>
      </trkpt>
      <trkpt lat="44.53559" lon="3.14486">
        <ele>1068.180259</ele>
        <time>2020-03-08T15:17:01.190Z</time>
      </trkpt>
      <trkpt lat="44.5355" lon="3.14482">
        <ele>1068.024966</ele>
        <time>2020-03-08T15:17:02.111Z</time>
      </trkpt>
      <trkpt lat="44.53512" lon="3.1448">
        <ele>1067.418274</ele>
        <time>2020-03-08T15:17:06.031Z</time>
      </trkpt>
      <trkpt lat="44.5342" lon="3.14517">
        <ele>1065.882797</ele>
        <time>2020-03-08T15:17:16.592Z</time>
      </trkpt>
      <trkpt lat="44.53385" lon="3.14514">
        <ele>1066.463089</ele>
        <time>2020-03-08T15:17:21.909Z</time>
      </trkpt>
      <trkpt lat="44.53367" lon="3.14499">
        <ele>1067.31473</ele>
        <time>2020-03-08T15:17:27.378Z</time>
      </trkpt>
      <trkpt lat="44.53353" lon="3.14471">
        <ele>1068.258924</ele>
        <time>2020-03-08T15:17:34.231Z</time>
      </trkpt>
      <trkpt lat="44.53334" lon="3.14396">
        <ele>1070.547049</ele>
        <time>2020-03-08T15:17:54.457Z</time>
      </trkpt>
      <trkpt lat="44.5333" lon="3.14341">
        <ele>1072.132872</ele>
        <time>2020-03-08T15:18:10.071Z</time>
      </trkpt>
      <trkpt lat="44.53323" lon="3.14321">
        <ele>1072.780208</ele>
        <time>2020-03-08T15:18:16.787Z</time>
      </trkpt>
      <trkpt lat="44.53301" lon="3.143">
        <ele>1073.593038</ele>
        <time>2020-03-08T15:18:27.139Z</time>
      </trkpt>
      <trkpt lat="44.53276" lon="3.14264">
        <ele>1074.704227</ele>
        <time>2020-03-08T15:18:41.605Z</time>
      </trkpt>
      <trkpt lat="44.53266" lon="3.1426">
        <ele>1075.002529</ele>
        <time>2020-03-08T15:18:45.305Z</time>
      </trkpt>
      <trkpt lat="44.53257" lon="3.14265">
        <ele>1075.302778</ele>
        <time>2020-03-08T15:18:48.621Z</time>
      </trkpt>
      <trkpt lat="44.53193" lon="3.14402">
        <ele>1078.0668</ele>
        <time>2020-03-08T15:19:12.066Z</time>
      </trkpt>
      <trkpt lat="44.53179" lon="3.14424">
        <ele>1077.642166</ele>
        <time>2020-03-08T15:19:14.394Z</time>
      </trkpt>
      <trkpt lat="44.53133" lon="3.14465">
        <ele>1076.579054</ele>
        <time>2020-03-08T15:19:19.919Z</time>
      </trkpt>
      <trkpt lat="44.53084" lon="3.14483">
        <ele>1075.589625</ele>
        <time>2020-03-08T15:19:25.076Z</time>
      </trkpt>
      <trkpt lat="44.53034" lon="3.14485">
        <ele>1074.986534</ele>
        <time>2020-03-08T15:19:30.180Z</time>
      </trkpt>
      <trkpt lat="44.52918" lon="3.14508">
        <ele>1076.101348</ele>
        <time>2020-03-08T15:19:48.029Z</time>
      </trkpt>
      <trkpt lat="44.52835" lon="3.14458">
        <ele>1078.628664</ele>
        <time>2020-03-08T15:20:17.364Z</time>
      </trkpt>
      <trkpt lat="44.52819" lon="3.14451">
        <ele>1079.45106</ele>
        <time>2020-03-08T15:20:23.249Z</time>
      </trkpt>
      <trkpt lat="44.52771" lon="3.14449">
        <ele>1081.915207</ele>
        <time>2020-03-08T15:20:41.422Z</time>
      </trkpt>
      <trkpt lat="44.52662" lon="3.14474">
        <ele>1087.302888</ele>
        <time>2020-03-08T15:21:21.539Z</time>
      </trkpt>
      <trkpt lat="44.52581" lon="3.14529">
        <ele>1091.416696</ele>
        <time>2020-03-08T15:21:51.539Z</time>
      </trkpt>
      <trkpt lat="44.52547" lon="3.14544">
        <ele>1093.046878</ele>
        <time>2020-03-08T15:22:02.646Z</time>
      </trkpt>
      <trkpt lat="44.52524" lon="3.1453">
        <ele>1094.084188</ele>
        <time>2020-03-08T15:22:10.137Z</time>
      </trkpt>
      <trkpt lat="44.52516" lon="3.14515">
        <ele>1094.505194</ele>
        <time>2020-03-08T15:22:13.972Z</time>
      </trkpt>
      <trkpt lat="44.52494" lon="3.14424">
        <ele>1096.701122</ele>
        <time>2020-03-08T15:22:34.349Z</time>
      </trkpt>
      <trkpt lat="44.52475" lon="3.144">
        <ele>1097.507758</ele>
        <time>2020-03-08T15:22:41.607Z</time>
      </trkpt>
      <trkpt lat="44.52461" lon="3.14396">
        <ele>1097.937302</ele>
        <time>2020-03-08T15:22:45.307Z</time>
      </trkpt>
      <trkpt lat="44.5244" lon="3.14401">
        <ele>1098.622442</ele>
        <time>2020-03-08T15:22:50.959Z</time>
      </trkpt>
      <trkpt lat="44.52398" lon="3.14422">
        <ele>1099.59871</ele>
        <time>2020-03-08T15:23:01.650Z</time>
      </trkpt>
      <trkpt lat="44.52359" lon="3.14471">
        <ele>1099.605039</ele>
        <time>2020-03-08T15:23:12.204Z</time>
      </trkpt>
      <trkpt lat="44.52263" lon="3.1454">
        <ele>1099.617958</ele>
        <time>2020-03-08T15:23:26.136Z</time>
      </trkpt>
      <trkpt lat="44.52053" lon="3.14646">
        <ele>1094.063308</ele>
        <time>2020-03-08T15:23:49.357Z</time>
      </trkpt>
      <trkpt lat="44.52024" lon="3.14654">
        <ele>1093.25748</ele>
        <time>2020-03-08T15:23:52.588Z</time>
      </trkpt>
      <trkpt lat="44.52007" lon="3.14652">
        <ele>1092.796497</ele>
        <time>2020-03-08T15:23:54.417Z</time>
      </trkpt>
      <trkpt lat="44.51979" lon="3.14627">
        <ele>1091.889331</ele>
        <time>2020-03-08T15:23:57.869Z</time>
      </trkpt>
      <trkpt lat="44.5196" lon="3.14595">
        <ele>1091.076725</ele>
        <time>2020-03-08T15:24:00.909Z</time>
      </trkpt>
      <trkpt lat="44.51947" lon="3.14579">
        <ele>1090.60386</ele>
        <time>2020-03-08T15:24:02.897Z</time>
      </trkpt>
      <trkpt lat="44.51929" lon="3.14574">
        <ele>1090.060681</ele>
        <time>2020-03-08T15:24:04.669Z</time>
      </trkpt>
      <trkpt lat="44.51911" lon="3.14574">
        <ele>1089.261697</ele>
        <time>2020-03-08T15:24:06.588Z</time>
      </trkpt>
      <trkpt lat="44.51881" lon="3.1458">
        <ele>1087.959859</ele>
        <time>2020-03-08T15:24:09.562Z</time>
      </trkpt>
      <trkpt lat="44.51861" lon="3.14583">
        <ele>1087.076261</ele>
        <time>2020-03-08T15:24:11.538Z</time>
      </trkpt>
      <trkpt lat="44.51839" lon="3.14583">
        <ele>1086.152136</ele>
        <time>2020-03-08T15:24:13.658Z</time>
      </trkpt>
      <trkpt lat="44.51819" lon="3.1458">
        <ele>1085.266043</ele>
        <time>2020-03-08T15:24:15.596Z</time>
      </trkpt>
      <trkpt lat="44.51805" lon="3.14574">
        <ele>1084.663661</ele>
        <time>2020-03-08T15:24:16.988Z</time>
      </trkpt>
      <trkpt lat="44.51791" lon="3.14564">
        <ele>1083.962016</ele>
        <time>2020-03-08T15:24:18.498Z</time>
      </trkpt>
      <trkpt lat="44.51775" lon="3.14543">
        <ele>1083.013485</ele>
        <time>2020-03-08T15:24:20.537Z</time>
      </trkpt>
      <trkpt lat="44.51687" lon="3.14407">
        <ele>1075.994345</ele>
        <time>2020-03-08T15:24:32.702Z</time>
      </trkpt>
      <trkpt lat="44.51602" lon="3.14262">
        <ele>1069.314121</ele>
        <time>2020-03-08T15:24:45.193Z</time>
      </trkpt>
      <trkpt lat="44.51587" lon="3.14252">
        <ele>1068.527235</ele>
        <time>2020-03-08T15:24:46.808Z</time>
      </trkpt>
      <trkpt lat="44.5157" lon="3.14249">
        <ele>1067.735997</ele>
        <time>2020-03-08T15:24:48.435Z</time>
      </trkpt>
      <trkpt lat="44.51522" lon="3.14254">
        <ele>1065.507298</ele>
        <time>2020-03-08T15:24:53.048Z</time>
      </trkpt>
      <trkpt lat="44.51415" lon="3.14295">
        <ele>1061.355917</ele>
        <time>2020-03-08T15:25:04.052Z</time>
      </trkpt>
      <trkpt lat="44.51395" lon="3.1429">
        <ele>1060.645704</ele>
        <time>2020-03-08T15:25:06.183Z</time>
      </trkpt>
      <trkpt lat="44.51353" lon="3.14259">
        <ele>1058.98714</ele>
        <time>2020-03-08T15:25:11.024Z</time>
      </trkpt>
      <trkpt lat="44.51342" lon="3.14231">
        <ele>1058.192415</ele>
        <time>2020-03-08T15:25:13.316Z</time>
      </trkpt>
      <trkpt lat="44.51335" lon="3.14171">
        <ele>1056.03431</ele>
        <time>2020-03-08T15:25:17.594Z</time>
      </trkpt>
      <trkpt lat="44.51342" lon="3.14142">
        <ele>1054.914284</ele>
        <time>2020-03-08T15:25:19.701Z</time>
      </trkpt>
      <trkpt lat="44.51342" lon="3.14142">
        <ele>1054.914284</ele>
        <time>2020-03-08T15:25:19.725Z</time>
      </trkpt>
      <trkpt lat="44.51378" lon="3.14055">
        <ele>1051.189001</ele>
        <time>2020-03-08T15:25:26.477Z</time>
      </trkpt>
      <trkpt lat="44.51393" lon="3.14018">
        <ele>1049.612211</ele>
        <time>2020-03-08T15:25:29.252Z</time>
      </trkpt>
      <trkpt lat="44.51398" lon="3.13969">
        <ele>1047.565934</ele>
        <time>2020-03-08T15:25:32.381Z</time>
      </trkpt>
      <trkpt lat="44.5138" lon="3.13837">
        <ele>1041.157593</ele>
        <time>2020-03-08T15:25:40.940Z</time>
      </trkpt>
      <trkpt lat="44.51382" lon="3.13795">
        <ele>1039.137634</ele>
        <time>2020-03-08T15:25:43.679Z</time>
      </trkpt>
      <trkpt lat="44.51377" lon="3.13765">
        <ele>1037.683672</ele>
        <time>2020-03-08T15:25:45.664Z</time>
      </trkpt>
      <trkpt lat="44.51351" lon="3.1369">
        <ele>1035.427844</ele>
        <time>2020-03-08T15:25:51.220Z</time>
      </trkpt>
      <trkpt lat="44.51339" lon="3.13618">
        <ele>1033.95085</ele>
        <time>2020-03-08T15:25:56.585Z</time>
      </trkpt>
      <trkpt lat="44.51338" lon="3.13583">
        <ele>1033.262454</ele>
        <time>2020-03-08T15:25:59.383Z</time>
      </trkpt>
      <trkpt lat="44.51346" lon="3.13525">
        <ele>1032.10169</ele>
        <time>2020-03-08T15:26:04.628Z</time>
      </trkpt>
      <trkpt lat="44.51367" lon="3.13469">
        <ele>1031.606358</ele>
        <time>2020-03-08T15:26:11.932Z</time>
      </trkpt>
      <trkpt lat="44.51386" lon="3.13442">
        <ele>1031.551455</ele>
        <time>2020-03-08T15:26:16.812Z</time>
      </trkpt>
      <trkpt lat="44.51395" lon="3.1343">
        <ele>1031.526252</ele>
        <time>2020-03-08T15:26:19.684Z</time>
      </trkpt>
      <trkpt lat="44.51429" lon="3.13403">
        <ele>1031.448648</ele>
        <time>2020-03-08T15:26:27.978Z</time>
      </trkpt>
      <trkpt lat="44.51462" lon="3.13386">
        <ele>1031.378342</ele>
        <time>2020-03-08T15:26:33.623Z</time>
      </trkpt>
      <trkpt lat="44.51557" lon="3.13358">
        <ele>1028.531464</ele>
        <time>2020-03-08T15:26:43.611Z</time>
      </trkpt>
      <trkpt lat="44.51575" lon="3.13349">
        <ele>1027.642845</ele>
        <time>2020-03-08T15:26:45.522Z</time>
      </trkpt>
      <trkpt lat="44.51589" lon="3.13345">
        <ele>1026.991317</ele>
        <time>2020-03-08T15:26:46.799Z</time>
      </trkpt>
      <trkpt lat="44.51603" lon="3.1333">
        <ele>1026.214467</ele>
        <time>2020-03-08T15:26:48.392Z</time>
      </trkpt>
      <trkpt lat="44.51607" lon="3.13312">
        <ele>1025.57717</ele>
        <time>2020-03-08T15:26:49.748Z</time>
      </trkpt>
      <trkpt lat="44.51606" lon="3.1329">
        <ele>1024.842081</ele>
        <time>2020-03-08T15:26:51.171Z</time>
      </trkpt>
      <trkpt lat="44.51605" lon="3.13284">
        <ele>1024.639176</ele>
        <time>2020-03-08T15:26:51.597Z</time>
      </trkpt>
      <trkpt lat="44.51603" lon="3.13268">
        <ele>1024.106334</ele>
        <time>2020-03-08T15:26:52.778Z</time>
      </trkpt>
      <trkpt lat="44.516" lon="3.13263">
        <ele>1023.916207</ele>
        <time>2020-03-08T15:26:53.145Z</time>
      </trkpt>
      <trkpt lat="44.51596" lon="3.13259">
        <ele>1023.677372</ele>
        <time>2020-03-08T15:26:53.589Z</time>
      </trkpt>
      <trkpt lat="44.51592" lon="3.13257">
        <ele>1023.459312</ele>
        <time>2020-03-08T15:26:54.031Z</time>
      </trkpt>
      <trkpt lat="44.51585" lon="3.13251">
        <ele>1023.109976</ele>
        <time>2020-03-08T15:26:54.705Z</time>
      </trkpt>
      <trkpt lat="44.51577" lon="3.13243">
        <ele>1022.661609</ele>
        <time>2020-03-08T15:26:55.706Z</time>
      </trkpt>
      <trkpt lat="44.51572" lon="3.13225">
        <ele>1022.008823</ele>
        <time>2020-03-08T15:26:56.931Z</time>
      </trkpt>
      <trkpt lat="44.51567" lon="3.13209">
        <ele>1021.43327</ele>
        <time>2020-03-08T15:26:58.035Z</time>
      </trkpt>
      <trkpt lat="44.51568" lon="3.13195">
        <ele>1020.957003</ele>
        <time>2020-03-08T15:26:59.068Z</time>
      </trkpt>
      <trkpt lat="44.51571" lon="3.13175">
        <ele>1020.293945</ele>
        <time>2020-03-08T15:27:00.312Z</time>
      </trkpt>
      <trkpt lat="44.51573" lon="3.13167">
        <ele>1020.016323</ele>
        <time>2020-03-08T15:27:00.844Z</time>
      </trkpt>
      <trkpt lat="44.51574" lon="3.13139">
        <ele>1019.085595</ele>
        <time>2020-03-08T15:27:02.741Z</time>
      </trkpt>
      <trkpt lat="44.51563" lon="3.13087">
        <ele>1017.272501</ele>
        <time>2020-03-08T15:27:06.380Z</time>
      </trkpt>
      <trkpt lat="44.51549" lon="3.13029">
        <ele>1015.238406</ele>
        <time>2020-03-08T15:27:10.859Z</time>
      </trkpt>
      <trkpt lat="44.51527" lon="3.12973">
        <ele>1014.223685</ele>
        <time>2020-03-08T15:27:16.387Z</time>
      </trkpt>
      <trkpt lat="44.51459" lon="3.12852">
        <ele>1012.842145</ele>
        <time>2020-03-08T15:27:29.509Z</time>
      </trkpt>
      <trkpt lat="44.51446" lon="3.12836">
        <ele>1012.617896</ele>
        <time>2020-03-08T15:27:31.851Z</time>
      </trkpt>
      <trkpt lat="44.5144" lon="3.12832">
        <ele>1012.535458</ele>
        <time>2020-03-08T15:27:33.067Z</time>
      </trkpt>
      <trkpt lat="44.51433" lon="3.12832">
        <ele>1012.450808</ele>
        <time>2020-03-08T15:27:33.767Z</time>
      </trkpt>
      <trkpt lat="44.51355" lon="3.12833">
        <ele>1011.805408</ele>
        <time>2020-03-08T15:27:43.620Z</time>
      </trkpt>
      <trkpt lat="44.51299" lon="3.12815">
        <ele>1011.346399</ele>
        <time>2020-03-08T15:27:51.056Z</time>
      </trkpt>
      <trkpt lat="44.51268" lon="3.12801">
        <ele>1011.095454</ele>
        <time>2020-03-08T15:27:54.856Z</time>
      </trkpt>
      <trkpt lat="44.5119" lon="3.12726">
        <ele>1010.577895</ele>
        <time>2020-03-08T15:28:07.223Z</time>
      </trkpt>
      <trkpt lat="44.5117" lon="3.12719">
        <ele>1010.47906</ele>
        <time>2020-03-08T15:28:10.007Z</time>
      </trkpt>
      <trkpt lat="44.51109" lon="3.12718">
        <ele>1010.186192</ele>
        <time>2020-03-08T15:28:18.536Z</time>
      </trkpt>
      <trkpt lat="44.51067" lon="3.12706">
        <ele>1009.741124</ele>
        <time>2020-03-08T15:28:24.553Z</time>
      </trkpt>
      <trkpt lat="44.51041" lon="3.12696">
        <ele>1009.323735</ele>
        <time>2020-03-08T15:28:28.074Z</time>
      </trkpt>
      <trkpt lat="44.50957" lon="3.12663">
        <ele>1007.949078</ele>
        <time>2020-03-08T15:28:38.438Z</time>
      </trkpt>
      <trkpt lat="44.50914" lon="3.12638">
        <ele>1007.163795</ele>
        <time>2020-03-08T15:28:43.196Z</time>
      </trkpt>
      <trkpt lat="44.50896" lon="3.12617">
        <ele>1006.0177</ele>
        <time>2020-03-08T15:28:45.506Z</time>
      </trkpt>
      <trkpt lat="44.50882" lon="3.12595">
        <ele>1004.98515</ele>
        <time>2020-03-08T15:28:47.543Z</time>
      </trkpt>
      <trkpt lat="44.50866" lon="3.12549">
        <ele>1003.166892</ele>
        <time>2020-03-08T15:28:51.048Z</time>
      </trkpt>
      <trkpt lat="44.50863" lon="3.12486">
        <ele>1000.962386</ele>
        <time>2020-03-08T15:28:55.211Z</time>
      </trkpt>
      <trkpt lat="44.50868" lon="3.12459">
        <ele>999.997937</ele>
        <time>2020-03-08T15:28:57.021Z</time>
      </trkpt>
      <trkpt lat="44.50897" lon="3.12388">
        <ele>997.131305</ele>
        <time>2020-03-08T15:29:02.367Z</time>
      </trkpt>
      <trkpt lat="44.50904" lon="3.12354">
        <ele>995.864716</ele>
        <time>2020-03-08T15:29:04.746Z</time>
      </trkpt>
      <trkpt lat="44.50888" lon="3.12283">
        <ele>993.240571</ele>
        <time>2020-03-08T15:29:09.724Z</time>
      </trkpt>
      <trkpt lat="44.50899" lon="3.12251">
        <ele>992.000042</ele>
        <time>2020-03-08T15:29:12.115Z</time>
      </trkpt>
      <trkpt lat="44.51116" lon="3.12021">
        <ele>980.321419</ele>
        <time>2020-03-08T15:29:39.087Z</time>
      </trkpt>
      <trkpt lat="44.51143" lon="3.12006">
        <ele>978.612987</ele>
        <time>2020-03-08T15:29:41.771Z</time>
      </trkpt>
      <trkpt lat="44.51193" lon="3.12009">
        <ele>975.599522</ele>
        <time>2020-03-08T15:29:46.417Z</time>
      </trkpt>
      <trkpt lat="44.51212" lon="3.11996">
        <ele>974.357756</ele>
        <time>2020-03-08T15:29:48.300Z</time>
      </trkpt>
      <trkpt lat="44.51215" lon="3.11959">
        <ele>972.796046</ele>
        <time>2020-03-08T15:29:50.652Z</time>
      </trkpt>
      <trkpt lat="44.5117" lon="3.11841">
        <ele>966.482093</ele>
        <time>2020-03-08T15:29:59.104Z</time>
      </trkpt>
      <trkpt lat="44.51171" lon="3.11811">
        <ele>965.035643</ele>
        <time>2020-03-08T15:30:01.037Z</time>
      </trkpt>
      <trkpt lat="44.51204" lon="3.11748">
        <ele>961.308006</ele>
        <time>2020-03-08T15:30:06.160Z</time>
      </trkpt>
      <trkpt lat="44.51228" lon="3.11678">
        <ele>959.494311</ele>
        <time>2020-03-08T15:30:11.452Z</time>
      </trkpt>
      <trkpt lat="44.51248" lon="3.11538">
        <ele>957.749367</ele>
        <time>2020-03-08T15:30:23.059Z</time>
      </trkpt>
      <trkpt lat="44.5129" lon="3.11425">
        <ele>957.71224</ele>
        <time>2020-03-08T15:30:41.215Z</time>
      </trkpt>
      <trkpt lat="44.51286" lon="3.11397">
        <ele>957.970159</ele>
        <time>2020-03-08T15:30:45.721Z</time>
      </trkpt>
      <trkpt lat="44.51273" lon="3.11377">
        <ele>958.217984</ele>
        <time>2020-03-08T15:30:49.941Z</time>
      </trkpt>
      <trkpt lat="44.51252" lon="3.11381">
        <ele>958.486725</ele>
        <time>2020-03-08T15:30:54.555Z</time>
      </trkpt>
      <trkpt lat="44.51174" lon="3.11496">
        <ele>959.414784</ele>
        <time>2020-03-08T15:31:16.804Z</time>
      </trkpt>
      <trkpt lat="44.51115" lon="3.11566">
        <ele>959.486048</ele>
        <time>2020-03-08T15:31:28.557Z</time>
      </trkpt>
      <trkpt lat="44.51007" lon="3.11667">
        <ele>959.481871</ele>
        <time>2020-03-08T15:31:45.005Z</time>
      </trkpt>
      <trkpt lat="44.509" lon="3.11729">
        <ele>959.562252</ele>
        <time>2020-03-08T15:32:02.398Z</time>
      </trkpt>
      <trkpt lat="44.50824" lon="3.11754">
        <ele>961.415953</ele>
        <time>2020-03-08T15:32:19.100Z</time>
      </trkpt>
      <trkpt lat="44.50714" lon="3.11747">
        <ele>964.229527</ele>
        <time>2020-03-08T15:32:50.238Z</time>
      </trkpt>
      <trkpt lat="44.50624" lon="3.11778">
        <ele>967.6618</ele>
        <time>2020-03-08T15:33:18.516Z</time>
      </trkpt>
      <trkpt lat="44.50538" lon="3.11799">
        <ele>970.788588</ele>
        <time>2020-03-08T15:33:44.225Z</time>
      </trkpt>
      <trkpt lat="44.50475" lon="3.11806">
        <ele>972.812802</ele>
        <time>2020-03-08T15:34:02.182Z</time>
      </trkpt>
      <trkpt lat="44.50409" lon="3.11836">
        <ele>975.02734</ele>
        <time>2020-03-08T15:34:20.643Z</time>
      </trkpt>
      <trkpt lat="44.50366" lon="3.11838">
        <ele>976.253439</ele>
        <time>2020-03-08T15:34:32.032Z</time>
      </trkpt>
      <trkpt lat="44.50336" lon="3.11832">
        <ele>976.803403</ele>
        <time>2020-03-08T15:34:40.089Z</time>
      </trkpt>
      <trkpt lat="44.50304" lon="3.11808">
        <ele>977.456699</ele>
        <time>2020-03-08T15:34:49.583Z</time>
      </trkpt>
      <trkpt lat="44.50278" lon="3.11801">
        <ele>977.939006</ele>
        <time>2020-03-08T15:34:56.317Z</time>
      </trkpt>
      <trkpt lat="44.50252" lon="3.11808">
        <ele>978.421089</ele>
        <time>2020-03-08T15:35:02.459Z</time>
      </trkpt>
      <trkpt lat="44.50196" lon="3.11834">
        <ele>978.975736</ele>
        <time>2020-03-08T15:35:12.256Z</time>
      </trkpt>
      <trkpt lat="44.50169" lon="3.11839">
        <ele>978.096515</ele>
        <time>2020-03-08T15:35:15.518Z</time>
      </trkpt>
      <trkpt lat="44.50122" lon="3.11834">
        <ele>976.610858</ele>
        <time>2020-03-08T15:35:20.497Z</time>
      </trkpt>
      <trkpt lat="44.50106" lon="3.11825">
        <ele>976.041221</ele>
        <time>2020-03-08T15:35:22.239Z</time>
      </trkpt>
      <trkpt lat="44.5006" lon="3.11783">
        <ele>974.295354</ele>
        <time>2020-03-08T15:35:27.498Z</time>
      </trkpt>
      <trkpt lat="44.50007" lon="3.11731">
        <ele>970.760408</ele>
        <time>2020-03-08T15:35:33.428Z</time>
      </trkpt>
      <trkpt lat="44.49983" lon="3.11705">
        <ele>968.734658</ele>
        <time>2020-03-08T15:35:36.135Z</time>
      </trkpt>
      <trkpt lat="44.49967" lon="3.11645">
        <ele>965.654887</ele>
        <time>2020-03-08T15:35:40.238Z</time>
      </trkpt>
      <trkpt lat="44.49955" lon="3.1162">
        <ele>964.244464</ele>
        <time>2020-03-08T15:35:42.086Z</time>
      </trkpt>
      <trkpt lat="44.49939" lon="3.11606">
        <ele>962.962251</ele>
        <time>2020-03-08T15:35:43.778Z</time>
      </trkpt>
      <trkpt lat="44.49909" lon="3.11598">
        <ele>961.134944</ele>
        <time>2020-03-08T15:35:46.462Z</time>
      </trkpt>
      <trkpt lat="44.49846" lon="3.11594">
        <ele>958.436658</ele>
        <time>2020-03-08T15:35:52.350Z</time>
      </trkpt>
      <trkpt lat="44.49819" lon="3.11588">
        <ele>957.239722</ele>
        <time>2020-03-08T15:35:55.026Z</time>
      </trkpt>
      <trkpt lat="44.49802" lon="3.11578">
        <ele>956.488362</ele>
        <time>2020-03-08T15:35:56.765Z</time>
      </trkpt>
      <trkpt lat="44.49784" lon="3.11554">
        <ele>955.421556</ele>
        <time>2020-03-08T15:35:59.341Z</time>
      </trkpt>
      <trkpt lat="44.49771" lon="3.11521">
        <ele>954.261296</ele>
        <time>2020-03-08T15:36:02.159Z</time>
      </trkpt>
      <trkpt lat="44.49767" lon="3.11472">
        <ele>953.744401</ele>
        <time>2020-03-08T15:36:06.117Z</time>
      </trkpt>
      <trkpt lat="44.49772" lon="3.11434">
        <ele>953.692273</ele>
        <time>2020-03-08T15:36:09.540Z</time>
      </trkpt>
      <trkpt lat="44.49799" lon="3.11375">
        <ele>953.596405</ele>
        <time>2020-03-08T15:36:18.438Z</time>
      </trkpt>
      <trkpt lat="44.49819" lon="3.11348">
        <ele>953.544596</ele>
        <time>2020-03-08T15:36:23.837Z</time>
      </trkpt>
      <trkpt lat="44.49884" lon="3.11293">
        <ele>953.003189</ele>
        <time>2020-03-08T15:36:37.541Z</time>
      </trkpt>
      <trkpt lat="44.50036" lon="3.11175">
        <ele>949.461605</ele>
        <time>2020-03-08T15:36:56.348Z</time>
      </trkpt>
      <trkpt lat="44.50085" lon="3.11108">
        <ele>946.415936</ele>
        <time>2020-03-08T15:37:02.812Z</time>
      </trkpt>
      <trkpt lat="44.50121" lon="3.11048">
        <ele>943.921444</ele>
        <time>2020-03-08T15:37:08.042Z</time>
      </trkpt>
      <trkpt lat="44.50165" lon="3.10923">
        <ele>939.838404</ele>
        <time>2020-03-08T15:37:17.541Z</time>
      </trkpt>
      <trkpt lat="44.50188" lon="3.10896">
        <ele>938.667786</ele>
        <time>2020-03-08T15:37:20.577Z</time>
      </trkpt>
      <trkpt lat="44.50391" lon="3.10785">
        <ele>929.078145</ele>
        <time>2020-03-08T15:37:42.374Z</time>
      </trkpt>
      <trkpt lat="44.50449" lon="3.1075">
        <ele>925.720077</ele>
        <time>2020-03-08T15:37:47.997Z</time>
      </trkpt>
      <trkpt lat="44.50491" lon="3.10717">
        <ele>922.129729</ele>
        <time>2020-03-08T15:37:52.227Z</time>
      </trkpt>
      <trkpt lat="44.50513" lon="3.10692">
        <ele>920.021614</ele>
        <time>2020-03-08T15:37:54.725Z</time>
      </trkpt>
      <trkpt lat="44.50523" lon="3.10668">
        <ele>918.532989</ele>
        <time>2020-03-08T15:37:56.478Z</time>
      </trkpt>
      <trkpt lat="44.50527" lon="3.10634">
        <ele>916.681724</ele>
        <time>2020-03-08T15:37:58.668Z</time>
      </trkpt>
      <trkpt lat="44.50526" lon="3.10582">
        <ele>913.971007</ele>
        <time>2020-03-08T15:38:01.927Z</time>
      </trkpt>
      <trkpt lat="44.50535" lon="3.10556">
        <ele>913.008233</ele>
        <time>2020-03-08T15:38:03.860Z</time>
      </trkpt>
      <trkpt lat="44.50547" lon="3.10533">
        <ele>912.417478</ele>
        <time>2020-03-08T15:38:05.781Z</time>
      </trkpt>
      <trkpt lat="44.50564" lon="3.10518">
        <ele>911.822964</ele>
        <time>2020-03-08T15:38:07.911Z</time>
      </trkpt>
      <trkpt lat="44.50586" lon="3.10513">
        <ele>911.181016</ele>
        <time>2020-03-08T15:38:10.265Z</time>
      </trkpt>
      <trkpt lat="44.50702" lon="3.10517">
        <ele>907.627752</ele>
        <time>2020-03-08T15:38:23.596Z</time>
      </trkpt>
      <trkpt lat="44.50762" lon="3.10499">
        <ele>905.260263</ele>
        <time>2020-03-08T15:38:30.022Z</time>
      </trkpt>
      <trkpt lat="44.50884" lon="3.10441">
        <ele>900.405685</ele>
        <time>2020-03-08T15:38:42.161Z</time>
      </trkpt>
      <trkpt lat="44.50898" lon="3.10422">
        <ele>899.826068</ele>
        <time>2020-03-08T15:38:43.979Z</time>
      </trkpt>
      <trkpt lat="44.50901" lon="3.10405">
        <ele>899.462111</ele>
        <time>2020-03-08T15:38:45.175Z</time>
      </trkpt>
      <trkpt lat="44.50899" lon="3.10389">
        <ele>899.108928</ele>
        <time>2020-03-08T15:38:46.220Z</time>
      </trkpt>
      <trkpt lat="44.50884" lon="3.10358">
        <ele>898.308293</ele>
        <time>2020-03-08T15:38:48.904Z</time>
      </trkpt>
      <trkpt lat="44.50875" lon="3.10351">
        <ele>898.00997</ele>
        <time>2020-03-08T15:38:49.815Z</time>
      </trkpt>
      <trkpt lat="44.50725" lon="3.10364">
        <ele>898.230025</ele>
        <time>2020-03-08T15:39:10.475Z</time>
      </trkpt>
      <trkpt lat="44.50689" lon="3.10352">
        <ele>899.504534</ele>
        <time>2020-03-08T15:39:22.388Z</time>
      </trkpt>
      <trkpt lat="44.50589" lon="3.10293">
        <ele>903.86766</ele>
        <time>2020-03-08T15:40:09.075Z</time>
      </trkpt>
      <trkpt lat="44.50564" lon="3.10284">
        <ele>905.163823</ele>
        <time>2020-03-08T15:40:20.230Z</time>
      </trkpt>
      <trkpt lat="44.50527" lon="3.10282">
        <ele>907.023661</ele>
        <time>2020-03-08T15:40:34.650Z</time>
      </trkpt>
      <trkpt lat="44.50491" lon="3.10286">
        <ele>908.847023</ele>
        <time>2020-03-08T15:40:46.757Z</time>
      </trkpt>
      <trkpt lat="44.50468" lon="3.1029">
        <ele>910.005071</ele>
        <time>2020-03-08T15:40:53.161Z</time>
      </trkpt>
      <trkpt lat="44.50447" lon="3.10301">
        <ele>910.9489</ele>
        <time>2020-03-08T15:40:58.481Z</time>
      </trkpt>
      <trkpt lat="44.50379" lon="3.10375">
        <ele>910.787195</ele>
        <time>2020-03-08T15:41:13.138Z</time>
      </trkpt>
      <trkpt lat="44.50354" lon="3.10399">
        <ele>910.727936</ele>
        <time>2020-03-08T15:41:16.468Z</time>
      </trkpt>
      <trkpt lat="44.50338" lon="3.10406">
        <ele>910.697007</ele>
        <time>2020-03-08T15:41:18.136Z</time>
      </trkpt>
      <trkpt lat="44.50321" lon="3.10409">
        <ele>910.664353</ele>
        <time>2020-03-08T15:41:19.941Z</time>
      </trkpt>
      <trkpt lat="44.50273" lon="3.10381">
        <ele>911.415991</ele>
        <time>2020-03-08T15:41:26.252Z</time>
      </trkpt>
      <trkpt lat="44.50227" lon="3.10368">
        <ele>912.883546</ele>
        <time>2020-03-08T15:41:35.082Z</time>
      </trkpt>
      <trkpt lat="44.50218" lon="3.10357">
        <ele>913.23679</ele>
        <time>2020-03-08T15:41:37.643Z</time>
      </trkpt>
      <trkpt lat="44.50217" lon="3.1034">
        <ele>913.617434</ele>
        <time>2020-03-08T15:41:40.938Z</time>
      </trkpt>
      <trkpt lat="44.50304" lon="3.10151">
        <ele>921.556237</ele>
        <time>2020-03-08T15:42:44.941Z</time>
      </trkpt>
      <trkpt lat="44.50319" lon="3.10105">
        <ele>924.05356</ele>
        <time>2020-03-08T15:43:01.740Z</time>
      </trkpt>
      <trkpt lat="44.50324" lon="3.1006">
        <ele>926.347198</ele>
        <time>2020-03-08T15:43:16.830Z</time>
      </trkpt>
      <trkpt lat="44.50314" lon="3.09879">
        <ele>934.904644</ele>
        <time>2020-03-08T15:44:12.143Z</time>
      </trkpt>
      <trkpt lat="44.5033" lon="3.09806">
        <ele>938.459133</ele>
        <time>2020-03-08T15:44:33.327Z</time>
      </trkpt>
      <trkpt lat="44.50358" lon="3.09743">
        <ele>941.677389</ele>
        <time>2020-03-08T15:44:53.182Z</time>
      </trkpt>
      <trkpt lat="44.50453" lon="3.09604">
        <ele>949.497042</ele>
        <time>2020-03-08T15:45:46.382Z</time>
      </trkpt>
      <trkpt lat="44.50506" lon="3.09556">
        <ele>951.829508</ele>
        <time>2020-03-08T15:46:08.087Z</time>
      </trkpt>
      <trkpt lat="44.50539" lon="3.09551">
        <ele>952.794416</ele>
        <time>2020-03-08T15:46:16.676Z</time>
      </trkpt>
      <trkpt lat="44.5056" lon="3.09557">
        <ele>953.39215</ele>
        <time>2020-03-08T15:46:22.640Z</time>
      </trkpt>
      <trkpt lat="44.50583" lon="3.09565">
        <ele>954.085604</ele>
        <time>2020-03-08T15:46:27.884Z</time>
      </trkpt>
      <trkpt lat="44.50606" lon="3.09563">
        <ele>954.7547</ele>
        <time>2020-03-08T15:46:32.273Z</time>
      </trkpt>
      <trkpt lat="44.50611" lon="3.09559">
        <ele>954.911633</ele>
        <time>2020-03-08T15:46:34.190Z</time>
      </trkpt>
      <trkpt lat="44.50614" lon="3.09549">
        <ele>955.145316</ele>
        <time>2020-03-08T15:46:35.881Z</time>
      </trkpt>
      <trkpt lat="44.50616" lon="3.09529">
        <ele>955.555911</ele>
        <time>2020-03-08T15:46:39.241Z</time>
      </trkpt>
      <trkpt lat="44.50609" lon="3.09518">
        <ele>955.785944</ele>
        <time>2020-03-08T15:46:40.421Z</time>
      </trkpt>
      <trkpt lat="44.50599" lon="3.0951">
        <ele>955.898029</ele>
        <time>2020-03-08T15:46:43.480Z</time>
      </trkpt>
      <trkpt lat="44.50572" lon="3.09506">
        <ele>956.156468</ele>
        <time>2020-03-08T15:46:48.604Z</time>
      </trkpt>
      <trkpt lat="44.50511" lon="3.09474">
        <ele>956.787488</ele>
        <time>2020-03-08T15:46:58.785Z</time>
      </trkpt>
      <trkpt lat="44.50487" lon="3.09473">
        <ele>957.008819</ele>
        <time>2020-03-08T15:47:02.150Z</time>
      </trkpt>
      <trkpt lat="44.50459" lon="3.09451">
        <ele>957.316641</ele>
        <time>2020-03-08T15:47:07.190Z</time>
      </trkpt>
      <trkpt lat="44.50449" lon="3.09449">
        <ele>957.41484</ele>
        <time>2020-03-08T15:47:09.613Z</time>
      </trkpt>
      <trkpt lat="44.50417" lon="3.09459">
        <ele>958.396364</ele>
        <time>2020-03-08T15:47:17.893Z</time>
      </trkpt>
      <trkpt lat="44.50385" lon="3.09457">
        <ele>959.56803</ele>
        <time>2020-03-08T15:47:27.107Z</time>
      </trkpt>
      <trkpt lat="44.50341" lon="3.09467">
        <ele>961.162815</ele>
        <time>2020-03-08T15:47:40.803Z</time>
      </trkpt>
      <trkpt lat="44.50211" lon="3.09562">
        <ele>967.163788</ele>
        <time>2020-03-08T15:48:28.201Z</time>
      </trkpt>
      <trkpt lat="44.50197" lon="3.09567">
        <ele>967.809171</ele>
        <time>2020-03-08T15:48:32.845Z</time>
      </trkpt>
      <trkpt lat="44.50184" lon="3.09563">
        <ele>968.416529</ele>
        <time>2020-03-08T15:48:37.295Z</time>
      </trkpt>
      <trkpt lat="44.5011" lon="3.09505">
        <ele>972.425896</ele>
        <time>2020-03-08T15:49:06.730Z</time>
      </trkpt>
      <trkpt lat="44.50094" lon="3.09504">
        <ele>973.390959</ele>
        <time>2020-03-08T15:49:11.964Z</time>
      </trkpt>
      <trkpt lat="44.50029" lon="3.09511">
        <ele>977.298416</ele>
        <time>2020-03-08T15:49:34.984Z</time>
      </trkpt>
      <trkpt lat="44.5" lon="3.09471">
        <ele>979.728047</ele>
        <time>2020-03-08T15:49:51.655Z</time>
      </trkpt>
      <trkpt lat="44.49996" lon="3.09464">
        <ele>980.093586</ele>
        <time>2020-03-08T15:49:54.490Z</time>
      </trkpt>
      <trkpt lat="44.5" lon="3.09439">
        <ele>981.186394</ele>
        <time>2020-03-08T15:50:03.054Z</time>
      </trkpt>
      <trkpt lat="44.50007" lon="3.09406">
        <ele>982.673136</ele>
        <time>2020-03-08T15:50:16.342Z</time>
      </trkpt>
      <trkpt lat="44.50021" lon="3.09357">
        <ele>986.002378</ele>
        <time>2020-03-08T15:50:36.365Z</time>
      </trkpt>
      <trkpt lat="44.50021" lon="3.09355">
        <ele>986.109965</ele>
        <time>2020-03-08T15:50:37.130Z</time>
      </trkpt>
      <trkpt lat="44.50029" lon="3.09326">
        <ele>988.20858</ele>
        <time>2020-03-08T15:50:49.612Z</time>
      </trkpt>
      <trkpt lat="44.50032" lon="3.09316">
        <ele>988.958776</ele>
        <time>2020-03-08T15:50:53.911Z</time>
      </trkpt>
      <trkpt lat="44.50051" lon="3.0927">
        <ele>992.478785</ele>
        <time>2020-03-08T15:51:15.235Z</time>
      </trkpt>
      <trkpt lat="44.50059" lon="3.09259">
        <ele>993.529352</ele>
        <time>2020-03-08T15:51:21.522Z</time>
      </trkpt>
      <trkpt lat="44.50069" lon="3.09256">
        <ele>994.492599</ele>
        <time>2020-03-08T15:51:26.708Z</time>
      </trkpt>
      <trkpt lat="44.5007" lon="3.09255">
        <ele>994.666872</ele>
        <time>2020-03-08T15:51:28.857Z</time>
      </trkpt>
      <trkpt lat="44.50135" lon="3.09272">
        <ele>1001.028232</ele>
        <time>2020-03-08T15:52:07.952Z</time>
      </trkpt>
      <trkpt lat="44.5023" lon="3.09215">
        <ele>1012.774898</ele>
        <time>2020-03-08T15:53:19.321Z</time>
      </trkpt>
      <trkpt lat="44.50284" lon="3.09164">
        <ele>1020.1455</ele>
        <time>2020-03-08T15:54:01.369Z</time>
      </trkpt>
      <trkpt lat="44.50323" lon="3.09119">
        <ele>1025.045084</ele>
        <time>2020-03-08T15:54:33.179Z</time>
      </trkpt>
      <trkpt lat="44.5039" lon="3.09028">
        <ele>1034.057299</ele>
        <time>2020-03-08T15:55:28.523Z</time>
      </trkpt>
      <trkpt lat="44.5049" lon="3.08939">
        <ele>1043.900943</ele>
        <time>2020-03-08T15:56:30.514Z</time>
      </trkpt>
      <trkpt lat="44.50589" lon="3.08906">
        <ele>1051.710744</ele>
        <time>2020-03-08T15:57:20.762Z</time>
      </trkpt>
      <trkpt lat="44.50797" lon="3.08811">
        <ele>1067.808208</ele>
        <time>2020-03-08T15:59:09.716Z</time>
      </trkpt>
      <trkpt lat="44.50832" lon="3.08804">
        <ele>1070.364725</ele>
        <time>2020-03-08T15:59:27.018Z</time>
      </trkpt>
      <trkpt lat="44.50919" lon="3.08808">
        <ele>1076.76239</ele>
        <time>2020-03-08T16:00:09.107Z</time>
      </trkpt>
      <trkpt lat="44.50949" lon="3.08802">
        <ele>1079.104578</ele>
        <time>2020-03-08T16:00:24.849Z</time>
      </trkpt>
      <trkpt lat="44.50952" lon="3.088">
        <ele>1079.35665</ele>
        <time>2020-03-08T16:00:27.231Z</time>
      </trkpt>
      <trkpt lat="44.5104" lon="3.08758">
        <ele>1086.728387</ele>
        <time>2020-03-08T16:01:15.090Z</time>
      </trkpt>
      <trkpt lat="44.51066" lon="3.08745">
        <ele>1088.914904</ele>
        <time>2020-03-08T16:01:29.441Z</time>
      </trkpt>
      <trkpt lat="44.5108" lon="3.08738">
        <ele>1090.066979</ele>
        <time>2020-03-08T16:01:37.779Z</time>
      </trkpt>
      <trkpt lat="44.51109" lon="3.08717">
        <ele>1092.634405</ele>
        <time>2020-03-08T16:01:55.188Z</time>
      </trkpt>
      <trkpt lat="44.51149" lon="3.08672">
        <ele>1096.431348</ele>
        <time>2020-03-08T16:02:21.395Z</time>
      </trkpt>
      <trkpt lat="44.5118" lon="3.08604">
        <ele>1100.717142</ele>
        <time>2020-03-08T16:02:52.089Z</time>
      </trkpt>
      <trkpt lat="44.51193" lon="3.08556">
        <ele>1103.434943</ele>
        <time>2020-03-08T16:03:09.009Z</time>
      </trkpt>
      <trkpt lat="44.51201" lon="3.08509">
        <ele>1105.904284</ele>
        <time>2020-03-08T16:03:24.607Z</time>
      </trkpt>
      <trkpt lat="44.512" lon="3.08461">
        <ele>1107.907624</ele>
        <time>2020-03-08T16:03:40.026Z</time>
      </trkpt>
      <trkpt lat="44.51171" lon="3.08336">
        <ele>1113.411705</ele>
        <time>2020-03-08T16:04:21.248Z</time>
      </trkpt>
      <trkpt lat="44.51168" lon="3.08287">
        <ele>1115.458166</ele>
        <time>2020-03-08T16:04:36.124Z</time>
      </trkpt>
      <trkpt lat="44.51176" lon="3.08218">
        <ele>1117.856694</ele>
        <time>2020-03-08T16:04:56.830Z</time>
      </trkpt>
      <trkpt lat="44.51188" lon="3.0817">
        <ele>1119.460819</ele>
        <time>2020-03-08T16:05:11.209Z</time>
      </trkpt>
      <trkpt lat="44.51213" lon="3.08118">
        <ele>1121.483459</ele>
        <time>2020-03-08T16:05:28.664Z</time>
      </trkpt>
      <trkpt lat="44.51307" lon="3.08008">
        <ele>1125.894228</ele>
        <time>2020-03-08T16:06:10.387Z</time>
      </trkpt>
      <trkpt lat="44.51332" lon="3.07971">
        <ele>1126.893859</ele>
        <time>2020-03-08T16:06:21.397Z</time>
      </trkpt>
      <trkpt lat="44.51356" lon="3.07922">
        <ele>1128.076761</ele>
        <time>2020-03-08T16:06:33.908Z</time>
      </trkpt>
      <trkpt lat="44.51375" lon="3.07851">
        <ele>1129.504016</ele>
        <time>2020-03-08T16:06:49.498Z</time>
      </trkpt>
      <trkpt lat="44.514" lon="3.07683">
        <ele>1132.311176</ele>
        <time>2020-03-08T16:07:27.073Z</time>
      </trkpt>
      <trkpt lat="44.51425" lon="3.07608">
        <ele>1133.375307</ele>
        <time>2020-03-08T16:07:43.526Z</time>
      </trkpt>
      <trkpt lat="44.51432" lon="3.07589">
        <ele>1133.456227</ele>
        <time>2020-03-08T16:07:48.287Z</time>
      </trkpt>
      <trkpt lat="44.51445" lon="3.07564">
        <ele>1133.572871</ele>
        <time>2020-03-08T16:07:53.615Z</time>
      </trkpt>
      <trkpt lat="44.51616" lon="3.072">
        <ele>1134.059272</ele>
        <time>2020-03-08T16:08:55.097Z</time>
      </trkpt>
      <trkpt lat="44.51627" lon="3.07179">
        <ele>1134.101614</ele>
        <time>2020-03-08T16:08:58.895Z</time>
      </trkpt>
      <trkpt lat="44.51654" lon="3.07151">
        <ele>1134.17547</ele>
        <time>2020-03-08T16:09:05.788Z</time>
      </trkpt>
      <trkpt lat="44.51687" lon="3.07134">
        <ele>1134.252218</ele>
        <time>2020-03-08T16:09:13.350Z</time>
      </trkpt>
      <trkpt lat="44.51828" lon="3.07093">
        <ele>1133.958146</ele>
        <time>2020-03-08T16:09:44.496Z</time>
      </trkpt>
      <trkpt lat="44.52161" lon="3.07091">
        <ele>1127.945659</ele>
        <time>2020-03-08T16:10:39.481Z</time>
      </trkpt>
      <trkpt lat="44.52257" lon="3.07085">
        <ele>1121.873479</ele>
        <time>2020-03-08T16:10:52.138Z</time>
      </trkpt>
      <trkpt lat="44.52293" lon="3.07072">
        <ele>1119.524888</ele>
        <time>2020-03-08T16:10:56.750Z</time>
      </trkpt>
      <trkpt lat="44.52354" lon="3.0703">
        <ele>1111.47402</ele>
        <time>2020-03-08T16:11:04.985Z</time>
      </trkpt>
      <trkpt lat="44.52431" lon="3.06944">
        <ele>1098.043504</ele>
        <time>2020-03-08T16:11:16.525Z</time>
      </trkpt>
      <trkpt lat="44.52455" lon="3.069">
        <ele>1092.502727</ele>
        <time>2020-03-08T16:11:21.080Z</time>
      </trkpt>
      <trkpt lat="44.52467" lon="3.06864">
        <ele>1088.015829</ele>
        <time>2020-03-08T16:11:24.362Z</time>
      </trkpt>
      <trkpt lat="44.52472" lon="3.0683">
        <ele>1084.04294</ele>
        <time>2020-03-08T16:11:27.267Z</time>
      </trkpt>
      <trkpt lat="44.52466" lon="3.06792">
        <ele>1079.656432</ele>
        <time>2020-03-08T16:11:30.485Z</time>
      </trkpt>
      <trkpt lat="44.52452" lon="3.06756">
        <ele>1075.056196</ele>
        <time>2020-03-08T16:11:33.858Z</time>
      </trkpt>
      <trkpt lat="44.52416" lon="3.06697">
        <ele>1066.303406</ele>
        <time>2020-03-08T16:11:40.281Z</time>
      </trkpt>
      <trkpt lat="44.52385" lon="3.065">
        <ele>1051.016256</ele>
        <time>2020-03-08T16:11:57.580Z</time>
      </trkpt>
      <trkpt lat="44.52359" lon="3.06426">
        <ele>1046.308023</ele>
        <time>2020-03-08T16:12:05.454Z</time>
      </trkpt>
      <trkpt lat="44.5236" lon="3.06373">
        <ele>1045.500075</ele>
        <time>2020-03-08T16:12:10.966Z</time>
      </trkpt>
      <trkpt lat="44.52371" lon="3.06339">
        <ele>1044.921778</ele>
        <time>2020-03-08T16:12:15.146Z</time>
      </trkpt>
      <trkpt lat="44.52393" lon="3.06295">
        <ele>1044.090756</ele>
        <time>2020-03-08T16:12:21.965Z</time>
      </trkpt>
      <trkpt lat="44.52413" lon="3.06269">
        <ele>1043.490763</ele>
        <time>2020-03-08T16:12:27.293Z</time>
      </trkpt>
      <trkpt lat="44.52424" lon="3.06254">
        <ele>1043.163877</ele>
        <time>2020-03-08T16:12:30.583Z</time>
      </trkpt>
      <trkpt lat="44.52444" lon="3.06236">
        <ele>1042.734778</ele>
        <time>2020-03-08T16:12:35.011Z</time>
      </trkpt>
      <trkpt lat="44.52471" lon="3.06231">
        <ele>1042.504869</ele>
        <time>2020-03-08T16:12:40.375Z</time>
      </trkpt>
      <trkpt lat="44.52496" lon="3.06247">
        <ele>1042.267313</ele>
        <time>2020-03-08T16:12:45.897Z</time>
      </trkpt>
      <trkpt lat="44.52526" lon="3.06293">
        <ele>1041.879376</ele>
        <time>2020-03-08T16:12:54.249Z</time>
      </trkpt>
      <trkpt lat="44.52538" lon="3.06298">
        <ele>1041.770915</ele>
        <time>2020-03-08T16:12:56.516Z</time>
      </trkpt>
      <trkpt lat="44.52559" lon="3.06295">
        <ele>1041.588216</ele>
        <time>2020-03-08T16:13:00.023Z</time>
      </trkpt>
      <trkpt lat="44.52619" lon="3.0625">
        <ele>1041.223709</ele>
        <time>2020-03-08T16:13:10.524Z</time>
      </trkpt>
      <trkpt lat="44.52667" lon="3.06189">
        <ele>1041.190645</ele>
        <time>2020-03-08T16:13:21.351Z</time>
      </trkpt>
      <trkpt lat="44.5268" lon="3.0618">
        <ele>1041.183008</ele>
        <time>2020-03-08T16:13:24.165Z</time>
      </trkpt>
      <trkpt lat="44.52758" lon="3.06155">
        <ele>1041.395974</ele>
        <time>2020-03-08T16:13:44.611Z</time>
      </trkpt>
      <trkpt lat="44.52837" lon="3.06146">
        <ele>1044.405165</ele>
        <time>2020-03-08T16:14:11.910Z</time>
      </trkpt>
      <trkpt lat="44.52947" lon="3.06178">
        <ele>1048.735808</ele>
        <time>2020-03-08T16:14:55.803Z</time>
      </trkpt>
      <trkpt lat="44.52965" lon="3.06196">
        <ele>1049.638178</ele>
        <time>2020-03-08T16:15:04.271Z</time>
      </trkpt>
      <trkpt lat="44.53017" lon="3.06274">
        <ele>1052.790691</ele>
        <time>2020-03-08T16:15:32.577Z</time>
      </trkpt>
      <trkpt lat="44.53046" lon="3.06299">
        <ele>1054.170297</ele>
        <time>2020-03-08T16:15:44.306Z</time>
      </trkpt>
      <trkpt lat="44.53096" lon="3.06311">
        <ele>1056.29313</ele>
        <time>2020-03-08T16:16:01.149Z</time>
      </trkpt>
      <trkpt lat="44.53234" lon="3.0633">
        <ele>1062.355084</ele>
        <time>2020-03-08T16:16:52.929Z</time>
      </trkpt>
      <trkpt lat="44.53329" lon="3.06368">
        <ele>1067.313785</ele>
        <time>2020-03-08T16:17:35.097Z</time>
      </trkpt>
      <trkpt lat="44.53407" lon="3.0636">
        <ele>1071.398839</ele>
        <time>2020-03-08T16:18:09.224Z</time>
      </trkpt>
      <trkpt lat="44.53689" lon="3.06363">
        <ele>1079.655449</ele>
        <time>2020-03-08T16:19:47.249Z</time>
      </trkpt>
      <trkpt lat="44.53894" lon="3.06346">
        <ele>1077.91952</ele>
        <time>2020-03-08T16:20:19.005Z</time>
      </trkpt>
      <trkpt lat="44.53901" lon="3.0633">
        <ele>1077.649269</ele>
        <time>2020-03-08T16:20:21.012Z</time>
      </trkpt>
      <trkpt lat="44.53895" lon="3.06301">
        <ele>1077.232167</ele>
        <time>2020-03-08T16:20:24.221Z</time>
      </trkpt>
      <trkpt lat="44.53862" lon="3.06259">
        <ele>1076.476162</ele>
        <time>2020-03-08T16:20:31.110Z</time>
      </trkpt>
      <trkpt lat="44.53695" lon="3.06096">
        <ele>1078.951905</ele>
        <time>2020-03-08T16:21:19.166Z</time>
      </trkpt>
      <trkpt lat="44.53577" lon="3.05956">
        <ele>1086.204302</ele>
        <time>2020-03-08T16:22:23.831Z</time>
      </trkpt>
      <trkpt lat="44.53495" lon="3.05915">
        <ele>1092.912266</ele>
        <time>2020-03-08T16:23:05.816Z</time>
      </trkpt>
      <trkpt lat="44.53483" lon="3.05896">
        <ele>1094.343334</ele>
        <time>2020-03-08T16:23:15.331Z</time>
      </trkpt>
      <trkpt lat="44.53477" lon="3.05849">
        <ele>1096.952341</ele>
        <time>2020-03-08T16:23:34.283Z</time>
      </trkpt>
      <trkpt lat="44.53494" lon="3.05758">
        <ele>1102.653676</ele>
        <time>2020-03-08T16:24:11.305Z</time>
      </trkpt>
      <trkpt lat="44.53505" lon="3.05695">
        <ele>1107.20345</ele>
        <time>2020-03-08T16:24:41.197Z</time>
      </trkpt>
      <trkpt lat="44.53514" lon="3.05647">
        <ele>1110.627187</ele>
        <time>2020-03-08T16:25:03.052Z</time>
      </trkpt>
      <trkpt lat="44.53531" lon="3.05564">
        <ele>1116.568496</ele>
        <time>2020-03-08T16:25:39.533Z</time>
      </trkpt>
      <trkpt lat="44.53541" lon="3.05538">
        <ele>1117.978297</ele>
        <time>2020-03-08T16:25:52.879Z</time>
      </trkpt>
      <trkpt lat="44.53572" lon="3.05454">
        <ele>1121.264348</ele>
        <time>2020-03-08T16:26:25.912Z</time>
      </trkpt>
      <trkpt lat="44.53586" lon="3.05433">
        <ele>1122.240727</ele>
        <time>2020-03-08T16:26:32.781Z</time>
      </trkpt>
      <trkpt lat="44.53623" lon="3.05372">
        <ele>1125.039681</ele>
        <time>2020-03-08T16:26:49.500Z</time>
      </trkpt>
      <trkpt lat="44.53685" lon="3.0533">
        <ele>1125.634053</ele>
        <time>2020-03-08T16:26:58.906Z</time>
      </trkpt>
      <trkpt lat="44.53738" lon="3.05261">
        <ele>1124.921203</ele>
        <time>2020-03-08T16:27:06.608Z</time>
      </trkpt>
      <trkpt lat="44.53797" lon="3.05092">
        <ele>1124.883278</ele>
        <time>2020-03-08T16:27:23.052Z</time>
      </trkpt>
      <trkpt lat="44.53845" lon="3.05029">
        <ele>1125.37786</ele>
        <time>2020-03-08T16:27:37.106Z</time>
      </trkpt>
      <trkpt lat="44.53894" lon="3.05019">
        <ele>1125.636506</ele>
        <time>2020-03-08T16:27:49.961Z</time>
      </trkpt>
      <trkpt lat="44.53923" lon="3.05027">
        <ele>1125.45727</ele>
        <time>2020-03-08T16:27:58.107Z</time>
      </trkpt>
      <trkpt lat="44.53993" lon="3.05083">
        <ele>1124.972748</ele>
        <time>2020-03-08T16:28:11.767Z</time>
      </trkpt>
      <trkpt lat="44.54069" lon="3.05124">
        <ele>1122.646069</ele>
        <time>2020-03-08T16:28:20.011Z</time>
      </trkpt>
      <trkpt lat="44.54085" lon="3.05138">
        <ele>1120.934195</ele>
        <time>2020-03-08T16:28:21.619Z</time>
      </trkpt>
      <trkpt lat="44.5415" lon="3.05162">
        <ele>1114.561125</ele>
        <time>2020-03-08T16:28:27.561Z</time>
      </trkpt>
      <trkpt lat="44.54238" lon="3.05166">
        <ele>1105.897866</ele>
        <time>2020-03-08T16:28:34.921Z</time>
      </trkpt>
      <trkpt lat="44.54315" lon="3.05162">
        <ele>1096.374108</ele>
        <time>2020-03-08T16:28:41.379Z</time>
      </trkpt>
      <trkpt lat="44.54338" lon="3.0515">
        <ele>1093.368364</ele>
        <time>2020-03-08T16:28:43.415Z</time>
      </trkpt>
      <trkpt lat="44.54377" lon="3.05107">
        <ele>1087.177936</ele>
        <time>2020-03-08T16:28:47.635Z</time>
      </trkpt>
      <trkpt lat="44.54449" lon="3.04987">
        <ele>1075.507473</ele>
        <time>2020-03-08T16:28:57.195Z</time>
      </trkpt>
      <trkpt lat="44.54475" lon="3.04974">
        <ele>1072.655321</ele>
        <time>2020-03-08T16:28:59.635Z</time>
      </trkpt>
      <trkpt lat="44.54561" lon="3.04972">
        <ele>1065.254789</ele>
        <time>2020-03-08T16:29:07.078Z</time>
      </trkpt>
      <trkpt lat="44.54591" lon="3.04955">
        <ele>1063.293535</ele>
        <time>2020-03-08T16:29:09.952Z</time>
      </trkpt>
      <trkpt lat="44.54609" lon="3.04921">
        <ele>1061.509193</ele>
        <time>2020-03-08T16:29:12.627Z</time>
      </trkpt>
      <trkpt lat="44.54618" lon="3.04885">
        <ele>1059.834647</ele>
        <time>2020-03-08T16:29:15.224Z</time>
      </trkpt>
      <trkpt lat="44.54621" lon="3.0486">
        <ele>1058.76082</ele>
        <time>2020-03-08T16:29:16.852Z</time>
      </trkpt>
      <trkpt lat="44.54622" lon="3.04839">
        <ele>1057.867788</ele>
        <time>2020-03-08T16:29:18.356Z</time>
      </trkpt>
      <trkpt lat="44.54611" lon="3.04791">
        <ele>1056.466453</ele>
        <time>2020-03-08T16:29:22.010Z</time>
      </trkpt>
      <trkpt lat="44.54588" lon="3.04746">
        <ele>1057.00182</ele>
        <time>2020-03-08T16:29:26.755Z</time>
      </trkpt>
      <trkpt lat="44.54524" lon="3.0468">
        <ele>1058.073226</ele>
        <time>2020-03-08T16:29:42.094Z</time>
      </trkpt>
      <trkpt lat="44.54403" lon="3.04602">
        <ele>1063.597892</ele>
        <time>2020-03-08T16:30:31.020Z</time>
      </trkpt>
      <trkpt lat="44.54276" lon="3.04512">
        <ele>1071.96294</ele>
        <time>2020-03-08T16:31:28.694Z</time>
      </trkpt>
      <trkpt lat="44.54193" lon="3.04456">
        <ele>1077.444429</ele>
        <time>2020-03-08T16:32:04.898Z</time>
      </trkpt>
      <trkpt lat="44.54079" lon="3.04407">
        <ele>1083.149399</ele>
        <time>2020-03-08T16:32:47.212Z</time>
      </trkpt>
      <trkpt lat="44.54036" lon="3.04401">
        <ele>1084.955971</ele>
        <time>2020-03-08T16:33:01.112Z</time>
      </trkpt>
      <trkpt lat="44.54005" lon="3.04386">
        <ele>1086.31171</ele>
        <time>2020-03-08T16:33:10.443Z</time>
      </trkpt>
      <trkpt lat="44.53956" lon="3.04338">
        <ele>1087.616323</ele>
        <time>2020-03-08T16:33:25.458Z</time>
      </trkpt>
      <trkpt lat="44.53932" lon="3.04304">
        <ele>1087.785821</ele>
        <time>2020-03-08T16:33:32.560Z</time>
      </trkpt>
      <trkpt lat="44.53925" lon="3.04294">
        <ele>1087.837558</ele>
        <time>2020-03-08T16:33:34.463Z</time>
      </trkpt>
      <trkpt lat="44.53773" lon="3.03987">
        <ele>1086.544833</ele>
        <time>2020-03-08T16:34:08.562Z</time>
      </trkpt>
      <trkpt lat="44.5377" lon="3.03916">
        <ele>1085.29935</ele>
        <time>2020-03-08T16:34:13.838Z</time>
      </trkpt>
      <trkpt lat="44.53745" lon="3.03789">
        <ele>1082.393195</ele>
        <time>2020-03-08T16:34:23.145Z</time>
      </trkpt>
      <trkpt lat="44.53695" lon="3.03703">
        <ele>1080.561042</ele>
        <time>2020-03-08T16:34:31.082Z</time>
      </trkpt>
      <trkpt lat="44.53641" lon="3.03663">
        <ele>1080.087089</ele>
        <time>2020-03-08T16:34:37.702Z</time>
      </trkpt>
      <trkpt lat="44.53566" lon="3.03652">
        <ele>1079.501567</ele>
        <time>2020-03-08T16:34:48.529Z</time>
      </trkpt>
      <trkpt lat="44.53534" lon="3.03626">
        <ele>1080.323121</ele>
        <time>2020-03-08T16:34:57.592Z</time>
      </trkpt>
      <trkpt lat="44.53483" lon="3.03554">
        <ele>1083.682533</ele>
        <time>2020-03-08T16:35:21.803Z</time>
      </trkpt>
      <trkpt lat="44.53469" lon="3.03542">
        <ele>1084.463847</ele>
        <time>2020-03-08T16:35:28.112Z</time>
      </trkpt>
      <trkpt lat="44.53422" lon="3.03519">
        <ele>1086.76961</ele>
        <time>2020-03-08T16:35:47.333Z</time>
      </trkpt>
      <trkpt lat="44.53385" lon="3.03514">
        <ele>1088.311054</ele>
        <time>2020-03-08T16:36:02.460Z</time>
      </trkpt>
      <trkpt lat="44.53369" lon="3.03506">
        <ele>1088.865846</ele>
        <time>2020-03-08T16:36:09.172Z</time>
      </trkpt>
      <trkpt lat="44.5335" lon="3.03482">
        <ele>1089.728358</ele>
        <time>2020-03-08T16:36:19.254Z</time>
      </trkpt>
      <trkpt lat="44.53316" lon="3.03359">
        <ele>1092.893357</ele>
        <time>2020-03-08T16:36:45.088Z</time>
      </trkpt>
      <trkpt lat="44.5331" lon="3.03335">
        <ele>1093.514114</ele>
        <time>2020-03-08T16:36:48.639Z</time>
      </trkpt>
      <trkpt lat="44.53302" lon="3.03309">
        <ele>1093.351991</ele>
        <time>2020-03-08T16:36:51.155Z</time>
      </trkpt>
      <trkpt lat="44.53295" lon="3.03281">
        <ele>1092.559353</ele>
        <time>2020-03-08T16:36:53.723Z</time>
      </trkpt>
      <trkpt lat="44.53299" lon="3.03229">
        <ele>1091.166491</ele>
        <time>2020-03-08T16:36:57.585Z</time>
      </trkpt>
      <trkpt lat="44.53316" lon="3.03178">
        <ele>1089.63119</ele>
        <time>2020-03-08T16:37:01.533Z</time>
      </trkpt>
      <trkpt lat="44.53366" lon="3.03076">
        <ele>1085.70581</ele>
        <time>2020-03-08T16:37:09.537Z</time>
      </trkpt>
      <trkpt lat="44.5344" lon="3.02981">
        <ele>1078.6164</ele>
        <time>2020-03-08T16:37:18.617Z</time>
      </trkpt>
      <trkpt lat="44.53447" lon="3.02963">
        <ele>1077.597265</ele>
        <time>2020-03-08T16:37:19.921Z</time>
      </trkpt>
      <trkpt lat="44.53444" lon="3.02943">
        <ele>1076.577884</ele>
        <time>2020-03-08T16:37:21.225Z</time>
      </trkpt>
      <trkpt lat="44.53436" lon="3.02931">
        <ele>1075.710568</ele>
        <time>2020-03-08T16:37:22.284Z</time>
      </trkpt>
      <trkpt lat="44.53422" lon="3.02926">
        <ele>1074.70693</ele>
        <time>2020-03-08T16:37:23.582Z</time>
      </trkpt>
      <trkpt lat="44.53351" lon="3.02923">
        <ele>1070.258998</ele>
        <time>2020-03-08T16:37:29.859Z</time>
      </trkpt>
      <trkpt lat="44.53329" lon="3.02926">
        <ele>1068.826451</ele>
        <time>2020-03-08T16:37:31.888Z</time>
      </trkpt>
      <trkpt lat="44.53303" lon="3.02925">
        <ele>1067.196084</ele>
        <time>2020-03-08T16:37:34.349Z</time>
      </trkpt>
      <trkpt lat="44.53299" lon="3.02924">
        <ele>1066.945193</ele>
        <time>2020-03-08T16:37:34.681Z</time>
      </trkpt>
      <trkpt lat="44.53248" lon="3.02912">
        <ele>1063.746222</ele>
        <time>2020-03-08T16:37:39.488Z</time>
      </trkpt>
      <trkpt lat="44.53167" lon="3.02848">
        <ele>1061.394664</ele>
        <time>2020-03-08T16:37:48.522Z</time>
      </trkpt>
      <trkpt lat="44.53156" lon="3.02829">
        <ele>1061.043293</ele>
        <time>2020-03-08T16:37:50.571Z</time>
      </trkpt>
      <trkpt lat="44.53136" lon="3.02728">
        <ele>1059.516613</ele>
        <time>2020-03-08T16:38:01.466Z</time>
      </trkpt>
      <trkpt lat="44.5311" lon="3.02649">
        <ele>1060.163537</ele>
        <time>2020-03-08T16:38:13.221Z</time>
      </trkpt>
      <trkpt lat="44.53109" lon="3.02626">
        <ele>1060.381234</ele>
        <time>2020-03-08T16:38:16.761Z</time>
      </trkpt>
      <trkpt lat="44.53123" lon="3.02553">
        <ele>1061.089926</ele>
        <time>2020-03-08T16:38:28.719Z</time>
      </trkpt>
      <trkpt lat="44.53115" lon="3.0242">
        <ele>1062.064913</ele>
        <time>2020-03-08T16:38:48.903Z</time>
      </trkpt>
      <trkpt lat="44.53125" lon="3.02345">
        <ele>1062.436189</ele>
        <time>2020-03-08T16:38:58.810Z</time>
      </trkpt>
      <trkpt lat="44.53123" lon="3.02319">
        <ele>1062.561394</ele>
        <time>2020-03-08T16:39:01.796Z</time>
      </trkpt>
      <trkpt lat="44.53064" lon="3.021">
        <ele>1062.428084</ele>
        <time>2020-03-08T16:39:26.571Z</time>
      </trkpt>
      <trkpt lat="44.53061" lon="3.0208">
        <ele>1062.34958</ele>
        <time>2020-03-08T16:39:28.633Z</time>
      </trkpt>
      <trkpt lat="44.5306" lon="3.0201">
        <ele>1062.071068</ele>
        <time>2020-03-08T16:39:34.593Z</time>
      </trkpt>
      <trkpt lat="44.53059" lon="3.01947">
        <ele>1061.576259</ele>
        <time>2020-03-08T16:39:39.609Z</time>
      </trkpt>
      <trkpt lat="44.5306" lon="3.01932">
        <ele>1061.43328</ele>
        <time>2020-03-08T16:39:41.257Z</time>
      </trkpt>
      <trkpt lat="44.53062" lon="3.01912">
        <ele>1061.247852</ele>
        <time>2020-03-08T16:39:42.600Z</time>
      </trkpt>
      <trkpt lat="44.53093" lon="3.01783">
        <ele>1059.963731</ele>
        <time>2020-03-08T16:39:54.035Z</time>
      </trkpt>
      <trkpt lat="44.53092" lon="3.01767">
        <ele>1059.817335</ele>
        <time>2020-03-08T16:39:55.108Z</time>
      </trkpt>
      <trkpt lat="44.53099" lon="3.01757">
        <ele>1059.687192</ele>
        <time>2020-03-08T16:39:56.550Z</time>
      </trkpt>
      <trkpt lat="44.53131" lon="3.01633">
        <ele>1061.625116</ele>
        <time>2020-03-08T16:40:13.359Z</time>
      </trkpt>
      <trkpt lat="44.53139" lon="3.01612">
        <ele>1062.000207</ele>
        <time>2020-03-08T16:40:16.993Z</time>
      </trkpt>
      <trkpt lat="44.53151" lon="3.01597">
        <ele>1062.366182</ele>
        <time>2020-03-08T16:40:21.921Z</time>
      </trkpt>
      <trkpt lat="44.53302" lon="3.01436">
        <ele>1071.040521</ele>
        <time>2020-03-08T16:41:29.592Z</time>
      </trkpt>
      <trkpt lat="44.53353" lon="3.01359">
        <ele>1075.632058</ele>
        <time>2020-03-08T16:41:59.833Z</time>
      </trkpt>
      <trkpt lat="44.53381" lon="3.0133">
        <ele>1078.143881</ele>
        <time>2020-03-08T16:42:14.824Z</time>
      </trkpt>
      <trkpt lat="44.53409" lon="3.0132">
        <ele>1080.17566</ele>
        <time>2020-03-08T16:42:27.674Z</time>
      </trkpt>
      <trkpt lat="44.53463" lon="3.01296">
        <ele>1084.262631</ele>
        <time>2020-03-08T16:42:52.640Z</time>
      </trkpt>
      <trkpt lat="44.53518" lon="3.01279">
        <ele>1088.219517</ele>
        <time>2020-03-08T16:43:17.647Z</time>
      </trkpt>
      <trkpt lat="44.53534" lon="3.01275">
        <ele>1089.376068</ele>
        <time>2020-03-08T16:43:26.063Z</time>
      </trkpt>
      <trkpt lat="44.53609" lon="3.01269">
        <ele>1094.728586</ele>
        <time>2020-03-08T16:44:00.330Z</time>
      </trkpt>
      <trkpt lat="44.53632" lon="3.01271">
        <ele>1096.351771</ele>
        <time>2020-03-08T16:44:09.774Z</time>
      </trkpt>
      <trkpt lat="44.53651" lon="3.01279">
        <ele>1097.761639</ele>
        <time>2020-03-08T16:44:18.062Z</time>
      </trkpt>
      <trkpt lat="44.5367" lon="3.0129">
        <ele>1099.230981</ele>
        <time>2020-03-08T16:44:26.099Z</time>
      </trkpt>
      <trkpt lat="44.53685" lon="3.01296">
        <ele>1099.803644</ele>
        <time>2020-03-08T16:44:32.539Z</time>
      </trkpt>
      <trkpt lat="44.53786" lon="3.01381">
        <ele>1104.267124</ele>
        <time>2020-03-08T16:45:09.591Z</time>
      </trkpt>
      <trkpt lat="44.53803" lon="3.01403">
        <ele>1105.12787</ele>
        <time>2020-03-08T16:45:15.725Z</time>
      </trkpt>
      <trkpt lat="44.53821" lon="3.01436">
        <ele>1106.016803</ele>
        <time>2020-03-08T16:45:21.457Z</time>
      </trkpt>
      <trkpt lat="44.53841" lon="3.01501">
        <ele>1106.052856</ele>
        <time>2020-03-08T16:45:30.146Z</time>
      </trkpt>
      <trkpt lat="44.53887" lon="3.01865">
        <ele>1105.03929</ele>
        <time>2020-03-08T16:46:04.821Z</time>
      </trkpt>
      <trkpt lat="44.53917" lon="3.0197">
        <ele>1103.528545</ele>
        <time>2020-03-08T16:46:14.311Z</time>
      </trkpt>
      <trkpt lat="44.53963" lon="3.02064">
        <ele>1101.136314</ele>
        <time>2020-03-08T16:46:22.939Z</time>
      </trkpt>
      <trkpt lat="44.53975" lon="3.0208">
        <ele>1100.645425</ele>
        <time>2020-03-08T16:46:24.611Z</time>
      </trkpt>
      <trkpt lat="44.54067" lon="3.02138">
        <ele>1095.620345</ele>
        <time>2020-03-08T16:46:34.108Z</time>
      </trkpt>
      <trkpt lat="44.54214" lon="3.02218">
        <ele>1085.490694</ele>
        <time>2020-03-08T16:46:48.212Z</time>
      </trkpt>
      <trkpt lat="44.54237" lon="3.0222">
        <ele>1083.959766</ele>
        <time>2020-03-08T16:46:50.273Z</time>
      </trkpt>
      <trkpt lat="44.5428" lon="3.02207">
        <ele>1081.086875</ele>
        <time>2020-03-08T16:46:54.171Z</time>
      </trkpt>
      <trkpt lat="44.54332" lon="3.02229">
        <ele>1077.5059</ele>
        <time>2020-03-08T16:46:59.184Z</time>
      </trkpt>
      <trkpt lat="44.54343" lon="3.02231">
        <ele>1076.805183</ele>
        <time>2020-03-08T16:47:00.149Z</time>
      </trkpt>
      <trkpt lat="44.54353" lon="3.02228">
        <ele>1076.143781</ele>
        <time>2020-03-08T16:47:01.076Z</time>
      </trkpt>
      <trkpt lat="44.5443" lon="3.02147">
        <ele>1073.508537</ele>
        <time>2020-03-08T16:47:10.572Z</time>
      </trkpt>
      <trkpt lat="44.54438" lon="3.02133">
        <ele>1073.17218</ele>
        <time>2020-03-08T16:47:11.818Z</time>
      </trkpt>
      <trkpt lat="44.54439" lon="3.0212">
        <ele>1072.908475</ele>
        <time>2020-03-08T16:47:12.979Z</time>
      </trkpt>
      <trkpt lat="44.5443" lon="3.02096">
        <ele>1072.374348</ele>
        <time>2020-03-08T16:47:15.016Z</time>
      </trkpt>
      <trkpt lat="44.54368" lon="3.02014">
        <ele>1072.738038</ele>
        <time>2020-03-08T16:47:27.469Z</time>
      </trkpt>
      <trkpt lat="44.54303" lon="3.01876">
        <ele>1076.784409</ele>
        <time>2020-03-08T16:48:03.048Z</time>
      </trkpt>
      <trkpt lat="44.54298" lon="3.01857">
        <ele>1077.301523</ele>
        <time>2020-03-08T16:48:09.033Z</time>
      </trkpt>
      <trkpt lat="44.54297" lon="3.01838">
        <ele>1078.206027</ele>
        <time>2020-03-08T16:48:15.573Z</time>
      </trkpt>
      <trkpt lat="44.54297" lon="3.01815">
        <ele>1079.59717</ele>
        <time>2020-03-08T16:48:22.980Z</time>
      </trkpt>
      <trkpt lat="44.54301" lon="3.01796">
        <ele>1080.834856</ele>
        <time>2020-03-08T16:48:29.988Z</time>
      </trkpt>
      <trkpt lat="44.54311" lon="3.01769">
        <ele>1082.687449</ele>
        <time>2020-03-08T16:48:41.765Z</time>
      </trkpt>
      <trkpt lat="44.54348" lon="3.01681">
        <ele>1088.873722</ele>
        <time>2020-03-08T16:49:20.209Z</time>
      </trkpt>
      <trkpt lat="44.54362" lon="3.01665">
        <ele>1090.413629</ele>
        <time>2020-03-08T16:49:29.678Z</time>
      </trkpt>
      <trkpt lat="44.5438" lon="3.01646">
        <ele>1092.306657</ele>
        <time>2020-03-08T16:49:42.083Z</time>
      </trkpt>
      <trkpt lat="44.544" lon="3.01629">
        <ele>1093.924735</ele>
        <time>2020-03-08T16:49:52.539Z</time>
      </trkpt>
      <trkpt lat="44.54405" lon="3.01637">
        <ele>1094.408193</ele>
        <time>2020-03-08T16:49:57.269Z</time>
      </trkpt>
      <trkpt lat="44.54414" lon="3.01642">
        <ele>1095.029034</ele>
        <time>2020-03-08T16:50:01.243Z</time>
      </trkpt>
      <trkpt lat="44.54442" lon="3.01638">
        <ele>1096.763333</ele>
        <time>2020-03-08T16:50:12.058Z</time>
      </trkpt>
      <trkpt lat="44.54485" lon="3.01632">
        <ele>1099.474964</ele>
        <time>2020-03-08T16:50:29.673Z</time>
      </trkpt>
      <trkpt lat="44.54503" lon="3.01614">
        <ele>1100.849572</ele>
        <time>2020-03-08T16:50:37.756Z</time>
      </trkpt>
      <trkpt lat="44.5451" lon="3.01603">
        <ele>1101.516485</ele>
        <time>2020-03-08T16:50:42.922Z</time>
      </trkpt>
      <trkpt lat="44.54514" lon="3.01599">
        <ele>1101.83339</ele>
        <time>2020-03-08T16:50:43.544Z</time>
      </trkpt>
      <trkpt lat="44.54555" lon="3.01539">
        <ele>1104.741096</ele>
        <time>2020-03-08T16:51:03.548Z</time>
      </trkpt>
      <trkpt lat="44.54569" lon="3.01528">
        <ele>1105.197891</ele>
        <time>2020-03-08T16:51:07.302Z</time>
      </trkpt>
      <trkpt lat="44.54579" lon="3.01527">
        <ele>1105.486935</ele>
        <time>2020-03-08T16:51:09.257Z</time>
      </trkpt>
      <trkpt lat="44.5459" lon="3.0153">
        <ele>1105.80315</ele>
        <time>2020-03-08T16:51:14.218Z</time>
      </trkpt>
      <trkpt lat="44.54604" lon="3.01541">
        <ele>1106.269278</ele>
        <time>2020-03-08T16:51:17.154Z</time>
      </trkpt>
      <trkpt lat="44.54614" lon="3.0156">
        <ele>1106.753712</ele>
        <time>2020-03-08T16:51:21.985Z</time>
      </trkpt>
      <trkpt lat="44.54626" lon="3.01608">
        <ele>1107.805784</ele>
        <time>2020-03-08T16:51:30.837Z</time>
      </trkpt>
      <trkpt lat="44.54636" lon="3.01658">
        <ele>1108.855808</ele>
        <time>2020-03-08T16:51:39.515Z</time>
      </trkpt>
      <trkpt lat="44.54694" lon="3.01692">
        <ele>1109.693426</ele>
        <time>2020-03-08T16:51:56.810Z</time>
      </trkpt>
      <trkpt lat="44.54791" lon="3.01752">
        <ele>1110.666695</ele>
        <time>2020-03-08T16:52:19.846Z</time>
      </trkpt>
      <trkpt lat="44.54887" lon="3.0178">
        <ele>1111.79627</ele>
        <time>2020-03-08T16:52:42.234Z</time>
      </trkpt>
      <trkpt lat="44.55025" lon="3.0183">
        <ele>1113.481119</ele>
        <time>2020-03-08T16:53:21.177Z</time>
      </trkpt>
      <trkpt lat="44.55122" lon="3.01857">
        <ele>1114.499442</ele>
        <time>2020-03-08T16:53:45.333Z</time>
      </trkpt>
      <trkpt lat="44.5517" lon="3.01885">
        <ele>1115.012916</ele>
        <time>2020-03-08T16:53:56.311Z</time>
      </trkpt>
      <trkpt lat="44.552" lon="3.01928">
        <ele>1115.370694</ele>
        <time>2020-03-08T16:54:05.155Z</time>
      </trkpt>
      <trkpt lat="44.55238" lon="3.02043">
        <ele>1116.127334</ele>
        <time>2020-03-08T16:54:25.090Z</time>
      </trkpt>
      <trkpt lat="44.55259" lon="3.02068">
        <ele>1116.358956</ele>
        <time>2020-03-08T16:54:31.662Z</time>
      </trkpt>
      <trkpt lat="44.55463" lon="3.02091">
        <ele>1122.600177</ele>
        <time>2020-03-08T16:55:37.855Z</time>
      </trkpt>
      <trkpt lat="44.55564" lon="3.02087">
        <ele>1127.73208</ele>
        <time>2020-03-08T16:56:20.744Z</time>
      </trkpt>
      <trkpt lat="44.55613" lon="3.02098">
        <ele>1130.254533</ele>
        <time>2020-03-08T16:56:42.288Z</time>
      </trkpt>
      <trkpt lat="44.55662" lon="3.0214">
        <ele>1132.237999</ele>
        <time>2020-03-08T16:57:06.154Z</time>
      </trkpt>
      <trkpt lat="44.55694" lon="3.02185">
        <ele>1133.536416</ele>
        <time>2020-03-08T16:57:22.416Z</time>
      </trkpt>
      <trkpt lat="44.55719" lon="3.02313">
        <ele>1136.181158</ele>
        <time>2020-03-08T16:57:47.954Z</time>
      </trkpt>
      <trkpt lat="44.55732" lon="3.02349">
        <ele>1135.722858</ele>
        <time>2020-03-08T16:57:53.371Z</time>
      </trkpt>
      <trkpt lat="44.55763" lon="3.02387">
        <ele>1135.070824</ele>
        <time>2020-03-08T16:58:00.212Z</time>
      </trkpt>
      <trkpt lat="44.55862" lon="3.02478">
        <ele>1133.024591</ele>
        <time>2020-03-08T16:58:18.302Z</time>
      </trkpt>
      <trkpt lat="44.55876" lon="3.02516">
        <ele>1132.08324</ele>
        <time>2020-03-08T16:58:22.744Z</time>
      </trkpt>
      <trkpt lat="44.55908" lon="3.02651">
        <ele>1128.91262</ele>
        <time>2020-03-08T16:58:37.651Z</time>
      </trkpt>
      <trkpt lat="44.55981" lon="3.02833">
        <ele>1123.504685</ele>
        <time>2020-03-08T16:58:58.836Z</time>
      </trkpt>
      <trkpt lat="44.55986" lon="3.0286">
        <ele>1122.748771</ele>
        <time>2020-03-08T16:59:01.617Z</time>
      </trkpt>
      <trkpt lat="44.5601" lon="3.02875">
        <ele>1121.762596</ele>
        <time>2020-03-08T16:59:05.225Z</time>
      </trkpt>
      <trkpt lat="44.56036" lon="3.02838">
        <ele>1120.495628</ele>
        <time>2020-03-08T16:59:10.435Z</time>
      </trkpt>
      <trkpt lat="44.5627" lon="3.0256">
        <ele>1113.670733</ele>
        <time>2020-03-08T16:59:56.966Z</time>
      </trkpt>
      <trkpt lat="44.56321" lon="3.02536">
        <ele>1113.322299</ele>
        <time>2020-03-08T17:00:09.798Z</time>
      </trkpt>
      <trkpt lat="44.56434" lon="3.0254">
        <ele>1115.07624</ele>
        <time>2020-03-08T17:00:41.849Z</time>
      </trkpt>
      <trkpt lat="44.56507" lon="3.02514">
        <ele>1115.939579</ele>
        <time>2020-03-08T17:01:02.327Z</time>
      </trkpt>
      <trkpt lat="44.56547" lon="3.02505">
        <ele>1116.061837</ele>
        <time>2020-03-08T17:01:12.019Z</time>
      </trkpt>
      <trkpt lat="44.56584" lon="3.02489">
        <ele>1116.175064</ele>
        <time>2020-03-08T17:01:20.092Z</time>
      </trkpt>
      <trkpt lat="44.56644" lon="3.02407">
        <ele>1116.339076</ele>
        <time>2020-03-08T17:01:35.543Z</time>
      </trkpt>
      <trkpt lat="44.56718" lon="3.02304">
        <ele>1115.314345</ele>
        <time>2020-03-08T17:01:54.118Z</time>
      </trkpt>
      <trkpt lat="44.56812" lon="3.02193">
        <ele>1113.92153</ele>
        <time>2020-03-08T17:02:14.708Z</time>
      </trkpt>
      <trkpt lat="44.56859" lon="3.02146">
        <ele>1113.156854</ele>
        <time>2020-03-08T17:02:24.191Z</time>
      </trkpt>
      <trkpt lat="44.56867" lon="3.02105">
        <ele>1112.759252</ele>
        <time>2020-03-08T17:02:29.163Z</time>
      </trkpt>
      <trkpt lat="44.56861" lon="3.02077">
        <ele>1112.472449</ele>
        <time>2020-03-08T17:02:32.753Z</time>
      </trkpt>
      <trkpt lat="44.56842" lon="3.02052">
        <ele>1112.190218</ele>
        <time>2020-03-08T17:02:36.986Z</time>
      </trkpt>
      <trkpt lat="44.56603" lon="3.01922">
        <ele>1110.387847</ele>
        <time>2020-03-08T17:03:24.253Z</time>
      </trkpt>
      <trkpt lat="44.56532" lon="3.01906">
        <ele>1109.84361</ele>
        <time>2020-03-08T17:03:37.596Z</time>
      </trkpt>
      <trkpt lat="44.56502" lon="3.01909">
        <ele>1109.533315</ele>
        <time>2020-03-08T17:03:42.576Z</time>
      </trkpt>
      <trkpt lat="44.56468" lon="3.01927">
        <ele>1108.845872</ele>
        <time>2020-03-08T17:03:48.333Z</time>
      </trkpt>
      <trkpt lat="44.56436" lon="3.01928">
        <ele>1108.239845</ele>
        <time>2020-03-08T17:03:53.333Z</time>
      </trkpt>
      <trkpt lat="44.56329" lon="3.01904">
        <ele>1106.341848</ele>
        <time>2020-03-08T17:04:09.872Z</time>
      </trkpt>
      <trkpt lat="44.56226" lon="3.01872">
        <ele>1107.850809</ele>
        <time>2020-03-08T17:04:29.190Z</time>
      </trkpt>
      <trkpt lat="44.562" lon="3.0185">
        <ele>1108.294689</ele>
        <time>2020-03-08T17:04:38.468Z</time>
      </trkpt>
      <trkpt lat="44.56174" lon="3.018">
        <ele>1109.113437</ele>
        <time>2020-03-08T17:04:58.988Z</time>
      </trkpt>
      <trkpt lat="44.56161" lon="3.0173">
        <ele>1111.851716</ele>
        <time>2020-03-08T17:05:22.628Z</time>
      </trkpt>
      <trkpt lat="44.56166" lon="3.01662">
        <ele>1114.477991</ele>
        <time>2020-03-08T17:05:44.199Z</time>
      </trkpt>
      <trkpt lat="44.56178" lon="3.01621">
        <ele>1116.13744</ele>
        <time>2020-03-08T17:05:58.161Z</time>
      </trkpt>
      <trkpt lat="44.56177" lon="3.01565">
        <ele>1118.269633</ele>
        <time>2020-03-08T17:06:13.177Z</time>
      </trkpt>
      <trkpt lat="44.56177" lon="3.01472">
        <ele>1118.848024</ele>
        <time>2020-03-08T17:06:35.437Z</time>
      </trkpt>
      <trkpt lat="44.56158" lon="3.01419">
        <ele>1119.110368</ele>
        <time>2020-03-08T17:06:45.299Z</time>
      </trkpt>
      <trkpt lat="44.56125" lon="3.01376">
        <ele>1119.388011</ele>
        <time>2020-03-08T17:06:52.071Z</time>
      </trkpt>
      <trkpt lat="44.56109" lon="3.01337">
        <ele>1119.540108</ele>
        <time>2020-03-08T17:06:57.187Z</time>
      </trkpt>
      <trkpt lat="44.56096" lon="3.01273">
        <ele>1119.061526</ele>
        <time>2020-03-08T17:07:04.776Z</time>
      </trkpt>
      <trkpt lat="44.56059" lon="3.01177">
        <ele>1118.266857</ele>
        <time>2020-03-08T17:07:18.204Z</time>
      </trkpt>
      <trkpt lat="44.5601" lon="3.01079">
        <ele>1117.84866</ele>
        <time>2020-03-08T17:07:34.832Z</time>
      </trkpt>
      <trkpt lat="44.55897" lon="3.00788">
        <ele>1118.575148</ele>
        <time>2020-03-08T17:08:27.566Z</time>
      </trkpt>
      <trkpt lat="44.55831" lon="3.00665">
        <ele>1118.826174</ele>
        <time>2020-03-08T17:08:49.933Z</time>
      </trkpt>
      <trkpt lat="44.55757" lon="3.00429">
        <ele>1119.219897</ele>
        <time>2020-03-08T17:09:27.291Z</time>
      </trkpt>
      <trkpt lat="44.55713" lon="3.00346">
        <ele>1119.972661</ele>
        <time>2020-03-08T17:09:44.524Z</time>
      </trkpt>
      <trkpt lat="44.55673" lon="3.00285">
        <ele>1120.585493</ele>
        <time>2020-03-08T17:10:00.282Z</time>
      </trkpt>
      <trkpt lat="44.55603" lon="3.00218">
        <ele>1121.068012</ele>
        <time>2020-03-08T17:10:23.481Z</time>
      </trkpt>
      <trkpt lat="44.5557" lon="3.00169">
        <ele>1121.25122</ele>
        <time>2020-03-08T17:10:34.669Z</time>
      </trkpt>
      <trkpt lat="44.55559" lon="3.00142">
        <ele>1121.336764</ele>
        <time>2020-03-08T17:10:40.178Z</time>
      </trkpt>
      <trkpt lat="44.55555" lon="3.00105">
        <ele>1121.438834</ele>
        <time>2020-03-08T17:10:45.579Z</time>
      </trkpt>
      <trkpt lat="44.5553" lon="2.99881">
        <ele>1117.171958</ele>
        <time>2020-03-08T17:11:09.871Z</time>
      </trkpt>
      <trkpt lat="44.55532" lon="2.99866">
        <ele>1116.823189</ele>
        <time>2020-03-08T17:11:11.339Z</time>
      </trkpt>
      <trkpt lat="44.55535" lon="2.9985">
        <ele>1116.452623</ele>
        <time>2020-03-08T17:11:12.943Z</time>
      </trkpt>
      <trkpt lat="44.5555" lon="2.99803">
        <ele>1114.909728</ele>
        <time>2020-03-08T17:11:17.833Z</time>
      </trkpt>
      <trkpt lat="44.55558" lon="2.9978">
        <ele>1113.880555</ele>
        <time>2020-03-08T17:11:20.408Z</time>
      </trkpt>
      <trkpt lat="44.55586" lon="2.99702">
        <ele>1110.518909</ele>
        <time>2020-03-08T17:11:28.735Z</time>
      </trkpt>
      <trkpt lat="44.55638" lon="2.99548">
        <ele>1104.204507</ele>
        <time>2020-03-08T17:11:44.793Z</time>
      </trkpt>
      <trkpt lat="44.55649" lon="2.99493">
        <ele>1102.265287</ele>
        <time>2020-03-08T17:11:50.292Z</time>
      </trkpt>
      <trkpt lat="44.55646" lon="2.99479">
        <ele>1101.754576</ele>
        <time>2020-03-08T17:11:51.695Z</time>
      </trkpt>
      <trkpt lat="44.55649" lon="2.99461">
        <ele>1101.157831</ele>
        <time>2020-03-08T17:11:52.882Z</time>
      </trkpt>
      <trkpt lat="44.55652" lon="2.99362">
        <ele>1097.774657</ele>
        <time>2020-03-08T17:11:59.770Z</time>
      </trkpt>
      <trkpt lat="44.55663" lon="2.99276">
        <ele>1095.76377</ele>
        <time>2020-03-08T17:12:05.992Z</time>
      </trkpt>
      <trkpt lat="44.55684" lon="2.99175">
        <ele>1093.44403</ele>
        <time>2020-03-08T17:12:13.911Z</time>
      </trkpt>
      <trkpt lat="44.557" lon="2.99142">
        <ele>1092.573133</ele>
        <time>2020-03-08T17:12:16.874Z</time>
      </trkpt>
      <trkpt lat="44.55887" lon="2.99084">
        <ele>1086.397976</ele>
        <time>2020-03-08T17:12:36.310Z</time>
      </trkpt>
      <trkpt lat="44.55918" lon="2.99062">
        <ele>1085.654588</ele>
        <time>2020-03-08T17:12:39.657Z</time>
      </trkpt>
      <trkpt lat="44.55936" lon="2.99024">
        <ele>1085.025765</ele>
        <time>2020-03-08T17:12:42.911Z</time>
      </trkpt>
      <trkpt lat="44.5595" lon="2.98935">
        <ele>1083.774396</ele>
        <time>2020-03-08T17:12:49.929Z</time>
      </trkpt>
      <trkpt lat="44.55948" lon="2.98872">
        <ele>1082.913426</ele>
        <time>2020-03-08T17:12:55.996Z</time>
      </trkpt>
      <trkpt lat="44.55941" lon="2.98845">
        <ele>1083.044103</ele>
        <time>2020-03-08T17:12:59.130Z</time>
      </trkpt>
      <trkpt lat="44.55924" lon="2.98792">
        <ele>1084.22331</ele>
        <time>2020-03-08T17:13:06.985Z</time>
      </trkpt>
      <trkpt lat="44.55916" lon="2.98768">
        <ele>1084.767589</ele>
        <time>2020-03-08T17:13:12.172Z</time>
      </trkpt>
      <trkpt lat="44.55901" lon="2.98728">
        <ele>1085.683504</ele>
        <time>2020-03-08T17:13:20.385Z</time>
      </trkpt>
      <trkpt lat="44.55864" lon="2.98661">
        <ele>1087.41357</ele>
        <time>2020-03-08T17:13:38.891Z</time>
      </trkpt>
      <trkpt lat="44.55752" lon="2.98605">
        <ele>1094.359584</ele>
        <time>2020-03-08T17:14:24.805Z</time>
      </trkpt>
      <trkpt lat="44.55746" lon="2.98595">
        <ele>1094.931025</ele>
        <time>2020-03-08T17:14:28.513Z</time>
      </trkpt>
      <trkpt lat="44.55749" lon="2.9859">
        <ele>1095.227245</ele>
        <time>2020-03-08T17:14:30.496Z</time>
      </trkpt>
      <trkpt lat="44.55816" lon="2.98597">
        <ele>1099.462703</ele>
        <time>2020-03-08T17:14:59.431Z</time>
      </trkpt>
      <trkpt lat="44.55854" lon="2.98587">
        <ele>1102.139558</ele>
        <time>2020-03-08T17:15:16.865Z</time>
      </trkpt>
      <trkpt lat="44.55905" lon="2.98525">
        <ele>1106.82581</ele>
        <time>2020-03-08T17:15:47.746Z</time>
      </trkpt>
      <trkpt lat="44.55937" lon="2.98509">
        <ele>1109.232045</ele>
        <time>2020-03-08T17:16:03.240Z</time>
      </trkpt>
      <trkpt lat="44.55991" lon="2.98507">
        <ele>1111.831669</ele>
        <time>2020-03-08T17:16:24.094Z</time>
      </trkpt>
      <trkpt lat="44.56052" lon="2.98525">
        <ele>1112.203337</ele>
        <time>2020-03-08T17:16:41.738Z</time>
      </trkpt>
      <trkpt lat="44.56072" lon="2.98523">
        <ele>1112.326283</ele>
        <time>2020-03-08T17:16:45.273Z</time>
      </trkpt>
      <trkpt lat="44.56086" lon="2.98512">
        <ele>1112.418301</ele>
        <time>2020-03-08T17:16:48.362Z</time>
      </trkpt>
      <trkpt lat="44.55883" lon="2.98347">
        <ele>1104.796752</ele>
        <time>2020-03-08T17:17:10.950Z</time>
      </trkpt>
      <trkpt lat="44.55863" lon="2.9832">
        <ele>1103.234222</ele>
        <time>2020-03-08T17:17:13.367Z</time>
      </trkpt>
      <trkpt lat="44.55778" lon="2.98148">
        <ele>1093.662154</ele>
        <time>2020-03-08T17:17:26.910Z</time>
      </trkpt>
      <trkpt lat="44.55773" lon="2.98121">
        <ele>1092.391591</ele>
        <time>2020-03-08T17:17:28.730Z</time>
      </trkpt>
      <trkpt lat="44.55764" lon="2.97985">
        <ele>1086.271999</ele>
        <time>2020-03-08T17:17:37.617Z</time>
      </trkpt>
      <trkpt lat="44.5574" lon="2.97871">
        <ele>1080.797931</ele>
        <time>2020-03-08T17:17:45.438Z</time>
      </trkpt>
      <trkpt lat="44.55744" lon="2.9776">
        <ele>1074.942204</ele>
        <time>2020-03-08T17:17:52.595Z</time>
      </trkpt>
      <trkpt lat="44.55732" lon="2.97633">
        <ele>1068.135759</ele>
        <time>2020-03-08T17:18:00.689Z</time>
      </trkpt>
      <trkpt lat="44.55712" lon="2.97609">
        <ele>1065.282285</ele>
        <time>2020-03-08T17:18:02.997Z</time>
      </trkpt>
      <trkpt lat="44.55594" lon="2.97553">
        <ele>1051.866462</ele>
        <time>2020-03-08T17:18:13.619Z</time>
      </trkpt>
      <trkpt lat="44.55559" lon="2.97523">
        <ele>1047.874529</ele>
        <time>2020-03-08T17:18:17.053Z</time>
      </trkpt>
      <trkpt lat="44.55524" lon="2.9748">
        <ele>1044.477507</ele>
        <time>2020-03-08T17:18:21.043Z</time>
      </trkpt>
      <trkpt lat="44.55513" lon="2.97456">
        <ele>1042.987683</ele>
        <time>2020-03-08T17:18:22.834Z</time>
      </trkpt>
      <trkpt lat="44.55503" lon="2.97379">
        <ele>1038.906443</ele>
        <time>2020-03-08T17:18:27.888Z</time>
      </trkpt>
      <trkpt lat="44.55501" lon="2.97368">
        <ele>1038.326513</ele>
        <time>2020-03-08T17:18:28.645Z</time>
      </trkpt>
      <trkpt lat="44.55503" lon="2.97361">
        <ele>1037.943433</ele>
        <time>2020-03-08T17:18:29.152Z</time>
      </trkpt>
      <trkpt lat="44.55509" lon="2.97353">
        <ele>1037.350355</ele>
        <time>2020-03-08T17:18:29.893Z</time>
      </trkpt>
      <trkpt lat="44.55521" lon="2.97372">
        <ele>1036.035113</ele>
        <time>2020-03-08T17:18:31.835Z</time>
      </trkpt>
      <trkpt lat="44.55588" lon="2.97453">
        <ele>1036.373854</ele>
        <time>2020-03-08T17:18:43.229Z</time>
      </trkpt>
      <trkpt lat="44.55627" lon="2.9749">
        <ele>1036.79336</ele>
        <time>2020-03-08T17:18:57.482Z</time>
      </trkpt>
      <trkpt lat="44.55672" lon="2.97505">
        <ele>1037.204293</ele>
        <time>2020-03-08T17:19:10.595Z</time>
      </trkpt>
      <trkpt lat="44.55726" lon="2.9751">
        <ele>1036.472806</ele>
        <time>2020-03-08T17:19:21.502Z</time>
      </trkpt>
      <trkpt lat="44.55746" lon="2.97522">
        <ele>1036.136491</ele>
        <time>2020-03-08T17:19:25.146Z</time>
      </trkpt>
      <trkpt lat="44.55929" lon="2.97716">
        <ele>1028.853539</ele>
        <time>2020-03-08T17:19:47.753Z</time>
      </trkpt>
      <trkpt lat="44.55986" lon="2.97786">
        <ele>1024.939679</ele>
        <time>2020-03-08T17:19:54.710Z</time>
      </trkpt>
      <trkpt lat="44.5604" lon="2.97818">
        <ele>1021.101404</ele>
        <time>2020-03-08T17:19:59.931Z</time>
      </trkpt>
      <trkpt lat="44.56103" lon="2.9783">
        <ele>1016.878808</ele>
        <time>2020-03-08T17:20:05.663Z</time>
      </trkpt>
      <trkpt lat="44.56162" lon="2.9786">
        <ele>1012.641171</ele>
        <time>2020-03-08T17:20:11.397Z</time>
      </trkpt>
      <trkpt lat="44.56303" lon="2.97905">
        <ele>1002.688691</ele>
        <time>2020-03-08T17:20:24.396Z</time>
      </trkpt>
      <trkpt lat="44.56374" lon="2.97945">
        <ele>997.463577</ele>
        <time>2020-03-08T17:20:31.232Z</time>
      </trkpt>
      <trkpt lat="44.56408" lon="2.97961">
        <ele>995.020126</ele>
        <time>2020-03-08T17:20:34.438Z</time>
      </trkpt>
      <trkpt lat="44.56439" lon="2.97968">
        <ele>992.849593</ele>
        <time>2020-03-08T17:20:37.296Z</time>
      </trkpt>
      <trkpt lat="44.56461" lon="2.97958">
        <ele>991.304544</ele>
        <time>2020-03-08T17:20:39.325Z</time>
      </trkpt>
      <trkpt lat="44.56515" lon="2.97907">
        <ele>988.20425</ele>
        <time>2020-03-08T17:20:45.298Z</time>
      </trkpt>
      <trkpt lat="44.56536" lon="2.97897">
        <ele>987.41569</ele>
        <time>2020-03-08T17:20:47.479Z</time>
      </trkpt>
      <trkpt lat="44.5656" lon="2.97902">
        <ele>986.568234</ele>
        <time>2020-03-08T17:20:49.890Z</time>
      </trkpt>
      <trkpt lat="44.56586" lon="2.97921">
        <ele>985.575493</ele>
        <time>2020-03-08T17:20:52.848Z</time>
      </trkpt>
      <trkpt lat="44.56624" lon="2.97971">
        <ele>983.752557</ele>
        <time>2020-03-08T17:20:58.712Z</time>
      </trkpt>
      <trkpt lat="44.56696" lon="2.9801">
        <ele>982.002452</ele>
        <time>2020-03-08T17:21:07.770Z</time>
      </trkpt>
      <trkpt lat="44.56784" lon="2.98036">
        <ele>980.169473</ele>
        <time>2020-03-08T17:21:17.897Z</time>
      </trkpt>
      <trkpt lat="44.56847" lon="2.98037">
        <ele>976.940663</ele>
        <time>2020-03-08T17:21:24.354Z</time>
      </trkpt>
      <trkpt lat="44.56881" lon="2.98051">
        <ele>974.356442</ele>
        <time>2020-03-08T17:21:27.652Z</time>
      </trkpt>
      <trkpt lat="44.5696" lon="2.98117">
        <ele>967.782191</ele>
        <time>2020-03-08T17:21:35.572Z</time>
      </trkpt>
      <trkpt lat="44.56988" lon="2.98125">
        <ele>965.770087</ele>
        <time>2020-03-08T17:21:38.026Z</time>
      </trkpt>
      <trkpt lat="44.56994" lon="2.98121">
        <ele>965.255685</ele>
        <time>2020-03-08T17:21:38.648Z</time>
      </trkpt>
      <trkpt lat="44.57002" lon="2.98114">
        <ele>964.590643</ele>
        <time>2020-03-08T17:21:39.435Z</time>
      </trkpt>
      <trkpt lat="44.57006" lon="2.98098">
        <ele>963.732402</ele>
        <time>2020-03-08T17:21:40.530Z</time>
      </trkpt>
      <trkpt lat="44.57008" lon="2.98087">
        <ele>963.185354</ele>
        <time>2020-03-08T17:21:41.230Z</time>
      </trkpt>
      <trkpt lat="44.57011" lon="2.98073">
        <ele>962.431023</ele>
        <time>2020-03-08T17:21:42.133Z</time>
      </trkpt>
      <trkpt lat="44.57013" lon="2.98043">
        <ele>960.926882</ele>
        <time>2020-03-08T17:21:44.046Z</time>
      </trkpt>
      <trkpt lat="44.56991" lon="2.97969">
        <ele>956.921125</ele>
        <time>2020-03-08T17:21:49.067Z</time>
      </trkpt>
      <trkpt lat="44.56988" lon="2.97939">
        <ele>955.39417</ele>
        <time>2020-03-08T17:21:51.140Z</time>
      </trkpt>
      <trkpt lat="44.56996" lon="2.9782">
        <ele>954.955371</ele>
        <time>2020-03-08T17:22:00.544Z</time>
      </trkpt>
      <trkpt lat="44.56993" lon="2.9778">
        <ele>955.357468</ele>
        <time>2020-03-08T17:22:07.721Z</time>
      </trkpt>
      <trkpt lat="44.56983" lon="2.97745">
        <ele>955.744235</ele>
        <time>2020-03-08T17:22:15.399Z</time>
      </trkpt>
      <trkpt lat="44.56924" lon="2.97598">
        <ele>959.479932</ele>
        <time>2020-03-08T17:22:56.411Z</time>
      </trkpt>
      <trkpt lat="44.56889" lon="2.97546">
        <ele>961.865764</ele>
        <time>2020-03-08T17:23:14.619Z</time>
      </trkpt>
      <trkpt lat="44.56816" lon="2.97472">
        <ele>965.840069</ele>
        <time>2020-03-08T17:23:44.081Z</time>
      </trkpt>
      <trkpt lat="44.56674" lon="2.97374">
        <ele>971.508622</ele>
        <time>2020-03-08T17:24:28.633Z</time>
      </trkpt>
      <trkpt lat="44.56654" lon="2.97358">
        <ele>972.493791</ele>
        <time>2020-03-08T17:24:35.169Z</time>
      </trkpt>
      <trkpt lat="44.56644" lon="2.97338">
        <ele>973.280332</ele>
        <time>2020-03-08T17:24:40.326Z</time>
      </trkpt>
      <trkpt lat="44.56619" lon="2.97303">
        <ele>974.849039</ele>
        <time>2020-03-08T17:24:51.187Z</time>
      </trkpt>
      <trkpt lat="44.56587" lon="2.97252">
        <ele>976.947826</ele>
        <time>2020-03-08T17:25:06.538Z</time>
      </trkpt>
      <trkpt lat="44.56474" lon="2.97124">
        <ele>984.416315</ele>
        <time>2020-03-08T17:26:00.053Z</time>
      </trkpt>
      <trkpt lat="44.56434" lon="2.97093">
        <ele>987.000813</ele>
        <time>2020-03-08T17:26:17.278Z</time>
      </trkpt>
      <trkpt lat="44.56409" lon="2.97064">
        <ele>988.79505</ele>
        <time>2020-03-08T17:26:29.281Z</time>
      </trkpt>
      <trkpt lat="44.5639" lon="2.97031">
        <ele>990.489198</ele>
        <time>2020-03-08T17:26:40.903Z</time>
      </trkpt>
      <trkpt lat="44.56384" lon="2.96983">
        <ele>992.431237</ele>
        <time>2020-03-08T17:26:54.470Z</time>
      </trkpt>
      <trkpt lat="44.56408" lon="2.96891">
        <ele>996.315522</ele>
        <time>2020-03-08T17:27:21.200Z</time>
      </trkpt>
      <trkpt lat="44.56402" lon="2.96848">
        <ele>998.040259</ele>
        <time>2020-03-08T17:27:32.405Z</time>
      </trkpt>
      <trkpt lat="44.56385" lon="2.96803">
        <ele>999.830459</ele>
        <time>2020-03-08T17:27:44.865Z</time>
      </trkpt>
      <trkpt lat="44.56359" lon="2.96763">
        <ele>1001.219142</ele>
        <time>2020-03-08T17:27:57.837Z</time>
      </trkpt>
      <trkpt lat="44.56348" lon="2.96718">
        <ele>1002.422751</ele>
        <time>2020-03-08T17:28:08.838Z</time>
      </trkpt>
      <trkpt lat="44.56369" lon="2.9664">
        <ele>1004.530264</ele>
        <time>2020-03-08T17:28:25.732Z</time>
      </trkpt>
      <trkpt lat="44.5636" lon="2.96499">
        <ele>1007.486578</ele>
        <time>2020-03-08T17:28:47.303Z</time>
      </trkpt>
      <trkpt lat="44.56358" lon="2.96486">
        <ele>1007.728321</ele>
        <time>2020-03-08T17:28:48.883Z</time>
      </trkpt>
      <trkpt lat="44.5635" lon="2.96447">
        <ele>1008.468335</ele>
        <time>2020-03-08T17:28:56.607Z</time>
      </trkpt>
      <trkpt lat="44.5634" lon="2.96393">
        <ele>1009.492212</ele>
        <time>2020-03-08T17:29:06.890Z</time>
      </trkpt>
      <trkpt lat="44.56335" lon="2.96356">
        <ele>1010.172565</ele>
        <time>2020-03-08T17:29:14.868Z</time>
      </trkpt>
      <trkpt lat="44.56339" lon="2.96309">
        <ele>1011.526312</ele>
        <time>2020-03-08T17:29:24.722Z</time>
      </trkpt>
      <trkpt lat="44.56351" lon="2.9629">
        <ele>1012.372449</ele>
        <time>2020-03-08T17:29:28.932Z</time>
      </trkpt>
      <trkpt lat="44.56356" lon="2.96281">
        <ele>1012.776413</ele>
        <time>2020-03-08T17:29:33.087Z</time>
      </trkpt>
      <trkpt lat="44.56375" lon="2.9626">
        <ele>1013.927134</ele>
        <time>2020-03-08T17:29:39.637Z</time>
      </trkpt>
      <trkpt lat="44.56401" lon="2.96248">
        <ele>1015.177965</ele>
        <time>2020-03-08T17:29:49.479Z</time>
      </trkpt>
      <trkpt lat="44.56535" lon="2.96258">
        <ele>1021.002867</ele>
        <time>2020-03-08T17:30:39.783Z</time>
      </trkpt>
      <trkpt lat="44.56615" lon="2.96255">
        <ele>1024.000904</ele>
        <time>2020-03-08T17:31:03.196Z</time>
      </trkpt>
      <trkpt lat="44.56649" lon="2.9624">
        <ele>1025.359882</ele>
        <time>2020-03-08T17:31:12.434Z</time>
      </trkpt>
      <trkpt lat="44.56849" lon="2.96049">
        <ele>1027.46654</ele>
        <time>2020-03-08T17:31:57.409Z</time>
      </trkpt>
      <trkpt lat="44.5704" lon="2.95867">
        <ele>1024.37909</ele>
        <time>2020-03-08T17:32:25.102Z</time>
      </trkpt>
      <trkpt lat="44.5707" lon="2.95842">
        <ele>1023.530131</ele>
        <time>2020-03-08T17:32:28.666Z</time>
      </trkpt>
      <trkpt lat="44.57095" lon="2.95837">
        <ele>1022.917027</ele>
        <time>2020-03-08T17:32:31.164Z</time>
      </trkpt>
      <trkpt lat="44.57173" lon="2.95862">
        <ele>1018.947228</ele>
        <time>2020-03-08T17:32:38.677Z</time>
      </trkpt>
      <trkpt lat="44.57238" lon="2.9585">
        <ele>1015.204521</ele>
        <time>2020-03-08T17:32:44.701Z</time>
      </trkpt>
      <trkpt lat="44.5727" lon="2.95821">
        <ele>1013.047512</ele>
        <time>2020-03-08T17:32:48.143Z</time>
      </trkpt>
      <trkpt lat="44.57297" lon="2.95784">
        <ele>1011.502399</ele>
        <time>2020-03-08T17:32:51.558Z</time>
      </trkpt>
      <trkpt lat="44.57316" lon="2.95724">
        <ele>1009.898698</ele>
        <time>2020-03-08T17:32:55.976Z</time>
      </trkpt>
      <trkpt lat="44.57316" lon="2.95717">
        <ele>1009.721199</ele>
        <time>2020-03-08T17:32:56.412Z</time>
      </trkpt>
      <trkpt lat="44.5732" lon="2.9566">
        <ele>1008.310635</ele>
        <time>2020-03-08T17:33:00.533Z</time>
      </trkpt>
      <trkpt lat="44.5731" lon="2.95571">
        <ele>1006.225217</ele>
        <time>2020-03-08T17:33:07.792Z</time>
      </trkpt>
      <trkpt lat="44.57244" lon="2.95284">
        <ele>1010.157766</ele>
        <time>2020-03-08T17:33:57.780Z</time>
      </trkpt>
      <trkpt lat="44.57196" lon="2.94634">
        <ele>1023.322651</ele>
        <time>2020-03-08T17:36:02.842Z</time>
      </trkpt>
      <trkpt lat="44.57183" lon="2.94574">
        <ele>1024.372527</ele>
        <time>2020-03-08T17:36:13.360Z</time>
      </trkpt>
      <trkpt lat="44.57159" lon="2.94519">
        <ele>1024.668152</ele>
        <time>2020-03-08T17:36:23.543Z</time>
      </trkpt>
      <trkpt lat="44.57079" lon="2.94366">
        <ele>1025.263748</ele>
        <time>2020-03-08T17:36:45.563Z</time>
      </trkpt>
      <trkpt lat="44.57062" lon="2.94332">
        <ele>1024.5342</ele>
        <time>2020-03-08T17:36:48.742Z</time>
      </trkpt>
      <trkpt lat="44.57056" lon="2.94306">
        <ele>1024.049156</ele>
        <time>2020-03-08T17:36:50.884Z</time>
      </trkpt>
      <trkpt lat="44.57052" lon="2.94297">
        <ele>1023.8518</ele>
        <time>2020-03-08T17:36:51.682Z</time>
      </trkpt>
      <trkpt lat="44.57049" lon="2.94291">
        <ele>1023.744867</ele>
        <time>2020-03-08T17:36:52.092Z</time>
      </trkpt>
      <trkpt lat="44.5701" lon="2.9424">
        <ele>1022.410514</ele>
        <time>2020-03-08T17:36:57.692Z</time>
      </trkpt>
      <trkpt lat="44.57006" lon="2.94237">
        <ele>1022.306159</ele>
        <time>2020-03-08T17:36:58.085Z</time>
      </trkpt>
      <trkpt lat="44.57001" lon="2.94232">
        <ele>1022.155157</ele>
        <time>2020-03-08T17:36:58.649Z</time>
      </trkpt>
      <trkpt lat="44.56956" lon="2.94192">
        <ele>1020.880531</ele>
        <time>2020-03-08T17:37:04.076Z</time>
      </trkpt>
      <trkpt lat="44.56928" lon="2.94167">
        <ele>1020.253882</ele>
        <time>2020-03-08T17:37:07.465Z</time>
      </trkpt>
      <trkpt lat="44.56918" lon="2.94151">
        <ele>1019.973344</ele>
        <time>2020-03-08T17:37:09.026Z</time>
      </trkpt>
      <trkpt lat="44.56911" lon="2.94128">
        <ele>1019.636519</ele>
        <time>2020-03-08T17:37:10.904Z</time>
      </trkpt>
      <trkpt lat="44.5691" lon="2.94118">
        <ele>1019.497577</ele>
        <time>2020-03-08T17:37:11.716Z</time>
      </trkpt>
      <trkpt lat="44.56903" lon="2.94078">
        <ele>1018.945278</ele>
        <time>2020-03-08T17:37:14.827Z</time>
      </trkpt>
      <trkpt lat="44.56901" lon="2.94063">
        <ele>1018.753089</ele>
        <time>2020-03-08T17:37:15.962Z</time>
      </trkpt>
      <trkpt lat="44.5691" lon="2.94032">
        <ele>1018.303679</ele>
        <time>2020-03-08T17:37:19.104Z</time>
      </trkpt>
      <trkpt lat="44.5693" lon="2.9401">
        <ele>1017.834502</ele>
        <time>2020-03-08T17:37:22.401Z</time>
      </trkpt>
      <trkpt lat="44.5697" lon="2.93996">
        <ele>1017.478926</ele>
        <time>2020-03-08T17:37:28.971Z</time>
      </trkpt>
      <trkpt lat="44.56995" lon="2.93978">
        <ele>1017.325234</ele>
        <time>2020-03-08T17:37:33.719Z</time>
      </trkpt>
      <trkpt lat="44.57017" lon="2.93945">
        <ele>1017.151452</ele>
        <time>2020-03-08T17:37:39.241Z</time>
      </trkpt>
      <trkpt lat="44.5705" lon="2.93877">
        <ele>1016.829057</ele>
        <time>2020-03-08T17:37:46.600Z</time>
      </trkpt>
      <trkpt lat="44.57064" lon="2.93858">
        <ele>1016.723377</ele>
        <time>2020-03-08T17:37:48.901Z</time>
      </trkpt>
      <trkpt lat="44.57111" lon="2.93818">
        <ele>1015.628369</ele>
        <time>2020-03-08T17:37:54.807Z</time>
      </trkpt>
      <trkpt lat="44.57125" lon="2.93798">
        <ele>1015.154637</ele>
        <time>2020-03-08T17:37:57.138Z</time>
      </trkpt>
      <trkpt lat="44.57135" lon="2.93777">
        <ele>1014.749568</ele>
        <time>2020-03-08T17:37:58.895Z</time>
      </trkpt>
      <trkpt lat="44.5714" lon="2.93722">
        <ele>1013.831288</ele>
        <time>2020-03-08T17:38:03.068Z</time>
      </trkpt>
      <trkpt lat="44.57135" lon="2.9368">
        <ele>1013.137954</ele>
        <time>2020-03-08T17:38:06.138Z</time>
      </trkpt>
      <trkpt lat="44.57054" lon="2.93475">
        <ele>1010.412708</ele>
        <time>2020-03-08T17:38:24.768Z</time>
      </trkpt>
      <trkpt lat="44.57043" lon="2.93435">
        <ele>1009.947476</ele>
        <time>2020-03-08T17:38:28.958Z</time>
      </trkpt>
      <trkpt lat="44.57042" lon="2.93402">
        <ele>1009.743585</ele>
        <time>2020-03-08T17:38:32.099Z</time>
      </trkpt>
      <trkpt lat="44.57048" lon="2.9337">
        <ele>1009.626416</ele>
        <time>2020-03-08T17:38:35.740Z</time>
      </trkpt>
      <trkpt lat="44.57068" lon="2.93331">
        <ele>1009.45777</ele>
        <time>2020-03-08T17:38:40.585Z</time>
      </trkpt>
      <trkpt lat="44.57084" lon="2.93315">
        <ele>1009.360925</ele>
        <time>2020-03-08T17:38:43.245Z</time>
      </trkpt>
      <trkpt lat="44.57108" lon="2.93304">
        <ele>1009.23511</ele>
        <time>2020-03-08T17:38:46.983Z</time>
      </trkpt>
      <trkpt lat="44.57133" lon="2.93305">
        <ele>1009.115711</ele>
        <time>2020-03-08T17:38:50.536Z</time>
      </trkpt>
      <trkpt lat="44.57236" lon="2.93367">
        <ele>1006.949841</ele>
        <time>2020-03-08T17:39:03.879Z</time>
      </trkpt>
      <trkpt lat="44.57294" lon="2.93366">
        <ele>1005.400334</ele>
        <time>2020-03-08T17:39:10.229Z</time>
      </trkpt>
      <trkpt lat="44.57432" lon="2.93284">
        <ele>997.380251</ele>
        <time>2020-03-08T17:39:24.167Z</time>
      </trkpt>
      <trkpt lat="44.57433" lon="2.93283">
        <ele>997.322539</ele>
        <time>2020-03-08T17:39:24.245Z</time>
      </trkpt>
      <trkpt lat="44.57513" lon="2.93227">
        <ele>991.345969</ele>
        <time>2020-03-08T17:39:32.190Z</time>
      </trkpt>
      <trkpt lat="44.57533" lon="2.93181">
        <ele>988.529886</ele>
        <time>2020-03-08T17:39:35.592Z</time>
      </trkpt>
      <trkpt lat="44.57536" lon="2.93151">
        <ele>986.994961</ele>
        <time>2020-03-08T17:39:37.421Z</time>
      </trkpt>
      <trkpt lat="44.57533" lon="2.93121">
        <ele>985.386135</ele>
        <time>2020-03-08T17:39:39.395Z</time>
      </trkpt>
      <trkpt lat="44.57514" lon="2.93078">
        <ele>982.788163</ele>
        <time>2020-03-08T17:39:42.608Z</time>
      </trkpt>
      <trkpt lat="44.57474" lon="2.93033">
        <ele>979.135878</ele>
        <time>2020-03-08T17:39:47.306Z</time>
      </trkpt>
      <trkpt lat="44.57456" lon="2.93004">
        <ele>978.139466</ele>
        <time>2020-03-08T17:39:49.896Z</time>
      </trkpt>
      <trkpt lat="44.57438" lon="2.9295">
        <ele>976.610785</ele>
        <time>2020-03-08T17:39:53.994Z</time>
      </trkpt>
      <trkpt lat="44.57432" lon="2.92896">
        <ele>975.213783</ele>
        <time>2020-03-08T17:39:57.977Z</time>
      </trkpt>
      <trkpt lat="44.57437" lon="2.92825">
        <ele>973.370046</ele>
        <time>2020-03-08T17:40:03.390Z</time>
      </trkpt>
      <trkpt lat="44.57447" lon="2.92757">
        <ele>971.625</ele>
        <time>2020-03-08T17:40:08.785Z</time>
      </trkpt>
      <trkpt lat="44.57455" lon="2.92726">
        <ele>970.827105</ele>
        <time>2020-03-08T17:40:11.278Z</time>
      </trkpt>
      <trkpt lat="44.57461" lon="2.92704">
        <ele>970.246666</ele>
        <time>2020-03-08T17:40:13.069Z</time>
      </trkpt>
      <trkpt lat="44.57475" lon="2.9267">
        <ele>969.268741</ele>
        <time>2020-03-08T17:40:15.970Z</time>
      </trkpt>
      <trkpt lat="44.57497" lon="2.92634">
        <ele>968.094053</ele>
        <time>2020-03-08T17:40:19.350Z</time>
      </trkpt>
      <trkpt lat="44.5753" lon="2.926">
        <ele>966.668121</ele>
        <time>2020-03-08T17:40:23.313Z</time>
      </trkpt>
      <trkpt lat="44.57573" lon="2.92579">
        <ele>963.501984</ele>
        <time>2020-03-08T17:40:27.530Z</time>
      </trkpt>
      <trkpt lat="44.57825" lon="2.92531">
        <ele>942.825551</ele>
        <time>2020-03-08T17:40:49.930Z</time>
      </trkpt>
      <trkpt lat="44.57863" lon="2.92499">
        <ele>938.889618</ele>
        <time>2020-03-08T17:40:53.715Z</time>
      </trkpt>
      <trkpt lat="44.57893" lon="2.92444">
        <ele>934.138721</ele>
        <time>2020-03-08T17:40:57.949Z</time>
      </trkpt>
      <trkpt lat="44.57903" lon="2.92397">
        <ele>930.564222</ele>
        <time>2020-03-08T17:41:00.974Z</time>
      </trkpt>
      <trkpt lat="44.57902" lon="2.92342">
        <ele>926.615911</ele>
        <time>2020-03-08T17:41:04.315Z</time>
      </trkpt>
      <trkpt lat="44.57877" lon="2.92233">
        <ele>918.428413</ele>
        <time>2020-03-08T17:41:11.367Z</time>
      </trkpt>
      <trkpt lat="44.57875" lon="2.92128">
        <ele>912.857507</ele>
        <time>2020-03-08T17:41:17.919Z</time>
      </trkpt>
      <trkpt lat="44.57881" lon="2.92086">
        <ele>910.62381</ele>
        <time>2020-03-08T17:41:20.613Z</time>
      </trkpt>
      <trkpt lat="44.579" lon="2.92023">
        <ele>907.025985</ele>
        <time>2020-03-08T17:41:25.036Z</time>
      </trkpt>
      <trkpt lat="44.57911" lon="2.92">
        <ele>905.527282</ele>
        <time>2020-03-08T17:41:26.925Z</time>
      </trkpt>
      <trkpt lat="44.57969" lon="2.91913">
        <ele>902.461708</ele>
        <time>2020-03-08T17:41:35.119Z</time>
      </trkpt>
      <trkpt lat="44.58001" lon="2.91882">
        <ele>901.084296</ele>
        <time>2020-03-08T17:41:39.095Z</time>
      </trkpt>
      <trkpt lat="44.58103" lon="2.91829">
        <ele>897.669752</ele>
        <time>2020-03-08T17:41:50.854Z</time>
      </trkpt>
      <trkpt lat="44.58157" lon="2.91822">
        <ele>896.220455</ele>
        <time>2020-03-08T17:41:56.512Z</time>
      </trkpt>
      <trkpt lat="44.58181" lon="2.91824">
        <ele>895.555509</ele>
        <time>2020-03-08T17:41:59.165Z</time>
      </trkpt>
      <trkpt lat="44.58189" lon="2.91825">
        <ele>895.340934</ele>
        <time>2020-03-08T17:41:59.939Z</time>
      </trkpt>
      <trkpt lat="44.58215" lon="2.9183">
        <ele>894.655398</ele>
        <time>2020-03-08T17:42:02.641Z</time>
      </trkpt>
      <trkpt lat="44.58278" lon="2.91855">
        <ele>892.238056</ele>
        <time>2020-03-08T17:42:09.267Z</time>
      </trkpt>
      <trkpt lat="44.58294" lon="2.91862">
        <ele>891.577459</ele>
        <time>2020-03-08T17:42:10.862Z</time>
      </trkpt>
      <trkpt lat="44.58378" lon="2.91923">
        <ele>887.790327</ele>
        <time>2020-03-08T17:42:20.029Z</time>
      </trkpt>
      <trkpt lat="44.58409" lon="2.91935">
        <ele>886.431604</ele>
        <time>2020-03-08T17:42:23.106Z</time>
      </trkpt>
      <trkpt lat="44.5851" lon="2.91954">
        <ele>881.890748</ele>
        <time>2020-03-08T17:42:32.708Z</time>
      </trkpt>
      <trkpt lat="44.58572" lon="2.91978">
        <ele>879.014403</ele>
        <time>2020-03-08T17:42:38.893Z</time>
      </trkpt>
      <trkpt lat="44.58591" lon="2.91995">
        <ele>878.433424</ele>
        <time>2020-03-08T17:42:41.083Z</time>
      </trkpt>
      <trkpt lat="44.5863" lon="2.9205">
        <ele>877.039675</ele>
        <time>2020-03-08T17:42:46.867Z</time>
      </trkpt>
      <trkpt lat="44.58655" lon="2.92073">
        <ele>876.277385</ele>
        <time>2020-03-08T17:42:50.116Z</time>
      </trkpt>
      <trkpt lat="44.58675" lon="2.92089">
        <ele>875.706889</ele>
        <time>2020-03-08T17:42:52.599Z</time>
      </trkpt>
      <trkpt lat="44.5869" lon="2.92101">
        <ele>875.277917</ele>
        <time>2020-03-08T17:42:54.550Z</time>
      </trkpt>
      <trkpt lat="44.58706" lon="2.92119">
        <ele>874.773687</ele>
        <time>2020-03-08T17:42:56.832Z</time>
      </trkpt>
      <trkpt lat="44.58707" lon="2.92122">
        <ele>874.703886</ele>
        <time>2020-03-08T17:42:57.138Z</time>
      </trkpt>
      <trkpt lat="44.58719" lon="2.92144">
        <ele>874.244879</ele>
        <time>2020-03-08T17:42:59.605Z</time>
      </trkpt>
      <trkpt lat="44.58757" lon="2.922">
        <ele>873.030242</ele>
        <time>2020-03-08T17:43:06.107Z</time>
      </trkpt>
      <trkpt lat="44.58853" lon="2.92305">
        <ele>870.078774</ele>
        <time>2020-03-08T17:43:19.189Z</time>
      </trkpt>
      <trkpt lat="44.58876" lon="2.92347">
        <ele>867.559187</ele>
        <time>2020-03-08T17:43:22.841Z</time>
      </trkpt>
      <trkpt lat="44.5891" lon="2.92418">
        <ele>863.567928</ele>
        <time>2020-03-08T17:43:28.433Z</time>
      </trkpt>
      <trkpt lat="44.58922" lon="2.92444">
        <ele>862.090972</ele>
        <time>2020-03-08T17:43:30.427Z</time>
      </trkpt>
      <trkpt lat="44.58962" lon="2.9254">
        <ele>855.0235</ele>
        <time>2020-03-08T17:43:37.373Z</time>
      </trkpt>
      <trkpt lat="44.59032" lon="2.92686">
        <ele>838.061064</ele>
        <time>2020-03-08T17:43:47.816Z</time>
      </trkpt>
      <trkpt lat="44.59061" lon="2.92719">
        <ele>833.303096</ele>
        <time>2020-03-08T17:43:50.902Z</time>
      </trkpt>
      <trkpt lat="44.59071" lon="2.92723">
        <ele>832.19447</ele>
        <time>2020-03-08T17:43:51.741Z</time>
      </trkpt>
      <trkpt lat="44.59083" lon="2.92725">
        <ele>830.838842</ele>
        <time>2020-03-08T17:43:52.794Z</time>
      </trkpt>
      <trkpt lat="44.59099" lon="2.92723">
        <ele>829.096713</ele>
        <time>2020-03-08T17:43:54.155Z</time>
      </trkpt>
      <trkpt lat="44.59129" lon="2.92717">
        <ele>825.779781</ele>
        <time>2020-03-08T17:43:56.737Z</time>
      </trkpt>
      <trkpt lat="44.59144" lon="2.92711">
        <ele>824.107322</ele>
        <time>2020-03-08T17:43:58.019Z</time>
      </trkpt>
      <trkpt lat="44.59158" lon="2.92694">
        <ele>822.154178</ele>
        <time>2020-03-08T17:43:59.584Z</time>
      </trkpt>
      <trkpt lat="44.59168" lon="2.92673">
        <ele>820.187596</ele>
        <time>2020-03-08T17:44:01.126Z</time>
      </trkpt>
      <trkpt lat="44.59171" lon="2.92652">
        <ele>818.580116</ele>
        <time>2020-03-08T17:44:02.433Z</time>
      </trkpt>
      <trkpt lat="44.59179" lon="2.92665">
        <ele>817.208677</ele>
        <time>2020-03-08T17:44:03.528Z</time>
      </trkpt>
      <trkpt lat="44.59192" lon="2.92788">
        <ele>814.716602</ele>
        <time>2020-03-08T17:44:12.242Z</time>
      </trkpt>
      <trkpt lat="44.59194" lon="2.92838">
        <ele>814.640378</ele>
        <time>2020-03-08T17:44:19.843Z</time>
      </trkpt>
      <trkpt lat="44.59196" lon="2.92868">
        <ele>814.595856</ele>
        <time>2020-03-08T17:44:25.390Z</time>
      </trkpt>
      <trkpt lat="44.59211" lon="2.92951">
        <ele>814.692744</ele>
        <time>2020-03-08T17:44:40.853Z</time>
      </trkpt>
      <trkpt lat="44.59212" lon="2.92956">
        <ele>814.832883</ele>
        <time>2020-03-08T17:44:42.863Z</time>
      </trkpt>
      <trkpt lat="44.5922" lon="2.92999">
        <ele>816.227487</ele>
        <time>2020-03-08T17:44:51.345Z</time>
      </trkpt>
      <trkpt lat="44.59281" lon="2.93218">
        <ele>823.439832</ele>
        <time>2020-03-08T17:45:48.462Z</time>
      </trkpt>
      <trkpt lat="44.59285" lon="2.9325">
        <ele>824.408915</ele>
        <time>2020-03-08T17:45:56.234Z</time>
      </trkpt>
      <trkpt lat="44.59284" lon="2.93285">
        <ele>825.46197</ele>
        <time>2020-03-08T17:46:04.594Z</time>
      </trkpt>
      <trkpt lat="44.59305" lon="2.93492">
        <ele>831.359617</ele>
        <time>2020-03-08T17:46:49.805Z</time>
      </trkpt>
      <trkpt lat="44.59303" lon="2.93515">
        <ele>831.897044</ele>
        <time>2020-03-08T17:46:54.237Z</time>
      </trkpt>
      <trkpt lat="44.59274" lon="2.93607">
        <ele>834.301944</ele>
        <time>2020-03-08T17:47:13.924Z</time>
      </trkpt>
      <trkpt lat="44.59275" lon="2.93636">
        <ele>834.981099</ele>
        <time>2020-03-08T17:47:19.475Z</time>
      </trkpt>
      <trkpt lat="44.59315" lon="2.93708">
        <ele>837.425771</ele>
        <time>2020-03-08T17:47:37.007Z</time>
      </trkpt>
      <trkpt lat="44.59338" lon="2.93765">
        <ele>839.289872</ele>
        <time>2020-03-08T17:47:50.593Z</time>
      </trkpt>
      <trkpt lat="44.59346" lon="2.93846">
        <ele>841.637471</ele>
        <time>2020-03-08T17:48:09.290Z</time>
      </trkpt>
      <trkpt lat="44.59363" lon="2.93914">
        <ele>843.97238</ele>
        <time>2020-03-08T17:48:26.991Z</time>
      </trkpt>
      <trkpt lat="44.59424" lon="2.94026">
        <ele>849.620296</ele>
        <time>2020-03-08T17:49:04.158Z</time>
      </trkpt>
      <trkpt lat="44.59432" lon="2.9405">
        <ele>850.672289</ele>
        <time>2020-03-08T17:49:11.430Z</time>
      </trkpt>
      <trkpt lat="44.59446" lon="2.94126">
        <ele>854.083653</ele>
        <time>2020-03-08T17:49:33.317Z</time>
      </trkpt>
      <trkpt lat="44.59477" lon="2.94176">
        <ele>857.732471</ele>
        <time>2020-03-08T17:49:52.404Z</time>
      </trkpt>
      <trkpt lat="44.59511" lon="2.94293">
        <ele>864.746873</ele>
        <time>2020-03-08T17:50:36.873Z</time>
      </trkpt>
      <trkpt lat="44.59535" lon="2.94322">
        <ele>867.207995</ele>
        <time>2020-03-08T17:50:52.280Z</time>
      </trkpt>
      <trkpt lat="44.5956" lon="2.94333">
        <ele>869.643268</ele>
        <time>2020-03-08T17:51:04.904Z</time>
      </trkpt>
      <trkpt lat="44.59567" lon="2.94338">
        <ele>870.382917</ele>
        <time>2020-03-08T17:51:09.050Z</time>
      </trkpt>
      <trkpt lat="44.59572" lon="2.94353">
        <ele>871.492278</ele>
        <time>2020-03-08T17:51:15.413Z</time>
      </trkpt>
      <trkpt lat="44.59571" lon="2.94372">
        <ele>872.76557</ele>
        <time>2020-03-08T17:51:21.140Z</time>
      </trkpt>
      <trkpt lat="44.59564" lon="2.94394">
        <ele>874.351607</ele>
        <time>2020-03-08T17:51:30.124Z</time>
      </trkpt>
      <trkpt lat="44.59553" lon="2.94424">
        <ele>876.579486</ele>
        <time>2020-03-08T17:51:41.245Z</time>
      </trkpt>
      <trkpt lat="44.59541" lon="2.9445">
        <ele>878.674795</ele>
        <time>2020-03-08T17:51:52.378Z</time>
      </trkpt>
      <trkpt lat="44.59489" lon="2.94488">
        <ele>884.164285</ele>
        <time>2020-03-08T17:52:27.060Z</time>
      </trkpt>
      <trkpt lat="44.59453" lon="2.94541">
        <ele>889.780246</ele>
        <time>2020-03-08T17:52:57.660Z</time>
      </trkpt>
      <trkpt lat="44.59454" lon="2.94571">
        <ele>892.057687</ele>
        <time>2020-03-08T17:53:08.853Z</time>
      </trkpt>
      <trkpt lat="44.59476" lon="2.94598">
        <ele>895.194247</ele>
        <time>2020-03-08T17:53:24.856Z</time>
      </trkpt>
      <trkpt lat="44.59483" lon="2.94611">
        <ele>896.458029</ele>
        <time>2020-03-08T17:53:31.946Z</time>
      </trkpt>
      <trkpt lat="44.59488" lon="2.94633">
        <ele>898.271313</ele>
        <time>2020-03-08T17:53:42.559Z</time>
      </trkpt>
      <trkpt lat="44.59496" lon="2.94714">
        <ele>904.348481</ele>
        <time>2020-03-08T17:54:16.130Z</time>
      </trkpt>
      <trkpt lat="44.59528" lon="2.94829">
        <ele>912.598281</ele>
        <time>2020-03-08T17:55:10.262Z</time>
      </trkpt>
      <trkpt lat="44.59553" lon="2.94866">
        <ele>916.004642</ele>
        <time>2020-03-08T17:55:26.493Z</time>
      </trkpt>
      <trkpt lat="44.59573" lon="2.94931">
        <ele>920.586493</ele>
        <time>2020-03-08T17:55:47.631Z</time>
      </trkpt>
      <trkpt lat="44.59588" lon="2.94956">
        <ele>922.062868</ele>
        <time>2020-03-08T17:55:57.703Z</time>
      </trkpt>
      <trkpt lat="44.59606" lon="2.94981">
        <ele>923.696504</ele>
        <time>2020-03-08T17:56:07.285Z</time>
      </trkpt>
      <trkpt lat="44.59742" lon="2.95176">
        <ele>937.066769</ele>
        <time>2020-03-08T17:57:24.886Z</time>
      </trkpt>
      <trkpt lat="44.59755" lon="2.95196">
        <ele>938.562141</ele>
        <time>2020-03-08T17:57:33.978Z</time>
      </trkpt>
      <trkpt lat="44.59763" lon="2.95224">
        <ele>940.232949</ele>
        <time>2020-03-08T17:57:44.291Z</time>
      </trkpt>
      <trkpt lat="44.59768" lon="2.95255">
        <ele>942.005614</ele>
        <time>2020-03-08T17:57:55.660Z</time>
      </trkpt>
      <trkpt lat="44.59768" lon="2.95323">
        <ele>945.77983</ele>
        <time>2020-03-08T17:58:20.704Z</time>
      </trkpt>
      <trkpt lat="44.59752" lon="2.95496">
        <ele>956.283425</ele>
        <time>2020-03-08T17:59:24.370Z</time>
      </trkpt>
      <trkpt lat="44.59755" lon="2.95551">
        <ele>959.604044</ele>
        <time>2020-03-08T17:59:42.286Z</time>
      </trkpt>
      <trkpt lat="44.59786" lon="2.9573">
        <ele>968.886858</ele>
        <time>2020-03-08T18:00:36.557Z</time>
      </trkpt>
      <trkpt lat="44.59786" lon="2.95787">
        <ele>971.709764</ele>
        <time>2020-03-08T18:00:53.450Z</time>
      </trkpt>
      <trkpt lat="44.59782" lon="2.95818">
        <ele>973.235662</ele>
        <time>2020-03-08T18:01:02.989Z</time>
      </trkpt>
      <trkpt lat="44.5977" lon="2.95856">
        <ele>975.700743</ele>
        <time>2020-03-08T18:01:16.136Z</time>
      </trkpt>
      <trkpt lat="44.59738" lon="2.95929">
        <ele>980.841026</ele>
        <time>2020-03-08T18:01:44.807Z</time>
      </trkpt>
      <trkpt lat="44.59731" lon="2.95978">
        <ele>983.828208</ele>
        <time>2020-03-08T18:02:02.431Z</time>
      </trkpt>
      <trkpt lat="44.59745" lon="2.96177">
        <ele>996.055831</ele>
        <time>2020-03-08T18:03:17.747Z</time>
      </trkpt>
      <trkpt lat="44.59756" lon="2.96208">
        <ele>998.235625</ele>
        <time>2020-03-08T18:03:30.580Z</time>
      </trkpt>
      <trkpt lat="44.59776" lon="2.96242">
        <ele>1000.92385</ele>
        <time>2020-03-08T18:03:45.631Z</time>
      </trkpt>
      <trkpt lat="44.59803" lon="2.96271">
        <ele>1003.897207</ele>
        <time>2020-03-08T18:04:01.255Z</time>
      </trkpt>
      <trkpt lat="44.5983" lon="2.96296">
        <ele>1005.884011</ele>
        <time>2020-03-08T18:04:15.548Z</time>
      </trkpt>
      <trkpt lat="44.59858" lon="2.96317">
        <ele>1007.695352</ele>
        <time>2020-03-08T18:04:28.157Z</time>
      </trkpt>
      <trkpt lat="44.59889" lon="2.96331">
        <ele>1009.565241</ele>
        <time>2020-03-08T18:04:40.211Z</time>
      </trkpt>
      <trkpt lat="44.59946" lon="2.9633">
        <ele>1012.85895</ele>
        <time>2020-03-08T18:04:59.889Z</time>
      </trkpt>
      <trkpt lat="44.60009" lon="2.96309">
        <ele>1016.319213</ele>
        <time>2020-03-08T18:05:21.653Z</time>
      </trkpt>
      <trkpt lat="44.60078" lon="2.96275">
        <ele>1019.982214</ele>
        <time>2020-03-08T18:05:45.950Z</time>
      </trkpt>
      <trkpt lat="44.60103" lon="2.96272">
        <ele>1021.239489</ele>
        <time>2020-03-08T18:05:54.867Z</time>
      </trkpt>
      <trkpt lat="44.60123" lon="2.96275">
        <ele>1022.247003</ele>
        <time>2020-03-08T18:06:02.391Z</time>
      </trkpt>
      <trkpt lat="44.60198" lon="2.96289">
        <ele>1026.605694</ele>
        <time>2020-03-08T18:06:31.275Z</time>
      </trkpt>
      <trkpt lat="44.60212" lon="2.96301">
        <ele>1027.559926</ele>
        <time>2020-03-08T18:06:37.197Z</time>
      </trkpt>
      <trkpt lat="44.60273" lon="2.96388">
        <ele>1032.884375</ele>
        <time>2020-03-08T18:07:10.937Z</time>
      </trkpt>
      <trkpt lat="44.60301" lon="2.96438">
        <ele>1036.111513</ele>
        <time>2020-03-08T18:07:29.909Z</time>
      </trkpt>
      <trkpt lat="44.60333" lon="2.96481">
        <ele>1039.857166</ele>
        <time>2020-03-08T18:07:49.711Z</time>
      </trkpt>
      <trkpt lat="44.60362" lon="2.9651">
        <ele>1042.901582</ele>
        <time>2020-03-08T18:08:06.696Z</time>
      </trkpt>
      <trkpt lat="44.6038" lon="2.96523">
        <ele>1044.640227</ele>
        <time>2020-03-08T18:08:16.932Z</time>
      </trkpt>
      <trkpt lat="44.60428" lon="2.96557">
        <ele>1049.260616</ele>
        <time>2020-03-08T18:08:45.703Z</time>
      </trkpt>
      <trkpt lat="44.60446" lon="2.9657">
        <ele>1051.301131</ele>
        <time>2020-03-08T18:08:56.843Z</time>
      </trkpt>
      <trkpt lat="44.605" lon="2.96583">
        <ele>1057.51622</ele>
        <time>2020-03-08T18:09:29.933Z</time>
      </trkpt>
      <trkpt lat="44.60552" lon="2.96618">
        <ele>1064.059377</ele>
        <time>2020-03-08T18:10:06.693Z</time>
      </trkpt>
      <trkpt lat="44.60594" lon="2.96634">
        <ele>1068.982925</ele>
        <time>2020-03-08T18:10:33.203Z</time>
      </trkpt>
      <trkpt lat="44.60605" lon="2.96633">
        <ele>1070.225599</ele>
        <time>2020-03-08T18:10:39.873Z</time>
      </trkpt>
      <trkpt lat="44.60668" lon="2.96601">
        <ele>1076.428373</ele>
        <time>2020-03-08T18:11:19.564Z</time>
      </trkpt>
      <trkpt lat="44.60775" lon="2.96639">
        <ele>1086.656075</ele>
        <time>2020-03-08T18:12:13.713Z</time>
      </trkpt>
      <trkpt lat="44.60814" lon="2.96631">
        <ele>1089.189547</ele>
        <time>2020-03-08T18:12:29.841Z</time>
      </trkpt>
      <trkpt lat="44.60827" lon="2.96634">
        <ele>1090.028051</ele>
        <time>2020-03-08T18:12:34.915Z</time>
      </trkpt>
      <trkpt lat="44.60859" lon="2.96704">
        <ele>1093.705844</ele>
        <time>2020-03-08T18:12:56.933Z</time>
      </trkpt>
      <trkpt lat="44.60874" lon="2.96761">
        <ele>1096.397875</ele>
        <time>2020-03-08T18:13:12.654Z</time>
      </trkpt>
      <trkpt lat="44.60881" lon="2.96789">
        <ele>1097.75015</ele>
        <time>2020-03-08T18:13:20.783Z</time>
      </trkpt>
      <trkpt lat="44.60899" lon="2.96837">
        <ele>1100.865058</ele>
        <time>2020-03-08T18:13:36.366Z</time>
      </trkpt>
      <trkpt lat="44.60947" lon="2.96902">
        <ele>1106.465798</ele>
        <time>2020-03-08T18:14:07.588Z</time>
      </trkpt>
      <trkpt lat="44.60972" lon="2.96954">
        <ele>1110.188083</ele>
        <time>2020-03-08T18:14:30.894Z</time>
      </trkpt>
      <trkpt lat="44.61003" lon="2.96971">
        <ele>1112.95321</ele>
        <time>2020-03-08T18:14:48.917Z</time>
      </trkpt>
      <trkpt lat="44.61033" lon="2.96973">
        <ele>1115.863802</ele>
        <time>2020-03-08T18:15:06.301Z</time>
      </trkpt>
      <trkpt lat="44.61063" lon="2.9696">
        <ele>1118.924478</ele>
        <time>2020-03-08T18:15:24.410Z</time>
      </trkpt>
      <trkpt lat="44.6109" lon="2.96926">
        <ele>1122.443806</ele>
        <time>2020-03-08T18:15:45.104Z</time>
      </trkpt>
      <trkpt lat="44.61146" lon="2.96831">
        <ele>1130.911972</ele>
        <time>2020-03-08T18:16:31.534Z</time>
      </trkpt>
      <trkpt lat="44.61165" lon="2.96822">
        <ele>1131.99657</ele>
        <time>2020-03-08T18:16:41.031Z</time>
      </trkpt>
      <trkpt lat="44.61176" lon="2.96825">
        <ele>1132.631782</ele>
        <time>2020-03-08T18:16:46.345Z</time>
      </trkpt>
      <trkpt lat="44.61187" lon="2.96835">
        <ele>1133.340654</ele>
        <time>2020-03-08T18:16:52.052Z</time>
      </trkpt>
      <trkpt lat="44.61198" lon="2.96872">
        <ele>1134.871573</ele>
        <time>2020-03-08T18:17:03.748Z</time>
      </trkpt>
      <trkpt lat="44.612" lon="2.97023">
        <ele>1140.606409</ele>
        <time>2020-03-08T18:17:37.561Z</time>
      </trkpt>
      <trkpt lat="44.61197" lon="2.97047">
        <ele>1140.814092</ele>
        <time>2020-03-08T18:17:41.632Z</time>
      </trkpt>
      <trkpt lat="44.61187" lon="2.97072">
        <ele>1141.048346</ele>
        <time>2020-03-08T18:17:46.139Z</time>
      </trkpt>
      <trkpt lat="44.61171" lon="2.97089">
        <ele>1141.279044</ele>
        <time>2020-03-08T18:17:49.848Z</time>
      </trkpt>
      <trkpt lat="44.61161" lon="2.97108">
        <ele>1141.475641</ele>
        <time>2020-03-08T18:17:53.068Z</time>
      </trkpt>
      <trkpt lat="44.61152" lon="2.97149">
        <ele>1141.825564</ele>
        <time>2020-03-08T18:17:58.054Z</time>
      </trkpt>
      <trkpt lat="44.61127" lon="2.97283">
        <ele>1143.466519</ele>
        <time>2020-03-08T18:18:13.124Z</time>
      </trkpt>
      <trkpt lat="44.61131" lon="2.97371">
        <ele>1145.324862</ele>
        <time>2020-03-08T18:18:26.802Z</time>
      </trkpt>
      <trkpt lat="44.61154" lon="2.97442">
        <ele>1146.987394</ele>
        <time>2020-03-08T18:18:43.395Z</time>
      </trkpt>
      <trkpt lat="44.61164" lon="2.97496">
        <ele>1148.425359</ele>
        <time>2020-03-08T18:18:57.753Z</time>
      </trkpt>
      <trkpt lat="44.61191" lon="2.97562">
        <ele>1152.663433</ele>
        <time>2020-03-08T18:19:20.483Z</time>
      </trkpt>
      <trkpt lat="44.61293" lon="2.97758">
        <ele>1166.785011</ele>
        <time>2020-03-08T18:20:47.182Z</time>
      </trkpt>
      <trkpt lat="44.61315" lon="2.97819">
        <ele>1171.133913</ele>
        <time>2020-03-08T18:21:12.883Z</time>
      </trkpt>
      <trkpt lat="44.61331" lon="2.97882">
        <ele>1175.367631</ele>
        <time>2020-03-08T18:21:36.886Z</time>
      </trkpt>
      <trkpt lat="44.61338" lon="2.97923">
        <ele>1178.058505</ele>
        <time>2020-03-08T18:21:52.162Z</time>
      </trkpt>
      <trkpt lat="44.61357" lon="2.98037">
        <ele>1184.483925</ele>
        <time>2020-03-08T18:22:31.703Z</time>
      </trkpt>
      <trkpt lat="44.61371" lon="2.98245">
        <ele>1195.330989</ele>
        <time>2020-03-08T18:23:36.866Z</time>
      </trkpt>
      <trkpt lat="44.61364" lon="2.98401">
        <ele>1202.49798</ele>
        <time>2020-03-08T18:24:20.635Z</time>
      </trkpt>
      <trkpt lat="44.61329" lon="2.98634">
        <ele>1212.995843</ele>
        <time>2020-03-08T18:25:26.484Z</time>
      </trkpt>
      <trkpt lat="44.61329" lon="2.98692">
        <ele>1215.88294</ele>
        <time>2020-03-08T18:25:43.650Z</time>
      </trkpt>
      <trkpt lat="44.61334" lon="2.98726">
        <ele>1217.988949</ele>
        <time>2020-03-08T18:25:54.186Z</time>
      </trkpt>
      <trkpt lat="44.61353" lon="2.98769">
        <ele>1220.9736</ele>
        <time>2020-03-08T18:26:09.484Z</time>
      </trkpt>
      <trkpt lat="44.61475" lon="2.98866">
        <ele>1233.53226</ele>
        <time>2020-03-08T18:27:24.921Z</time>
      </trkpt>
      <trkpt lat="44.61499" lon="2.98866">
        <ele>1236.020777</ele>
        <time>2020-03-08T18:27:37.485Z</time>
      </trkpt>
      <trkpt lat="44.61508" lon="2.98858">
        <ele>1237.073789</ele>
        <time>2020-03-08T18:27:44.456Z</time>
      </trkpt>
      <trkpt lat="44.6152" lon="2.98848">
        <ele>1238.496455</ele>
        <time>2020-03-08T18:27:51.459Z</time>
      </trkpt>
      <trkpt lat="44.61523" lon="2.98842">
        <ele>1239.013588</ele>
        <time>2020-03-08T18:27:54.515Z</time>
      </trkpt>
      <trkpt lat="44.61596" lon="2.98714">
        <ele>1250.452787</ele>
        <time>2020-03-08T18:29:02.085Z</time>
      </trkpt>
      <trkpt lat="44.61606" lon="2.987">
        <ele>1251.618661</ele>
        <time>2020-03-08T18:29:10.929Z</time>
      </trkpt>
      <trkpt lat="44.61665" lon="2.98664">
        <ele>1256.834624</ele>
        <time>2020-03-08T18:29:40.809Z</time>
      </trkpt>
      <trkpt lat="44.61676" lon="2.98657">
        <ele>1257.85313</ele>
        <time>2020-03-08T18:29:46.225Z</time>
      </trkpt>
      <trkpt lat="44.6169" lon="2.98656">
        <ele>1258.995135</ele>
        <time>2020-03-08T18:29:51.683Z</time>
      </trkpt>
      <trkpt lat="44.61696" lon="2.98658">
        <ele>1259.491235</ele>
        <time>2020-03-08T18:29:54.577Z</time>
      </trkpt>
      <trkpt lat="44.61701" lon="2.9866">
        <ele>1259.90266</ele>
        <time>2020-03-08T18:29:57.059Z</time>
      </trkpt>
      <trkpt lat="44.6175" lon="2.98733">
        <ele>1265.029502</ele>
        <time>2020-03-08T18:30:26.038Z</time>
      </trkpt>
      <trkpt lat="44.61759" lon="2.98766">
        <ele>1266.601135</ele>
        <time>2020-03-08T18:30:35.356Z</time>
      </trkpt>
      <trkpt lat="44.61763" lon="2.98845">
        <ele>1270.041548</ele>
        <time>2020-03-08T18:30:56.428Z</time>
      </trkpt>
      <trkpt lat="44.61768" lon="2.98861">
        <ele>1270.793692</ele>
        <time>2020-03-08T18:31:00.611Z</time>
      </trkpt>
      <trkpt lat="44.61791" lon="2.98889">
        <ele>1272.674844</ele>
        <time>2020-03-08T18:31:12.340Z</time>
      </trkpt>
      <trkpt lat="44.61818" lon="2.98898">
        <ele>1274.36058</ele>
        <time>2020-03-08T18:31:23.603Z</time>
      </trkpt>
      <trkpt lat="44.61847" lon="2.98884">
        <ele>1276.593482</ele>
        <time>2020-03-08T18:31:37.536Z</time>
      </trkpt>
      <trkpt lat="44.61872" lon="2.9886">
        <ele>1278.727755</ele>
        <time>2020-03-08T18:31:51.674Z</time>
      </trkpt>
      <trkpt lat="44.61902" lon="2.98805">
        <ele>1282.290501</ele>
        <time>2020-03-08T18:32:12.323Z</time>
      </trkpt>
      <trkpt lat="44.61912" lon="2.98792">
        <ele>1283.273804</ele>
        <time>2020-03-08T18:32:19.758Z</time>
      </trkpt>
      <trkpt lat="44.61917" lon="2.98788">
        <ele>1283.65107</ele>
        <time>2020-03-08T18:32:22.407Z</time>
      </trkpt>
      <trkpt lat="44.6197" lon="2.98744">
        <ele>1287.938603</ele>
        <time>2020-03-08T18:32:47.530Z</time>
      </trkpt>
      <trkpt lat="44.61979" lon="2.98737">
        <ele>1288.600207</ele>
        <time>2020-03-08T18:32:53.079Z</time>
      </trkpt>
      <trkpt lat="44.62021" lon="2.98709">
        <ele>1291.566957</ele>
        <time>2020-03-08T18:33:12.719Z</time>
      </trkpt>
      <trkpt lat="44.6204" lon="2.98707">
        <ele>1292.76824</ele>
        <time>2020-03-08T18:33:21.312Z</time>
      </trkpt>
      <trkpt lat="44.62102" lon="2.98706">
        <ele>1296.6898</ele>
        <time>2020-03-08T18:33:46.146Z</time>
      </trkpt>
      <trkpt lat="44.62125" lon="2.98705">
        <ele>1298.149731</ele>
        <time>2020-03-08T18:33:53.731Z</time>
      </trkpt>
      <trkpt lat="44.62144" lon="2.98699">
        <ele>1298.922172</ele>
        <time>2020-03-08T18:34:00.141Z</time>
      </trkpt>
      <trkpt lat="44.62155" lon="2.98692">
        <ele>1299.31797</ele>
        <time>2020-03-08T18:34:03.469Z</time>
      </trkpt>
      <trkpt lat="44.62164" lon="2.98684">
        <ele>1299.675379</ele>
        <time>2020-03-08T18:34:07.195Z</time>
      </trkpt>
      <trkpt lat="44.62188" lon="2.98639">
        <ele>1301.052576</ele>
        <time>2020-03-08T18:34:19.158Z</time>
      </trkpt>
      <trkpt lat="44.6219" lon="2.98636">
        <ele>1301.14613</ele>
        <time>2020-03-08T18:34:20.876Z</time>
      </trkpt>
      <trkpt lat="44.62212" lon="2.98671">
        <ele>1302.272826</ele>
        <time>2020-03-08T18:34:29.314Z</time>
      </trkpt>
      <trkpt lat="44.62216" lon="2.98676">
        <ele>1302.443466</ele>
        <time>2020-03-08T18:34:31.193Z</time>
      </trkpt>
      <trkpt lat="44.62233" lon="2.98687">
        <ele>1303.100633</ele>
        <time>2020-03-08T18:34:35.881Z</time>
      </trkpt>
      <trkpt lat="44.62245" lon="2.98689">
        <ele>1303.503032</ele>
        <time>2020-03-08T18:34:39.102Z</time>
      </trkpt>
      <trkpt lat="44.62257" lon="2.98688">
        <ele>1303.917039</ele>
        <time>2020-03-08T18:34:41.973Z</time>
      </trkpt>
      <trkpt lat="44.6228" lon="2.98684">
        <ele>1304.546932</ele>
        <time>2020-03-08T18:34:48.006Z</time>
      </trkpt>
      <trkpt lat="44.62336" lon="2.98676">
        <ele>1305.119965</ele>
        <time>2020-03-08T18:34:58.477Z</time>
      </trkpt>
      <trkpt lat="44.62356" lon="2.98678">
        <ele>1305.318442</ele>
        <time>2020-03-08T18:35:01.363Z</time>
      </trkpt>
      <trkpt lat="44.62363" lon="2.98678">
        <ele>1305.387683</ele>
        <time>2020-03-08T18:35:02.216Z</time>
      </trkpt>
      <trkpt lat="44.62477" lon="2.98694">
        <ele>1306.682135</ele>
        <time>2020-03-08T18:35:23.239Z</time>
      </trkpt>
      <trkpt lat="44.62533" lon="2.98675">
        <ele>1307.564867</ele>
        <time>2020-03-08T18:35:34.427Z</time>
      </trkpt>
      <trkpt lat="44.62564" lon="2.98687">
        <ele>1308.052251</ele>
        <time>2020-03-08T18:35:41.087Z</time>
      </trkpt>
      <trkpt lat="44.62578" lon="2.98699">
        <ele>1308.309015</ele>
        <time>2020-03-08T18:35:45.211Z</time>
      </trkpt>
      <trkpt lat="44.62587" lon="2.9871">
        <ele>1308.479392</ele>
        <time>2020-03-08T18:35:47.346Z</time>
      </trkpt>
      <trkpt lat="44.62592" lon="2.98719">
        <ele>1308.612375</ele>
        <time>2020-03-08T18:35:49.083Z</time>
      </trkpt>
      <trkpt lat="44.62598" lon="2.98732">
        <ele>1308.778812</ele>
        <time>2020-03-08T18:35:52.073Z</time>
      </trkpt>
      <trkpt lat="44.62603" lon="2.98746">
        <ele>1308.947924</ele>
        <time>2020-03-08T18:35:54.440Z</time>
      </trkpt>
      <trkpt lat="44.62607" lon="2.9876">
        <ele>1309.17442</ele>
        <time>2020-03-08T18:35:56.746Z</time>
      </trkpt>
      <trkpt lat="44.62609" lon="2.98771">
        <ele>1309.40254</ele>
        <time>2020-03-08T18:35:58.573Z</time>
      </trkpt>
      <trkpt lat="44.6261" lon="2.98778">
        <ele>1309.535861</ele>
        <time>2020-03-08T18:36:00.252Z</time>
      </trkpt>
      <trkpt lat="44.62618" lon="2.98859">
        <ele>1311.186625</ele>
        <time>2020-03-08T18:36:14.540Z</time>
      </trkpt>
      <trkpt lat="44.62611" lon="2.98899">
        <ele>1312.022395</ele>
        <time>2020-03-08T18:36:22.583Z</time>
      </trkpt>
      <trkpt lat="44.62589" lon="2.98976">
        <ele>1313.694319</ele>
        <time>2020-03-08T18:36:38.949Z</time>
      </trkpt>
      <trkpt lat="44.62591" lon="2.98998">
        <ele>1314.152959</ele>
        <time>2020-03-08T18:36:43.434Z</time>
      </trkpt>
      <trkpt lat="44.6261" lon="2.99054">
        <ele>1315.42807</ele>
        <time>2020-03-08T18:36:55.792Z</time>
      </trkpt>
      <trkpt lat="44.62621" lon="2.99106">
        <ele>1316.541482</ele>
        <time>2020-03-08T18:37:06.735Z</time>
      </trkpt>
      <trkpt lat="44.62614" lon="2.99148">
        <ele>1317.429192</ele>
        <time>2020-03-08T18:37:15.202Z</time>
      </trkpt>
      <trkpt lat="44.62606" lon="2.99172">
        <ele>1317.989289</ele>
        <time>2020-03-08T18:37:20.405Z</time>
      </trkpt>
      <trkpt lat="44.62533" lon="2.99265">
        <ele>1319.807088</ele>
        <time>2020-03-08T18:37:43.483Z</time>
      </trkpt>
      <trkpt lat="44.62493" lon="2.99302">
        <ele>1320.202492</ele>
        <time>2020-03-08T18:37:52.287Z</time>
      </trkpt>
      <trkpt lat="44.62455" lon="2.99326">
        <ele>1320.558574</ele>
        <time>2020-03-08T18:37:59.054Z</time>
      </trkpt>
      <trkpt lat="44.62432" lon="2.99351">
        <ele>1320.798614</ele>
        <time>2020-03-08T18:38:03.302Z</time>
      </trkpt>
      <trkpt lat="44.62416" lon="2.99381">
        <ele>1320.838493</ele>
        <time>2020-03-08T18:38:06.739Z</time>
      </trkpt>
      <trkpt lat="44.62408" lon="2.99403">
        <ele>1320.781534</ele>
        <time>2020-03-08T18:38:08.953Z</time>
      </trkpt>
      <trkpt lat="44.624" lon="2.99436">
        <ele>1320.704265</ele>
        <time>2020-03-08T18:38:12.150Z</time>
      </trkpt>
      <trkpt lat="44.62397" lon="2.99467">
        <ele>1320.634617</ele>
        <time>2020-03-08T18:38:14.840Z</time>
      </trkpt>
      <trkpt lat="44.62394" lon="2.99497">
        <ele>1320.566082</ele>
        <time>2020-03-08T18:38:17.685Z</time>
      </trkpt>
      <trkpt lat="44.6239" lon="2.99529">
        <ele>1320.49176</ele>
        <time>2020-03-08T18:38:20.824Z</time>
      </trkpt>
      <trkpt lat="44.62387" lon="2.99559">
        <ele>1320.423755</ele>
        <time>2020-03-08T18:38:23.543Z</time>
      </trkpt>
      <trkpt lat="44.62383" lon="2.99625">
        <ele>1320.547507</ele>
        <time>2020-03-08T18:38:30.553Z</time>
      </trkpt>
      <trkpt lat="44.62427" lon="2.99837">
        <ele>1323.049555</ele>
        <time>2020-03-08T18:39:03.842Z</time>
      </trkpt>
      <trkpt lat="44.62433" lon="2.9998">
        <ele>1326.713182</ele>
        <time>2020-03-08T18:39:33.927Z</time>
      </trkpt>
      <trkpt lat="44.62431" lon="3.00016">
        <ele>1327.682243</ele>
        <time>2020-03-08T18:39:42.184Z</time>
      </trkpt>
      <trkpt lat="44.62403" lon="3.00189">
        <ele>1332.026522</ele>
        <time>2020-03-08T18:40:23.341Z</time>
      </trkpt>
      <trkpt lat="44.624" lon="3.00229">
        <ele>1332.920769</ele>
        <time>2020-03-08T18:40:31.643Z</time>
      </trkpt>
      <trkpt lat="44.62407" lon="3.00298">
        <ele>1334.44341</ele>
        <time>2020-03-08T18:40:43.772Z</time>
      </trkpt>
      <trkpt lat="44.62408" lon="3.003">
        <ele>1334.507481</ele>
        <time>2020-03-08T18:40:45.129Z</time>
      </trkpt>
      <trkpt lat="44.62417" lon="3.00335">
        <ele>1335.330436</ele>
        <time>2020-03-08T18:40:50.265Z</time>
      </trkpt>
      <trkpt lat="44.62429" lon="3.00363">
        <ele>1335.690681</ele>
        <time>2020-03-08T18:40:55.443Z</time>
      </trkpt>
      <trkpt lat="44.62477" lon="3.00465">
        <ele>1336.312412</ele>
        <time>2020-03-08T18:41:10.198Z</time>
      </trkpt>
      <trkpt lat="44.62519" lon="3.00555">
        <ele>1336.864268</ele>
        <time>2020-03-08T18:41:21.868Z</time>
      </trkpt>
      <trkpt lat="44.62552" lon="3.00618">
        <ele>1337.500977</ele>
        <time>2020-03-08T18:41:32.317Z</time>
      </trkpt>
      <trkpt lat="44.62566" lon="3.00632">
        <ele>1337.696185</ele>
        <time>2020-03-08T18:41:35.441Z</time>
      </trkpt>
      <trkpt lat="44.62597" lon="3.00648">
        <ele>1338.066856</ele>
        <time>2020-03-08T18:41:42.322Z</time>
      </trkpt>
      <trkpt lat="44.62604" lon="3.00649">
        <ele>1338.153098</ele>
        <time>2020-03-08T18:41:43.955Z</time>
      </trkpt>
      <trkpt lat="44.62617" lon="3.00649">
        <ele>1338.296896</ele>
        <time>2020-03-08T18:41:46.945Z</time>
      </trkpt>
      <trkpt lat="44.62659" lon="3.00637">
        <ele>1338.787473</ele>
        <time>2020-03-08T18:41:55.632Z</time>
      </trkpt>
      <trkpt lat="44.62723" lon="3.00613">
        <ele>1339.066612</ele>
        <time>2020-03-08T18:42:08.905Z</time>
      </trkpt>
      <trkpt lat="44.6274" lon="3.00606">
        <ele>1339.111676</ele>
        <time>2020-03-08T18:42:11.806Z</time>
      </trkpt>
      <trkpt lat="44.62833" lon="3.00571">
        <ele>1339.362103</ele>
        <time>2020-03-08T18:42:26.445Z</time>
      </trkpt>
      <trkpt lat="44.62948" lon="3.00524">
        <ele>1337.494114</ele>
        <time>2020-03-08T18:42:40.296Z</time>
      </trkpt>
      <trkpt lat="44.63149" lon="3.00373">
        <ele>1331.819003</ele>
        <time>2020-03-08T18:43:04.262Z</time>
      </trkpt>
      <trkpt lat="44.63161" lon="3.00366">
        <ele>1331.447995</ele>
        <time>2020-03-08T18:43:05.597Z</time>
      </trkpt>
      <trkpt lat="44.6317" lon="3.00364">
        <ele>1331.207787</ele>
        <time>2020-03-08T18:43:06.376Z</time>
      </trkpt>
      <trkpt lat="44.63234" lon="3.00359">
        <ele>1328.747736</ele>
        <time>2020-03-08T18:43:12.739Z</time>
      </trkpt>
      <trkpt lat="44.63268" lon="3.00369">
        <ele>1327.411562</ele>
        <time>2020-03-08T18:43:16.096Z</time>
      </trkpt>
      <trkpt lat="44.63339" lon="3.0042">
        <ele>1324.293112</ele>
        <time>2020-03-08T18:43:23.895Z</time>
      </trkpt>
      <trkpt lat="44.63458" lon="3.00546">
        <ele>1319.177585</ele>
        <time>2020-03-08T18:43:38.795Z</time>
      </trkpt>
      <trkpt lat="44.63516" lon="3.00595">
        <ele>1316.890103</ele>
        <time>2020-03-08T18:43:45.658Z</time>
      </trkpt>
      <trkpt lat="44.63548" lon="3.00609">
        <ele>1315.768233</ele>
        <time>2020-03-08T18:43:49.081Z</time>
      </trkpt>
      <trkpt lat="44.6361" lon="3.00617">
        <ele>1313.708867</ele>
        <time>2020-03-08T18:43:55.356Z</time>
      </trkpt>
      <trkpt lat="44.63684" lon="3.00652">
        <ele>1311.190461</ele>
        <time>2020-03-08T18:44:03.179Z</time>
      </trkpt>
      <trkpt lat="44.63723" lon="3.00684">
        <ele>1309.799166</ele>
        <time>2020-03-08T18:44:07.711Z</time>
      </trkpt>
      <trkpt lat="44.63758" lon="3.00723">
        <ele>1308.423571</ele>
        <time>2020-03-08T18:44:12.232Z</time>
      </trkpt>
      <trkpt lat="44.63835" lon="3.0082">
        <ele>1305.938696</ele>
        <time>2020-03-08T18:44:23.022Z</time>
      </trkpt>
      <trkpt lat="44.63892" lon="3.00914">
        <ele>1304.69923</ele>
        <time>2020-03-08T18:44:33.303Z</time>
      </trkpt>
      <trkpt lat="44.63928" lon="3.00944">
        <ele>1304.116153</ele>
        <time>2020-03-08T18:44:38.673Z</time>
      </trkpt>
      <trkpt lat="44.63937" lon="3.00947">
        <ele>1303.993105</ele>
        <time>2020-03-08T18:44:39.875Z</time>
      </trkpt>
      <trkpt lat="44.63944" lon="3.00949">
        <ele>1303.993348</ele>
        <time>2020-03-08T18:44:41.105Z</time>
      </trkpt>
      <trkpt lat="44.64044" lon="3.00962">
        <ele>1303.997121</ele>
        <time>2020-03-08T18:44:56.595Z</time>
      </trkpt>
      <trkpt lat="44.64148" lon="3.00985">
        <ele>1303.575168</ele>
        <time>2020-03-08T18:45:12.839Z</time>
      </trkpt>
      <trkpt lat="44.64174" lon="3.00998">
        <ele>1303.213892</ele>
        <time>2020-03-08T18:45:16.631Z</time>
      </trkpt>
      <trkpt lat="44.64544" lon="3.01396">
        <ele>1296.937683</ele>
        <time>2020-03-08T18:46:09.975Z</time>
      </trkpt>
      <trkpt lat="44.64589" lon="3.01444">
        <ele>1296.624834</ele>
        <time>2020-03-08T18:46:16.706Z</time>
      </trkpt>
      <trkpt lat="44.64646" lon="3.01505">
        <ele>1296.422081</ele>
        <time>2020-03-08T18:46:26.548Z</time>
      </trkpt>
      <trkpt lat="44.64702" lon="3.01563">
        <ele>1296.276967</ele>
        <time>2020-03-08T18:46:37.692Z</time>
      </trkpt>
      <trkpt lat="44.64725" lon="3.01588">
        <ele>1296.479462</ele>
        <time>2020-03-08T18:46:43.240Z</time>
      </trkpt>
      <trkpt lat="44.64769" lon="3.01643">
        <ele>1296.877451</ele>
        <time>2020-03-08T18:46:54.404Z</time>
      </trkpt>
      <trkpt lat="44.64837" lon="3.01754">
        <ele>1297.195942</ele>
        <time>2020-03-08T18:47:13.038Z</time>
      </trkpt>
      <trkpt lat="44.6485" lon="3.01784">
        <ele>1296.790307</ele>
        <time>2020-03-08T18:47:16.530Z</time>
      </trkpt>
      <trkpt lat="44.64855" lon="3.01821">
        <ele>1296.351789</ele>
        <time>2020-03-08T18:47:19.891Z</time>
      </trkpt>
      <trkpt lat="44.64855" lon="3.01837">
        <ele>1296.173975</ele>
        <time>2020-03-08T18:47:21.345Z</time>
      </trkpt>
      <trkpt lat="44.64853" lon="3.01878">
        <ele>1295.704815</ele>
        <time>2020-03-08T18:47:24.631Z</time>
      </trkpt>
      <trkpt lat="44.64852" lon="3.01912">
        <ele>1295.30877</ele>
        <time>2020-03-08T18:47:27.223Z</time>
      </trkpt>
      <trkpt lat="44.64853" lon="3.01939">
        <ele>1295.002048</ele>
        <time>2020-03-08T18:47:29.264Z</time>
      </trkpt>
      <trkpt lat="44.64855" lon="3.01966">
        <ele>1294.683232</ele>
        <time>2020-03-08T18:47:31.229Z</time>
      </trkpt>
      <trkpt lat="44.64859" lon="3.01996">
        <ele>1293.865153</ele>
        <time>2020-03-08T18:47:33.408Z</time>
      </trkpt>
      <trkpt lat="44.64867" lon="3.02032">
        <ele>1292.589534</ele>
        <time>2020-03-08T18:47:35.957Z</time>
      </trkpt>
      <trkpt lat="44.64884" lon="3.02114">
        <ele>1289.657851</ele>
        <time>2020-03-08T18:47:41.697Z</time>
      </trkpt>
      <trkpt lat="44.64894" lon="3.02147">
        <ele>1288.409695</ele>
        <time>2020-03-08T18:47:44.141Z</time>
      </trkpt>
      <trkpt lat="44.64903" lon="3.02164">
        <ele>1287.696827</ele>
        <time>2020-03-08T18:47:45.511Z</time>
      </trkpt>
      <trkpt lat="44.64913" lon="3.02181">
        <ele>1286.934831</ele>
        <time>2020-03-08T18:47:46.997Z</time>
      </trkpt>
      <trkpt lat="44.6493" lon="3.02198">
        <ele>1285.916976</ele>
        <time>2020-03-08T18:47:48.940Z</time>
      </trkpt>
      <trkpt lat="44.64989" lon="3.02244">
        <ele>1282.553651</ele>
        <time>2020-03-08T18:47:55.153Z</time>
      </trkpt>
      <trkpt lat="44.65059" lon="3.02296">
        <ele>1278.573605</ele>
        <time>2020-03-08T18:48:02.655Z</time>
      </trkpt>
      <trkpt lat="44.65065" lon="3.02301">
        <ele>1278.215467</ele>
        <time>2020-03-08T18:48:03.313Z</time>
      </trkpt>
      <trkpt lat="44.65104" lon="3.02344">
        <ele>1275.825527</ele>
        <time>2020-03-08T18:48:08.109Z</time>
      </trkpt>
      <trkpt lat="44.65114" lon="3.02363">
        <ele>1275.066188</ele>
        <time>2020-03-08T18:48:09.706Z</time>
      </trkpt>
      <trkpt lat="44.65124" lon="3.024">
        <ele>1273.741413</ele>
        <time>2020-03-08T18:48:12.450Z</time>
      </trkpt>
      <trkpt lat="44.65126" lon="3.02426">
        <ele>1272.871931</ele>
        <time>2020-03-08T18:48:14.227Z</time>
      </trkpt>
      <trkpt lat="44.65126" lon="3.0245">
        <ele>1272.091732</ele>
        <time>2020-03-08T18:48:15.868Z</time>
      </trkpt>
      <trkpt lat="44.65116" lon="3.02558">
        <ele>1268.497132</ele>
        <time>2020-03-08T18:48:23.315Z</time>
      </trkpt>
      <trkpt lat="44.65068" lon="3.02711">
        <ele>1262.200085</ele>
        <time>2020-03-08T18:48:34.409Z</time>
      </trkpt>
      <trkpt lat="44.65063" lon="3.02781">
        <ele>1259.534673</ele>
        <time>2020-03-08T18:48:39.086Z</time>
      </trkpt>
      <trkpt lat="44.6507" lon="3.02846">
        <ele>1257.171138</ele>
        <time>2020-03-08T18:48:43.488Z</time>
      </trkpt>
      <trkpt lat="44.65088" lon="3.02909">
        <ele>1254.792479</ele>
        <time>2020-03-08T18:48:47.983Z</time>
      </trkpt>
      <trkpt lat="44.65098" lon="3.02928">
        <ele>1253.961139</ele>
        <time>2020-03-08T18:48:49.584Z</time>
      </trkpt>
      <trkpt lat="44.65144" lon="3.02987">
        <ele>1250.852852</ele>
        <time>2020-03-08T18:48:55.589Z</time>
      </trkpt>
      <trkpt lat="44.65155" lon="3.03004">
        <ele>1250.082049</ele>
        <time>2020-03-08T18:48:57.111Z</time>
      </trkpt>
      <trkpt lat="44.65163" lon="3.03019">
        <ele>1249.500336</ele>
        <time>2020-03-08T18:48:58.361Z</time>
      </trkpt>
      <trkpt lat="44.65195" lon="3.03089">
        <ele>1246.853273</ele>
        <time>2020-03-08T18:49:04.146Z</time>
      </trkpt>
      <trkpt lat="44.65257" lon="3.03192">
        <ele>1242.550545</ele>
        <time>2020-03-08T18:49:13.440Z</time>
      </trkpt>
      <trkpt lat="44.65278" lon="3.0324">
        <ele>1240.158563</ele>
        <time>2020-03-08T18:49:17.338Z</time>
      </trkpt>
      <trkpt lat="44.65287" lon="3.03291">
        <ele>1237.747611</ele>
        <time>2020-03-08T18:49:20.725Z</time>
      </trkpt>
      <trkpt lat="44.65278" lon="3.03439">
        <ele>1230.91735</ele>
        <time>2020-03-08T18:49:30.248Z</time>
      </trkpt>
      <trkpt lat="44.65283" lon="3.03456">
        <ele>1230.059354</ele>
        <time>2020-03-08T18:49:31.358Z</time>
      </trkpt>
      <trkpt lat="44.65287" lon="3.03466">
        <ele>1229.43746</ele>
        <time>2020-03-08T18:49:32.144Z</time>
      </trkpt>
      <trkpt lat="44.653" lon="3.03485">
        <ele>1228.086967</ele>
        <time>2020-03-08T18:49:33.794Z</time>
      </trkpt>
      <trkpt lat="44.65335" lon="3.03532">
        <ele>1224.574678</ele>
        <time>2020-03-08T18:49:38.103Z</time>
      </trkpt>
      <trkpt lat="44.65362" lon="3.03591">
        <ele>1220.969115</ele>
        <time>2020-03-08T18:49:42.527Z</time>
      </trkpt>
      <trkpt lat="44.65379" lon="3.03617">
        <ele>1219.146065</ele>
        <time>2020-03-08T18:49:44.741Z</time>
      </trkpt>
      <trkpt lat="44.65475" lon="3.03726">
        <ele>1211.338549</ele>
        <time>2020-03-08T18:49:56.042Z</time>
      </trkpt>
      <trkpt lat="44.65516" lon="3.038">
        <ele>1207.267721</ele>
        <time>2020-03-08T18:50:02.207Z</time>
      </trkpt>
      <trkpt lat="44.65644" lon="3.03916">
        <ele>1199.231599</ele>
        <time>2020-03-08T18:50:16.443Z</time>
      </trkpt>
      <trkpt lat="44.65695" lon="3.03932">
        <ele>1196.634636</ele>
        <time>2020-03-08T18:50:21.364Z</time>
      </trkpt>
      <trkpt lat="44.65823" lon="3.0392">
        <ele>1191.076475</ele>
        <time>2020-03-08T18:50:33.774Z</time>
      </trkpt>
      <trkpt lat="44.65983" lon="3.03976">
        <ele>1185.045531</ele>
        <time>2020-03-08T18:50:49.938Z</time>
      </trkpt>
      <trkpt lat="44.66005" lon="3.03989">
        <ele>1184.231834</ele>
        <time>2020-03-08T18:50:52.361Z</time>
      </trkpt>
      <trkpt lat="44.66033" lon="3.04019">
        <ele>1183.103685</ele>
        <time>2020-03-08T18:50:56.075Z</time>
      </trkpt>
      <trkpt lat="44.66059" lon="3.04053">
        <ele>1182.664407</ele>
        <time>2020-03-08T18:50:59.993Z</time>
      </trkpt>
      <trkpt lat="44.66129" lon="3.04148">
        <ele>1181.470683</ele>
        <time>2020-03-08T18:51:11.603Z</time>
      </trkpt>
      <trkpt lat="44.66141" lon="3.04166">
        <ele>1181.249607</ele>
        <time>2020-03-08T18:51:14.012Z</time>
      </trkpt>
      <trkpt lat="44.66173" lon="3.04216">
        <ele>1180.929751</ele>
        <time>2020-03-08T18:51:20.620Z</time>
      </trkpt>
      <trkpt lat="44.66191" lon="3.04246">
        <ele>1180.924029</ele>
        <time>2020-03-08T18:51:24.690Z</time>
      </trkpt>
      <trkpt lat="44.66207" lon="3.04272">
        <ele>1180.919012</ele>
        <time>2020-03-08T18:51:28.210Z</time>
      </trkpt>
      <trkpt lat="44.6623" lon="3.0431">
        <ele>1180.911798</ele>
        <time>2020-03-08T18:51:33.720Z</time>
      </trkpt>
      <trkpt lat="44.66244" lon="3.0433">
        <ele>1180.907664</ele>
        <time>2020-03-08T18:51:36.852Z</time>
      </trkpt>
      <trkpt lat="44.66249" lon="3.04342">
        <ele>1180.905777</ele>
        <time>2020-03-08T18:51:38.220Z</time>
      </trkpt>
      <trkpt lat="44.66255" lon="3.04364">
        <ele>1180.90236</ele>
        <time>2020-03-08T18:51:40.993Z</time>
      </trkpt>
      <trkpt lat="44.66259" lon="3.04384">
        <ele>1180.899315</ele>
        <time>2020-03-08T18:51:43.160Z</time>
      </trkpt>
      <trkpt lat="44.66261" lon="3.04396">
        <ele>1180.897918</ele>
        <time>2020-03-08T18:51:44.636Z</time>
      </trkpt>
      <trkpt lat="44.66264" lon="3.04446">
        <ele>1180.928691</ele>
        <time>2020-03-08T18:51:50.370Z</time>
      </trkpt>
      <trkpt lat="44.66265" lon="3.04456">
        <ele>1180.934416</ele>
        <time>2020-03-08T18:51:51.474Z</time>
      </trkpt>
      <trkpt lat="44.66266" lon="3.04475">
        <ele>1180.946319</ele>
        <time>2020-03-08T18:51:53.435Z</time>
      </trkpt>
      <trkpt lat="44.66284" lon="3.04466">
        <ele>1180.962518</ele>
        <time>2020-03-08T18:51:56.436Z</time>
      </trkpt>
      <trkpt lat="44.66327" lon="3.04439">
        <ele>1181.002324</ele>
        <time>2020-03-08T18:52:03.203Z</time>
      </trkpt>
      <trkpt lat="44.66376" lon="3.04402">
        <ele>1181.05009</ele>
        <time>2020-03-08T18:52:11.908Z</time>
      </trkpt>
      <trkpt lat="44.66428" lon="3.04362">
        <ele>1180.972702</ele>
        <time>2020-03-08T18:52:20.650Z</time>
      </trkpt>
      <trkpt lat="44.66443" lon="3.0435">
        <ele>1180.950088</ele>
        <time>2020-03-08T18:52:22.900Z</time>
      </trkpt>
      <trkpt lat="44.66498" lon="3.04307">
        <ele>1180.864485</ele>
        <time>2020-03-08T18:52:31.605Z</time>
      </trkpt>
      <trkpt lat="44.66544" lon="3.04231">
        <ele>1180.922523</ele>
        <time>2020-03-08T18:52:41.741Z</time>
      </trkpt>
      <trkpt lat="44.66574" lon="3.04171">
        <ele>1181.122658</ele>
        <time>2020-03-08T18:52:50.356Z</time>
      </trkpt>
      <trkpt lat="44.6659" lon="3.04146">
        <ele>1181.216402</ele>
        <time>2020-03-08T18:52:54.889Z</time>
      </trkpt>
      <trkpt lat="44.66618" lon="3.04118">
        <ele>1181.350352</ele>
        <time>2020-03-08T18:53:01.150Z</time>
      </trkpt>
      <trkpt lat="44.66655" lon="3.04107">
        <ele>1181.495399</ele>
        <time>2020-03-08T18:53:07.499Z</time>
      </trkpt>
      <trkpt lat="44.66744" lon="3.04092">
        <ele>1180.841498</ele>
        <time>2020-03-08T18:53:20.931Z</time>
      </trkpt>
      <trkpt lat="44.66878" lon="3.04066">
        <ele>1178.773209</ele>
        <time>2020-03-08T18:53:36.452Z</time>
      </trkpt>
      <trkpt lat="44.66964" lon="3.0405">
        <ele>1175.992391</ele>
        <time>2020-03-08T18:53:45.081Z</time>
      </trkpt>
      <trkpt lat="44.67006" lon="3.04043">
        <ele>1174.614524</ele>
        <time>2020-03-08T18:53:49.303Z</time>
      </trkpt>
      <trkpt lat="44.6701" lon="3.04042">
        <ele>1174.511348</ele>
        <time>2020-03-08T18:53:49.617Z</time>
      </trkpt>
      <trkpt lat="44.67071" lon="3.04031">
        <ele>1171.768821</ele>
        <time>2020-03-08T18:53:55.540Z</time>
      </trkpt>
      <trkpt lat="44.67146" lon="3.04015">
        <ele>1168.305962</ele>
        <time>2020-03-08T18:54:02.706Z</time>
      </trkpt>
      <trkpt lat="44.67224" lon="3.0398">
        <ele>1164.682413</ele>
        <time>2020-03-08T18:54:10.510Z</time>
      </trkpt>
      <trkpt lat="44.67246" lon="3.03969">
        <ele>1163.6727</ele>
        <time>2020-03-08T18:54:12.781Z</time>
      </trkpt>
      <trkpt lat="44.67302" lon="3.03959">
        <ele>1161.210148</ele>
        <time>2020-03-08T18:54:18.326Z</time>
      </trkpt>
      <trkpt lat="44.67507" lon="3.03951">
        <ele>1151.64703</ele>
        <time>2020-03-08T18:54:38.103Z</time>
      </trkpt>
      <trkpt lat="44.67546" lon="3.03946">
        <ele>1149.764971</ele>
        <time>2020-03-08T18:54:41.691Z</time>
      </trkpt>
      <trkpt lat="44.67601" lon="3.03937">
        <ele>1145.704783</ele>
        <time>2020-03-08T18:54:46.662Z</time>
      </trkpt>
      <trkpt lat="44.67657" lon="3.03929">
        <ele>1141.530897</ele>
        <time>2020-03-08T18:54:51.688Z</time>
      </trkpt>
      <trkpt lat="44.67727" lon="3.03921">
        <ele>1136.356381</ele>
        <time>2020-03-08T18:54:57.848Z</time>
      </trkpt>
      <trkpt lat="44.67768" lon="3.03916">
        <ele>1133.126564</ele>
        <time>2020-03-08T18:55:01.451Z</time>
      </trkpt>
      <trkpt lat="44.67814" lon="3.03922">
        <ele>1129.466003</ele>
        <time>2020-03-08T18:55:05.526Z</time>
      </trkpt>
      <trkpt lat="44.67894" lon="3.03981">
        <ele>1122.350933</ele>
        <time>2020-03-08T18:55:13.533Z</time>
      </trkpt>
      <trkpt lat="44.67926" lon="3.03996">
        <ele>1120.112895</ele>
        <time>2020-03-08T18:55:16.603Z</time>
      </trkpt>
      <trkpt lat="44.68157" lon="3.04068">
        <ele>1105.663061</ele>
        <time>2020-03-08T18:55:38.184Z</time>
      </trkpt>
      <trkpt lat="44.68204" lon="3.04066">
        <ele>1103.034108</ele>
        <time>2020-03-08T18:55:42.646Z</time>
      </trkpt>
      <trkpt lat="44.68421" lon="3.03988">
        <ele>1091.522924</ele>
        <time>2020-03-08T18:56:03.799Z</time>
      </trkpt>
      <trkpt lat="44.68449" lon="3.03985">
        <ele>1090.107818</ele>
        <time>2020-03-08T18:56:06.392Z</time>
      </trkpt>
      <trkpt lat="44.68475" lon="3.03981">
        <ele>1088.773615</ele>
        <time>2020-03-08T18:56:08.824Z</time>
      </trkpt>
      <trkpt lat="44.68626" lon="3.03956">
        <ele>1081.561863</ele>
        <time>2020-03-08T18:56:23.078Z</time>
      </trkpt>
      <trkpt lat="44.6868" lon="3.03935">
        <ele>1079.783384</ele>
        <time>2020-03-08T18:56:28.684Z</time>
      </trkpt>
      <trkpt lat="44.68706" lon="3.0392">
        <ele>1078.88716</ele>
        <time>2020-03-08T18:56:31.543Z</time>
      </trkpt>
      <trkpt lat="44.6873" lon="3.03898">
        <ele>1077.959541</ele>
        <time>2020-03-08T18:56:34.610Z</time>
      </trkpt>
      <trkpt lat="44.6881" lon="3.03808">
        <ele>1075.884199</ele>
        <time>2020-03-08T18:56:45.957Z</time>
      </trkpt>
      <trkpt lat="44.68849" lon="3.03747">
        <ele>1075.143451</ele>
        <time>2020-03-08T18:56:53.064Z</time>
      </trkpt>
      <trkpt lat="44.68876" lon="3.03716">
        <ele>1074.689776</ele>
        <time>2020-03-08T18:56:57.538Z</time>
      </trkpt>
      <trkpt lat="44.68907" lon="3.03698">
        <ele>1074.284449</ele>
        <time>2020-03-08T18:57:01.748Z</time>
      </trkpt>
      <trkpt lat="44.68964" lon="3.03688">
        <ele>1073.70207</ele>
        <time>2020-03-08T18:57:08.871Z</time>
      </trkpt>
      <trkpt lat="44.69054" lon="3.03617">
        <ele>1072.651123</ele>
        <time>2020-03-08T18:57:21.402Z</time>
      </trkpt>
      <trkpt lat="44.69081" lon="3.03604">
        <ele>1072.306553</ele>
        <time>2020-03-08T18:57:24.834Z</time>
      </trkpt>
      <trkpt lat="44.69138" lon="3.03586">
        <ele>1071.548303</ele>
        <time>2020-03-08T18:57:31.537Z</time>
      </trkpt>
      <trkpt lat="44.69164" lon="3.03579">
        <ele>1071.198853</ele>
        <time>2020-03-08T18:57:34.595Z</time>
      </trkpt>
      <trkpt lat="44.69229" lon="3.0357">
        <ele>1070.341577</ele>
        <time>2020-03-08T18:57:42.293Z</time>
      </trkpt>
      <trkpt lat="44.69258" lon="3.03568">
        <ele>1070.08654</ele>
        <time>2020-03-08T18:57:45.649Z</time>
      </trkpt>
      <trkpt lat="44.69286" lon="3.03564">
        <ele>1069.913053</ele>
        <time>2020-03-08T18:57:48.940Z</time>
      </trkpt>
      <trkpt lat="44.69314" lon="3.03551">
        <ele>1069.730175</ele>
        <time>2020-03-08T18:57:52.560Z</time>
      </trkpt>
      <trkpt lat="44.69339" lon="3.03523">
        <ele>1069.529188</ele>
        <time>2020-03-08T18:57:56.770Z</time>
      </trkpt>
      <trkpt lat="44.69352" lon="3.03509">
        <ele>1069.432438</ele>
        <time>2020-03-08T18:57:58.822Z</time>
      </trkpt>
      <trkpt lat="44.69364" lon="3.035">
        <ele>1069.343983</ele>
        <time>2020-03-08T18:58:00.837Z</time>
      </trkpt>
      <trkpt lat="44.69371" lon="3.0349">
        <ele>1069.284</ele>
        <time>2020-03-08T18:58:02.355Z</time>
      </trkpt>
      <trkpt lat="44.69376" lon="3.03494">
        <ele>1069.249105</ele>
        <time>2020-03-08T18:58:03.035Z</time>
      </trkpt>
      <trkpt lat="44.69426" lon="3.03525">
        <ele>1069.144966</ele>
        <time>2020-03-08T18:58:12.021Z</time>
      </trkpt>
      <trkpt lat="44.69429" lon="3.03526">
        <ele>1069.151738</ele>
        <time>2020-03-08T18:58:12.609Z</time>
      </trkpt>
      <trkpt lat="44.69433" lon="3.03525">
        <ele>1069.159068</ele>
        <time>2020-03-08T18:58:13.196Z</time>
      </trkpt>
      <trkpt lat="44.69443" lon="3.03517">
        <ele>1069.183751</ele>
        <time>2020-03-08T18:58:14.892Z</time>
      </trkpt>
      <trkpt lat="44.69483" lon="3.03484">
        <ele>1069.28499</ele>
        <time>2020-03-08T18:58:22.660Z</time>
      </trkpt>
      <trkpt lat="44.69502" lon="3.0347">
        <ele>1069.329485</ele>
        <time>2020-03-08T18:58:25.934Z</time>
      </trkpt>
      <trkpt lat="44.69525" lon="3.03457">
        <ele>1069.38337</ele>
        <time>2020-03-08T18:58:29.876Z</time>
      </trkpt>
      <trkpt lat="44.69636" lon="3.03384">
        <ele>1069.268419</ele>
        <time>2020-03-08T18:58:48.381Z</time>
      </trkpt>
      <trkpt lat="44.69732" lon="3.03282">
        <ele>1068.944046</ele>
        <time>2020-03-08T18:59:04.215Z</time>
      </trkpt>
      <trkpt lat="44.69776" lon="3.03243">
        <ele>1068.75623</ele>
        <time>2020-03-08T18:59:11.125Z</time>
      </trkpt>
      <trkpt lat="44.69899" lon="3.03176">
        <ele>1068.258686</ele>
        <time>2020-03-08T18:59:29.340Z</time>
      </trkpt>
      <trkpt lat="44.70046" lon="3.03148">
        <ele>1067.638811</ele>
        <time>2020-03-08T18:59:49.586Z</time>
      </trkpt>
      <trkpt lat="44.70081" lon="3.03136">
        <ele>1067.382342</ele>
        <time>2020-03-08T18:59:54.331Z</time>
      </trkpt>
      <trkpt lat="44.70192" lon="3.03146">
        <ele>1066.552207</ele>
        <time>2020-03-08T19:00:08.264Z</time>
      </trkpt>
      <trkpt lat="44.70258" lon="3.03127">
        <ele>1066.03521</ele>
        <time>2020-03-08T19:00:16.594Z</time>
      </trkpt>
      <trkpt lat="44.70296" lon="3.03108">
        <ele>1065.720603</ele>
        <time>2020-03-08T19:00:21.615Z</time>
      </trkpt>
      <trkpt lat="44.7032" lon="3.03096">
        <ele>1065.521251</ele>
        <time>2020-03-08T19:00:24.803Z</time>
      </trkpt>
      <trkpt lat="44.7033" lon="3.03091">
        <ele>1065.434209</ele>
        <time>2020-03-08T19:00:26.241Z</time>
      </trkpt>
      <trkpt lat="44.70348" lon="3.03081">
        <ele>1065.288471</ele>
        <time>2020-03-08T19:00:28.586Z</time>
      </trkpt>
      <trkpt lat="44.70355" lon="3.03076">
        <ele>1065.226876</ele>
        <time>2020-03-08T19:00:29.587Z</time>
      </trkpt>
      <trkpt lat="44.70384" lon="3.03055">
        <ele>1064.968479</ele>
        <time>2020-03-08T19:00:33.806Z</time>
      </trkpt>
      <trkpt lat="44.7051" lon="3.02963">
        <ele>1064.120831</ele>
        <time>2020-03-08T19:00:52.383Z</time>
      </trkpt>
      <trkpt lat="44.70544" lon="3.02947">
        <ele>1063.915075</ele>
        <time>2020-03-08T19:00:57.085Z</time>
      </trkpt>
      <trkpt lat="44.70566" lon="3.02926">
        <ele>1063.760914</ele>
        <time>2020-03-08T19:01:00.559Z</time>
      </trkpt>
      <trkpt lat="44.70605" lon="3.02857">
        <ele>1063.392823</ele>
        <time>2020-03-08T19:01:08.773Z</time>
      </trkpt>
      <trkpt lat="44.70619" lon="3.02842">
        <ele>1063.292067</ele>
        <time>2020-03-08T19:01:11.014Z</time>
      </trkpt>
      <trkpt lat="44.70723" lon="3.02798">
        <ele>1062.606895</ele>
        <time>2020-03-08T19:01:25.231Z</time>
      </trkpt>
      <trkpt lat="44.70819" lon="3.028">
        <ele>1061.810027</ele>
        <time>2020-03-08T19:01:37.292Z</time>
      </trkpt>
      <trkpt lat="44.70839" lon="3.0279">
        <ele>1061.633076</ele>
        <time>2020-03-08T19:01:39.875Z</time>
      </trkpt>
      <trkpt lat="44.70892" lon="3.02731">
        <ele>1061.168607</ele>
        <time>2020-03-08T19:01:48.008Z</time>
      </trkpt>
      <trkpt lat="44.70952" lon="3.02661">
        <ele>1060.820985</ele>
        <time>2020-03-08T19:01:57.955Z</time>
      </trkpt>
      <trkpt lat="44.7098" lon="3.02636">
        <ele>1060.675852</ele>
        <time>2020-03-08T19:02:02.400Z</time>
      </trkpt>
      <trkpt lat="44.7101" lon="3.02617">
        <ele>1060.528018</ele>
        <time>2020-03-08T19:02:07.237Z</time>
      </trkpt>
      <trkpt lat="44.71039" lon="3.02607">
        <ele>1060.660458</ele>
        <time>2020-03-08T19:02:11.942Z</time>
      </trkpt>
      <trkpt lat="44.71258" lon="3.02642">
        <ele>1063.048239</ele>
        <time>2020-03-08T19:02:55.238Z</time>
      </trkpt>
      <trkpt lat="44.71422" lon="3.02627">
        <ele>1065.212769</ele>
        <time>2020-03-08T19:03:28.560Z</time>
      </trkpt>
      <trkpt lat="44.71668" lon="3.02667">
        <ele>1068.291906</ele>
        <time>2020-03-08T19:04:18.601Z</time>
      </trkpt>
      <trkpt lat="44.7192" lon="3.0273">
        <ele>1070.235881</ele>
        <time>2020-03-08T19:05:03.359Z</time>
      </trkpt>
      <trkpt lat="44.71967" lon="3.02728">
        <ele>1070.412997</ele>
        <time>2020-03-08T19:05:11.295Z</time>
      </trkpt>
      <trkpt lat="44.7199" lon="3.02731">
        <ele>1070.498985</ele>
        <time>2020-03-08T19:05:15.005Z</time>
      </trkpt>
      <trkpt lat="44.72003" lon="3.02737">
        <ele>1070.552042</ele>
        <time>2020-03-08T19:05:17.384Z</time>
      </trkpt>
      <trkpt lat="44.72017" lon="3.02745">
        <ele>1070.607527</ele>
        <time>2020-03-08T19:05:19.831Z</time>
      </trkpt>
      <trkpt lat="44.72083" lon="3.02791">
        <ele>1070.887459</ele>
        <time>2020-03-08T19:05:31.763Z</time>
      </trkpt>
      <trkpt lat="44.72272" lon="3.02858">
        <ele>1071.208008</ele>
        <time>2020-03-08T19:06:01.778Z</time>
      </trkpt>
      <trkpt lat="44.72374" lon="3.02938">
        <ele>1071.080467</ele>
        <time>2020-03-08T19:06:19.059Z</time>
      </trkpt>
      <trkpt lat="44.72564" lon="3.03067">
        <ele>1070.193224</ele>
        <time>2020-03-08T19:06:47.850Z</time>
      </trkpt>
      <trkpt lat="44.72678" lon="3.03128">
        <ele>1068.260092</ele>
        <time>2020-03-08T19:07:02.103Z</time>
      </trkpt>
      <trkpt lat="44.72831" lon="3.03185">
        <ele>1064.837232</ele>
        <time>2020-03-08T19:07:18.828Z</time>
      </trkpt>
      <trkpt lat="44.72954" lon="3.03218">
        <ele>1061.88513</ele>
        <time>2020-03-08T19:07:31.849Z</time>
      </trkpt>
      <trkpt lat="44.73122" lon="3.03182">
        <ele>1059.228891</ele>
        <time>2020-03-08T19:07:51.123Z</time>
      </trkpt>
      <trkpt lat="44.73158" lon="3.0318">
        <ele>1059.235295</ele>
        <time>2020-03-08T19:07:56.045Z</time>
      </trkpt>
      <trkpt lat="44.73306" lon="3.03247">
        <ele>1059.360951</ele>
        <time>2020-03-08T19:08:22.334Z</time>
      </trkpt>
      <trkpt lat="44.734" lon="3.03321">
        <ele>1059.725173</ele>
        <time>2020-03-08T19:08:41.221Z</time>
      </trkpt>
      <trkpt lat="44.73407" lon="3.03328">
        <ele>1059.75322</ele>
        <time>2020-03-08T19:08:42.509Z</time>
      </trkpt>
      <trkpt lat="44.73446" lon="3.03366">
        <ele>1059.699186</ele>
        <time>2020-03-08T19:08:49.759Z</time>
      </trkpt>
      <trkpt lat="44.7375" lon="3.03513">
        <ele>1054.693118</ele>
        <time>2020-03-08T19:09:26.634Z</time>
      </trkpt>
      <trkpt lat="44.73784" lon="3.03533">
        <ele>1053.846664</ele>
        <time>2020-03-08T19:09:30.352Z</time>
      </trkpt>
      <trkpt lat="44.738" lon="3.0356">
        <ele>1053.082941</ele>
        <time>2020-03-08T19:09:32.934Z</time>
      </trkpt>
      <trkpt lat="44.73809" lon="3.03583">
        <ele>1052.513193</ele>
        <time>2020-03-08T19:09:34.734Z</time>
      </trkpt>
      <trkpt lat="44.73821" lon="3.03623">
        <ele>1051.592398</ele>
        <time>2020-03-08T19:09:37.737Z</time>
      </trkpt>
      <trkpt lat="44.73838" lon="3.03667">
        <ele>1050.509933</ele>
        <time>2020-03-08T19:09:41.305Z</time>
      </trkpt>
      <trkpt lat="44.73869" lon="3.03736">
        <ele>1048.754914</ele>
        <time>2020-03-08T19:09:47.386Z</time>
      </trkpt>
      <trkpt lat="44.739" lon="3.03791">
        <ele>1048.241452</ele>
        <time>2020-03-08T19:09:52.948Z</time>
      </trkpt>
      <trkpt lat="44.73905" lon="3.03798">
        <ele>1048.17216</ele>
        <time>2020-03-08T19:09:53.798Z</time>
      </trkpt>
      <trkpt lat="44.73913" lon="3.03811">
        <ele>1048.046273</ele>
        <time>2020-03-08T19:09:55.414Z</time>
      </trkpt>
      <trkpt lat="44.7392" lon="3.03819">
        <ele>1047.957093</ele>
        <time>2020-03-08T19:09:56.496Z</time>
      </trkpt>
      <trkpt lat="44.73948" lon="3.03853">
        <ele>1047.577769</ele>
        <time>2020-03-08T19:10:01.485Z</time>
      </trkpt>
      <trkpt lat="44.73972" lon="3.03876">
        <ele>1047.283635</ele>
        <time>2020-03-08T19:10:05.389Z</time>
      </trkpt>
      <trkpt lat="44.7398" lon="3.03883">
        <ele>1047.186005</ele>
        <time>2020-03-08T19:10:06.614Z</time>
      </trkpt>
      <trkpt lat="44.73989" lon="3.0389">
        <ele>1047.078914</ele>
        <time>2020-03-08T19:10:07.985Z</time>
      </trkpt>
      <trkpt lat="44.74" lon="3.03896">
        <ele>1046.959799</ele>
        <time>2020-03-08T19:10:09.706Z</time>
      </trkpt>
      <trkpt lat="44.74013" lon="3.03898">
        <ele>1046.857996</ele>
        <time>2020-03-08T19:10:11.474Z</time>
      </trkpt>
      <trkpt lat="44.74027" lon="3.03896">
        <ele>1046.75963</ele>
        <time>2020-03-08T19:10:13.519Z</time>
      </trkpt>
      <trkpt lat="44.74071" lon="3.03894">
        <ele>1046.458451</ele>
        <time>2020-03-08T19:10:19.899Z</time>
      </trkpt>
      <trkpt lat="44.74114" lon="3.03893">
        <ele>1046.158006</ele>
        <time>2020-03-08T19:10:25.565Z</time>
      </trkpt>
      <trkpt lat="44.74163" lon="3.03882">
        <ele>1045.816817</ele>
        <time>2020-03-08T19:10:31.545Z</time>
      </trkpt>
      <trkpt lat="44.74426" lon="3.03742">
        <ele>1042.019967</ele>
        <time>2020-03-08T19:11:04.112Z</time>
      </trkpt>
      <trkpt lat="44.74482" lon="3.03723">
        <ele>1041.215367</ele>
        <time>2020-03-08T19:11:10.785Z</time>
      </trkpt>
      <trkpt lat="44.74551" lon="3.0372">
        <ele>1040.392288</ele>
        <time>2020-03-08T19:11:18.812Z</time>
      </trkpt>
      <trkpt lat="44.74633" lon="3.03717">
        <ele>1039.673091</ele>
        <time>2020-03-08T19:11:28.687Z</time>
      </trkpt>
      <trkpt lat="44.74635" lon="3.03717">
        <ele>1039.652039</ele>
        <time>2020-03-08T19:11:28.995Z</time>
      </trkpt>
      <trkpt lat="44.74641" lon="3.03717">
        <ele>1039.599418</ele>
        <time>2020-03-08T19:11:29.671Z</time>
      </trkpt>
      <trkpt lat="44.74831" lon="3.03765">
        <ele>1038.898674</ele>
        <time>2020-03-08T19:11:56.515Z</time>
      </trkpt>
      <trkpt lat="44.74887" lon="3.03822">
        <ele>1038.767904</ele>
        <time>2020-03-08T19:12:07.757Z</time>
      </trkpt>
      <trkpt lat="44.749" lon="3.03828">
        <ele>1038.722207</ele>
        <time>2020-03-08T19:12:09.645Z</time>
      </trkpt>
      <trkpt lat="44.74916" lon="3.03828">
        <ele>1038.667512</ele>
        <time>2020-03-08T19:12:12.395Z</time>
      </trkpt>
      <trkpt lat="44.74972" lon="3.03814">
        <ele>1038.478663</ele>
        <time>2020-03-08T19:12:20.061Z</time>
      </trkpt>
      <trkpt lat="44.75021" lon="3.03764">
        <ele>1038.272874</ele>
        <time>2020-03-08T19:12:28.175Z</time>
      </trkpt>
      <trkpt lat="44.75117" lon="3.03635">
        <ele>1037.014158</ele>
        <time>2020-03-08T19:12:44.008Z</time>
      </trkpt>
      <trkpt lat="44.7516" lon="3.03591">
        <ele>1036.476557</ele>
        <time>2020-03-08T19:12:50.508Z</time>
      </trkpt>
      <trkpt lat="44.75188" lon="3.0358">
        <ele>1036.211993</ele>
        <time>2020-03-08T19:12:54.306Z</time>
      </trkpt>
      <trkpt lat="44.75218" lon="3.03581">
        <ele>1035.951672</ele>
        <time>2020-03-08T19:12:58.045Z</time>
      </trkpt>
      <trkpt lat="44.75295" lon="3.03633">
        <ele>1035.191723</ele>
        <time>2020-03-08T19:13:08.999Z</time>
      </trkpt>
      <trkpt lat="44.75319" lon="3.03642">
        <ele>1034.973158</ele>
        <time>2020-03-08T19:13:12.290Z</time>
      </trkpt>
      <trkpt lat="44.75345" lon="3.03648">
        <ele>1034.612968</ele>
        <time>2020-03-08T19:13:15.359Z</time>
      </trkpt>
      <trkpt lat="44.75374" lon="3.03648">
        <ele>1033.960907</ele>
        <time>2020-03-08T19:13:18.682Z</time>
      </trkpt>
      <trkpt lat="44.75468" lon="3.03647">
        <ele>1031.852267</ele>
        <time>2020-03-08T19:13:28.952Z</time>
      </trkpt>
      <trkpt lat="44.75503" lon="3.03644">
        <ele>1031.0781</ele>
        <time>2020-03-08T19:13:32.395Z</time>
      </trkpt>
      <trkpt lat="44.75539" lon="3.03654">
        <ele>1030.090092</ele>
        <time>2020-03-08T19:13:36.052Z</time>
      </trkpt>
      <trkpt lat="44.75597" lon="3.03699">
        <ele>1028.135367</ele>
        <time>2020-03-08T19:13:42.747Z</time>
      </trkpt>
      <trkpt lat="44.75619" lon="3.03722">
        <ele>1027.327734</ele>
        <time>2020-03-08T19:13:45.556Z</time>
      </trkpt>
      <trkpt lat="44.7563" lon="3.03742">
        <ele>1026.804638</ele>
        <time>2020-03-08T19:13:47.300Z</time>
      </trkpt>
      <trkpt lat="44.7566" lon="3.03813">
        <ele>1025.340032</ele>
        <time>2020-03-08T19:13:53.634Z</time>
      </trkpt>
      <trkpt lat="44.75855" lon="3.04137">
        <ele>1021.932804</ele>
        <time>2020-03-08T19:14:30.882Z</time>
      </trkpt>
      <trkpt lat="44.75901" lon="3.04226">
        <ele>1020.884666</ele>
        <time>2020-03-08T19:14:40.194Z</time>
      </trkpt>
      <trkpt lat="44.76045" lon="3.04523">
        <ele>1016.738423</ele>
        <time>2020-03-08T19:15:08.643Z</time>
      </trkpt>
      <trkpt lat="44.76198" lon="3.04823">
        <ele>1013.729329</ele>
        <time>2020-03-08T19:15:40.545Z</time>
      </trkpt>
      <trkpt lat="44.76237" lon="3.04936">
        <ele>1013.228065</ele>
        <time>2020-03-08T19:15:51.855Z</time>
      </trkpt>
      <trkpt lat="44.7626" lon="3.04972">
        <ele>1013.033825</ele>
        <time>2020-03-08T19:15:56.626Z</time>
      </trkpt>
      <trkpt lat="44.7631" lon="3.05033">
        <ele>1012.762451</ele>
        <time>2020-03-08T19:16:05.908Z</time>
      </trkpt>
      <trkpt lat="44.7631" lon="3.05033">
        <ele>1012.762451</ele>
        <time>2020-03-08T19:16:05.961Z</time>
      </trkpt>
      <trkpt lat="44.7631" lon="3.05033">
        <ele>1012.762451</ele>
        <time>2020-03-08T19:16:05.965Z</time>
      </trkpt>
      <trkpt lat="44.76354" lon="3.05071">
        <ele>1012.704241</ele>
        <time>2020-03-08T19:16:13.324Z</time>
      </trkpt>
      <trkpt lat="44.76361" lon="3.05076">
        <ele>1012.694973</ele>
        <time>2020-03-08T19:16:14.720Z</time>
      </trkpt>
      <trkpt lat="44.76365" lon="3.05072">
        <ele>1012.688988</ele>
        <time>2020-03-08T19:16:15.403Z</time>
      </trkpt>
      <trkpt lat="44.76482" lon="3.04973">
        <ele>1012.525921</ele>
        <time>2020-03-08T19:16:35.577Z</time>
      </trkpt>
      <trkpt lat="44.76513" lon="3.04936">
        <ele>1012.470933</ele>
        <time>2020-03-08T19:16:41.192Z</time>
      </trkpt>
      <trkpt lat="44.76552" lon="3.04857">
        <ele>1012.377021</ele>
        <time>2020-03-08T19:16:50.794Z</time>
      </trkpt>
      <trkpt lat="44.76671" lon="3.04725">
        <ele>1012.139231</ele>
        <time>2020-03-08T19:17:12.130Z</time>
      </trkpt>
      <trkpt lat="44.76742" lon="3.04669">
        <ele>1012.045092</ele>
        <time>2020-03-08T19:17:23.924Z</time>
      </trkpt>
      <trkpt lat="44.76846" lon="3.04622">
        <ele>1012.033185</ele>
        <time>2020-03-08T19:17:39.985Z</time>
      </trkpt>
      <trkpt lat="44.76879" lon="3.04617">
        <ele>1012.029466</ele>
        <time>2020-03-08T19:17:45.108Z</time>
      </trkpt>
      <trkpt lat="44.76914" lon="3.0463">
        <ele>1011.97162</ele>
        <time>2020-03-08T19:17:50.525Z</time>
      </trkpt>
      <trkpt lat="44.7694" lon="3.04648">
        <ele>1011.904104</ele>
        <time>2020-03-08T19:17:55.014Z</time>
      </trkpt>
      <trkpt lat="44.76959" lon="3.04654">
        <ele>1011.860498</ele>
        <time>2020-03-08T19:17:57.840Z</time>
      </trkpt>
      <trkpt lat="44.76977" lon="3.04655">
        <ele>1011.818658</ele>
        <time>2020-03-08T19:18:00.647Z</time>
      </trkpt>
      <trkpt lat="44.77273" lon="3.04523">
        <ele>1011.165961</ele>
        <time>2020-03-08T19:18:41.546Z</time>
      </trkpt>
      <trkpt lat="44.77275" lon="3.04516">
        <ele>1011.230747</ele>
        <time>2020-03-08T19:18:42.510Z</time>
      </trkpt>
      <trkpt lat="44.77268" lon="3.04486">
        <ele>1011.492541</ele>
        <time>2020-03-08T19:18:45.678Z</time>
      </trkpt>
      <trkpt lat="44.77265" lon="3.04459">
        <ele>1011.715188</ele>
        <time>2020-03-08T19:18:49.466Z</time>
      </trkpt>
      <trkpt lat="44.7727" lon="3.04428">
        <ele>1011.983435</ele>
        <time>2020-03-08T19:18:54.117Z</time>
      </trkpt>
      <trkpt lat="44.7728" lon="3.04402">
        <ele>1012.227978</ele>
        <time>2020-03-08T19:18:57.736Z</time>
      </trkpt>
      <trkpt lat="44.77294" lon="3.04401">
        <ele>1012.385742</ele>
        <time>2020-03-08T19:19:01.796Z</time>
      </trkpt>
      <trkpt lat="44.77333" lon="3.04412">
        <ele>1013.120557</ele>
        <time>2020-03-08T19:19:11.915Z</time>
      </trkpt>
      <trkpt lat="44.77353" lon="3.04439">
        <ele>1014.547925</ele>
        <time>2020-03-08T19:19:19.203Z</time>
      </trkpt>
      <trkpt lat="44.77382" lon="3.04478">
        <ele>1016.618254</ele>
        <time>2020-03-08T19:19:33.680Z</time>
      </trkpt>
      <trkpt lat="44.77518" lon="3.04549">
        <ele>1023.93682</ele>
        <time>2020-03-08T19:20:31.580Z</time>
      </trkpt>
      <trkpt lat="44.77612" lon="3.04608">
        <ele>1028.70932</ele>
        <time>2020-03-08T19:21:06.257Z</time>
      </trkpt>
      <trkpt lat="44.77642" lon="3.04641">
        <ele>1030.43886</ele>
        <time>2020-03-08T19:21:16.869Z</time>
      </trkpt>
      <trkpt lat="44.7766" lon="3.04677">
        <ele>1030.842772</ele>
        <time>2020-03-08T19:21:24.860Z</time>
      </trkpt>
      <trkpt lat="44.77679" lon="3.04744">
        <ele>1031.486533</ele>
        <time>2020-03-08T19:21:36.391Z</time>
      </trkpt>
      <trkpt lat="44.7775" lon="3.04906">
        <ele>1032.257771</ele>
        <time>2020-03-08T19:21:57.799Z</time>
      </trkpt>
      <trkpt lat="44.77762" lon="3.04955">
        <ele>1031.815531</ele>
        <time>2020-03-08T19:22:02.351Z</time>
      </trkpt>
      <trkpt lat="44.77767" lon="3.04994">
        <ele>1031.486941</ele>
        <time>2020-03-08T19:22:05.608Z</time>
      </trkpt>
      <trkpt lat="44.77777" lon="3.05012">
        <ele>1031.293647</ele>
        <time>2020-03-08T19:22:07.486Z</time>
      </trkpt>
      <trkpt lat="44.77932" lon="3.05109">
        <ele>1028.219289</ele>
        <time>2020-03-08T19:22:25.854Z</time>
      </trkpt>
      <trkpt lat="44.78" lon="3.05135">
        <ele>1026.703191</ele>
        <time>2020-03-08T19:22:33.432Z</time>
      </trkpt>
      <trkpt lat="44.78063" lon="3.05139">
        <ele>1026.508454</ele>
        <time>2020-03-08T19:22:40.340Z</time>
      </trkpt>
      <trkpt lat="44.78111" lon="3.05123">
        <ele>1026.354592</ele>
        <time>2020-03-08T19:22:46.532Z</time>
      </trkpt>
      <trkpt lat="44.78133" lon="3.05124">
        <ele>1026.286059</ele>
        <time>2020-03-08T19:22:50.838Z</time>
      </trkpt>
      <trkpt lat="44.78146" lon="3.05142">
        <ele>1026.229003</ele>
        <time>2020-03-08T19:22:54.028Z</time>
      </trkpt>
      <trkpt lat="44.78147" lon="3.0517">
        <ele>1026.167543</ele>
        <time>2020-03-08T19:22:58.599Z</time>
      </trkpt>
      <trkpt lat="44.78116" lon="3.05232">
        <ele>1027.675696</ele>
        <time>2020-03-08T19:23:11.014Z</time>
      </trkpt>
      <trkpt lat="44.78094" lon="3.05264">
        <ele>1028.731162</ele>
        <time>2020-03-08T19:23:19.718Z</time>
      </trkpt>
      <trkpt lat="44.78079" lon="3.05286">
        <ele>1029.434588</ele>
        <time>2020-03-08T19:23:26.264Z</time>
      </trkpt>
      <trkpt lat="44.78071" lon="3.05307">
        <ele>1030.00053</ele>
        <time>2020-03-08T19:23:30.882Z</time>
      </trkpt>
      <trkpt lat="44.78056" lon="3.05387">
        <ele>1031.939824</ele>
        <time>2020-03-08T19:23:49.633Z</time>
      </trkpt>
      <trkpt lat="44.78055" lon="3.054">
        <ele>1032.350439</ele>
        <time>2020-03-08T19:23:52.622Z</time>
      </trkpt>
      <trkpt lat="44.78066" lon="3.05432">
        <ele>1033.652513</ele>
        <time>2020-03-08T19:24:01.611Z</time>
      </trkpt>
      <trkpt lat="44.7808" lon="3.05445">
        <ele>1034.531834</ele>
        <time>2020-03-08T19:24:07.336Z</time>
      </trkpt>
      <trkpt lat="44.78092" lon="3.05447">
        <ele>1035.133071</ele>
        <time>2020-03-08T19:24:11.685Z</time>
      </trkpt>
      <trkpt lat="44.78163" lon="3.05446">
        <ele>1038.847239</ele>
        <time>2020-03-08T19:24:35.784Z</time>
      </trkpt>
      <trkpt lat="44.78227" lon="3.05453">
        <ele>1042.320299</ele>
        <time>2020-03-08T19:25:00.842Z</time>
      </trkpt>
      <trkpt lat="44.78247" lon="3.05456">
        <ele>1043.495918</ele>
        <time>2020-03-08T19:25:09.381Z</time>
      </trkpt>
      <trkpt lat="44.78279" lon="3.05471">
        <ele>1045.568199</ele>
        <time>2020-03-08T19:25:23.067Z</time>
      </trkpt>
      <trkpt lat="44.78294" lon="3.05492">
        <ele>1046.806292</ele>
        <time>2020-03-08T19:25:30.396Z</time>
      </trkpt>
      <trkpt lat="44.78295" lon="3.05494">
        <ele>1046.956027</ele>
        <time>2020-03-08T19:25:32.335Z</time>
      </trkpt>
      <trkpt lat="44.78311" lon="3.05533">
        <ele>1048.846964</ele>
        <time>2020-03-08T19:25:44.519Z</time>
      </trkpt>
      <trkpt lat="44.78343" lon="3.05625">
        <ele>1052.918107</ele>
        <time>2020-03-08T19:26:12.617Z</time>
      </trkpt>
      <trkpt lat="44.78374" lon="3.05663">
        <ele>1054.573469</ele>
        <time>2020-03-08T19:26:27.747Z</time>
      </trkpt>
      <trkpt lat="44.78406" lon="3.05691">
        <ele>1056.092044</ele>
        <time>2020-03-08T19:26:39.413Z</time>
      </trkpt>
      <trkpt lat="44.78497" lon="3.05842">
        <ele>1061.491304</ele>
        <time>2020-03-08T19:27:16.037Z</time>
      </trkpt>
      <trkpt lat="44.78533" lon="3.05875">
        <ele>1063.028042</ele>
        <time>2020-03-08T19:27:27.324Z</time>
      </trkpt>
      <trkpt lat="44.78591" lon="3.05903">
        <ele>1065.190716</ele>
        <time>2020-03-08T19:27:45.454Z</time>
      </trkpt>
      <trkpt lat="44.78657" lon="3.05973">
        <ele>1069.94351</ele>
        <time>2020-03-08T19:28:15.322Z</time>
      </trkpt>
      <trkpt lat="44.78684" lon="3.06024">
        <ele>1072.869718</ele>
        <time>2020-03-08T19:28:33.981Z</time>
      </trkpt>
      <trkpt lat="44.78706" lon="3.06049">
        <ele>1074.665049</ele>
        <time>2020-03-08T19:28:46.102Z</time>
      </trkpt>
      <trkpt lat="44.78783" lon="3.06105">
        <ele>1080.799275</ele>
        <time>2020-03-08T19:29:26.824Z</time>
      </trkpt>
      <trkpt lat="44.78851" lon="3.06181">
        <ele>1087.464131</ele>
        <time>2020-03-08T19:30:07.876Z</time>
      </trkpt>
      <trkpt lat="44.78901" lon="3.06246">
        <ele>1092.298304</ele>
        <time>2020-03-08T19:30:37.924Z</time>
      </trkpt>
      <trkpt lat="44.78977" lon="3.06368">
        <ele>1098.562114</ele>
        <time>2020-03-08T19:31:21.352Z</time>
      </trkpt>
      <trkpt lat="44.79006" lon="3.06437">
        <ele>1101.400389</ele>
        <time>2020-03-08T19:31:39.065Z</time>
      </trkpt>
      <trkpt lat="44.79068" lon="3.06642">
        <ele>1105.988194</ele>
        <time>2020-03-08T19:32:20.883Z</time>
      </trkpt>
      <trkpt lat="44.79088" lon="3.06689">
        <ele>1106.502855</ele>
        <time>2020-03-08T19:32:29.266Z</time>
      </trkpt>
      <trkpt lat="44.79111" lon="3.06729">
        <ele>1106.738287</ele>
        <time>2020-03-08T19:32:36.668Z</time>
      </trkpt>
      <trkpt lat="44.7913" lon="3.06751">
        <ele>1106.896163</ele>
        <time>2020-03-08T19:32:41.326Z</time>
      </trkpt>
      <trkpt lat="44.79169" lon="3.06786">
        <ele>1107.188976</ele>
        <time>2020-03-08T19:32:48.818Z</time>
      </trkpt>
      <trkpt lat="44.79218" lon="3.06811">
        <ele>1107.345702</ele>
        <time>2020-03-08T19:32:56.094Z</time>
      </trkpt>
      <trkpt lat="44.7928" lon="3.06827">
        <ele>1106.050872</ele>
        <time>2020-03-08T19:33:03.059Z</time>
      </trkpt>
      <trkpt lat="44.79307" lon="3.0684">
        <ele>1105.457675</ele>
        <time>2020-03-08T19:33:06.180Z</time>
      </trkpt>
      <trkpt lat="44.79331" lon="3.06867">
        <ele>1104.828419</ele>
        <time>2020-03-08T19:33:09.442Z</time>
      </trkpt>
      <trkpt lat="44.79345" lon="3.069">
        <ele>1104.244489</ele>
        <time>2020-03-08T19:33:12.479Z</time>
      </trkpt>
      <trkpt lat="44.79351" lon="3.06927">
        <ele>1103.834761</ele>
        <time>2020-03-08T19:33:14.471Z</time>
      </trkpt>
      <trkpt lat="44.79351" lon="3.071">
        <ele>1098.729251</ele>
        <time>2020-03-08T19:33:26.741Z</time>
      </trkpt>
      <trkpt lat="44.79357" lon="3.07156">
        <ele>1097.047725</ele>
        <time>2020-03-08T19:33:30.490Z</time>
      </trkpt>
      <trkpt lat="44.79376" lon="3.07247">
        <ele>1092.86143</ele>
        <time>2020-03-08T19:33:36.766Z</time>
      </trkpt>
      <trkpt lat="44.7942" lon="3.07369">
        <ele>1085.976044</ele>
        <time>2020-03-08T19:33:45.422Z</time>
      </trkpt>
      <trkpt lat="44.79456" lon="3.07488">
        <ele>1079.96244</ele>
        <time>2020-03-08T19:33:53.515Z</time>
      </trkpt>
      <trkpt lat="44.79474" lon="3.07532">
        <ele>1077.686092</ele>
        <time>2020-03-08T19:33:56.798Z</time>
      </trkpt>
      <trkpt lat="44.79487" lon="3.07576">
        <ele>1075.567274</ele>
        <time>2020-03-08T19:33:59.882Z</time>
      </trkpt>
      <trkpt lat="44.79487" lon="3.0762">
        <ele>1073.606147</ele>
        <time>2020-03-08T19:34:02.780Z</time>
      </trkpt>
      <trkpt lat="44.79451" lon="3.07756">
        <ele>1069.949197</ele>
        <time>2020-03-08T19:34:13.160Z</time>
      </trkpt>
      <trkpt lat="44.79446" lon="3.078">
        <ele>1069.078965</ele>
        <time>2020-03-08T19:34:16.685Z</time>
      </trkpt>
      <trkpt lat="44.79433" lon="3.07854">
        <ele>1067.944782</ele>
        <time>2020-03-08T19:34:21.385Z</time>
      </trkpt>
      <trkpt lat="44.79418" lon="3.07897">
        <ele>1066.913764</ele>
        <time>2020-03-08T19:34:25.063Z</time>
      </trkpt>
      <trkpt lat="44.79417" lon="3.07931">
        <ele>1065.862866</ele>
        <time>2020-03-08T19:34:27.614Z</time>
      </trkpt>
      <trkpt lat="44.79429" lon="3.07965">
        <ele>1064.680824</ele>
        <time>2020-03-08T19:34:30.381Z</time>
      </trkpt>
      <trkpt lat="44.79478" lon="3.08056">
        <ele>1061.144823</ele>
        <time>2020-03-08T19:34:38.237Z</time>
      </trkpt>
      <trkpt lat="44.79491" lon="3.08101">
        <ele>1059.651513</ele>
        <time>2020-03-08T19:34:41.382Z</time>
      </trkpt>
      <trkpt lat="44.79519" lon="3.08251">
        <ele>1052.376545</ele>
        <time>2020-03-08T19:34:51.241Z</time>
      </trkpt>
      <trkpt lat="44.79524" lon="3.083">
        <ele>1049.996626</ele>
        <time>2020-03-08T19:34:54.388Z</time>
      </trkpt>
      <trkpt lat="44.79518" lon="3.08325">
        <ele>1048.729867</ele>
        <time>2020-03-08T19:34:56.078Z</time>
      </trkpt>
      <trkpt lat="44.7947" lon="3.08384">
        <ele>1045.312485</ele>
        <time>2020-03-08T19:35:01.868Z</time>
      </trkpt>
      <trkpt lat="44.79462" lon="3.08404">
        <ele>1044.531865</ele>
        <time>2020-03-08T19:35:03.450Z</time>
      </trkpt>
      <trkpt lat="44.79455" lon="3.08422">
        <ele>1043.858291</ele>
        <time>2020-03-08T19:35:04.832Z</time>
      </trkpt>
      <trkpt lat="44.79412" lon="3.08527">
        <ele>1039.909066</ele>
        <time>2020-03-08T19:35:13.165Z</time>
      </trkpt>
      <trkpt lat="44.79397" lon="3.08557">
        <ele>1038.79614</ele>
        <time>2020-03-08T19:35:15.822Z</time>
      </trkpt>
      <trkpt lat="44.79338" lon="3.0862">
        <ele>1037.540389</ele>
        <time>2020-03-08T19:35:23.505Z</time>
      </trkpt>
      <trkpt lat="44.79241" lon="3.08749">
        <ele>1036.442926</ele>
        <time>2020-03-08T19:35:40.038Z</time>
      </trkpt>
      <trkpt lat="44.79241" lon="3.08775">
        <ele>1036.839865</ele>
        <time>2020-03-08T19:35:43.405Z</time>
      </trkpt>
      <trkpt lat="44.79248" lon="3.088">
        <ele>1037.244432</ele>
        <time>2020-03-08T19:35:47.067Z</time>
      </trkpt>
      <trkpt lat="44.79264" lon="3.08821">
        <ele>1037.720543</ele>
        <time>2020-03-08T19:35:51.921Z</time>
      </trkpt>
      <trkpt lat="44.79277" lon="3.0882">
        <ele>1038.009106</ele>
        <time>2020-03-08T19:35:55.007Z</time>
      </trkpt>
      <trkpt lat="44.79372" lon="3.08758">
        <ele>1041.601918</ele>
        <time>2020-03-08T19:36:27.061Z</time>
      </trkpt>
      <trkpt lat="44.794" lon="3.08751">
        <ele>1043.511375</ele>
        <time>2020-03-08T19:36:38.005Z</time>
      </trkpt>
      <trkpt lat="44.79439" lon="3.08766">
        <ele>1046.323122</ele>
        <time>2020-03-08T19:36:55.410Z</time>
      </trkpt>
      <trkpt lat="44.79485" lon="3.08817">
        <ele>1050.373733</ele>
        <time>2020-03-08T19:37:22.746Z</time>
      </trkpt>
      <trkpt lat="44.79507" lon="3.08829">
        <ele>1052.002539</ele>
        <time>2020-03-08T19:37:34.402Z</time>
      </trkpt>
      <trkpt lat="44.79594" lon="3.0886">
        <ele>1060.098039</ele>
        <time>2020-03-08T19:38:21.539Z</time>
      </trkpt>
      <trkpt lat="44.79703" lon="3.08923">
        <ele>1070.298974</ele>
        <time>2020-03-08T19:39:22.150Z</time>
      </trkpt>
      <trkpt lat="44.79754" lon="3.0894">
        <ele>1074.102502</ele>
        <time>2020-03-08T19:39:46.084Z</time>
      </trkpt>
      <trkpt lat="44.79796" lon="3.0897">
        <ele>1077.568904</ele>
        <time>2020-03-08T19:40:06.441Z</time>
      </trkpt>
      <trkpt lat="44.79857" lon="3.08997">
        <ele>1082.086973</ele>
        <time>2020-03-08T19:40:31.827Z</time>
      </trkpt>
      <trkpt lat="44.79948" lon="3.09074">
        <ele>1088.124178</ele>
        <time>2020-03-08T19:41:11.512Z</time>
      </trkpt>
      <trkpt lat="44.79974" lon="3.09122">
        <ele>1090.521671</ele>
        <time>2020-03-08T19:41:27.704Z</time>
      </trkpt>
      <trkpt lat="44.79987" lon="3.09174">
        <ele>1092.54212</ele>
        <time>2020-03-08T19:41:41.918Z</time>
      </trkpt>
      <trkpt lat="44.7999" lon="3.09224">
        <ele>1094.21448</ele>
        <time>2020-03-08T19:41:54.511Z</time>
      </trkpt>
      <trkpt lat="44.7999" lon="3.09273">
        <ele>1095.832755</ele>
        <time>2020-03-08T19:42:06.330Z</time>
      </trkpt>
      <trkpt lat="44.79995" lon="3.09356">
        <ele>1098.552165</ele>
        <time>2020-03-08T19:42:25.307Z</time>
      </trkpt>
      <trkpt lat="44.80001" lon="3.09411">
        <ele>1100.205219</ele>
        <time>2020-03-08T19:42:37.868Z</time>
      </trkpt>
      <trkpt lat="44.80022" lon="3.0949">
        <ele>1101.430775</ele>
        <time>2020-03-08T19:42:55.645Z</time>
      </trkpt>
      <trkpt lat="44.80109" lon="3.09717">
        <ele>1102.294706</ele>
        <time>2020-03-08T19:43:29.399Z</time>
      </trkpt>
      <trkpt lat="44.80118" lon="3.09738">
        <ele>1101.944272</ele>
        <time>2020-03-08T19:43:31.322Z</time>
      </trkpt>
      <trkpt lat="44.80172" lon="3.09859">
        <ele>1099.624093</ele>
        <time>2020-03-08T19:43:41.280Z</time>
      </trkpt>
      <trkpt lat="44.80192" lon="3.0992">
        <ele>1097.142252</ele>
        <time>2020-03-08T19:43:45.724Z</time>
      </trkpt>
      <trkpt lat="44.8021" lon="3.10009">
        <ele>1093.770699</ele>
        <time>2020-03-08T19:43:51.769Z</time>
      </trkpt>
      <trkpt lat="44.80212" lon="3.10043">
        <ele>1092.504374</ele>
        <time>2020-03-08T19:43:54.040Z</time>
      </trkpt>
      <trkpt lat="44.80207" lon="3.10108">
        <ele>1090.30376</ele>
        <time>2020-03-08T19:43:58.493Z</time>
      </trkpt>
      <trkpt lat="44.80199" lon="3.10179">
        <ele>1088.327269</ele>
        <time>2020-03-08T19:44:03.449Z</time>
      </trkpt>
      <trkpt lat="44.80203" lon="3.10206">
        <ele>1087.599791</ele>
        <time>2020-03-08T19:44:05.317Z</time>
      </trkpt>
      <trkpt lat="44.80219" lon="3.10235">
        <ele>1086.566394</ele>
        <time>2020-03-08T19:44:07.910Z</time>
      </trkpt>
      <trkpt lat="44.80272" lon="3.10288">
        <ele>1084.092404</ele>
        <time>2020-03-08T19:44:14.537Z</time>
      </trkpt>
      <trkpt lat="44.80295" lon="3.10296">
        <ele>1083.276233</ele>
        <time>2020-03-08T19:44:16.944Z</time>
      </trkpt>
      <trkpt lat="44.80554" lon="3.10312">
        <ele>1074.280448</ele>
        <time>2020-03-08T19:44:42.968Z</time>
      </trkpt>
      <trkpt lat="44.80579" lon="3.10322">
        <ele>1073.344818</ele>
        <time>2020-03-08T19:44:45.515Z</time>
      </trkpt>
      <trkpt lat="44.806" lon="3.10339">
        <ele>1072.450396</ele>
        <time>2020-03-08T19:44:47.933Z</time>
      </trkpt>
      <trkpt lat="44.80625" lon="3.10372">
        <ele>1071.177572</ele>
        <time>2020-03-08T19:44:51.280Z</time>
      </trkpt>
      <trkpt lat="44.80639" lon="3.10404">
        <ele>1069.945543</ele>
        <time>2020-03-08T19:44:53.869Z</time>
      </trkpt>
      <trkpt lat="44.80646" lon="3.10459">
        <ele>1068.106201</ele>
        <time>2020-03-08T19:44:57.706Z</time>
      </trkpt>
      <trkpt lat="44.80638" lon="3.10628">
        <ele>1062.3581</ele>
        <time>2020-03-08T19:45:09.187Z</time>
      </trkpt>
      <trkpt lat="44.80637" lon="3.10757">
        <ele>1056.65427</ele>
        <time>2020-03-08T19:45:17.435Z</time>
      </trkpt>
      <trkpt lat="44.80641" lon="3.10806">
        <ele>1054.42758</ele>
        <time>2020-03-08T19:45:20.660Z</time>
      </trkpt>
      <trkpt lat="44.80654" lon="3.10838">
        <ele>1052.806072</ele>
        <time>2020-03-08T19:45:23.017Z</time>
      </trkpt>
      <trkpt lat="44.80671" lon="3.10853">
        <ele>1051.56666</ele>
        <time>2020-03-08T19:45:24.884Z</time>
      </trkpt>
      <trkpt lat="44.80684" lon="3.10862">
        <ele>1050.915431</ele>
        <time>2020-03-08T19:45:26.143Z</time>
      </trkpt>
      <trkpt lat="44.80755" lon="3.10918">
        <ele>1047.071199</ele>
        <time>2020-03-08T19:45:33.683Z</time>
      </trkpt>
      <trkpt lat="44.8096" lon="3.11129">
        <ele>1037.259247</ele>
        <time>2020-03-08T19:45:59.183Z</time>
      </trkpt>
      <trkpt lat="44.80971" lon="3.1115">
        <ele>1036.525302</ele>
        <time>2020-03-08T19:46:01.055Z</time>
      </trkpt>
      <trkpt lat="44.8098" lon="3.11202">
        <ele>1034.864159</ele>
        <time>2020-03-08T19:46:04.859Z</time>
      </trkpt>
      <trkpt lat="44.80981" lon="3.11245">
        <ele>1033.521003</ele>
        <time>2020-03-08T19:46:07.875Z</time>
      </trkpt>
      <trkpt lat="44.80988" lon="3.11286">
        <ele>1032.200361</ele>
        <time>2020-03-08T19:46:10.800Z</time>
      </trkpt>
      <trkpt lat="44.81015" lon="3.11325">
        <ele>1030.524022</ele>
        <time>2020-03-08T19:46:14.441Z</time>
      </trkpt>
      <trkpt lat="44.81061" lon="3.11337">
        <ele>1028.163877</ele>
        <time>2020-03-08T19:46:18.833Z</time>
      </trkpt>
      <trkpt lat="44.81171" lon="3.11348">
        <ele>1021.040926</ele>
        <time>2020-03-08T19:46:28.861Z</time>
      </trkpt>
      <trkpt lat="44.81261" lon="3.11317">
        <ele>1014.629403</ele>
        <time>2020-03-08T19:46:37.160Z</time>
      </trkpt>
      <trkpt lat="44.81278" lon="3.11311">
        <ele>1013.36059</ele>
        <time>2020-03-08T19:46:38.626Z</time>
      </trkpt>
      <trkpt lat="44.81319" lon="3.11296">
        <ele>1010.115106</ele>
        <time>2020-03-08T19:46:42.458Z</time>
      </trkpt>
      <trkpt lat="44.81385" lon="3.11296">
        <ele>1005.126285</ele>
        <time>2020-03-08T19:46:48.335Z</time>
      </trkpt>
      <trkpt lat="44.81421" lon="3.11292">
        <ele>1002.487116</ele>
        <time>2020-03-08T19:46:51.466Z</time>
      </trkpt>
      <trkpt lat="44.81543" lon="3.1125">
        <ele>993.168212</ele>
        <time>2020-03-08T19:47:02.771Z</time>
      </trkpt>
      <trkpt lat="44.81609" lon="3.11232">
        <ele>988.21478</ele>
        <time>2020-03-08T19:47:08.684Z</time>
      </trkpt>
      <trkpt lat="44.81613" lon="3.11231">
        <ele>987.853617</ele>
        <time>2020-03-08T19:47:09.116Z</time>
      </trkpt>
      <trkpt lat="44.8166" lon="3.11229">
        <ele>984.305579</ele>
        <time>2020-03-08T19:47:13.245Z</time>
      </trkpt>
      <trkpt lat="44.81734" lon="3.11224">
        <ele>978.704779</ele>
        <time>2020-03-08T19:47:19.788Z</time>
      </trkpt>
      <trkpt lat="44.81772" lon="3.11195">
        <ele>975.822312</ele>
        <time>2020-03-08T19:47:23.682Z</time>
      </trkpt>
      <trkpt lat="44.81789" lon="3.112">
        <ele>974.785263</ele>
        <time>2020-03-08T19:47:25.285Z</time>
      </trkpt>
      <trkpt lat="44.81785" lon="3.1122">
        <ele>973.895533</ele>
        <time>2020-03-08T19:47:26.681Z</time>
      </trkpt>
      <trkpt lat="44.81764" lon="3.11252">
        <ele>972.078821</ele>
        <time>2020-03-08T19:47:29.529Z</time>
      </trkpt>
      <trkpt lat="44.81737" lon="3.11278">
        <ele>970.137201</ele>
        <time>2020-03-08T19:47:32.546Z</time>
      </trkpt>
      <trkpt lat="44.81714" lon="3.11299">
        <ele>968.547218</ele>
        <time>2020-03-08T19:47:35.051Z</time>
      </trkpt>
      <trkpt lat="44.817" lon="3.11316">
        <ele>967.458733</ele>
        <time>2020-03-08T19:47:36.790Z</time>
      </trkpt>
      <trkpt lat="44.81687" lon="3.1134">
        <ele>966.470396</ele>
        <time>2020-03-08T19:47:38.784Z</time>
      </trkpt>
      <trkpt lat="44.81681" lon="3.11381">
        <ele>966.03043</ele>
        <time>2020-03-08T19:47:41.850Z</time>
      </trkpt>
      <trkpt lat="44.81688" lon="3.11455">
        <ele>965.247167</ele>
        <time>2020-03-08T19:47:48.087Z</time>
      </trkpt>
      <trkpt lat="44.81692" lon="3.11515">
        <ele>964.621093</ele>
        <time>2020-03-08T19:47:54.822Z</time>
      </trkpt>
      <trkpt lat="44.81694" lon="3.11535">
        <ele>964.410164</ele>
        <time>2020-03-08T19:47:57.678Z</time>
      </trkpt>
      <trkpt lat="44.81695" lon="3.11544">
        <ele>964.306021</ele>
        <time>2020-03-08T19:47:58.918Z</time>
      </trkpt>
      <trkpt lat="44.81697" lon="3.11555">
        <ele>964.188811</ele>
        <time>2020-03-08T19:48:00.155Z</time>
      </trkpt>
      <trkpt lat="44.8172" lon="3.11695">
        <ele>963.625745</ele>
        <time>2020-03-08T19:48:14.510Z</time>
      </trkpt>
      <trkpt lat="44.81724" lon="3.11709">
        <ele>963.590529</ele>
        <time>2020-03-08T19:48:16.046Z</time>
      </trkpt>
      <trkpt lat="44.8172" lon="3.11713">
        <ele>963.575364</ele>
        <time>2020-03-08T19:48:16.704Z</time>
      </trkpt>
      <trkpt lat="44.81719" lon="3.11719">
        <ele>963.560619</ele>
        <time>2020-03-08T19:48:17.561Z</time>
      </trkpt>
      <trkpt lat="44.81721" lon="3.11725">
        <ele>963.545858</ele>
        <time>2020-03-08T19:48:18.467Z</time>
      </trkpt>
      <trkpt lat="44.81724" lon="3.11728">
        <ele>963.533224</ele>
        <time>2020-03-08T19:48:18.926Z</time>
      </trkpt>
      <trkpt lat="44.81727" lon="3.11729">
        <ele>963.52043</ele>
        <time>2020-03-08T19:48:19.678Z</time>
      </trkpt>
      <trkpt lat="44.81731" lon="3.11727">
        <ele>963.507668</ele>
        <time>2020-03-08T19:48:20.171Z</time>
      </trkpt>
      <trkpt lat="44.81736" lon="3.11747">
        <ele>963.457708</ele>
        <time>2020-03-08T19:48:22.255Z</time>
      </trkpt>
      <trkpt lat="44.81762" lon="3.11803">
        <ele>963.30156</ele>
        <time>2020-03-08T19:48:28.958Z</time>
      </trkpt>
      <trkpt lat="44.81778" lon="3.1185">
        <ele>963.05371</ele>
        <time>2020-03-08T19:48:33.366Z</time>
      </trkpt>
      <trkpt lat="44.81792" lon="3.11887">
        <ele>962.850375</ele>
        <time>2020-03-08T19:48:36.607Z</time>
      </trkpt>
      <trkpt lat="44.81804" lon="3.11919">
        <ele>962.677452</ele>
        <time>2020-03-08T19:48:39.302Z</time>
      </trkpt>
      <trkpt lat="44.81804" lon="3.11934">
        <ele>962.604442</ele>
        <time>2020-03-08T19:48:40.633Z</time>
      </trkpt>
      <trkpt lat="44.81804" lon="3.11947">
        <ele>962.54392</ele>
        <time>2020-03-08T19:48:42.056Z</time>
      </trkpt>
      <trkpt lat="44.81797" lon="3.11978">
        <ele>962.386077</ele>
        <time>2020-03-08T19:48:45.066Z</time>
      </trkpt>
      <trkpt lat="44.81782" lon="3.12012">
        <ele>962.19457</ele>
        <time>2020-03-08T19:48:49.252Z</time>
      </trkpt>
      <trkpt lat="44.81765" lon="3.12033">
        <ele>962.20563</ele>
        <time>2020-03-08T19:48:53.583Z</time>
      </trkpt>
      <trkpt lat="44.81767" lon="3.12036">
        <ele>962.274092</ele>
        <time>2020-03-08T19:48:53.984Z</time>
      </trkpt>
      <trkpt lat="44.81772" lon="3.12043">
        <ele>962.421972</ele>
        <time>2020-03-08T19:48:55.298Z</time>
      </trkpt>
      <trkpt lat="44.81787" lon="3.12059">
        <ele>962.819727</ele>
        <time>2020-03-08T19:48:59.426Z</time>
      </trkpt>
      <trkpt lat="44.81796" lon="3.12067">
        <ele>963.051888</ele>
        <time>2020-03-08T19:49:01.566Z</time>
      </trkpt>
      <trkpt lat="44.81807" lon="3.12077">
        <ele>963.337812</ele>
        <time>2020-03-08T19:49:04.268Z</time>
      </trkpt>
      <trkpt lat="44.81819" lon="3.12089">
        <ele>963.644122</ele>
        <time>2020-03-08T19:49:08.083Z</time>
      </trkpt>
      <trkpt lat="44.81831" lon="3.12098">
        <ele>963.940114</ele>
        <time>2020-03-08T19:49:10.966Z</time>
      </trkpt>
      <trkpt lat="44.81863" lon="3.12105">
        <ele>964.633106</ele>
        <time>2020-03-08T19:49:18.879Z</time>
      </trkpt>
      <trkpt lat="44.81882" lon="3.12093">
        <ele>965.088168</ele>
        <time>2020-03-08T19:49:24.338Z</time>
      </trkpt>
      <trkpt lat="44.81883" lon="3.12093">
        <ele>965.105046</ele>
        <time>2020-03-08T19:49:24.675Z</time>
      </trkpt>
      <trkpt lat="44.81926" lon="3.12022">
        <ele>966.950528</ele>
        <time>2020-03-08T19:49:42.673Z</time>
      </trkpt>
      <trkpt lat="44.81979" lon="3.11903">
        <ele>970.611766</ele>
        <time>2020-03-08T19:50:12.034Z</time>
      </trkpt>
      <trkpt lat="44.82017" lon="3.11825">
        <ele>973.36568</ele>
        <time>2020-03-08T19:50:32.410Z</time>
      </trkpt>
      <trkpt lat="44.82045" lon="3.11766">
        <ele>976.180043</ele>
        <time>2020-03-08T19:50:50.210Z</time>
      </trkpt>
      <trkpt lat="44.82068" lon="3.11726">
        <ele>978.207795</ele>
        <time>2020-03-08T19:51:04.048Z</time>
      </trkpt>
      <trkpt lat="44.82088" lon="3.11714">
        <ele>979.382962</ele>
        <time>2020-03-08T19:51:12.073Z</time>
      </trkpt>
      <trkpt lat="44.82118" lon="3.11723">
        <ele>981.111489</ele>
        <time>2020-03-08T19:51:24.460Z</time>
      </trkpt>
      <trkpt lat="44.82133" lon="3.11738">
        <ele>982.162352</ele>
        <time>2020-03-08T19:51:32.149Z</time>
      </trkpt>
      <trkpt lat="44.82141" lon="3.11761">
        <ele>983.258218</ele>
        <time>2020-03-08T19:51:39.616Z</time>
      </trkpt>
      <trkpt lat="44.82145" lon="3.11794">
        <ele>984.798582</ele>
        <time>2020-03-08T19:51:49.545Z</time>
      </trkpt>
      <trkpt lat="44.82157" lon="3.1186">
        <ele>987.988384</ele>
        <time>2020-03-08T19:52:09.547Z</time>
      </trkpt>
      <trkpt lat="44.8222" lon="3.12059">
        <ele>997.66665</ele>
        <time>2020-03-08T19:53:12.916Z</time>
      </trkpt>
      <trkpt lat="44.82227" lon="3.12121">
        <ele>1000.264167</ele>
        <time>2020-03-08T19:53:29.812Z</time>
      </trkpt>
      <trkpt lat="44.82241" lon="3.12141">
        <ele>1001.451172</ele>
        <time>2020-03-08T19:53:37.445Z</time>
      </trkpt>
      <trkpt lat="44.82276" lon="3.1215">
        <ele>1003.537191</ele>
        <time>2020-03-08T19:53:50.568Z</time>
      </trkpt>
      <trkpt lat="44.82323" lon="3.12175">
        <ele>1006.088979</ele>
        <time>2020-03-08T19:54:08.169Z</time>
      </trkpt>
      <trkpt lat="44.82347" lon="3.12175">
        <ele>1007.181856</ele>
        <time>2020-03-08T19:54:16.405Z</time>
      </trkpt>
      <trkpt lat="44.82366" lon="3.12164">
        <ele>1008.129276</ele>
        <time>2020-03-08T19:54:23.409Z</time>
      </trkpt>
      <trkpt lat="44.82382" lon="3.12164">
        <ele>1008.857861</ele>
        <time>2020-03-08T19:54:28.720Z</time>
      </trkpt>
      <trkpt lat="44.82397" lon="3.12175">
        <ele>1009.608313</ele>
        <time>2020-03-08T19:54:34.132Z</time>
      </trkpt>
      <trkpt lat="44.8245" lon="3.12247">
        <ele>1012.983972</ele>
        <time>2020-03-08T19:54:57.813Z</time>
      </trkpt>
      <trkpt lat="44.82464" lon="3.12253">
        <ele>1013.534027</ele>
        <time>2020-03-08T19:55:02.184Z</time>
      </trkpt>
      <trkpt lat="44.82565" lon="3.12197">
        <ele>1017.698788</ele>
        <time>2020-03-08T19:55:34.402Z</time>
      </trkpt>
      <trkpt lat="44.82645" lon="3.12128">
        <ele>1021.418068</ele>
        <time>2020-03-08T19:56:02.483Z</time>
      </trkpt>
      <trkpt lat="44.82781" lon="3.12065">
        <ele>1027.412371</ele>
        <time>2020-03-08T19:56:47.994Z</time>
      </trkpt>
      <trkpt lat="44.82824" lon="3.12067">
        <ele>1029.418356</ele>
        <time>2020-03-08T19:57:02.557Z</time>
      </trkpt>
      <trkpt lat="44.82844" lon="3.12061">
        <ele>1030.368208</ele>
        <time>2020-03-08T19:57:09.433Z</time>
      </trkpt>
      <trkpt lat="44.82954" lon="3.11944">
        <ele>1036.741683</ele>
        <time>2020-03-08T19:57:55.952Z</time>
      </trkpt>
      <trkpt lat="44.83028" lon="3.11792">
        <ele>1042.614227</ele>
        <time>2020-03-08T19:58:39.524Z</time>
      </trkpt>
      <trkpt lat="44.83047" lon="3.11773">
        <ele>1043.648347</ele>
        <time>2020-03-08T19:58:46.926Z</time>
      </trkpt>
      <trkpt lat="44.83066" lon="3.11764">
        <ele>1044.408507</ele>
        <time>2020-03-08T19:58:53.386Z</time>
      </trkpt>
      <trkpt lat="44.83399" lon="3.11769">
        <ele>1054.579712</ele>
        <time>2020-03-08T20:00:26.591Z</time>
      </trkpt>
      <trkpt lat="44.83473" lon="3.11799">
        <ele>1053.18907</ele>
        <time>2020-03-08T20:00:36.481Z</time>
      </trkpt>
      <trkpt lat="44.8349" lon="3.11806">
        <ele>1052.725521</ele>
        <time>2020-03-08T20:00:38.400Z</time>
      </trkpt>
      <trkpt lat="44.83527" lon="3.11808">
        <ele>1051.752015</ele>
        <time>2020-03-08T20:00:42.144Z</time>
      </trkpt>
      <trkpt lat="44.83582" lon="3.11769">
        <ele>1050.106122</ele>
        <time>2020-03-08T20:00:47.918Z</time>
      </trkpt>
      <trkpt lat="44.83611" lon="3.11722">
        <ele>1047.138729</ele>
        <time>2020-03-08T20:00:51.993Z</time>
      </trkpt>
      <trkpt lat="44.83635" lon="3.11703">
        <ele>1045.33552</ele>
        <time>2020-03-08T20:00:54.417Z</time>
      </trkpt>
      <trkpt lat="44.83692" lon="3.11689">
        <ele>1041.510284</ele>
        <time>2020-03-08T20:00:59.583Z</time>
      </trkpt>
      <trkpt lat="44.83735" lon="3.11698">
        <ele>1038.662915</ele>
        <time>2020-03-08T20:01:03.447Z</time>
      </trkpt>
      <trkpt lat="44.83788" lon="3.11722">
        <ele>1035.982926</ele>
        <time>2020-03-08T20:01:08.552Z</time>
      </trkpt>
      <trkpt lat="44.83829" lon="3.11751">
        <ele>1033.905786</ele>
        <time>2020-03-08T20:01:12.790Z</time>
      </trkpt>
      <trkpt lat="44.83919" lon="3.11845">
        <ele>1030.128535</ele>
        <time>2020-03-08T20:01:24.308Z</time>
      </trkpt>
      <trkpt lat="44.83937" lon="3.11854">
        <ele>1030.157257</ele>
        <time>2020-03-08T20:01:26.659Z</time>
      </trkpt>
      <trkpt lat="44.83954" lon="3.11849">
        <ele>1030.183493</ele>
        <time>2020-03-08T20:01:29.188Z</time>
      </trkpt>
      <trkpt lat="44.83967" lon="3.11846">
        <ele>1030.203476</ele>
        <time>2020-03-08T20:01:31.052Z</time>
      </trkpt>
      <trkpt lat="44.84038" lon="3.11843">
        <ele>1030.312737</ele>
        <time>2020-03-08T20:01:44.550Z</time>
      </trkpt>
      <trkpt lat="44.84091" lon="3.11855">
        <ele>1030.775232</ele>
        <time>2020-03-08T20:01:57.112Z</time>
      </trkpt>
      <trkpt lat="44.84119" lon="3.11869">
        <ele>1031.348041</ele>
        <time>2020-03-08T20:02:04.661Z</time>
      </trkpt>
      <trkpt lat="44.84215" lon="3.12013">
        <ele>1033.843768</ele>
        <time>2020-03-08T20:02:36.792Z</time>
      </trkpt>
      <trkpt lat="44.84331" lon="3.12051">
        <ele>1034.180904</ele>
        <time>2020-03-08T20:02:56.834Z</time>
      </trkpt>
      <trkpt lat="44.84391" lon="3.12106">
        <ele>1033.917703</ele>
        <time>2020-03-08T20:03:05.775Z</time>
      </trkpt>
      <trkpt lat="44.84458" lon="3.12175">
        <ele>1032.454077</ele>
        <time>2020-03-08T20:03:15.118Z</time>
      </trkpt>
      <trkpt lat="44.84619" lon="3.1223">
        <ele>1029.02417</ele>
        <time>2020-03-08T20:03:32.757Z</time>
      </trkpt>
      <trkpt lat="44.84723" lon="3.12241">
        <ele>1026.467685</ele>
        <time>2020-03-08T20:03:44.033Z</time>
      </trkpt>
      <trkpt lat="44.84751" lon="3.12254">
        <ele>1025.598593</ele>
        <time>2020-03-08T20:03:47.121Z</time>
      </trkpt>
      <trkpt lat="44.84785" lon="3.12255">
        <ele>1024.562348</ele>
        <time>2020-03-08T20:03:50.792Z</time>
      </trkpt>
      <trkpt lat="44.84814" lon="3.12251">
        <ele>1023.689712</ele>
        <time>2020-03-08T20:03:53.779Z</time>
      </trkpt>
      <trkpt lat="44.84933" lon="3.12207">
        <ele>1020.227852</ele>
        <time>2020-03-08T20:04:05.911Z</time>
      </trkpt>
      <trkpt lat="44.84976" lon="3.12194">
        <ele>1019.120746</ele>
        <time>2020-03-08T20:04:10.365Z</time>
      </trkpt>
      <trkpt lat="44.84995" lon="3.1221">
        <ele>1018.564548</ele>
        <time>2020-03-08T20:04:12.585Z</time>
      </trkpt>
      <trkpt lat="44.85125" lon="3.12413">
        <ele>1017.540424</ele>
        <time>2020-03-08T20:04:37.289Z</time>
      </trkpt>
      <trkpt lat="44.85155" lon="3.12435">
        <ele>1017.678753</ele>
        <time>2020-03-08T20:04:45.549Z</time>
      </trkpt>
      <trkpt lat="44.85338" lon="3.12473">
        <ele>1024.296893</ele>
        <time>2020-03-08T20:05:41.418Z</time>
      </trkpt>
      <trkpt lat="44.85359" lon="3.12488">
        <ele>1025.361431</ele>
        <time>2020-03-08T20:05:50.096Z</time>
      </trkpt>
      <trkpt lat="44.85388" lon="3.1253">
        <ele>1027.321834</ele>
        <time>2020-03-08T20:06:04.903Z</time>
      </trkpt>
      <trkpt lat="44.85412" lon="3.12551">
        <ele>1028.672183</ele>
        <time>2020-03-08T20:06:14.852Z</time>
      </trkpt>
      <trkpt lat="44.85444" lon="3.1257">
        <ele>1030.322093</ele>
        <time>2020-03-08T20:06:26.820Z</time>
      </trkpt>
      <trkpt lat="44.85499" lon="3.12601">
        <ele>1033.099556</ele>
        <time>2020-03-08T20:06:46.262Z</time>
      </trkpt>
      <trkpt lat="44.85585" lon="3.12676">
        <ele>1037.060557</ele>
        <time>2020-03-08T20:07:18.675Z</time>
      </trkpt>
      <trkpt lat="44.8565" lon="3.12712">
        <ele>1039.77029</ele>
        <time>2020-03-08T20:07:38.459Z</time>
      </trkpt>
      <trkpt lat="44.85682" lon="3.12719">
        <ele>1040.903884</ele>
        <time>2020-03-08T20:07:47.350Z</time>
      </trkpt>
      <trkpt lat="44.85677" lon="3.12748">
        <ele>1041.607961</ele>
        <time>2020-03-08T20:07:54.744Z</time>
      </trkpt>
      <trkpt lat="44.85668" lon="3.12823">
        <ele>1043.388425</ele>
        <time>2020-03-08T20:08:12.343Z</time>
      </trkpt>
      <trkpt lat="44.85611" lon="3.13071">
        <ele>1049.512554</ele>
        <time>2020-03-08T20:09:14.852Z</time>
      </trkpt>
      <trkpt lat="44.85613" lon="3.13232">
        <ele>1053.197032</ele>
        <time>2020-03-08T20:09:52.712Z</time>
      </trkpt>
      <trkpt lat="44.85668" lon="3.13586">
        <ele>1060.865723</ele>
        <time>2020-03-08T20:11:15.529Z</time>
      </trkpt>
      <trkpt lat="44.85706" lon="3.13831">
        <ele>1065.520355</ele>
        <time>2020-03-08T20:12:11.803Z</time>
      </trkpt>
      <trkpt lat="44.8571" lon="3.13866">
        <ele>1066.130367</ele>
        <time>2020-03-08T20:12:19.046Z</time>
      </trkpt>
      <trkpt lat="44.85698" lon="3.14195">
        <ele>1070.484082</ele>
        <time>2020-03-08T20:13:21.727Z</time>
      </trkpt>
      <trkpt lat="44.85725" lon="3.14463">
        <ele>1073.758769</ele>
        <time>2020-03-08T20:14:16.385Z</time>
      </trkpt>
      <trkpt lat="44.85773" lon="3.14679">
        <ele>1074.597782</ele>
        <time>2020-03-08T20:14:51.519Z</time>
      </trkpt>
      <trkpt lat="44.8578" lon="3.14836">
        <ele>1073.670936</ele>
        <time>2020-03-08T20:15:10.888Z</time>
      </trkpt>
      <trkpt lat="44.85781" lon="3.14859">
        <ele>1073.532637</ele>
        <time>2020-03-08T20:15:13.827Z</time>
      </trkpt>
      <trkpt lat="44.85778" lon="3.14866">
        <ele>1073.48366</ele>
        <time>2020-03-08T20:15:14.485Z</time>
      </trkpt>
      <trkpt lat="44.85752" lon="3.14914">
        <ele>1073.126915</ele>
        <time>2020-03-08T20:15:19.635Z</time>
      </trkpt>
      <trkpt lat="44.85678" lon="3.15052">
        <ele>1071.912231</ele>
        <time>2020-03-08T20:15:34.545Z</time>
      </trkpt>
      <trkpt lat="44.85573" lon="3.15268">
        <ele>1070.821655</ele>
        <time>2020-03-08T20:15:57.932Z</time>
      </trkpt>
      <trkpt lat="44.85498" lon="3.15437">
        <ele>1071.763347</ele>
        <time>2020-03-08T20:16:21.716Z</time>
      </trkpt>
      <trkpt lat="44.85344" lon="3.1561">
        <ele>1075.152566</ele>
        <time>2020-03-08T20:17:07.671Z</time>
      </trkpt>
      <trkpt lat="44.85249" lon="3.15692">
        <ele>1077.34319</ele>
        <time>2020-03-08T20:17:33.475Z</time>
      </trkpt>
      <trkpt lat="44.85198" lon="3.15761">
        <ele>1078.571779</ele>
        <time>2020-03-08T20:17:48.778Z</time>
      </trkpt>
      <trkpt lat="44.85196" lon="3.15764">
        <ele>1078.625158</ele>
        <time>2020-03-08T20:17:49.654Z</time>
      </trkpt>
      <trkpt lat="44.85137" lon="3.15854">
        <ele>1080.064624</ele>
        <time>2020-03-08T20:18:07.613Z</time>
      </trkpt>
      <trkpt lat="44.8489" lon="3.16282">
        <ele>1085.174343</ele>
        <time>2020-03-08T20:19:27.970Z</time>
      </trkpt>
      <trkpt lat="44.84835" lon="3.16359">
        <ele>1085.663876</ele>
        <time>2020-03-08T20:19:40.936Z</time>
      </trkpt>
      <trkpt lat="44.84804" lon="3.16433">
        <ele>1086.005757</ele>
        <time>2020-03-08T20:19:50.166Z</time>
      </trkpt>
      <trkpt lat="44.84763" lon="3.16534">
        <ele>1086.0862</ele>
        <time>2020-03-08T20:20:01.767Z</time>
      </trkpt>
      <trkpt lat="44.84719" lon="3.16715">
        <ele>1086.9068</ele>
        <time>2020-03-08T20:20:23.317Z</time>
      </trkpt>
      <trkpt lat="44.84712" lon="3.16789">
        <ele>1087.73076</ele>
        <time>2020-03-08T20:20:34.719Z</time>
      </trkpt>
      <trkpt lat="44.84723" lon="3.16865">
        <ele>1088.587394</ele>
        <time>2020-03-08T20:20:47.709Z</time>
      </trkpt>
      <trkpt lat="44.84751" lon="3.16952">
        <ele>1089.978881</ele>
        <time>2020-03-08T20:21:04.443Z</time>
      </trkpt>
      <trkpt lat="44.84759" lon="3.1701">
        <ele>1090.980028</ele>
        <time>2020-03-08T20:21:15.053Z</time>
      </trkpt>
      <trkpt lat="44.84771" lon="3.17235">
        <ele>1094.673133</ele>
        <time>2020-03-08T20:21:53.490Z</time>
      </trkpt>
      <trkpt lat="44.8478" lon="3.17293">
        <ele>1095.593328</ele>
        <time>2020-03-08T20:22:02.774Z</time>
      </trkpt>
      <trkpt lat="44.84781" lon="3.17475">
        <ele>1098.78735</ele>
        <time>2020-03-08T20:22:33.754Z</time>
      </trkpt>
      <trkpt lat="44.84787" lon="3.17534">
        <ele>1099.989315</ele>
        <time>2020-03-08T20:22:44.733Z</time>
      </trkpt>
      <trkpt lat="44.84779" lon="3.17578">
        <ele>1100.882343</ele>
        <time>2020-03-08T20:22:53.032Z</time>
      </trkpt>
      <trkpt lat="44.84692" lon="3.17895">
        <ele>1109.263428</ele>
        <time>2020-03-08T20:24:02.772Z</time>
      </trkpt>
      <trkpt lat="44.84674" lon="3.18004">
        <ele>1112.652373</ele>
        <time>2020-03-08T20:24:28.836Z</time>
      </trkpt>
      <trkpt lat="44.84672" lon="3.18057">
        <ele>1114.268291</ele>
        <time>2020-03-08T20:24:41.369Z</time>
      </trkpt>
      <trkpt lat="44.84677" lon="3.18095">
        <ele>1115.437371</ele>
        <time>2020-03-08T20:24:50.413Z</time>
      </trkpt>
      <trkpt lat="44.84704" lon="3.18177">
        <ele>1117.658936</ele>
        <time>2020-03-08T20:25:11.323Z</time>
      </trkpt>
      <trkpt lat="44.84718" lon="3.18363">
        <ele>1121.564296</ele>
        <time>2020-03-08T20:25:45.412Z</time>
      </trkpt>
      <trkpt lat="44.8473" lon="3.18551">
        <ele>1123.335052</ele>
        <time>2020-03-08T20:26:11.455Z</time>
      </trkpt>
      <trkpt lat="44.84738" lon="3.18631">
        <ele>1124.043907</ele>
        <time>2020-03-08T20:26:21.817Z</time>
      </trkpt>
      <trkpt lat="44.84751" lon="3.18676">
        <ele>1124.495375</ele>
        <time>2020-03-08T20:26:28.302Z</time>
      </trkpt>
      <trkpt lat="44.8481" lon="3.1878">
        <ele>1125.731086</ele>
        <time>2020-03-08T20:26:47.427Z</time>
      </trkpt>
      <trkpt lat="44.84872" lon="3.18997">
        <ele>1128.248491</ele>
        <time>2020-03-08T20:27:22.564Z</time>
      </trkpt>
      <trkpt lat="44.84874" lon="3.19009">
        <ele>1128.381281</ele>
        <time>2020-03-08T20:27:24.372Z</time>
      </trkpt>
      <trkpt lat="44.84877" lon="3.19009">
        <ele>1128.432609</ele>
        <time>2020-03-08T20:27:25.271Z</time>
      </trkpt>
      <trkpt lat="44.84991" lon="3.19002">
        <ele>1130.376539</ele>
        <time>2020-03-08T20:27:49.808Z</time>
      </trkpt>
      <trkpt lat="44.85137" lon="3.18979">
        <ele>1132.859604</ele>
        <time>2020-03-08T20:28:22.172Z</time>
      </trkpt>
      <trkpt lat="44.8517" lon="3.18979">
        <ele>1133.317264</ele>
        <time>2020-03-08T20:28:29.464Z</time>
      </trkpt>
      <trkpt lat="44.85199" lon="3.18997">
        <ele>1133.763079</ele>
        <time>2020-03-08T20:28:36.400Z</time>
      </trkpt>
      <trkpt lat="44.85278" lon="3.19072">
        <ele>1134.852266</ele>
        <time>2020-03-08T20:28:54.893Z</time>
      </trkpt>
      <trkpt lat="44.85316" lon="3.19101">
        <ele>1134.567597</ele>
        <time>2020-03-08T20:29:01.785Z</time>
      </trkpt>
      <trkpt lat="44.85405" lon="3.19119">
        <ele>1133.979249</ele>
        <time>2020-03-08T20:29:12.948Z</time>
      </trkpt>
      <trkpt lat="44.85436" lon="3.19134">
        <ele>1133.766804</ele>
        <time>2020-03-08T20:29:16.586Z</time>
      </trkpt>
      <trkpt lat="44.85531" lon="3.19231">
        <ele>1131.135858</ele>
        <time>2020-03-08T20:29:29.113Z</time>
      </trkpt>
      <trkpt lat="44.85571" lon="3.193">
        <ele>1129.7087</ele>
        <time>2020-03-08T20:29:35.776Z</time>
      </trkpt>
      <trkpt lat="44.85595" lon="3.19359">
        <ele>1128.780892</ele>
        <time>2020-03-08T20:29:41.002Z</time>
      </trkpt>
      <trkpt lat="44.85616" lon="3.19426">
        <ele>1127.78796</ele>
        <time>2020-03-08T20:29:46.799Z</time>
      </trkpt>
      <trkpt lat="44.85658" lon="3.19613">
        <ele>1124.237493</ele>
        <time>2020-03-08T20:30:02.596Z</time>
      </trkpt>
      <trkpt lat="44.85666" lon="3.19684">
        <ele>1122.471912</ele>
        <time>2020-03-08T20:30:07.986Z</time>
      </trkpt>
      <trkpt lat="44.85665" lon="3.19725">
        <ele>1121.450018</ele>
        <time>2020-03-08T20:30:10.860Z</time>
      </trkpt>
      <trkpt lat="44.85641" lon="3.1986">
        <ele>1116.011188</ele>
        <time>2020-03-08T20:30:19.865Z</time>
      </trkpt>
      <trkpt lat="44.85641" lon="3.19874">
        <ele>1115.295099</ele>
        <time>2020-03-08T20:30:20.761Z</time>
      </trkpt>
      <trkpt lat="44.85641" lon="3.1988">
        <ele>1115.024438</ele>
        <time>2020-03-08T20:30:21.101Z</time>
      </trkpt>
      <trkpt lat="44.85643" lon="3.19896">
        <ele>1114.204722</ele>
        <time>2020-03-08T20:30:22.156Z</time>
      </trkpt>
      <trkpt lat="44.85651" lon="3.19968">
        <ele>1110.533714</ele>
        <time>2020-03-08T20:30:26.804Z</time>
      </trkpt>
      <trkpt lat="44.85656" lon="3.20027">
        <ele>1107.576764</ele>
        <time>2020-03-08T20:30:30.525Z</time>
      </trkpt>
      <trkpt lat="44.85653" lon="3.20126">
        <ele>1103.110749</ele>
        <time>2020-03-08T20:30:36.799Z</time>
      </trkpt>
      <trkpt lat="44.85671" lon="3.20221">
        <ele>1098.762625</ele>
        <time>2020-03-08T20:30:43.235Z</time>
      </trkpt>
      <trkpt lat="44.85684" lon="3.20268">
        <ele>1096.494485</ele>
        <time>2020-03-08T20:30:46.591Z</time>
      </trkpt>
      <trkpt lat="44.85698" lon="3.20312">
        <ele>1094.96257</ele>
        <time>2020-03-08T20:30:49.797Z</time>
      </trkpt>
      <trkpt lat="44.85736" lon="3.20404">
        <ele>1091.948866</ele>
        <time>2020-03-08T20:30:57.142Z</time>
      </trkpt>
      <trkpt lat="44.85747" lon="3.20437">
        <ele>1090.907645</ele>
        <time>2020-03-08T20:30:59.755Z</time>
      </trkpt>
      <trkpt lat="44.85752" lon="3.2045">
        <ele>1090.511566</ele>
        <time>2020-03-08T20:31:00.808Z</time>
      </trkpt>
      <trkpt lat="44.85761" lon="3.20475">
        <ele>1089.710419</ele>
        <time>2020-03-08T20:31:02.845Z</time>
      </trkpt>
      <trkpt lat="44.85772" lon="3.20507">
        <ele>1088.754195</ele>
        <time>2020-03-08T20:31:05.383Z</time>
      </trkpt>
      <trkpt lat="44.85778" lon="3.20522">
        <ele>1088.389522</ele>
        <time>2020-03-08T20:31:06.684Z</time>
      </trkpt>
      <trkpt lat="44.858" lon="3.20566">
        <ele>1087.239674</ele>
        <time>2020-03-08T20:31:10.728Z</time>
      </trkpt>
      <trkpt lat="44.85801" lon="3.20569">
        <ele>1087.161772</ele>
        <time>2020-03-08T20:31:11.003Z</time>
      </trkpt>
      <trkpt lat="44.8581" lon="3.20569">
        <ele>1086.913171</ele>
        <time>2020-03-08T20:31:11.952Z</time>
      </trkpt>
      <trkpt lat="44.85821" lon="3.20575">
        <ele>1086.545084</ele>
        <time>2020-03-08T20:31:13.153Z</time>
      </trkpt>
      <trkpt lat="44.85834" lon="3.20585">
        <ele>1086.109192</ele>
        <time>2020-03-08T20:31:14.679Z</time>
      </trkpt>
      <trkpt lat="44.85836" lon="3.20595">
        <ele>1085.895908</ele>
        <time>2020-03-08T20:31:15.454Z</time>
      </trkpt>
      <trkpt lat="44.85842" lon="3.20619">
        <ele>1085.351398</ele>
        <time>2020-03-08T20:31:17.364Z</time>
      </trkpt>
      <trkpt lat="44.8585" lon="3.20646">
        <ele>1084.717151</ele>
        <time>2020-03-08T20:31:19.537Z</time>
      </trkpt>
      <trkpt lat="44.85854" lon="3.20661">
        <ele>1084.376431</ele>
        <time>2020-03-08T20:31:20.656Z</time>
      </trkpt>
      <trkpt lat="44.85858" lon="3.20716">
        <ele>1083.126464</ele>
        <time>2020-03-08T20:31:24.643Z</time>
      </trkpt>
      <trkpt lat="44.85857" lon="3.20818">
        <ele>1080.252129</ele>
        <time>2020-03-08T20:31:31.813Z</time>
      </trkpt>
      <trkpt lat="44.85857" lon="3.20851">
        <ele>1079.338905</ele>
        <time>2020-03-08T20:31:34.016Z</time>
      </trkpt>
      <trkpt lat="44.8586" lon="3.20885">
        <ele>1078.361376</ele>
        <time>2020-03-08T20:31:36.393Z</time>
      </trkpt>
      <trkpt lat="44.85877" lon="3.20917">
        <ele>1077.263397</ele>
        <time>2020-03-08T20:31:39.127Z</time>
      </trkpt>
      <trkpt lat="44.85974" lon="3.20969">
        <ele>1072.949915</ele>
        <time>2020-03-08T20:31:49.224Z</time>
      </trkpt>
      <trkpt lat="44.86011" lon="3.2099">
        <ele>1071.274365</ele>
        <time>2020-03-08T20:31:53.152Z</time>
      </trkpt>
      <trkpt lat="44.86044" lon="3.21007">
        <ele>1069.79307</ele>
        <time>2020-03-08T20:31:56.586Z</time>
      </trkpt>
      <trkpt lat="44.86053" lon="3.21015">
        <ele>1069.367212</ele>
        <time>2020-03-08T20:31:57.535Z</time>
      </trkpt>
      <trkpt lat="44.86059" lon="3.21021">
        <ele>1069.030778</ele>
        <time>2020-03-08T20:31:58.351Z</time>
      </trkpt>
      <trkpt lat="44.86067" lon="3.2103">
        <ele>1068.542531</ele>
        <time>2020-03-08T20:31:59.310Z</time>
      </trkpt>
      <trkpt lat="44.86076" lon="3.21047">
        <ele>1067.635041</ele>
        <time>2020-03-08T20:32:00.726Z</time>
      </trkpt>
      <trkpt lat="44.86096" lon="3.21068">
        <ele>1066.17976</ele>
        <time>2020-03-08T20:32:03.081Z</time>
      </trkpt>
      <trkpt lat="44.86151" lon="3.21106">
        <ele>1062.56863</ele>
        <time>2020-03-08T20:32:08.733Z</time>
      </trkpt>
      <trkpt lat="44.86225" lon="3.21212">
        <ele>1056.110903</ele>
        <time>2020-03-08T20:32:18.293Z</time>
      </trkpt>
      <trkpt lat="44.86241" lon="3.2122">
        <ele>1055.03769</ele>
        <time>2020-03-08T20:32:19.777Z</time>
      </trkpt>
      <trkpt lat="44.86274" lon="3.2122">
        <ele>1052.869733</ele>
        <time>2020-03-08T20:32:22.760Z</time>
      </trkpt>
      <trkpt lat="44.86288" lon="3.2123">
        <ele>1051.855325</ele>
        <time>2020-03-08T20:32:24.161Z</time>
      </trkpt>
      <trkpt lat="44.86335" lon="3.21298">
        <ele>1047.42713</ele>
        <time>2020-03-08T20:32:30.316Z</time>
      </trkpt>
      <trkpt lat="44.86344" lon="3.21332">
        <ele>1045.867118</ele>
        <time>2020-03-08T20:32:32.675Z</time>
      </trkpt>
      <trkpt lat="44.8632" lon="3.21428">
        <ele>1041.799865</ele>
        <time>2020-03-08T20:32:39.454Z</time>
      </trkpt>
      <trkpt lat="44.86324" lon="3.21487">
        <ele>1039.432019</ele>
        <time>2020-03-08T20:32:43.359Z</time>
      </trkpt>
      <trkpt lat="44.86329" lon="3.21498">
        <ele>1038.927765</ele>
        <time>2020-03-08T20:32:44.151Z</time>
      </trkpt>
      <trkpt lat="44.86334" lon="3.21508">
        <ele>1038.429479</ele>
        <time>2020-03-08T20:32:44.998Z</time>
      </trkpt>
      <trkpt lat="44.86347" lon="3.21522">
        <ele>1037.542317</ele>
        <time>2020-03-08T20:32:46.539Z</time>
      </trkpt>
      <trkpt lat="44.8635" lon="3.21528">
        <ele>1037.222164</ele>
        <time>2020-03-08T20:32:47.041Z</time>
      </trkpt>
      <trkpt lat="44.86357" lon="3.21558">
        <ele>1035.988214</ele>
        <time>2020-03-08T20:32:49.134Z</time>
      </trkpt>
      <trkpt lat="44.8635" lon="3.21591">
        <ele>1034.68303</ele>
        <time>2020-03-08T20:32:51.377Z</time>
      </trkpt>
      <trkpt lat="44.86341" lon="3.21622">
        <ele>1033.400506</ele>
        <time>2020-03-08T20:32:53.632Z</time>
      </trkpt>
      <trkpt lat="44.86333" lon="3.21647">
        <ele>1032.331137</ele>
        <time>2020-03-08T20:32:55.453Z</time>
      </trkpt>
      <trkpt lat="44.86329" lon="3.21683">
        <ele>1030.952294</ele>
        <time>2020-03-08T20:32:57.823Z</time>
      </trkpt>
      <trkpt lat="44.86355" lon="3.21741">
        <ele>1028.3163</ele>
        <time>2020-03-08T20:33:02.390Z</time>
      </trkpt>
      <trkpt lat="44.86368" lon="3.21755">
        <ele>1027.428554</ele>
        <time>2020-03-08T20:33:03.942Z</time>
      </trkpt>
      <trkpt lat="44.86391" lon="3.21762">
        <ele>1026.29786</ele>
        <time>2020-03-08T20:33:06.125Z</time>
      </trkpt>
      <trkpt lat="44.86404" lon="3.21782">
        <ele>1025.586183</ele>
        <time>2020-03-08T20:33:07.920Z</time>
      </trkpt>
      <trkpt lat="44.86404" lon="3.21845">
        <ele>1023.952632</ele>
        <time>2020-03-08T20:33:12.166Z</time>
      </trkpt>
      <trkpt lat="44.86382" lon="3.2192">
        <ele>1021.816498</ele>
        <time>2020-03-08T20:33:17.890Z</time>
      </trkpt>
      <trkpt lat="44.86383" lon="3.21939">
        <ele>1021.324251</ele>
        <time>2020-03-08T20:33:19.226Z</time>
      </trkpt>
      <trkpt lat="44.86394" lon="3.2195">
        <ele>1020.834396</ele>
        <time>2020-03-08T20:33:20.547Z</time>
      </trkpt>
      <trkpt lat="44.8641" lon="3.2195">
        <ele>1020.222315</ele>
        <time>2020-03-08T20:33:22.402Z</time>
      </trkpt>
      <trkpt lat="44.86458" lon="3.2193">
        <ele>1020.250551</ele>
        <time>2020-03-08T20:33:28.804Z</time>
      </trkpt>
      <trkpt lat="44.86484" lon="3.21928">
        <ele>1020.416502</ele>
        <time>2020-03-08T20:33:32.648Z</time>
      </trkpt>
      <trkpt lat="44.86501" lon="3.21942">
        <ele>1020.540491</ele>
        <time>2020-03-08T20:33:35.790Z</time>
      </trkpt>
      <trkpt lat="44.86509" lon="3.21964">
        <ele>1020.652977</ele>
        <time>2020-03-08T20:33:39.441Z</time>
      </trkpt>
      <trkpt lat="44.86513" lon="3.21983">
        <ele>1020.743475</ele>
        <time>2020-03-08T20:33:42.066Z</time>
      </trkpt>
      <trkpt lat="44.86516" lon="3.22002">
        <ele>1020.828182</ele>
        <time>2020-03-08T20:33:44.766Z</time>
      </trkpt>
      <trkpt lat="44.86521" lon="3.2202">
        <ele>1020.917692</ele>
        <time>2020-03-08T20:33:48.539Z</time>
      </trkpt>
      <trkpt lat="44.86539" lon="3.22047">
        <ele>1021.084086</ele>
        <time>2020-03-08T20:33:54.352Z</time>
      </trkpt>
      <trkpt lat="44.86589" lon="3.22068">
        <ele>1022.498739</ele>
        <time>2020-03-08T20:34:07.822Z</time>
      </trkpt>
      <trkpt lat="44.86611" lon="3.22089">
        <ele>1023.297244</ele>
        <time>2020-03-08T20:34:15.844Z</time>
      </trkpt>
      <trkpt lat="44.86642" lon="3.22152">
        <ele>1024.907294</ele>
        <time>2020-03-08T20:34:31.665Z</time>
      </trkpt>
      <trkpt lat="44.86656" lon="3.22253">
        <ele>1026.995903</ele>
        <time>2020-03-08T20:34:50.144Z</time>
      </trkpt>
      <trkpt lat="44.86657" lon="3.22258">
        <ele>1027.097556</ele>
        <time>2020-03-08T20:34:51.314Z</time>
      </trkpt>
      <trkpt lat="44.86663" lon="3.22317">
        <ele>1028.187265</ele>
        <time>2020-03-08T20:35:02.108Z</time>
      </trkpt>
      <trkpt lat="44.86674" lon="3.22374">
        <ele>1029.260439</ele>
        <time>2020-03-08T20:35:12.519Z</time>
      </trkpt>
      <trkpt lat="44.86698" lon="3.22439">
        <ele>1030.595452</ele>
        <time>2020-03-08T20:35:25.275Z</time>
      </trkpt>
      <trkpt lat="44.86719" lon="3.22485">
        <ele>1031.464673</ele>
        <time>2020-03-08T20:35:35.068Z</time>
      </trkpt>
      <trkpt lat="44.86725" lon="3.22496">
        <ele>1031.639473</ele>
        <time>2020-03-08T20:35:37.391Z</time>
      </trkpt>
      <trkpt lat="44.86788" lon="3.2264">
        <ele>1033.851255</ele>
        <time>2020-03-08T20:36:05.439Z</time>
      </trkpt>
      <trkpt lat="44.86823" lon="3.22728">
        <ele>1033.93904</ele>
        <time>2020-03-08T20:36:18.094Z</time>
      </trkpt>
      <trkpt lat="44.86831" lon="3.22792">
        <ele>1033.381724</ele>
        <time>2020-03-08T20:36:24.615Z</time>
      </trkpt>
      <trkpt lat="44.86803" lon="3.23111">
        <ele>1028.102368</ele>
        <time>2020-03-08T20:36:48.438Z</time>
      </trkpt>
      <trkpt lat="44.8681" lon="3.23171">
        <ele>1026.777364</ele>
        <time>2020-03-08T20:36:52.609Z</time>
      </trkpt>
      <trkpt lat="44.86833" lon="3.23268">
        <ele>1024.319087</ele>
        <time>2020-03-08T20:36:59.756Z</time>
      </trkpt>
      <trkpt lat="44.86835" lon="3.23288">
        <ele>1023.844451</ele>
        <time>2020-03-08T20:37:01.144Z</time>
      </trkpt>
      <trkpt lat="44.86831" lon="3.23313">
        <ele>1023.214831</ele>
        <time>2020-03-08T20:37:03.024Z</time>
      </trkpt>
      <trkpt lat="44.86818" lon="3.23328">
        <ele>1022.641667</ele>
        <time>2020-03-08T20:37:04.724Z</time>
      </trkpt>
      <trkpt lat="44.86763" lon="3.23344">
        <ele>1020.753494</ele>
        <time>2020-03-08T20:37:10.532Z</time>
      </trkpt>
      <trkpt lat="44.86749" lon="3.2336">
        <ele>1019.965055</ele>
        <time>2020-03-08T20:37:12.574Z</time>
      </trkpt>
      <trkpt lat="44.86716" lon="3.23497">
        <ele>1015.333868</ele>
        <time>2020-03-08T20:37:22.772Z</time>
      </trkpt>
      <trkpt lat="44.86701" lon="3.23529">
        <ele>1014.101537</ele>
        <time>2020-03-08T20:37:25.284Z</time>
      </trkpt>
      <trkpt lat="44.86694" lon="3.2355">
        <ele>1013.328031</ele>
        <time>2020-03-08T20:37:26.830Z</time>
      </trkpt>
      <trkpt lat="44.86691" lon="3.2356">
        <ele>1013.002243</ele>
        <time>2020-03-08T20:37:27.481Z</time>
      </trkpt>
      <trkpt lat="44.86689" lon="3.23572">
        <ele>1012.61253</ele>
        <time>2020-03-08T20:37:28.261Z</time>
      </trkpt>
      <trkpt lat="44.86687" lon="3.23608">
        <ele>1010.869002</ele>
        <time>2020-03-08T20:37:30.579Z</time>
      </trkpt>
      <trkpt lat="44.86684" lon="3.23658">
        <ele>1008.353837</ele>
        <time>2020-03-08T20:37:33.747Z</time>
      </trkpt>
      <trkpt lat="44.86685" lon="3.23756">
        <ele>1003.442632</ele>
        <time>2020-03-08T20:37:39.882Z</time>
      </trkpt>
      <trkpt lat="44.86678" lon="3.23777">
        <ele>1002.247033</ele>
        <time>2020-03-08T20:37:41.379Z</time>
      </trkpt>
      <trkpt lat="44.8666" lon="3.23789">
        <ele>1000.879362</ele>
        <time>2020-03-08T20:37:43.072Z</time>
      </trkpt>
      <trkpt lat="44.86552" lon="3.23806">
        <ele>996.346689</ele>
        <time>2020-03-08T20:37:53.525Z</time>
      </trkpt>
      <trkpt lat="44.86505" lon="3.23822">
        <ele>994.60015</ele>
        <time>2020-03-08T20:37:58.713Z</time>
      </trkpt>
      <trkpt lat="44.86483" lon="3.23837">
        <ele>993.708223</ele>
        <time>2020-03-08T20:38:01.264Z</time>
      </trkpt>
      <trkpt lat="44.86465" lon="3.23871">
        <ele>992.95127</ele>
        <time>2020-03-08T20:38:04.583Z</time>
      </trkpt>
      <trkpt lat="44.8646" lon="3.23915">
        <ele>992.508713</ele>
        <time>2020-03-08T20:38:08.214Z</time>
      </trkpt>
      <trkpt lat="44.86465" lon="3.23947">
        <ele>992.192869</ele>
        <time>2020-03-08T20:38:10.892Z</time>
      </trkpt>
      <trkpt lat="44.86474" lon="3.23954">
        <ele>992.056128</ele>
        <time>2020-03-08T20:38:12.054Z</time>
      </trkpt>
      <trkpt lat="44.86486" lon="3.23959">
        <ele>991.880941</ele>
        <time>2020-03-08T20:38:13.472Z</time>
      </trkpt>
      <trkpt lat="44.86494" lon="3.23966">
        <ele>991.750576</ele>
        <time>2020-03-08T20:38:14.705Z</time>
      </trkpt>
      <trkpt lat="44.86499" lon="3.23971">
        <ele>991.663905</ele>
        <time>2020-03-08T20:38:15.425Z</time>
      </trkpt>
      <trkpt lat="44.86511" lon="3.23992">
        <ele>991.395741</ele>
        <time>2020-03-08T20:38:17.654Z</time>
      </trkpt>
      <trkpt lat="44.86529" lon="3.24041">
        <ele>990.858326</ele>
        <time>2020-03-08T20:38:22.299Z</time>
      </trkpt>
      <trkpt lat="44.86533" lon="3.24066">
        <ele>990.718201</ele>
        <time>2020-03-08T20:38:24.567Z</time>
      </trkpt>
      <trkpt lat="44.86532" lon="3.24101">
        <ele>990.99638</ele>
        <time>2020-03-08T20:38:27.581Z</time>
      </trkpt>
      <trkpt lat="44.86503" lon="3.242">
        <ele>991.841667</ele>
        <time>2020-03-08T20:38:39.194Z</time>
      </trkpt>
      <trkpt lat="44.86484" lon="3.24291">
        <ele>992.590175</ele>
        <time>2020-03-08T20:38:56.047Z</time>
      </trkpt>
      <trkpt lat="44.8649" lon="3.24415">
        <ele>997.088041</ele>
        <time>2020-03-08T20:39:24.425Z</time>
      </trkpt>
      <trkpt lat="44.86487" lon="3.2445">
        <ele>998.465526</ele>
        <time>2020-03-08T20:39:33.842Z</time>
      </trkpt>
      <trkpt lat="44.86457" lon="3.24571">
        <ele>1003.880124</ele>
        <time>2020-03-08T20:40:12.174Z</time>
      </trkpt>
      <trkpt lat="44.86453" lon="3.24662">
        <ele>1009.184732</ele>
        <time>2020-03-08T20:40:42.981Z</time>
      </trkpt>
      <trkpt lat="44.86436" lon="3.24734">
        <ele>1013.579874</ele>
        <time>2020-03-08T20:41:09.590Z</time>
      </trkpt>
      <trkpt lat="44.86423" lon="3.24757">
        <ele>1015.268505</ele>
        <time>2020-03-08T20:41:19.888Z</time>
      </trkpt>
      <trkpt lat="44.86385" lon="3.24783">
        <ele>1018.68057</ele>
        <time>2020-03-08T20:41:41.170Z</time>
      </trkpt>
      <trkpt lat="44.86331" lon="3.24858">
        <ele>1024.541199</ele>
        <time>2020-03-08T20:42:17.901Z</time>
      </trkpt>
      <trkpt lat="44.86292" lon="3.24868">
        <ele>1027.568566</ele>
        <time>2020-03-08T20:42:35.363Z</time>
      </trkpt>
      <trkpt lat="44.86224" lon="3.24911">
        <ele>1032.722484</ele>
        <time>2020-03-08T20:43:06.143Z</time>
      </trkpt>
      <trkpt lat="44.86199" lon="3.24966">
        <ele>1035.328419</ele>
        <time>2020-03-08T20:43:24.091Z</time>
      </trkpt>
      <trkpt lat="44.86177" lon="3.24988">
        <ele>1036.837095</ele>
        <time>2020-03-08T20:43:34.056Z</time>
      </trkpt>
      <trkpt lat="44.86051" lon="3.25014">
        <ele>1043.823851</ele>
        <time>2020-03-08T20:44:17.939Z</time>
      </trkpt>
      <trkpt lat="44.8604" lon="3.25022">
        <ele>1044.458617</ele>
        <time>2020-03-08T20:44:22.062Z</time>
      </trkpt>
      <trkpt lat="44.86039" lon="3.25038">
        <ele>1045.094484</ele>
        <time>2020-03-08T20:44:26.285Z</time>
      </trkpt>
      <trkpt lat="44.86046" lon="3.25056">
        <ele>1045.857096</ele>
        <time>2020-03-08T20:44:31.433Z</time>
      </trkpt>
      <trkpt lat="44.861" lon="3.25077">
        <ele>1048.832005</ele>
        <time>2020-03-08T20:44:51.780Z</time>
      </trkpt>
      <trkpt lat="44.86255" lon="3.25095">
        <ele>1057.22187</ele>
        <time>2020-03-08T20:45:51.376Z</time>
      </trkpt>
      <trkpt lat="44.86263" lon="3.25109">
        <ele>1057.917372</ele>
        <time>2020-03-08T20:45:57.110Z</time>
      </trkpt>
      <trkpt lat="44.86263" lon="3.2514">
        <ele>1059.091683</ele>
        <time>2020-03-08T20:46:03.644Z</time>
      </trkpt>
      <trkpt lat="44.86263" lon="3.25153">
        <ele>1059.575249</ele>
        <time>2020-03-08T20:46:07.899Z</time>
      </trkpt>
      <trkpt lat="44.86266" lon="3.25159">
        <ele>1059.869704</ele>
        <time>2020-03-08T20:46:09.781Z</time>
      </trkpt>
      <trkpt lat="44.86276" lon="3.25168">
        <ele>1060.47628</ele>
        <time>2020-03-08T20:46:12.897Z</time>
      </trkpt>
      <trkpt lat="44.86303" lon="3.25173">
        <ele>1061.055378</ele>
        <time>2020-03-08T20:46:22.221Z</time>
      </trkpt>
      <trkpt lat="44.8646" lon="3.25194">
        <ele>1064.215277</ele>
        <time>2020-03-08T20:46:56.777Z</time>
      </trkpt>
      <trkpt lat="44.86495" lon="3.25197">
        <ele>1063.873741</ele>
        <time>2020-03-08T20:47:01.059Z</time>
      </trkpt>
      <trkpt lat="44.86507" lon="3.25197">
        <ele>1063.753808</ele>
        <time>2020-03-08T20:47:02.314Z</time>
      </trkpt>
      <trkpt lat="44.86604" lon="3.25166">
        <ele>1062.776953</ele>
        <time>2020-03-08T20:47:13.661Z</time>
      </trkpt>
      <trkpt lat="44.86622" lon="3.25153">
        <ele>1062.576639</ele>
        <time>2020-03-08T20:47:15.933Z</time>
      </trkpt>
      <trkpt lat="44.86646" lon="3.25123">
        <ele>1062.830876</ele>
        <time>2020-03-08T20:47:19.754Z</time>
      </trkpt>
      <trkpt lat="44.86695" lon="3.25092">
        <ele>1063.561278</ele>
        <time>2020-03-08T20:47:28.314Z</time>
      </trkpt>
      <trkpt lat="44.86738" lon="3.25072">
        <ele>1064.17786</ele>
        <time>2020-03-08T20:47:38.851Z</time>
      </trkpt>
      <trkpt lat="44.86757" lon="3.25066">
        <ele>1064.442511</ele>
        <time>2020-03-08T20:47:43.370Z</time>
      </trkpt>
      <trkpt lat="44.86762" lon="3.25064">
        <ele>1064.507725</ele>
        <time>2020-03-08T20:47:44.642Z</time>
      </trkpt>
      <trkpt lat="44.86777" lon="3.25069">
        <ele>1064.722451</ele>
        <time>2020-03-08T20:47:49.544Z</time>
      </trkpt>
      <trkpt lat="44.86796" lon="3.25077">
        <ele>1065.056877</ele>
        <time>2020-03-08T20:47:54.424Z</time>
      </trkpt>
      <trkpt lat="44.8681" lon="3.25092">
        <ele>1065.750079</ele>
        <time>2020-03-08T20:48:00.294Z</time>
      </trkpt>
      <trkpt lat="44.8681" lon="3.25105">
        <ele>1066.102756</ele>
        <time>2020-03-08T20:48:02.789Z</time>
      </trkpt>
      <trkpt lat="44.86813" lon="3.25116">
        <ele>1066.455399</ele>
        <time>2020-03-08T20:48:05.172Z</time>
      </trkpt>
      <trkpt lat="44.86821" lon="3.25126">
        <ele>1066.851376</ele>
        <time>2020-03-08T20:48:08.842Z</time>
      </trkpt>
      <trkpt lat="44.86831" lon="3.25129">
        <ele>1067.244349</ele>
        <time>2020-03-08T20:48:12.269Z</time>
      </trkpt>
      <trkpt lat="44.8684" lon="3.25126">
        <ele>1067.641076</ele>
        <time>2020-03-08T20:48:15.158Z</time>
      </trkpt>
      <trkpt lat="44.86852" lon="3.25131">
        <ele>1068.097337</ele>
        <time>2020-03-08T20:48:19.241Z</time>
      </trkpt>
      <trkpt lat="44.8687" lon="3.25145">
        <ele>1068.936038</ele>
        <time>2020-03-08T20:48:26.475Z</time>
      </trkpt>
      <trkpt lat="44.86911" lon="3.25194">
        <ele>1071.024495</ele>
        <time>2020-03-08T20:48:43.416Z</time>
      </trkpt>
      <trkpt lat="44.8693" lon="3.25218">
        <ele>1072.005135</ele>
        <time>2020-03-08T20:48:52.232Z</time>
      </trkpt>
      <trkpt lat="44.86974" lon="3.2527">
        <ele>1073.098455</ele>
        <time>2020-03-08T20:49:07.761Z</time>
      </trkpt>
      <trkpt lat="44.87002" lon="3.25308">
        <ele>1073.846916</ele>
        <time>2020-03-08T20:49:15.869Z</time>
      </trkpt>
      <trkpt lat="44.87019" lon="3.25337">
        <ele>1074.347011</ele>
        <time>2020-03-08T20:49:21.003Z</time>
      </trkpt>
      <trkpt lat="44.87018" lon="3.25353">
        <ele>1074.56063</ele>
        <time>2020-03-08T20:49:23.507Z</time>
      </trkpt>
      <trkpt lat="44.87016" lon="3.25364">
        <ele>1074.710745</ele>
        <time>2020-03-08T20:49:24.943Z</time>
      </trkpt>
      <trkpt lat="44.87014" lon="3.25368">
        <ele>1074.777759</ele>
        <time>2020-03-08T20:49:25.710Z</time>
      </trkpt>
      <trkpt lat="44.87009" lon="3.25378">
        <ele>1074.949824</ele>
        <time>2020-03-08T20:49:27.106Z</time>
      </trkpt>
      <trkpt lat="44.87007" lon="3.25391">
        <ele>1075.121871</ele>
        <time>2020-03-08T20:49:29.303Z</time>
      </trkpt>
      <trkpt lat="44.87007" lon="3.25403">
        <ele>1075.293236</ele>
        <time>2020-03-08T20:49:31.047Z</time>
      </trkpt>
      <trkpt lat="44.8701" lon="3.25416">
        <ele>1075.386159</ele>
        <time>2020-03-08T20:49:32.835Z</time>
      </trkpt>
      <trkpt lat="44.87019" lon="3.25431">
        <ele>1075.245558</ele>
        <time>2020-03-08T20:49:35.680Z</time>
      </trkpt>
      <trkpt lat="44.87032" lon="3.25439">
        <ele>1075.103859</ele>
        <time>2020-03-08T20:49:37.869Z</time>
      </trkpt>
      <trkpt lat="44.87046" lon="3.25438">
        <ele>1074.965919</ele>
        <time>2020-03-08T20:49:39.973Z</time>
      </trkpt>
      <trkpt lat="44.87056" lon="3.25447">
        <ele>1074.841433</ele>
        <time>2020-03-08T20:49:41.801Z</time>
      </trkpt>
      <trkpt lat="44.87067" lon="3.25463">
        <ele>1074.674465</ele>
        <time>2020-03-08T20:49:43.832Z</time>
      </trkpt>
      <trkpt lat="44.8707" lon="3.25476">
        <ele>1074.579036</ele>
        <time>2020-03-08T20:49:45.084Z</time>
      </trkpt>
      <trkpt lat="44.87069" lon="3.25494">
        <ele>1074.446228</ele>
        <time>2020-03-08T20:49:46.747Z</time>
      </trkpt>
      <trkpt lat="44.87062" lon="3.25568">
        <ele>1073.906801</ele>
        <time>2020-03-08T20:49:52.603Z</time>
      </trkpt>
      <trkpt lat="44.87062" lon="3.25575">
        <ele>1073.856894</ele>
        <time>2020-03-08T20:49:53.274Z</time>
      </trkpt>
      <trkpt lat="44.87065" lon="3.25715">
        <ele>1070.433096</ele>
        <time>2020-03-08T20:50:03.421Z</time>
      </trkpt>
      <trkpt lat="44.87076" lon="3.25759">
        <ele>1068.973574</ele>
        <time>2020-03-08T20:50:06.658Z</time>
      </trkpt>
      <trkpt lat="44.87112" lon="3.25836">
        <ele>1066.11793</ele>
        <time>2020-03-08T20:50:12.755Z</time>
      </trkpt>
      <trkpt lat="44.87125" lon="3.25881">
        <ele>1064.00872</ele>
        <time>2020-03-08T20:50:15.908Z</time>
      </trkpt>
      <trkpt lat="44.87114" lon="3.25992">
        <ele>1058.642058</ele>
        <time>2020-03-08T20:50:23.145Z</time>
      </trkpt>
      <trkpt lat="44.87135" lon="3.26045">
        <ele>1055.770831</ele>
        <time>2020-03-08T20:50:26.976Z</time>
      </trkpt>
      <trkpt lat="44.87261" lon="3.26242">
        <ele>1041.818917</ele>
        <time>2020-03-08T20:50:43.719Z</time>
      </trkpt>
      <trkpt lat="44.87271" lon="3.26273">
        <ele>1040.015592</ele>
        <time>2020-03-08T20:50:45.848Z</time>
      </trkpt>
      <trkpt lat="44.87265" lon="3.26285">
        <ele>1039.399847</ele>
        <time>2020-03-08T20:50:46.743Z</time>
      </trkpt>
      <trkpt lat="44.87266" lon="3.26298">
        <ele>1038.799129</ele>
        <time>2020-03-08T20:50:47.585Z</time>
      </trkpt>
      <trkpt lat="44.87267" lon="3.263">
        <ele>1038.696681</ele>
        <time>2020-03-08T20:50:47.735Z</time>
      </trkpt>
      <trkpt lat="44.8727" lon="3.26307">
        <ele>1038.338212</ele>
        <time>2020-03-08T20:50:48.249Z</time>
      </trkpt>
      <trkpt lat="44.87276" lon="3.26311">
        <ele>1037.91095</ele>
        <time>2020-03-08T20:50:48.856Z</time>
      </trkpt>
      <trkpt lat="44.87285" lon="3.26311">
        <ele>1037.341482</ele>
        <time>2020-03-08T20:50:49.694Z</time>
      </trkpt>
      <trkpt lat="44.87294" lon="3.26301">
        <ele>1036.644933</ele>
        <time>2020-03-08T20:50:50.678Z</time>
      </trkpt>
      <trkpt lat="44.87319" lon="3.26291">
        <ele>1035.027439</ele>
        <time>2020-03-08T20:50:53.046Z</time>
      </trkpt>
      <trkpt lat="44.87351" lon="3.26279">
        <ele>1032.954514</ele>
        <time>2020-03-08T20:50:56.061Z</time>
      </trkpt>
      <trkpt lat="44.87391" lon="3.26271">
        <ele>1030.41592</ele>
        <time>2020-03-08T20:50:59.826Z</time>
      </trkpt>
      <trkpt lat="44.87394" lon="3.2627">
        <ele>1030.244895</ele>
        <time>2020-03-08T20:51:00.066Z</time>
      </trkpt>
      <trkpt lat="44.87421" lon="3.26269">
        <ele>1028.598816</ele>
        <time>2020-03-08T20:51:02.668Z</time>
      </trkpt>
      <trkpt lat="44.87449" lon="3.26281">
        <ele>1027.311068</ele>
        <time>2020-03-08T20:51:05.413Z</time>
      </trkpt>
      <trkpt lat="44.87491" lon="3.26308">
        <ele>1025.24497</ele>
        <time>2020-03-08T20:51:09.875Z</time>
      </trkpt>
      <trkpt lat="44.87643" lon="3.26427">
        <ele>1017.557651</ele>
        <time>2020-03-08T20:51:26.739Z</time>
      </trkpt>
      <trkpt lat="44.87701" lon="3.26432">
        <ele>1014.953212</ele>
        <time>2020-03-08T20:51:32.406Z</time>
      </trkpt>
      <trkpt lat="44.87732" lon="3.26413">
        <ele>1013.467675</ele>
        <time>2020-03-08T20:51:35.618Z</time>
      </trkpt>
      <trkpt lat="44.87749" lon="3.26391">
        <ele>1012.399539</ele>
        <time>2020-03-08T20:51:37.759Z</time>
      </trkpt>
      <trkpt lat="44.87781" lon="3.26376">
        <ele>1010.637039</ele>
        <time>2020-03-08T20:51:40.907Z</time>
      </trkpt>
      <trkpt lat="44.87863" lon="3.26395">
        <ele>1006.296012</ele>
        <time>2020-03-08T20:51:48.628Z</time>
      </trkpt>
      <trkpt lat="44.8788" lon="3.26386">
        <ele>1005.325815</ele>
        <time>2020-03-08T20:51:50.357Z</time>
      </trkpt>
      <trkpt lat="44.87896" lon="3.26359">
        <ele>1004.037362</ele>
        <time>2020-03-08T20:51:52.663Z</time>
      </trkpt>
      <trkpt lat="44.87919" lon="3.26336">
        <ele>1002.461578</ele>
        <time>2020-03-08T20:51:55.377Z</time>
      </trkpt>
      <trkpt lat="44.8794" lon="3.2633">
        <ele>1001.295097</ele>
        <time>2020-03-08T20:51:57.326Z</time>
      </trkpt>
      <trkpt lat="44.8798" lon="3.26344">
        <ele>998.985004</ele>
        <time>2020-03-08T20:52:01.181Z</time>
      </trkpt>
      <trkpt lat="44.88003" lon="3.26336">
        <ele>997.710693</ele>
        <time>2020-03-08T20:52:03.305Z</time>
      </trkpt>
      <trkpt lat="44.8802" lon="3.26305">
        <ele>996.182615</ele>
        <time>2020-03-08T20:52:05.861Z</time>
      </trkpt>
      <trkpt lat="44.88032" lon="3.26268">
        <ele>994.564986</ele>
        <time>2020-03-08T20:52:08.572Z</time>
      </trkpt>
      <trkpt lat="44.88037" lon="3.26213">
        <ele>992.348537</ele>
        <time>2020-03-08T20:52:12.217Z</time>
      </trkpt>
      <trkpt lat="44.8803" lon="3.26156">
        <ele>989.96419</ele>
        <time>2020-03-08T20:52:16.024Z</time>
      </trkpt>
      <trkpt lat="44.88033" lon="3.26137">
        <ele>989.12727</ele>
        <time>2020-03-08T20:52:17.353Z</time>
      </trkpt>
      <trkpt lat="44.88046" lon="3.26124">
        <ele>988.1996</ele>
        <time>2020-03-08T20:52:18.829Z</time>
      </trkpt>
      <trkpt lat="44.8806" lon="3.26122">
        <ele>987.426771</ele>
        <time>2020-03-08T20:52:20.044Z</time>
      </trkpt>
      <trkpt lat="44.88099" lon="3.26177">
        <ele>984.174424</ele>
        <time>2020-03-08T20:52:25.171Z</time>
      </trkpt>
      <trkpt lat="44.88131" lon="3.26203">
        <ele>982.141502</ele>
        <time>2020-03-08T20:52:28.558Z</time>
      </trkpt>
      <trkpt lat="44.88182" lon="3.26256">
        <ele>978.862005</ele>
        <time>2020-03-08T20:52:34.495Z</time>
      </trkpt>
      <trkpt lat="44.88247" lon="3.26312">
        <ele>974.97134</ele>
        <time>2020-03-08T20:52:41.616Z</time>
      </trkpt>
      <trkpt lat="44.88291" lon="3.26346">
        <ele>972.648889</ele>
        <time>2020-03-08T20:52:46.469Z</time>
      </trkpt>
      <trkpt lat="44.88313" lon="3.2636">
        <ele>971.660419</ele>
        <time>2020-03-08T20:52:48.831Z</time>
      </trkpt>
      <trkpt lat="44.88376" lon="3.26381">
        <ele>969.041602</ele>
        <time>2020-03-08T20:52:55.178Z</time>
      </trkpt>
      <trkpt lat="44.88416" lon="3.26379">
        <ele>967.395858</ele>
        <time>2020-03-08T20:52:59.173Z</time>
      </trkpt>
      <trkpt lat="44.88506" lon="3.2635">
        <ele>963.027099</ele>
        <time>2020-03-08T20:53:08.083Z</time>
      </trkpt>
      <trkpt lat="44.88521" lon="3.26334">
        <ele>962.111844</ele>
        <time>2020-03-08T20:53:09.829Z</time>
      </trkpt>
      <trkpt lat="44.88533" lon="3.26295">
        <ele>960.598854</ele>
        <time>2020-03-08T20:53:12.709Z</time>
      </trkpt>
      <trkpt lat="44.88533" lon="3.2625">
        <ele>958.997387</ele>
        <time>2020-03-08T20:53:15.721Z</time>
      </trkpt>
      <trkpt lat="44.88537" lon="3.26225">
        <ele>958.097406</ele>
        <time>2020-03-08T20:53:17.385Z</time>
      </trkpt>
      <trkpt lat="44.88584" lon="3.26165">
        <ele>953.948947</ele>
        <time>2020-03-08T20:53:23.095Z</time>
      </trkpt>
      <trkpt lat="44.88596" lon="3.26156">
        <ele>952.99237</ele>
        <time>2020-03-08T20:53:24.313Z</time>
      </trkpt>
      <trkpt lat="44.8861" lon="3.26159">
        <ele>952.001234</ele>
        <time>2020-03-08T20:53:25.568Z</time>
      </trkpt>
      <trkpt lat="44.88627" lon="3.26181">
        <ele>950.360388</ele>
        <time>2020-03-08T20:53:27.650Z</time>
      </trkpt>
      <trkpt lat="44.88653" lon="3.26238">
        <ele>946.997986</ele>
        <time>2020-03-08T20:53:31.926Z</time>
      </trkpt>
      <trkpt lat="44.88673" lon="3.26334">
        <ele>941.781895</ele>
        <time>2020-03-08T20:53:38.324Z</time>
      </trkpt>
      <trkpt lat="44.88687" lon="3.2636">
        <ele>940.06533</ele>
        <time>2020-03-08T20:53:40.382Z</time>
      </trkpt>
      <trkpt lat="44.8873" lon="3.26391">
        <ele>936.435978</ele>
        <time>2020-03-08T20:53:44.620Z</time>
      </trkpt>
      <trkpt lat="44.88751" lon="3.26394">
        <ele>934.891089</ele>
        <time>2020-03-08T20:53:46.465Z</time>
      </trkpt>
      <trkpt lat="44.88767" lon="3.26381">
        <ele>933.477062</ele>
        <time>2020-03-08T20:53:48.129Z</time>
      </trkpt>
      <trkpt lat="44.88779" lon="3.26369">
        <ele>932.372564</ele>
        <time>2020-03-08T20:53:49.467Z</time>
      </trkpt>
      <trkpt lat="44.8879" lon="3.26374">
        <ele>931.50627</ele>
        <time>2020-03-08T20:53:50.472Z</time>
      </trkpt>
      <trkpt lat="44.88818" lon="3.26411">
        <ele>928.959317</ele>
        <time>2020-03-08T20:53:53.915Z</time>
      </trkpt>
      <trkpt lat="44.8883" lon="3.26437">
        <ele>927.494361</ele>
        <time>2020-03-08T20:53:55.981Z</time>
      </trkpt>
      <trkpt lat="44.88841" lon="3.26447">
        <ele>926.642317</ele>
        <time>2020-03-08T20:53:57.105Z</time>
      </trkpt>
      <trkpt lat="44.88893" lon="3.26458">
        <ele>923.10064</ele>
        <time>2020-03-08T20:54:01.972Z</time>
      </trkpt>
      <trkpt lat="44.88903" lon="3.26464">
        <ele>922.37912</ele>
        <time>2020-03-08T20:54:02.939Z</time>
      </trkpt>
      <trkpt lat="44.88919" lon="3.26494">
        <ele>920.642804</ele>
        <time>2020-03-08T20:54:05.307Z</time>
      </trkpt>
      <trkpt lat="44.88938" lon="3.26552">
        <ele>917.797656</ele>
        <time>2020-03-08T20:54:09.409Z</time>
      </trkpt>
      <trkpt lat="44.88972" lon="3.26556">
        <ele>915.694734</ele>
        <time>2020-03-08T20:54:12.622Z</time>
      </trkpt>
      <trkpt lat="44.88985" lon="3.26565">
        <ele>914.813659</ele>
        <time>2020-03-08T20:54:13.981Z</time>
      </trkpt>
      <trkpt lat="44.89015" lon="3.26653">
        <ele>910.625792</ele>
        <time>2020-03-08T20:54:20.313Z</time>
      </trkpt>
      <trkpt lat="44.89028" lon="3.2667">
        <ele>909.519513</ele>
        <time>2020-03-08T20:54:21.970Z</time>
      </trkpt>
      <trkpt lat="44.89042" lon="3.26673">
        <ele>908.636718</ele>
        <time>2020-03-08T20:54:23.283Z</time>
      </trkpt>
      <trkpt lat="44.89096" lon="3.26662">
        <ele>904.797628</ele>
        <time>2020-03-08T20:54:28.172Z</time>
      </trkpt>
      <trkpt lat="44.89121" lon="3.26674">
        <ele>902.877533</ele>
        <time>2020-03-08T20:54:30.578Z</time>
      </trkpt>
      <trkpt lat="44.89135" lon="3.26668">
        <ele>901.82177</ele>
        <time>2020-03-08T20:54:31.904Z</time>
      </trkpt>
      <trkpt lat="44.89151" lon="3.26648">
        <ele>900.286066</ele>
        <time>2020-03-08T20:54:33.824Z</time>
      </trkpt>
      <trkpt lat="44.89177" lon="3.26646">
        <ele>898.369501</ele>
        <time>2020-03-08T20:54:36.200Z</time>
      </trkpt>
      <trkpt lat="44.89198" lon="3.2665">
        <ele>896.849074</ele>
        <time>2020-03-08T20:54:38.071Z</time>
      </trkpt>
      <trkpt lat="44.89218" lon="3.26664">
        <ele>895.24259</ele>
        <time>2020-03-08T20:54:39.984Z</time>
      </trkpt>
      <trkpt lat="44.89249" lon="3.26697">
        <ele>891.783819</ele>
        <time>2020-03-08T20:54:43.384Z</time>
      </trkpt>
      <trkpt lat="44.89262" lon="3.26697">
        <ele>890.632208</ele>
        <time>2020-03-08T20:54:44.520Z</time>
      </trkpt>
      <trkpt lat="44.89284" lon="3.26674">
        <ele>888.152936</ele>
        <time>2020-03-08T20:54:46.955Z</time>
      </trkpt>
      <trkpt lat="44.89293" lon="3.26673">
        <ele>887.382236</ele>
        <time>2020-03-08T20:54:47.712Z</time>
      </trkpt>
      <trkpt lat="44.89346" lon="3.26701">
        <ele>882.349871</ele>
        <time>2020-03-08T20:54:52.612Z</time>
      </trkpt>
      <trkpt lat="44.89405" lon="3.2672">
        <ele>876.771698</ele>
        <time>2020-03-08T20:54:57.831Z</time>
      </trkpt>
      <trkpt lat="44.89415" lon="3.26736">
        <ele>875.35378</ele>
        <time>2020-03-08T20:54:59.106Z</time>
      </trkpt>
      <trkpt lat="44.89424" lon="3.2678">
        <ele>872.232588</ele>
        <time>2020-03-08T20:55:01.908Z</time>
      </trkpt>
      <trkpt lat="44.89434" lon="3.268">
        <ele>870.581872</ele>
        <time>2020-03-08T20:55:03.389Z</time>
      </trkpt>
      <trkpt lat="44.89513" lon="3.26857">
        <ele>862.107833</ele>
        <time>2020-03-08T20:55:11.084Z</time>
      </trkpt>
      <trkpt lat="44.89536" lon="3.2688">
        <ele>860.159793</ele>
        <time>2020-03-08T20:55:13.562Z</time>
      </trkpt>
      <trkpt lat="44.89577" lon="3.26952">
        <ele>855.657222</ele>
        <time>2020-03-08T20:55:19.384Z</time>
      </trkpt>
      <trkpt lat="44.89608" lon="3.26978">
        <ele>853.228385</ele>
        <time>2020-03-08T20:55:22.600Z</time>
      </trkpt>
      <trkpt lat="44.89614" lon="3.26997">
        <ele>852.186952</ele>
        <time>2020-03-08T20:55:24.002Z</time>
      </trkpt>
      <trkpt lat="44.89603" lon="3.27001">
        <ele>851.433322</ele>
        <time>2020-03-08T20:55:25.031Z</time>
      </trkpt>
      <trkpt lat="44.89581" lon="3.26982">
        <ele>849.750015</ele>
        <time>2020-03-08T20:55:27.499Z</time>
      </trkpt>
      <trkpt lat="44.89533" lon="3.26922">
        <ele>847.823945</ele>
        <time>2020-03-08T20:55:33.947Z</time>
      </trkpt>
      <trkpt lat="44.89493" lon="3.26898">
        <ele>846.534385</ele>
        <time>2020-03-08T20:55:38.426Z</time>
      </trkpt>
      <trkpt lat="44.89429" lon="3.26886">
        <ele>844.582525</ele>
        <time>2020-03-08T20:55:45.439Z</time>
      </trkpt>
      <trkpt lat="44.89333" lon="3.26836">
        <ele>841.290113</ele>
        <time>2020-03-08T20:55:56.574Z</time>
      </trkpt>
      <trkpt lat="44.89325" lon="3.2684">
        <ele>841.025875</ele>
        <time>2020-03-08T20:55:57.420Z</time>
      </trkpt>
      <trkpt lat="44.89326" lon="3.26848">
        <ele>840.838838</ele>
        <time>2020-03-08T20:55:58.007Z</time>
      </trkpt>
      <trkpt lat="44.89347" lon="3.26857">
        <ele>840.150239</ele>
        <time>2020-03-08T20:56:00.156Z</time>
      </trkpt>
      <trkpt lat="44.89445" lon="3.26938">
        <ele>834.918022</ele>
        <time>2020-03-08T20:56:10.831Z</time>
      </trkpt>
      <trkpt lat="44.89483" lon="3.26991">
        <ele>831.892454</ele>
        <time>2020-03-08T20:56:15.770Z</time>
      </trkpt>
      <trkpt lat="44.89519" lon="3.27024">
        <ele>829.53159</ele>
        <time>2020-03-08T20:56:19.641Z</time>
      </trkpt>
      <trkpt lat="44.89572" lon="3.27092">
        <ele>826.811754</ele>
        <time>2020-03-08T20:56:26.354Z</time>
      </trkpt>
      <trkpt lat="44.89584" lon="3.27122">
        <ele>826.012707</ele>
        <time>2020-03-08T20:56:28.809Z</time>
      </trkpt>
      <trkpt lat="44.89601" lon="3.27142">
        <ele>825.318184</ele>
        <time>2020-03-08T20:56:31.237Z</time>
      </trkpt>
      <trkpt lat="44.89609" lon="3.27144">
        <ele>825.02732</ele>
        <time>2020-03-08T20:56:32.134Z</time>
      </trkpt>
      <trkpt lat="44.89634" lon="3.27134">
        <ele>824.194241</ele>
        <time>2020-03-08T20:56:35.046Z</time>
      </trkpt>
      <trkpt lat="44.89699" lon="3.27064">
        <ele>821.787055</ele>
        <time>2020-03-08T20:56:44.417Z</time>
      </trkpt>
      <trkpt lat="44.89722" lon="3.2704">
        <ele>821.041708</ele>
        <time>2020-03-08T20:56:48.258Z</time>
      </trkpt>
      <trkpt lat="44.89759" lon="3.27004">
        <ele>819.89452</ele>
        <time>2020-03-08T20:56:52.627Z</time>
      </trkpt>
      <trkpt lat="44.89851" lon="3.26923">
        <ele>817.088597</ele>
        <time>2020-03-08T20:57:03.783Z</time>
      </trkpt>
      <trkpt lat="44.89854" lon="3.26923">
        <ele>817.007481</ele>
        <time>2020-03-08T20:57:04.050Z</time>
      </trkpt>
      <trkpt lat="44.89857" lon="3.26923">
        <ele>816.939055</ele>
        <time>2020-03-08T20:57:04.282Z</time>
      </trkpt>
      <trkpt lat="44.89863" lon="3.2693">
        <ele>816.753023</ele>
        <time>2020-03-08T20:57:04.974Z</time>
      </trkpt>
      <trkpt lat="44.89886" lon="3.26966">
        <ele>815.870226</ele>
        <time>2020-03-08T20:57:08.381Z</time>
      </trkpt>
      <trkpt lat="44.8989" lon="3.26974">
        <ele>815.707494</ele>
        <time>2020-03-08T20:57:10.072Z</time>
      </trkpt>
      <trkpt lat="44.89889" lon="3.26986">
        <ele>815.495528</ele>
        <time>2020-03-08T20:57:11.038Z</time>
      </trkpt>
      <trkpt lat="44.89873" lon="3.27034">
        <ele>814.540464</ele>
        <time>2020-03-08T20:57:15.015Z</time>
      </trkpt>
      <trkpt lat="44.89846" lon="3.27065">
        <ele>813.663671</ele>
        <time>2020-03-08T20:57:18.829Z</time>
      </trkpt>
      <trkpt lat="44.89815" lon="3.27085">
        <ele>814.566754</ele>
        <time>2020-03-08T20:57:22.908Z</time>
      </trkpt>
      <trkpt lat="44.89804" lon="3.27103">
        <ele>815.201805</ele>
        <time>2020-03-08T20:57:26.174Z</time>
      </trkpt>
      <trkpt lat="44.89789" lon="3.27133">
        <ele>816.115757</ele>
        <time>2020-03-08T20:57:34.016Z</time>
      </trkpt>
      <trkpt lat="44.89765" lon="3.27206">
        <ele>818.151831</ele>
        <time>2020-03-08T20:57:52.760Z</time>
      </trkpt>
      <trkpt lat="44.89753" lon="3.27229">
        <ele>818.865298</ele>
        <time>2020-03-08T20:58:00.278Z</time>
      </trkpt>
      <trkpt lat="44.89729" lon="3.27253">
        <ele>819.931939</ele>
        <time>2020-03-08T20:58:12.337Z</time>
      </trkpt>
      <trkpt lat="44.8972" lon="3.27276">
        <ele>821.387551</ele>
        <time>2020-03-08T20:58:20.484Z</time>
      </trkpt>
      <trkpt lat="44.8972" lon="3.27304">
        <ele>822.988918</ele>
        <time>2020-03-08T20:58:29.518Z</time>
      </trkpt>
      <trkpt lat="44.89752" lon="3.27404">
        <ele>829.256122</ele>
        <time>2020-03-08T20:59:08.490Z</time>
      </trkpt>
      <trkpt lat="44.89761" lon="3.27459">
        <ele>832.494152</ele>
        <time>2020-03-08T20:59:29.093Z</time>
      </trkpt>
      <trkpt lat="44.89765" lon="3.27565">
        <ele>837.022895</ele>
        <time>2020-03-08T21:00:03.795Z</time>
      </trkpt>
      <trkpt lat="44.89749" lon="3.27577">
        <ele>837.913755</ele>
        <time>2020-03-08T21:00:10.739Z</time>
      </trkpt>
      <trkpt lat="44.89693" lon="3.27533">
        <ele>841.090915</ele>
        <time>2020-03-08T21:00:30.313Z</time>
      </trkpt>
      <trkpt lat="44.89678" lon="3.27535">
        <ele>841.848603</ele>
        <time>2020-03-08T21:00:34.419Z</time>
      </trkpt>
      <trkpt lat="44.89632" lon="3.27611">
        <ele>845.087616</ele>
        <time>2020-03-08T21:00:52.295Z</time>
      </trkpt>
      <trkpt lat="44.89608" lon="3.27638">
        <ele>846.373861</ele>
        <time>2020-03-08T21:00:59.479Z</time>
      </trkpt>
      <trkpt lat="44.89603" lon="3.27653">
        <ele>846.866862</ele>
        <time>2020-03-08T21:01:02.410Z</time>
      </trkpt>
      <trkpt lat="44.89604" lon="3.27679">
        <ele>847.647659</ele>
        <time>2020-03-08T21:01:07.492Z</time>
      </trkpt>
      <trkpt lat="44.89659" lon="3.27825">
        <ele>854.233194</ele>
        <time>2020-03-08T21:01:51.888Z</time>
      </trkpt>
      <trkpt lat="44.89667" lon="3.27838">
        <ele>855.33859</ele>
        <time>2020-03-08T21:01:58.078Z</time>
      </trkpt>
      <trkpt lat="44.89705" lon="3.27836">
        <ele>858.691898</ele>
        <time>2020-03-08T21:02:18.535Z</time>
      </trkpt>
      <trkpt lat="44.8973" lon="3.27822">
        <ele>861.000194</ele>
        <time>2020-03-08T21:02:33.073Z</time>
      </trkpt>
      <trkpt lat="44.89766" lon="3.27759">
        <ele>866.055863</ele>
        <time>2020-03-08T21:03:05.237Z</time>
      </trkpt>
      <trkpt lat="44.89792" lon="3.27735">
        <ele>868.31917</ele>
        <time>2020-03-08T21:03:21.998Z</time>
      </trkpt>
      <trkpt lat="44.89825" lon="3.27715">
        <ele>870.770546</ele>
        <time>2020-03-08T21:03:40.655Z</time>
      </trkpt>
      <trkpt lat="44.89885" lon="3.277">
        <ele>874.849268</ele>
        <time>2020-03-08T21:04:06.880Z</time>
      </trkpt>
      <trkpt lat="44.89937" lon="3.27629">
        <ele>879.195716</ele>
        <time>2020-03-08T21:04:29.692Z</time>
      </trkpt>
      <trkpt lat="44.89997" lon="3.27596">
        <ele>880.511756</ele>
        <time>2020-03-08T21:04:44.191Z</time>
      </trkpt>
      <trkpt lat="44.90007" lon="3.27586">
        <ele>880.762641</ele>
        <time>2020-03-08T21:04:46.609Z</time>
      </trkpt>
      <trkpt lat="44.90004" lon="3.27557">
        <ele>881.185317</ele>
        <time>2020-03-08T21:04:50.550Z</time>
      </trkpt>
      <trkpt lat="44.89991" lon="3.27544">
        <ele>881.503131</ele>
        <time>2020-03-08T21:04:53.440Z</time>
      </trkpt>
      <trkpt lat="44.89933" lon="3.27515">
        <ele>882.881636</ele>
        <time>2020-03-08T21:05:05.041Z</time>
      </trkpt>
      <trkpt lat="44.89925" lon="3.275">
        <ele>883.457802</ele>
        <time>2020-03-08T21:05:07.789Z</time>
      </trkpt>
      <trkpt lat="44.89941" lon="3.27305">
        <ele>889.287829</ele>
        <time>2020-03-08T21:05:51.465Z</time>
      </trkpt>
      <trkpt lat="44.89952" lon="3.2727">
        <ele>890.604909</ele>
        <time>2020-03-08T21:06:03.003Z</time>
      </trkpt>
      <trkpt lat="44.89975" lon="3.27247">
        <ele>892.749672</ele>
        <time>2020-03-08T21:06:15.646Z</time>
      </trkpt>
      <trkpt lat="44.90006" lon="3.27239">
        <ele>895.121722</ele>
        <time>2020-03-08T21:06:30.108Z</time>
      </trkpt>
      <trkpt lat="44.90137" lon="3.27245">
        <ele>904.880131</ele>
        <time>2020-03-08T21:07:32.765Z</time>
      </trkpt>
      <trkpt lat="44.90266" lon="3.27259">
        <ele>913.312375</ele>
        <time>2020-03-08T21:08:26.247Z</time>
      </trkpt>
      <trkpt lat="44.90324" lon="3.27253">
        <ele>916.447251</ele>
        <time>2020-03-08T21:08:46.527Z</time>
      </trkpt>
      <trkpt lat="44.90334" lon="3.27259">
        <ele>916.887796</ele>
        <time>2020-03-08T21:08:50.381Z</time>
      </trkpt>
      <trkpt lat="44.90399" lon="3.27329">
        <ele>920.102432</ele>
        <time>2020-03-08T21:09:16.647Z</time>
      </trkpt>
      <trkpt lat="44.90457" lon="3.27359">
        <ele>922.547161</ele>
        <time>2020-03-08T21:09:33.108Z</time>
      </trkpt>
      <trkpt lat="44.90479" lon="3.27367">
        <ele>922.904998</ele>
        <time>2020-03-08T21:09:38.666Z</time>
      </trkpt>
      <trkpt lat="44.90462" lon="3.27383">
        <ele>923.194831</ele>
        <time>2020-03-08T21:09:42.887Z</time>
      </trkpt>
      <trkpt lat="44.9045" lon="3.27383">
        <ele>923.374807</ele>
        <time>2020-03-08T21:09:45.710Z</time>
      </trkpt>
      <trkpt lat="44.90382" lon="3.27335">
        <ele>924.486035</ele>
        <time>2020-03-08T21:10:00.404Z</time>
      </trkpt>
      <trkpt lat="44.90353" lon="3.27344">
        <ele>924.924136</ele>
        <time>2020-03-08T21:10:06.020Z</time>
      </trkpt>
      <trkpt lat="44.90339" lon="3.27362">
        <ele>925.19683</ele>
        <time>2020-03-08T21:10:09.473Z</time>
      </trkpt>
      <trkpt lat="44.90328" lon="3.27451">
        <ele>926.100894</ele>
        <time>2020-03-08T21:10:20.932Z</time>
      </trkpt>
      <trkpt lat="44.90332" lon="3.27488">
        <ele>926.476514</ele>
        <time>2020-03-08T21:10:26.023Z</time>
      </trkpt>
      <trkpt lat="44.90342" lon="3.27514">
        <ele>926.769687</ele>
        <time>2020-03-08T21:10:30.490Z</time>
      </trkpt>
      <trkpt lat="44.9038" lon="3.27611">
        <ele>927.874407</ele>
        <time>2020-03-08T21:10:47.741Z</time>
      </trkpt>
      <trkpt lat="44.90386" lon="3.27638">
        <ele>928.19373</ele>
        <time>2020-03-08T21:10:52.782Z</time>
      </trkpt>
      <trkpt lat="44.90384" lon="3.27659">
        <ele>928.424763</ele>
        <time>2020-03-08T21:10:56.406Z</time>
      </trkpt>
      <trkpt lat="44.90353" lon="3.27745">
        <ele>929.487588</ele>
        <time>2020-03-08T21:11:12.894Z</time>
      </trkpt>
      <trkpt lat="44.90343" lon="3.27755">
        <ele>929.670672</ele>
        <time>2020-03-08T21:11:15.413Z</time>
      </trkpt>
      <trkpt lat="44.90328" lon="3.27754">
        <ele>929.902071</ele>
        <time>2020-03-08T21:11:18.471Z</time>
      </trkpt>
      <trkpt lat="44.90241" lon="3.27716">
        <ele>929.870576</ele>
        <time>2020-03-08T21:11:32.799Z</time>
      </trkpt>
      <trkpt lat="44.90222" lon="3.27718">
        <ele>929.598545</ele>
        <time>2020-03-08T21:11:35.296Z</time>
      </trkpt>
      <trkpt lat="44.90122" lon="3.27768">
        <ele>928.138894</ele>
        <time>2020-03-08T21:11:46.843Z</time>
      </trkpt>
      <trkpt lat="44.9006" lon="3.27807">
        <ele>926.430738</ele>
        <time>2020-03-08T21:11:53.674Z</time>
      </trkpt>
      <trkpt lat="44.90043" lon="3.27829">
        <ele>925.82021</ele>
        <time>2020-03-08T21:11:56.025Z</time>
      </trkpt>
      <trkpt lat="44.9001" lon="3.27893">
        <ele>924.352907</ele>
        <time>2020-03-08T21:12:01.793Z</time>
      </trkpt>
      <trkpt lat="44.90006" lon="3.27916">
        <ele>923.907897</ele>
        <time>2020-03-08T21:12:03.598Z</time>
      </trkpt>
      <trkpt lat="44.89999" lon="3.28084">
        <ele>922.672762</ele>
        <time>2020-03-08T21:12:17.792Z</time>
      </trkpt>
      <trkpt lat="44.89971" lon="3.28229">
        <ele>922.317475</ele>
        <time>2020-03-08T21:12:33.745Z</time>
      </trkpt>
      <trkpt lat="44.8994" lon="3.28265">
        <ele>922.676336</ele>
        <time>2020-03-08T21:12:40.729Z</time>
      </trkpt>
      <trkpt lat="44.89935" lon="3.28291">
        <ele>922.854691</ele>
        <time>2020-03-08T21:12:44.513Z</time>
      </trkpt>
      <trkpt lat="44.8994" lon="3.28331">
        <ele>923.107876</ele>
        <time>2020-03-08T21:12:49.887Z</time>
      </trkpt>
      <trkpt lat="44.8994" lon="3.28358">
        <ele>923.286096</ele>
        <time>2020-03-08T21:12:53.940Z</time>
      </trkpt>
      <trkpt lat="44.89935" lon="3.28376">
        <ele>923.40653</ele>
        <time>2020-03-08T21:12:56.501Z</time>
      </trkpt>
      <trkpt lat="44.89866" lon="3.28511">
        <ele>925.090924</ele>
        <time>2020-03-08T21:13:20.750Z</time>
      </trkpt>
      <trkpt lat="44.89858" lon="3.28546">
        <ele>925.528499</ele>
        <time>2020-03-08T21:13:26.467Z</time>
      </trkpt>
      <trkpt lat="44.89848" lon="3.28652">
        <ele>926.749067</ele>
        <time>2020-03-08T21:13:44.013Z</time>
      </trkpt>
      <trkpt lat="44.89838" lon="3.28689">
        <ele>927.045942</ele>
        <time>2020-03-08T21:13:50.119Z</time>
      </trkpt>
      <trkpt lat="44.89822" lon="3.28723">
        <ele>927.358852</ele>
        <time>2020-03-08T21:13:56.206Z</time>
      </trkpt>
      <trkpt lat="44.89789" lon="3.28772">
        <ele>927.876074</ele>
        <time>2020-03-08T21:14:05.385Z</time>
      </trkpt>
      <trkpt lat="44.89739" lon="3.28821">
        <ele>928.534078</ele>
        <time>2020-03-08T21:14:15.391Z</time>
      </trkpt>
      <trkpt lat="44.89728" lon="3.28844">
        <ele>928.700591</ele>
        <time>2020-03-08T21:14:18.364Z</time>
      </trkpt>
      <trkpt lat="44.89683" lon="3.29032">
        <ele>929.631994</ele>
        <time>2020-03-08T21:14:42.297Z</time>
      </trkpt>
      <trkpt lat="44.89689" lon="3.29134">
        <ele>930.600517</ele>
        <time>2020-03-08T21:14:56.262Z</time>
      </trkpt>
      <trkpt lat="44.89701" lon="3.29198">
        <ele>931.44506</ele>
        <time>2020-03-08T21:15:06.737Z</time>
      </trkpt>
      <trkpt lat="44.89766" lon="3.29305">
        <ele>933.213122</ele>
        <time>2020-03-08T21:15:30.634Z</time>
      </trkpt>
      <trkpt lat="44.89819" lon="3.29375">
        <ele>934.423756</ele>
        <time>2020-03-08T21:15:47.434Z</time>
      </trkpt>
      <trkpt lat="44.89859" lon="3.29408">
        <ele>935.179289</ele>
        <time>2020-03-08T21:15:57.133Z</time>
      </trkpt>
      <trkpt lat="44.89902" lon="3.29425">
        <ele>935.924564</ele>
        <time>2020-03-08T21:16:05.936Z</time>
      </trkpt>
      <trkpt lat="44.89926" lon="3.29428">
        <ele>935.981708</ele>
        <time>2020-03-08T21:16:10.535Z</time>
      </trkpt>
      <trkpt lat="44.89963" lon="3.29439">
        <ele>935.914101</ele>
        <time>2020-03-08T21:16:17.182Z</time>
      </trkpt>
      <trkpt lat="44.90003" lon="3.29468">
        <ele>935.833801</ele>
        <time>2020-03-08T21:16:24.216Z</time>
      </trkpt>
      <trkpt lat="44.90109" lon="3.29482">
        <ele>934.625521</ele>
        <time>2020-03-08T21:16:37.112Z</time>
      </trkpt>
      <trkpt lat="44.90156" lon="3.29472">
        <ele>932.792667</ele>
        <time>2020-03-08T21:16:42.118Z</time>
      </trkpt>
      <trkpt lat="44.90259" lon="3.29476">
        <ele>928.854151</ele>
        <time>2020-03-08T21:16:51.906Z</time>
      </trkpt>
      <trkpt lat="44.90284" lon="3.29483">
        <ele>927.046853</ele>
        <time>2020-03-08T21:16:54.166Z</time>
      </trkpt>
      <trkpt lat="44.90296" lon="3.29504">
        <ele>925.63351</ele>
        <time>2020-03-08T21:16:55.890Z</time>
      </trkpt>
      <trkpt lat="44.90299" lon="3.29519">
        <ele>924.784282</ele>
        <time>2020-03-08T21:16:56.920Z</time>
      </trkpt>
      <trkpt lat="44.90287" lon="3.29639">
        <ele>918.49342</ele>
        <time>2020-03-08T21:17:04.470Z</time>
      </trkpt>
      <trkpt lat="44.90287" lon="3.29839">
        <ele>908.626781</ele>
        <time>2020-03-08T21:17:17.048Z</time>
      </trkpt>
      <trkpt lat="44.90295" lon="3.29878">
        <ele>906.667435</ele>
        <time>2020-03-08T21:17:19.677Z</time>
      </trkpt>
      <trkpt lat="44.903" lon="3.2989">
        <ele>905.957759</ele>
        <time>2020-03-08T21:17:20.631Z</time>
      </trkpt>
      <trkpt lat="44.90309" lon="3.2991">
        <ele>904.8338</ele>
        <time>2020-03-08T21:17:22.163Z</time>
      </trkpt>
      <trkpt lat="44.90276" lon="3.30048">
        <ele>900.170029</ele>
        <time>2020-03-08T21:17:32.069Z</time>
      </trkpt>
      <trkpt lat="44.90278" lon="3.30143">
        <ele>897.548115</ele>
        <time>2020-03-08T21:17:38.845Z</time>
      </trkpt>
      <trkpt lat="44.9027" lon="3.30178">
        <ele>896.529847</ele>
        <time>2020-03-08T21:17:41.495Z</time>
      </trkpt>
      <trkpt lat="44.90245" lon="3.30254">
        <ele>894.81134</ele>
        <time>2020-03-08T21:17:47.571Z</time>
      </trkpt>
      <trkpt lat="44.90242" lon="3.30266">
        <ele>894.564372</ele>
        <time>2020-03-08T21:17:48.487Z</time>
      </trkpt>
      <trkpt lat="44.90215" lon="3.30339">
        <ele>892.933216</ele>
        <time>2020-03-08T21:17:54.564Z</time>
      </trkpt>
      <trkpt lat="44.90189" lon="3.30374">
        <ele>891.931163</ele>
        <time>2020-03-08T21:17:58.318Z</time>
      </trkpt>
      <trkpt lat="44.90138" lon="3.30424">
        <ele>890.611217</ele>
        <time>2020-03-08T21:18:04.972Z</time>
      </trkpt>
      <trkpt lat="44.90087" lon="3.30465">
        <ele>889.596593</ele>
        <time>2020-03-08T21:18:11.565Z</time>
      </trkpt>
      <trkpt lat="44.90071" lon="3.30474">
        <ele>889.292931</ele>
        <time>2020-03-08T21:18:13.601Z</time>
      </trkpt>
      <trkpt lat="44.90024" lon="3.30481">
        <ele>888.462859</ele>
        <time>2020-03-08T21:18:19.221Z</time>
      </trkpt>
      <trkpt lat="44.89997" lon="3.30481">
        <ele>887.963008</ele>
        <time>2020-03-08T21:18:22.244Z</time>
      </trkpt>
      <trkpt lat="44.8996" lon="3.30452">
        <ele>887.013935</ele>
        <time>2020-03-08T21:18:27.150Z</time>
      </trkpt>
      <trkpt lat="44.89935" lon="3.30445">
        <ele>886.463039</ele>
        <time>2020-03-08T21:18:29.895Z</time>
      </trkpt>
      <trkpt lat="44.89916" lon="3.30451">
        <ele>886.030558</ele>
        <time>2020-03-08T21:18:32.057Z</time>
      </trkpt>
      <trkpt lat="44.89894" lon="3.30464">
        <ele>885.492632</ele>
        <time>2020-03-08T21:18:34.665Z</time>
      </trkpt>
      <trkpt lat="44.89833" lon="3.30519">
        <ele>883.721749</ele>
        <time>2020-03-08T21:18:42.089Z</time>
      </trkpt>
      <trkpt lat="44.8978" lon="3.30577">
        <ele>881.301672</ele>
        <time>2020-03-08T21:18:48.879Z</time>
      </trkpt>
      <trkpt lat="44.89755" lon="3.30591">
        <ele>880.359115</ele>
        <time>2020-03-08T21:18:51.513Z</time>
      </trkpt>
      <trkpt lat="44.89745" lon="3.30603">
        <ele>879.89002</ele>
        <time>2020-03-08T21:18:52.825Z</time>
      </trkpt>
      <trkpt lat="44.89693" lon="3.30603">
        <ele>878.023662</ele>
        <time>2020-03-08T21:18:58.015Z</time>
      </trkpt>
      <trkpt lat="44.89672" lon="3.3061">
        <ele>876.952888</ele>
        <time>2020-03-08T21:19:00.077Z</time>
      </trkpt>
      <trkpt lat="44.89645" lon="3.30628">
        <ele>875.228738</ele>
        <time>2020-03-08T21:19:02.869Z</time>
      </trkpt>
      <trkpt lat="44.8958" lon="3.30625">
        <ele>871.447015</ele>
        <time>2020-03-08T21:19:08.925Z</time>
      </trkpt>
      <trkpt lat="44.89545" lon="3.30626">
        <ele>869.417472</ele>
        <time>2020-03-08T21:19:12.127Z</time>
      </trkpt>
      <trkpt lat="44.89508" lon="3.30642">
        <ele>867.069109</ele>
        <time>2020-03-08T21:19:15.701Z</time>
      </trkpt>
      <trkpt lat="44.8943" lon="3.30657">
        <ele>860.607016</ele>
        <time>2020-03-08T21:19:22.562Z</time>
      </trkpt>
      <trkpt lat="44.89378" lon="3.3066">
        <ele>856.373324</ele>
        <time>2020-03-08T21:19:27.067Z</time>
      </trkpt>
      <trkpt lat="44.89336" lon="3.30654">
        <ele>852.879383</ele>
        <time>2020-03-08T21:19:30.812Z</time>
      </trkpt>
      <trkpt lat="44.89331" lon="3.30654">
        <ele>852.485128</ele>
        <time>2020-03-08T21:19:31.207Z</time>
      </trkpt>
      <trkpt lat="44.89327" lon="3.30655">
        <ele>852.170426</ele>
        <time>2020-03-08T21:19:31.586Z</time>
      </trkpt>
      <trkpt lat="44.89296" lon="3.30669">
        <ele>849.847312</ele>
        <time>2020-03-08T21:19:34.485Z</time>
      </trkpt>
      <trkpt lat="44.8925" lon="3.30701">
        <ele>846.207629</ele>
        <time>2020-03-08T21:19:39.029Z</time>
      </trkpt>
      <trkpt lat="44.89238" lon="3.3072">
        <ele>844.91127</ele>
        <time>2020-03-08T21:19:40.663Z</time>
      </trkpt>
      <trkpt lat="44.89226" lon="3.30765">
        <ele>842.454056</ele>
        <time>2020-03-08T21:19:43.759Z</time>
      </trkpt>
      <trkpt lat="44.89218" lon="3.3078">
        <ele>841.513005</ele>
        <time>2020-03-08T21:19:44.899Z</time>
      </trkpt>
      <trkpt lat="44.89204" lon="3.30791">
        <ele>840.376824</ele>
        <time>2020-03-08T21:19:46.377Z</time>
      </trkpt>
      <trkpt lat="44.89151" lon="3.30778">
        <ele>838.294806</ele>
        <time>2020-03-08T21:19:51.557Z</time>
      </trkpt>
      <trkpt lat="44.89134" lon="3.30781">
        <ele>837.78121</ele>
        <time>2020-03-08T21:19:53.184Z</time>
      </trkpt>
      <trkpt lat="44.89107" lon="3.30809">
        <ele>836.747939</ele>
        <time>2020-03-08T21:19:56.571Z</time>
      </trkpt>
      <trkpt lat="44.8908" lon="3.30851">
        <ele>835.475987</ele>
        <time>2020-03-08T21:20:00.931Z</time>
      </trkpt>
      <trkpt lat="44.89072" lon="3.30861">
        <ele>835.163664</ele>
        <time>2020-03-08T21:20:02.066Z</time>
      </trkpt>
      <trkpt lat="44.89058" lon="3.30879">
        <ele>834.581807</ele>
        <time>2020-03-08T21:20:04.353Z</time>
      </trkpt>
      <trkpt lat="44.89036" lon="3.30894">
        <ele>834.046482</ele>
        <time>2020-03-08T21:20:07.383Z</time>
      </trkpt>
      <trkpt lat="44.88856" lon="3.30999">
        <ele>832.810378</ele>
        <time>2020-03-08T21:20:33.990Z</time>
      </trkpt>
      <trkpt lat="44.88845" lon="3.31006">
        <ele>832.697692</ele>
        <time>2020-03-08T21:20:35.278Z</time>
      </trkpt>
      <trkpt lat="44.88807" lon="3.31023">
        <ele>832.299505</ele>
        <time>2020-03-08T21:20:40.054Z</time>
      </trkpt>
      <trkpt lat="44.88802" lon="3.31121">
        <ele>831.623654</ele>
        <time>2020-03-08T21:20:48.301Z</time>
      </trkpt>
      <trkpt lat="44.88801" lon="3.31182">
        <ele>831.441665</ele>
        <time>2020-03-08T21:20:53.405Z</time>
      </trkpt>
      <trkpt lat="44.88805" lon="3.31234">
        <ele>832.053056</ele>
        <time>2020-03-08T21:20:58.445Z</time>
      </trkpt>
      <trkpt lat="44.88819" lon="3.31298">
        <ele>832.825244</ele>
        <time>2020-03-08T21:21:08.683Z</time>
      </trkpt>
      <trkpt lat="44.88826" lon="3.31368">
        <ele>833.65139</ele>
        <time>2020-03-08T21:21:21.355Z</time>
      </trkpt>
      <trkpt lat="44.88827" lon="3.31426">
        <ele>834.43359</ele>
        <time>2020-03-08T21:21:32.833Z</time>
      </trkpt>
      <trkpt lat="44.88826" lon="3.31461">
        <ele>835.344987</ele>
        <time>2020-03-08T21:21:40.426Z</time>
      </trkpt>
      <trkpt lat="44.88825" lon="3.31546">
        <ele>837.613009</ele>
        <time>2020-03-08T21:21:58.693Z</time>
      </trkpt>
      <trkpt lat="44.88823" lon="3.31605">
        <ele>839.167036</ele>
        <time>2020-03-08T21:22:11.398Z</time>
      </trkpt>
      <trkpt lat="44.88814" lon="3.31627">
        <ele>839.839572</ele>
        <time>2020-03-08T21:22:16.664Z</time>
      </trkpt>
      <trkpt lat="44.88793" lon="3.31659">
        <ele>841.018447</ele>
        <time>2020-03-08T21:22:26.510Z</time>
      </trkpt>
      <trkpt lat="44.88621" lon="3.3177">
        <ele>848.220868</ele>
        <time>2020-03-08T21:23:22.324Z</time>
      </trkpt>
      <trkpt lat="44.88573" lon="3.31793">
        <ele>850.573288</ele>
        <time>2020-03-08T21:23:38.668Z</time>
      </trkpt>
      <trkpt lat="44.88548" lon="3.31797">
        <ele>851.748819</ele>
        <time>2020-03-08T21:23:46.900Z</time>
      </trkpt>
      <trkpt lat="44.88388" lon="3.3178">
        <ele>857.779816</ele>
        <time>2020-03-08T21:24:43.651Z</time>
      </trkpt>
      <trkpt lat="44.88372" lon="3.31785">
        <ele>858.192503</ele>
        <time>2020-03-08T21:24:47.886Z</time>
      </trkpt>
      <trkpt lat="44.88361" lon="3.31788">
        <ele>858.453589</ele>
        <time>2020-03-08T21:24:50.523Z</time>
      </trkpt>
      <trkpt lat="44.88248" lon="3.31854">
        <ele>860.263261</ele>
        <time>2020-03-08T21:25:11.856Z</time>
      </trkpt>
      <trkpt lat="44.88243" lon="3.31857">
        <ele>860.215227</ele>
        <time>2020-03-08T21:25:12.328Z</time>
      </trkpt>
      <trkpt lat="44.88102" lon="3.31945">
        <ele>859.16539</ele>
        <time>2020-03-08T21:25:29.598Z</time>
      </trkpt>
      <trkpt lat="44.87883" lon="3.32113">
        <ele>864.373234</ele>
        <time>2020-03-08T21:26:29.437Z</time>
      </trkpt>
      <trkpt lat="44.87844" lon="3.32137">
        <ele>865.67736</ele>
        <time>2020-03-08T21:26:42.314Z</time>
      </trkpt>
      <trkpt lat="44.8782" lon="3.32145">
        <ele>866.422452</ele>
        <time>2020-03-08T21:26:49.604Z</time>
      </trkpt>
      <trkpt lat="44.87788" lon="3.32148">
        <ele>867.395131</ele>
        <time>2020-03-08T21:26:59.010Z</time>
      </trkpt>
      <trkpt lat="44.87748" lon="3.32144">
        <ele>868.605007</ele>
        <time>2020-03-08T21:27:10.764Z</time>
      </trkpt>
      <trkpt lat="44.87718" lon="3.32129">
        <ele>869.567411</ele>
        <time>2020-03-08T21:27:20.034Z</time>
      </trkpt>
      <trkpt lat="44.87685" lon="3.3211">
        <ele>870.63323</ele>
        <time>2020-03-08T21:27:29.736Z</time>
      </trkpt>
      <trkpt lat="44.87589" lon="3.32024">
        <ele>873.463381</ele>
        <time>2020-03-08T21:27:57.082Z</time>
      </trkpt>
      <trkpt lat="44.87491" lon="3.31997">
        <ele>875.23161</ele>
        <time>2020-03-08T21:28:18.334Z</time>
      </trkpt>
      <trkpt lat="44.87452" lon="3.31998">
        <ele>875.918192</ele>
        <time>2020-03-08T21:28:26.340Z</time>
      </trkpt>
      <trkpt lat="44.87427" lon="3.32013">
        <ele>876.336811</ele>
        <time>2020-03-08T21:28:31.783Z</time>
      </trkpt>
      <trkpt lat="44.87401" lon="3.32051">
        <ele>876.898297</ele>
        <time>2020-03-08T21:28:39.117Z</time>
      </trkpt>
      <trkpt lat="44.87384" lon="3.32073">
        <ele>877.265465</ele>
        <time>2020-03-08T21:28:43.900Z</time>
      </trkpt>
      <trkpt lat="44.87319" lon="3.32111">
        <ele>878.345902</ele>
        <time>2020-03-08T21:28:58.196Z</time>
      </trkpt>
      <trkpt lat="44.87295" lon="3.32141">
        <ele>878.960284</ele>
        <time>2020-03-08T21:29:05.878Z</time>
      </trkpt>
      <trkpt lat="44.8723" lon="3.32273">
        <ele>881.57498</ele>
        <time>2020-03-08T21:29:34.507Z</time>
      </trkpt>
      <trkpt lat="44.87208" lon="3.32304">
        <ele>882.284143</ele>
        <time>2020-03-08T21:29:42.365Z</time>
      </trkpt>
      <trkpt lat="44.87185" lon="3.32325">
        <ele>882.845085</ele>
        <time>2020-03-08T21:29:49.240Z</time>
      </trkpt>
      <trkpt lat="44.8693" lon="3.32499">
        <ele>885.207192</ele>
        <time>2020-03-08T21:30:44.443Z</time>
      </trkpt>
      <trkpt lat="44.86884" lon="3.32553">
        <ele>885.20999</ele>
        <time>2020-03-08T21:30:51.300Z</time>
      </trkpt>
      <trkpt lat="44.86837" lon="3.32589">
        <ele>883.834722</ele>
        <time>2020-03-08T21:30:57.026Z</time>
      </trkpt>
      <trkpt lat="44.8679" lon="3.3261">
        <ele>882.320858</ele>
        <time>2020-03-08T21:31:02.177Z</time>
      </trkpt>
      <trkpt lat="44.86771" lon="3.32618">
        <ele>881.708677</ele>
        <time>2020-03-08T21:31:04.162Z</time>
      </trkpt>
      <trkpt lat="44.86697" lon="3.32663">
        <ele>879.096545</ele>
        <time>2020-03-08T21:31:12.076Z</time>
      </trkpt>
      <trkpt lat="44.8666" lon="3.32687">
        <ele>877.524517</ele>
        <time>2020-03-08T21:31:15.979Z</time>
      </trkpt>
      <trkpt lat="44.86621" lon="3.32707">
        <ele>875.927373</ele>
        <time>2020-03-08T21:31:19.973Z</time>
      </trkpt>
      <trkpt lat="44.86528" lon="3.32743">
        <ele>872.45237</ele>
        <time>2020-03-08T21:31:29.569Z</time>
      </trkpt>
      <trkpt lat="44.86457" lon="3.3275">
        <ele>871.139821</ele>
        <time>2020-03-08T21:31:36.900Z</time>
      </trkpt>
      <trkpt lat="44.86369" lon="3.32731">
        <ele>869.508084</ele>
        <time>2020-03-08T21:31:47.371Z</time>
      </trkpt>
      <trkpt lat="44.86212" lon="3.32628">
        <ele>870.8333</ele>
        <time>2020-03-08T21:32:19.896Z</time>
      </trkpt>
      <trkpt lat="44.86194" lon="3.32617">
        <ele>871.027539</ele>
        <time>2020-03-08T21:32:24.188Z</time>
      </trkpt>
      <trkpt lat="44.86183" lon="3.32612">
        <ele>871.181901</ele>
        <time>2020-03-08T21:32:26.693Z</time>
      </trkpt>
      <trkpt lat="44.86151" lon="3.32609">
        <ele>871.606411</ele>
        <time>2020-03-08T21:32:33.495Z</time>
      </trkpt>
      <trkpt lat="44.86141" lon="3.32612">
        <ele>871.745808</ele>
        <time>2020-03-08T21:32:35.638Z</time>
      </trkpt>
      <trkpt lat="44.86097" lon="3.32627">
        <ele>872.353693</ele>
        <time>2020-03-08T21:32:45.348Z</time>
      </trkpt>
      <trkpt lat="44.86056" lon="3.32642">
        <ele>872.91432</ele>
        <time>2020-03-08T21:32:54.012Z</time>
      </trkpt>
      <trkpt lat="44.86051" lon="3.32644">
        <ele>872.975479</ele>
        <time>2020-03-08T21:32:55.050Z</time>
      </trkpt>
      <trkpt lat="44.86005" lon="3.32658">
        <ele>873.195541</ele>
        <time>2020-03-08T21:33:03.790Z</time>
      </trkpt>
      <trkpt lat="44.86002" lon="3.3266">
        <ele>873.171342</ele>
        <time>2020-03-08T21:33:04.406Z</time>
      </trkpt>
      <trkpt lat="44.85982" lon="3.32671">
        <ele>873.016741</ele>
        <time>2020-03-08T21:33:08.382Z</time>
      </trkpt>
      <trkpt lat="44.85929" lon="3.32706">
        <ele>872.606315</ele>
        <time>2020-03-08T21:33:16.422Z</time>
      </trkpt>
      <trkpt lat="44.859" lon="3.32715">
        <ele>872.39836</ele>
        <time>2020-03-08T21:33:19.913Z</time>
      </trkpt>
      <trkpt lat="44.85855" lon="3.3272">
        <ele>872.081822</ele>
        <time>2020-03-08T21:33:24.816Z</time>
      </trkpt>
      <trkpt lat="44.85797" lon="3.32731">
        <ele>870.380496</ele>
        <time>2020-03-08T21:33:30.731Z</time>
      </trkpt>
      <trkpt lat="44.85758" lon="3.32744">
        <ele>869.16955</ele>
        <time>2020-03-08T21:33:34.858Z</time>
      </trkpt>
      <trkpt lat="44.85733" lon="3.32756">
        <ele>868.389695</ele>
        <time>2020-03-08T21:33:37.465Z</time>
      </trkpt>
      <trkpt lat="44.85717" lon="3.32766">
        <ele>867.872276</ele>
        <time>2020-03-08T21:33:39.317Z</time>
      </trkpt>
      <trkpt lat="44.857" lon="3.32782">
        <ele>867.260164</ele>
        <time>2020-03-08T21:33:41.332Z</time>
      </trkpt>
      <trkpt lat="44.8566" lon="3.32825">
        <ele>865.981435</ele>
        <time>2020-03-08T21:33:46.546Z</time>
      </trkpt>
      <trkpt lat="44.8564" lon="3.3285">
        <ele>865.379376</ele>
        <time>2020-03-08T21:33:49.265Z</time>
      </trkpt>
      <trkpt lat="44.85599" lon="3.32898">
        <ele>864.167802</ele>
        <time>2020-03-08T21:33:54.815Z</time>
      </trkpt>
      <trkpt lat="44.8559" lon="3.32907">
        <ele>863.925478</ele>
        <time>2020-03-08T21:33:56.017Z</time>
      </trkpt>
      <trkpt lat="44.85587" lon="3.32909">
        <ele>863.844165</ele>
        <time>2020-03-08T21:33:56.442Z</time>
      </trkpt>
      <trkpt lat="44.85576" lon="3.32895">
        <ele>863.509961</ele>
        <time>2020-03-08T21:33:57.961Z</time>
      </trkpt>
      <trkpt lat="44.85553" lon="3.32898">
        <ele>862.986793</ele>
        <time>2020-03-08T21:34:00.866Z</time>
      </trkpt>
      <trkpt lat="44.85547" lon="3.329">
        <ele>862.83787</ele>
        <time>2020-03-08T21:34:01.498Z</time>
      </trkpt>
      <trkpt lat="44.85536" lon="3.3289">
        <ele>862.826172</ele>
        <time>2020-03-08T21:34:02.979Z</time>
      </trkpt>
      <trkpt lat="44.8549" lon="3.32852">
        <ele>865.16861</ele>
        <time>2020-03-08T21:34:12.082Z</time>
      </trkpt>
      <trkpt lat="44.85488" lon="3.32849">
        <ele>865.310474</ele>
        <time>2020-03-08T21:34:12.422Z</time>
      </trkpt>
      <trkpt lat="44.85473" lon="3.3283">
        <ele>866.192832</ele>
        <time>2020-03-08T21:34:17.875Z</time>
      </trkpt>
      <trkpt lat="44.85465" lon="3.32822">
        <ele>866.633917</ele>
        <time>2020-03-08T21:34:21.878Z</time>
      </trkpt>
      <trkpt lat="44.85457" lon="3.32822">
        <ele>866.967153</ele>
        <time>2020-03-08T21:34:23.904Z</time>
      </trkpt>
      <trkpt lat="44.85451" lon="3.32797">
        <ele>867.78429</ele>
        <time>2020-03-08T21:34:32.357Z</time>
      </trkpt>
      <trkpt lat="44.85443" lon="3.32744">
        <ele>869.447625</ele>
        <time>2020-03-08T21:34:50.085Z</time>
      </trkpt>
      <trkpt lat="44.8544" lon="3.3273">
        <ele>869.916949</ele>
        <time>2020-03-08T21:34:54.864Z</time>
      </trkpt>
      <trkpt lat="44.85435" lon="3.32718">
        <ele>870.339658</ele>
        <time>2020-03-08T21:34:59.902Z</time>
      </trkpt>
      <trkpt lat="44.85432" lon="3.32711">
        <ele>870.678994</ele>
        <time>2020-03-08T21:35:04.074Z</time>
      </trkpt>
      <trkpt lat="44.85426" lon="3.32706">
        <ele>871.315119</ele>
        <time>2020-03-08T21:35:06.910Z</time>
      </trkpt>
      <trkpt lat="44.85371" lon="3.32684">
        <ele>876.767525</ele>
        <time>2020-03-08T21:35:36.413Z</time>
      </trkpt>
      <trkpt lat="44.85366" lon="3.32684">
        <ele>877.322473</ele>
        <time>2020-03-08T21:35:39.963Z</time>
      </trkpt>
      <trkpt lat="44.85363" lon="3.32684">
        <ele>877.581128</ele>
        <time>2020-03-08T21:35:42.775Z</time>
      </trkpt>
      <trkpt lat="44.85346" lon="3.32686">
        <ele>879.21928</ele>
        <time>2020-03-08T21:35:50.636Z</time>
      </trkpt>
      <trkpt lat="44.85334" lon="3.32694">
        <ele>880.516317</ele>
        <time>2020-03-08T21:35:59.136Z</time>
      </trkpt>
      <trkpt lat="44.85324" lon="3.32709">
        <ele>881.897365</ele>
        <time>2020-03-08T21:36:07.327Z</time>
      </trkpt>
      <trkpt lat="44.85289" lon="3.32788">
        <ele>887.958794</ele>
        <time>2020-03-08T21:36:46.573Z</time>
      </trkpt>
      <trkpt lat="44.85252" lon="3.32891">
        <ele>892.278277</ele>
        <time>2020-03-08T21:37:16.778Z</time>
      </trkpt>
      <trkpt lat="44.85239" lon="3.32924">
        <ele>893.716609</ele>
        <time>2020-03-08T21:37:24.238Z</time>
      </trkpt>
      <trkpt lat="44.85228" lon="3.32959">
        <ele>895.146502</ele>
        <time>2020-03-08T21:37:31.533Z</time>
      </trkpt>
      <trkpt lat="44.85176" lon="3.33055">
        <ele>899.971329</ele>
        <time>2020-03-08T21:37:57.170Z</time>
      </trkpt>
      <trkpt lat="44.85144" lon="3.33098">
        <ele>902.598972</ele>
        <time>2020-03-08T21:38:13.156Z</time>
      </trkpt>
      <trkpt lat="44.85118" lon="3.3312">
        <ele>904.375289</ele>
        <time>2020-03-08T21:38:25.015Z</time>
      </trkpt>
      <trkpt lat="44.85058" lon="3.33148">
        <ele>908.274715</ele>
        <time>2020-03-08T21:38:54.551Z</time>
      </trkpt>
      <trkpt lat="44.84987" lon="3.33183">
        <ele>914.630685</ele>
        <time>2020-03-08T21:39:31.393Z</time>
      </trkpt>
      <trkpt lat="44.84966" lon="3.33195">
        <ele>916.502947</ele>
        <time>2020-03-08T21:39:43.120Z</time>
      </trkpt>
      <trkpt lat="44.8489" lon="3.33249">
        <ele>923.713164</ele>
        <time>2020-03-08T21:40:24.925Z</time>
      </trkpt>
      <trkpt lat="44.84771" lon="3.3339">
        <ele>936.224332</ele>
        <time>2020-03-08T21:41:38.450Z</time>
      </trkpt>
      <trkpt lat="44.84757" lon="3.33393">
        <ele>937.323629</ele>
        <time>2020-03-08T21:41:43.435Z</time>
      </trkpt>
      <trkpt lat="44.84753" lon="3.33387">
        <ele>937.801981</ele>
        <time>2020-03-08T21:41:45.767Z</time>
      </trkpt>
      <trkpt lat="44.84751" lon="3.33384">
        <ele>937.992534</ele>
        <time>2020-03-08T21:41:47.883Z</time>
      </trkpt>
      <trkpt lat="44.84751" lon="3.33372">
        <ele>938.64096</ele>
        <time>2020-03-08T21:41:52.936Z</time>
      </trkpt>
      <trkpt lat="44.84795" lon="3.33308">
        <ele>943.255371</ele>
        <time>2020-03-08T21:42:20.854Z</time>
      </trkpt>
      <trkpt lat="44.84911" lon="3.33052">
        <ele>957.821897</ele>
        <time>2020-03-08T21:43:53.390Z</time>
      </trkpt>
      <trkpt lat="44.84927" lon="3.33015">
        <ele>959.759484</ele>
        <time>2020-03-08T21:44:05.217Z</time>
      </trkpt>
      <trkpt lat="44.84978" lon="3.32852">
        <ele>965.247859</ele>
        <time>2020-03-08T21:44:47.180Z</time>
      </trkpt>
      <trkpt lat="44.85008" lon="3.32777">
        <ele>967.408108</ele>
        <time>2020-03-08T21:45:02.844Z</time>
      </trkpt>
      <trkpt lat="44.85041" lon="3.32712">
        <ele>969.089333</ele>
        <time>2020-03-08T21:45:16.423Z</time>
      </trkpt>
      <trkpt lat="44.85075" lon="3.32652">
        <ele>970.346285</ele>
        <time>2020-03-08T21:45:27.744Z</time>
      </trkpt>
      <trkpt lat="44.85084" lon="3.3263">
        <ele>970.754643</ele>
        <time>2020-03-08T21:45:31.536Z</time>
      </trkpt>
      <trkpt lat="44.85095" lon="3.32588">
        <ele>971.491891</ele>
        <time>2020-03-08T21:45:39.824Z</time>
      </trkpt>
      <trkpt lat="44.85094" lon="3.32547">
        <ele>972.162443</ele>
        <time>2020-03-08T21:45:47.059Z</time>
      </trkpt>
      <trkpt lat="44.85089" lon="3.32525">
        <ele>972.536251</ele>
        <time>2020-03-08T21:45:51.335Z</time>
      </trkpt>
      <trkpt lat="44.85072" lon="3.32489">
        <ele>973.487485</ele>
        <time>2020-03-08T21:46:00.006Z</time>
      </trkpt>
      <trkpt lat="44.85031" lon="3.32458">
        <ele>974.940919</ele>
        <time>2020-03-08T21:46:12.718Z</time>
      </trkpt>
      <trkpt lat="44.8502" lon="3.32456">
        <ele>975.298195</ele>
        <time>2020-03-08T21:46:16.267Z</time>
      </trkpt>
      <trkpt lat="44.85008" lon="3.32455">
        <ele>975.669956</ele>
        <time>2020-03-08T21:46:20.169Z</time>
      </trkpt>
      <trkpt lat="44.84778" lon="3.32514">
        <ele>982.277082</ele>
        <time>2020-03-08T21:47:21.921Z</time>
      </trkpt>
      <trkpt lat="44.84718" lon="3.32505">
        <ele>983.857191</ele>
        <time>2020-03-08T21:47:35.221Z</time>
      </trkpt>
      <trkpt lat="44.84677" lon="3.32488">
        <ele>984.939919</ele>
        <time>2020-03-08T21:47:45.173Z</time>
      </trkpt>
      <trkpt lat="44.84661" lon="3.32477">
        <ele>985.403383</ele>
        <time>2020-03-08T21:47:49.331Z</time>
      </trkpt>
      <trkpt lat="44.84636" lon="3.32456">
        <ele>986.135727</ele>
        <time>2020-03-08T21:47:56.569Z</time>
      </trkpt>
      <trkpt lat="44.84598" lon="3.32406">
        <ele>987.46751</ele>
        <time>2020-03-08T21:48:10.226Z</time>
      </trkpt>
      <trkpt lat="44.8448" lon="3.32178">
        <ele>994.113657</ele>
        <time>2020-03-08T21:49:10.302Z</time>
      </trkpt>
      <trkpt lat="44.84445" lon="3.32131">
        <ele>994.519441</ele>
        <time>2020-03-08T21:49:21.913Z</time>
      </trkpt>
      <trkpt lat="44.84401" lon="3.32093">
        <ele>994.955116</ele>
        <time>2020-03-08T21:49:32.126Z</time>
      </trkpt>
      <trkpt lat="44.84184" lon="3.31979">
        <ele>993.339754</ele>
        <time>2020-03-08T21:49:58.500Z</time>
      </trkpt>
      <trkpt lat="44.84118" lon="3.31939">
        <ele>993.757764</ele>
        <time>2020-03-08T21:50:08.920Z</time>
      </trkpt>
      <trkpt lat="44.84038" lon="3.31887">
        <ele>994.665095</ele>
        <time>2020-03-08T21:50:26.868Z</time>
      </trkpt>
      <trkpt lat="44.83857" lon="3.31771">
        <ele>998.757276</ele>
        <time>2020-03-08T21:51:17.247Z</time>
      </trkpt>
      <trkpt lat="44.83848" lon="3.31765">
        <ele>998.994357</ele>
        <time>2020-03-08T21:51:19.509Z</time>
      </trkpt>
      <trkpt lat="44.83835" lon="3.31756">
        <ele>999.17956</ele>
        <time>2020-03-08T21:51:21.880Z</time>
      </trkpt>
      <trkpt lat="44.83794" lon="3.31735">
        <ele>999.539657</ele>
        <time>2020-03-08T21:51:29.711Z</time>
      </trkpt>
      <trkpt lat="44.83692" lon="3.31683">
        <ele>1000.429706</ele>
        <time>2020-03-08T21:51:47.051Z</time>
      </trkpt>
      <trkpt lat="44.83597" lon="3.3162">
        <ele>1002.759222</ele>
        <time>2020-03-08T21:52:08.417Z</time>
      </trkpt>
      <trkpt lat="44.8331" lon="3.3136">
        <ele>1014.432399</ele>
        <time>2020-03-08T21:53:50.299Z</time>
      </trkpt>
      <trkpt lat="44.83284" lon="3.31334">
        <ele>1015.641049</ele>
        <time>2020-03-08T21:54:00.454Z</time>
      </trkpt>
      <trkpt lat="44.83279" lon="3.31329">
        <ele>1015.873186</ele>
        <time>2020-03-08T21:54:02.769Z</time>
      </trkpt>
      <trkpt lat="44.83141" lon="3.31176">
        <ele>1020.965694</ele>
        <time>2020-03-08T21:54:52.861Z</time>
      </trkpt>
      <trkpt lat="44.83087" lon="3.31106">
        <ele>1022.651376</ele>
        <time>2020-03-08T21:55:06.703Z</time>
      </trkpt>
      <trkpt lat="44.82967" lon="3.3101">
        <ele>1023.714193</ele>
        <time>2020-03-08T21:55:28.452Z</time>
      </trkpt>
      <trkpt lat="44.82954" lon="3.30994">
        <ele>1023.839643</ele>
        <time>2020-03-08T21:55:31.089Z</time>
      </trkpt>
      <trkpt lat="44.82939" lon="3.30967">
        <ele>1024.010985</ele>
        <time>2020-03-08T21:55:36.660Z</time>
      </trkpt>
      <trkpt lat="44.82904" lon="3.309">
        <ele>1026.218017</ele>
        <time>2020-03-08T21:55:49.823Z</time>
      </trkpt>
      <trkpt lat="44.82896" lon="3.30885">
        <ele>1026.780261</ele>
        <time>2020-03-08T21:55:54.434Z</time>
      </trkpt>
      <trkpt lat="44.8287" lon="3.3085">
        <ele>1028.227852</ele>
        <time>2020-03-08T21:56:05.165Z</time>
      </trkpt>
      <trkpt lat="44.82843" lon="3.30829">
        <ele>1029.453333</ele>
        <time>2020-03-08T21:56:15.346Z</time>
      </trkpt>
      <trkpt lat="44.82822" lon="3.30818">
        <ele>1030.334046</ele>
        <time>2020-03-08T21:56:23.544Z</time>
      </trkpt>
      <trkpt lat="44.82757" lon="3.30801">
        <ele>1034.106208</ele>
        <time>2020-03-08T21:56:51.681Z</time>
      </trkpt>
      <trkpt lat="44.82733" lon="3.30787">
        <ele>1035.839399</ele>
        <time>2020-03-08T21:57:02.624Z</time>
      </trkpt>
      <trkpt lat="44.82701" lon="3.30749">
        <ele>1038.570343</ele>
        <time>2020-03-08T21:57:20.482Z</time>
      </trkpt>
      <trkpt lat="44.82646" lon="3.30643">
        <ele>1044.064737</ele>
        <time>2020-03-08T21:57:58.676Z</time>
      </trkpt>
      <trkpt lat="44.82606" lon="3.30592">
        <ele>1046.211058</ele>
        <time>2020-03-08T21:58:19.016Z</time>
      </trkpt>
      <trkpt lat="44.824" lon="3.30454">
        <ele>1051.741468</ele>
        <time>2020-03-08T21:59:14.038Z</time>
      </trkpt>
      <trkpt lat="44.82342" lon="3.30416">
        <ele>1052.22165</ele>
        <time>2020-03-08T21:59:21.937Z</time>
      </trkpt>
      <trkpt lat="44.82206" lon="3.30327">
        <ele>1050.219555</ele>
        <time>2020-03-08T21:59:38.601Z</time>
      </trkpt>
      <trkpt lat="44.82109" lon="3.30265">
        <ele>1049.64624</ele>
        <time>2020-03-08T21:59:53.197Z</time>
      </trkpt>
      <trkpt lat="44.82051" lon="3.30227">
        <ele>1049.420059</ele>
        <time>2020-03-08T22:00:03.084Z</time>
      </trkpt>
      <trkpt lat="44.81984" lon="3.30186">
        <ele>1048.395456</ele>
        <time>2020-03-08T22:00:12.556Z</time>
      </trkpt>
      <trkpt lat="44.81957" lon="3.30168">
        <ele>1047.752695</ele>
        <time>2020-03-08T22:00:16.270Z</time>
      </trkpt>
      <trkpt lat="44.81937" lon="3.30156">
        <ele>1047.29603</ele>
        <time>2020-03-08T22:00:18.672Z</time>
      </trkpt>
      <trkpt lat="44.81809" lon="3.30044">
        <ele>1042.634419</ele>
        <time>2020-03-08T22:00:33.756Z</time>
      </trkpt>
      <trkpt lat="44.81575" lon="3.29826">
        <ele>1029.1322</ele>
        <time>2020-03-08T22:01:00.295Z</time>
      </trkpt>
      <trkpt lat="44.81545" lon="3.29782">
        <ele>1026.681465</ele>
        <time>2020-03-08T22:01:04.257Z</time>
      </trkpt>
      <trkpt lat="44.81533" lon="3.29747">
        <ele>1025.037785</ele>
        <time>2020-03-08T22:01:06.835Z</time>
      </trkpt>
      <trkpt lat="44.81531" lon="3.29732">
        <ele>1024.428112</ele>
        <time>2020-03-08T22:01:07.771Z</time>
      </trkpt>
      <trkpt lat="44.8153" lon="3.29712">
        <ele>1023.582472</ele>
        <time>2020-03-08T22:01:09.087Z</time>
      </trkpt>
      <trkpt lat="44.81533" lon="3.29689">
        <ele>1022.606667</ele>
        <time>2020-03-08T22:01:10.622Z</time>
      </trkpt>
      <trkpt lat="44.8154" lon="3.29653">
        <ele>1021.020961</ele>
        <time>2020-03-08T22:01:13.091Z</time>
      </trkpt>
      <trkpt lat="44.81552" lon="3.29603">
        <ele>1018.797791</ele>
        <time>2020-03-08T22:01:16.540Z</time>
      </trkpt>
      <trkpt lat="44.81564" lon="3.29555">
        <ele>1016.337579</ele>
        <time>2020-03-08T22:01:19.828Z</time>
      </trkpt>
      <trkpt lat="44.81568" lon="3.29511">
        <ele>1013.903426</ele>
        <time>2020-03-08T22:01:22.729Z</time>
      </trkpt>
      <trkpt lat="44.81571" lon="3.29357">
        <ele>1005.603356</ele>
        <time>2020-03-08T22:01:32.330Z</time>
      </trkpt>
      <trkpt lat="44.81568" lon="3.29302">
        <ele>1002.434828</ele>
        <time>2020-03-08T22:01:35.813Z</time>
      </trkpt>
      <trkpt lat="44.81565" lon="3.29285">
        <ele>1001.340199</ele>
        <time>2020-03-08T22:01:36.940Z</time>
      </trkpt>
      <trkpt lat="44.81558" lon="3.29261">
        <ele>999.772877</ele>
        <time>2020-03-08T22:01:38.555Z</time>
      </trkpt>
      <trkpt lat="44.8154" lon="3.29222">
        <ele>996.985544</ele>
        <time>2020-03-08T22:01:41.433Z</time>
      </trkpt>
      <trkpt lat="44.81521" lon="3.29196">
        <ele>994.745604</ele>
        <time>2020-03-08T22:01:43.743Z</time>
      </trkpt>
      <trkpt lat="44.81487" lon="3.29173">
        <ele>991.541451</ele>
        <time>2020-03-08T22:01:47.023Z</time>
      </trkpt>
      <trkpt lat="44.81456" lon="3.29166">
        <ele>988.806428</ele>
        <time>2020-03-08T22:01:49.817Z</time>
      </trkpt>
      <trkpt lat="44.81352" lon="3.2917">
        <ele>981.966277</ele>
        <time>2020-03-08T22:01:58.982Z</time>
      </trkpt>
      <trkpt lat="44.81243" lon="3.29176">
        <ele>976.558341</ele>
        <time>2020-03-08T22:02:09.273Z</time>
      </trkpt>
      <trkpt lat="44.81227" lon="3.29176">
        <ele>976.387302</ele>
        <time>2020-03-08T22:02:10.944Z</time>
      </trkpt>
      <trkpt lat="44.81212" lon="3.29177">
        <ele>976.219577</ele>
        <time>2020-03-08T22:02:12.554Z</time>
      </trkpt>
      <trkpt lat="44.81189" lon="3.29177">
        <ele>975.970709</ele>
        <time>2020-03-08T22:02:15.209Z</time>
      </trkpt>
      <trkpt lat="44.81169" lon="3.29177">
        <ele>975.753207</ele>
        <time>2020-03-08T22:02:17.713Z</time>
      </trkpt>
      <trkpt lat="44.8116" lon="3.29177">
        <ele>975.663388</ele>
        <time>2020-03-08T22:02:18.981Z</time>
      </trkpt>
      <trkpt lat="44.81143" lon="3.29177">
        <ele>975.474001</ele>
        <time>2020-03-08T22:02:21.450Z</time>
      </trkpt>
      <trkpt lat="44.8112" lon="3.29176">
        <ele>975.225067</ele>
        <time>2020-03-08T22:02:26.171Z</time>
      </trkpt>
      <trkpt lat="44.81091" lon="3.29174">
        <ele>975.179678</ele>
        <time>2020-03-08T22:02:32.903Z</time>
      </trkpt>
      <trkpt lat="44.81063" lon="3.29165">
        <ele>976.292649</ele>
        <time>2020-03-08T22:02:42.135Z</time>
      </trkpt>
      <trkpt lat="44.81047" lon="3.29155">
        <ele>976.963505</ele>
        <time>2020-03-08T22:02:47.746Z</time>
      </trkpt>
      <trkpt lat="44.81019" lon="3.29133">
        <ele>978.245529</ele>
        <time>2020-03-08T22:02:58.159Z</time>
      </trkpt>
      <trkpt lat="44.81001" lon="3.29115">
        <ele>979.096634</ele>
        <time>2020-03-08T22:03:05.134Z</time>
      </trkpt>
      <trkpt lat="44.80986" lon="3.29098">
        <ele>979.838071</ele>
        <time>2020-03-08T22:03:11.686Z</time>
      </trkpt>
      <trkpt lat="44.80959" lon="3.2906">
        <ele>981.357313</ele>
        <time>2020-03-08T22:03:24.369Z</time>
      </trkpt>
      <trkpt lat="44.80933" lon="3.29001">
        <ele>983.479173</ele>
        <time>2020-03-08T22:03:40.357Z</time>
      </trkpt>
      <trkpt lat="44.8093" lon="3.28995">
        <ele>983.708792</ele>
        <time>2020-03-08T22:03:42.101Z</time>
      </trkpt>
      <trkpt lat="44.80923" lon="3.28977">
        <ele>984.38793</ele>
        <time>2020-03-08T22:03:47.255Z</time>
      </trkpt>
      <trkpt lat="44.80907" lon="3.28933">
        <ele>985.970552</ele>
        <time>2020-03-08T22:03:59.690Z</time>
      </trkpt>
      <trkpt lat="44.8086" lon="3.28778">
        <ele>990.606803</ele>
        <time>2020-03-08T22:04:38.694Z</time>
      </trkpt>
      <trkpt lat="44.80855" lon="3.2876">
        <ele>990.816732</ele>
        <time>2020-03-08T22:04:43.404Z</time>
      </trkpt>
      <trkpt lat="44.80849" lon="3.28725">
        <ele>991.200571</ele>
        <time>2020-03-08T22:04:49.642Z</time>
      </trkpt>
      <trkpt lat="44.80848" lon="3.28706">
        <ele>991.408359</ele>
        <time>2020-03-08T22:04:53.017Z</time>
      </trkpt>
      <trkpt lat="44.80848" lon="3.28687">
        <ele>991.619751</ele>
        <time>2020-03-08T22:04:55.726Z</time>
      </trkpt>
      <trkpt lat="44.80853" lon="3.28676">
        <ele>991.758101</ele>
        <time>2020-03-08T22:04:57.458Z</time>
      </trkpt>
      <trkpt lat="44.80853" lon="3.28663">
        <ele>991.896548</ele>
        <time>2020-03-08T22:04:59.486Z</time>
      </trkpt>
      <trkpt lat="44.8085" lon="3.28651">
        <ele>992.034078</ele>
        <time>2020-03-08T22:05:00.896Z</time>
      </trkpt>
      <trkpt lat="44.80843" lon="3.28643">
        <ele>992.171744</ele>
        <time>2020-03-08T22:05:02.257Z</time>
      </trkpt>
      <trkpt lat="44.80836" lon="3.2864">
        <ele>992.274449</ele>
        <time>2020-03-08T22:05:03.206Z</time>
      </trkpt>
      <trkpt lat="44.80831" lon="3.28631">
        <ele>992.406422</ele>
        <time>2020-03-08T22:05:04.788Z</time>
      </trkpt>
      <trkpt lat="44.80826" lon="3.28615">
        <ele>992.592951</ele>
        <time>2020-03-08T22:05:06.403Z</time>
      </trkpt>
      <trkpt lat="44.80811" lon="3.28559">
        <ele>992.390216</ele>
        <time>2020-03-08T22:05:11.588Z</time>
      </trkpt>
      <trkpt lat="44.80785" lon="3.28426">
        <ele>989.726328</ele>
        <time>2020-03-08T22:05:21.714Z</time>
      </trkpt>
      <trkpt lat="44.80782" lon="3.28415">
        <ele>989.507073</ele>
        <time>2020-03-08T22:05:22.522Z</time>
      </trkpt>
      <trkpt lat="44.80781" lon="3.28405">
        <ele>989.316771</ele>
        <time>2020-03-08T22:05:23.214Z</time>
      </trkpt>
      <trkpt lat="44.80779" lon="3.28395">
        <ele>989.107157</ele>
        <time>2020-03-08T22:05:23.967Z</time>
      </trkpt>
      <trkpt lat="44.80773" lon="3.28364">
        <ele>988.501356</ele>
        <time>2020-03-08T22:05:26.170Z</time>
      </trkpt>
      <trkpt lat="44.8076" lon="3.28302">
        <ele>987.363913</ele>
        <time>2020-03-08T22:05:30.721Z</time>
      </trkpt>
      <trkpt lat="44.8074" lon="3.28205">
        <ele>985.679112</ele>
        <time>2020-03-08T22:05:38.174Z</time>
      </trkpt>
      <trkpt lat="44.80729" lon="3.28157">
        <ele>984.843923</ele>
        <time>2020-03-08T22:05:42.167Z</time>
      </trkpt>
      <trkpt lat="44.80727" lon="3.28141">
        <ele>984.581206</ele>
        <time>2020-03-08T22:05:43.462Z</time>
      </trkpt>
      <trkpt lat="44.80728" lon="3.2813">
        <ele>984.385252</ele>
        <time>2020-03-08T22:05:44.427Z</time>
      </trkpt>
      <trkpt lat="44.80731" lon="3.28126">
        <ele>984.302254</ele>
        <time>2020-03-08T22:05:44.847Z</time>
      </trkpt>
      <trkpt lat="44.80733" lon="3.2812">
        <ele>984.176568</ele>
        <time>2020-03-08T22:05:45.496Z</time>
      </trkpt>
      <trkpt lat="44.80734" lon="3.28112">
        <ele>984.051257</ele>
        <time>2020-03-08T22:05:46.152Z</time>
      </trkpt>
      <trkpt lat="44.80731" lon="3.28101">
        <ele>983.849905</ele>
        <time>2020-03-08T22:05:47.175Z</time>
      </trkpt>
      <trkpt lat="44.80726" lon="3.28096">
        <ele>983.892641</ele>
        <time>2020-03-08T22:05:47.881Z</time>
      </trkpt>
      <trkpt lat="44.80721" lon="3.28094">
        <ele>983.950828</ele>
        <time>2020-03-08T22:05:48.548Z</time>
      </trkpt>
      <trkpt lat="44.80714" lon="3.28096">
        <ele>984.017748</ele>
        <time>2020-03-08T22:05:49.319Z</time>
      </trkpt>
      <trkpt lat="44.80698" lon="3.28088">
        <ele>984.200703</ele>
        <time>2020-03-08T22:05:51.736Z</time>
      </trkpt>
      <trkpt lat="44.80685" lon="3.28076">
        <ele>984.360845</ele>
        <time>2020-03-08T22:05:54.464Z</time>
      </trkpt>
      <trkpt lat="44.80656" lon="3.28063">
        <ele>984.669889</ele>
        <time>2020-03-08T22:05:59.649Z</time>
      </trkpt>
      <trkpt lat="44.80608" lon="3.28065">
        <ele>985.172803</ele>
        <time>2020-03-08T22:06:09.505Z</time>
      </trkpt>
      <trkpt lat="44.80564" lon="3.2808">
        <ele>985.643009</ele>
        <time>2020-03-08T22:06:19.386Z</time>
      </trkpt>
      <trkpt lat="44.80544" lon="3.28085">
        <ele>986.405013</ele>
        <time>2020-03-08T22:06:24.926Z</time>
      </trkpt>
      <trkpt lat="44.80508" lon="3.28084">
        <ele>988.189859</ele>
        <time>2020-03-08T22:06:35.514Z</time>
      </trkpt>
      <trkpt lat="44.80464" lon="3.2806">
        <ele>990.558424</ele>
        <time>2020-03-08T22:06:52.342Z</time>
      </trkpt>
      <trkpt lat="44.80445" lon="3.28041">
        <ele>991.718547</ele>
        <time>2020-03-08T22:07:01.172Z</time>
      </trkpt>
      <trkpt lat="44.80433" lon="3.28022">
        <ele>992.589355</ele>
        <time>2020-03-08T22:07:08.407Z</time>
      </trkpt>
      <trkpt lat="44.8042" lon="3.27979">
        <ele>994.239032</ele>
        <time>2020-03-08T22:07:21.537Z</time>
      </trkpt>
      <trkpt lat="44.80419" lon="3.27974">
        <ele>994.430418</ele>
        <time>2020-03-08T22:07:23.971Z</time>
      </trkpt>
      <trkpt lat="44.80421" lon="3.27972">
        <ele>994.542294</ele>
        <time>2020-03-08T22:07:24.823Z</time>
      </trkpt>
      <trkpt lat="44.80422" lon="3.27961">
        <ele>994.99427</ele>
        <time>2020-03-08T22:07:27.469Z</time>
      </trkpt>
      <trkpt lat="44.80421" lon="3.27958">
        <ele>995.12126</ele>
        <time>2020-03-08T22:07:28.347Z</time>
      </trkpt>
      <trkpt lat="44.80419" lon="3.27956">
        <ele>995.269649</ele>
        <time>2020-03-08T22:07:29.274Z</time>
      </trkpt>
      <trkpt lat="44.80417" lon="3.27955">
        <ele>995.42147</ele>
        <time>2020-03-08T22:07:30.063Z</time>
      </trkpt>
      <trkpt lat="44.80412" lon="3.27957">
        <ele>995.716216</ele>
        <time>2020-03-08T22:07:31.721Z</time>
      </trkpt>
      <trkpt lat="44.8041" lon="3.27959">
        <ele>995.871321</ele>
        <time>2020-03-08T22:07:32.501Z</time>
      </trkpt>
      <trkpt lat="44.80407" lon="3.27956">
        <ele>996.066939</ele>
        <time>2020-03-08T22:07:35.068Z</time>
      </trkpt>
      <trkpt lat="44.804" lon="3.27942">
        <ele>996.772193</ele>
        <time>2020-03-08T22:07:40.561Z</time>
      </trkpt>
      <trkpt lat="44.80349" lon="3.2782">
        <ele>1002.550676</ele>
        <time>2020-03-08T22:08:20.617Z</time>
      </trkpt>
      <trkpt lat="44.8033" lon="3.27769">
        <ele>1004.885007</ele>
        <time>2020-03-08T22:08:34.802Z</time>
      </trkpt>
      <trkpt lat="44.80326" lon="3.27759">
        <ele>1005.135865</ele>
        <time>2020-03-08T22:08:37.322Z</time>
      </trkpt>
      <trkpt lat="44.80319" lon="3.27739">
        <ele>1005.478006</ele>
        <time>2020-03-08T22:08:41.515Z</time>
      </trkpt>
      <trkpt lat="44.80318" lon="3.27736">
        <ele>1005.52657</ele>
        <time>2020-03-08T22:08:42.455Z</time>
      </trkpt>
      <trkpt lat="44.80321" lon="3.27733">
        <ele>1005.604536</ele>
        <time>2020-03-08T22:08:43.542Z</time>
      </trkpt>
      <trkpt lat="44.80322" lon="3.27728">
        <ele>1005.682387</ele>
        <time>2020-03-08T22:08:44.526Z</time>
      </trkpt>
      <trkpt lat="44.80322" lon="3.27723">
        <ele>1005.761083</ele>
        <time>2020-03-08T22:08:45.572Z</time>
      </trkpt>
      <trkpt lat="44.80333" lon="3.27716">
        <ele>1006.031833</ele>
        <time>2020-03-08T22:08:48.590Z</time>
      </trkpt>
      <trkpt lat="44.80359" lon="3.27698">
        <ele>1006.644833</ele>
        <time>2020-03-08T22:08:55.977Z</time>
      </trkpt>
      <trkpt lat="44.80365" lon="3.27693">
        <ele>1006.810606</ele>
        <time>2020-03-08T22:08:57.471Z</time>
      </trkpt>
      <trkpt lat="44.8037" lon="3.27685">
        <ele>1006.963656</ele>
        <time>2020-03-08T22:08:59.043Z</time>
      </trkpt>
      <trkpt lat="44.80372" lon="3.2767">
        <ele>1007.203297</ele>
        <time>2020-03-08T22:09:01.848Z</time>
      </trkpt>
      <trkpt lat="44.80372" lon="3.27669">
        <ele>1007.220351</ele>
        <time>2020-03-08T22:09:02.013Z</time>
      </trkpt>
      <trkpt lat="44.80367" lon="3.27631">
        <ele>1007.81125</ele>
        <time>2020-03-08T22:09:07.183Z</time>
      </trkpt>
      <trkpt lat="44.80365" lon="3.27622">
        <ele>1007.956524</ele>
        <time>2020-03-08T22:09:08.970Z</time>
      </trkpt>
      <trkpt lat="44.80376" lon="3.27611">
        <ele>1008.242732</ele>
        <time>2020-03-08T22:09:11.360Z</time>
      </trkpt>
      <trkpt lat="44.80414" lon="3.27576">
        <ele>1008.638251</ele>
        <time>2020-03-08T22:09:18.981Z</time>
      </trkpt>
      <trkpt lat="44.80424" lon="3.27564">
        <ele>1008.444715</ele>
        <time>2020-03-08T22:09:21.174Z</time>
      </trkpt>
      <trkpt lat="44.80411" lon="3.27566">
        <ele>1008.239343</ele>
        <time>2020-03-08T22:09:23.028Z</time>
      </trkpt>
      <trkpt lat="44.80361" lon="3.27565">
        <ele>1007.475058</ele>
        <time>2020-03-08T22:09:30.024Z</time>
      </trkpt>
      <trkpt lat="44.80305" lon="3.27568">
        <ele>1006.624941</ele>
        <time>2020-03-08T22:09:38.584Z</time>
      </trkpt>
      <trkpt lat="44.80282" lon="3.27569">
        <ele>1006.277565</ele>
        <time>2020-03-08T22:09:42.017Z</time>
      </trkpt>
      <trkpt lat="44.80255" lon="3.2757">
        <ele>1005.00236</ele>
        <time>2020-03-08T22:09:45.640Z</time>
      </trkpt>
      <trkpt lat="44.80222" lon="3.27565">
        <ele>1002.841294</ele>
        <time>2020-03-08T22:09:50.078Z</time>
      </trkpt>
      <trkpt lat="44.80211" lon="3.2756">
        <ele>1002.114494</ele>
        <time>2020-03-08T22:09:51.620Z</time>
      </trkpt>
      <trkpt lat="44.80203" lon="3.2756">
        <ele>1001.545843</ele>
        <time>2020-03-08T22:09:52.686Z</time>
      </trkpt>
      <trkpt lat="44.80177" lon="3.27554">
        <ele>999.859497</ele>
        <time>2020-03-08T22:09:56.165Z</time>
      </trkpt>
      <trkpt lat="44.80169" lon="3.27553">
        <ele>999.35262</ele>
        <time>2020-03-08T22:09:57.112Z</time>
      </trkpt>
      <trkpt lat="44.80151" lon="3.27552">
        <ele>998.207638</ele>
        <time>2020-03-08T22:09:59.376Z</time>
      </trkpt>
      <trkpt lat="44.80125" lon="3.27551">
        <ele>996.508544</ele>
        <time>2020-03-08T22:10:02.644Z</time>
      </trkpt>
      <trkpt lat="44.80099" lon="3.27551">
        <ele>994.80945</ele>
        <time>2020-03-08T22:10:05.935Z</time>
      </trkpt>
      <trkpt lat="44.80076" lon="3.27551">
        <ele>993.703756</ele>
        <time>2020-03-08T22:10:08.791Z</time>
      </trkpt>
      <trkpt lat="44.80062" lon="3.2755">
        <ele>993.038612</ele>
        <time>2020-03-08T22:10:10.621Z</time>
      </trkpt>
      <trkpt lat="44.80004" lon="3.27554">
        <ele>990.443459</ele>
        <time>2020-03-08T22:10:18.378Z</time>
      </trkpt>
      <trkpt lat="44.7999" lon="3.27558">
        <ele>989.776767</ele>
        <time>2020-03-08T22:10:20.478Z</time>
      </trkpt>
      <trkpt lat="44.7998" lon="3.27561">
        <ele>989.304677</ele>
        <time>2020-03-08T22:10:21.956Z</time>
      </trkpt>
      <trkpt lat="44.79969" lon="3.27571">
        <ele>988.717984</ele>
        <time>2020-03-08T22:10:23.987Z</time>
      </trkpt>
      <trkpt lat="44.79955" lon="3.27603">
        <ele>987.492315</ele>
        <time>2020-03-08T22:10:27.972Z</time>
      </trkpt>
      <trkpt lat="44.79944" lon="3.27636">
        <ele>986.373668</ele>
        <time>2020-03-08T22:10:31.736Z</time>
      </trkpt>
      <trkpt lat="44.79943" lon="3.27643">
        <ele>986.330317</ele>
        <time>2020-03-08T22:10:32.540Z</time>
      </trkpt>
      <trkpt lat="44.79941" lon="3.27659">
        <ele>986.230591</ele>
        <time>2020-03-08T22:10:34.684Z</time>
      </trkpt>
      <trkpt lat="44.7994" lon="3.27668">
        <ele>986.179571</ele>
        <time>2020-03-08T22:10:35.822Z</time>
      </trkpt>
      <trkpt lat="44.79905" lon="3.27673">
        <ele>985.882624</ele>
        <time>2020-03-08T22:10:41.586Z</time>
      </trkpt>
      <trkpt lat="44.799" lon="3.27674">
        <ele>985.837463</ele>
        <time>2020-03-08T22:10:42.417Z</time>
      </trkpt>
      <trkpt lat="44.79885" lon="3.27668">
        <ele>985.708886</ele>
        <time>2020-03-08T22:10:44.790Z</time>
      </trkpt>
      <trkpt lat="44.7985" lon="3.27643">
        <ele>985.371451</ele>
        <time>2020-03-08T22:10:53.036Z</time>
      </trkpt>
      <trkpt lat="44.79835" lon="3.27633">
        <ele>985.236288</ele>
        <time>2020-03-08T22:10:57.493Z</time>
      </trkpt>
      <trkpt lat="44.79832" lon="3.2763">
        <ele>985.203682</ele>
        <time>2020-03-08T22:10:58.019Z</time>
      </trkpt>
      <trkpt lat="44.7983" lon="3.27619">
        <ele>985.131277</ele>
        <time>2020-03-08T22:10:59.802Z</time>
      </trkpt>
      <trkpt lat="44.79825" lon="3.27608">
        <ele>985.053464</ele>
        <time>2020-03-08T22:11:02.184Z</time>
      </trkpt>
      <trkpt lat="44.79822" lon="3.27601">
        <ele>985.004853</ele>
        <time>2020-03-08T22:11:03.850Z</time>
      </trkpt>
      <trkpt lat="44.79819" lon="3.27598">
        <ele>984.973293</ele>
        <time>2020-03-08T22:11:04.787Z</time>
      </trkpt>
      <trkpt lat="44.79818" lon="3.27589">
        <ele>984.914507</ele>
        <time>2020-03-08T22:11:05.594Z</time>
      </trkpt>
      <trkpt lat="44.79815" lon="3.27582">
        <ele>984.869332</ele>
        <time>2020-03-08T22:11:06.150Z</time>
      </trkpt>
      <trkpt lat="44.79811" lon="3.2758">
        <ele>984.854875</ele>
        <time>2020-03-08T22:11:06.648Z</time>
      </trkpt>
      <trkpt lat="44.79807" lon="3.27578">
        <ele>984.857959</ele>
        <time>2020-03-08T22:11:07.238Z</time>
      </trkpt>
      <trkpt lat="44.79802" lon="3.2758">
        <ele>984.861705</ele>
        <time>2020-03-08T22:11:07.911Z</time>
      </trkpt>
      <trkpt lat="44.79799" lon="3.27583">
        <ele>984.864869</ele>
        <time>2020-03-08T22:11:08.597Z</time>
      </trkpt>
      <trkpt lat="44.79797" lon="3.27587">
        <ele>984.867386</ele>
        <time>2020-03-08T22:11:09.112Z</time>
      </trkpt>
      <trkpt lat="44.79795" lon="3.27594">
        <ele>984.87148</ele>
        <time>2020-03-08T22:11:09.874Z</time>
      </trkpt>
      <trkpt lat="44.79792" lon="3.27588">
        <ele>984.875426</ele>
        <time>2020-03-08T22:11:10.397Z</time>
      </trkpt>
      <trkpt lat="44.79786" lon="3.27575">
        <ele>984.883654</ele>
        <time>2020-03-08T22:11:11.729Z</time>
      </trkpt>
      <trkpt lat="44.79744" lon="3.27577">
        <ele>984.91476</ele>
        <time>2020-03-08T22:11:16.963Z</time>
      </trkpt>
      <trkpt lat="44.79708" lon="3.27576">
        <ele>984.940839</ele>
        <time>2020-03-08T22:11:21.985Z</time>
      </trkpt>
      <trkpt lat="44.79651" lon="3.27569">
        <ele>984.983388</ele>
        <time>2020-03-08T22:11:32.987Z</time>
      </trkpt>
      <trkpt lat="44.79647" lon="3.27568">
        <ele>984.990161</ele>
        <time>2020-03-08T22:11:33.695Z</time>
      </trkpt>
      <trkpt lat="44.79463" lon="3.27521">
        <ele>987.736077</ele>
        <time>2020-03-08T22:12:12.588Z</time>
      </trkpt>
      <trkpt lat="44.79365" lon="3.27496">
        <ele>989.703712</ele>
        <time>2020-03-08T22:12:34.754Z</time>
      </trkpt>
      <trkpt lat="44.79336" lon="3.27481">
        <ele>990.3284</ele>
        <time>2020-03-08T22:12:42.345Z</time>
      </trkpt>
      <trkpt lat="44.79273" lon="3.27424">
        <ele>992.001256</ele>
        <time>2020-03-08T22:13:00.300Z</time>
      </trkpt>
      <trkpt lat="44.79265" lon="3.2741">
        <ele>992.312611</ele>
        <time>2020-03-08T22:13:03.128Z</time>
      </trkpt>
      <trkpt lat="44.79257" lon="3.27365">
        <ele>993.142628</ele>
        <time>2020-03-08T22:13:11.227Z</time>
      </trkpt>
      <trkpt lat="44.79245" lon="3.27289">
        <ele>994.520461</ele>
        <time>2020-03-08T22:13:24.738Z</time>
      </trkpt>
      <trkpt lat="44.79241" lon="3.27271">
        <ele>994.849128</ele>
        <time>2020-03-08T22:13:27.944Z</time>
      </trkpt>
      <trkpt lat="44.79236" lon="3.27246">
        <ele>995.322947</ele>
        <time>2020-03-08T22:13:32.932Z</time>
      </trkpt>
      <trkpt lat="44.79231" lon="3.27233">
        <ele>995.589193</ele>
        <time>2020-03-08T22:13:35.697Z</time>
      </trkpt>
      <trkpt lat="44.79218" lon="3.27222">
        <ele>996.164984</ele>
        <time>2020-03-08T22:13:39.536Z</time>
      </trkpt>
      <trkpt lat="44.79209" lon="3.27219">
        <ele>996.564917</ele>
        <time>2020-03-08T22:13:42.365Z</time>
      </trkpt>
      <trkpt lat="44.79142" lon="3.27227">
        <ele>999.410089</ele>
        <time>2020-03-08T22:14:01.185Z</time>
      </trkpt>
      <trkpt lat="44.79128" lon="3.27205">
        <ele>1000.288503</ele>
        <time>2020-03-08T22:14:07.533Z</time>
      </trkpt>
      <trkpt lat="44.79096" lon="3.27062">
        <ele>1006.050171</ele>
        <time>2020-03-08T22:14:46.520Z</time>
      </trkpt>
      <trkpt lat="44.79096" lon="3.27018">
        <ele>1008.402692</ele>
        <time>2020-03-08T22:15:00.104Z</time>
      </trkpt>
      <trkpt lat="44.79101" lon="3.26978">
        <ele>1010.638029</ele>
        <time>2020-03-08T22:15:14.076Z</time>
      </trkpt>
      <trkpt lat="44.79123" lon="3.26912">
        <ele>1014.652883</ele>
        <time>2020-03-08T22:15:39.182Z</time>
      </trkpt>
      <trkpt lat="44.79166" lon="3.26824">
        <ele>1020.573424</ele>
        <time>2020-03-08T22:16:18.661Z</time>
      </trkpt>
      <trkpt lat="44.79167" lon="3.26809">
        <ele>1021.45044</ele>
        <time>2020-03-08T22:16:24.912Z</time>
      </trkpt>
      <trkpt lat="44.79162" lon="3.26786">
        <ele>1022.805543</ele>
        <time>2020-03-08T22:16:33.160Z</time>
      </trkpt>
      <trkpt lat="44.79151" lon="3.26757">
        <ele>1024.688295</ele>
        <time>2020-03-08T22:16:45.370Z</time>
      </trkpt>
      <trkpt lat="44.79133" lon="3.26719">
        <ele>1027.256052</ele>
        <time>2020-03-08T22:17:01.106Z</time>
      </trkpt>
      <trkpt lat="44.79122" lon="3.26693">
        <ele>1028.967509</ele>
        <time>2020-03-08T22:17:10.173Z</time>
      </trkpt>
      <trkpt lat="44.79112" lon="3.26669">
        <ele>1030.561677</ele>
        <time>2020-03-08T22:17:18.652Z</time>
      </trkpt>
      <trkpt lat="44.79105" lon="3.26639">
        <ele>1031.787816</ele>
        <time>2020-03-08T22:17:26.803Z</time>
      </trkpt>
      <trkpt lat="44.79098" lon="3.26605">
        <ele>1032.605983</ele>
        <time>2020-03-08T22:17:35.013Z</time>
      </trkpt>
      <trkpt lat="44.79086" lon="3.26525">
        <ele>1034.476923</ele>
        <time>2020-03-08T22:17:51.674Z</time>
      </trkpt>
      <trkpt lat="44.79083" lon="3.26501">
        <ele>1035.012241</ele>
        <time>2020-03-08T22:17:55.760Z</time>
      </trkpt>
      <trkpt lat="44.79071" lon="3.26349">
        <ele>1038.044426</ele>
        <time>2020-03-08T22:18:18.931Z</time>
      </trkpt>
      <trkpt lat="44.79068" lon="3.2633">
        <ele>1038.316322</ele>
        <time>2020-03-08T22:18:21.831Z</time>
      </trkpt>
      <trkpt lat="44.79046" lon="3.26269">
        <ele>1039.317269</ele>
        <time>2020-03-08T22:18:31.946Z</time>
      </trkpt>
      <trkpt lat="44.79015" lon="3.26182">
        <ele>1040.739534</ele>
        <time>2020-03-08T22:18:48.810Z</time>
      </trkpt>
      <trkpt lat="44.79" lon="3.26159">
        <ele>1041.313776</ele>
        <time>2020-03-08T22:18:55.025Z</time>
      </trkpt>
      <trkpt lat="44.78982" lon="3.26132">
        <ele>1042.056254</ele>
        <time>2020-03-08T22:19:02.360Z</time>
      </trkpt>
      <trkpt lat="44.78968" lon="3.26107">
        <ele>1042.700449</ele>
        <time>2020-03-08T22:19:08.572Z</time>
      </trkpt>
      <trkpt lat="44.7895" lon="3.2608">
        <ele>1043.437785</ele>
        <time>2020-03-08T22:19:15.717Z</time>
      </trkpt>
      <trkpt lat="44.78936" lon="3.26059">
        <ele>1044.019427</ele>
        <time>2020-03-08T22:19:21.091Z</time>
      </trkpt>
      <trkpt lat="44.78922" lon="3.26043">
        <ele>1044.545554</ele>
        <time>2020-03-08T22:19:26.056Z</time>
      </trkpt>
      <trkpt lat="44.78835" lon="3.2598">
        <ele>1046.79811</ele>
        <time>2020-03-08T22:19:50.713Z</time>
      </trkpt>
      <trkpt lat="44.78715" lon="3.25878">
        <ele>1049.077356</ele>
        <time>2020-03-08T22:20:20.404Z</time>
      </trkpt>
      <trkpt lat="44.78608" lon="3.25809">
        <ele>1049.022376</ele>
        <time>2020-03-08T22:20:37.276Z</time>
      </trkpt>
      <trkpt lat="44.78579" lon="3.25781">
        <ele>1049.006016</ele>
        <time>2020-03-08T22:20:41.861Z</time>
      </trkpt>
      <trkpt lat="44.7856" lon="3.25734">
        <ele>1048.940165</ele>
        <time>2020-03-08T22:20:46.816Z</time>
      </trkpt>
      <trkpt lat="44.78559" lon="3.25731">
        <ele>1048.93244</ele>
        <time>2020-03-08T22:20:47.048Z</time>
      </trkpt>
      <trkpt lat="44.78537" lon="3.25666">
        <ele>1048.767707</ele>
        <time>2020-03-08T22:20:53.946Z</time>
      </trkpt>
      <trkpt lat="44.78457" lon="3.25551">
        <ele>1048.417466</ele>
        <time>2020-03-08T22:21:09.931Z</time>
      </trkpt>
      <trkpt lat="44.78413" lon="3.25479">
        <ele>1048.369954</ele>
        <time>2020-03-08T22:21:20.762Z</time>
      </trkpt>
      <trkpt lat="44.7831" lon="3.25309">
        <ele>1048.270865</ele>
        <time>2020-03-08T22:21:43.339Z</time>
      </trkpt>
      <trkpt lat="44.78293" lon="3.25265">
        <ele>1048.254792</ele>
        <time>2020-03-08T22:21:48.085Z</time>
      </trkpt>
      <trkpt lat="44.78283" lon="3.252">
        <ele>1048.233115</ele>
        <time>2020-03-08T22:21:54.852Z</time>
      </trkpt>
      <trkpt lat="44.78273" lon="3.25075">
        <ele>1048.524214</ele>
        <time>2020-03-08T22:22:09.231Z</time>
      </trkpt>
      <trkpt lat="44.78238" lon="3.2485">
        <ele>1049.785867</ele>
        <time>2020-03-08T22:22:39.330Z</time>
      </trkpt>
      <trkpt lat="44.78222" lon="3.24783">
        <ele>1050.351547</ele>
        <time>2020-03-08T22:22:48.625Z</time>
      </trkpt>
      <trkpt lat="44.78173" lon="3.2467">
        <ele>1051.395726</ele>
        <time>2020-03-08T22:23:07.320Z</time>
      </trkpt>
      <trkpt lat="44.78171" lon="3.24665">
        <ele>1051.439297</ele>
        <time>2020-03-08T22:23:07.819Z</time>
      </trkpt>
      <trkpt lat="44.78147" lon="3.24605">
        <ele>1051.723527</ele>
        <time>2020-03-08T22:23:18.282Z</time>
      </trkpt>
      <trkpt lat="44.78038" lon="3.2439">
        <ele>1051.057233</ele>
        <time>2020-03-08T22:23:48.261Z</time>
      </trkpt>
      <trkpt lat="44.78002" lon="3.24315">
        <ele>1049.332411</ele>
        <time>2020-03-08T22:23:54.978Z</time>
      </trkpt>
      <trkpt lat="44.77959" lon="3.24245">
        <ele>1047.598896</ele>
        <time>2020-03-08T22:24:01.132Z</time>
      </trkpt>
      <trkpt lat="44.77929" lon="3.24183">
        <ele>1046.121211</ele>
        <time>2020-03-08T22:24:06.170Z</time>
      </trkpt>
      <trkpt lat="44.77911" lon="3.2413">
        <ele>1044.969423</ele>
        <time>2020-03-08T22:24:10.210Z</time>
      </trkpt>
      <trkpt lat="44.77909" lon="3.24124">
        <ele>1044.838689</ele>
        <time>2020-03-08T22:24:10.646Z</time>
      </trkpt>
      <trkpt lat="44.77886" lon="3.24064">
        <ele>1043.505241</ele>
        <time>2020-03-08T22:24:16.301Z</time>
      </trkpt>
      <trkpt lat="44.77872" lon="3.24042">
        <ele>1042.927467</ele>
        <time>2020-03-08T22:24:20.153Z</time>
      </trkpt>
      <trkpt lat="44.77827" lon="3.24008">
        <ele>1044.649041</ele>
        <time>2020-03-08T22:24:29.461Z</time>
      </trkpt>
      <trkpt lat="44.778" lon="3.23982">
        <ele>1046.157651</ele>
        <time>2020-03-08T22:24:38.860Z</time>
      </trkpt>
      <trkpt lat="44.77792" lon="3.23974">
        <ele>1046.600143</ele>
        <time>2020-03-08T22:24:41.800Z</time>
      </trkpt>
      <trkpt lat="44.77782" lon="3.23965">
        <ele>1047.128586</ele>
        <time>2020-03-08T22:24:47.174Z</time>
      </trkpt>
      <trkpt lat="44.77731" lon="3.23889">
        <ele>1050.530856</ele>
        <time>2020-03-08T22:25:17.562Z</time>
      </trkpt>
      <trkpt lat="44.77664" lon="3.23773">
        <ele>1058.643269</ele>
        <time>2020-03-08T22:26:08.068Z</time>
      </trkpt>
      <trkpt lat="44.77588" lon="3.23653">
        <ele>1067.653965</ele>
        <time>2020-03-08T22:27:01.393Z</time>
      </trkpt>
      <trkpt lat="44.77523" lon="3.23587">
        <ele>1073.914851</ele>
        <time>2020-03-08T22:27:38.527Z</time>
      </trkpt>
      <trkpt lat="44.77504" lon="3.23557">
        <ele>1076.152138</ele>
        <time>2020-03-08T22:27:51.702Z</time>
      </trkpt>
      <trkpt lat="44.77445" lon="3.23379">
        <ele>1086.758595</ele>
        <time>2020-03-08T22:28:55.555Z</time>
      </trkpt>
      <trkpt lat="44.7743" lon="3.23346">
        <ele>1088.878306</ele>
        <time>2020-03-08T22:29:08.353Z</time>
      </trkpt>
      <trkpt lat="44.77407" lon="3.23318">
        <ele>1091.144089</ele>
        <time>2020-03-08T22:29:21.695Z</time>
      </trkpt>
      <trkpt lat="44.77392" lon="3.23305">
        <ele>1092.431861</ele>
        <time>2020-03-08T22:29:29.182Z</time>
      </trkpt>
      <trkpt lat="44.77359" lon="3.23293">
        <ele>1094.576074</ele>
        <time>2020-03-08T22:29:43.778Z</time>
      </trkpt>
      <trkpt lat="44.77326" lon="3.23296">
        <ele>1096.584737</ele>
        <time>2020-03-08T22:29:57.422Z</time>
      </trkpt>
      <trkpt lat="44.77297" lon="3.2331">
        <ele>1098.436112</ele>
        <time>2020-03-08T22:30:09.533Z</time>
      </trkpt>
      <trkpt lat="44.7723" lon="3.23373">
        <ele>1103.332245</ele>
        <time>2020-03-08T22:30:39.758Z</time>
      </trkpt>
      <trkpt lat="44.77173" lon="3.23444">
        <ele>1106.393352</ele>
        <time>2020-03-08T22:31:05.621Z</time>
      </trkpt>
      <trkpt lat="44.7706" lon="3.23538">
        <ele>1111.145833</ele>
        <time>2020-03-08T22:31:41.898Z</time>
      </trkpt>
      <trkpt lat="44.77038" lon="3.23556">
        <ele>1111.711186</ele>
        <time>2020-03-08T22:31:48.612Z</time>
      </trkpt>
      <trkpt lat="44.7701" lon="3.23558">
        <ele>1112.341682</ele>
        <time>2020-03-08T22:31:55.679Z</time>
      </trkpt>
      <trkpt lat="44.7697" lon="3.23555">
        <ele>1113.239865</ele>
        <time>2020-03-08T22:32:05.141Z</time>
      </trkpt>
      <trkpt lat="44.7692" lon="3.23546">
        <ele>1114.348487</ele>
        <time>2020-03-08T22:32:15.793Z</time>
      </trkpt>
      <trkpt lat="44.76911" lon="3.23545">
        <ele>1114.545113</ele>
        <time>2020-03-08T22:32:17.448Z</time>
      </trkpt>
      <trkpt lat="44.76893" lon="3.23543">
        <ele>1114.799816</ele>
        <time>2020-03-08T22:32:21.017Z</time>
      </trkpt>
      <trkpt lat="44.76758" lon="3.23563">
        <ele>1116.213353</ele>
        <time>2020-03-08T22:32:47.330Z</time>
      </trkpt>
      <trkpt lat="44.76712" lon="3.23558">
        <ele>1116.682263</ele>
        <time>2020-03-08T22:32:54.926Z</time>
      </trkpt>
      <trkpt lat="44.76604" lon="3.23484">
        <ele>1117.919949</ele>
        <time>2020-03-08T22:33:16.697Z</time>
      </trkpt>
      <trkpt lat="44.76539" lon="3.23473">
        <ele>1118.790606</ele>
        <time>2020-03-08T22:33:30.294Z</time>
      </trkpt>
      <trkpt lat="44.765" lon="3.23452">
        <ele>1119.611765</ele>
        <time>2020-03-08T22:33:39.651Z</time>
      </trkpt>
      <trkpt lat="44.7645" lon="3.23414">
        <ele>1120.743832</ele>
        <time>2020-03-08T22:33:53.211Z</time>
      </trkpt>
      <trkpt lat="44.76408" lon="3.23359">
        <ele>1121.866611</ele>
        <time>2020-03-08T22:34:07.084Z</time>
      </trkpt>
      <trkpt lat="44.76387" lon="3.23354">
        <ele>1122.220944</ele>
        <time>2020-03-08T22:34:12.353Z</time>
      </trkpt>
      <trkpt lat="44.76167" lon="3.2336">
        <ele>1124.44845</ele>
        <time>2020-03-08T22:34:57.514Z</time>
      </trkpt>
      <trkpt lat="44.76103" lon="3.23324">
        <ele>1124.044381</ele>
        <time>2020-03-08T22:35:06.053Z</time>
      </trkpt>
      <trkpt lat="44.76044" lon="3.23266">
        <ele>1123.243248</ele>
        <time>2020-03-08T22:35:13.859Z</time>
      </trkpt>
      <trkpt lat="44.76041" lon="3.23262">
        <ele>1123.117162</ele>
        <time>2020-03-08T22:35:14.330Z</time>
      </trkpt>
      <trkpt lat="44.76018" lon="3.23241">
        <ele>1122.415064</ele>
        <time>2020-03-08T22:35:17.138Z</time>
      </trkpt>
      <trkpt lat="44.75994" lon="3.23227">
        <ele>1121.729956</ele>
        <time>2020-03-08T22:35:19.800Z</time>
      </trkpt>
      <trkpt lat="44.75866" lon="3.2319">
        <ele>1118.490257</ele>
        <time>2020-03-08T22:35:33.347Z</time>
      </trkpt>
      <trkpt lat="44.75812" lon="3.23141">
        <ele>1117.206954</ele>
        <time>2020-03-08T22:35:40.411Z</time>
      </trkpt>
      <trkpt lat="44.75764" lon="3.23078">
        <ele>1115.901251</ele>
        <time>2020-03-08T22:35:47.853Z</time>
      </trkpt>
      <trkpt lat="44.75652" lon="3.23021">
        <ele>1112.824807</ele>
        <time>2020-03-08T22:36:01.475Z</time>
      </trkpt>
      <trkpt lat="44.75529" lon="3.22948">
        <ele>1107.477355</ele>
        <time>2020-03-08T22:36:14.545Z</time>
      </trkpt>
      <trkpt lat="44.75441" lon="3.22886">
        <ele>1101.355023</ele>
        <time>2020-03-08T22:36:23.422Z</time>
      </trkpt>
      <trkpt lat="44.75398" lon="3.2285">
        <ele>1098.163542</ele>
        <time>2020-03-08T22:36:27.888Z</time>
      </trkpt>
      <trkpt lat="44.75371" lon="3.22814">
        <ele>1095.660864</ele>
        <time>2020-03-08T22:36:31.205Z</time>
      </trkpt>
      <trkpt lat="44.75357" lon="3.2279">
        <ele>1094.234742</ele>
        <time>2020-03-08T22:36:33.097Z</time>
      </trkpt>
      <trkpt lat="44.75271" lon="3.22738">
        <ele>1087.91285</ele>
        <time>2020-03-08T22:36:41.688Z</time>
      </trkpt>
      <trkpt lat="44.75214" lon="3.22684">
        <ele>1085.083632</ele>
        <time>2020-03-08T22:36:48.158Z</time>
      </trkpt>
      <trkpt lat="44.75187" lon="3.22644">
        <ele>1083.63783</ele>
        <time>2020-03-08T22:36:51.931Z</time>
      </trkpt>
      <trkpt lat="44.75177" lon="3.2262">
        <ele>1082.881736</ele>
        <time>2020-03-08T22:36:53.950Z</time>
      </trkpt>
      <trkpt lat="44.75177" lon="3.22595">
        <ele>1082.195644</ele>
        <time>2020-03-08T22:36:55.818Z</time>
      </trkpt>
      <trkpt lat="44.75215" lon="3.2251">
        <ele>1080.766354</ele>
        <time>2020-03-08T22:37:03.613Z</time>
      </trkpt>
      <trkpt lat="44.75217" lon="3.22484">
        <ele>1080.867985</ele>
        <time>2020-03-08T22:37:05.766Z</time>
      </trkpt>
      <trkpt lat="44.75214" lon="3.22462">
        <ele>1080.960415</ele>
        <time>2020-03-08T22:37:07.938Z</time>
      </trkpt>
      <trkpt lat="44.75207" lon="3.2244">
        <ele>1081.053853</ele>
        <time>2020-03-08T22:37:10.229Z</time>
      </trkpt>
      <trkpt lat="44.75171" lon="3.22385">
        <ele>1081.350455</ele>
        <time>2020-03-08T22:37:20.228Z</time>
      </trkpt>
      <trkpt lat="44.75171" lon="3.22385">
        <ele>1081.351139</ele>
        <time>2020-03-08T22:37:20.406Z</time>
      </trkpt>
      <trkpt lat="44.75138" lon="3.22348">
        <ele>1081.587202</ele>
        <time>2020-03-08T22:37:31.028Z</time>
      </trkpt>
      <trkpt lat="44.75111" lon="3.2234">
        <ele>1082.765346</ele>
        <time>2020-03-08T22:37:39.083Z</time>
      </trkpt>
      <trkpt lat="44.75085" lon="3.22347">
        <ele>1083.999416</ele>
        <time>2020-03-08T22:37:47.253Z</time>
      </trkpt>
      <trkpt lat="44.7498" lon="3.22409">
        <ele>1089.500154</ele>
        <time>2020-03-08T22:38:26.471Z</time>
      </trkpt>
      <trkpt lat="44.74927" lon="3.22422">
        <ele>1093.0492</ele>
        <time>2020-03-08T22:38:50.160Z</time>
      </trkpt>
      <trkpt lat="44.74907" lon="3.22418">
        <ele>1094.552833</ele>
        <time>2020-03-08T22:38:58.412Z</time>
      </trkpt>
      <trkpt lat="44.74879" lon="3.22402">
        <ele>1096.842928</ele>
        <time>2020-03-08T22:39:12.464Z</time>
      </trkpt>
      <trkpt lat="44.74852" lon="3.2237">
        <ele>1099.469125</ele>
        <time>2020-03-08T22:39:28.946Z</time>
      </trkpt>
      <trkpt lat="44.74841" lon="3.22352">
        <ele>1100.724119</ele>
        <time>2020-03-08T22:39:38.407Z</time>
      </trkpt>
      <trkpt lat="44.74838" lon="3.22344">
        <ele>1101.236465</ele>
        <time>2020-03-08T22:39:41.291Z</time>
      </trkpt>
      <trkpt lat="44.74829" lon="3.22313">
        <ele>1102.990717</ele>
        <time>2020-03-08T22:39:51.210Z</time>
      </trkpt>
      <trkpt lat="44.74827" lon="3.22306">
        <ele>1103.375469</ele>
        <time>2020-03-08T22:39:54.651Z</time>
      </trkpt>
      <trkpt lat="44.74815" lon="3.22268">
        <ele>1105.096794</ele>
        <time>2020-03-08T22:40:06.745Z</time>
      </trkpt>
      <trkpt lat="44.7481" lon="3.22259">
        <ele>1105.545568</ele>
        <time>2020-03-08T22:40:11.642Z</time>
      </trkpt>
      <trkpt lat="44.74803" lon="3.22252">
        <ele>1106.063863</ele>
        <time>2020-03-08T22:40:14.969Z</time>
      </trkpt>
      <trkpt lat="44.74769" lon="3.22242">
        <ele>1107.982249</ele>
        <time>2020-03-08T22:40:29.853Z</time>
      </trkpt>
      <trkpt lat="44.74742" lon="3.22248">
        <ele>1109.511192</ele>
        <time>2020-03-08T22:40:41.537Z</time>
      </trkpt>
      <trkpt lat="44.74696" lon="3.22245">
        <ele>1112.128162</ele>
        <time>2020-03-08T22:40:56.492Z</time>
      </trkpt>
      <trkpt lat="44.74659" lon="3.22232">
        <ele>1113.887163</ele>
        <time>2020-03-08T22:41:06.831Z</time>
      </trkpt>
      <trkpt lat="44.74566" lon="3.22135">
        <ele>1115.752609</ele>
        <time>2020-03-08T22:41:30.079Z</time>
      </trkpt>
      <trkpt lat="44.74538" lon="3.22091">
        <ele>1116.439981</ele>
        <time>2020-03-08T22:41:37.889Z</time>
      </trkpt>
      <trkpt lat="44.74501" lon="3.22012">
        <ele>1117.822751</ele>
        <time>2020-03-08T22:41:51.249Z</time>
      </trkpt>
      <trkpt lat="44.7449" lon="3.21969">
        <ele>1118.518051</ele>
        <time>2020-03-08T22:41:58.630Z</time>
      </trkpt>
      <trkpt lat="44.74477" lon="3.21888">
        <ele>1119.798769</ele>
        <time>2020-03-08T22:42:13.651Z</time>
      </trkpt>
      <trkpt lat="44.74478" lon="3.21844">
        <ele>1120.46534</ele>
        <time>2020-03-08T22:42:21.990Z</time>
      </trkpt>
      <trkpt lat="44.74488" lon="3.21803">
        <ele>1121.295325</ele>
        <time>2020-03-08T22:42:30.618Z</time>
      </trkpt>
      <trkpt lat="44.74561" lon="3.21642">
        <ele>1124.972114</ele>
        <time>2020-03-08T22:43:06.171Z</time>
      </trkpt>
      <trkpt lat="44.74572" lon="3.2161">
        <ele>1125.550816</ele>
        <time>2020-03-08T22:43:12.028Z</time>
      </trkpt>
      <trkpt lat="44.74582" lon="3.21515">
        <ele>1126.667845</ele>
        <time>2020-03-08T22:43:26.882Z</time>
      </trkpt>
      <trkpt lat="44.74566" lon="3.21393">
        <ele>1128.108302</ele>
        <time>2020-03-08T22:43:44.386Z</time>
      </trkpt>
      <trkpt lat="44.74568" lon="3.21361">
        <ele>1128.526649</ele>
        <time>2020-03-08T22:43:48.988Z</time>
      </trkpt>
      <trkpt lat="44.74594" lon="3.2123">
        <ele>1130.585466</ele>
        <time>2020-03-08T22:44:09.545Z</time>
      </trkpt>
      <trkpt lat="44.746" lon="3.2121">
        <ele>1130.922037</ele>
        <time>2020-03-08T22:44:13.626Z</time>
      </trkpt>
      <trkpt lat="44.74603" lon="3.21179">
        <ele>1131.393333</ele>
        <time>2020-03-08T22:44:18.513Z</time>
      </trkpt>
      <trkpt lat="44.74587" lon="3.20948">
        <ele>1136.865049</ele>
        <time>2020-03-08T22:45:06.162Z</time>
      </trkpt>
      <trkpt lat="44.74579" lon="3.20907">
        <ele>1137.994838</ele>
        <time>2020-03-08T22:45:16.696Z</time>
      </trkpt>
      <trkpt lat="44.74566" lon="3.2088">
        <ele>1138.824311</ele>
        <time>2020-03-08T22:45:24.243Z</time>
      </trkpt>
      <trkpt lat="44.74526" lon="3.20844">
        <ele>1139.978853</ele>
        <time>2020-03-08T22:45:38.312Z</time>
      </trkpt>
      <trkpt lat="44.74516" lon="3.20816">
        <ele>1140.507662</ele>
        <time>2020-03-08T22:45:44.336Z</time>
      </trkpt>
      <trkpt lat="44.74501" lon="3.20763">
        <ele>1141.501569</ele>
        <time>2020-03-08T22:45:54.797Z</time>
      </trkpt>
      <trkpt lat="44.74489" lon="3.20711">
        <ele>1142.441946</ele>
        <time>2020-03-08T22:46:03.247Z</time>
      </trkpt>
      <trkpt lat="44.74484" lon="3.2067">
        <ele>1143.146086</ele>
        <time>2020-03-08T22:46:08.935Z</time>
      </trkpt>
      <trkpt lat="44.74482" lon="3.20654">
        <ele>1142.995107</ele>
        <time>2020-03-08T22:46:10.732Z</time>
      </trkpt>
      <trkpt lat="44.74479" lon="3.20623">
        <ele>1142.704096</ele>
        <time>2020-03-08T22:46:14.191Z</time>
      </trkpt>
      <trkpt lat="44.74442" lon="3.20439">
        <ele>1140.890079</ele>
        <time>2020-03-08T22:46:29.411Z</time>
      </trkpt>
      <trkpt lat="44.7444" lon="3.20369">
        <ele>1139.656324</ele>
        <time>2020-03-08T22:46:34.598Z</time>
      </trkpt>
      <trkpt lat="44.74445" lon="3.20331">
        <ele>1138.883657</ele>
        <time>2020-03-08T22:46:37.490Z</time>
      </trkpt>
      <trkpt lat="44.74461" lon="3.2028">
        <ele>1137.792197</ele>
        <time>2020-03-08T22:46:41.554Z</time>
      </trkpt>
      <trkpt lat="44.74508" lon="3.20179">
        <ele>1135.438681</ele>
        <time>2020-03-08T22:46:50.376Z</time>
      </trkpt>
      <trkpt lat="44.74525" lon="3.20039">
        <ele>1132.886046</ele>
        <time>2020-03-08T22:47:00.751Z</time>
      </trkpt>
      <trkpt lat="44.74559" lon="3.19968">
        <ele>1131.346266</ele>
        <time>2020-03-08T22:47:07.346Z</time>
      </trkpt>
      <trkpt lat="44.74564" lon="3.19936">
        <ele>1131.12288</ele>
        <time>2020-03-08T22:47:09.954Z</time>
      </trkpt>
      <trkpt lat="44.74553" lon="3.19883">
        <ele>1130.947265</ele>
        <time>2020-03-08T22:47:14.839Z</time>
      </trkpt>
      <trkpt lat="44.74536" lon="3.19816">
        <ele>1130.72236</ele>
        <time>2020-03-08T22:47:21.772Z</time>
      </trkpt>
      <trkpt lat="44.74519" lon="3.19791">
        <ele>1130.611841</ele>
        <time>2020-03-08T22:47:25.325Z</time>
      </trkpt>
      <trkpt lat="44.74492" lon="3.1977">
        <ele>1130.469746</ele>
        <time>2020-03-08T22:47:29.840Z</time>
      </trkpt>
      <trkpt lat="44.74487" lon="3.19769">
        <ele>1130.451059</ele>
        <time>2020-03-08T22:47:30.880Z</time>
      </trkpt>
      <trkpt lat="44.7447" lon="3.19764">
        <ele>1130.497687</ele>
        <time>2020-03-08T22:47:33.840Z</time>
      </trkpt>
      <trkpt lat="44.74423" lon="3.1974">
        <ele>1131.413123</ele>
        <time>2020-03-08T22:47:43.317Z</time>
      </trkpt>
      <trkpt lat="44.74401" lon="3.19717">
        <ele>1131.911649</ele>
        <time>2020-03-08T22:47:49.185Z</time>
      </trkpt>
      <trkpt lat="44.74337" lon="3.19626">
        <ele>1133.574982</ele>
        <time>2020-03-08T22:48:10.356Z</time>
      </trkpt>
      <trkpt lat="44.74247" lon="3.19542">
        <ele>1138.815883</ele>
        <time>2020-03-08T22:48:43.266Z</time>
      </trkpt>
      <trkpt lat="44.74226" lon="3.19532">
        <ele>1139.949015</ele>
        <time>2020-03-08T22:48:51.719Z</time>
      </trkpt>
      <trkpt lat="44.74182" lon="3.1954">
        <ele>1142.158215</ele>
        <time>2020-03-08T22:49:10.090Z</time>
      </trkpt>
      <trkpt lat="44.74148" lon="3.19526">
        <ele>1144.810128</ele>
        <time>2020-03-08T22:49:26.196Z</time>
      </trkpt>
      <trkpt lat="44.74144" lon="3.19521">
        <ele>1145.283437</ele>
        <time>2020-03-08T22:49:29.653Z</time>
      </trkpt>
      <trkpt lat="44.74122" lon="3.19494">
        <ele>1147.757575</ele>
        <time>2020-03-08T22:49:42.797Z</time>
      </trkpt>
      <trkpt lat="44.74109" lon="3.19462">
        <ele>1149.961373</ele>
        <time>2020-03-08T22:49:55.908Z</time>
      </trkpt>
      <trkpt lat="44.74104" lon="3.19407">
        <ele>1153.334035</ele>
        <time>2020-03-08T22:50:16.267Z</time>
      </trkpt>
      <trkpt lat="44.74093" lon="3.19381">
        <ele>1155.173173</ele>
        <time>2020-03-08T22:50:28.088Z</time>
      </trkpt>
      <trkpt lat="44.7401" lon="3.19297">
        <ele>1162.950722</ele>
        <time>2020-03-08T22:51:18.253Z</time>
      </trkpt>
      <trkpt lat="44.73991" lon="3.19269">
        <ele>1165.002543</ele>
        <time>2020-03-08T22:51:30.723Z</time>
      </trkpt>
      <trkpt lat="44.73971" lon="3.19221">
        <ele>1167.858357</ele>
        <time>2020-03-08T22:51:47.638Z</time>
      </trkpt>
      <trkpt lat="44.7387" lon="3.19107">
        <ele>1173.942401</ele>
        <time>2020-03-08T22:52:34.480Z</time>
      </trkpt>
      <trkpt lat="44.73859" lon="3.19082">
        <ele>1174.656236</ele>
        <time>2020-03-08T22:52:40.731Z</time>
      </trkpt>
      <trkpt lat="44.7385" lon="3.18988">
        <ele>1176.925423</ele>
        <time>2020-03-08T22:52:56.032Z</time>
      </trkpt>
      <trkpt lat="44.7383" lon="3.18863">
        <ele>1175.05282</ele>
        <time>2020-03-08T22:53:07.189Z</time>
      </trkpt>
      <trkpt lat="44.73775" lon="3.1865">
        <ele>1169.517816</ele>
        <time>2020-03-08T22:53:22.725Z</time>
      </trkpt>
      <trkpt lat="44.73753" lon="3.18549">
        <ele>1165.911531</ele>
        <time>2020-03-08T22:53:29.670Z</time>
      </trkpt>
      <trkpt lat="44.73751" lon="3.18526">
        <ele>1165.127543</ele>
        <time>2020-03-08T22:53:31.223Z</time>
      </trkpt>
      <trkpt lat="44.73758" lon="3.18439">
        <ele>1163.280273</ele>
        <time>2020-03-08T22:53:37.325Z</time>
      </trkpt>
      <trkpt lat="44.73758" lon="3.18416">
        <ele>1162.959484</ele>
        <time>2020-03-08T22:53:38.986Z</time>
      </trkpt>
      <trkpt lat="44.7376" lon="3.18389">
        <ele>1162.576892</ele>
        <time>2020-03-08T22:53:41.192Z</time>
      </trkpt>
      <trkpt lat="44.73757" lon="3.18379">
        <ele>1162.424762</ele>
        <time>2020-03-08T22:53:42.055Z</time>
      </trkpt>
      <trkpt lat="44.73753" lon="3.18362">
        <ele>1162.186417</ele>
        <time>2020-03-08T22:53:43.345Z</time>
      </trkpt>
      <trkpt lat="44.73735" lon="3.18319">
        <ele>1161.491312</ele>
        <time>2020-03-08T22:53:47.612Z</time>
      </trkpt>
      <trkpt lat="44.73708" lon="3.18236">
        <ele>1160.632537</ele>
        <time>2020-03-08T22:53:56.565Z</time>
      </trkpt>
      <trkpt lat="44.73692" lon="3.18215">
        <ele>1160.771708</ele>
        <time>2020-03-08T22:54:00.240Z</time>
      </trkpt>
      <trkpt lat="44.73676" lon="3.18205">
        <ele>1160.878602</ele>
        <time>2020-03-08T22:54:03.439Z</time>
      </trkpt>
      <trkpt lat="44.73616" lon="3.1822">
        <ele>1161.254055</ele>
        <time>2020-03-08T22:54:15.617Z</time>
      </trkpt>
      <trkpt lat="44.73583" lon="3.18244">
        <ele>1161.479838</ele>
        <time>2020-03-08T22:54:22.362Z</time>
      </trkpt>
      <trkpt lat="44.73526" lon="3.18261">
        <ele>1161.670269</ele>
        <time>2020-03-08T22:54:32.208Z</time>
      </trkpt>
      <trkpt lat="44.73444" lon="3.18354">
        <ele>1161.747986</ele>
        <time>2020-03-08T22:54:47.487Z</time>
      </trkpt>
      <trkpt lat="44.73428" lon="3.18362">
        <ele>1161.760621</ele>
        <time>2020-03-08T22:54:49.813Z</time>
      </trkpt>
      <trkpt lat="44.73281" lon="3.18383">
        <ele>1160.910645</ele>
        <time>2020-03-08T22:55:10.960Z</time>
      </trkpt>
      <trkpt lat="44.73268" lon="3.18383">
        <ele>1160.818661</ele>
        <time>2020-03-08T22:55:12.754Z</time>
      </trkpt>
      <trkpt lat="44.73174" lon="3.18362">
        <ele>1159.132773</ele>
        <time>2020-03-08T22:55:23.193Z</time>
      </trkpt>
      <trkpt lat="44.73146" lon="3.18359">
        <ele>1158.369974</ele>
        <time>2020-03-08T22:55:26.191Z</time>
      </trkpt>
      <trkpt lat="44.7313" lon="3.18359">
        <ele>1157.958461</ele>
        <time>2020-03-08T22:55:27.807Z</time>
      </trkpt>
      <trkpt lat="44.73104" lon="3.18365">
        <ele>1157.235659</ele>
        <time>2020-03-08T22:55:30.493Z</time>
      </trkpt>
      <trkpt lat="44.72975" lon="3.18416">
        <ele>1154.22275</ele>
        <time>2020-03-08T22:55:43.920Z</time>
      </trkpt>
      <trkpt lat="44.72923" lon="3.18442">
        <ele>1153.198841</ele>
        <time>2020-03-08T22:55:50.006Z</time>
      </trkpt>
      <trkpt lat="44.729" lon="3.18434">
        <ele>1152.747695</ele>
        <time>2020-03-08T22:55:52.970Z</time>
      </trkpt>
      <trkpt lat="44.728" lon="3.18375">
        <ele>1153.56915</ele>
        <time>2020-03-08T22:56:12.585Z</time>
      </trkpt>
      <trkpt lat="44.72783" lon="3.18377">
        <ele>1153.839763</ele>
        <time>2020-03-08T22:56:16.995Z</time>
      </trkpt>
      <trkpt lat="44.72605" lon="3.18406">
        <ele>1156.374658</ele>
        <time>2020-03-08T22:57:00.855Z</time>
      </trkpt>
      <trkpt lat="44.72599" lon="3.18407">
        <ele>1156.449138</ele>
        <time>2020-03-08T22:57:02.703Z</time>
      </trkpt>
      <trkpt lat="44.72563" lon="3.18412">
        <ele>1156.900825</ele>
        <time>2020-03-08T22:57:09.104Z</time>
      </trkpt>
      <trkpt lat="44.72473" lon="3.18442">
        <ele>1156.127417</ele>
        <time>2020-03-08T22:57:20.381Z</time>
      </trkpt>
      <trkpt lat="44.7239" lon="3.1851">
        <ele>1153.828174</ele>
        <time>2020-03-08T22:57:30.211Z</time>
      </trkpt>
      <trkpt lat="44.72372" lon="3.18529">
        <ele>1153.27834</ele>
        <time>2020-03-08T22:57:32.412Z</time>
      </trkpt>
      <trkpt lat="44.72346" lon="3.18562">
        <ele>1152.699173</ele>
        <time>2020-03-08T22:57:35.921Z</time>
      </trkpt>
      <trkpt lat="44.72326" lon="3.18599">
        <ele>1152.224522</ele>
        <time>2020-03-08T22:57:39.452Z</time>
      </trkpt>
      <trkpt lat="44.7231" lon="3.18678">
        <ele>1151.397349</ele>
        <time>2020-03-08T22:57:46.289Z</time>
      </trkpt>
      <trkpt lat="44.72298" lon="3.18698">
        <ele>1151.130927</ele>
        <time>2020-03-08T22:57:48.348Z</time>
      </trkpt>
      <trkpt lat="44.72275" lon="3.18719">
        <ele>1150.740285</ele>
        <time>2020-03-08T22:57:52.565Z</time>
      </trkpt>
      <trkpt lat="44.7222" lon="3.18764">
        <ele>1151.395126</ele>
        <time>2020-03-08T22:58:05.158Z</time>
      </trkpt>
      <trkpt lat="44.72199" lon="3.18765">
        <ele>1151.78437</ele>
        <time>2020-03-08T22:58:09.406Z</time>
      </trkpt>
      <trkpt lat="44.72146" lon="3.18743">
        <ele>1152.799747</ele>
        <time>2020-03-08T22:58:22.791Z</time>
      </trkpt>
      <trkpt lat="44.7212" lon="3.18739">
        <ele>1153.268753</ele>
        <time>2020-03-08T22:58:29.733Z</time>
      </trkpt>
      <trkpt lat="44.721" lon="3.18746">
        <ele>1153.655848</ele>
        <time>2020-03-08T22:58:35.245Z</time>
      </trkpt>
      <trkpt lat="44.71899" lon="3.18892">
        <ele>1158.30079</ele>
        <time>2020-03-08T22:59:26.935Z</time>
      </trkpt>
      <trkpt lat="44.71757" lon="3.18997">
        <ele>1161.429264</ele>
        <time>2020-03-08T23:00:03.273Z</time>
      </trkpt>
      <trkpt lat="44.7175" lon="3.19002">
        <ele>1161.568139</ele>
        <time>2020-03-08T23:00:05.463Z</time>
      </trkpt>
      <trkpt lat="44.71677" lon="3.19056">
        <ele>1162.922754</ele>
        <time>2020-03-08T23:00:23.528Z</time>
      </trkpt>
      <trkpt lat="44.71536" lon="3.1916">
        <ele>1165.056708</ele>
        <time>2020-03-08T23:00:55.268Z</time>
      </trkpt>
      <trkpt lat="44.71409" lon="3.19206">
        <ele>1166.579048</ele>
        <time>2020-03-08T23:01:19.552Z</time>
      </trkpt>
      <trkpt lat="44.71222" lon="3.19229">
        <ele>1169.297939</ele>
        <time>2020-03-08T23:01:57.695Z</time>
      </trkpt>
      <trkpt lat="44.71127" lon="3.19199">
        <ele>1171.184147</ele>
        <time>2020-03-08T23:02:20.357Z</time>
      </trkpt>
      <trkpt lat="44.71087" lon="3.19194">
        <ele>1171.955885</ele>
        <time>2020-03-08T23:02:29.995Z</time>
      </trkpt>
      <trkpt lat="44.71017" lon="3.19209">
        <ele>1173.091218</ele>
        <time>2020-03-08T23:02:46.508Z</time>
      </trkpt>
      <trkpt lat="44.70907" lon="3.19204">
        <ele>1174.824187</ele>
        <time>2020-03-08T23:03:08.848Z</time>
      </trkpt>
      <trkpt lat="44.70848" lon="3.19213">
        <ele>1175.240007</ele>
        <time>2020-03-08T23:03:19.112Z</time>
      </trkpt>
      <trkpt lat="44.70804" lon="3.19233">
        <ele>1175.564903</ele>
        <time>2020-03-08T23:03:26.876Z</time>
      </trkpt>
      <trkpt lat="44.70793" lon="3.19236">
        <ele>1175.641864</ele>
        <time>2020-03-08T23:03:28.648Z</time>
      </trkpt>
      <trkpt lat="44.70764" lon="3.19245">
        <ele>1175.852139</ele>
        <time>2020-03-08T23:03:33.851Z</time>
      </trkpt>
      <trkpt lat="44.70757" lon="3.19245">
        <ele>1175.901243</ele>
        <time>2020-03-08T23:03:34.983Z</time>
      </trkpt>
      <trkpt lat="44.70731" lon="3.1925">
        <ele>1176.11702</ele>
        <time>2020-03-08T23:03:39.486Z</time>
      </trkpt>
      <trkpt lat="44.70687" lon="3.1926">
        <ele>1176.781407</ele>
        <time>2020-03-08T23:03:47.460Z</time>
      </trkpt>
      <trkpt lat="44.7065" lon="3.19261">
        <ele>1177.335645</ele>
        <time>2020-03-08T23:03:54.796Z</time>
      </trkpt>
      <trkpt lat="44.70559" lon="3.19248">
        <ele>1178.677922</ele>
        <time>2020-03-08T23:04:15.234Z</time>
      </trkpt>
      <trkpt lat="44.70416" lon="3.19314">
        <ele>1182.450345</ele>
        <time>2020-03-08T23:04:53.087Z</time>
      </trkpt>
      <trkpt lat="44.70336" lon="3.19314">
        <ele>1184.354155</ele>
        <time>2020-03-08T23:05:13.649Z</time>
      </trkpt>
      <trkpt lat="44.70171" lon="3.19329">
        <ele>1187.890359</ele>
        <time>2020-03-08T23:05:52.137Z</time>
      </trkpt>
      <trkpt lat="44.70083" lon="3.19323">
        <ele>1189.353306</ele>
        <time>2020-03-08T23:06:10.605Z</time>
      </trkpt>
      <trkpt lat="44.70047" lon="3.19317">
        <ele>1189.955539</ele>
        <time>2020-03-08T23:06:18.092Z</time>
      </trkpt>
      <trkpt lat="44.70019" lon="3.19312">
        <ele>1190.44558</ele>
        <time>2020-03-08T23:06:23.978Z</time>
      </trkpt>
      <trkpt lat="44.69975" lon="3.19311">
        <ele>1191.304922</ele>
        <time>2020-03-08T23:06:33.068Z</time>
      </trkpt>
      <trkpt lat="44.6995" lon="3.19319">
        <ele>1191.812167</ele>
        <time>2020-03-08T23:06:38.713Z</time>
      </trkpt>
      <trkpt lat="44.69901" lon="3.19361">
        <ele>1192.95057</ele>
        <time>2020-03-08T23:06:51.911Z</time>
      </trkpt>
      <trkpt lat="44.69855" lon="3.19424">
        <ele>1194.243058</ele>
        <time>2020-03-08T23:07:07.378Z</time>
      </trkpt>
      <trkpt lat="44.69837" lon="3.19451">
        <ele>1194.819722</ele>
        <time>2020-03-08T23:07:14.192Z</time>
      </trkpt>
      <trkpt lat="44.69821" lon="3.19497">
        <ele>1195.609241</ele>
        <time>2020-03-08T23:07:24.217Z</time>
      </trkpt>
      <trkpt lat="44.69796" lon="3.19631">
        <ele>1197.731639</ele>
        <time>2020-03-08T23:07:47.096Z</time>
      </trkpt>
      <trkpt lat="44.69782" lon="3.1971">
        <ele>1197.465216</ele>
        <time>2020-03-08T23:07:57.349Z</time>
      </trkpt>
      <trkpt lat="44.69765" lon="3.19804">
        <ele>1197.131773</ele>
        <time>2020-03-08T23:08:06.328Z</time>
      </trkpt>
      <trkpt lat="44.69747" lon="3.19835">
        <ele>1196.993212</ele>
        <time>2020-03-08T23:08:09.610Z</time>
      </trkpt>
      <trkpt lat="44.69715" lon="3.19869">
        <ele>1196.48455</ele>
        <time>2020-03-08T23:08:13.945Z</time>
      </trkpt>
      <trkpt lat="44.6954" lon="3.19968">
        <ele>1191.847157</ele>
        <time>2020-03-08T23:08:33.638Z</time>
      </trkpt>
      <trkpt lat="44.69479" lon="3.19986">
        <ele>1190.574694</ele>
        <time>2020-03-08T23:08:40.454Z</time>
      </trkpt>
      <trkpt lat="44.69368" lon="3.19996">
        <ele>1188.358103</ele>
        <time>2020-03-08T23:08:52.750Z</time>
      </trkpt>
      <trkpt lat="44.69352" lon="3.20008">
        <ele>1188.038262</ele>
        <time>2020-03-08T23:08:54.845Z</time>
      </trkpt>
      <trkpt lat="44.69262" lon="3.20144">
        <ele>1185.819139</ele>
        <time>2020-03-08T23:09:09.495Z</time>
      </trkpt>
      <trkpt lat="44.69229" lon="3.20215">
        <ele>1185.828334</ele>
        <time>2020-03-08T23:09:16.957Z</time>
      </trkpt>
      <trkpt lat="44.69191" lon="3.20268">
        <ele>1186.05553</ele>
        <time>2020-03-08T23:09:25.148Z</time>
      </trkpt>
      <trkpt lat="44.69171" lon="3.20304">
        <ele>1186.192197</ele>
        <time>2020-03-08T23:09:31.076Z</time>
      </trkpt>
      <trkpt lat="44.69102" lon="3.20356">
        <ele>1187.381408</ele>
        <time>2020-03-08T23:09:49.277Z</time>
      </trkpt>
      <trkpt lat="44.69083" lon="3.20374">
        <ele>1188.04479</ele>
        <time>2020-03-08T23:09:55.229Z</time>
      </trkpt>
      <trkpt lat="44.69071" lon="3.20401">
        <ele>1188.712951</ele>
        <time>2020-03-08T23:10:01.358Z</time>
      </trkpt>
      <trkpt lat="44.69061" lon="3.20432">
        <ele>1189.443968</ele>
        <time>2020-03-08T23:10:08.224Z</time>
      </trkpt>
      <trkpt lat="44.6905" lon="3.20497">
        <ele>1190.845401</ele>
        <time>2020-03-08T23:10:21.599Z</time>
      </trkpt>
      <trkpt lat="44.69053" lon="3.20546">
        <ele>1191.927188</ele>
        <time>2020-03-08T23:10:31.545Z</time>
      </trkpt>
      <trkpt lat="44.6907" lon="3.20618">
        <ele>1194.015965</ele>
        <time>2020-03-08T23:10:46.969Z</time>
      </trkpt>
      <trkpt lat="44.69064" lon="3.20703">
        <ele>1196.392817</ele>
        <time>2020-03-08T23:11:06.185Z</time>
      </trkpt>
      <trkpt lat="44.69047" lon="3.20767">
        <ele>1198.273554</ele>
        <time>2020-03-08T23:11:21.916Z</time>
      </trkpt>
      <trkpt lat="44.69023" lon="3.20797">
        <ele>1199.343307</ele>
        <time>2020-03-08T23:11:31.850Z</time>
      </trkpt>
      <trkpt lat="44.6901" lon="3.20829">
        <ele>1200.145455</ele>
        <time>2020-03-08T23:11:39.617Z</time>
      </trkpt>
      <trkpt lat="44.68995" lon="3.20887">
        <ele>1201.466811</ele>
        <time>2020-03-08T23:11:52.428Z</time>
      </trkpt>
      <trkpt lat="44.68962" lon="3.21004">
        <ele>1204.167279</ele>
        <time>2020-03-08T23:12:15.085Z</time>
      </trkpt>
      <trkpt lat="44.68938" lon="3.2109">
        <ele>1204.232071</ele>
        <time>2020-03-08T23:12:27.908Z</time>
      </trkpt>
      <trkpt lat="44.68925" lon="3.21124">
        <ele>1204.259442</ele>
        <time>2020-03-08T23:12:31.713Z</time>
      </trkpt>
      <trkpt lat="44.68904" lon="3.21151">
        <ele>1204.28717</ele>
        <time>2020-03-08T23:12:35.524Z</time>
      </trkpt>
      <trkpt lat="44.68865" lon="3.21178">
        <ele>1204.330114</ele>
        <time>2020-03-08T23:12:40.851Z</time>
      </trkpt>
      <trkpt lat="44.6881" lon="3.21214">
        <ele>1203.345063</ele>
        <time>2020-03-08T23:12:47.930Z</time>
      </trkpt>
      <trkpt lat="44.68755" lon="3.21221">
        <ele>1202.160571</ele>
        <time>2020-03-08T23:12:53.929Z</time>
      </trkpt>
      <trkpt lat="44.68705" lon="3.21213">
        <ele>1201.094112</ele>
        <time>2020-03-08T23:12:59.213Z</time>
      </trkpt>
      <trkpt lat="44.68664" lon="3.2123">
        <ele>1200.044284</ele>
        <time>2020-03-08T23:13:03.653Z</time>
      </trkpt>
      <trkpt lat="44.68627" lon="3.21259">
        <ele>1198.72875</ele>
        <time>2020-03-08T23:13:08.011Z</time>
      </trkpt>
      <trkpt lat="44.68584" lon="3.21276">
        <ele>1197.377174</ele>
        <time>2020-03-08T23:13:12.427Z</time>
      </trkpt>
      <trkpt lat="44.68508" lon="3.21298">
        <ele>1195.003331</ele>
        <time>2020-03-08T23:13:20.257Z</time>
      </trkpt>
      <trkpt lat="44.68419" lon="3.21302">
        <ele>1193.561016</ele>
        <time>2020-03-08T23:13:29.830Z</time>
      </trkpt>
      <trkpt lat="44.68393" lon="3.21311">
        <ele>1193.149448</ele>
        <time>2020-03-08T23:13:32.793Z</time>
      </trkpt>
      <trkpt lat="44.6833" lon="3.21351">
        <ele>1192.144967</ele>
        <time>2020-03-08T23:13:41.742Z</time>
      </trkpt>
      <trkpt lat="44.68305" lon="3.21357">
        <ele>1192.32164</ele>
        <time>2020-03-08T23:13:45.744Z</time>
      </trkpt>
      <trkpt lat="44.68256" lon="3.21354">
        <ele>1192.664919</ele>
        <time>2020-03-08T23:13:54.586Z</time>
      </trkpt>
      <trkpt lat="44.68228" lon="3.21359">
        <ele>1192.85943</ele>
        <time>2020-03-08T23:14:00.136Z</time>
      </trkpt>
      <trkpt lat="44.68192" lon="3.21379">
        <ele>1193.128728</ele>
        <time>2020-03-08T23:14:07.934Z</time>
      </trkpt>
      <trkpt lat="44.68172" lon="3.21403">
        <ele>1193.310259</ele>
        <time>2020-03-08T23:14:13.317Z</time>
      </trkpt>
      <trkpt lat="44.68138" lon="3.21491">
        <ele>1192.632909</ele>
        <time>2020-03-08T23:14:25.325Z</time>
      </trkpt>
      <trkpt lat="44.68133" lon="3.21522">
        <ele>1192.377719</ele>
        <time>2020-03-08T23:14:28.439Z</time>
      </trkpt>
      <trkpt lat="44.68141" lon="3.21626">
        <ele>1191.518031</ele>
        <time>2020-03-08T23:14:36.655Z</time>
      </trkpt>
      <trkpt lat="44.68139" lon="3.21654">
        <ele>1191.273785</ele>
        <time>2020-03-08T23:14:38.688Z</time>
      </trkpt>
      <trkpt lat="44.68136" lon="3.2167">
        <ele>1190.698187</ele>
        <time>2020-03-08T23:14:39.901Z</time>
      </trkpt>
      <trkpt lat="44.68134" lon="3.21684">
        <ele>1190.207027</ele>
        <time>2020-03-08T23:14:40.842Z</time>
      </trkpt>
      <trkpt lat="44.68105" lon="3.21748">
        <ele>1187.610984</ele>
        <time>2020-03-08T23:14:46.085Z</time>
      </trkpt>
      <trkpt lat="44.68082" lon="3.21763">
        <ele>1186.383589</ele>
        <time>2020-03-08T23:14:48.443Z</time>
      </trkpt>
      <trkpt lat="44.67999" lon="3.21773">
        <ele>1182.370755</ele>
        <time>2020-03-08T23:14:56.097Z</time>
      </trkpt>
      <trkpt lat="44.67933" lon="3.21791">
        <ele>1179.14761</ele>
        <time>2020-03-08T23:15:02.387Z</time>
      </trkpt>
      <trkpt lat="44.67865" lon="3.21827">
        <ele>1175.589045</ele>
        <time>2020-03-08T23:15:09.378Z</time>
      </trkpt>
      <trkpt lat="44.67775" lon="3.21835">
        <ele>1171.177708</ele>
        <time>2020-03-08T23:15:18.053Z</time>
      </trkpt>
      <trkpt lat="44.67756" lon="3.21843">
        <ele>1170.218427</ele>
        <time>2020-03-08T23:15:19.894Z</time>
      </trkpt>
      <trkpt lat="44.67723" lon="3.21851">
        <ele>1168.573521</ele>
        <time>2020-03-08T23:15:23.051Z</time>
      </trkpt>
      <trkpt lat="44.67679" lon="3.21862">
        <ele>1166.33412</ele>
        <time>2020-03-08T23:15:27.329Z</time>
      </trkpt>
      <trkpt lat="44.67614" lon="3.21882">
        <ele>1162.783381</ele>
        <time>2020-03-08T23:15:33.413Z</time>
      </trkpt>
      <trkpt lat="44.67487" lon="3.21944">
        <ele>1155.104438</ele>
        <time>2020-03-08T23:15:45.761Z</time>
      </trkpt>
      <trkpt lat="44.6742" lon="3.21988">
        <ele>1151.877258</ele>
        <time>2020-03-08T23:15:52.711Z</time>
      </trkpt>
      <trkpt lat="44.67378" lon="3.22029">
        <ele>1149.722212</ele>
        <time>2020-03-08T23:15:57.683Z</time>
      </trkpt>
      <trkpt lat="44.67357" lon="3.22052">
        <ele>1148.586719</ele>
        <time>2020-03-08T23:16:00.342Z</time>
      </trkpt>
      <trkpt lat="44.67299" lon="3.22135">
        <ele>1146.540623</ele>
        <time>2020-03-08T23:16:09.084Z</time>
      </trkpt>
      <trkpt lat="44.67181" lon="3.22354">
        <ele>1143.945648</ele>
        <time>2020-03-08T23:16:33.934Z</time>
      </trkpt>
      <trkpt lat="44.6715" lon="3.22402">
        <ele>1143.33686</ele>
        <time>2020-03-08T23:16:39.546Z</time>
      </trkpt>
      <trkpt lat="44.67098" lon="3.22479">
        <ele>1142.22417</ele>
        <time>2020-03-08T23:16:48.063Z</time>
      </trkpt>
      <trkpt lat="44.67045" lon="3.22534">
        <ele>1140.03636</ele>
        <time>2020-03-08T23:16:54.857Z</time>
      </trkpt>
      <trkpt lat="44.66966" lon="3.22608">
        <ele>1136.878276</ele>
        <time>2020-03-08T23:17:04.268Z</time>
      </trkpt>
      <trkpt lat="44.66943" lon="3.22642">
        <ele>1135.602985</ele>
        <time>2020-03-08T23:17:07.496Z</time>
      </trkpt>
      <trkpt lat="44.66909" lon="3.22726">
        <ele>1132.873603</ele>
        <time>2020-03-08T23:17:14.053Z</time>
      </trkpt>
      <trkpt lat="44.66874" lon="3.22774">
        <ele>1130.925347</ele>
        <time>2020-03-08T23:17:18.845Z</time>
      </trkpt>
      <trkpt lat="44.6686" lon="3.22791">
        <ele>1130.177922</ele>
        <time>2020-03-08T23:17:20.635Z</time>
      </trkpt>
      <trkpt lat="44.66853" lon="3.22796">
        <ele>1129.856818</ele>
        <time>2020-03-08T23:17:21.430Z</time>
      </trkpt>
      <trkpt lat="44.66825" lon="3.22798">
        <ele>1128.938099</ele>
        <time>2020-03-08T23:17:24.276Z</time>
      </trkpt>
      <trkpt lat="44.66777" lon="3.22787">
        <ele>1127.709129</ele>
        <time>2020-03-08T23:17:29.405Z</time>
      </trkpt>
      <trkpt lat="44.66764" lon="3.22794">
        <ele>1127.351663</ele>
        <time>2020-03-08T23:17:30.909Z</time>
      </trkpt>
      <trkpt lat="44.66693" lon="3.22866">
        <ele>1125.132021</ele>
        <time>2020-03-08T23:17:40.209Z</time>
      </trkpt>
      <trkpt lat="44.66675" lon="3.22877">
        <ele>1124.649495</ele>
        <time>2020-03-08T23:17:42.411Z</time>
      </trkpt>
      <trkpt lat="44.66612" lon="3.22913">
        <ele>1123.266569</ele>
        <time>2020-03-08T23:17:49.865Z</time>
      </trkpt>
      <trkpt lat="44.66563" lon="3.22926">
        <ele>1122.278619</ele>
        <time>2020-03-08T23:17:55.062Z</time>
      </trkpt>
      <trkpt lat="44.66532" lon="3.22925">
        <ele>1121.636845</ele>
        <time>2020-03-08T23:17:58.431Z</time>
      </trkpt>
      <trkpt lat="44.66399" lon="3.22872">
        <ele>1121.317432</ele>
        <time>2020-03-08T23:18:15.196Z</time>
      </trkpt>
      <trkpt lat="44.66361" lon="3.22869">
        <ele>1121.403376</ele>
        <time>2020-03-08T23:18:23.175Z</time>
      </trkpt>
      <trkpt lat="44.66303" lon="3.22872">
        <ele>1122.509993</ele>
        <time>2020-03-08T23:18:38.046Z</time>
      </trkpt>
      <trkpt lat="44.66255" lon="3.22866">
        <ele>1124.388052</ele>
        <time>2020-03-08T23:18:52.488Z</time>
      </trkpt>
      <trkpt lat="44.66141" lon="3.22807">
        <ele>1128.983869</ele>
        <time>2020-03-08T23:19:33.005Z</time>
      </trkpt>
      <trkpt lat="44.66026" lon="3.22772">
        <ele>1132.740122</ele>
        <time>2020-03-08T23:20:07.172Z</time>
      </trkpt>
      <trkpt lat="44.65985" lon="3.22774">
        <ele>1134.053554</ele>
        <time>2020-03-08T23:20:16.649Z</time>
      </trkpt>
      <trkpt lat="44.65893" lon="3.22803">
        <ele>1134.899004</ele>
        <time>2020-03-08T23:20:35.088Z</time>
      </trkpt>
      <trkpt lat="44.65872" lon="3.22808">
        <ele>1135.059835</ele>
        <time>2020-03-08T23:20:38.498Z</time>
      </trkpt>
      <trkpt lat="44.65849" lon="3.22815">
        <ele>1135.240333</ele>
        <time>2020-03-08T23:20:42.178Z</time>
      </trkpt>
      <trkpt lat="44.65828" lon="3.22826">
        <ele>1135.414635</ele>
        <time>2020-03-08T23:20:45.541Z</time>
      </trkpt>
      <trkpt lat="44.6578" lon="3.2287">
        <ele>1135.757743</ele>
        <time>2020-03-08T23:20:53.519Z</time>
      </trkpt>
      <trkpt lat="44.65776" lon="3.22875">
        <ele>1135.787072</ele>
        <time>2020-03-08T23:20:54.497Z</time>
      </trkpt>
      <trkpt lat="44.65682" lon="3.22995">
        <ele>1136.413418</ele>
        <time>2020-03-08T23:21:16.191Z</time>
      </trkpt>
      <trkpt lat="44.6566" lon="3.23024">
        <ele>1136.573217</ele>
        <time>2020-03-08T23:21:22.467Z</time>
      </trkpt>
      <trkpt lat="44.65572" lon="3.23141">
        <ele>1137.246436</ele>
        <time>2020-03-08T23:21:43.238Z</time>
      </trkpt>
      <trkpt lat="44.65561" lon="3.2315">
        <ele>1137.314261</ele>
        <time>2020-03-08T23:21:45.685Z</time>
      </trkpt>
      <trkpt lat="44.65548" lon="3.23161">
        <ele>1137.40098</ele>
        <time>2020-03-08T23:21:48.129Z</time>
      </trkpt>
      <trkpt lat="44.65546" lon="3.23164">
        <ele>1137.416942</ele>
        <time>2020-03-08T23:21:48.549Z</time>
      </trkpt>
      <trkpt lat="44.65514" lon="3.23201">
        <ele>1137.563578</ele>
        <time>2020-03-08T23:21:54.496Z</time>
      </trkpt>
      <trkpt lat="44.65489" lon="3.23238">
        <ele>1137.667662</ele>
        <time>2020-03-08T23:21:59.779Z</time>
      </trkpt>
      <trkpt lat="44.65474" lon="3.23274">
        <ele>1137.749465</ele>
        <time>2020-03-08T23:22:04.067Z</time>
      </trkpt>
      <trkpt lat="44.65468" lon="3.23291">
        <ele>1137.788389</ele>
        <time>2020-03-08T23:22:06.103Z</time>
      </trkpt>
      <trkpt lat="44.65434" lon="3.23399">
        <ele>1138.36559</ele>
        <time>2020-03-08T23:22:19.474Z</time>
      </trkpt>
      <trkpt lat="44.65422" lon="3.23477">
        <ele>1139.939527</ele>
        <time>2020-03-08T23:22:32.812Z</time>
      </trkpt>
      <trkpt lat="44.65401" lon="3.23543">
        <ele>1141.351227</ele>
        <time>2020-03-08T23:22:47.589Z</time>
      </trkpt>
      <trkpt lat="44.65379" lon="3.23589">
        <ele>1142.445903</ele>
        <time>2020-03-08T23:22:59.464Z</time>
      </trkpt>
      <trkpt lat="44.65347" lon="3.23625">
        <ele>1143.620119</ele>
        <time>2020-03-08T23:23:11.701Z</time>
      </trkpt>
      <trkpt lat="44.65332" lon="3.23645">
        <ele>1144.24293</ele>
        <time>2020-03-08T23:23:18.402Z</time>
      </trkpt>
      <trkpt lat="44.65319" lon="3.23666">
        <ele>1144.84217</ele>
        <time>2020-03-08T23:23:23.997Z</time>
      </trkpt>
      <trkpt lat="44.65315" lon="3.23691">
        <ele>1145.398818</ele>
        <time>2020-03-08T23:23:29.587Z</time>
      </trkpt>
      <trkpt lat="44.65316" lon="3.2373">
        <ele>1146.241271</ele>
        <time>2020-03-08T23:23:37.523Z</time>
      </trkpt>
      <trkpt lat="44.6532" lon="3.23926">
        <ele>1148.62708</ele>
        <time>2020-03-08T23:24:09.554Z</time>
      </trkpt>
      <trkpt lat="44.6532" lon="3.24002">
        <ele>1148.812752</ele>
        <time>2020-03-08T23:24:17.296Z</time>
      </trkpt>
      <trkpt lat="44.65318" lon="3.24025">
        <ele>1148.870949</ele>
        <time>2020-03-08T23:24:19.789Z</time>
      </trkpt>
      <trkpt lat="44.65311" lon="3.24056">
        <ele>1148.951015</ele>
        <time>2020-03-08T23:24:22.711Z</time>
      </trkpt>
      <trkpt lat="44.6527" lon="3.24243">
        <ele>1145.987585</ele>
        <time>2020-03-08T23:24:38.052Z</time>
      </trkpt>
      <trkpt lat="44.65261" lon="3.2426">
        <ele>1145.595977</ele>
        <time>2020-03-08T23:24:39.622Z</time>
      </trkpt>
      <trkpt lat="44.65176" lon="3.24337">
        <ele>1141.763039</ele>
        <time>2020-03-08T23:24:49.521Z</time>
      </trkpt>
      <trkpt lat="44.65084" lon="3.24486">
        <ele>1134.937239</ele>
        <time>2020-03-08T23:25:02.721Z</time>
      </trkpt>
      <trkpt lat="44.65067" lon="3.24534">
        <ele>1132.885228</ele>
        <time>2020-03-08T23:25:06.263Z</time>
      </trkpt>
      <trkpt lat="44.6504" lon="3.24593">
        <ele>1130.24312</ele>
        <time>2020-03-08T23:25:10.915Z</time>
      </trkpt>
      <trkpt lat="44.65006" lon="3.24645">
        <ele>1127.563326</ele>
        <time>2020-03-08T23:25:15.601Z</time>
      </trkpt>
      <trkpt lat="44.64988" lon="3.24673">
        <ele>1126.207289</ele>
        <time>2020-03-08T23:25:18.120Z</time>
      </trkpt>
      <trkpt lat="44.64985" lon="3.24676">
        <ele>1126.08347</ele>
        <time>2020-03-08T23:25:18.451Z</time>
      </trkpt>
      <trkpt lat="44.64966" lon="3.24662">
        <ele>1125.388124</ele>
        <time>2020-03-08T23:25:20.507Z</time>
      </trkpt>
      <trkpt lat="44.64943" lon="3.24655">
        <ele>1124.636239</ele>
        <time>2020-03-08T23:25:22.702Z</time>
      </trkpt>
      <trkpt lat="44.64913" lon="3.24661">
        <ele>1123.699145</ele>
        <time>2020-03-08T23:25:25.502Z</time>
      </trkpt>
      <trkpt lat="44.64889" lon="3.24666">
        <ele>1122.919258</ele>
        <time>2020-03-08T23:25:28.068Z</time>
      </trkpt>
      <trkpt lat="44.64861" lon="3.24671">
        <ele>1122.029772</ele>
        <time>2020-03-08T23:25:31.114Z</time>
      </trkpt>
      <trkpt lat="44.64832" lon="3.24676">
        <ele>1121.099235</ele>
        <time>2020-03-08T23:25:34.838Z</time>
      </trkpt>
      <trkpt lat="44.64815" lon="3.24679">
        <ele>1120.635586</ele>
        <time>2020-03-08T23:25:36.821Z</time>
      </trkpt>
      <trkpt lat="44.64819" lon="3.24715">
        <ele>1121.015711</ele>
        <time>2020-03-08T23:25:41.372Z</time>
      </trkpt>
      <trkpt lat="44.64821" lon="3.24743">
        <ele>1121.299147</ele>
        <time>2020-03-08T23:25:44.932Z</time>
      </trkpt>
      <trkpt lat="44.64829" lon="3.24765">
        <ele>1121.552966</ele>
        <time>2020-03-08T23:25:47.707Z</time>
      </trkpt>
      <trkpt lat="44.64843" lon="3.24791">
        <ele>1121.890707</ele>
        <time>2020-03-08T23:25:52.749Z</time>
      </trkpt>
      <trkpt lat="44.64857" lon="3.24807">
        <ele>1122.146616</ele>
        <time>2020-03-08T23:25:55.488Z</time>
      </trkpt>
      <trkpt lat="44.64871" lon="3.24824">
        <ele>1122.420915</ele>
        <time>2020-03-08T23:26:00.574Z</time>
      </trkpt>
      <trkpt lat="44.64905" lon="3.24866">
        <ele>1123.078655</ele>
        <time>2020-03-08T23:26:12.226Z</time>
      </trkpt>
      <trkpt lat="44.6492" lon="3.24896">
        <ele>1123.426833</ele>
        <time>2020-03-08T23:26:20.134Z</time>
      </trkpt>
      <trkpt lat="44.64932" lon="3.24976">
        <ele>1124.177827</ele>
        <time>2020-03-08T23:26:35.438Z</time>
      </trkpt>
      <trkpt lat="44.6495" lon="3.25295">
        <ele>1124.034532</ele>
        <time>2020-03-08T23:27:10.092Z</time>
      </trkpt>
      <trkpt lat="44.64951" lon="3.25303">
        <ele>1123.966398</ele>
        <time>2020-03-08T23:27:10.611Z</time>
      </trkpt>
      <trkpt lat="44.64954" lon="3.25394">
        <ele>1122.68595</ele>
        <time>2020-03-08T23:27:17.280Z</time>
      </trkpt>
      <trkpt lat="44.64996" lon="3.25582">
        <ele>1115.694703</ele>
        <time>2020-03-08T23:27:30.378Z</time>
      </trkpt>
      <trkpt lat="44.6502" lon="3.25652">
        <ele>1113.744601</ele>
        <time>2020-03-08T23:27:35.427Z</time>
      </trkpt>
      <trkpt lat="44.65068" lon="3.25743">
        <ele>1111.99923</ele>
        <time>2020-03-08T23:27:43.537Z</time>
      </trkpt>
      <trkpt lat="44.65083" lon="3.2578">
        <ele>1111.344643</ele>
        <time>2020-03-08T23:27:46.982Z</time>
      </trkpt>
      <trkpt lat="44.65141" lon="3.26021">
        <ele>1114.257611</ele>
        <time>2020-03-08T23:28:31.130Z</time>
      </trkpt>
      <trkpt lat="44.65139" lon="3.26055">
        <ele>1114.916506</ele>
        <time>2020-03-08T23:28:39.320Z</time>
      </trkpt>
      <trkpt lat="44.65116" lon="3.26111">
        <ele>1116.285541</ele>
        <time>2020-03-08T23:28:54.025Z</time>
      </trkpt>
      <trkpt lat="44.65084" lon="3.26231">
        <ele>1119.140329</ele>
        <time>2020-03-08T23:29:20.029Z</time>
      </trkpt>
      <trkpt lat="44.65072" lon="3.26302">
        <ele>1120.768938</ele>
        <time>2020-03-08T23:29:33.609Z</time>
      </trkpt>
      <trkpt lat="44.65072" lon="3.26411">
        <ele>1120.446532</ele>
        <time>2020-03-08T23:29:48.937Z</time>
      </trkpt>
      <trkpt lat="44.65061" lon="3.26466">
        <ele>1120.152712</ele>
        <time>2020-03-08T23:29:54.113Z</time>
      </trkpt>
      <trkpt lat="44.65058" lon="3.26529">
        <ele>1119.821621</ele>
        <time>2020-03-08T23:29:59.085Z</time>
      </trkpt>
      <trkpt lat="44.65055" lon="3.26604">
        <ele>1117.907674</ele>
        <time>2020-03-08T23:30:04.292Z</time>
      </trkpt>
      <trkpt lat="44.65049" lon="3.26633">
        <ele>1116.682199</ele>
        <time>2020-03-08T23:30:06.336Z</time>
      </trkpt>
      <trkpt lat="44.65002" lon="3.26749">
        <ele>1111.187819</ele>
        <time>2020-03-08T23:30:14.976Z</time>
      </trkpt>
      <trkpt lat="44.65" lon="3.26769">
        <ele>1110.347406</ele>
        <time>2020-03-08T23:30:16.276Z</time>
      </trkpt>
      <trkpt lat="44.65021" lon="3.2691">
        <ele>1104.888571</ele>
        <time>2020-03-08T23:30:25.518Z</time>
      </trkpt>
      <trkpt lat="44.65023" lon="3.27121">
        <ele>1098.852003</ele>
        <time>2020-03-08T23:30:40.254Z</time>
      </trkpt>
      <trkpt lat="44.65023" lon="3.27128">
        <ele>1098.764923</ele>
        <time>2020-03-08T23:30:40.736Z</time>
      </trkpt>
      <trkpt lat="44.65024" lon="3.27168">
        <ele>1098.249921</ele>
        <time>2020-03-08T23:30:44.048Z</time>
      </trkpt>
      <trkpt lat="44.65031" lon="3.2722">
        <ele>1097.573959</ele>
        <time>2020-03-08T23:30:48.453Z</time>
      </trkpt>
      <trkpt lat="44.65055" lon="3.27314">
        <ele>1096.678959</ele>
        <time>2020-03-08T23:30:58.458Z</time>
      </trkpt>
      <trkpt lat="44.65094" lon="3.27385">
        <ele>1097.032966</ele>
        <time>2020-03-08T23:31:10.579Z</time>
      </trkpt>
      <trkpt lat="44.65118" lon="3.27421">
        <ele>1097.229958</ele>
        <time>2020-03-08T23:31:16.755Z</time>
      </trkpt>
      <trkpt lat="44.6512" lon="3.27424">
        <ele>1097.246199</ele>
        <time>2020-03-08T23:31:17.891Z</time>
      </trkpt>
      <trkpt lat="44.65154" lon="3.27469">
        <ele>1097.500253</ele>
        <time>2020-03-08T23:31:25.509Z</time>
      </trkpt>
      <trkpt lat="44.65204" lon="3.27533">
        <ele>1097.605394</ele>
        <time>2020-03-08T23:31:36.667Z</time>
      </trkpt>
      <trkpt lat="44.65213" lon="3.27548">
        <ele>1097.610411</ele>
        <time>2020-03-08T23:31:38.358Z</time>
      </trkpt>
      <trkpt lat="44.65311" lon="3.2773">
        <ele>1097.760324</ele>
        <time>2020-03-08T23:32:01.865Z</time>
      </trkpt>
      <trkpt lat="44.65416" lon="3.2791">
        <ele>1097.832984</ele>
        <time>2020-03-08T23:32:28.860Z</time>
      </trkpt>
      <trkpt lat="44.65439" lon="3.27941">
        <ele>1097.621904</ele>
        <time>2020-03-08T23:32:34.114Z</time>
      </trkpt>
      <trkpt lat="44.65483" lon="3.27981">
        <ele>1097.27899</ele>
        <time>2020-03-08T23:32:41.060Z</time>
      </trkpt>
      <trkpt lat="44.65539" lon="3.28067">
        <ele>1096.456209</ele>
        <time>2020-03-08T23:32:50.475Z</time>
      </trkpt>
      <trkpt lat="44.65549" lon="3.28111">
        <ele>1095.831915</ele>
        <time>2020-03-08T23:32:54.058Z</time>
      </trkpt>
      <trkpt lat="44.65553" lon="3.28149">
        <ele>1095.317155</ele>
        <time>2020-03-08T23:32:56.969Z</time>
      </trkpt>
      <trkpt lat="44.65545" lon="3.28175">
        <ele>1094.937022</ele>
        <time>2020-03-08T23:32:59.169Z</time>
      </trkpt>
      <trkpt lat="44.65537" lon="3.28208">
        <ele>1094.471915</ele>
        <time>2020-03-08T23:33:01.825Z</time>
      </trkpt>
      <trkpt lat="44.65526" lon="3.28255">
        <ele>1093.80656</ele>
        <time>2020-03-08T23:33:05.633Z</time>
      </trkpt>
      <trkpt lat="44.655" lon="3.28591">
        <ele>1090.905149</ele>
        <time>2020-03-08T23:33:34.789Z</time>
      </trkpt>
      <trkpt lat="44.65487" lon="3.28747">
        <ele>1089.681817</ele>
        <time>2020-03-08T23:33:48.602Z</time>
      </trkpt>
      <trkpt lat="44.65488" lon="3.28786">
        <ele>1089.330682</ele>
        <time>2020-03-08T23:33:51.960Z</time>
      </trkpt>
      <trkpt lat="44.65489" lon="3.28862">
        <ele>1087.974487</ele>
        <time>2020-03-08T23:33:58.042Z</time>
      </trkpt>
      <trkpt lat="44.65497" lon="3.28944">
        <ele>1086.473642</ele>
        <time>2020-03-08T23:34:04.373Z</time>
      </trkpt>
      <trkpt lat="44.65495" lon="3.29064">
        <ele>1084.109673</ele>
        <time>2020-03-08T23:34:12.901Z</time>
      </trkpt>
      <trkpt lat="44.65477" lon="3.29143">
        <ele>1082.040448</ele>
        <time>2020-03-08T23:34:18.682Z</time>
      </trkpt>
      <trkpt lat="44.65461" lon="3.2919">
        <ele>1080.741971</ele>
        <time>2020-03-08T23:34:22.339Z</time>
      </trkpt>
      <trkpt lat="44.65422" lon="3.29246">
        <ele>1078.783894</ele>
        <time>2020-03-08T23:34:27.934Z</time>
      </trkpt>
      <trkpt lat="44.65373" lon="3.29318">
        <ele>1077.105647</ele>
        <time>2020-03-08T23:34:35.485Z</time>
      </trkpt>
      <trkpt lat="44.65354" lon="3.29364">
        <ele>1076.264517</ele>
        <time>2020-03-08T23:34:39.614Z</time>
      </trkpt>
      <trkpt lat="44.65352" lon="3.29416">
        <ele>1075.435774</ele>
        <time>2020-03-08T23:34:43.772Z</time>
      </trkpt>
      <trkpt lat="44.65356" lon="3.29449">
        <ele>1074.901574</ele>
        <time>2020-03-08T23:34:46.692Z</time>
      </trkpt>
      <trkpt lat="44.65368" lon="3.29485">
        <ele>1074.234634</ele>
        <time>2020-03-08T23:34:49.675Z</time>
      </trkpt>
      <trkpt lat="44.65414" lon="3.29584">
        <ele>1072.024293</ele>
        <time>2020-03-08T23:34:58.667Z</time>
      </trkpt>
      <trkpt lat="44.65417" lon="3.29597">
        <ele>1071.767904</ele>
        <time>2020-03-08T23:34:59.613Z</time>
      </trkpt>
      <trkpt lat="44.65431" lon="3.29668">
        <ele>1070.395834</ele>
        <time>2020-03-08T23:35:04.978Z</time>
      </trkpt>
      <trkpt lat="44.65447" lon="3.29752">
        <ele>1068.967731</ele>
        <time>2020-03-08T23:35:11.316Z</time>
      </trkpt>
      <trkpt lat="44.65543" lon="3.30045">
        <ele>1064.670014</ele>
        <time>2020-03-08T23:35:37.062Z</time>
      </trkpt>
      <trkpt lat="44.65548" lon="3.30091">
        <ele>1064.18341</ele>
        <time>2020-03-08T23:35:40.970Z</time>
      </trkpt>
      <trkpt lat="44.65543" lon="3.30114">
        <ele>1063.922938</ele>
        <time>2020-03-08T23:35:42.995Z</time>
      </trkpt>
      <trkpt lat="44.65537" lon="3.30128">
        <ele>1063.753192</ele>
        <time>2020-03-08T23:35:44.572Z</time>
      </trkpt>
      <trkpt lat="44.65526" lon="3.30149">
        <ele>1063.486</ele>
        <time>2020-03-08T23:35:46.551Z</time>
      </trkpt>
      <trkpt lat="44.65515" lon="3.30203">
        <ele>1063.493135</ele>
        <time>2020-03-08T23:35:51.459Z</time>
      </trkpt>
      <trkpt lat="44.65504" lon="3.30314">
        <ele>1063.943044</ele>
        <time>2020-03-08T23:36:03.550Z</time>
      </trkpt>
      <trkpt lat="44.6551" lon="3.30398">
        <ele>1064.286561</ele>
        <time>2020-03-08T23:36:15.959Z</time>
      </trkpt>
      <trkpt lat="44.65509" lon="3.30447">
        <ele>1065.286181</ele>
        <time>2020-03-08T23:36:24.556Z</time>
      </trkpt>
      <trkpt lat="44.65509" lon="3.30466">
        <ele>1065.816816</ele>
        <time>2020-03-08T23:36:28.390Z</time>
      </trkpt>
      <trkpt lat="44.6551" lon="3.30506">
        <ele>1066.922893</ele>
        <time>2020-03-08T23:36:36.152Z</time>
      </trkpt>
      <trkpt lat="44.65453" lon="3.30531">
        <ele>1069.259728</ele>
        <time>2020-03-08T23:36:55.508Z</time>
      </trkpt>
      <trkpt lat="44.65393" lon="3.30569">
        <ele>1071.852816</ele>
        <time>2020-03-08T23:37:19.021Z</time>
      </trkpt>
      <trkpt lat="44.65348" lon="3.30604">
        <ele>1073.993244</ele>
        <time>2020-03-08T23:37:36.499Z</time>
      </trkpt>
      <trkpt lat="44.65319" lon="3.30626">
        <ele>1075.373173</ele>
        <time>2020-03-08T23:37:47.510Z</time>
      </trkpt>
      <trkpt lat="44.65273" lon="3.30654">
        <ele>1077.453617</ele>
        <time>2020-03-08T23:38:02.217Z</time>
      </trkpt>
      <trkpt lat="44.65225" lon="3.30661">
        <ele>1079.094715</ele>
        <time>2020-03-08T23:38:16.083Z</time>
      </trkpt>
      <trkpt lat="44.6518" lon="3.30662">
        <ele>1079.769547</ele>
        <time>2020-03-08T23:38:27.623Z</time>
      </trkpt>
      <trkpt lat="44.65151" lon="3.30663">
        <ele>1080.210832</ele>
        <time>2020-03-08T23:38:33.794Z</time>
      </trkpt>
      <trkpt lat="44.65135" lon="3.30663">
        <ele>1080.453459</ele>
        <time>2020-03-08T23:38:37.146Z</time>
      </trkpt>
      <trkpt lat="44.64927" lon="3.30729">
        <ele>1080.633863</ele>
        <time>2020-03-08T23:39:10.126Z</time>
      </trkpt>
      <trkpt lat="44.64912" lon="3.30726">
        <ele>1080.530434</ele>
        <time>2020-03-08T23:39:11.851Z</time>
      </trkpt>
      <trkpt lat="44.6475" lon="3.30628">
        <ele>1074.656578</ele>
        <time>2020-03-08T23:39:29.474Z</time>
      </trkpt>
      <trkpt lat="44.64723" lon="3.30614">
        <ele>1073.549163</ele>
        <time>2020-03-08T23:39:32.213Z</time>
      </trkpt>
      <trkpt lat="44.64687" lon="3.30608">
        <ele>1070.738002</ele>
        <time>2020-03-08T23:39:35.582Z</time>
      </trkpt>
      <trkpt lat="44.64677" lon="3.30612">
        <ele>1069.960092</ele>
        <time>2020-03-08T23:39:36.463Z</time>
      </trkpt>
      <trkpt lat="44.64659" lon="3.30623">
        <ele>1068.433946</ele>
        <time>2020-03-08T23:39:38.231Z</time>
      </trkpt>
      <trkpt lat="44.64641" lon="3.30632">
        <ele>1066.90734</ele>
        <time>2020-03-08T23:39:39.967Z</time>
      </trkpt>
      <trkpt lat="44.64594" lon="3.30635">
        <ele>1063.262867</ele>
        <time>2020-03-08T23:39:44.062Z</time>
      </trkpt>
      <trkpt lat="44.64582" lon="3.30641">
        <ele>1062.284023</ele>
        <time>2020-03-08T23:39:45.153Z</time>
      </trkpt>
      <trkpt lat="44.6457" lon="3.3066">
        <ele>1060.830789</ele>
        <time>2020-03-08T23:39:46.755Z</time>
      </trkpt>
      <trkpt lat="44.64561" lon="3.30692">
        <ele>1058.742351</ele>
        <time>2020-03-08T23:39:48.865Z</time>
      </trkpt>
      <trkpt lat="44.64547" lon="3.30711">
        <ele>1056.720947</ele>
        <time>2020-03-08T23:39:50.531Z</time>
      </trkpt>
      <trkpt lat="44.64492" lon="3.30713">
        <ele>1050.921541</ele>
        <time>2020-03-08T23:39:55.307Z</time>
      </trkpt>
      <trkpt lat="44.64409" lon="3.30682">
        <ele>1042.025258</ele>
        <time>2020-03-08T23:40:02.587Z</time>
      </trkpt>
      <trkpt lat="44.64356" lon="3.30675">
        <ele>1037.60169</ele>
        <time>2020-03-08T23:40:07.215Z</time>
      </trkpt>
      <trkpt lat="44.64337" lon="3.3068">
        <ele>1036.139297</ele>
        <time>2020-03-08T23:40:08.901Z</time>
      </trkpt>
      <trkpt lat="44.64331" lon="3.30699">
        <ele>1035.002895</ele>
        <time>2020-03-08T23:40:10.233Z</time>
      </trkpt>
      <trkpt lat="44.64332" lon="3.30711">
        <ele>1034.347905</ele>
        <time>2020-03-08T23:40:10.993Z</time>
      </trkpt>
      <trkpt lat="44.64336" lon="3.30742">
        <ele>1032.681372</ele>
        <time>2020-03-08T23:40:12.985Z</time>
      </trkpt>
      <trkpt lat="44.64331" lon="3.30767">
        <ele>1031.250189</ele>
        <time>2020-03-08T23:40:14.679Z</time>
      </trkpt>
      <trkpt lat="44.6427" lon="3.30832">
        <ele>1026.408172</ele>
        <time>2020-03-08T23:40:21.781Z</time>
      </trkpt>
      <trkpt lat="44.6424" lon="3.30854">
        <ele>1025.321139</ele>
        <time>2020-03-08T23:40:25.085Z</time>
      </trkpt>
      <trkpt lat="44.64224" lon="3.30848">
        <ele>1024.76981</ele>
        <time>2020-03-08T23:40:26.896Z</time>
      </trkpt>
      <trkpt lat="44.64208" lon="3.30834">
        <ele>1024.144928</ele>
        <time>2020-03-08T23:40:28.837Z</time>
      </trkpt>
      <trkpt lat="44.64186" lon="3.30815">
        <ele>1023.314797</ele>
        <time>2020-03-08T23:40:31.587Z</time>
      </trkpt>
      <trkpt lat="44.64157" lon="3.30794">
        <ele>1022.266003</ele>
        <time>2020-03-08T23:40:34.931Z</time>
      </trkpt>
      <trkpt lat="44.6405" lon="3.30735">
        <ele>1020.565712</ele>
        <time>2020-03-08T23:40:47.715Z</time>
      </trkpt>
      <trkpt lat="44.64018" lon="3.30725">
        <ele>1020.282502</ele>
        <time>2020-03-08T23:40:53.338Z</time>
      </trkpt>
      <trkpt lat="44.63993" lon="3.3071">
        <ele>1020.043562</ele>
        <time>2020-03-08T23:40:58.550Z</time>
      </trkpt>
      <trkpt lat="44.63972" lon="3.30705">
        <ele>1019.85715</ele>
        <time>2020-03-08T23:41:00.992Z</time>
      </trkpt>
      <trkpt lat="44.63957" lon="3.30712">
        <ele>1019.714526</ele>
        <time>2020-03-08T23:41:04.539Z</time>
      </trkpt>
      <trkpt lat="44.63909" lon="3.30759">
        <ele>1018.913161</ele>
        <time>2020-03-08T23:41:11.413Z</time>
      </trkpt>
      <trkpt lat="44.63899" lon="3.30762">
        <ele>1018.777561</ele>
        <time>2020-03-08T23:41:14.167Z</time>
      </trkpt>
      <trkpt lat="44.63884" lon="3.30762">
        <ele>1018.566275</ele>
        <time>2020-03-08T23:41:15.728Z</time>
      </trkpt>
      <trkpt lat="44.63876" lon="3.30749">
        <ele>1018.404182</ele>
        <time>2020-03-08T23:41:17.117Z</time>
      </trkpt>
      <trkpt lat="44.6386" lon="3.30669">
        <ele>1017.59256</ele>
        <time>2020-03-08T23:41:23.971Z</time>
      </trkpt>
      <trkpt lat="44.6386" lon="3.30651">
        <ele>1017.417922</ele>
        <time>2020-03-08T23:41:25.309Z</time>
      </trkpt>
      <trkpt lat="44.63873" lon="3.30592">
        <ele>1016.807902</ele>
        <time>2020-03-08T23:41:30.245Z</time>
      </trkpt>
      <trkpt lat="44.63866" lon="3.30547">
        <ele>1016.356308</ele>
        <time>2020-03-08T23:41:33.396Z</time>
      </trkpt>
      <trkpt lat="44.63846" lon="3.30515">
        <ele>1015.934894</ele>
        <time>2020-03-08T23:41:36.519Z</time>
      </trkpt>
      <trkpt lat="44.63775" lon="3.30444">
        <ele>1015.018385</ele>
        <time>2020-03-08T23:41:47.827Z</time>
      </trkpt>
      <trkpt lat="44.63759" lon="3.30422">
        <ele>1016.069324</ele>
        <time>2020-03-08T23:41:52.995Z</time>
      </trkpt>
      <trkpt lat="44.63754" lon="3.30396">
        <ele>1016.972888</ele>
        <time>2020-03-08T23:41:58.106Z</time>
      </trkpt>
      <trkpt lat="44.63759" lon="3.30355">
        <ele>1018.377922</ele>
        <time>2020-03-08T23:42:07.428Z</time>
      </trkpt>
      <trkpt lat="44.63747" lon="3.30263">
        <ele>1021.566125</ele>
        <time>2020-03-08T23:42:33.610Z</time>
      </trkpt>
      <trkpt lat="44.63733" lon="3.302">
        <ele>1024.026861</ele>
        <time>2020-03-08T23:42:54.486Z</time>
      </trkpt>
      <trkpt lat="44.63706" lon="3.3013">
        <ele>1028.174003</ele>
        <time>2020-03-08T23:43:21.411Z</time>
      </trkpt>
      <trkpt lat="44.63621" lon="3.29992">
        <ele>1036.96513</ele>
        <time>2020-03-08T23:44:19.417Z</time>
      </trkpt>
      <trkpt lat="44.63604" lon="3.29968">
        <ele>1037.706477</ele>
        <time>2020-03-08T23:44:27.633Z</time>
      </trkpt>
      <trkpt lat="44.636" lon="3.29955">
        <ele>1038.014258</ele>
        <time>2020-03-08T23:44:31.131Z</time>
      </trkpt>
      <trkpt lat="44.63578" lon="3.29924">
        <ele>1039.001154</ele>
        <time>2020-03-08T23:44:40.752Z</time>
      </trkpt>
      <trkpt lat="44.63519" lon="3.29893">
        <ele>1040.938534</ele>
        <time>2020-03-08T23:44:56.977Z</time>
      </trkpt>
      <trkpt lat="44.63417" lon="3.29715">
        <ele>1039.837836</ele>
        <time>2020-03-08T23:45:16.546Z</time>
      </trkpt>
      <trkpt lat="44.63381" lon="3.29678">
        <ele>1039.066268</ele>
        <time>2020-03-08T23:45:21.053Z</time>
      </trkpt>
      <trkpt lat="44.63317" lon="3.29658">
        <ele>1036.234489</ele>
        <time>2020-03-08T23:45:27.544Z</time>
      </trkpt>
      <trkpt lat="44.63308" lon="3.29644">
        <ele>1035.616739</ele>
        <time>2020-03-08T23:45:28.803Z</time>
      </trkpt>
      <trkpt lat="44.63309" lon="3.29572">
        <ele>1033.216968</ele>
        <time>2020-03-08T23:45:33.663Z</time>
      </trkpt>
      <trkpt lat="44.63298" lon="3.29521">
        <ele>1031.464428</ele>
        <time>2020-03-08T23:45:37.197Z</time>
      </trkpt>
      <trkpt lat="44.63279" lon="3.29489">
        <ele>1029.913884</ele>
        <time>2020-03-08T23:45:39.993Z</time>
      </trkpt>
      <trkpt lat="44.63237" lon="3.2945">
        <ele>1026.718943</ele>
        <time>2020-03-08T23:45:44.656Z</time>
      </trkpt>
      <trkpt lat="44.63228" lon="3.29433">
        <ele>1025.777876</ele>
        <time>2020-03-08T23:45:46.021Z</time>
      </trkpt>
      <trkpt lat="44.63221" lon="3.29332">
        <ele>1021.247184</ele>
        <time>2020-03-08T23:45:52.552Z</time>
      </trkpt>
      <trkpt lat="44.63201" lon="3.29285">
        <ele>1018.805094</ele>
        <time>2020-03-08T23:45:56.087Z</time>
      </trkpt>
      <trkpt lat="44.63184" lon="3.29251">
        <ele>1017.062806</ele>
        <time>2020-03-08T23:45:58.766Z</time>
      </trkpt>
      <trkpt lat="44.63131" lon="3.29196">
        <ele>1013.135458</ele>
        <time>2020-03-08T23:46:04.841Z</time>
      </trkpt>
      <trkpt lat="44.63086" lon="3.29158">
        <ele>1010.033232</ele>
        <time>2020-03-08T23:46:09.653Z</time>
      </trkpt>
      <trkpt lat="44.63097" lon="3.29087">
        <ele>1007.374262</ele>
        <time>2020-03-08T23:46:14.527Z</time>
      </trkpt>
      <trkpt lat="44.63095" lon="3.29048">
        <ele>1006.093548</ele>
        <time>2020-03-08T23:46:17.263Z</time>
      </trkpt>
      <trkpt lat="44.63088" lon="3.29026">
        <ele>1005.32774</ele>
        <time>2020-03-08T23:46:18.909Z</time>
      </trkpt>
      <trkpt lat="44.6302" lon="3.28993">
        <ele>1002.092506</ele>
        <time>2020-03-08T23:46:25.889Z</time>
      </trkpt>
      <trkpt lat="44.62972" lon="3.28954">
        <ele>999.581007</ele>
        <time>2020-03-08T23:46:31.312Z</time>
      </trkpt>
      <trkpt lat="44.62915" lon="3.28904">
        <ele>996.555616</ele>
        <time>2020-03-08T23:46:37.628Z</time>
      </trkpt>
      <trkpt lat="44.62874" lon="3.2885">
        <ele>994.05969</ele>
        <time>2020-03-08T23:46:42.899Z</time>
      </trkpt>
      <trkpt lat="44.62832" lon="3.28815">
        <ele>991.898148</ele>
        <time>2020-03-08T23:46:47.876Z</time>
      </trkpt>
      <trkpt lat="44.62822" lon="3.28802">
        <ele>991.350899</ele>
        <time>2020-03-08T23:46:49.098Z</time>
      </trkpt>
      <trkpt lat="44.62801" lon="3.28792">
        <ele>990.454558</ele>
        <time>2020-03-08T23:46:51.698Z</time>
      </trkpt>
      <trkpt lat="44.62754" lon="3.28779">
        <ele>988.534837</ele>
        <time>2020-03-08T23:46:56.246Z</time>
      </trkpt>
      <trkpt lat="44.62661" lon="3.28711">
        <ele>983.895587</ele>
        <time>2020-03-08T23:47:06.560Z</time>
      </trkpt>
      <trkpt lat="44.62593" lon="3.28632">
        <ele>978.376203</ele>
        <time>2020-03-08T23:47:14.870Z</time>
      </trkpt>
      <trkpt lat="44.62567" lon="3.28618">
        <ele>976.636814</ele>
        <time>2020-03-08T23:47:17.373Z</time>
      </trkpt>
      <trkpt lat="44.62548" lon="3.28558">
        <ele>973.482637</ele>
        <time>2020-03-08T23:47:21.523Z</time>
      </trkpt>
      <trkpt lat="44.62538" lon="3.28546">
        <ele>971.992862</ele>
        <time>2020-03-08T23:47:22.651Z</time>
      </trkpt>
      <trkpt lat="44.62405" lon="3.28449">
        <ele>954.728019</ele>
        <time>2020-03-08T23:47:35.380Z</time>
      </trkpt>
      <trkpt lat="44.62373" lon="3.28421">
        <ele>949.038748</ele>
        <time>2020-03-08T23:47:38.505Z</time>
      </trkpt>
      <trkpt lat="44.6234" lon="3.28379">
        <ele>941.448383</ele>
        <time>2020-03-08T23:47:42.194Z</time>
      </trkpt>
      <trkpt lat="44.62255" lon="3.28348">
        <ele>926.565454</ele>
        <time>2020-03-08T23:47:49.385Z</time>
      </trkpt>
      <trkpt lat="44.62224" lon="3.28348">
        <ele>921.617817</ele>
        <time>2020-03-08T23:47:51.920Z</time>
      </trkpt>
      <trkpt lat="44.62161" lon="3.28361">
        <ele>913.370845</ele>
        <time>2020-03-08T23:47:57.142Z</time>
      </trkpt>
      <trkpt lat="44.62109" lon="3.28388">
        <ele>906.151417</ele>
        <time>2020-03-08T23:48:01.824Z</time>
      </trkpt>
      <trkpt lat="44.62104" lon="3.28399">
        <ele>904.917277</ele>
        <time>2020-03-08T23:48:02.654Z</time>
      </trkpt>
      <trkpt lat="44.62105" lon="3.28417">
        <ele>903.238363</ele>
        <time>2020-03-08T23:48:03.755Z</time>
      </trkpt>
      <trkpt lat="44.62122" lon="3.28434">
        <ele>900.520177</ele>
        <time>2020-03-08T23:48:05.690Z</time>
      </trkpt>
      <trkpt lat="44.62136" lon="3.28445">
        <ele>899.218621</ele>
        <time>2020-03-08T23:48:07.090Z</time>
      </trkpt>
      <trkpt lat="44.62144" lon="3.28453">
        <ele>899.071232</ele>
        <time>2020-03-08T23:48:08.100Z</time>
      </trkpt>
      <trkpt lat="44.62152" lon="3.28465">
        <ele>898.898367</ele>
        <time>2020-03-08T23:48:09.250Z</time>
      </trkpt>
      <trkpt lat="44.62156" lon="3.28479">
        <ele>898.729343</ele>
        <time>2020-03-08T23:48:10.301Z</time>
      </trkpt>
      <trkpt lat="44.62162" lon="3.28548">
        <ele>897.968243</ele>
        <time>2020-03-08T23:48:15.838Z</time>
      </trkpt>
      <trkpt lat="44.62142" lon="3.28637">
        <ele>896.951221</ele>
        <time>2020-03-08T23:48:27.296Z</time>
      </trkpt>
      <trkpt lat="44.62131" lon="3.28669">
        <ele>896.563127</ele>
        <time>2020-03-08T23:48:35.427Z</time>
      </trkpt>
      <trkpt lat="44.62108" lon="3.28699">
        <ele>896.19618</ele>
        <time>2020-03-08T23:48:41.593Z</time>
      </trkpt>
      <trkpt lat="44.62092" lon="3.28709">
        <ele>895.997207</ele>
        <time>2020-03-08T23:48:43.978Z</time>
      </trkpt>
      <trkpt lat="44.62005" lon="3.28742">
        <ele>894.942968</ele>
        <time>2020-03-08T23:48:53.849Z</time>
      </trkpt>
      <trkpt lat="44.61953" lon="3.28737">
        <ele>894.312176</ele>
        <time>2020-03-08T23:48:59.229Z</time>
      </trkpt>
      <trkpt lat="44.61943" lon="3.28745">
        <ele>894.158849</ele>
        <time>2020-03-08T23:49:00.464Z</time>
      </trkpt>
      <trkpt lat="44.61927" lon="3.28794">
        <ele>893.640215</ele>
        <time>2020-03-08T23:49:04.915Z</time>
      </trkpt>
      <trkpt lat="44.61896" lon="3.28793">
        <ele>893.230867</ele>
        <time>2020-03-08T23:49:08.616Z</time>
      </trkpt>
      <trkpt lat="44.61881" lon="3.28798">
        <ele>893.019519</ele>
        <time>2020-03-08T23:49:10.526Z</time>
      </trkpt>
      <trkpt lat="44.6186" lon="3.28831">
        <ele>892.600091</ele>
        <time>2020-03-08T23:49:14.281Z</time>
      </trkpt>
      <trkpt lat="44.61782" lon="3.28884">
        <ele>891.133534</ele>
        <time>2020-03-08T23:49:25.394Z</time>
      </trkpt>
      <trkpt lat="44.61766" lon="3.28912">
        <ele>890.637694</ele>
        <time>2020-03-08T23:49:28.765Z</time>
      </trkpt>
      <trkpt lat="44.61755" lon="3.28959">
        <ele>889.934626</ele>
        <time>2020-03-08T23:49:33.536Z</time>
      </trkpt>
      <trkpt lat="44.61738" lon="3.28971">
        <ele>889.556582</ele>
        <time>2020-03-08T23:49:35.683Z</time>
      </trkpt>
      <trkpt lat="44.61722" lon="3.28959">
        <ele>889.203774</ele>
        <time>2020-03-08T23:49:37.569Z</time>
      </trkpt>
      <trkpt lat="44.6171" lon="3.2888">
        <ele>887.083306</ele>
        <time>2020-03-08T23:49:43.086Z</time>
      </trkpt>
      <trkpt lat="44.61699" lon="3.28857">
        <ele>885.792728</ele>
        <time>2020-03-08T23:49:44.918Z</time>
      </trkpt>
      <trkpt lat="44.61674" lon="3.2885">
        <ele>884.149349</ele>
        <time>2020-03-08T23:49:47.223Z</time>
      </trkpt>
      <trkpt lat="44.61644" lon="3.28875">
        <ele>881.866342</ele>
        <time>2020-03-08T23:49:50.436Z</time>
      </trkpt>
      <trkpt lat="44.61601" lon="3.2889">
        <ele>879.00459</ele>
        <time>2020-03-08T23:49:54.428Z</time>
      </trkpt>
      <trkpt lat="44.61538" lon="3.28936">
        <ele>873.369504</ele>
        <time>2020-03-08T23:50:00.695Z</time>
      </trkpt>
      <trkpt lat="44.61509" lon="3.28945">
        <ele>870.645493</ele>
        <time>2020-03-08T23:50:03.272Z</time>
      </trkpt>
      <trkpt lat="44.61463" lon="3.28942">
        <ele>866.390311</ele>
        <time>2020-03-08T23:50:07.247Z</time>
      </trkpt>
      <trkpt lat="44.61413" lon="3.28921">
        <ele>861.49087</ele>
        <time>2020-03-08T23:50:11.801Z</time>
      </trkpt>
      <trkpt lat="44.61397" lon="3.28921">
        <ele>860.059201</ele>
        <time>2020-03-08T23:50:13.101Z</time>
      </trkpt>
      <trkpt lat="44.61359" lon="3.28953">
        <ele>855.313713</ele>
        <time>2020-03-08T23:50:16.910Z</time>
      </trkpt>
      <trkpt lat="44.61296" lon="3.28966">
        <ele>848.527116</ele>
        <time>2020-03-08T23:50:22.316Z</time>
      </trkpt>
      <trkpt lat="44.61273" lon="3.2898">
        <ele>845.828352</ele>
        <time>2020-03-08T23:50:24.472Z</time>
      </trkpt>
      <trkpt lat="44.61215" lon="3.2906">
        <ele>838.393354</ele>
        <time>2020-03-08T23:50:31.422Z</time>
      </trkpt>
      <trkpt lat="44.61212" lon="3.29089">
        <ele>836.806448</ele>
        <time>2020-03-08T23:50:33.313Z</time>
      </trkpt>
      <trkpt lat="44.61197" lon="3.29123">
        <ele>834.739046</ele>
        <time>2020-03-08T23:50:35.791Z</time>
      </trkpt>
      <trkpt lat="44.612" lon="3.29177">
        <ele>831.933172</ele>
        <time>2020-03-08T23:50:39.243Z</time>
      </trkpt>
      <trkpt lat="44.61168" lon="3.29208">
        <ele>829.058561</ele>
        <time>2020-03-08T23:50:42.863Z</time>
      </trkpt>
      <trkpt lat="44.61158" lon="3.29225">
        <ele>827.894911</ele>
        <time>2020-03-08T23:50:44.350Z</time>
      </trkpt>
      <trkpt lat="44.61153" lon="3.2926">
        <ele>827.531743</ele>
        <time>2020-03-08T23:50:46.834Z</time>
      </trkpt>
      <trkpt lat="44.61148" lon="3.2927">
        <ele>827.418911</ele>
        <time>2020-03-08T23:50:47.760Z</time>
      </trkpt>
      <trkpt lat="44.61132" lon="3.29273">
        <ele>827.224942</ele>
        <time>2020-03-08T23:50:49.436Z</time>
      </trkpt>
      <trkpt lat="44.61122" lon="3.2929">
        <ele>827.042999</ele>
        <time>2020-03-08T23:50:51.095Z</time>
      </trkpt>
      <trkpt lat="44.61128" lon="3.29321">
        <ele>826.771326</ele>
        <time>2020-03-08T23:50:53.833Z</time>
      </trkpt>
      <trkpt lat="44.61125" lon="3.29349">
        <ele>826.529537</ele>
        <time>2020-03-08T23:50:56.404Z</time>
      </trkpt>
      <trkpt lat="44.61117" lon="3.29353">
        <ele>826.433452</ele>
        <time>2020-03-08T23:50:57.559Z</time>
      </trkpt>
      <trkpt lat="44.61089" lon="3.29345">
        <ele>826.089296</ele>
        <time>2020-03-08T23:51:01.922Z</time>
      </trkpt>
      <trkpt lat="44.61061" lon="3.29382">
        <ele>825.709788</ele>
        <time>2020-03-08T23:51:09.248Z</time>
      </trkpt>
      <trkpt lat="44.61047" lon="3.2939">
        <ele>826.033889</ele>
        <time>2020-03-08T23:51:12.531Z</time>
      </trkpt>
      <trkpt lat="44.6104" lon="3.29408">
        <ele>826.346796</ele>
        <time>2020-03-08T23:51:16.092Z</time>
      </trkpt>
      <trkpt lat="44.61041" lon="3.29445">
        <ele>826.909954</ele>
        <time>2020-03-08T23:51:23.070Z</time>
      </trkpt>
      <trkpt lat="44.61035" lon="3.29456">
        <ele>827.114544</ele>
        <time>2020-03-08T23:51:25.714Z</time>
      </trkpt>
      <trkpt lat="44.60946" lon="3.29498">
        <ele>829.118318</ele>
        <time>2020-03-08T23:51:50.328Z</time>
      </trkpt>
      <trkpt lat="44.60888" lon="3.29487">
        <ele>828.730007</ele>
        <time>2020-03-08T23:52:01.861Z</time>
      </trkpt>
      <trkpt lat="44.60831" lon="3.29485">
        <ele>827.702814</ele>
        <time>2020-03-08T23:52:09.016Z</time>
      </trkpt>
      <trkpt lat="44.60787" lon="3.29495">
        <ele>826.902867</ele>
        <time>2020-03-08T23:52:13.592Z</time>
      </trkpt>
      <trkpt lat="44.60768" lon="3.29499">
        <ele>826.548002</ele>
        <time>2020-03-08T23:52:15.494Z</time>
      </trkpt>
      <trkpt lat="44.60744" lon="3.29511">
        <ele>825.552986</ele>
        <time>2020-03-08T23:52:17.913Z</time>
      </trkpt>
      <trkpt lat="44.60699" lon="3.29508">
        <ele>821.685395</ele>
        <time>2020-03-08T23:52:21.942Z</time>
      </trkpt>
      <trkpt lat="44.60531" lon="3.29434">
        <ele>805.458361</ele>
        <time>2020-03-08T23:52:37.115Z</time>
      </trkpt>
      <trkpt lat="44.60499" lon="3.29428">
        <ele>802.014987</ele>
        <time>2020-03-08T23:52:39.852Z</time>
      </trkpt>
      <trkpt lat="44.60442" lon="3.29426">
        <ele>795.944369</ele>
        <time>2020-03-08T23:52:44.669Z</time>
      </trkpt>
      <trkpt lat="44.60408" lon="3.29438">
        <ele>792.2434</ele>
        <time>2020-03-08T23:52:47.624Z</time>
      </trkpt>
      <trkpt lat="44.60298" lon="3.29485">
        <ele>782.590467</ele>
        <time>2020-03-08T23:52:57.594Z</time>
      </trkpt>
      <trkpt lat="44.60233" lon="3.29521">
        <ele>776.865486</ele>
        <time>2020-03-08T23:53:03.884Z</time>
      </trkpt>
      <trkpt lat="44.60202" lon="3.29552">
        <ele>775.291232</ele>
        <time>2020-03-08T23:53:07.493Z</time>
      </trkpt>
      <trkpt lat="44.60135" lon="3.29653">
        <ele>771.481447</ele>
        <time>2020-03-08T23:53:17.557Z</time>
      </trkpt>
      <trkpt lat="44.60103" lon="3.2968">
        <ele>770.036213</ele>
        <time>2020-03-08T23:53:21.400Z</time>
      </trkpt>
      <trkpt lat="44.60061" lon="3.29704">
        <ele>767.789896</ele>
        <time>2020-03-08T23:53:25.928Z</time>
      </trkpt>
      <trkpt lat="44.60023" lon="3.29713">
        <ele>765.8215</ele>
        <time>2020-03-08T23:53:29.562Z</time>
      </trkpt>
      <trkpt lat="44.59968" lon="3.2971">
        <ele>762.975803</ele>
        <time>2020-03-08T23:53:34.644Z</time>
      </trkpt>
      <trkpt lat="44.59848" lon="3.29721">
        <ele>756.900072</ele>
        <time>2020-03-08T23:53:45.539Z</time>
      </trkpt>
      <trkpt lat="44.59825" lon="3.29737">
        <ele>755.597324</ele>
        <time>2020-03-08T23:53:47.969Z</time>
      </trkpt>
      <trkpt lat="44.59758" lon="3.29832">
        <ele>751.003809</ele>
        <time>2020-03-08T23:53:57.471Z</time>
      </trkpt>
      <trkpt lat="44.59709" lon="3.29875">
        <ele>748.647559</ele>
        <time>2020-03-08T23:54:03.385Z</time>
      </trkpt>
      <trkpt lat="44.59682" lon="3.29888">
        <ele>747.507804</ele>
        <time>2020-03-08T23:54:06.289Z</time>
      </trkpt>
      <trkpt lat="44.59653" lon="3.29892">
        <ele>746.302575</ele>
        <time>2020-03-08T23:54:09.294Z</time>
      </trkpt>
      <trkpt lat="44.59637" lon="3.29895">
        <ele>745.67161</ele>
        <time>2020-03-08T23:54:10.723Z</time>
      </trkpt>
      <trkpt lat="44.59595" lon="3.29892">
        <ele>743.798608</ele>
        <time>2020-03-08T23:54:14.737Z</time>
      </trkpt>
      <trkpt lat="44.5948" lon="3.29861">
        <ele>735.883519</ele>
        <time>2020-03-08T23:54:25.112Z</time>
      </trkpt>
      <trkpt lat="44.59394" lon="3.29857">
        <ele>730.724377</ele>
        <time>2020-03-08T23:54:32.953Z</time>
      </trkpt>
      <trkpt lat="44.59384" lon="3.2985">
        <ele>730.222149</ele>
        <time>2020-03-08T23:54:33.933Z</time>
      </trkpt>
      <trkpt lat="44.59357" lon="3.29821">
        <ele>728.706113</ele>
        <time>2020-03-08T23:54:37.176Z</time>
      </trkpt>
      <trkpt lat="44.59352" lon="3.29816">
        <ele>728.4399</ele>
        <time>2020-03-08T23:54:37.766Z</time>
      </trkpt>
      <trkpt lat="44.59347" lon="3.29815">
        <ele>728.202443</ele>
        <time>2020-03-08T23:54:38.358Z</time>
      </trkpt>
      <trkpt lat="44.59339" lon="3.29814">
        <ele>727.881655</ele>
        <time>2020-03-08T23:54:39.119Z</time>
      </trkpt>
      <trkpt lat="44.59309" lon="3.29821">
        <ele>726.529095</ele>
        <time>2020-03-08T23:54:42.048Z</time>
      </trkpt>
      <trkpt lat="44.59277" lon="3.29829">
        <ele>725.056671</ele>
        <time>2020-03-08T23:54:45.323Z</time>
      </trkpt>
      <trkpt lat="44.59244" lon="3.29842">
        <ele>723.683138</ele>
        <time>2020-03-08T23:54:48.840Z</time>
      </trkpt>
      <trkpt lat="44.59207" lon="3.29869">
        <ele>722.413595</ele>
        <time>2020-03-08T23:54:53.710Z</time>
      </trkpt>
      <trkpt lat="44.59186" lon="3.29872">
        <ele>721.784429</ele>
        <time>2020-03-08T23:54:55.835Z</time>
      </trkpt>
      <trkpt lat="44.59114" lon="3.29913">
        <ele>719.38984</ele>
        <time>2020-03-08T23:55:03.629Z</time>
      </trkpt>
      <trkpt lat="44.591" lon="3.29915">
        <ele>718.96405</ele>
        <time>2020-03-08T23:55:04.997Z</time>
      </trkpt>
      <trkpt lat="44.5902" lon="3.29856">
        <ele>716.257206</ele>
        <time>2020-03-08T23:55:14.137Z</time>
      </trkpt>
      <trkpt lat="44.58995" lon="3.29846">
        <ele>715.469018</ele>
        <time>2020-03-08T23:55:16.755Z</time>
      </trkpt>
      <trkpt lat="44.58947" lon="3.2981">
        <ele>713.827985</ele>
        <time>2020-03-08T23:55:22.434Z</time>
      </trkpt>
      <trkpt lat="44.58898" lon="3.29761">
        <ele>712.37998</ele>
        <time>2020-03-08T23:55:28.767Z</time>
      </trkpt>
      <trkpt lat="44.58887" lon="3.29746">
        <ele>712.069726</ele>
        <time>2020-03-08T23:55:30.417Z</time>
      </trkpt>
      <trkpt lat="44.58877" lon="3.29733">
        <ele>711.794714</ele>
        <time>2020-03-08T23:55:31.823Z</time>
      </trkpt>
      <trkpt lat="44.58827" lon="3.29684">
        <ele>710.543398</ele>
        <time>2020-03-08T23:55:38.658Z</time>
      </trkpt>
      <trkpt lat="44.58786" lon="3.29623">
        <ele>709.375662</ele>
        <time>2020-03-08T23:55:45.323Z</time>
      </trkpt>
      <trkpt lat="44.58744" lon="3.29578">
        <ele>708.693704</ele>
        <time>2020-03-08T23:55:51.486Z</time>
      </trkpt>
      <trkpt lat="44.58717" lon="3.29553">
        <ele>708.273194</ele>
        <time>2020-03-08T23:55:55.386Z</time>
      </trkpt>
      <trkpt lat="44.5866" lon="3.29532">
        <ele>707.524092</ele>
        <time>2020-03-08T23:56:02.342Z</time>
      </trkpt>
      <trkpt lat="44.58643" lon="3.29533">
        <ele>707.297989</ele>
        <time>2020-03-08T23:56:04.584Z</time>
      </trkpt>
      <trkpt lat="44.58581" lon="3.29536">
        <ele>706.583857</ele>
        <time>2020-03-08T23:56:12.047Z</time>
      </trkpt>
      <trkpt lat="44.58536" lon="3.29538">
        <ele>706.079653</ele>
        <time>2020-03-08T23:56:17.536Z</time>
      </trkpt>
      <trkpt lat="44.58471" lon="3.29523">
        <ele>705.334522</ele>
        <time>2020-03-08T23:56:25.341Z</time>
      </trkpt>
      <trkpt lat="44.58445" lon="3.295">
        <ele>704.970428</ele>
        <time>2020-03-08T23:56:28.952Z</time>
      </trkpt>
      <trkpt lat="44.58405" lon="3.29445">
        <ele>704.239207</ele>
        <time>2020-03-08T23:56:35.666Z</time>
      </trkpt>
      <trkpt lat="44.58334" lon="3.29377">
        <ele>703.139405</ele>
        <time>2020-03-08T23:56:45.660Z</time>
      </trkpt>
      <trkpt lat="44.58296" lon="3.29332">
        <ele>702.720882</ele>
        <time>2020-03-08T23:56:51.524Z</time>
      </trkpt>
      <trkpt lat="44.58269" lon="3.29285">
        <ele>702.588334</ele>
        <time>2020-03-08T23:56:56.721Z</time>
      </trkpt>
      <trkpt lat="44.58249" lon="3.29263">
        <ele>702.509598</ele>
        <time>2020-03-08T23:56:59.882Z</time>
      </trkpt>
      <trkpt lat="44.58209" lon="3.29244">
        <ele>702.38078</ele>
        <time>2020-03-08T23:57:05.110Z</time>
      </trkpt>
      <trkpt lat="44.58074" lon="3.2916">
        <ele>705.715443</ele>
        <time>2020-03-08T23:57:36.262Z</time>
      </trkpt>
      <trkpt lat="44.57911" lon="3.29118">
        <ele>712.199716</ele>
        <time>2020-03-08T23:58:40.510Z</time>
      </trkpt>
      <trkpt lat="44.57839" lon="3.29122">
        <ele>715.331723</ele>
        <time>2020-03-08T23:59:03.610Z</time>
      </trkpt>
      <trkpt lat="44.57819" lon="3.29139">
        <ele>716.139539</ele>
        <time>2020-03-08T23:59:07.805Z</time>
      </trkpt>
      <trkpt lat="44.57809" lon="3.29162">
        <ele>715.539447</ele>
        <time>2020-03-08T23:59:13.763Z</time>
      </trkpt>
      <trkpt lat="44.57796" lon="3.29191">
        <ele>714.802779</ele>
        <time>2020-03-08T23:59:16.429Z</time>
      </trkpt>
      <trkpt lat="44.57758" lon="3.29261">
        <ele>712.881234</ele>
        <time>2020-03-08T23:59:22.654Z</time>
      </trkpt>
      <trkpt lat="44.57737" lon="3.29316">
        <ele>711.534119</ele>
        <time>2020-03-08T23:59:26.871Z</time>
      </trkpt>
      <trkpt lat="44.57721" lon="3.29336">
        <ele>710.859085</ele>
        <time>2020-03-08T23:59:28.876Z</time>
      </trkpt>
      <trkpt lat="44.57704" lon="3.2934">
        <ele>710.230856</ele>
        <time>2020-03-08T23:59:30.351Z</time>
      </trkpt>
      <trkpt lat="44.57697" lon="3.29337">
        <ele>709.90822</ele>
        <time>2020-03-08T23:59:31.006Z</time>
      </trkpt>
      <trkpt lat="44.57619" lon="3.293">
        <ele>706.547337</ele>
        <time>2020-03-08T23:59:38.781Z</time>
      </trkpt>
      <trkpt lat="44.57554" lon="3.29293">
        <ele>703.879158</ele>
        <time>2020-03-08T23:59:45.322Z</time>
      </trkpt>
      <trkpt lat="44.57481" lon="3.29252">
        <ele>703.20166</ele>
        <time>2020-03-08T23:59:58.124Z</time>
      </trkpt>
      <trkpt lat="44.57433" lon="3.29211">
        <ele>703.047718</ele>
        <time>2020-03-09T00:00:07.568Z</time>
      </trkpt>
      <trkpt lat="44.57401" lon="3.29203">
        <ele>702.960169</ele>
        <time>2020-03-09T00:00:12.402Z</time>
      </trkpt>
      <trkpt lat="44.57365" lon="3.2921">
        <ele>702.815296</ele>
        <time>2020-03-09T00:00:17.179Z</time>
      </trkpt>
      <trkpt lat="44.57319" lon="3.29235">
        <ele>702.476869</ele>
        <time>2020-03-09T00:00:22.899Z</time>
      </trkpt>
      <trkpt lat="44.57297" lon="3.2924">
        <ele>702.322813</ele>
        <time>2020-03-09T00:00:25.337Z</time>
      </trkpt>
      <trkpt lat="44.57251" lon="3.29237">
        <ele>702.006358</ele>
        <time>2020-03-09T00:00:30.888Z</time>
      </trkpt>
      <trkpt lat="44.57213" lon="3.29222">
        <ele>701.739718</ele>
        <time>2020-03-09T00:00:36.373Z</time>
      </trkpt>
      <trkpt lat="44.57124" lon="3.29199">
        <ele>703.983883</ele>
        <time>2020-03-09T00:00:52.874Z</time>
      </trkpt>
      <trkpt lat="44.57118" lon="3.29192">
        <ele>704.202133</ele>
        <time>2020-03-09T00:00:56.841Z</time>
      </trkpt>
      <trkpt lat="44.57118" lon="3.29181">
        <ele>704.448313</ele>
        <time>2020-03-09T00:00:58.601Z</time>
      </trkpt>
      <trkpt lat="44.57148" lon="3.29117">
        <ele>706.057772</ele>
        <time>2020-03-09T00:01:14.023Z</time>
      </trkpt>
      <trkpt lat="44.57153" lon="3.29093">
        <ele>706.575082</ele>
        <time>2020-03-09T00:01:21.593Z</time>
      </trkpt>
      <trkpt lat="44.57154" lon="3.29039">
        <ele>708.48273</ele>
        <time>2020-03-09T00:01:36.222Z</time>
      </trkpt>
      <trkpt lat="44.57209" lon="3.28984">
        <ele>712.562399</ele>
        <time>2020-03-09T00:02:03.730Z</time>
      </trkpt>
      <trkpt lat="44.57225" lon="3.28961">
        <ele>713.937116</ele>
        <time>2020-03-09T00:02:13.215Z</time>
      </trkpt>
      <trkpt lat="44.57239" lon="3.28868">
        <ele>717.828467</ele>
        <time>2020-03-09T00:02:41.355Z</time>
      </trkpt>
      <trkpt lat="44.57266" lon="3.28843">
        <ele>718.410545</ele>
        <time>2020-03-09T00:02:52.264Z</time>
      </trkpt>
      <trkpt lat="44.57269" lon="3.2884">
        <ele>718.482648</ele>
        <time>2020-03-09T00:02:53.221Z</time>
      </trkpt>
      <trkpt lat="44.57279" lon="3.28817">
        <ele>718.817649</ele>
        <time>2020-03-09T00:02:57.541Z</time>
      </trkpt>
      <trkpt lat="44.57264" lon="3.28811">
        <ele>719.103096</ele>
        <time>2020-03-09T00:03:02.473Z</time>
      </trkpt>
      <trkpt lat="44.57249" lon="3.28808">
        <ele>719.365844</ele>
        <time>2020-03-09T00:03:04.759Z</time>
      </trkpt>
      <trkpt lat="44.57234" lon="3.28807">
        <ele>719.636459</ele>
        <time>2020-03-09T00:03:08.472Z</time>
      </trkpt>
      <trkpt lat="44.57226" lon="3.28809">
        <ele>719.786976</ele>
        <time>2020-03-09T00:03:10.093Z</time>
      </trkpt>
      <trkpt lat="44.57215" lon="3.28815">
        <ele>720.007162</ele>
        <time>2020-03-09T00:03:11.542Z</time>
      </trkpt>
      <trkpt lat="44.57205" lon="3.28823">
        <ele>720.211897</ele>
        <time>2020-03-09T00:03:13.702Z</time>
      </trkpt>
      <trkpt lat="44.57167" lon="3.28887">
        <ele>720.388517</ele>
        <time>2020-03-09T00:03:20.959Z</time>
      </trkpt>
      <trkpt lat="44.5715" lon="3.28905">
        <ele>719.502216</ele>
        <time>2020-03-09T00:03:23.514Z</time>
      </trkpt>
      <trkpt lat="44.57106" lon="3.28934">
        <ele>717.50169</ele>
        <time>2020-03-09T00:03:28.402Z</time>
      </trkpt>
      <trkpt lat="44.57092" lon="3.28953">
        <ele>716.710836</ele>
        <time>2020-03-09T00:03:30.183Z</time>
      </trkpt>
      <trkpt lat="44.57062" lon="3.29027">
        <ele>714.223797</ele>
        <time>2020-03-09T00:03:35.743Z</time>
      </trkpt>
      <trkpt lat="44.57044" lon="3.29049">
        <ele>713.113042</ele>
        <time>2020-03-09T00:03:37.931Z</time>
      </trkpt>
      <trkpt lat="44.57" lon="3.29063">
        <ele>710.670377</ele>
        <time>2020-03-09T00:03:42.045Z</time>
      </trkpt>
      <trkpt lat="44.56946" lon="3.29068">
        <ele>707.686003</ele>
        <time>2020-03-09T00:03:47.117Z</time>
      </trkpt>
      <trkpt lat="44.56932" lon="3.29074">
        <ele>706.87768</ele>
        <time>2020-03-09T00:03:48.505Z</time>
      </trkpt>
      <trkpt lat="44.5691" lon="3.29091">
        <ele>705.546123</ele>
        <time>2020-03-09T00:03:50.782Z</time>
      </trkpt>
      <trkpt lat="44.56871" lon="3.29142">
        <ele>702.987345</ele>
        <time>2020-03-09T00:03:55.794Z</time>
      </trkpt>
      <trkpt lat="44.56855" lon="3.29172">
        <ele>701.993368</ele>
        <time>2020-03-09T00:03:58.300Z</time>
      </trkpt>
      <trkpt lat="44.56822" lon="3.29205">
        <ele>700.439308</ele>
        <time>2020-03-09T00:04:02.348Z</time>
      </trkpt>
      <trkpt lat="44.56788" lon="3.29214">
        <ele>699.176993</ele>
        <time>2020-03-09T00:04:05.779Z</time>
      </trkpt>
      <trkpt lat="44.56758" lon="3.29206">
        <ele>698.012415</ele>
        <time>2020-03-09T00:04:09.070Z</time>
      </trkpt>
      <trkpt lat="44.56731" lon="3.29189">
        <ele>696.943925</ele>
        <time>2020-03-09T00:04:12.090Z</time>
      </trkpt>
      <trkpt lat="44.56701" lon="3.29171">
        <ele>695.948699</ele>
        <time>2020-03-09T00:04:15.490Z</time>
      </trkpt>
      <trkpt lat="44.56685" lon="3.29165">
        <ele>695.445111</ele>
        <time>2020-03-09T00:04:17.232Z</time>
      </trkpt>
      <trkpt lat="44.56633" lon="3.29153">
        <ele>693.866939</ele>
        <time>2020-03-09T00:04:22.525Z</time>
      </trkpt>
      <trkpt lat="44.5661" lon="3.29147">
        <ele>693.149463</ele>
        <time>2020-03-09T00:04:24.951Z</time>
      </trkpt>
      <trkpt lat="44.56602" lon="3.29146">
        <ele>692.918223</ele>
        <time>2020-03-09T00:04:25.707Z</time>
      </trkpt>
      <trkpt lat="44.56581" lon="3.29141">
        <ele>692.263854</ele>
        <time>2020-03-09T00:04:27.906Z</time>
      </trkpt>
      <trkpt lat="44.56522" lon="3.29128">
        <ele>690.366209</ele>
        <time>2020-03-09T00:04:34.061Z</time>
      </trkpt>
      <trkpt lat="44.56507" lon="3.29124">
        <ele>689.859478</ele>
        <time>2020-03-09T00:04:35.601Z</time>
      </trkpt>
      <trkpt lat="44.56473" lon="3.29116">
        <ele>688.704561</ele>
        <time>2020-03-09T00:04:39.043Z</time>
      </trkpt>
      <trkpt lat="44.56448" lon="3.29118">
        <ele>687.857571</ele>
        <time>2020-03-09T00:04:41.523Z</time>
      </trkpt>
      <trkpt lat="44.56425" lon="3.29115">
        <ele>687.092726</ele>
        <time>2020-03-09T00:04:43.836Z</time>
      </trkpt>
      <trkpt lat="44.56409" lon="3.29117">
        <ele>686.57581</ele>
        <time>2020-03-09T00:04:45.403Z</time>
      </trkpt>
      <trkpt lat="44.56401" lon="3.29112">
        <ele>686.262765</ele>
        <time>2020-03-09T00:04:46.317Z</time>
      </trkpt>
      <trkpt lat="44.56397" lon="3.29107">
        <ele>686.103101</ele>
        <time>2020-03-09T00:04:46.821Z</time>
      </trkpt>
      <trkpt lat="44.56386" lon="3.29103">
        <ele>685.7205</ele>
        <time>2020-03-09T00:04:48.004Z</time>
      </trkpt>
      <trkpt lat="44.56381" lon="3.29106">
        <ele>685.540599</ele>
        <time>2020-03-09T00:04:48.543Z</time>
      </trkpt>
      <trkpt lat="44.56377" lon="3.2911">
        <ele>685.347238</ele>
        <time>2020-03-09T00:04:49.068Z</time>
      </trkpt>
      <trkpt lat="44.56373" lon="3.29125">
        <ele>684.932042</ele>
        <time>2020-03-09T00:04:50.175Z</time>
      </trkpt>
      <trkpt lat="44.56375" lon="3.29134">
        <ele>684.685368</ele>
        <time>2020-03-09T00:04:50.845Z</time>
      </trkpt>
      <trkpt lat="44.5637" lon="3.29148">
        <ele>684.254874</ele>
        <time>2020-03-09T00:04:52.016Z</time>
      </trkpt>
      <trkpt lat="44.56367" lon="3.29156">
        <ele>684.016664</ele>
        <time>2020-03-09T00:04:52.681Z</time>
      </trkpt>
      <trkpt lat="44.56357" lon="3.29173">
        <ele>683.413795</ele>
        <time>2020-03-09T00:04:54.273Z</time>
      </trkpt>
      <trkpt lat="44.56343" lon="3.2918">
        <ele>682.860319</ele>
        <time>2020-03-09T00:04:55.775Z</time>
      </trkpt>
      <trkpt lat="44.56308" lon="3.29194">
        <ele>681.501297</ele>
        <time>2020-03-09T00:04:59.417Z</time>
      </trkpt>
      <trkpt lat="44.56302" lon="3.29193">
        <ele>681.251987</ele>
        <time>2020-03-09T00:05:00.102Z</time>
      </trkpt>
      <trkpt lat="44.56295" lon="3.29193">
        <ele>681.013976</ele>
        <time>2020-03-09T00:05:00.694Z</time>
      </trkpt>
      <trkpt lat="44.56257" lon="3.2918">
        <ele>679.527683</ele>
        <time>2020-03-09T00:05:04.465Z</time>
      </trkpt>
      <trkpt lat="44.56232" lon="3.29174">
        <ele>678.497822</ele>
        <time>2020-03-09T00:05:06.897Z</time>
      </trkpt>
      <trkpt lat="44.56208" lon="3.29174">
        <ele>677.407617</ele>
        <time>2020-03-09T00:05:09.081Z</time>
      </trkpt>
      <trkpt lat="44.56188" lon="3.29175">
        <ele>676.440947</ele>
        <time>2020-03-09T00:05:11.070Z</time>
      </trkpt>
      <trkpt lat="44.56166" lon="3.29178">
        <ele>675.422487</ele>
        <time>2020-03-09T00:05:13.153Z</time>
      </trkpt>
      <trkpt lat="44.56162" lon="3.29178">
        <ele>675.236676</ele>
        <time>2020-03-09T00:05:13.542Z</time>
      </trkpt>
      <trkpt lat="44.5616" lon="3.29178">
        <ele>675.152594</ele>
        <time>2020-03-09T00:05:13.718Z</time>
      </trkpt>
      <trkpt lat="44.56137" lon="3.29181">
        <ele>674.086604</ele>
        <time>2020-03-09T00:05:15.851Z</time>
      </trkpt>
      <trkpt lat="44.56106" lon="3.29185">
        <ele>672.643712</ele>
        <time>2020-03-09T00:05:18.829Z</time>
      </trkpt>
      <trkpt lat="44.56094" lon="3.29186">
        <ele>672.075631</ele>
        <time>2020-03-09T00:05:19.982Z</time>
      </trkpt>
      <trkpt lat="44.5608" lon="3.29186">
        <ele>671.430826</ele>
        <time>2020-03-09T00:05:21.334Z</time>
      </trkpt>
      <trkpt lat="44.56046" lon="3.29181">
        <ele>670.068338</ele>
        <time>2020-03-09T00:05:24.617Z</time>
      </trkpt>
      <trkpt lat="44.56024" lon="3.29175">
        <ele>669.367376</ele>
        <time>2020-03-09T00:05:26.808Z</time>
      </trkpt>
      <trkpt lat="44.56013" lon="3.29171">
        <ele>669.010329</ele>
        <time>2020-03-09T00:05:27.947Z</time>
      </trkpt>
      <trkpt lat="44.55988" lon="3.29161">
        <ele>668.189254</ele>
        <time>2020-03-09T00:05:30.586Z</time>
      </trkpt>
      <trkpt lat="44.55934" lon="3.2914">
        <ele>666.447848</ele>
        <time>2020-03-09T00:05:36.384Z</time>
      </trkpt>
      <trkpt lat="44.55929" lon="3.29138">
        <ele>666.290787</ele>
        <time>2020-03-09T00:05:36.898Z</time>
      </trkpt>
      <trkpt lat="44.5588" lon="3.29117">
        <ele>664.733605</ele>
        <time>2020-03-09T00:05:42.383Z</time>
      </trkpt>
      <trkpt lat="44.55851" lon="3.29106">
        <ele>664.038766</ele>
        <time>2020-03-09T00:05:45.606Z</time>
      </trkpt>
      <trkpt lat="44.55837" lon="3.29099">
        <ele>663.710315</ele>
        <time>2020-03-09T00:05:47.135Z</time>
      </trkpt>
      <trkpt lat="44.55832" lon="3.29094">
        <ele>663.556652</ele>
        <time>2020-03-09T00:05:47.849Z</time>
      </trkpt>
      <trkpt lat="44.55828" lon="3.29089">
        <ele>663.440095</ele>
        <time>2020-03-09T00:05:48.366Z</time>
      </trkpt>
      <trkpt lat="44.55824" lon="3.29087">
        <ele>663.324389</ele>
        <time>2020-03-09T00:05:48.904Z</time>
      </trkpt>
      <trkpt lat="44.55818" lon="3.29087">
        <ele>663.19959</ele>
        <time>2020-03-09T00:05:49.488Z</time>
      </trkpt>
      <trkpt lat="44.55814" lon="3.29092">
        <ele>663.075258</ele>
        <time>2020-03-09T00:05:50.068Z</time>
      </trkpt>
      <trkpt lat="44.55794" lon="3.29095">
        <ele>662.612547</ele>
        <time>2020-03-09T00:05:52.185Z</time>
      </trkpt>
      <trkpt lat="44.55773" lon="3.29095">
        <ele>662.140778</ele>
        <time>2020-03-09T00:05:54.394Z</time>
      </trkpt>
      <trkpt lat="44.55679" lon="3.29097">
        <ele>660.062761</ele>
        <time>2020-03-09T00:06:04.587Z</time>
      </trkpt>
      <trkpt lat="44.55635" lon="3.29101">
        <ele>659.159969</ele>
        <time>2020-03-09T00:06:09.513Z</time>
      </trkpt>
      <trkpt lat="44.55569" lon="3.29103">
        <ele>657.804461</ele>
        <time>2020-03-09T00:06:16.829Z</time>
      </trkpt>
      <trkpt lat="44.55562" lon="3.29103">
        <ele>657.673645</ele>
        <time>2020-03-09T00:06:17.476Z</time>
      </trkpt>
      <trkpt lat="44.55541" lon="3.29103">
        <ele>657.238276</ele>
        <time>2020-03-09T00:06:19.748Z</time>
      </trkpt>
      <trkpt lat="44.5552" lon="3.29102">
        <ele>656.785637</ele>
        <time>2020-03-09T00:06:21.971Z</time>
      </trkpt>
      <trkpt lat="44.55513" lon="3.29107">
        <ele>656.594191</ele>
        <time>2020-03-09T00:06:22.887Z</time>
      </trkpt>
      <trkpt lat="44.55508" lon="3.29118">
        <ele>656.381197</ele>
        <time>2020-03-09T00:06:23.974Z</time>
      </trkpt>
      <trkpt lat="44.55505" lon="3.29126">
        <ele>656.242289</ele>
        <time>2020-03-09T00:06:24.687Z</time>
      </trkpt>
      <trkpt lat="44.55498" lon="3.29145">
        <ele>655.895141</ele>
        <time>2020-03-09T00:06:26.280Z</time>
      </trkpt>
      <trkpt lat="44.5549" lon="3.29172">
        <ele>655.408973</ele>
        <time>2020-03-09T00:06:28.720Z</time>
      </trkpt>
      <trkpt lat="44.55475" lon="3.29223">
        <ele>654.51144</ele>
        <time>2020-03-09T00:06:32.969Z</time>
      </trkpt>
      <trkpt lat="44.5547" lon="3.29228">
        <ele>654.378526</ele>
        <time>2020-03-09T00:06:33.567Z</time>
      </trkpt>
      <trkpt lat="44.55464" lon="3.29235">
        <ele>654.191478</ele>
        <time>2020-03-09T00:06:34.413Z</time>
      </trkpt>
      <trkpt lat="44.5546" lon="3.29238">
        <ele>654.094177</ele>
        <time>2020-03-09T00:06:34.858Z</time>
      </trkpt>
      <trkpt lat="44.55452" lon="3.29242">
        <ele>653.906082</ele>
        <time>2020-03-09T00:06:35.754Z</time>
      </trkpt>
      <trkpt lat="44.5545" lon="3.29244">
        <ele>653.845382</ele>
        <time>2020-03-09T00:06:36.056Z</time>
      </trkpt>
      <trkpt lat="44.55435" lon="3.29243">
        <ele>653.497951</ele>
        <time>2020-03-09T00:06:37.642Z</time>
      </trkpt>
      <trkpt lat="44.55411" lon="3.29244">
        <ele>652.943364</ele>
        <time>2020-03-09T00:06:40.262Z</time>
      </trkpt>
      <trkpt lat="44.554" lon="3.29244">
        <ele>652.712746</ele>
        <time>2020-03-09T00:06:41.301Z</time>
      </trkpt>
      <trkpt lat="44.55337" lon="3.29246">
        <ele>651.34922</ele>
        <time>2020-03-09T00:06:47.861Z</time>
      </trkpt>
      <trkpt lat="44.55329" lon="3.29246">
        <ele>651.164389</ele>
        <time>2020-03-09T00:06:48.759Z</time>
      </trkpt>
      <trkpt lat="44.55323" lon="3.29246">
        <ele>651.03175</ele>
        <time>2020-03-09T00:06:49.405Z</time>
      </trkpt>
      <trkpt lat="44.5531" lon="3.29246">
        <ele>650.759945</ele>
        <time>2020-03-09T00:06:50.713Z</time>
      </trkpt>
      <trkpt lat="44.55267" lon="3.29243">
        <ele>649.810911</ele>
        <time>2020-03-09T00:06:55.605Z</time>
      </trkpt>
      <trkpt lat="44.55253" lon="3.2924">
        <ele>649.513708</ele>
        <time>2020-03-09T00:06:57.153Z</time>
      </trkpt>
      <trkpt lat="44.55241" lon="3.29238">
        <ele>649.258971</ele>
        <time>2020-03-09T00:06:58.412Z</time>
      </trkpt>
      <trkpt lat="44.55207" lon="3.29229">
        <ele>649.020713</ele>
        <time>2020-03-09T00:07:02.383Z</time>
      </trkpt>
      <trkpt lat="44.55196" lon="3.29226">
        <ele>649.008904</ele>
        <time>2020-03-09T00:07:03.787Z</time>
      </trkpt>
      <trkpt lat="44.55187" lon="3.29225">
        <ele>648.998916</ele>
        <time>2020-03-09T00:07:04.941Z</time>
      </trkpt>
      <trkpt lat="44.55184" lon="3.29224">
        <ele>648.995964</ele>
        <time>2020-03-09T00:07:05.294Z</time>
      </trkpt>
      <trkpt lat="44.55181" lon="3.29223">
        <ele>648.993067</ele>
        <time>2020-03-09T00:07:05.654Z</time>
      </trkpt>
      <trkpt lat="44.55179" lon="3.29224">
        <ele>648.991046</ele>
        <time>2020-03-09T00:07:05.900Z</time>
      </trkpt>
      <trkpt lat="44.55177" lon="3.29226">
        <ele>648.988173</ele>
        <time>2020-03-09T00:07:06.274Z</time>
      </trkpt>
      <trkpt lat="44.55175" lon="3.29229">
        <ele>648.985183</ele>
        <time>2020-03-09T00:07:06.654Z</time>
      </trkpt>
      <trkpt lat="44.55174" lon="3.29233">
        <ele>648.982277</ele>
        <time>2020-03-09T00:07:07.020Z</time>
      </trkpt>
      <trkpt lat="44.55174" lon="3.29236">
        <ele>648.979708</ele>
        <time>2020-03-09T00:07:07.369Z</time>
      </trkpt>
      <trkpt lat="44.55175" lon="3.2924">
        <ele>648.977184</ele>
        <time>2020-03-09T00:07:07.791Z</time>
      </trkpt>
      <trkpt lat="44.55177" lon="3.29242">
        <ele>648.974674</ele>
        <time>2020-03-09T00:07:08.253Z</time>
      </trkpt>
      <trkpt lat="44.55178" lon="3.29248">
        <ele>648.970083</ele>
        <time>2020-03-09T00:07:09.075Z</time>
      </trkpt>
      <trkpt lat="44.55179" lon="3.2926">
        <ele>648.961816</ele>
        <time>2020-03-09T00:07:10.372Z</time>
      </trkpt>
      <trkpt lat="44.55177" lon="3.29266">
        <ele>648.956625</ele>
        <time>2020-03-09T00:07:11.276Z</time>
      </trkpt>
      <trkpt lat="44.55176" lon="3.29274">
        <ele>648.951208</ele>
        <time>2020-03-09T00:07:12.337Z</time>
      </trkpt>
      <trkpt lat="44.55174" lon="3.29288">
        <ele>648.940715</ele>
        <time>2020-03-09T00:07:14.511Z</time>
      </trkpt>
      <trkpt lat="44.55173" lon="3.29292">
        <ele>648.937428</ele>
        <time>2020-03-09T00:07:15.277Z</time>
      </trkpt>
      <trkpt lat="44.5517" lon="3.29307">
        <ele>648.926085</ele>
        <time>2020-03-09T00:07:17.437Z</time>
      </trkpt>
      <trkpt lat="44.55169" lon="3.29315">
        <ele>648.919962</ele>
        <time>2020-03-09T00:07:18.260Z</time>
      </trkpt>
      <trkpt lat="44.55167" lon="3.2932">
        <ele>648.915565</ele>
        <time>2020-03-09T00:07:18.698Z</time>
      </trkpt>
      <trkpt lat="44.55159" lon="3.29332">
        <ele>648.903815</ele>
        <time>2020-03-09T00:07:21.047Z</time>
      </trkpt>
      <trkpt lat="44.55154" lon="3.29335">
        <ele>648.898189</ele>
        <time>2020-03-09T00:07:22.310Z</time>
      </trkpt>
      <trkpt lat="44.55113" lon="3.29364">
        <ele>648.875441</ele>
        <time>2020-03-09T00:07:29.701Z</time>
      </trkpt>
      <trkpt lat="44.55108" lon="3.29371">
        <ele>648.884262</ele>
        <time>2020-03-09T00:07:30.354Z</time>
      </trkpt>
      <trkpt lat="44.5509" lon="3.29443">
        <ele>648.959595</ele>
        <time>2020-03-09T00:07:38.980Z</time>
      </trkpt>
      <trkpt lat="44.55088" lon="3.29452">
        <ele>648.968863</ele>
        <time>2020-03-09T00:07:40.362Z</time>
      </trkpt>
      <trkpt lat="44.55083" lon="3.29459">
        <ele>648.978554</ele>
        <time>2020-03-09T00:07:42.118Z</time>
      </trkpt>
      <trkpt lat="44.55078" lon="3.29463">
        <ele>648.987146</ele>
        <time>2020-03-09T00:07:42.701Z</time>
      </trkpt>
      <trkpt lat="44.55049" lon="3.29464">
        <ele>649.027527</ele>
        <time>2020-03-09T00:07:48.830Z</time>
      </trkpt>
      <trkpt lat="44.55039" lon="3.29467">
        <ele>649.040936</ele>
        <time>2020-03-09T00:07:49.794Z</time>
      </trkpt>
      <trkpt lat="44.55032" lon="3.29464">
        <ele>649.051383</ele>
        <time>2020-03-09T00:07:51.497Z</time>
      </trkpt>
      <trkpt lat="44.55025" lon="3.29465">
        <ele>649.061682</ele>
        <time>2020-03-09T00:07:52.804Z</time>
      </trkpt>
      <trkpt lat="44.54993" lon="3.29477">
        <ele>649.107067</ele>
        <time>2020-03-09T00:07:58.141Z</time>
      </trkpt>
      <trkpt lat="44.5499" lon="3.29484">
        <ele>649.112086</ele>
        <time>2020-03-09T00:07:58.981Z</time>
      </trkpt>
      <trkpt lat="44.54987" lon="3.29493">
        <ele>649.11542</ele>
        <time>2020-03-09T00:08:00.872Z</time>
      </trkpt>
      <trkpt lat="44.54987" lon="3.29507">
        <ele>649.120314</ele>
        <time>2020-03-09T00:08:01.895Z</time>
      </trkpt>
      <trkpt lat="44.55014" lon="3.29623">
        <ele>649.161299</ele>
        <time>2020-03-09T00:08:12.675Z</time>
      </trkpt>
      <trkpt lat="44.55023" lon="3.29652">
        <ele>649.171855</ele>
        <time>2020-03-09T00:08:16.722Z</time>
      </trkpt>
      <trkpt lat="44.55041" lon="3.29711">
        <ele>649.193666</ele>
        <time>2020-03-09T00:08:25.332Z</time>
      </trkpt>
      <trkpt lat="44.55047" lon="3.29731">
        <ele>649.386609</ele>
        <time>2020-03-09T00:08:28.244Z</time>
      </trkpt>
      <trkpt lat="44.55094" lon="3.29842">
        <ele>651.013366</ele>
        <time>2020-03-09T00:08:47.425Z</time>
      </trkpt>
      <trkpt lat="44.55107" lon="3.29876">
        <ele>651.488252</ele>
        <time>2020-03-09T00:08:53.503Z</time>
      </trkpt>
      <trkpt lat="44.55113" lon="3.29905">
        <ele>651.863861</ele>
        <time>2020-03-09T00:08:58.670Z</time>
      </trkpt>
      <trkpt lat="44.55122" lon="3.29959">
        <ele>652.621919</ele>
        <time>2020-03-09T00:09:08.595Z</time>
      </trkpt>
      <trkpt lat="44.55154" lon="3.3015">
        <ele>655.760297</ele>
        <time>2020-03-09T00:09:43.769Z</time>
      </trkpt>
      <trkpt lat="44.55174" lon="3.30298">
        <ele>656.792703</ele>
        <time>2020-03-09T00:10:05.037Z</time>
      </trkpt>
      <trkpt lat="44.55177" lon="3.30332">
        <ele>656.914367</ele>
        <time>2020-03-09T00:10:08.757Z</time>
      </trkpt>
      <trkpt lat="44.55174" lon="3.3038">
        <ele>657.088572</ele>
        <time>2020-03-09T00:10:13.544Z</time>
      </trkpt>
      <trkpt lat="44.55158" lon="3.30554">
        <ele>657.356595</ele>
        <time>2020-03-09T00:10:30.926Z</time>
      </trkpt>
      <trkpt lat="44.55157" lon="3.30591">
        <ele>657.374327</ele>
        <time>2020-03-09T00:10:34.620Z</time>
      </trkpt>
      <trkpt lat="44.55161" lon="3.30615">
        <ele>657.385975</ele>
        <time>2020-03-09T00:10:37.307Z</time>
      </trkpt>
      <trkpt lat="44.55163" lon="3.30626">
        <ele>657.391549</ele>
        <time>2020-03-09T00:10:38.668Z</time>
      </trkpt>
      <trkpt lat="44.55173" lon="3.30673">
        <ele>657.414846</ele>
        <time>2020-03-09T00:10:44.423Z</time>
      </trkpt>
      <trkpt lat="44.55185" lon="3.30827">
        <ele>658.42848</ele>
        <time>2020-03-09T00:11:05.320Z</time>
      </trkpt>
      <trkpt lat="44.55195" lon="3.30976">
        <ele>659.671897</ele>
        <time>2020-03-09T00:11:25.704Z</time>
      </trkpt>
      <trkpt lat="44.55192" lon="3.31012">
        <ele>660.084825</ele>
        <time>2020-03-09T00:11:30.724Z</time>
      </trkpt>
      <trkpt lat="44.55192" lon="3.31041">
        <ele>660.415853</ele>
        <time>2020-03-09T00:11:35.370Z</time>
      </trkpt>
      <trkpt lat="44.55206" lon="3.31175">
        <ele>661.976771</ele>
        <time>2020-03-09T00:11:56.679Z</time>
      </trkpt>
      <trkpt lat="44.55207" lon="3.31223">
        <ele>662.5191</ele>
        <time>2020-03-09T00:12:04.519Z</time>
      </trkpt>
      <trkpt lat="44.55209" lon="3.3125">
        <ele>662.81426</ele>
        <time>2020-03-09T00:12:09.180Z</time>
      </trkpt>
      <trkpt lat="44.55215" lon="3.31295">
        <ele>663.318681</ele>
        <time>2020-03-09T00:12:16.186Z</time>
      </trkpt>
      <trkpt lat="44.55224" lon="3.31461">
        <ele>665.017984</ele>
        <time>2020-03-09T00:12:40.658Z</time>
      </trkpt>
      <trkpt lat="44.55217" lon="3.31659">
        <ele>665.983876</ele>
        <time>2020-03-09T00:13:03.774Z</time>
      </trkpt>
      <trkpt lat="44.55195" lon="3.31811">
        <ele>667.496758</ele>
        <time>2020-03-09T00:13:24.853Z</time>
      </trkpt>
      <trkpt lat="44.55183" lon="3.31868">
        <ele>668.156542</ele>
        <time>2020-03-09T00:13:34.299Z</time>
      </trkpt>
      <trkpt lat="44.55182" lon="3.31886">
        <ele>668.357475</ele>
        <time>2020-03-09T00:13:37.337Z</time>
      </trkpt>
      <trkpt lat="44.5514" lon="3.32047">
        <ele>670.659857</ele>
        <time>2020-03-09T00:14:07.000Z</time>
      </trkpt>
      <trkpt lat="44.55098" lon="3.32138">
        <ele>672.238395</ele>
        <time>2020-03-09T00:14:24.890Z</time>
      </trkpt>
      <trkpt lat="44.55065" lon="3.32175">
        <ele>672.826891</ele>
        <time>2020-03-09T00:14:33.608Z</time>
      </trkpt>
      <trkpt lat="44.55017" lon="3.32203">
        <ele>673.29897</ele>
        <time>2020-03-09T00:14:43.173Z</time>
      </trkpt>
      <trkpt lat="44.54978" lon="3.32239">
        <ele>673.72214</ele>
        <time>2020-03-09T00:14:51.020Z</time>
      </trkpt>
      <trkpt lat="44.54878" lon="3.32386">
        <ele>675.056855</ele>
        <time>2020-03-09T00:15:16.971Z</time>
      </trkpt>
      <trkpt lat="44.54822" lon="3.32433">
        <ele>675.65531</ele>
        <time>2020-03-09T00:15:29.618Z</time>
      </trkpt>
      <trkpt lat="44.54789" lon="3.32451">
        <ele>675.994935</ele>
        <time>2020-03-09T00:15:36.263Z</time>
      </trkpt>
      <trkpt lat="44.54778" lon="3.32465">
        <ele>676.142261</ele>
        <time>2020-03-09T00:15:38.778Z</time>
      </trkpt>
      <trkpt lat="44.54768" lon="3.32496">
        <ele>676.378159</ele>
        <time>2020-03-09T00:15:43.551Z</time>
      </trkpt>
      <trkpt lat="44.54766" lon="3.32541">
        <ele>676.691639</ele>
        <time>2020-03-09T00:15:49.428Z</time>
      </trkpt>
      <trkpt lat="44.54762" lon="3.32549">
        <ele>676.759807</ele>
        <time>2020-03-09T00:15:50.866Z</time>
      </trkpt>
      <trkpt lat="44.54763" lon="3.32559">
        <ele>676.827852</ele>
        <time>2020-03-09T00:15:52.048Z</time>
      </trkpt>
      <trkpt lat="44.54763" lon="3.32596">
        <ele>677.085432</ele>
        <time>2020-03-09T00:15:57.283Z</time>
      </trkpt>
      <trkpt lat="44.54767" lon="3.32614">
        <ele>677.219691</ele>
        <time>2020-03-09T00:15:59.873Z</time>
      </trkpt>
      <trkpt lat="44.54776" lon="3.32664">
        <ele>677.576904</ele>
        <time>2020-03-09T00:16:06.898Z</time>
      </trkpt>
      <trkpt lat="44.54779" lon="3.32736">
        <ele>678.133825</ele>
        <time>2020-03-09T00:16:15.914Z</time>
      </trkpt>
      <trkpt lat="44.54778" lon="3.32769">
        <ele>678.391521</ele>
        <time>2020-03-09T00:16:20.205Z</time>
      </trkpt>
      <trkpt lat="44.54776" lon="3.32801">
        <ele>678.644037</ele>
        <time>2020-03-09T00:16:24.159Z</time>
      </trkpt>
      <trkpt lat="44.54773" lon="3.32815">
        <ele>678.760509</ele>
        <time>2020-03-09T00:16:26.379Z</time>
      </trkpt>
      <trkpt lat="44.5477" lon="3.3284">
        <ele>678.957812</ele>
        <time>2020-03-09T00:16:29.765Z</time>
      </trkpt>
      <trkpt lat="44.54757" lon="3.32928">
        <ele>679.671417</ele>
        <time>2020-03-09T00:16:43.324Z</time>
      </trkpt>
      <trkpt lat="44.54756" lon="3.32935">
        <ele>679.738882</ele>
        <time>2020-03-09T00:16:44.434Z</time>
      </trkpt>
      <trkpt lat="44.54735" lon="3.3307">
        <ele>681.041224</ele>
        <time>2020-03-09T00:17:04.373Z</time>
      </trkpt>
      <trkpt lat="44.54735" lon="3.33077">
        <ele>681.101016</ele>
        <time>2020-03-09T00:17:05.388Z</time>
      </trkpt>
      <trkpt lat="44.54714" lon="3.33171">
        <ele>682.034292</ele>
        <time>2020-03-09T00:17:19.414Z</time>
      </trkpt>
      <trkpt lat="44.54664" lon="3.33275">
        <ele>682.635356</ele>
        <time>2020-03-09T00:17:36.177Z</time>
      </trkpt>
      <trkpt lat="44.54631" lon="3.33359">
        <ele>683.096255</ele>
        <time>2020-03-09T00:17:46.973Z</time>
      </trkpt>
      <trkpt lat="44.54621" lon="3.33385">
        <ele>683.234849</ele>
        <time>2020-03-09T00:17:50.247Z</time>
      </trkpt>
      <trkpt lat="44.54615" lon="3.33412">
        <ele>683.435715</ele>
        <time>2020-03-09T00:17:53.590Z</time>
      </trkpt>
      <trkpt lat="44.54614" lon="3.33457">
        <ele>683.760799</ele>
        <time>2020-03-09T00:17:59.044Z</time>
      </trkpt>
      <trkpt lat="44.54618" lon="3.33482">
        <ele>683.944807</ele>
        <time>2020-03-09T00:18:02.183Z</time>
      </trkpt>
      <trkpt lat="44.54621" lon="3.33495">
        <ele>684.038775</ele>
        <time>2020-03-09T00:18:03.881Z</time>
      </trkpt>
      <trkpt lat="44.54627" lon="3.33513">
        <ele>684.186023</ele>
        <time>2020-03-09T00:18:06.606Z</time>
      </trkpt>
      <trkpt lat="44.5463" lon="3.33521">
        <ele>684.254691</ele>
        <time>2020-03-09T00:18:07.747Z</time>
      </trkpt>
      <trkpt lat="44.54693" lon="3.33655">
        <ele>685.970444</ele>
        <time>2020-03-09T00:18:31.284Z</time>
      </trkpt>
      <trkpt lat="44.54735" lon="3.33752">
        <ele>688.165369</ele>
        <time>2020-03-09T00:18:52.740Z</time>
      </trkpt>
      <trkpt lat="44.54752" lon="3.338">
        <ele>689.173299</ele>
        <time>2020-03-09T00:19:03.180Z</time>
      </trkpt>
      <trkpt lat="44.54768" lon="3.33874">
        <ele>690.700283</ele>
        <time>2020-03-09T00:19:18.093Z</time>
      </trkpt>
      <trkpt lat="44.54773" lon="3.33888">
        <ele>691.023574</ele>
        <time>2020-03-09T00:19:22.154Z</time>
      </trkpt>
      <trkpt lat="44.54787" lon="3.33928">
        <ele>691.933618</ele>
        <time>2020-03-09T00:19:30.994Z</time>
      </trkpt>
      <trkpt lat="44.5482" lon="3.33992">
        <ele>693.523606</ele>
        <time>2020-03-09T00:19:45.058Z</time>
      </trkpt>
      <trkpt lat="44.54835" lon="3.34056">
        <ele>694.902991</ele>
        <time>2020-03-09T00:19:57.215Z</time>
      </trkpt>
      <trkpt lat="44.54839" lon="3.34057">
        <ele>695.007501</ele>
        <time>2020-03-09T00:19:58.895Z</time>
      </trkpt>
      <trkpt lat="44.54856" lon="3.34143">
        <ele>696.69933</ele>
        <time>2020-03-09T00:20:12.766Z</time>
      </trkpt>
      <trkpt lat="44.54862" lon="3.3422">
        <ele>698.173005</ele>
        <time>2020-03-09T00:20:26.824Z</time>
      </trkpt>
      <trkpt lat="44.54862" lon="3.34227">
        <ele>698.298719</ele>
        <time>2020-03-09T00:20:28.341Z</time>
      </trkpt>
      <trkpt lat="44.54852" lon="3.34353">
        <ele>701.254602</ele>
        <time>2020-03-09T00:20:52.870Z</time>
      </trkpt>
      <trkpt lat="44.54853" lon="3.34375">
        <ele>701.936192</ele>
        <time>2020-03-09T00:20:56.730Z</time>
      </trkpt>
      <trkpt lat="44.54853" lon="3.34383">
        <ele>702.195147</ele>
        <time>2020-03-09T00:20:59.707Z</time>
      </trkpt>
      <trkpt lat="44.54861" lon="3.34427">
        <ele>703.599157</ele>
        <time>2020-03-09T00:21:08.587Z</time>
      </trkpt>
      <trkpt lat="44.54857" lon="3.34444">
        <ele>704.156605</ele>
        <time>2020-03-09T00:21:13.568Z</time>
      </trkpt>
      <trkpt lat="44.54854" lon="3.34459">
        <ele>704.637054</ele>
        <time>2020-03-09T00:21:17.021Z</time>
      </trkpt>
      <trkpt lat="44.5481" lon="3.3455">
        <ele>708.235224</ele>
        <time>2020-03-09T00:21:45.225Z</time>
      </trkpt>
      <trkpt lat="44.5478" lon="3.34587">
        <ele>710.990756</ele>
        <time>2020-03-09T00:21:59.986Z</time>
      </trkpt>
      <trkpt lat="44.54775" lon="3.34588">
        <ele>711.332486</ele>
        <time>2020-03-09T00:22:02.095Z</time>
      </trkpt>
      <trkpt lat="44.54765" lon="3.34584">
        <ele>712.038632</ele>
        <time>2020-03-09T00:22:05.542Z</time>
      </trkpt>
      <trkpt lat="44.54757" lon="3.34577">
        <ele>712.655427</ele>
        <time>2020-03-09T00:22:08.329Z</time>
      </trkpt>
      <trkpt lat="44.54739" lon="3.34558">
        <ele>714.226581</ele>
        <time>2020-03-09T00:22:15.981Z</time>
      </trkpt>
      <trkpt lat="44.54732" lon="3.34541">
        <ele>715.178541</ele>
        <time>2020-03-09T00:22:21.281Z</time>
      </trkpt>
      <trkpt lat="44.54731" lon="3.34524">
        <ele>715.991811</ele>
        <time>2020-03-09T00:22:26.369Z</time>
      </trkpt>
      <trkpt lat="44.54747" lon="3.34485">
        <ele>718.165217</ele>
        <time>2020-03-09T00:22:42.988Z</time>
      </trkpt>
      <trkpt lat="44.54747" lon="3.34474">
        <ele>718.700939</ele>
        <time>2020-03-09T00:22:47.050Z</time>
      </trkpt>
      <trkpt lat="44.54691" lon="3.34386">
        <ele>727.494367</ele>
        <time>2020-03-09T00:23:35.129Z</time>
      </trkpt>
      <trkpt lat="44.54681" lon="3.3438">
        <ele>728.714721</ele>
        <time>2020-03-09T00:23:40.926Z</time>
      </trkpt>
      <trkpt lat="44.54674" lon="3.34379">
        <ele>729.483688</ele>
        <time>2020-03-09T00:23:44.325Z</time>
      </trkpt>
      <trkpt lat="44.54669" lon="3.34383">
        <ele>730.151318</ele>
        <time>2020-03-09T00:23:47.383Z</time>
      </trkpt>
      <trkpt lat="44.54665" lon="3.34386">
        <ele>730.65546</ele>
        <time>2020-03-09T00:23:52.133Z</time>
      </trkpt>
      <trkpt lat="44.54657" lon="3.34402">
        <ele>732.291909</ele>
        <time>2020-03-09T00:23:59.430Z</time>
      </trkpt>
      <trkpt lat="44.54636" lon="3.34488">
        <ele>739.58831</ele>
        <time>2020-03-09T00:24:41.275Z</time>
      </trkpt>
      <trkpt lat="44.54627" lon="3.34514">
        <ele>742.017869</ele>
        <time>2020-03-09T00:24:54.450Z</time>
      </trkpt>
      <trkpt lat="44.54605" lon="3.34548">
        <ele>745.921417</ele>
        <time>2020-03-09T00:25:17.632Z</time>
      </trkpt>
      <trkpt lat="44.54591" lon="3.34607">
        <ele>751.201667</ele>
        <time>2020-03-09T00:25:47.931Z</time>
      </trkpt>
      <trkpt lat="44.54546" lon="3.34707">
        <ele>761.270179</ele>
        <time>2020-03-09T00:26:36.865Z</time>
      </trkpt>
      <trkpt lat="44.54543" lon="3.34726">
        <ele>762.87791</ele>
        <time>2020-03-09T00:26:45.321Z</time>
      </trkpt>
      <trkpt lat="44.54546" lon="3.3475">
        <ele>764.741483</ele>
        <time>2020-03-09T00:26:53.877Z</time>
      </trkpt>
      <trkpt lat="44.5455" lon="3.34767">
        <ele>766.184716</ele>
        <time>2020-03-09T00:27:01.669Z</time>
      </trkpt>
      <trkpt lat="44.54562" lon="3.34777">
        <ele>767.627312</ele>
        <time>2020-03-09T00:27:09.285Z</time>
      </trkpt>
      <trkpt lat="44.54592" lon="3.34789">
        <ele>771.099006</ele>
        <time>2020-03-09T00:27:28.229Z</time>
      </trkpt>
      <trkpt lat="44.54664" lon="3.34888">
        <ele>782.043299</ele>
        <time>2020-03-09T00:28:28.677Z</time>
      </trkpt>
      <trkpt lat="44.54696" lon="3.34922">
        <ele>786.236688</ele>
        <time>2020-03-09T00:28:51.340Z</time>
      </trkpt>
      <trkpt lat="44.54737" lon="3.34964">
        <ele>791.554945</ele>
        <time>2020-03-09T00:29:19.889Z</time>
      </trkpt>
      <trkpt lat="44.54784" lon="3.3499">
        <ele>796.779823</ele>
        <time>2020-03-09T00:29:48.292Z</time>
      </trkpt>
      <trkpt lat="44.54798" lon="3.35007">
        <ele>798.743814</ele>
        <time>2020-03-09T00:29:59.743Z</time>
      </trkpt>
      <trkpt lat="44.54874" lon="3.35127">
        <ele>810.208202</ele>
        <time>2020-03-09T00:30:59.781Z</time>
      </trkpt>
      <trkpt lat="44.54885" lon="3.35161">
        <ele>812.905409</ele>
        <time>2020-03-09T00:31:15.081Z</time>
      </trkpt>
      <trkpt lat="44.5489" lon="3.3518">
        <ele>814.354371</ele>
        <time>2020-03-09T00:31:23.789Z</time>
      </trkpt>
      <trkpt lat="44.54888" lon="3.35201">
        <ele>815.83458</ele>
        <time>2020-03-09T00:31:32.219Z</time>
      </trkpt>
      <trkpt lat="44.54852" lon="3.35275">
        <ele>821.936131</ele>
        <time>2020-03-09T00:32:08.492Z</time>
      </trkpt>
      <trkpt lat="44.54845" lon="3.35302">
        <ele>823.779616</ele>
        <time>2020-03-09T00:32:18.954Z</time>
      </trkpt>
      <trkpt lat="44.54839" lon="3.35361">
        <ele>827.694795</ele>
        <time>2020-03-09T00:32:41.448Z</time>
      </trkpt>
      <trkpt lat="44.5484" lon="3.35411">
        <ele>830.942542</ele>
        <time>2020-03-09T00:32:58.927Z</time>
      </trkpt>
      <trkpt lat="44.54834" lon="3.3549">
        <ele>835.740727</ele>
        <time>2020-03-09T00:33:25.736Z</time>
      </trkpt>
      <trkpt lat="44.54819" lon="3.35578">
        <ele>840.24253</ele>
        <time>2020-03-09T00:33:54.833Z</time>
      </trkpt>
      <trkpt lat="44.54801" lon="3.35725">
        <ele>847.67477</ele>
        <time>2020-03-09T00:34:36.364Z</time>
      </trkpt>
      <trkpt lat="44.54773" lon="3.35884">
        <ele>855.954611</ele>
        <time>2020-03-09T00:35:27.205Z</time>
      </trkpt>
      <trkpt lat="44.54773" lon="3.35963">
        <ele>859.96658</ele>
        <time>2020-03-09T00:35:52.216Z</time>
      </trkpt>
      <trkpt lat="44.54771" lon="3.35992">
        <ele>861.697893</ele>
        <time>2020-03-09T00:36:01.395Z</time>
      </trkpt>
      <trkpt lat="44.54765" lon="3.36017">
        <ele>863.220789</ele>
        <time>2020-03-09T00:36:10.016Z</time>
      </trkpt>
      <trkpt lat="44.54747" lon="3.36065">
        <ele>866.485814</ele>
        <time>2020-03-09T00:36:28.264Z</time>
      </trkpt>
      <trkpt lat="44.54742" lon="3.36102">
        <ele>868.689022</ele>
        <time>2020-03-09T00:36:40.819Z</time>
      </trkpt>
      <trkpt lat="44.54764" lon="3.36197">
        <ele>874.605002</ele>
        <time>2020-03-09T00:37:17.046Z</time>
      </trkpt>
      <trkpt lat="44.54771" lon="3.36298">
        <ele>881.778028</ele>
        <time>2020-03-09T00:37:54.402Z</time>
      </trkpt>
      <trkpt lat="44.54768" lon="3.36377">
        <ele>887.384033</ele>
        <time>2020-03-09T00:38:25.713Z</time>
      </trkpt>
      <trkpt lat="44.54759" lon="3.36427">
        <ele>891.109059</ele>
        <time>2020-03-09T00:38:47.299Z</time>
      </trkpt>
      <trkpt lat="44.54677" lon="3.36602">
        <ele>906.841549</ele>
        <time>2020-03-09T00:40:14.555Z</time>
      </trkpt>
      <trkpt lat="44.54611" lon="3.36719">
        <ele>917.217678</ele>
        <time>2020-03-09T00:41:13.373Z</time>
      </trkpt>
      <trkpt lat="44.54586" lon="3.36751">
        <ele>920.21326</ele>
        <time>2020-03-09T00:41:30.235Z</time>
      </trkpt>
      <trkpt lat="44.54522" lon="3.36814">
        <ele>927.252726</ele>
        <time>2020-03-09T00:42:10.061Z</time>
      </trkpt>
      <trkpt lat="44.54445" lon="3.3691">
        <ele>933.276585</ele>
        <time>2020-03-09T00:42:52.673Z</time>
      </trkpt>
      <trkpt lat="44.54442" lon="3.36913">
        <ele>933.463703</ele>
        <time>2020-03-09T00:42:55.292Z</time>
      </trkpt>
      <trkpt lat="44.54435" lon="3.36923">
        <ele>934.023669</ele>
        <time>2020-03-09T00:42:58.577Z</time>
      </trkpt>
      <trkpt lat="44.54412" lon="3.36958">
        <ele>935.894464</ele>
        <time>2020-03-09T00:43:09.627Z</time>
      </trkpt>
      <trkpt lat="44.54399" lon="3.36982">
        <ele>937.102816</ele>
        <time>2020-03-09T00:43:15.087Z</time>
      </trkpt>
      <trkpt lat="44.54381" lon="3.37006">
        <ele>938.076538</ele>
        <time>2020-03-09T00:43:22.049Z</time>
      </trkpt>
      <trkpt lat="44.54328" lon="3.37047">
        <ele>938.579343</ele>
        <time>2020-03-09T00:43:35.863Z</time>
      </trkpt>
      <trkpt lat="44.5426" lon="3.37068">
        <ele>939.15582</ele>
        <time>2020-03-09T00:43:45.366Z</time>
      </trkpt>
      <trkpt lat="44.54219" lon="3.3708">
        <ele>939.508539</ele>
        <time>2020-03-09T00:43:50.869Z</time>
      </trkpt>
      <trkpt lat="44.54213" lon="3.37082">
        <ele>939.593572</ele>
        <time>2020-03-09T00:43:51.612Z</time>
      </trkpt>
      <trkpt lat="44.54202" lon="3.37084">
        <ele>939.75192</ele>
        <time>2020-03-09T00:43:53.114Z</time>
      </trkpt>
      <trkpt lat="44.54188" lon="3.37087">
        <ele>939.966476</ele>
        <time>2020-03-09T00:43:55.435Z</time>
      </trkpt>
      <trkpt lat="44.54108" lon="3.37089">
        <ele>941.139733</ele>
        <time>2020-03-09T00:44:09.825Z</time>
      </trkpt>
      <trkpt lat="44.54035" lon="3.37078">
        <ele>942.437888</ele>
        <time>2020-03-09T00:44:28.837Z</time>
      </trkpt>
      <trkpt lat="44.5399" lon="3.37063">
        <ele>944.933263</ele>
        <time>2020-03-09T00:44:43.549Z</time>
      </trkpt>
      <trkpt lat="44.5394" lon="3.37036">
        <ele>947.864543</ele>
        <time>2020-03-09T00:45:02.764Z</time>
      </trkpt>
      <trkpt lat="44.53789" lon="3.36984">
        <ele>959.355807</ele>
        <time>2020-03-09T00:46:08.945Z</time>
      </trkpt>
      <trkpt lat="44.53744" lon="3.36983">
        <ele>963.526185</ele>
        <time>2020-03-09T00:46:33.830Z</time>
      </trkpt>
      <trkpt lat="44.5371" lon="3.36988">
        <ele>966.691183</ele>
        <time>2020-03-09T00:46:54.671Z</time>
      </trkpt>
      <trkpt lat="44.53699" lon="3.3699">
        <ele>967.738184</ele>
        <time>2020-03-09T00:46:59.949Z</time>
      </trkpt>
      <trkpt lat="44.53685" lon="3.36991">
        <ele>969.14937</ele>
        <time>2020-03-09T00:47:11.378Z</time>
      </trkpt>
      <trkpt lat="44.53653" lon="3.36994">
        <ele>973.281715</ele>
        <time>2020-03-09T00:47:30.858Z</time>
      </trkpt>
      <trkpt lat="44.53631" lon="3.37007">
        <ele>976.282604</ele>
        <time>2020-03-09T00:47:44.507Z</time>
      </trkpt>
      <trkpt lat="44.53624" lon="3.37016">
        <ele>977.440694</ele>
        <time>2020-03-09T00:47:51.276Z</time>
      </trkpt>
      <trkpt lat="44.53619" lon="3.37023">
        <ele>978.342186</ele>
        <time>2020-03-09T00:47:58.781Z</time>
      </trkpt>
      <trkpt lat="44.53591" lon="3.37082">
        <ele>984.636258</ele>
        <time>2020-03-09T00:48:30.681Z</time>
      </trkpt>
      <trkpt lat="44.53564" lon="3.37094">
        <ele>988.138094</ele>
        <time>2020-03-09T00:48:51.126Z</time>
      </trkpt>
      <trkpt lat="44.5354" lon="3.37088">
        <ele>991.218201</ele>
        <time>2020-03-09T00:49:06.181Z</time>
      </trkpt>
      <trkpt lat="44.53467" lon="3.37043">
        <ele>999.413</ele>
        <time>2020-03-09T00:49:56.600Z</time>
      </trkpt>
      <trkpt lat="44.53447" lon="3.37042">
        <ele>1001.446215</ele>
        <time>2020-03-09T00:50:07.179Z</time>
      </trkpt>
      <trkpt lat="44.53439" lon="3.37054">
        <ele>1002.604993</ele>
        <time>2020-03-09T00:50:13.174Z</time>
      </trkpt>
      <trkpt lat="44.53439" lon="3.37064">
        <ele>1003.396931</ele>
        <time>2020-03-09T00:50:17.239Z</time>
      </trkpt>
      <trkpt lat="44.53453" lon="3.37136">
        <ele>1008.823022</ele>
        <time>2020-03-09T00:50:44.135Z</time>
      </trkpt>
      <trkpt lat="44.53449" lon="3.37158">
        <ele>1009.911384</ele>
        <time>2020-03-09T00:50:52.258Z</time>
      </trkpt>
      <trkpt lat="44.53434" lon="3.37175">
        <ele>1010.599345</ele>
        <time>2020-03-09T00:51:00.983Z</time>
      </trkpt>
      <trkpt lat="44.53347" lon="3.37229">
        <ele>1013.924957</ele>
        <time>2020-03-09T00:51:34.332Z</time>
      </trkpt>
      <trkpt lat="44.53315" lon="3.37255">
        <ele>1015.194147</ele>
        <time>2020-03-09T00:51:39.773Z</time>
      </trkpt>
      <trkpt lat="44.53298" lon="3.37269">
        <ele>1015.854793</ele>
        <time>2020-03-09T00:51:42.137Z</time>
      </trkpt>
      <trkpt lat="44.53235" lon="3.37319">
        <ele>1010.435485</ele>
        <time>2020-03-09T00:51:49.092Z</time>
      </trkpt>
      <trkpt lat="44.53214" lon="3.37339">
        <ele>1008.481875</ele>
        <time>2020-03-09T00:51:51.431Z</time>
      </trkpt>
      <trkpt lat="44.53197" lon="3.3736">
        <ele>1006.808883</ele>
        <time>2020-03-09T00:51:53.343Z</time>
      </trkpt>
      <trkpt lat="44.53161" lon="3.37403">
        <ele>1003.209951</ele>
        <time>2020-03-09T00:51:57.397Z</time>
      </trkpt>
      <trkpt lat="44.5312" lon="3.37428">
        <ele>997.915356</ele>
        <time>2020-03-09T00:52:01.112Z</time>
      </trkpt>
      <trkpt lat="44.53105" lon="3.37444">
        <ele>995.352994</ele>
        <time>2020-03-09T00:52:02.688Z</time>
      </trkpt>
      <trkpt lat="44.53092" lon="3.3749">
        <ele>990.600369</ele>
        <time>2020-03-09T00:52:05.617Z</time>
      </trkpt>
      <trkpt lat="44.53095" lon="3.37536">
        <ele>986.193428</ele>
        <time>2020-03-09T00:52:08.357Z</time>
      </trkpt>
      <trkpt lat="44.53103" lon="3.37562">
        <ele>983.455839</ele>
        <time>2020-03-09T00:52:10.059Z</time>
      </trkpt>
      <trkpt lat="44.53136" lon="3.37616">
        <ele>976.834028</ele>
        <time>2020-03-09T00:52:14.336Z</time>
      </trkpt>
      <trkpt lat="44.53141" lon="3.37645">
        <ele>974.527957</ele>
        <time>2020-03-09T00:52:16.110Z</time>
      </trkpt>
      <trkpt lat="44.53145" lon="3.37722">
        <ele>968.499759</ele>
        <time>2020-03-09T00:52:20.785Z</time>
      </trkpt>
      <trkpt lat="44.53154" lon="3.37731">
        <ele>967.294781</ele>
        <time>2020-03-09T00:52:21.728Z</time>
      </trkpt>
      <trkpt lat="44.53172" lon="3.37733">
        <ele>965.217142</ele>
        <time>2020-03-09T00:52:23.353Z</time>
      </trkpt>
      <trkpt lat="44.53237" lon="3.37694">
        <ele>957.482639</ele>
        <time>2020-03-09T00:52:29.487Z</time>
      </trkpt>
      <trkpt lat="44.53254" lon="3.37698">
        <ele>955.639015</ele>
        <time>2020-03-09T00:52:30.963Z</time>
      </trkpt>
      <trkpt lat="44.53268" lon="3.37721">
        <ele>953.300043</ele>
        <time>2020-03-09T00:52:32.832Z</time>
      </trkpt>
      <trkpt lat="44.53295" lon="3.37802">
        <ele>946.406026</ele>
        <time>2020-03-09T00:52:38.298Z</time>
      </trkpt>
      <trkpt lat="44.53301" lon="3.37827">
        <ele>944.370161</ele>
        <time>2020-03-09T00:52:39.904Z</time>
      </trkpt>
      <trkpt lat="44.53301" lon="3.3785">
        <ele>942.617388</ele>
        <time>2020-03-09T00:52:41.280Z</time>
      </trkpt>
      <trkpt lat="44.53295" lon="3.37863">
        <ele>941.410623</ele>
        <time>2020-03-09T00:52:42.224Z</time>
      </trkpt>
      <trkpt lat="44.53282" lon="3.37876">
        <ele>939.708612</ele>
        <time>2020-03-09T00:52:43.558Z</time>
      </trkpt>
      <trkpt lat="44.53221" lon="3.37903">
        <ele>931.318236</ele>
        <time>2020-03-09T00:52:48.974Z</time>
      </trkpt>
      <trkpt lat="44.53141" lon="3.38002">
        <ele>917.049174</ele>
        <time>2020-03-09T00:52:57.905Z</time>
      </trkpt>
      <trkpt lat="44.53076" lon="3.38049">
        <ele>907.860709</ele>
        <time>2020-03-09T00:53:03.991Z</time>
      </trkpt>
      <trkpt lat="44.53065" lon="3.38073">
        <ele>905.328961</ele>
        <time>2020-03-09T00:53:05.700Z</time>
      </trkpt>
      <trkpt lat="44.53069" lon="3.38104">
        <ele>902.624295</ele>
        <time>2020-03-09T00:53:07.587Z</time>
      </trkpt>
      <trkpt lat="44.53069" lon="3.38111">
        <ele>901.953107</ele>
        <time>2020-03-09T00:53:08.038Z</time>
      </trkpt>
      <trkpt lat="44.53067" lon="3.38116">
        <ele>901.482003</ele>
        <time>2020-03-09T00:53:08.355Z</time>
      </trkpt>
      <trkpt lat="44.5304" lon="3.38131">
        <ele>897.914488</ele>
        <time>2020-03-09T00:53:10.843Z</time>
      </trkpt>
      <trkpt lat="44.53022" lon="3.38149">
        <ele>895.196743</ele>
        <time>2020-03-09T00:53:12.699Z</time>
      </trkpt>
      <trkpt lat="44.52981" lon="3.38243">
        <ele>886.790738</ele>
        <time>2020-03-09T00:53:19.440Z</time>
      </trkpt>
      <trkpt lat="44.52974" lon="3.38278">
        <ele>884.203859</ele>
        <time>2020-03-09T00:53:21.626Z</time>
      </trkpt>
      <trkpt lat="44.52973" lon="3.38348">
        <ele>879.190129</ele>
        <time>2020-03-09T00:53:26.010Z</time>
      </trkpt>
      <trkpt lat="44.52964" lon="3.38398">
        <ele>875.462329</ele>
        <time>2020-03-09T00:53:29.238Z</time>
      </trkpt>
      <trkpt lat="44.52941" lon="3.38487">
        <ele>868.538539</ele>
        <time>2020-03-09T00:53:35.049Z</time>
      </trkpt>
      <trkpt lat="44.52892" lon="3.38619">
        <ele>857.550399</ele>
        <time>2020-03-09T00:53:44.145Z</time>
      </trkpt>
      <trkpt lat="44.52864" lon="3.3877">
        <ele>845.492135</ele>
        <time>2020-03-09T00:53:53.632Z</time>
      </trkpt>
      <trkpt lat="44.52864" lon="3.38786">
        <ele>844.245108</ele>
        <time>2020-03-09T00:53:54.606Z</time>
      </trkpt>
      <trkpt lat="44.52873" lon="3.38809">
        <ele>842.230965</ele>
        <time>2020-03-09T00:53:56.190Z</time>
      </trkpt>
      <trkpt lat="44.52906" lon="3.3883">
        <ele>838.216246</ele>
        <time>2020-03-09T00:53:59.328Z</time>
      </trkpt>
      <trkpt lat="44.52918" lon="3.3885">
        <ele>836.211858</ele>
        <time>2020-03-09T00:54:00.896Z</time>
      </trkpt>
      <trkpt lat="44.52918" lon="3.38868">
        <ele>834.863229</ele>
        <time>2020-03-09T00:54:02.022Z</time>
      </trkpt>
      <trkpt lat="44.529" lon="3.38905">
        <ele>831.623488</ele>
        <time>2020-03-09T00:54:04.735Z</time>
      </trkpt>
      <trkpt lat="44.52897" lon="3.38924">
        <ele>830.184418</ele>
        <time>2020-03-09T00:54:05.943Z</time>
      </trkpt>
      <trkpt lat="44.52896" lon="3.38979">
        <ele>826.147774</ele>
        <time>2020-03-09T00:54:09.335Z</time>
      </trkpt>
      <trkpt lat="44.52927" lon="3.39058">
        <ele>819.537558</ele>
        <time>2020-03-09T00:54:14.917Z</time>
      </trkpt>
      <trkpt lat="44.52934" lon="3.3909">
        <ele>817.201386</ele>
        <time>2020-03-09T00:54:16.920Z</time>
      </trkpt>
      <trkpt lat="44.52924" lon="3.39182">
        <ele>810.849968</ele>
        <time>2020-03-09T00:54:22.680Z</time>
      </trkpt>
      <trkpt lat="44.52923" lon="3.39253">
        <ele>806.028788</ele>
        <time>2020-03-09T00:54:27.065Z</time>
      </trkpt>
      <trkpt lat="44.52926" lon="3.39276">
        <ele>804.422744</ele>
        <time>2020-03-09T00:54:28.524Z</time>
      </trkpt>
      <trkpt lat="44.52954" lon="3.3938">
        <ele>797.356687</ele>
        <time>2020-03-09T00:54:35.458Z</time>
      </trkpt>
      <trkpt lat="44.52955" lon="3.39407">
        <ele>795.786239</ele>
        <time>2020-03-09T00:54:37.123Z</time>
      </trkpt>
      <trkpt lat="44.52957" lon="3.39501">
        <ele>790.238742</ele>
        <time>2020-03-09T00:54:43.055Z</time>
      </trkpt>
      <trkpt lat="44.52946" lon="3.39609">
        <ele>784.088364</ele>
        <time>2020-03-09T00:54:49.958Z</time>
      </trkpt>
      <trkpt lat="44.52931" lon="3.39696">
        <ele>779.543505</ele>
        <time>2020-03-09T00:54:55.671Z</time>
      </trkpt>
      <trkpt lat="44.52908" lon="3.39766">
        <ele>775.676062</ele>
        <time>2020-03-09T00:55:00.657Z</time>
      </trkpt>
      <trkpt lat="44.52903" lon="3.3978">
        <ele>774.848533</ele>
        <time>2020-03-09T00:55:01.704Z</time>
      </trkpt>
      <trkpt lat="44.529" lon="3.39791">
        <ele>774.248104</ele>
        <time>2020-03-09T00:55:02.413Z</time>
      </trkpt>
      <trkpt lat="44.52889" lon="3.39817">
        <ele>772.789763</ele>
        <time>2020-03-09T00:55:04.419Z</time>
      </trkpt>
      <trkpt lat="44.52849" lon="3.39883">
        <ele>769.008409</ele>
        <time>2020-03-09T00:55:10.031Z</time>
      </trkpt>
      <trkpt lat="44.52827" lon="3.39934">
        <ele>766.436715</ele>
        <time>2020-03-09T00:55:13.917Z</time>
      </trkpt>
      <trkpt lat="44.52821" lon="3.39945">
        <ele>765.829218</ele>
        <time>2020-03-09T00:55:14.821Z</time>
      </trkpt>
      <trkpt lat="44.52814" lon="3.39952">
        <ele>765.278568</ele>
        <time>2020-03-09T00:55:15.587Z</time>
      </trkpt>
      <trkpt lat="44.52777" lon="3.3996">
        <ele>762.98277</ele>
        <time>2020-03-09T00:55:19.209Z</time>
      </trkpt>
      <trkpt lat="44.5272" lon="3.39985">
        <ele>759.785083</ele>
        <time>2020-03-09T00:55:24.862Z</time>
      </trkpt>
      <trkpt lat="44.52607" lon="3.40094">
        <ele>752.688505</ele>
        <time>2020-03-09T00:55:37.738Z</time>
      </trkpt>
      <trkpt lat="44.52366" lon="3.40447">
        <ele>733.396733</ele>
        <time>2020-03-09T00:56:09.972Z</time>
      </trkpt>
      <trkpt lat="44.5234" lon="3.40489">
        <ele>731.945457</ele>
        <time>2020-03-09T00:56:13.885Z</time>
      </trkpt>
      <trkpt lat="44.52329" lon="3.40506">
        <ele>731.460244</ele>
        <time>2020-03-09T00:56:15.557Z</time>
      </trkpt>
      <trkpt lat="44.52317" lon="3.40525">
        <ele>730.923056</ele>
        <time>2020-03-09T00:56:17.384Z</time>
      </trkpt>
      <trkpt lat="44.52278" lon="3.40587">
        <ele>729.186661</ele>
        <time>2020-03-09T00:56:23.566Z</time>
      </trkpt>
      <trkpt lat="44.52198" lon="3.40726">
        <ele>725.44722</ele>
        <time>2020-03-09T00:56:37.469Z</time>
      </trkpt>
      <trkpt lat="44.52126" lon="3.40895">
        <ele>721.029078</ele>
        <time>2020-03-09T00:56:51.673Z</time>
      </trkpt>
      <trkpt lat="44.52103" lon="3.40934">
        <ele>719.597211</ele>
        <time>2020-03-09T00:56:55.171Z</time>
      </trkpt>
      <trkpt lat="44.52033" lon="3.41008">
        <ele>716.115209</ele>
        <time>2020-03-09T00:57:03.650Z</time>
      </trkpt>
      <trkpt lat="44.51983" lon="3.41088">
        <ele>713.307564</ele>
        <time>2020-03-09T00:57:11.044Z</time>
      </trkpt>
      <trkpt lat="44.51902" lon="3.4122">
        <ele>708.874496</ele>
        <time>2020-03-09T00:57:23.583Z</time>
      </trkpt>
      <trkpt lat="44.51814" lon="3.41338">
        <ele>704.429091</ele>
        <time>2020-03-09T00:57:35.951Z</time>
      </trkpt>
      <trkpt lat="44.51767" lon="3.4139">
        <ele>702.234688</ele>
        <time>2020-03-09T00:57:41.713Z</time>
      </trkpt>
      <trkpt lat="44.51728" lon="3.41417">
        <ele>700.536572</ele>
        <time>2020-03-09T00:57:45.858Z</time>
      </trkpt>
      <trkpt lat="44.51705" lon="3.41436">
        <ele>699.48777</ele>
        <time>2020-03-09T00:57:48.423Z</time>
      </trkpt>
      <trkpt lat="44.51692" lon="3.41451">
        <ele>698.831694</ele>
        <time>2020-03-09T00:57:49.959Z</time>
      </trkpt>
      <trkpt lat="44.51603" lon="3.41539">
        <ele>695.059316</ele>
        <time>2020-03-09T00:58:00.768Z</time>
      </trkpt>
      <trkpt lat="44.51598" lon="3.41554">
        <ele>695.093683</ele>
        <time>2020-03-09T00:58:02.089Z</time>
      </trkpt>
      <trkpt lat="44.51598" lon="3.41575">
        <ele>695.140026</ele>
        <time>2020-03-09T00:58:03.744Z</time>
      </trkpt>
      <trkpt lat="44.51617" lon="3.41624">
        <ele>695.258026</ele>
        <time>2020-03-09T00:58:09.742Z</time>
      </trkpt>
      <trkpt lat="44.51622" lon="3.41637">
        <ele>695.288907</ele>
        <time>2020-03-09T00:58:12.438Z</time>
      </trkpt>
      <trkpt lat="44.51631" lon="3.41649">
        <ele>695.325776</ele>
        <time>2020-03-09T00:58:14.452Z</time>
      </trkpt>
      <trkpt lat="44.51639" lon="3.41666">
        <ele>695.367846</ele>
        <time>2020-03-09T00:58:17.314Z</time>
      </trkpt>
      <trkpt lat="44.51644" lon="3.41669">
        <ele>695.384589</ele>
        <time>2020-03-09T00:58:19.275Z</time>
      </trkpt>
      <trkpt lat="44.51722" lon="3.4173">
        <ele>696.228806</ele>
        <time>2020-03-09T00:58:39.071Z</time>
      </trkpt>
      <trkpt lat="44.51744" lon="3.41741">
        <ele>696.721424</ele>
        <time>2020-03-09T00:58:45.600Z</time>
      </trkpt>
      <trkpt lat="44.51758" lon="3.41748">
        <ele>697.046672</ele>
        <time>2020-03-09T00:58:48.870Z</time>
      </trkpt>
      <trkpt lat="44.51817" lon="3.41767">
        <ele>698.368007</ele>
        <time>2020-03-09T00:59:03.799Z</time>
      </trkpt>
      <trkpt lat="44.51848" lon="3.41784">
        <ele>699.09149</ele>
        <time>2020-03-09T00:59:11.574Z</time>
      </trkpt>
      <trkpt lat="44.51865" lon="3.41799">
        <ele>699.52889</ele>
        <time>2020-03-09T00:59:15.724Z</time>
      </trkpt>
      <trkpt lat="44.51887" lon="3.41815">
        <ele>700.021162</ele>
        <time>2020-03-09T00:59:21.305Z</time>
      </trkpt>
      <trkpt lat="44.51919" lon="3.41844">
        <ele>700.778919</ele>
        <time>2020-03-09T00:59:28.837Z</time>
      </trkpt>
      <trkpt lat="44.51948" lon="3.41859">
        <ele>701.39393</ele>
        <time>2020-03-09T00:59:35.284Z</time>
      </trkpt>
      <trkpt lat="44.5197" lon="3.41869">
        <ele>701.854885</ele>
        <time>2020-03-09T00:59:40.406Z</time>
      </trkpt>
      <trkpt lat="44.52001" lon="3.419">
        <ele>702.63325</ele>
        <time>2020-03-09T00:59:50.289Z</time>
      </trkpt>
      <trkpt lat="44.52049" lon="3.41926">
        <ele>703.853868</ele>
        <time>2020-03-09T01:00:03.006Z</time>
      </trkpt>
      <trkpt lat="44.52102" lon="3.41944">
        <ele>705.362567</ele>
        <time>2020-03-09T01:00:17.433Z</time>
      </trkpt>
      <trkpt lat="44.52122" lon="3.41959">
        <ele>705.98637</ele>
        <time>2020-03-09T01:00:23.012Z</time>
      </trkpt>
      <trkpt lat="44.52133" lon="3.4197">
        <ele>706.340057</ele>
        <time>2020-03-09T01:00:26.583Z</time>
      </trkpt>
      <trkpt lat="44.52181" lon="3.42029">
        <ele>708.084933</ele>
        <time>2020-03-09T01:00:43.228Z</time>
      </trkpt>
      <trkpt lat="44.52214" lon="3.42066">
        <ele>709.096683</ele>
        <time>2020-03-09T01:00:54.172Z</time>
      </trkpt>
      <trkpt lat="44.52252" lon="3.42109">
        <ele>710.279947</ele>
        <time>2020-03-09T01:01:06.657Z</time>
      </trkpt>
      <trkpt lat="44.52275" lon="3.42143">
        <ele>711.085251</ele>
        <time>2020-03-09T01:01:14.324Z</time>
      </trkpt>
      <trkpt lat="44.52351" lon="3.42279">
        <ele>713.907294</ele>
        <time>2020-03-09T01:01:43.248Z</time>
      </trkpt>
      <trkpt lat="44.52359" lon="3.42292">
        <ele>714.167021</ele>
        <time>2020-03-09T01:01:45.907Z</time>
      </trkpt>
      <trkpt lat="44.524" lon="3.42364">
        <ele>715.602399</ele>
        <time>2020-03-09T01:02:00.323Z</time>
      </trkpt>
      <trkpt lat="44.52501" lon="3.42535">
        <ele>720.014034</ele>
        <time>2020-03-09T01:02:41.939Z</time>
      </trkpt>
      <trkpt lat="44.52511" lon="3.42553">
        <ele>720.496851</ele>
        <time>2020-03-09T01:02:46.569Z</time>
      </trkpt>
      <trkpt lat="44.52524" lon="3.42574">
        <ele>721.066696</ele>
        <time>2020-03-09T01:02:51.794Z</time>
      </trkpt>
      <trkpt lat="44.52588" lon="3.42687">
        <ele>725.582259</ele>
        <time>2020-03-09T01:03:21.296Z</time>
      </trkpt>
      <trkpt lat="44.52649" lon="3.42756">
        <ele>729.260936</ele>
        <time>2020-03-09T01:03:48.338Z</time>
      </trkpt>
      <trkpt lat="44.5269" lon="3.42806">
        <ele>733.789129</ele>
        <time>2020-03-09T01:04:12.463Z</time>
      </trkpt>
      <trkpt lat="44.52711" lon="3.42844">
        <ele>737.149013</ele>
        <time>2020-03-09T01:04:30.651Z</time>
      </trkpt>
      <trkpt lat="44.52723" lon="3.4288">
        <ele>739.860417</ele>
        <time>2020-03-09T01:04:46.132Z</time>
      </trkpt>
      <trkpt lat="44.52728" lon="3.42905">
        <ele>741.679234</ele>
        <time>2020-03-09T01:04:57.248Z</time>
      </trkpt>
      <trkpt lat="44.52752" lon="3.43028">
        <ele>750.514339</ele>
        <time>2020-03-09T01:05:54.526Z</time>
      </trkpt>
      <trkpt lat="44.52789" lon="3.43209">
        <ele>763.354424</ele>
        <time>2020-03-09T01:07:09.671Z</time>
      </trkpt>
      <trkpt lat="44.52832" lon="3.43458">
        <ele>772.368025</ele>
        <time>2020-03-09T01:08:04.806Z</time>
      </trkpt>
      <trkpt lat="44.52842" lon="3.43589">
        <ele>777.374202</ele>
        <time>2020-03-09T01:08:36.336Z</time>
      </trkpt>
      <trkpt lat="44.52844" lon="3.4361">
        <ele>778.197902</ele>
        <time>2020-03-09T01:08:40.810Z</time>
      </trkpt>
      <trkpt lat="44.52845" lon="3.43622">
        <ele>778.697346</ele>
        <time>2020-03-09T01:08:44.095Z</time>
      </trkpt>
      <trkpt lat="44.52845" lon="3.43631">
        <ele>779.048236</ele>
        <time>2020-03-09T01:08:47.051Z</time>
      </trkpt>
      <trkpt lat="44.52849" lon="3.43684">
        <ele>781.086886</ele>
        <time>2020-03-09T01:09:01.288Z</time>
      </trkpt>
      <trkpt lat="44.52874" lon="3.43926">
        <ele>793.511588</ele>
        <time>2020-03-09T01:10:20.094Z</time>
      </trkpt>
      <trkpt lat="44.529" lon="3.43975">
        <ele>796.70366</ele>
        <time>2020-03-09T01:10:39.349Z</time>
      </trkpt>
      <trkpt lat="44.52918" lon="3.43999">
        <ele>798.343501</ele>
        <time>2020-03-09T01:10:50.981Z</time>
      </trkpt>
      <trkpt lat="44.52988" lon="3.44073">
        <ele>804.13021</ele>
        <time>2020-03-09T01:11:30.183Z</time>
      </trkpt>
      <trkpt lat="44.53006" lon="3.44085">
        <ele>805.482251</ele>
        <time>2020-03-09T01:11:37.235Z</time>
      </trkpt>
      <trkpt lat="44.53028" lon="3.44091">
        <ele>806.941843</ele>
        <time>2020-03-09T01:11:45.972Z</time>
      </trkpt>
      <trkpt lat="44.53051" lon="3.44096">
        <ele>808.24053</ele>
        <time>2020-03-09T01:11:53.802Z</time>
      </trkpt>
      <trkpt lat="44.53064" lon="3.44105">
        <ele>808.649971</ele>
        <time>2020-03-09T01:11:58.714Z</time>
      </trkpt>
      <trkpt lat="44.5307" lon="3.44119">
        <ele>808.980054</ele>
        <time>2020-03-09T01:12:01.724Z</time>
      </trkpt>
      <trkpt lat="44.53068" lon="3.44133">
        <ele>809.279846</ele>
        <time>2020-03-09T01:12:05.603Z</time>
      </trkpt>
      <trkpt lat="44.53055" lon="3.44143">
        <ele>809.710412</ele>
        <time>2020-03-09T01:12:10.241Z</time>
      </trkpt>
      <trkpt lat="44.53006" lon="3.4411">
        <ele>811.254062</ele>
        <time>2020-03-09T01:12:24.926Z</time>
      </trkpt>
      <trkpt lat="44.52938" lon="3.44076">
        <ele>813.308383</ele>
        <time>2020-03-09T01:12:38.170Z</time>
      </trkpt>
      <trkpt lat="44.52908" lon="3.44067">
        <ele>814.323844</ele>
        <time>2020-03-09T01:12:43.552Z</time>
      </trkpt>
      <trkpt lat="44.52893" lon="3.44069">
        <ele>814.824289</ele>
        <time>2020-03-09T01:12:46.547Z</time>
      </trkpt>
      <trkpt lat="44.52873" lon="3.44086">
        <ele>815.579652</ele>
        <time>2020-03-09T01:12:51.843Z</time>
      </trkpt>
      <trkpt lat="44.52816" lon="3.44174">
        <ele>818.337223</ele>
        <time>2020-03-09T01:13:16.717Z</time>
      </trkpt>
      <trkpt lat="44.52744" lon="3.44344">
        <ele>828.450148</ele>
        <time>2020-03-09T01:14:17.548Z</time>
      </trkpt>
      <trkpt lat="44.52715" lon="3.4443">
        <ele>834.016</ele>
        <time>2020-03-09T01:14:54.435Z</time>
      </trkpt>
      <trkpt lat="44.52712" lon="3.44458">
        <ele>836.145746</ele>
        <time>2020-03-09T01:15:05.778Z</time>
      </trkpt>
      <trkpt lat="44.52716" lon="3.44495">
        <ele>838.958724</ele>
        <time>2020-03-09T01:15:20.937Z</time>
      </trkpt>
      <trkpt lat="44.52724" lon="3.44524">
        <ele>841.313882</ele>
        <time>2020-03-09T01:15:33.774Z</time>
      </trkpt>
      <trkpt lat="44.52803" lon="3.44671">
        <ele>855.085394</ele>
        <time>2020-03-09T01:16:50.673Z</time>
      </trkpt>
      <trkpt lat="44.52822" lon="3.44715">
        <ele>858.836302</ele>
        <time>2020-03-09T01:17:11.489Z</time>
      </trkpt>
      <trkpt lat="44.52834" lon="3.44757">
        <ele>862.164858</ele>
        <time>2020-03-09T01:17:29.843Z</time>
      </trkpt>
      <trkpt lat="44.52845" lon="3.4481">
        <ele>866.185023</ele>
        <time>2020-03-09T01:17:51.851Z</time>
      </trkpt>
      <trkpt lat="44.5285" lon="3.44909">
        <ele>873.006118</ele>
        <time>2020-03-09T01:18:29.527Z</time>
      </trkpt>
      <trkpt lat="44.52851" lon="3.45012">
        <ele>879.359234</ele>
        <time>2020-03-09T01:19:06.548Z</time>
      </trkpt>
      <trkpt lat="44.52853" lon="3.451">
        <ele>884.76186</ele>
        <time>2020-03-09T01:19:36.489Z</time>
      </trkpt>
      <trkpt lat="44.52856" lon="3.45233">
        <ele>890.712292</ele>
        <time>2020-03-09T01:20:19.117Z</time>
      </trkpt>
      <trkpt lat="44.52859" lon="3.45411">
        <ele>896.484145</ele>
        <time>2020-03-09T01:21:03.509Z</time>
      </trkpt>
      <trkpt lat="44.52865" lon="3.45583">
        <ele>895.993174</ele>
        <time>2020-03-09T01:21:20.440Z</time>
      </trkpt>
      <trkpt lat="44.52866" lon="3.45607">
        <ele>895.926191</ele>
        <time>2020-03-09T01:21:22.061Z</time>
      </trkpt>
      <trkpt lat="44.5287" lon="3.45919">
        <ele>884.304223</ele>
        <time>2020-03-09T01:21:42.480Z</time>
      </trkpt>
      <trkpt lat="44.52868" lon="3.45985">
        <ele>882.212435</ele>
        <time>2020-03-09T01:21:46.927Z</time>
      </trkpt>
      <trkpt lat="44.52853" lon="3.46148">
        <ele>877.247339</ele>
        <time>2020-03-09T01:21:58.570Z</time>
      </trkpt>
      <trkpt lat="44.52851" lon="3.46189">
        <ele>876.387488</ele>
        <time>2020-03-09T01:22:01.648Z</time>
      </trkpt>
      <trkpt lat="44.52852" lon="3.46228">
        <ele>875.576725</ele>
        <time>2020-03-09T01:22:04.593Z</time>
      </trkpt>
      <trkpt lat="44.52859" lon="3.46269">
        <ele>874.716833</ele>
        <time>2020-03-09T01:22:07.731Z</time>
      </trkpt>
      <trkpt lat="44.52894" lon="3.46425">
        <ele>870.899062</ele>
        <time>2020-03-09T01:22:19.942Z</time>
      </trkpt>
      <trkpt lat="44.5292" lon="3.46533">
        <ele>867.642276</ele>
        <time>2020-03-09T01:22:27.790Z</time>
      </trkpt>
      <trkpt lat="44.52936" lon="3.46597">
        <ele>865.70445</ele>
        <time>2020-03-09T01:22:32.308Z</time>
      </trkpt>
      <trkpt lat="44.52945" lon="3.46658">
        <ele>864.899518</ele>
        <time>2020-03-09T01:22:36.567Z</time>
      </trkpt>
      <trkpt lat="44.52946" lon="3.46706">
        <ele>864.575952</ele>
        <time>2020-03-09T01:22:40.326Z</time>
      </trkpt>
      <trkpt lat="44.52956" lon="3.46744">
        <ele>864.296756</ele>
        <time>2020-03-09T01:22:43.914Z</time>
      </trkpt>
      <trkpt lat="44.52971" lon="3.46767">
        <ele>864.088618</ele>
        <time>2020-03-09T01:22:46.835Z</time>
      </trkpt>
      <trkpt lat="44.52979" lon="3.4678">
        <ele>863.974937</ele>
        <time>2020-03-09T01:22:48.388Z</time>
      </trkpt>
      <trkpt lat="44.52983" lon="3.46788">
        <ele>863.909244</ele>
        <time>2020-03-09T01:22:50.154Z</time>
      </trkpt>
      <trkpt lat="44.52985" lon="3.46794">
        <ele>863.860687</ele>
        <time>2020-03-09T01:22:50.845Z</time>
      </trkpt>
      <trkpt lat="44.52987" lon="3.46802">
        <ele>863.808966</ele>
        <time>2020-03-09T01:22:52.329Z</time>
      </trkpt>
      <trkpt lat="44.52991" lon="3.46807">
        <ele>863.752956</ele>
        <time>2020-03-09T01:22:53.078Z</time>
      </trkpt>
      <trkpt lat="44.53005" lon="3.46807">
        <ele>863.618896</ele>
        <time>2020-03-09T01:22:55.667Z</time>
      </trkpt>
      <trkpt lat="44.53008" lon="3.46804">
        <ele>863.586467</ele>
        <time>2020-03-09T01:22:56.927Z</time>
      </trkpt>
      <trkpt lat="44.5301" lon="3.46797">
        <ele>863.535015</ele>
        <time>2020-03-09T01:22:58.062Z</time>
      </trkpt>
      <trkpt lat="44.53011" lon="3.46789">
        <ele>863.561419</ele>
        <time>2020-03-09T01:22:59.704Z</time>
      </trkpt>
      <trkpt lat="44.5301" lon="3.46784">
        <ele>863.737456</ele>
        <time>2020-03-09T01:23:00.520Z</time>
      </trkpt>
      <trkpt lat="44.53006" lon="3.46778">
        <ele>863.987665</ele>
        <time>2020-03-09T01:23:01.368Z</time>
      </trkpt>
      <trkpt lat="44.53003" lon="3.46774">
        <ele>864.20782</ele>
        <time>2020-03-09T01:23:02.291Z</time>
      </trkpt>
      <trkpt lat="44.5301" lon="3.46758">
        <ele>864.859402</ele>
        <time>2020-03-09T01:23:06.389Z</time>
      </trkpt>
      <trkpt lat="44.5302" lon="3.46757">
        <ele>865.337919</ele>
        <time>2020-03-09T01:23:09.555Z</time>
      </trkpt>
      <trkpt lat="44.53029" lon="3.46758">
        <ele>865.78895</ele>
        <time>2020-03-09T01:23:11.999Z</time>
      </trkpt>
      <trkpt lat="44.53047" lon="3.46769">
        <ele>866.698534</ele>
        <time>2020-03-09T01:23:18.525Z</time>
      </trkpt>
      <trkpt lat="44.53058" lon="3.46781">
        <ele>867.401992</ele>
        <time>2020-03-09T01:23:23.345Z</time>
      </trkpt>
      <trkpt lat="44.53069" lon="3.46794">
        <ele>868.078274</ele>
        <time>2020-03-09T01:23:28.309Z</time>
      </trkpt>
      <trkpt lat="44.53093" lon="3.46824">
        <ele>869.632759</ele>
        <time>2020-03-09T01:23:41.958Z</time>
      </trkpt>
      <trkpt lat="44.53111" lon="3.46835">
        <ele>870.583114</ele>
        <time>2020-03-09T01:23:51.019Z</time>
      </trkpt>
      <trkpt lat="44.53213" lon="3.46831">
        <ele>876.231796</ele>
        <time>2020-03-09T01:24:28.354Z</time>
      </trkpt>
      <trkpt lat="44.5329" lon="3.46855">
        <ele>880.921092</ele>
        <time>2020-03-09T01:24:58.321Z</time>
      </trkpt>
      <trkpt lat="44.53312" lon="3.46863">
        <ele>882.296496</ele>
        <time>2020-03-09T01:25:07.671Z</time>
      </trkpt>
      <trkpt lat="44.53349" lon="3.46882">
        <ele>885.208963</ele>
        <time>2020-03-09T01:25:22.931Z</time>
      </trkpt>
      <trkpt lat="44.53359" lon="3.46881">
        <ele>885.999312</ele>
        <time>2020-03-09T01:25:25.944Z</time>
      </trkpt>
      <trkpt lat="44.53361" lon="3.46876">
        <ele>886.301074</ele>
        <time>2020-03-09T01:25:28.256Z</time>
      </trkpt>
      <trkpt lat="44.53362" lon="3.46871">
        <ele>886.591523</ele>
        <time>2020-03-09T01:25:30.854Z</time>
      </trkpt>
      <trkpt lat="44.53359" lon="3.46861">
        <ele>887.266752</ele>
        <time>2020-03-09T01:25:34.739Z</time>
      </trkpt>
      <trkpt lat="44.533" lon="3.46816">
        <ele>892.489675</ele>
        <time>2020-03-09T01:26:07.234Z</time>
      </trkpt>
      <trkpt lat="44.53272" lon="3.46802">
        <ele>894.792767</ele>
        <time>2020-03-09T01:26:21.143Z</time>
      </trkpt>
      <trkpt lat="44.53268" lon="3.46794">
        <ele>895.353497</ele>
        <time>2020-03-09T01:26:25.272Z</time>
      </trkpt>
      <trkpt lat="44.53273" lon="3.46782">
        <ele>896.112467</ele>
        <time>2020-03-09T01:26:29.641Z</time>
      </trkpt>
      <trkpt lat="44.53277" lon="3.46781">
        <ele>896.456461</ele>
        <time>2020-03-09T01:26:32.460Z</time>
      </trkpt>
      <trkpt lat="44.53289" lon="3.46785">
        <ele>897.516566</ele>
        <time>2020-03-09T01:26:36.947Z</time>
      </trkpt>
      <trkpt lat="44.5331" lon="3.4679">
        <ele>899.520058</ele>
        <time>2020-03-09T01:26:48.244Z</time>
      </trkpt>
      <trkpt lat="44.53338" lon="3.46784">
        <ele>902.231432</ele>
        <time>2020-03-09T01:27:01.441Z</time>
      </trkpt>
      <trkpt lat="44.53389" lon="3.46756">
        <ele>907.49882</ele>
        <time>2020-03-09T01:27:32.762Z</time>
      </trkpt>
      <trkpt lat="44.53445" lon="3.46701">
        <ele>913.988188</ele>
        <time>2020-03-09T01:28:12.165Z</time>
      </trkpt>
      <trkpt lat="44.53462" lon="3.46685">
        <ele>915.526535</ele>
        <time>2020-03-09T01:28:21.231Z</time>
      </trkpt>
      <trkpt lat="44.53469" lon="3.46678">
        <ele>916.226132</ele>
        <time>2020-03-09T01:28:26.737Z</time>
      </trkpt>
      <trkpt lat="44.5349" lon="3.46657">
        <ele>918.175006</ele>
        <time>2020-03-09T01:28:37.688Z</time>
      </trkpt>
      <trkpt lat="44.53512" lon="3.46636">
        <ele>920.186371</ele>
        <time>2020-03-09T01:28:50.132Z</time>
      </trkpt>
      <trkpt lat="44.53518" lon="3.4663">
        <ele>920.764161</ele>
        <time>2020-03-09T01:28:53.316Z</time>
      </trkpt>
      <trkpt lat="44.5355" lon="3.46603">
        <ele>923.642765</ele>
        <time>2020-03-09T01:29:10.089Z</time>
      </trkpt>
      <trkpt lat="44.53603" lon="3.46552">
        <ele>928.185064</ele>
        <time>2020-03-09T01:29:37.643Z</time>
      </trkpt>
      <trkpt lat="44.53627" lon="3.46508">
        <ele>929.769705</ele>
        <time>2020-03-09T01:29:51.407Z</time>
      </trkpt>
      <trkpt lat="44.53653" lon="3.46434">
        <ele>932.120175</ele>
        <time>2020-03-09T01:30:09.264Z</time>
      </trkpt>
      <trkpt lat="44.53661" lon="3.46369">
        <ele>934.016785</ele>
        <time>2020-03-09T01:30:21.690Z</time>
      </trkpt>
      <trkpt lat="44.53662" lon="3.46348">
        <ele>934.616173</ele>
        <time>2020-03-09T01:30:26.083Z</time>
      </trkpt>
      <trkpt lat="44.53665" lon="3.46323">
        <ele>935.135611</ele>
        <time>2020-03-09T01:30:30.136Z</time>
      </trkpt>
      <trkpt lat="44.53681" lon="3.46279">
        <ele>935.670125</ele>
        <time>2020-03-09T01:30:38.593Z</time>
      </trkpt>
      <trkpt lat="44.53785" lon="3.46136">
        <ele>937.777025</ele>
        <time>2020-03-09T01:31:07.690Z</time>
      </trkpt>
      <trkpt lat="44.53853" lon="3.46026">
        <ele>938.142422</ele>
        <time>2020-03-09T01:31:23.205Z</time>
      </trkpt>
      <trkpt lat="44.53872" lon="3.46005">
        <ele>938.226749</ele>
        <time>2020-03-09T01:31:26.938Z</time>
      </trkpt>
      <trkpt lat="44.53913" lon="3.45973">
        <ele>938.439316</ele>
        <time>2020-03-09T01:31:34.790Z</time>
      </trkpt>
      <trkpt lat="44.53975" lon="3.45935">
        <ele>939.386783</ele>
        <time>2020-03-09T01:31:46.850Z</time>
      </trkpt>
      <trkpt lat="44.54036" lon="3.45892">
        <ele>940.346575</ele>
        <time>2020-03-09T01:32:00.726Z</time>
      </trkpt>
      <trkpt lat="44.54085" lon="3.45842">
        <ele>941.645791</ele>
        <time>2020-03-09T01:32:15.347Z</time>
      </trkpt>
      <trkpt lat="44.54152" lon="3.45798">
        <ele>944.247742</ele>
        <time>2020-03-09T01:32:35.965Z</time>
      </trkpt>
      <trkpt lat="44.54197" lon="3.45738">
        <ele>946.462215</ele>
        <time>2020-03-09T01:32:54.834Z</time>
      </trkpt>
      <trkpt lat="44.54279" lon="3.45655">
        <ele>951.734039</ele>
        <time>2020-03-09T01:33:29.661Z</time>
      </trkpt>
      <trkpt lat="44.54299" lon="3.45642">
        <ele>952.974807</ele>
        <time>2020-03-09T01:33:37.919Z</time>
      </trkpt>
      <trkpt lat="44.54353" lon="3.45639">
        <ele>956.042559</ele>
        <time>2020-03-09T01:33:59.383Z</time>
      </trkpt>
      <trkpt lat="44.54386" lon="3.45616">
        <ele>958.312986</ele>
        <time>2020-03-09T01:34:14.851Z</time>
      </trkpt>
      <trkpt lat="44.54409" lon="3.45568">
        <ele>961.42191</ele>
        <time>2020-03-09T01:34:33.242Z</time>
      </trkpt>
      <trkpt lat="44.5444" lon="3.4537">
        <ele>972.185383</ele>
        <time>2020-03-09T01:35:39.403Z</time>
      </trkpt>
      <trkpt lat="44.54446" lon="3.45361">
        <ele>972.828271</ele>
        <time>2020-03-09T01:35:43.588Z</time>
      </trkpt>
      <trkpt lat="44.54457" lon="3.4536">
        <ele>973.601373</ele>
        <time>2020-03-09T01:35:48.634Z</time>
      </trkpt>
      <trkpt lat="44.54463" lon="3.45367">
        <ele>974.180954</ele>
        <time>2020-03-09T01:35:52.457Z</time>
      </trkpt>
      <trkpt lat="44.5451" lon="3.4545">
        <ele>979.554039</ele>
        <time>2020-03-09T01:36:25.247Z</time>
      </trkpt>
      <trkpt lat="44.54532" lon="3.45476">
        <ele>981.615672</ele>
        <time>2020-03-09T01:36:36.936Z</time>
      </trkpt>
      <trkpt lat="44.54565" lon="3.45512">
        <ele>984.679124</ele>
        <time>2020-03-09T01:36:54.123Z</time>
      </trkpt>
      <trkpt lat="44.54591" lon="3.45544">
        <ele>987.415758</ele>
        <time>2020-03-09T01:37:08.578Z</time>
      </trkpt>
      <trkpt lat="44.54621" lon="3.45582">
        <ele>990.575425</ele>
        <time>2020-03-09T01:37:25.958Z</time>
      </trkpt>
      <trkpt lat="44.54658" lon="3.45607">
        <ele>993.825359</ele>
        <time>2020-03-09T01:37:45.311Z</time>
      </trkpt>
      <trkpt lat="44.54744" lon="3.4565">
        <ele>1002.048318</ele>
        <time>2020-03-09T01:38:32.061Z</time>
      </trkpt>
      <trkpt lat="44.54782" lon="3.4565">
        <ele>1006.090589</ele>
        <time>2020-03-09T01:38:53.869Z</time>
      </trkpt>
      <trkpt lat="44.54824" lon="3.45638">
        <ele>1010.64395</ele>
        <time>2020-03-09T01:39:20.158Z</time>
      </trkpt>
      <trkpt lat="44.55039" lon="3.45495">
        <ele>1036.678911</ele>
        <time>2020-03-09T01:41:42.995Z</time>
      </trkpt>
      <trkpt lat="44.55124" lon="3.45456">
        <ele>1045.736074</ele>
        <time>2020-03-09T01:42:29.663Z</time>
      </trkpt>
      <trkpt lat="44.55154" lon="3.45454">
        <ele>1048.822092</ele>
        <time>2020-03-09T01:42:45.890Z</time>
      </trkpt>
      <trkpt lat="44.55213" lon="3.45469">
        <ele>1054.897603</ele>
        <time>2020-03-09T01:43:18.730Z</time>
      </trkpt>
      <trkpt lat="44.55246" lon="3.45464">
        <ele>1058.861911</ele>
        <time>2020-03-09T01:43:38.660Z</time>
      </trkpt>
      <trkpt lat="44.55311" lon="3.45418">
        <ele>1067.779208</ele>
        <time>2020-03-09T01:44:27.402Z</time>
      </trkpt>
      <trkpt lat="44.55357" lon="3.45375">
        <ele>1074.588197</ele>
        <time>2020-03-09T01:45:04.958Z</time>
      </trkpt>
      <trkpt lat="44.55408" lon="3.45309">
        <ele>1081.677507</ele>
        <time>2020-03-09T01:45:48.962Z</time>
      </trkpt>
      <trkpt lat="44.55464" lon="3.45175">
        <ele>1091.959436</ele>
        <time>2020-03-09T01:46:44.202Z</time>
      </trkpt>
      <trkpt lat="44.55481" lon="3.45159">
        <ele>1093.912063</ele>
        <time>2020-03-09T01:46:52.723Z</time>
      </trkpt>
      <trkpt lat="44.55505" lon="3.45159">
        <ele>1095.5344</ele>
        <time>2020-03-09T01:47:02.008Z</time>
      </trkpt>
      <trkpt lat="44.55513" lon="3.45163">
        <ele>1096.113288</ele>
        <time>2020-03-09T01:47:05.138Z</time>
      </trkpt>
      <trkpt lat="44.55531" lon="3.45177">
        <ele>1097.463171</ele>
        <time>2020-03-09T01:47:12.425Z</time>
      </trkpt>
      <trkpt lat="44.55629" lon="3.45209">
        <ele>1104.275904</ele>
        <time>2020-03-09T01:47:52.206Z</time>
      </trkpt>
      <trkpt lat="44.55681" lon="3.45273">
        <ele>1110.100524</ele>
        <time>2020-03-09T01:48:24.674Z</time>
      </trkpt>
      <trkpt lat="44.55713" lon="3.45299">
        <ele>1113.693669</ele>
        <time>2020-03-09T01:48:44.739Z</time>
      </trkpt>
      <trkpt lat="44.55803" lon="3.45324">
        <ele>1122.489999</ele>
        <time>2020-03-09T01:49:36.918Z</time>
      </trkpt>
      <trkpt lat="44.55845" lon="3.4537">
        <ele>1127.637253</ele>
        <time>2020-03-09T01:50:07.636Z</time>
      </trkpt>
      <trkpt lat="44.55886" lon="3.45397">
        <ele>1131.959496</ele>
        <time>2020-03-09T01:50:32.918Z</time>
      </trkpt>
      <trkpt lat="44.55936" lon="3.45478">
        <ele>1139.236116</ele>
        <time>2020-03-09T01:51:12.103Z</time>
      </trkpt>
      <trkpt lat="44.55962" lon="3.45487">
        <ele>1141.533922</ele>
        <time>2020-03-09T01:51:24.815Z</time>
      </trkpt>
      <trkpt lat="44.56014" lon="3.45481">
        <ele>1145.385691</ele>
        <time>2020-03-09T01:51:48.484Z</time>
      </trkpt>
      <trkpt lat="44.56081" lon="3.45473">
        <ele>1150.349427</ele>
        <time>2020-03-09T01:52:17.503Z</time>
      </trkpt>
      <trkpt lat="44.56141" lon="3.45465">
        <ele>1154.648856</ele>
        <time>2020-03-09T01:52:42.947Z</time>
      </trkpt>
      <trkpt lat="44.56186" lon="3.45458">
        <ele>1157.560535</ele>
        <time>2020-03-09T01:53:01.294Z</time>
      </trkpt>
      <trkpt lat="44.56203" lon="3.45452">
        <ele>1158.743934</ele>
        <time>2020-03-09T01:53:09.329Z</time>
      </trkpt>
      <trkpt lat="44.56234" lon="3.45439">
        <ele>1160.778778</ele>
        <time>2020-03-09T01:53:22.359Z</time>
      </trkpt>
      <trkpt lat="44.56281" lon="3.45424">
        <ele>1163.87842</ele>
        <time>2020-03-09T01:53:41.246Z</time>
      </trkpt>
      <trkpt lat="44.56326" lon="3.45397">
        <ele>1166.866155</ele>
        <time>2020-03-09T01:54:00.249Z</time>
      </trkpt>
      <trkpt lat="44.5636" lon="3.45376">
        <ele>1169.031806</ele>
        <time>2020-03-09T01:54:15.182Z</time>
      </trkpt>
      <trkpt lat="44.56407" lon="3.45339">
        <ele>1172.105682</ele>
        <time>2020-03-09T01:54:34.456Z</time>
      </trkpt>
      <trkpt lat="44.56434" lon="3.45289">
        <ele>1174.667837</ele>
        <time>2020-03-09T01:54:51.041Z</time>
      </trkpt>
      <trkpt lat="44.56466" lon="3.4521">
        <ele>1178.958534</ele>
        <time>2020-03-09T01:55:14.893Z</time>
      </trkpt>
      <trkpt lat="44.56483" lon="3.45181">
        <ele>1180.885491</ele>
        <time>2020-03-09T01:55:26.788Z</time>
      </trkpt>
      <trkpt lat="44.56522" lon="3.45141">
        <ele>1184.324568</ele>
        <time>2020-03-09T01:55:48.871Z</time>
      </trkpt>
      <trkpt lat="44.5657" lon="3.45121">
        <ele>1187.821571</ele>
        <time>2020-03-09T01:56:11.461Z</time>
      </trkpt>
      <trkpt lat="44.56593" lon="3.45119">
        <ele>1189.520093</ele>
        <time>2020-03-09T01:56:22.765Z</time>
      </trkpt>
      <trkpt lat="44.56621" lon="3.45118">
        <ele>1191.624979</ele>
        <time>2020-03-09T01:56:36.155Z</time>
      </trkpt>
      <trkpt lat="44.56804" lon="3.45111">
        <ele>1204.372225</ele>
        <time>2020-03-09T01:57:57.646Z</time>
      </trkpt>
      <trkpt lat="44.56904" lon="3.45073">
        <ele>1209.842744</ele>
        <time>2020-03-09T01:58:32.289Z</time>
      </trkpt>
      <trkpt lat="44.56999" lon="3.4507">
        <ele>1214.184337</ele>
        <time>2020-03-09T01:59:01.400Z</time>
      </trkpt>
      <trkpt lat="44.57051" lon="3.45056">
        <ele>1216.454874</ele>
        <time>2020-03-09T01:59:16.816Z</time>
      </trkpt>
      <trkpt lat="44.57057" lon="3.45051">
        <ele>1216.756925</ele>
        <time>2020-03-09T01:59:19.205Z</time>
      </trkpt>
      <trkpt lat="44.5707" lon="3.45042">
        <ele>1217.346909</ele>
        <time>2020-03-09T01:59:23.461Z</time>
      </trkpt>
      <trkpt lat="44.57108" lon="3.44991">
        <ele>1219.734623</ele>
        <time>2020-03-09T01:59:42.257Z</time>
      </trkpt>
      <trkpt lat="44.57128" lon="3.4494">
        <ele>1221.983354</ele>
        <time>2020-03-09T01:59:57.374Z</time>
      </trkpt>
      <trkpt lat="44.57134" lon="3.44904">
        <ele>1223.433769</ele>
        <time>2020-03-09T02:00:06.753Z</time>
      </trkpt>
      <trkpt lat="44.57135" lon="3.44898">
        <ele>1223.678783</ele>
        <time>2020-03-09T02:00:09.099Z</time>
      </trkpt>
      <trkpt lat="44.57142" lon="3.44869">
        <ele>1224.844112</ele>
        <time>2020-03-09T02:00:16.470Z</time>
      </trkpt>
      <trkpt lat="44.5715" lon="3.44848">
        <ele>1225.794869</ele>
        <time>2020-03-09T02:00:23.568Z</time>
      </trkpt>
      <trkpt lat="44.57163" lon="3.44831">
        <ele>1226.730185</ele>
        <time>2020-03-09T02:00:28.944Z</time>
      </trkpt>
      <trkpt lat="44.57179" lon="3.44821">
        <ele>1227.704656</ele>
        <time>2020-03-09T02:00:36.432Z</time>
      </trkpt>
      <trkpt lat="44.572" lon="3.44816">
        <ele>1228.860735</ele>
        <time>2020-03-09T02:00:43.553Z</time>
      </trkpt>
      <trkpt lat="44.57266" lon="3.44815">
        <ele>1231.855712</ele>
        <time>2020-03-09T02:01:09.820Z</time>
      </trkpt>
      <trkpt lat="44.57342" lon="3.44815">
        <ele>1235.237206</ele>
        <time>2020-03-09T02:01:35.400Z</time>
      </trkpt>
      <trkpt lat="44.57361" lon="3.44813">
        <ele>1236.067649</ele>
        <time>2020-03-09T02:01:41.175Z</time>
      </trkpt>
      <trkpt lat="44.57653" lon="3.44722">
        <ele>1238.795559</ele>
        <time>2020-03-09T02:02:42.298Z</time>
      </trkpt>
      <trkpt lat="44.57676" lon="3.44715">
        <ele>1238.519038</ele>
        <time>2020-03-09T02:02:44.837Z</time>
      </trkpt>
      <trkpt lat="44.57689" lon="3.44711">
        <ele>1238.365036</ele>
        <time>2020-03-09T02:02:46.111Z</time>
      </trkpt>
      <trkpt lat="44.57718" lon="3.44698">
        <ele>1238.026451</ele>
        <time>2020-03-09T02:02:49.004Z</time>
      </trkpt>
      <trkpt lat="44.57741" lon="3.44679">
        <ele>1237.175918</ele>
        <time>2020-03-09T02:02:51.583Z</time>
      </trkpt>
      <trkpt lat="44.57758" lon="3.4465">
        <ele>1235.697151</ele>
        <time>2020-03-09T02:02:54.034Z</time>
      </trkpt>
      <trkpt lat="44.57773" lon="3.44578">
        <ele>1232.702706</ele>
        <time>2020-03-09T02:02:58.923Z</time>
      </trkpt>
      <trkpt lat="44.57818" lon="3.442">
        <ele>1218.067029</ele>
        <time>2020-03-09T02:03:24.334Z</time>
      </trkpt>
      <trkpt lat="44.57838" lon="3.44119">
        <ele>1216.117943</ele>
        <time>2020-03-09T02:03:30.462Z</time>
      </trkpt>
      <trkpt lat="44.57887" lon="3.4399">
        <ele>1212.796327</ele>
        <time>2020-03-09T02:03:41.389Z</time>
      </trkpt>
      <trkpt lat="44.5791" lon="3.43937">
        <ele>1211.425496</ele>
        <time>2020-03-09T02:03:46.137Z</time>
      </trkpt>
      <trkpt lat="44.57913" lon="3.43931">
        <ele>1211.249468</ele>
        <time>2020-03-09T02:03:46.726Z</time>
      </trkpt>
      <trkpt lat="44.57915" lon="3.43924">
        <ele>1211.080409</ele>
        <time>2020-03-09T02:03:47.286Z</time>
      </trkpt>
      <trkpt lat="44.5796" lon="3.4382">
        <ele>1208.400308</ele>
        <time>2020-03-09T02:03:56.206Z</time>
      </trkpt>
      <trkpt lat="44.57973" lon="3.43798">
        <ele>1207.77398</ele>
        <time>2020-03-09T02:03:58.224Z</time>
      </trkpt>
      <trkpt lat="44.57979" lon="3.43791">
        <ele>1207.552072</ele>
        <time>2020-03-09T02:03:58.940Z</time>
      </trkpt>
      <trkpt lat="44.57996" lon="3.43771">
        <ele>1206.798335</ele>
        <time>2020-03-09T02:04:01.220Z</time>
      </trkpt>
      <trkpt lat="44.58019" lon="3.43764">
        <ele>1205.681991</ele>
        <time>2020-03-09T02:04:03.516Z</time>
      </trkpt>
      <trkpt lat="44.5812" lon="3.43732">
        <ele>1200.76422</ele>
        <time>2020-03-09T02:04:13.321Z</time>
      </trkpt>
      <trkpt lat="44.58159" lon="3.43731">
        <ele>1198.866256</ele>
        <time>2020-03-09T02:04:17.002Z</time>
      </trkpt>
      <trkpt lat="44.58307" lon="3.43772">
        <ele>1190.046111</ele>
        <time>2020-03-09T02:04:30.796Z</time>
      </trkpt>
      <trkpt lat="44.58442" lon="3.43853">
        <ele>1181.757103</ele>
        <time>2020-03-09T02:04:44.329Z</time>
      </trkpt>
      <trkpt lat="44.58459" lon="3.43858">
        <ele>1180.785286</ele>
        <time>2020-03-09T02:04:45.982Z</time>
      </trkpt>
      <trkpt lat="44.58592" lon="3.43837">
        <ele>1173.584247</ele>
        <time>2020-03-09T02:04:58.495Z</time>
      </trkpt>
      <trkpt lat="44.58668" lon="3.4384">
        <ele>1169.497086</ele>
        <time>2020-03-09T02:05:05.646Z</time>
      </trkpt>
      <trkpt lat="44.58753" lon="3.43869">
        <ele>1164.762111</ele>
        <time>2020-03-09T02:05:13.672Z</time>
      </trkpt>
      <trkpt lat="44.58791" lon="3.43895">
        <ele>1162.412907</ele>
        <time>2020-03-09T02:05:17.616Z</time>
      </trkpt>
      <trkpt lat="44.58877" lon="3.4397">
        <ele>1156.92131</ele>
        <time>2020-03-09T02:05:27.056Z</time>
      </trkpt>
      <trkpt lat="44.58914" lon="3.43984">
        <ele>1154.945221</ele>
        <time>2020-03-09T02:05:30.654Z</time>
      </trkpt>
      <trkpt lat="44.58954" lon="3.43973">
        <ele>1152.831404</ele>
        <time>2020-03-09T02:05:34.527Z</time>
      </trkpt>
      <trkpt lat="44.59057" lon="3.43906">
        <ele>1146.588972</ele>
        <time>2020-03-09T02:05:45.187Z</time>
      </trkpt>
      <trkpt lat="44.59104" lon="3.439">
        <ele>1143.765924</ele>
        <time>2020-03-09T02:05:49.457Z</time>
      </trkpt>
      <trkpt lat="44.5916" lon="3.43902">
        <ele>1140.346966</ele>
        <time>2020-03-09T02:05:54.514Z</time>
      </trkpt>
      <trkpt lat="44.59262" lon="3.43878">
        <ele>1134.736976</ele>
        <time>2020-03-09T02:06:04.009Z</time>
      </trkpt>
      <trkpt lat="44.59302" lon="3.43869">
        <ele>1132.743553</ele>
        <time>2020-03-09T02:06:07.776Z</time>
      </trkpt>
      <trkpt lat="44.59316" lon="3.43866">
        <ele>1132.005363</ele>
        <time>2020-03-09T02:06:09.207Z</time>
      </trkpt>
      <trkpt lat="44.59337" lon="3.43857">
        <ele>1130.926576</ele>
        <time>2020-03-09T02:06:11.324Z</time>
      </trkpt>
      <trkpt lat="44.59378" lon="3.43827">
        <ele>1128.714785</ele>
        <time>2020-03-09T02:06:15.832Z</time>
      </trkpt>
      <trkpt lat="44.59464" lon="3.43729">
        <ele>1124.495132</ele>
        <time>2020-03-09T02:06:26.919Z</time>
      </trkpt>
      <trkpt lat="44.59482" lon="3.43708">
        <ele>1123.578151</ele>
        <time>2020-03-09T02:06:29.447Z</time>
      </trkpt>
      <trkpt lat="44.59489" lon="3.437">
        <ele>1123.242689</ele>
        <time>2020-03-09T02:06:30.244Z</time>
      </trkpt>
      <trkpt lat="44.59547" lon="3.43619">
        <ele>1119.204552</ele>
        <time>2020-03-09T02:06:38.068Z</time>
      </trkpt>
      <trkpt lat="44.59585" lon="3.43599">
        <ele>1116.95547</ele>
        <time>2020-03-09T02:06:41.807Z</time>
      </trkpt>
      <trkpt lat="44.59598" lon="3.43586">
        <ele>1116.08194</ele>
        <time>2020-03-09T02:06:43.252Z</time>
      </trkpt>
      <trkpt lat="44.59662" lon="3.43489">
        <ele>1110.709282</ele>
        <time>2020-03-09T02:06:51.898Z</time>
      </trkpt>
      <trkpt lat="44.59683" lon="3.43442">
        <ele>1108.310146</ele>
        <time>2020-03-09T02:06:55.496Z</time>
      </trkpt>
      <trkpt lat="44.59702" lon="3.43416">
        <ele>1106.661699</ele>
        <time>2020-03-09T02:06:57.956Z</time>
      </trkpt>
      <trkpt lat="44.59744" lon="3.43409">
        <ele>1104.084904</ele>
        <time>2020-03-09T02:07:01.815Z</time>
      </trkpt>
      <trkpt lat="44.5988" lon="3.43342">
        <ele>1094.665709</ele>
        <time>2020-03-09T02:07:14.918Z</time>
      </trkpt>
      <trkpt lat="44.59983" lon="3.43273">
        <ele>1086.841094</ele>
        <time>2020-03-09T02:07:25.121Z</time>
      </trkpt>
      <trkpt lat="44.60098" lon="3.43161">
        <ele>1076.908224</ele>
        <time>2020-03-09T02:07:37.649Z</time>
      </trkpt>
      <trkpt lat="44.60154" lon="3.43098">
        <ele>1073.571396</ele>
        <time>2020-03-09T02:07:44.314Z</time>
      </trkpt>
      <trkpt lat="44.60198" lon="3.43031">
        <ele>1070.814167</ele>
        <time>2020-03-09T02:07:50.646Z</time>
      </trkpt>
      <trkpt lat="44.60209" lon="3.43027">
        <ele>1070.310062</ele>
        <time>2020-03-09T02:07:51.872Z</time>
      </trkpt>
      <trkpt lat="44.60224" lon="3.43032">
        <ele>1069.639798</ele>
        <time>2020-03-09T02:07:53.538Z</time>
      </trkpt>
      <trkpt lat="44.60242" lon="3.43047">
        <ele>1068.765217</ele>
        <time>2020-03-09T02:07:55.787Z</time>
      </trkpt>
      <trkpt lat="44.60314" lon="3.43147">
        <ele>1064.513293</ele>
        <time>2020-03-09T02:08:06.232Z</time>
      </trkpt>
      <trkpt lat="44.60343" lon="3.43164">
        <ele>1063.202905</ele>
        <time>2020-03-09T02:08:09.146Z</time>
      </trkpt>
      <trkpt lat="44.60387" lon="3.43209">
        <ele>1060.988716</ele>
        <time>2020-03-09T02:08:14.151Z</time>
      </trkpt>
      <trkpt lat="44.60395" lon="3.43211">
        <ele>1060.750879</ele>
        <time>2020-03-09T02:08:14.862Z</time>
      </trkpt>
      <trkpt lat="44.60405" lon="3.43208">
        <ele>1060.443794</ele>
        <time>2020-03-09T02:08:15.749Z</time>
      </trkpt>
      <trkpt lat="44.60412" lon="3.43203">
        <ele>1060.222478</ele>
        <time>2020-03-09T02:08:17.942Z</time>
      </trkpt>
      <trkpt lat="44.60418" lon="3.43194">
        <ele>1059.955366</ele>
        <time>2020-03-09T02:08:18.818Z</time>
      </trkpt>
      <trkpt lat="44.60423" lon="3.43181">
        <ele>1059.65947</ele>
        <time>2020-03-09T02:08:19.713Z</time>
      </trkpt>
      <trkpt lat="44.60422" lon="3.43126">
        <ele>1058.49838</ele>
        <time>2020-03-09T02:08:23.468Z</time>
      </trkpt>
      <trkpt lat="44.60414" lon="3.43086">
        <ele>1057.638068</ele>
        <time>2020-03-09T02:08:26.591Z</time>
      </trkpt>
      <trkpt lat="44.60396" lon="3.43038">
        <ele>1056.503826</ele>
        <time>2020-03-09T02:08:30.642Z</time>
      </trkpt>
      <trkpt lat="44.60393" lon="3.43025">
        <ele>1056.213261</ele>
        <time>2020-03-09T02:08:31.530Z</time>
      </trkpt>
      <trkpt lat="44.60394" lon="3.43015">
        <ele>1056.004834</ele>
        <time>2020-03-09T02:08:34.914Z</time>
      </trkpt>
      <trkpt lat="44.60407" lon="3.43">
        <ele>1056.330485</ele>
        <time>2020-03-09T02:08:36.910Z</time>
      </trkpt>
      <trkpt lat="44.60464" lon="3.4299">
        <ele>1060.225731</ele>
        <time>2020-03-09T02:08:56.841Z</time>
      </trkpt>
      <trkpt lat="44.60508" lon="3.42953">
        <ele>1063.700146</ele>
        <time>2020-03-09T02:09:20.819Z</time>
      </trkpt>
      <trkpt lat="44.60535" lon="3.4289">
        <ele>1067.237215</ele>
        <time>2020-03-09T02:09:49.659Z</time>
      </trkpt>
      <trkpt lat="44.60579" lon="3.42842">
        <ele>1072.708302</ele>
        <time>2020-03-09T02:10:22.215Z</time>
      </trkpt>
      <trkpt lat="44.60612" lon="3.42795">
        <ele>1077.701944</ele>
        <time>2020-03-09T02:10:50.175Z</time>
      </trkpt>
      <trkpt lat="44.60656" lon="3.42769">
        <ele>1082.758205</ele>
        <time>2020-03-09T02:11:17.946Z</time>
      </trkpt>
      <trkpt lat="44.60697" lon="3.42759">
        <ele>1087.065329</ele>
        <time>2020-03-09T02:11:41.059Z</time>
      </trkpt>
      <trkpt lat="44.60709" lon="3.42751">
        <ele>1088.272803</ele>
        <time>2020-03-09T02:11:48.406Z</time>
      </trkpt>
      <trkpt lat="44.60743" lon="3.42706">
        <ele>1092.486587</ele>
        <time>2020-03-09T02:12:13.116Z</time>
      </trkpt>
      <trkpt lat="44.60819" lon="3.42695">
        <ele>1099.346798</ele>
        <time>2020-03-09T02:12:51.529Z</time>
      </trkpt>
      <trkpt lat="44.6085" lon="3.42683">
        <ele>1102.268753</ele>
        <time>2020-03-09T02:13:07.047Z</time>
      </trkpt>
      <trkpt lat="44.60887" lon="3.42655">
        <ele>1105.571603</ele>
        <time>2020-03-09T02:13:26.727Z</time>
      </trkpt>
      <trkpt lat="44.60961" lon="3.42569">
        <ele>1112.560318</ele>
        <time>2020-03-09T02:14:08.921Z</time>
      </trkpt>
      <trkpt lat="44.61016" lon="3.42533">
        <ele>1116.938064</ele>
        <time>2020-03-09T02:14:34.636Z</time>
      </trkpt>
      <trkpt lat="44.61071" lon="3.42521">
        <ele>1120.472441</ele>
        <time>2020-03-09T02:14:57.467Z</time>
      </trkpt>
      <trkpt lat="44.61093" lon="3.42508">
        <ele>1122.024408</ele>
        <time>2020-03-09T02:15:07.325Z</time>
      </trkpt>
      <trkpt lat="44.6111" lon="3.42482">
        <ele>1123.614201</ele>
        <time>2020-03-09T02:15:17.353Z</time>
      </trkpt>
      <trkpt lat="44.61136" lon="3.42378">
        <ele>1128.548179</ele>
        <time>2020-03-09T02:15:48.701Z</time>
      </trkpt>
      <trkpt lat="44.61183" lon="3.42303">
        <ele>1132.532166</ele>
        <time>2020-03-09T02:16:15.447Z</time>
      </trkpt>
      <trkpt lat="44.6122" lon="3.42234">
        <ele>1135.986324</ele>
        <time>2020-03-09T02:16:37.729Z</time>
      </trkpt>
      <trkpt lat="44.61298" lon="3.42081">
        <ele>1143.526818</ele>
        <time>2020-03-09T02:17:26.196Z</time>
      </trkpt>
      <trkpt lat="44.61392" lon="3.41898">
        <ele>1153.232581</ele>
        <time>2020-03-09T02:18:28.975Z</time>
      </trkpt>
      <trkpt lat="44.6142" lon="3.41853">
        <ele>1155.980419</ele>
        <time>2020-03-09T02:18:46.996Z</time>
      </trkpt>
      <trkpt lat="44.61471" lon="3.41803">
        <ele>1159.940595</ele>
        <time>2020-03-09T02:19:12.921Z</time>
      </trkpt>
      <trkpt lat="44.61534" lon="3.41803">
        <ele>1163.806256</ele>
        <time>2020-03-09T02:19:39.113Z</time>
      </trkpt>
      <trkpt lat="44.61566" lon="3.41795">
        <ele>1165.817085</ele>
        <time>2020-03-09T02:19:52.475Z</time>
      </trkpt>
      <trkpt lat="44.61741" lon="3.41642">
        <ele>1177.119973</ele>
        <time>2020-03-09T02:21:07.395Z</time>
      </trkpt>
      <trkpt lat="44.61876" lon="3.41536">
        <ele>1184.020734</ele>
        <time>2020-03-09T02:21:57.993Z</time>
      </trkpt>
      <trkpt lat="44.61885" lon="3.41532">
        <ele>1184.412173</ele>
        <time>2020-03-09T02:22:01.378Z</time>
      </trkpt>
      <trkpt lat="44.61892" lon="3.41528">
        <ele>1184.727801</ele>
        <time>2020-03-09T02:22:03.527Z</time>
      </trkpt>
      <trkpt lat="44.61933" lon="3.41506">
        <ele>1186.533357</ele>
        <time>2020-03-09T02:22:16.463Z</time>
      </trkpt>
      <trkpt lat="44.61971" lon="3.41502">
        <ele>1187.78877</ele>
        <time>2020-03-09T02:22:27.482Z</time>
      </trkpt>
      <trkpt lat="44.62049" lon="3.41498">
        <ele>1189.748472</ele>
        <time>2020-03-09T02:22:48.614Z</time>
      </trkpt>
      <trkpt lat="44.62093" lon="3.41496">
        <ele>1190.850301</ele>
        <time>2020-03-09T02:22:58.722Z</time>
      </trkpt>
      <trkpt lat="44.62643" lon="3.41453">
        <ele>1197.83586</ele>
        <time>2020-03-09T02:24:47.615Z</time>
      </trkpt>
      <trkpt lat="44.62666" lon="3.41441">
        <ele>1198.07586</ele>
        <time>2020-03-09T02:24:51.857Z</time>
      </trkpt>
      <trkpt lat="44.62689" lon="3.41418">
        <ele>1197.848536</ele>
        <time>2020-03-09T02:24:56.425Z</time>
      </trkpt>
      <trkpt lat="44.62759" lon="3.41339">
        <ele>1196.985632</ele>
        <time>2020-03-09T02:25:08.097Z</time>
      </trkpt>
      <trkpt lat="44.62784" lon="3.41311">
        <ele>1196.680934</ele>
        <time>2020-03-09T02:25:11.721Z</time>
      </trkpt>
      <trkpt lat="44.62817" lon="3.41272">
        <ele>1195.937061</ele>
        <time>2020-03-09T02:25:16.367Z</time>
      </trkpt>
      <trkpt lat="44.62836" lon="3.41237">
        <ele>1194.727823</ele>
        <time>2020-03-09T02:25:19.587Z</time>
      </trkpt>
      <trkpt lat="44.62866" lon="3.41144">
        <ele>1191.923082</ele>
        <time>2020-03-09T02:25:26.718Z</time>
      </trkpt>
      <trkpt lat="44.629" lon="3.41087">
        <ele>1189.899822</ele>
        <time>2020-03-09T02:25:31.756Z</time>
      </trkpt>
      <trkpt lat="44.62976" lon="3.41028">
        <ele>1185.219426</ele>
        <time>2020-03-09T02:25:40.030Z</time>
      </trkpt>
      <trkpt lat="44.63022" lon="3.40984">
        <ele>1182.125348</ele>
        <time>2020-03-09T02:25:45.159Z</time>
      </trkpt>
      <trkpt lat="44.63064" lon="3.40933">
        <ele>1178.889164</ele>
        <time>2020-03-09T02:25:50.177Z</time>
      </trkpt>
      <trkpt lat="44.63099" lon="3.40867">
        <ele>1174.136204</ele>
        <time>2020-03-09T02:25:55.441Z</time>
      </trkpt>
      <trkpt lat="44.63106" lon="3.4084">
        <ele>1172.463824</ele>
        <time>2020-03-09T02:25:57.277Z</time>
      </trkpt>
      <trkpt lat="44.63107" lon="3.40771">
        <ele>1168.462949</ele>
        <time>2020-03-09T02:26:01.659Z</time>
      </trkpt>
      <trkpt lat="44.63111" lon="3.40746">
        <ele>1166.976764</ele>
        <time>2020-03-09T02:26:03.253Z</time>
      </trkpt>
      <trkpt lat="44.63122" lon="3.40726">
        <ele>1165.591277</ele>
        <time>2020-03-09T02:26:04.725Z</time>
      </trkpt>
      <trkpt lat="44.63161" lon="3.40687">
        <ele>1160.984536</ele>
        <time>2020-03-09T02:26:08.878Z</time>
      </trkpt>
      <trkpt lat="44.63206" lon="3.40611">
        <ele>1154.089356</ele>
        <time>2020-03-09T02:26:14.923Z</time>
      </trkpt>
      <trkpt lat="44.63223" lon="3.40586">
        <ele>1151.695908</ele>
        <time>2020-03-09T02:26:17.012Z</time>
      </trkpt>
      <trkpt lat="44.63224" lon="3.40584">
        <ele>1151.506161</ele>
        <time>2020-03-09T02:26:17.188Z</time>
      </trkpt>
      <trkpt lat="44.63235" lon="3.40573">
        <ele>1150.120812</ele>
        <time>2020-03-09T02:26:18.396Z</time>
      </trkpt>
      <trkpt lat="44.63279" lon="3.40512">
        <ele>1144.480185</ele>
        <time>2020-03-09T02:26:23.717Z</time>
      </trkpt>
      <trkpt lat="44.63301" lon="3.40458">
        <ele>1140.694267</ele>
        <time>2020-03-09T02:26:27.547Z</time>
      </trkpt>
      <trkpt lat="44.63386" lon="3.40358">
        <ele>1131.094757</ele>
        <time>2020-03-09T02:26:37.402Z</time>
      </trkpt>
      <trkpt lat="44.63433" lon="3.40318">
        <ele>1126.399345</ele>
        <time>2020-03-09T02:26:42.183Z</time>
      </trkpt>
      <trkpt lat="44.63471" lon="3.40298">
        <ele>1122.863833</ele>
        <time>2020-03-09T02:26:45.757Z</time>
      </trkpt>
      <trkpt lat="44.63535" lon="3.40279">
        <ele>1117.234814</ele>
        <time>2020-03-09T02:26:51.435Z</time>
      </trkpt>
      <trkpt lat="44.63552" lon="3.40256">
        <ele>1115.20965</ele>
        <time>2020-03-09T02:26:53.509Z</time>
      </trkpt>
      <trkpt lat="44.63553" lon="3.40212">
        <ele>1112.600863</ele>
        <time>2020-03-09T02:26:56.237Z</time>
      </trkpt>
      <trkpt lat="44.63567" lon="3.40067">
        <ele>1103.970798</ele>
        <time>2020-03-09T02:27:05.383Z</time>
      </trkpt>
      <trkpt lat="44.63576" lon="3.39997">
        <ele>1100.535656</ele>
        <time>2020-03-09T02:27:09.989Z</time>
      </trkpt>
      <trkpt lat="44.63586" lon="3.3998">
        <ele>1099.948949</ele>
        <time>2020-03-09T02:27:11.401Z</time>
      </trkpt>
      <trkpt lat="44.63604" lon="3.39959">
        <ele>1099.02444</ele>
        <time>2020-03-09T02:27:13.654Z</time>
      </trkpt>
      <trkpt lat="44.63661" lon="3.39942">
        <ele>1096.784468</ele>
        <time>2020-03-09T02:27:19.342Z</time>
      </trkpt>
      <trkpt lat="44.6369" lon="3.39937">
        <ele>1095.649671</ele>
        <time>2020-03-09T02:27:22.397Z</time>
      </trkpt>
      <trkpt lat="44.63741" lon="3.39914">
        <ele>1094.178819</ele>
        <time>2020-03-09T02:27:28.725Z</time>
      </trkpt>
      <trkpt lat="44.63758" lon="3.39914">
        <ele>1094.111752</ele>
        <time>2020-03-09T02:27:30.634Z</time>
      </trkpt>
      <trkpt lat="44.63836" lon="3.39945">
        <ele>1093.780724</ele>
        <time>2020-03-09T02:27:41.634Z</time>
      </trkpt>
      <trkpt lat="44.63847" lon="3.39939">
        <ele>1093.7305</ele>
        <time>2020-03-09T02:27:44.091Z</time>
      </trkpt>
      <trkpt lat="44.63854" lon="3.39935">
        <ele>1093.703234</ele>
        <time>2020-03-09T02:27:44.871Z</time>
      </trkpt>
      <trkpt lat="44.63862" lon="3.39923">
        <ele>1093.654689</ele>
        <time>2020-03-09T02:27:46.448Z</time>
      </trkpt>
      <trkpt lat="44.63871" lon="3.39921">
        <ele>1093.620523</ele>
        <time>2020-03-09T02:27:48.231Z</time>
      </trkpt>
      <trkpt lat="44.63893" lon="3.39917">
        <ele>1093.529659</ele>
        <time>2020-03-09T02:27:51.552Z</time>
      </trkpt>
      <trkpt lat="44.63954" lon="3.3997">
        <ele>1094.019228</ele>
        <time>2020-03-09T02:28:03.644Z</time>
      </trkpt>
      <trkpt lat="44.63961" lon="3.3999">
        <ele>1094.133693</ele>
        <time>2020-03-09T02:28:06.799Z</time>
      </trkpt>
      <trkpt lat="44.63963" lon="3.39997">
        <ele>1094.170608</ele>
        <time>2020-03-09T02:28:07.965Z</time>
      </trkpt>
      <trkpt lat="44.63977" lon="3.40078">
        <ele>1094.599931</ele>
        <time>2020-03-09T02:28:18.592Z</time>
      </trkpt>
      <trkpt lat="44.63976" lon="3.40113">
        <ele>1094.780016</ele>
        <time>2020-03-09T02:28:23.364Z</time>
      </trkpt>
      <trkpt lat="44.63954" lon="3.40229">
        <ele>1094.987134</ele>
        <time>2020-03-09T02:28:38.981Z</time>
      </trkpt>
      <trkpt lat="44.63954" lon="3.40255">
        <ele>1095.027998</ele>
        <time>2020-03-09T02:28:41.933Z</time>
      </trkpt>
      <trkpt lat="44.63999" lon="3.40371">
        <ele>1095.006994</ele>
        <time>2020-03-09T02:28:55.111Z</time>
      </trkpt>
      <trkpt lat="44.64004" lon="3.40411">
        <ele>1094.565878</ele>
        <time>2020-03-09T02:28:58.688Z</time>
      </trkpt>
      <trkpt lat="44.63999" lon="3.40451">
        <ele>1094.124762</ele>
        <time>2020-03-09T02:29:02.131Z</time>
      </trkpt>
      <trkpt lat="44.6398" lon="3.40531">
        <ele>1093.220845</ele>
        <time>2020-03-09T02:29:08.901Z</time>
      </trkpt>
      <trkpt lat="44.63981" lon="3.40554">
        <ele>1092.972156</ele>
        <time>2020-03-09T02:29:10.719Z</time>
      </trkpt>
      <trkpt lat="44.63989" lon="3.40562">
        <ele>1092.814397</ele>
        <time>2020-03-09T02:29:11.862Z</time>
      </trkpt>
      <trkpt lat="44.63999" lon="3.40572">
        <ele>1092.629821</ele>
        <time>2020-03-09T02:29:13.123Z</time>
      </trkpt>
      <trkpt lat="44.64022" lon="3.40585">
        <ele>1091.965248</ele>
        <time>2020-03-09T02:29:15.824Z</time>
      </trkpt>
      <trkpt lat="44.64038" lon="3.40608">
        <ele>1091.198266</ele>
        <time>2020-03-09T02:29:18.148Z</time>
      </trkpt>
      <trkpt lat="44.64051" lon="3.40639">
        <ele>1090.311152</ele>
        <time>2020-03-09T02:29:20.813Z</time>
      </trkpt>
      <trkpt lat="44.6408" lon="3.40807">
        <ele>1086.133093</ele>
        <time>2020-03-09T02:29:32.858Z</time>
      </trkpt>
      <trkpt lat="44.64119" lon="3.40865">
        <ele>1084.50495</ele>
        <time>2020-03-09T02:29:38.634Z</time>
      </trkpt>
      <trkpt lat="44.64124" lon="3.4088">
        <ele>1084.160243</ele>
        <time>2020-03-09T02:29:39.803Z</time>
      </trkpt>
      <trkpt lat="44.64126" lon="3.40886">
        <ele>1084.021358</ele>
        <time>2020-03-09T02:29:40.248Z</time>
      </trkpt>
      <trkpt lat="44.64135" lon="3.40923">
        <ele>1083.234611</ele>
        <time>2020-03-09T02:29:43.196Z</time>
      </trkpt>
      <trkpt lat="44.64134" lon="3.40978">
        <ele>1082.107983</ele>
        <time>2020-03-09T02:29:47.322Z</time>
      </trkpt>
      <trkpt lat="44.64099" lon="3.41069">
        <ele>1080.665302</ele>
        <time>2020-03-09T02:29:55.414Z</time>
      </trkpt>
      <trkpt lat="44.64095" lon="3.41091">
        <ele>1080.475408</ele>
        <time>2020-03-09T02:29:57.356Z</time>
      </trkpt>
      <trkpt lat="44.64113" lon="3.41142">
        <ele>1079.981659</ele>
        <time>2020-03-09T02:30:03.016Z</time>
      </trkpt>
      <trkpt lat="44.64135" lon="3.41172">
        <ele>1079.613838</ele>
        <time>2020-03-09T02:30:07.037Z</time>
      </trkpt>
      <trkpt lat="44.64226" lon="3.41233">
        <ele>1077.922492</ele>
        <time>2020-03-09T02:30:18.902Z</time>
      </trkpt>
      <trkpt lat="44.64238" lon="3.41259">
        <ele>1077.428494</ele>
        <time>2020-03-09T02:30:21.272Z</time>
      </trkpt>
      <trkpt lat="44.64242" lon="3.41294">
        <ele>1076.867592</ele>
        <time>2020-03-09T02:30:24.009Z</time>
      </trkpt>
      <trkpt lat="44.64242" lon="3.41323">
        <ele>1076.421475</ele>
        <time>2020-03-09T02:30:26.183Z</time>
      </trkpt>
      <trkpt lat="44.64232" lon="3.41347">
        <ele>1075.981535</ele>
        <time>2020-03-09T02:30:28.246Z</time>
      </trkpt>
      <trkpt lat="44.6423" lon="3.41364">
        <ele>1075.706058</ele>
        <time>2020-03-09T02:30:29.590Z</time>
      </trkpt>
      <trkpt lat="44.64235" lon="3.41382">
        <ele>1075.408499</ele>
        <time>2020-03-09T02:30:31.009Z</time>
      </trkpt>
      <trkpt lat="44.64246" lon="3.41389">
        <ele>1075.147981</ele>
        <time>2020-03-09T02:30:32.202Z</time>
      </trkpt>
      <trkpt lat="44.64254" lon="3.41392">
        <ele>1074.920338</ele>
        <time>2020-03-09T02:30:33.143Z</time>
      </trkpt>
      <trkpt lat="44.64258" lon="3.41393">
        <ele>1074.807978</ele>
        <time>2020-03-09T02:30:33.488Z</time>
      </trkpt>
      <trkpt lat="44.64262" lon="3.41391">
        <ele>1074.661073</ele>
        <time>2020-03-09T02:30:33.945Z</time>
      </trkpt>
      <trkpt lat="44.64269" lon="3.41388">
        <ele>1074.389488</ele>
        <time>2020-03-09T02:30:34.726Z</time>
      </trkpt>
      <trkpt lat="44.64281" lon="3.41368">
        <ele>1073.741616</ele>
        <time>2020-03-09T02:30:36.597Z</time>
      </trkpt>
      <trkpt lat="44.64339" lon="3.41334">
        <ele>1071.542003</ele>
        <time>2020-03-09T02:30:42.837Z</time>
      </trkpt>
      <trkpt lat="44.64408" lon="3.41321">
        <ele>1069.10211</ele>
        <time>2020-03-09T02:30:49.634Z</time>
      </trkpt>
      <trkpt lat="44.64458" lon="3.41316">
        <ele>1067.382858</ele>
        <time>2020-03-09T02:30:54.648Z</time>
      </trkpt>
      <trkpt lat="44.6449" lon="3.41313">
        <ele>1066.272706</ele>
        <time>2020-03-09T02:30:57.883Z</time>
      </trkpt>
      <trkpt lat="44.64505" lon="3.41326">
        <ele>1065.679553</ele>
        <time>2020-03-09T02:30:59.627Z</time>
      </trkpt>
      <trkpt lat="44.64513" lon="3.4135">
        <ele>1065.04387</ele>
        <time>2020-03-09T02:31:01.475Z</time>
      </trkpt>
      <trkpt lat="44.64509" lon="3.41379">
        <ele>1064.335902</ele>
        <time>2020-03-09T02:31:03.560Z</time>
      </trkpt>
      <trkpt lat="44.64496" lon="3.41419">
        <ele>1063.254235</ele>
        <time>2020-03-09T02:31:06.739Z</time>
      </trkpt>
      <trkpt lat="44.64467" lon="3.41478">
        <ele>1062.101227</ele>
        <time>2020-03-09T02:31:11.970Z</time>
      </trkpt>
      <trkpt lat="44.64463" lon="3.41504">
        <ele>1061.813822</ele>
        <time>2020-03-09T02:31:14.042Z</time>
      </trkpt>
      <trkpt lat="44.64472" lon="3.4152">
        <ele>1061.59204</ele>
        <time>2020-03-09T02:31:15.668Z</time>
      </trkpt>
      <trkpt lat="44.64489" lon="3.41529">
        <ele>1061.321571</ele>
        <time>2020-03-09T02:31:17.699Z</time>
      </trkpt>
      <trkpt lat="44.64546" lon="3.41544">
        <ele>1060.433607</ele>
        <time>2020-03-09T02:31:24.674Z</time>
      </trkpt>
      <trkpt lat="44.64603" lon="3.41605">
        <ele>1059.993352</ele>
        <time>2020-03-09T02:31:34.441Z</time>
      </trkpt>
      <trkpt lat="44.6462" lon="3.41613">
        <ele>1060.080358</ele>
        <time>2020-03-09T02:31:37.255Z</time>
      </trkpt>
      <trkpt lat="44.64686" lon="3.41602">
        <ele>1060.396107</ele>
        <time>2020-03-09T02:31:48.275Z</time>
      </trkpt>
      <trkpt lat="44.64702" lon="3.41618">
        <ele>1060.489999</ele>
        <time>2020-03-09T02:31:51.779Z</time>
      </trkpt>
      <trkpt lat="44.64775" lon="3.41731">
        <ele>1061.291165</ele>
        <time>2020-03-09T02:32:13.758Z</time>
      </trkpt>
      <trkpt lat="44.64773" lon="3.4175">
        <ele>1061.409732</ele>
        <time>2020-03-09T02:32:16.642Z</time>
      </trkpt>
      <trkpt lat="44.6473" lon="3.41859">
        <ele>1062.216955</ele>
        <time>2020-03-09T02:32:33.003Z</time>
      </trkpt>
      <trkpt lat="44.64714" lon="3.41922">
        <ele>1061.877772</ele>
        <time>2020-03-09T02:32:40.025Z</time>
      </trkpt>
      <trkpt lat="44.64706" lon="3.41995">
        <ele>1061.21484</ele>
        <time>2020-03-09T02:32:46.397Z</time>
      </trkpt>
      <trkpt lat="44.64707" lon="3.42048">
        <ele>1060.739552</ele>
        <time>2020-03-09T02:32:50.660Z</time>
      </trkpt>
      <trkpt lat="44.64733" lon="3.42177">
        <ele>1059.297594</ele>
        <time>2020-03-09T02:33:00.895Z</time>
      </trkpt>
      <trkpt lat="44.64734" lon="3.4223">
        <ele>1058.610601</ele>
        <time>2020-03-09T02:33:04.881Z</time>
      </trkpt>
      <trkpt lat="44.64695" lon="3.4249">
        <ele>1055.97482</ele>
        <time>2020-03-09T02:33:27.039Z</time>
      </trkpt>
      <trkpt lat="44.64681" lon="3.42537">
        <ele>1055.649907</ele>
        <time>2020-03-09T02:33:31.521Z</time>
      </trkpt>
      <trkpt lat="44.64678" lon="3.42546">
        <ele>1055.59089</ele>
        <time>2020-03-09T02:33:32.258Z</time>
      </trkpt>
      <trkpt lat="44.64667" lon="3.42595">
        <ele>1055.25692</ele>
        <time>2020-03-09T02:33:37.329Z</time>
      </trkpt>
      <trkpt lat="44.64661" lon="3.42624">
        <ele>1055.281381</ele>
        <time>2020-03-09T02:33:40.368Z</time>
      </trkpt>
      <trkpt lat="44.64663" lon="3.42641">
        <ele>1055.448172</ele>
        <time>2020-03-09T02:33:42.199Z</time>
      </trkpt>
      <trkpt lat="44.64665" lon="3.42659">
        <ele>1055.622529</ele>
        <time>2020-03-09T02:33:44.427Z</time>
      </trkpt>
      <trkpt lat="44.64664" lon="3.42671">
        <ele>1055.745058</ele>
        <time>2020-03-09T02:33:45.941Z</time>
      </trkpt>
      <trkpt lat="44.64655" lon="3.42686">
        <ele>1055.930561</ele>
        <time>2020-03-09T02:33:48.356Z</time>
      </trkpt>
      <trkpt lat="44.64642" lon="3.42712">
        <ele>1056.253048</ele>
        <time>2020-03-09T02:33:52.853Z</time>
      </trkpt>
      <trkpt lat="44.64633" lon="3.42746">
        <ele>1056.600172</ele>
        <time>2020-03-09T02:33:57.805Z</time>
      </trkpt>
      <trkpt lat="44.64619" lon="3.42825">
        <ele>1057.400976</ele>
        <time>2020-03-09T02:34:11.211Z</time>
      </trkpt>
      <trkpt lat="44.64609" lon="3.42878">
        <ele>1058.391096</ele>
        <time>2020-03-09T02:34:21.941Z</time>
      </trkpt>
      <trkpt lat="44.64595" lon="3.42966">
        <ele>1060.529466</ele>
        <time>2020-03-09T02:34:40.429Z</time>
      </trkpt>
      <trkpt lat="44.64584" lon="3.43035">
        <ele>1062.218673</ele>
        <time>2020-03-09T02:34:55.346Z</time>
      </trkpt>
      <trkpt lat="44.64575" lon="3.43072">
        <ele>1063.153173</ele>
        <time>2020-03-09T02:35:03.445Z</time>
      </trkpt>
      <trkpt lat="44.6454" lon="3.43151">
        <ele>1064.990694</ele>
        <time>2020-03-09T02:35:21.738Z</time>
      </trkpt>
      <trkpt lat="44.64534" lon="3.43216">
        <ele>1066.209986</ele>
        <time>2020-03-09T02:35:34.004Z</time>
      </trkpt>
      <trkpt lat="44.64504" lon="3.43277">
        <ele>1067.590631</ele>
        <time>2020-03-09T02:35:46.778Z</time>
      </trkpt>
      <trkpt lat="44.64499" lon="3.43306">
        <ele>1068.138922</ele>
        <time>2020-03-09T02:35:51.763Z</time>
      </trkpt>
      <trkpt lat="44.64502" lon="3.43331">
        <ele>1068.458739</ele>
        <time>2020-03-09T02:35:55.859Z</time>
      </trkpt>
      <trkpt lat="44.64584" lon="3.4346">
        <ele>1069.857318</ele>
        <time>2020-03-09T02:36:20.573Z</time>
      </trkpt>
      <trkpt lat="44.64651" lon="3.4354">
        <ele>1070.401399</ele>
        <time>2020-03-09T02:36:34.710Z</time>
      </trkpt>
      <trkpt lat="44.64716" lon="3.43614">
        <ele>1070.430903</ele>
        <time>2020-03-09T02:36:47.174Z</time>
      </trkpt>
      <trkpt lat="44.64735" lon="3.43644">
        <ele>1070.441208</ele>
        <time>2020-03-09T02:36:51.296Z</time>
      </trkpt>
      <trkpt lat="44.64752" lon="3.43714">
        <ele>1070.487108</ele>
        <time>2020-03-09T02:36:58.162Z</time>
      </trkpt>
      <trkpt lat="44.64754" lon="3.43722">
        <ele>1070.495549</ele>
        <time>2020-03-09T02:36:59.326Z</time>
      </trkpt>
      <trkpt lat="44.64771" lon="3.43797">
        <ele>1070.57498</ele>
        <time>2020-03-09T02:37:07.274Z</time>
      </trkpt>
      <trkpt lat="44.64801" lon="3.43869">
        <ele>1070.657981</ele>
        <time>2020-03-09T02:37:17.362Z</time>
      </trkpt>
      <trkpt lat="44.64816" lon="3.43907">
        <ele>1070.701891</ele>
        <time>2020-03-09T02:37:22.621Z</time>
      </trkpt>
      <trkpt lat="44.64835" lon="3.43943">
        <ele>1071.090979</ele>
        <time>2020-03-09T02:37:27.500Z</time>
      </trkpt>
      <trkpt lat="44.64852" lon="3.43963">
        <ele>1071.382124</ele>
        <time>2020-03-09T02:37:31.302Z</time>
      </trkpt>
      <trkpt lat="44.6487" lon="3.43973">
        <ele>1071.622351</ele>
        <time>2020-03-09T02:37:34.842Z</time>
      </trkpt>
      <trkpt lat="44.64891" lon="3.43986">
        <ele>1071.918265</ele>
        <time>2020-03-09T02:37:39.159Z</time>
      </trkpt>
      <trkpt lat="44.64902" lon="3.43998">
        <ele>1072.092065</ele>
        <time>2020-03-09T02:37:42.123Z</time>
      </trkpt>
      <trkpt lat="44.64936" lon="3.44077">
        <ele>1072.930721</ele>
        <time>2020-03-09T02:37:56.825Z</time>
      </trkpt>
      <trkpt lat="44.64955" lon="3.44111">
        <ele>1073.76457</ele>
        <time>2020-03-09T02:38:04.346Z</time>
      </trkpt>
      <trkpt lat="44.64971" lon="3.44111">
        <ele>1074.244701</ele>
        <time>2020-03-09T02:38:08.570Z</time>
      </trkpt>
      <trkpt lat="44.6502" lon="3.4407">
        <ele>1075.931529</ele>
        <time>2020-03-09T02:38:23.236Z</time>
      </trkpt>
      <trkpt lat="44.65055" lon="3.4403">
        <ele>1077.267844</ele>
        <time>2020-03-09T02:38:35.277Z</time>
      </trkpt>
      <trkpt lat="44.65108" lon="3.43999">
        <ele>1079.291268</ele>
        <time>2020-03-09T02:38:52.496Z</time>
      </trkpt>
      <trkpt lat="44.65151" lon="3.43979">
        <ele>1081.298212</ele>
        <time>2020-03-09T02:39:07.370Z</time>
      </trkpt>
      <trkpt lat="44.65161" lon="3.4398">
        <ele>1081.74607</ele>
        <time>2020-03-09T02:39:10.779Z</time>
      </trkpt>
      <trkpt lat="44.65182" lon="3.44005">
        <ele>1082.955513</ele>
        <time>2020-03-09T02:39:19.863Z</time>
      </trkpt>
      <trkpt lat="44.65202" lon="3.4404">
        <ele>1084.349334</ele>
        <time>2020-03-09T02:39:30.391Z</time>
      </trkpt>
      <trkpt lat="44.65236" lon="3.44073">
        <ele>1086.193645</ele>
        <time>2020-03-09T02:39:44.519Z</time>
      </trkpt>
      <trkpt lat="44.65273" lon="3.44102">
        <ele>1088.011628</ele>
        <time>2020-03-09T02:39:58.785Z</time>
      </trkpt>
      <trkpt lat="44.653" lon="3.44134">
        <ele>1089.48992</ele>
        <time>2020-03-09T02:40:10.510Z</time>
      </trkpt>
      <trkpt lat="44.65325" lon="3.44151">
        <ele>1090.677445</ele>
        <time>2020-03-09T02:40:20.004Z</time>
      </trkpt>
      <trkpt lat="44.65438" lon="3.44117">
        <ele>1094.980602</ele>
        <time>2020-03-09T02:40:54.145Z</time>
      </trkpt>
      <trkpt lat="44.65479" lon="3.44115">
        <ele>1096.067421</ele>
        <time>2020-03-09T02:41:04.734Z</time>
      </trkpt>
      <trkpt lat="44.65609" lon="3.44144">
        <ele>1099.396073</ele>
        <time>2020-03-09T02:41:36.088Z</time>
      </trkpt>
      <trkpt lat="44.65634" lon="3.44145">
        <ele>1099.889703</ele>
        <time>2020-03-09T02:41:41.691Z</time>
      </trkpt>
      <trkpt lat="44.65685" lon="3.44129">
        <ele>1100.904256</ele>
        <time>2020-03-09T02:41:53.071Z</time>
      </trkpt>
      <trkpt lat="44.65726" lon="3.44107">
        <ele>1101.764053</ele>
        <time>2020-03-09T02:42:02.904Z</time>
      </trkpt>
      <trkpt lat="44.65817" lon="3.44112">
        <ele>1103.668148</ele>
        <time>2020-03-09T02:42:23.899Z</time>
      </trkpt>
      <trkpt lat="44.65847" lon="3.44125">
        <ele>1104.338011</ele>
        <time>2020-03-09T02:42:31.324Z</time>
      </trkpt>
      <trkpt lat="44.65869" lon="3.44152">
        <ele>1104.958756</ele>
        <time>2020-03-09T02:42:38.268Z</time>
      </trkpt>
      <trkpt lat="44.65891" lon="3.44197">
        <ele>1105.795137</ele>
        <time>2020-03-09T02:42:47.626Z</time>
      </trkpt>
      <trkpt lat="44.65904" lon="3.4424">
        <ele>1106.444733</ele>
        <time>2020-03-09T02:42:55.383Z</time>
      </trkpt>
      <trkpt lat="44.65909" lon="3.44304">
        <ele>1107.277072</ele>
        <time>2020-03-09T02:43:05.914Z</time>
      </trkpt>
      <trkpt lat="44.65924" lon="3.44368">
        <ele>1108.134782</ele>
        <time>2020-03-09T02:43:16.313Z</time>
      </trkpt>
      <trkpt lat="44.65969" lon="3.44459">
        <ele>1109.609627</ele>
        <time>2020-03-09T02:43:32.948Z</time>
      </trkpt>
      <trkpt lat="44.66011" lon="3.44528">
        <ele>1111.095626</ele>
        <time>2020-03-09T02:43:46.802Z</time>
      </trkpt>
      <trkpt lat="44.66033" lon="3.44545">
        <ele>1111.673815</ele>
        <time>2020-03-09T02:43:52.419Z</time>
      </trkpt>
      <trkpt lat="44.66099" lon="3.44547">
        <ele>1113.219314</ele>
        <time>2020-03-09T02:44:09.020Z</time>
      </trkpt>
      <trkpt lat="44.66127" lon="3.44564">
        <ele>1114.237221</ele>
        <time>2020-03-09T02:44:17.478Z</time>
      </trkpt>
      <trkpt lat="44.66183" lon="3.44665">
        <ele>1118.228201</ele>
        <time>2020-03-09T02:44:46.874Z</time>
      </trkpt>
      <trkpt lat="44.66193" lon="3.44704">
        <ele>1119.503386</ele>
        <time>2020-03-09T02:44:57.015Z</time>
      </trkpt>
      <trkpt lat="44.66201" lon="3.44776">
        <ele>1121.681069</ele>
        <time>2020-03-09T02:45:15.676Z</time>
      </trkpt>
      <trkpt lat="44.66233" lon="3.44819">
        <ele>1123.025108</ele>
        <time>2020-03-09T02:45:31.456Z</time>
      </trkpt>
      <trkpt lat="44.66247" lon="3.44857">
        <ele>1123.940934</ele>
        <time>2020-03-09T02:45:40.584Z</time>
      </trkpt>
      <trkpt lat="44.66254" lon="3.44914">
        <ele>1125.189206</ele>
        <time>2020-03-09T02:45:51.808Z</time>
      </trkpt>
      <trkpt lat="44.66248" lon="3.44986">
        <ele>1126.73634</ele>
        <time>2020-03-09T02:46:01.971Z</time>
      </trkpt>
      <trkpt lat="44.66251" lon="3.44999">
        <ele>1126.799072</ele>
        <time>2020-03-09T02:46:03.443Z</time>
      </trkpt>
      <trkpt lat="44.66231" lon="3.45009">
        <ele>1126.581201</ele>
        <time>2020-03-09T02:46:06.818Z</time>
      </trkpt>
      <trkpt lat="44.66232" lon="3.45035">
        <ele>1126.390995</ele>
        <time>2020-03-09T02:46:09.997Z</time>
      </trkpt>
      <trkpt lat="44.66269" lon="3.45097">
        <ele>1125.794522</ele>
        <time>2020-03-09T02:46:20.110Z</time>
      </trkpt>
      <trkpt lat="44.6628" lon="3.45114">
        <ele>1125.618089</ele>
        <time>2020-03-09T02:46:22.706Z</time>
      </trkpt>
      <trkpt lat="44.66284" lon="3.45119">
        <ele>1125.57154</ele>
        <time>2020-03-09T02:46:23.438Z</time>
      </trkpt>
      <trkpt lat="44.66303" lon="3.45149">
        <ele>1125.271773</ele>
        <time>2020-03-09T02:46:27.979Z</time>
      </trkpt>
      <trkpt lat="44.66327" lon="3.45175">
        <ele>1124.949041</ele>
        <time>2020-03-09T02:46:32.544Z</time>
      </trkpt>
      <trkpt lat="44.66342" lon="3.45185">
        <ele>1124.698396</ele>
        <time>2020-03-09T02:46:35.091Z</time>
      </trkpt>
      <trkpt lat="44.66348" lon="3.4519">
        <ele>1124.593455</ele>
        <time>2020-03-09T02:46:36.291Z</time>
      </trkpt>
      <trkpt lat="44.66442" lon="3.4523">
        <ele>1123.127107</ele>
        <time>2020-03-09T02:46:52.419Z</time>
      </trkpt>
      <trkpt lat="44.66468" lon="3.45235">
        <ele>1122.741273</ele>
        <time>2020-03-09T02:46:56.943Z</time>
      </trkpt>
      <trkpt lat="44.66616" lon="3.45222">
        <ele>1121.075751</ele>
        <time>2020-03-09T02:47:23.157Z</time>
      </trkpt>
      <trkpt lat="44.66633" lon="3.45233">
        <ele>1120.88035</ele>
        <time>2020-03-09T02:47:26.293Z</time>
      </trkpt>
      <trkpt lat="44.66662" lon="3.45251">
        <ele>1120.553763</ele>
        <time>2020-03-09T02:47:31.673Z</time>
      </trkpt>
      <trkpt lat="44.66685" lon="3.45258">
        <ele>1120.183237</ele>
        <time>2020-03-09T02:47:35.535Z</time>
      </trkpt>
      <trkpt lat="44.66745" lon="3.4526">
        <ele>1119.000138</ele>
        <time>2020-03-09T02:47:45.336Z</time>
      </trkpt>
      <trkpt lat="44.66771" lon="3.45252">
        <ele>1118.480266</ele>
        <time>2020-03-09T02:47:49.575Z</time>
      </trkpt>
      <trkpt lat="44.66818" lon="3.45218">
        <ele>1117.432961</ele>
        <time>2020-03-09T02:47:57.758Z</time>
      </trkpt>
      <trkpt lat="44.66867" lon="3.45205">
        <ele>1116.207897</ele>
        <time>2020-03-09T02:48:05.272Z</time>
      </trkpt>
      <trkpt lat="44.66897" lon="3.45207">
        <ele>1115.31556</ele>
        <time>2020-03-09T02:48:09.799Z</time>
      </trkpt>
      <trkpt lat="44.66925" lon="3.45218">
        <ele>1114.455879</ele>
        <time>2020-03-09T02:48:14.133Z</time>
      </trkpt>
      <trkpt lat="44.66953" lon="3.45237">
        <ele>1113.532162</ele>
        <time>2020-03-09T02:48:18.740Z</time>
      </trkpt>
      <trkpt lat="44.66972" lon="3.4526">
        <ele>1112.772327</ele>
        <time>2020-03-09T02:48:22.478Z</time>
      </trkpt>
      <trkpt lat="44.67" lon="3.4532">
        <ele>1111.404529</ele>
        <time>2020-03-09T02:48:29.849Z</time>
      </trkpt>
      <trkpt lat="44.67017" lon="3.45344">
        <ele>1111.025118</ele>
        <time>2020-03-09T02:48:33.283Z</time>
      </trkpt>
      <trkpt lat="44.67039" lon="3.45361">
        <ele>1110.635948</ele>
        <time>2020-03-09T02:48:36.812Z</time>
      </trkpt>
      <trkpt lat="44.67062" lon="3.45368">
        <ele>1110.258604</ele>
        <time>2020-03-09T02:48:40.192Z</time>
      </trkpt>
      <trkpt lat="44.6709" lon="3.45361">
        <ele>1109.811484</ele>
        <time>2020-03-09T02:48:45.005Z</time>
      </trkpt>
      <trkpt lat="44.67168" lon="3.45318">
        <ele>1109.213841</ele>
        <time>2020-03-09T02:49:01.957Z</time>
      </trkpt>
      <trkpt lat="44.67193" lon="3.45329">
        <ele>1110.082939</ele>
        <time>2020-03-09T02:49:10.702Z</time>
      </trkpt>
      <trkpt lat="44.67197" lon="3.45332">
        <ele>1110.209903</ele>
        <time>2020-03-09T02:49:11.379Z</time>
      </trkpt>
      <trkpt lat="44.67226" lon="3.45357">
        <ele>1111.302246</ele>
        <time>2020-03-09T02:49:22.688Z</time>
      </trkpt>
      <trkpt lat="44.67249" lon="3.45385">
        <ele>1112.29843</ele>
        <time>2020-03-09T02:49:33.396Z</time>
      </trkpt>
      <trkpt lat="44.67262" lon="3.45413">
        <ele>1113.063067</ele>
        <time>2020-03-09T02:49:41.216Z</time>
      </trkpt>
      <trkpt lat="44.67271" lon="3.45441">
        <ele>1113.772305</ele>
        <time>2020-03-09T02:49:49.912Z</time>
      </trkpt>
      <trkpt lat="44.67294" lon="3.45449">
        <ele>1114.561308</ele>
        <time>2020-03-09T02:50:00.120Z</time>
      </trkpt>
      <trkpt lat="44.67313" lon="3.45476">
        <ele>1115.8091</ele>
        <time>2020-03-09T02:50:10.975Z</time>
      </trkpt>
      <trkpt lat="44.67319" lon="3.45522">
        <ele>1117.349489</ele>
        <time>2020-03-09T02:50:25.214Z</time>
      </trkpt>
      <trkpt lat="44.67332" lon="3.45547">
        <ele>1118.362718</ele>
        <time>2020-03-09T02:50:34.545Z</time>
      </trkpt>
      <trkpt lat="44.6735" lon="3.45561">
        <ele>1119.340956</ele>
        <time>2020-03-09T02:50:42.519Z</time>
      </trkpt>
      <trkpt lat="44.67372" lon="3.45568">
        <ele>1120.375961</ele>
        <time>2020-03-09T02:50:51.548Z</time>
      </trkpt>
      <trkpt lat="44.67429" lon="3.45548">
        <ele>1123.09667</ele>
        <time>2020-03-09T02:51:11.466Z</time>
      </trkpt>
      <trkpt lat="44.67465" lon="3.45554">
        <ele>1124.562517</ele>
        <time>2020-03-09T02:51:24.325Z</time>
      </trkpt>
      <trkpt lat="44.67475" lon="3.45563">
        <ele>1125.0332</ele>
        <time>2020-03-09T02:51:28.839Z</time>
      </trkpt>
      <trkpt lat="44.67513" lon="3.45633">
        <ele>1127.610333</ele>
        <time>2020-03-09T02:51:54.747Z</time>
      </trkpt>
      <trkpt lat="44.6758" lon="3.45692">
        <ele>1130.198433</ele>
        <time>2020-03-09T02:52:21.754Z</time>
      </trkpt>
      <trkpt lat="44.67591" lon="3.45704">
        <ele>1130.145486</ele>
        <time>2020-03-09T02:52:27.195Z</time>
      </trkpt>
      <trkpt lat="44.67594" lon="3.45707">
        <ele>1130.130294</ele>
        <time>2020-03-09T02:52:28.225Z</time>
      </trkpt>
      <trkpt lat="44.67599" lon="3.45711">
        <ele>1130.111265</ele>
        <time>2020-03-09T02:52:29.222Z</time>
      </trkpt>
      <trkpt lat="44.67616" lon="3.45741">
        <ele>1130.010544</ele>
        <time>2020-03-09T02:52:36.904Z</time>
      </trkpt>
      <trkpt lat="44.67661" lon="3.45784">
        <ele>1129.810722</ele>
        <time>2020-03-09T02:52:46.882Z</time>
      </trkpt>
      <trkpt lat="44.67736" lon="3.45831">
        <ele>1128.317495</ele>
        <time>2020-03-09T02:52:59.049Z</time>
      </trkpt>
      <trkpt lat="44.67754" lon="3.45836">
        <ele>1127.257661</ele>
        <time>2020-03-09T02:53:01.449Z</time>
      </trkpt>
      <trkpt lat="44.67859" lon="3.45799">
        <ele>1120.950135</ele>
        <time>2020-03-09T02:53:15.477Z</time>
      </trkpt>
      <trkpt lat="44.67906" lon="3.45767">
        <ele>1117.684062</ele>
        <time>2020-03-09T02:53:22.093Z</time>
      </trkpt>
      <trkpt lat="44.67957" lon="3.4572">
        <ele>1113.485408</ele>
        <time>2020-03-09T02:53:29.998Z</time>
      </trkpt>
      <trkpt lat="44.6796" lon="3.45718">
        <ele>1113.304044</ele>
        <time>2020-03-09T02:53:30.314Z</time>
      </trkpt>
      <trkpt lat="44.68011" lon="3.4567">
        <ele>1109.114178</ele>
        <time>2020-03-09T02:53:38.283Z</time>
      </trkpt>
      <trkpt lat="44.68028" lon="3.45662">
        <ele>1107.869019</ele>
        <time>2020-03-09T02:53:40.613Z</time>
      </trkpt>
      <trkpt lat="44.68045" lon="3.4567">
        <ele>1106.669414</ele>
        <time>2020-03-09T02:53:43.043Z</time>
      </trkpt>
      <trkpt lat="44.6806" lon="3.45694">
        <ele>1105.518658</ele>
        <time>2020-03-09T02:53:45.961Z</time>
      </trkpt>
      <trkpt lat="44.68065" lon="3.45715">
        <ele>1104.720456</ele>
        <time>2020-03-09T02:53:48.059Z</time>
      </trkpt>
      <trkpt lat="44.68066" lon="3.45761">
        <ele>1103.029937</ele>
        <time>2020-03-09T02:53:52.411Z</time>
      </trkpt>
      <trkpt lat="44.68058" lon="3.45801">
        <ele>1101.527373</ele>
        <time>2020-03-09T02:53:56.443Z</time>
      </trkpt>
      <trkpt lat="44.68068" lon="3.45846">
        <ele>1099.838288</ele>
        <time>2020-03-09T02:54:01.055Z</time>
      </trkpt>
      <trkpt lat="44.68067" lon="3.45884">
        <ele>1098.44934</ele>
        <time>2020-03-09T02:54:04.906Z</time>
      </trkpt>
      <trkpt lat="44.68048" lon="3.45917">
        <ele>1097.054615</ele>
        <time>2020-03-09T02:54:09.079Z</time>
      </trkpt>
      <trkpt lat="44.68046" lon="3.45929">
        <ele>1096.720191</ele>
        <time>2020-03-09T02:54:10.274Z</time>
      </trkpt>
      <trkpt lat="44.68052" lon="3.45966">
        <ele>1095.643428</ele>
        <time>2020-03-09T02:54:13.966Z</time>
      </trkpt>
      <trkpt lat="44.68037" lon="3.46006">
        <ele>1094.397652</ele>
        <time>2020-03-09T02:54:18.334Z</time>
      </trkpt>
      <trkpt lat="44.68045" lon="3.46026">
        <ele>1093.753027</ele>
        <time>2020-03-09T02:54:20.688Z</time>
      </trkpt>
      <trkpt lat="44.68079" lon="3.4606">
        <ele>1092.113921</ele>
        <time>2020-03-09T02:54:26.604Z</time>
      </trkpt>
      <trkpt lat="44.68086" lon="3.46064">
        <ele>1091.853461</ele>
        <time>2020-03-09T02:54:27.500Z</time>
      </trkpt>
      <trkpt lat="44.68092" lon="3.46067">
        <ele>1091.563323</ele>
        <time>2020-03-09T02:54:28.591Z</time>
      </trkpt>
      <trkpt lat="44.68105" lon="3.46074">
        <ele>1091.038727</ele>
        <time>2020-03-09T02:54:30.664Z</time>
      </trkpt>
      <trkpt lat="44.68111" lon="3.46076">
        <ele>1090.800277</ele>
        <time>2020-03-09T02:54:31.474Z</time>
      </trkpt>
      <trkpt lat="44.68133" lon="3.46082">
        <ele>1090.208386</ele>
        <time>2020-03-09T02:54:34.883Z</time>
      </trkpt>
      <trkpt lat="44.68204" lon="3.46061">
        <ele>1088.764834</ele>
        <time>2020-03-09T02:54:45.827Z</time>
      </trkpt>
      <trkpt lat="44.68228" lon="3.46069">
        <ele>1088.278957</ele>
        <time>2020-03-09T02:54:49.517Z</time>
      </trkpt>
      <trkpt lat="44.68292" lon="3.46136">
        <ele>1086.687038</ele>
        <time>2020-03-09T02:55:04.064Z</time>
      </trkpt>
      <trkpt lat="44.68365" lon="3.46175">
        <ele>1085.136256</ele>
        <time>2020-03-09T02:55:17.590Z</time>
      </trkpt>
      <trkpt lat="44.6841" lon="3.46211">
        <ele>1084.101378</ele>
        <time>2020-03-09T02:55:25.614Z</time>
      </trkpt>
      <trkpt lat="44.68442" lon="3.46265">
        <ele>1082.616643</ele>
        <time>2020-03-09T02:55:32.878Z</time>
      </trkpt>
      <trkpt lat="44.68455" lon="3.46303">
        <ele>1080.83723</ele>
        <time>2020-03-09T02:55:37.144Z</time>
      </trkpt>
      <trkpt lat="44.68447" lon="3.46413">
        <ele>1076.245277</ele>
        <time>2020-03-09T02:55:47.234Z</time>
      </trkpt>
      <trkpt lat="44.68462" lon="3.46441">
        <ele>1074.785975</ele>
        <time>2020-03-09T02:55:50.352Z</time>
      </trkpt>
      <trkpt lat="44.68509" lon="3.46441">
        <ele>1072.455131</ele>
        <time>2020-03-09T02:55:56.519Z</time>
      </trkpt>
      <trkpt lat="44.68519" lon="3.46438">
        <ele>1072.17305</ele>
        <time>2020-03-09T02:55:57.824Z</time>
      </trkpt>
      <trkpt lat="44.68519" lon="3.46423">
        <ele>1071.889664</ele>
        <time>2020-03-09T02:55:59.435Z</time>
      </trkpt>
      <trkpt lat="44.68518" lon="3.46406">
        <ele>1071.585205</ele>
        <time>2020-03-09T02:56:01.166Z</time>
      </trkpt>
      <trkpt lat="44.6852" lon="3.46377">
        <ele>1071.039627</ele>
        <time>2020-03-09T02:56:03.913Z</time>
      </trkpt>
      <trkpt lat="44.68522" lon="3.46362">
        <ele>1070.74836</ele>
        <time>2020-03-09T02:56:05.705Z</time>
      </trkpt>
      <trkpt lat="44.68527" lon="3.46352">
        <ele>1070.532617</ele>
        <time>2020-03-09T02:56:06.890Z</time>
      </trkpt>
      <trkpt lat="44.6858" lon="3.46314">
        <ele>1068.988313</ele>
        <time>2020-03-09T02:56:16.050Z</time>
      </trkpt>
      <trkpt lat="44.68642" lon="3.4628">
        <ele>1070.361267</ele>
        <time>2020-03-09T02:56:34.879Z</time>
      </trkpt>
      <trkpt lat="44.68674" lon="3.46271">
        <ele>1072.535562</ele>
        <time>2020-03-09T02:56:48.692Z</time>
      </trkpt>
      <trkpt lat="44.68725" lon="3.4628">
        <ele>1075.986374</ele>
        <time>2020-03-09T02:57:14.667Z</time>
      </trkpt>
      <trkpt lat="44.68798" lon="3.46254">
        <ele>1081.741798</ele>
        <time>2020-03-09T02:57:58.986Z</time>
      </trkpt>
      <trkpt lat="44.68854" lon="3.4625">
        <ele>1088.541176</ele>
        <time>2020-03-09T02:58:36.692Z</time>
      </trkpt>
      <trkpt lat="44.68904" lon="3.46235">
        <ele>1094.680078</ele>
        <time>2020-03-09T02:59:12.864Z</time>
      </trkpt>
      <trkpt lat="44.68927" lon="3.46235">
        <ele>1097.551495</ele>
        <time>2020-03-09T02:59:30.122Z</time>
      </trkpt>
      <trkpt lat="44.69011" lon="3.46262">
        <ele>1107.274982</ele>
        <time>2020-03-09T03:00:33.318Z</time>
      </trkpt>
      <trkpt lat="44.69071" lon="3.46269">
        <ele>1113.707968</ele>
        <time>2020-03-09T03:01:14.351Z</time>
      </trkpt>
      <trkpt lat="44.69088" lon="3.46282">
        <ele>1115.788227</ele>
        <time>2020-03-09T03:01:27.161Z</time>
      </trkpt>
      <trkpt lat="44.69112" lon="3.46284">
        <ele>1118.311925</ele>
        <time>2020-03-09T03:01:38.609Z</time>
      </trkpt>
      <trkpt lat="44.69146" lon="3.46271">
        <ele>1121.54511</ele>
        <time>2020-03-09T03:01:56.186Z</time>
      </trkpt>
      <trkpt lat="44.69157" lon="3.46256">
        <ele>1122.194343</ele>
        <time>2020-03-09T03:02:05.162Z</time>
      </trkpt>
      <trkpt lat="44.69137" lon="3.46237">
        <ele>1123.21205</ele>
        <time>2020-03-09T03:02:11.976Z</time>
      </trkpt>
      <trkpt lat="44.69043" lon="3.46183">
        <ele>1127.587184</ele>
        <time>2020-03-09T03:02:41.611Z</time>
      </trkpt>
      <trkpt lat="44.69026" lon="3.46168">
        <ele>1128.458556</ele>
        <time>2020-03-09T03:02:48.422Z</time>
      </trkpt>
      <trkpt lat="44.68996" lon="3.46125">
        <ele>1130.061709</ele>
        <time>2020-03-09T03:02:56.477Z</time>
      </trkpt>
      <trkpt lat="44.68977" lon="3.46074">
        <ele>1131.540636</ele>
        <time>2020-03-09T03:03:07.558Z</time>
      </trkpt>
      <trkpt lat="44.68981" lon="3.46011">
        <ele>1133.128195</ele>
        <time>2020-03-09T03:03:21.607Z</time>
      </trkpt>
      <trkpt lat="44.69" lon="3.4599">
        <ele>1134.007926</ele>
        <time>2020-03-09T03:03:29.553Z</time>
      </trkpt>
      <trkpt lat="44.69084" lon="3.45949">
        <ele>1136.776309</ele>
        <time>2020-03-09T03:03:58.241Z</time>
      </trkpt>
      <trkpt lat="44.69114" lon="3.45953">
        <ele>1137.622283</ele>
        <time>2020-03-09T03:04:07.314Z</time>
      </trkpt>
      <trkpt lat="44.6921" lon="3.45999">
        <ele>1140.347065</ele>
        <time>2020-03-09T03:04:31.440Z</time>
      </trkpt>
      <trkpt lat="44.69238" lon="3.45994">
        <ele>1140.140367</ele>
        <time>2020-03-09T03:04:35.530Z</time>
      </trkpt>
      <trkpt lat="44.69238" lon="3.45994">
        <ele>1140.138071</ele>
        <time>2020-03-09T03:04:35.558Z</time>
      </trkpt>
      <trkpt lat="44.69251" lon="3.45975">
        <ele>1139.997853</ele>
        <time>2020-03-09T03:04:37.943Z</time>
      </trkpt>
      <trkpt lat="44.6926" lon="3.45926">
        <ele>1139.729342</ele>
        <time>2020-03-09T03:04:42.082Z</time>
      </trkpt>
      <trkpt lat="44.69271" lon="3.45904">
        <ele>1139.589998</ele>
        <time>2020-03-09T03:04:44.184Z</time>
      </trkpt>
      <trkpt lat="44.69288" lon="3.45891">
        <ele>1139.445525</ele>
        <time>2020-03-09T03:04:46.357Z</time>
      </trkpt>
      <trkpt lat="44.69386" lon="3.45887">
        <ele>1139.93276</ele>
        <time>2020-03-09T03:04:57.844Z</time>
      </trkpt>
      <trkpt lat="44.69419" lon="3.45872">
        <ele>1140.629882</ele>
        <time>2020-03-09T03:05:04.208Z</time>
      </trkpt>
      <trkpt lat="44.6947" lon="3.45818">
        <ele>1141.946512</ele>
        <time>2020-03-09T03:05:20.671Z</time>
      </trkpt>
      <trkpt lat="44.69492" lon="3.45812">
        <ele>1142.398473</ele>
        <time>2020-03-09T03:05:26.687Z</time>
      </trkpt>
      <trkpt lat="44.69501" lon="3.45837">
        <ele>1143.044246</ele>
        <time>2020-03-09T03:05:36.720Z</time>
      </trkpt>
      <trkpt lat="44.69522" lon="3.45872">
        <ele>1145.401191</ele>
        <time>2020-03-09T03:05:51.485Z</time>
      </trkpt>
      <trkpt lat="44.69534" lon="3.45879">
        <ele>1146.344836</ele>
        <time>2020-03-09T03:05:57.105Z</time>
      </trkpt>
      <trkpt lat="44.69604" lon="3.45876">
        <ele>1151.544075</ele>
        <time>2020-03-09T03:06:34.512Z</time>
      </trkpt>
      <trkpt lat="44.69674" lon="3.45918">
        <ele>1156.964146</ele>
        <time>2020-03-09T03:07:16.046Z</time>
      </trkpt>
      <trkpt lat="44.69734" lon="3.45919">
        <ele>1160.720118</ele>
        <time>2020-03-09T03:07:44.272Z</time>
      </trkpt>
      <trkpt lat="44.69832" lon="3.45891">
        <ele>1167.020678</ele>
        <time>2020-03-09T03:08:25.565Z</time>
      </trkpt>
      <trkpt lat="44.69854" lon="3.45894">
        <ele>1168.357852</ele>
        <time>2020-03-09T03:08:35.098Z</time>
      </trkpt>
      <trkpt lat="44.69862" lon="3.45903">
        <ele>1168.95034</ele>
        <time>2020-03-09T03:08:39.435Z</time>
      </trkpt>
      <trkpt lat="44.69906" lon="3.46009">
        <ele>1174.162215</ele>
        <time>2020-03-09T03:09:18.372Z</time>
      </trkpt>
      <trkpt lat="44.69917" lon="3.46022">
        <ele>1175.021187</ele>
        <time>2020-03-09T03:09:24.363Z</time>
      </trkpt>
      <trkpt lat="44.69925" lon="3.46027">
        <ele>1175.546446</ele>
        <time>2020-03-09T03:09:30.001Z</time>
      </trkpt>
      <trkpt lat="44.69933" lon="3.46031">
        <ele>1176.012419</ele>
        <time>2020-03-09T03:09:33.953Z</time>
      </trkpt>
      <trkpt lat="44.69964" lon="3.46045">
        <ele>1177.959521</ele>
        <time>2020-03-09T03:09:48.553Z</time>
      </trkpt>
      <trkpt lat="44.69974" lon="3.46056">
        <ele>1178.376067</ele>
        <time>2020-03-09T03:09:53.106Z</time>
      </trkpt>
      <trkpt lat="44.69996" lon="3.46138">
        <ele>1180.240419</ele>
        <time>2020-03-09T03:10:19.212Z</time>
      </trkpt>
      <trkpt lat="44.70008" lon="3.46155">
        <ele>1180.760332</ele>
        <time>2020-03-09T03:10:23.269Z</time>
      </trkpt>
      <trkpt lat="44.70011" lon="3.46161">
        <ele>1180.91458</ele>
        <time>2020-03-09T03:10:27.597Z</time>
      </trkpt>
      <trkpt lat="44.70022" lon="3.46139">
        <ele>1181.508793</ele>
        <time>2020-03-09T03:10:33.098Z</time>
      </trkpt>
      <trkpt lat="44.70049" lon="3.46065">
        <ele>1183.2686</ele>
        <time>2020-03-09T03:10:48.384Z</time>
      </trkpt>
      <trkpt lat="44.70054" lon="3.46062">
        <ele>1183.349276</ele>
        <time>2020-03-09T03:10:49.156Z</time>
      </trkpt>
      <trkpt lat="44.70056" lon="3.46055">
        <ele>1183.14566</ele>
        <time>2020-03-09T03:10:49.917Z</time>
      </trkpt>
      <trkpt lat="44.70129" lon="3.45992">
        <ele>1180.003347</ele>
        <time>2020-03-09T03:11:03.042Z</time>
      </trkpt>
      <trkpt lat="44.70153" lon="3.45964">
        <ele>1178.860318</ele>
        <time>2020-03-09T03:11:07.204Z</time>
      </trkpt>
      <trkpt lat="44.7019" lon="3.45915">
        <ele>1176.955975</ele>
        <time>2020-03-09T03:11:14.003Z</time>
      </trkpt>
      <trkpt lat="44.7021" lon="3.45853">
        <ele>1173.692346</ele>
        <time>2020-03-09T03:11:20.269Z</time>
      </trkpt>
      <trkpt lat="44.70243" lon="3.45828">
        <ele>1171.025644</ele>
        <time>2020-03-09T03:11:25.050Z</time>
      </trkpt>
      <trkpt lat="44.70279" lon="3.45752">
        <ele>1166.354598</ele>
        <time>2020-03-09T03:11:33.336Z</time>
      </trkpt>
      <trkpt lat="44.70283" lon="3.4573">
        <ele>1165.198012</ele>
        <time>2020-03-09T03:11:35.375Z</time>
      </trkpt>
      <trkpt lat="44.7026" lon="3.45646">
        <ele>1160.468168</ele>
        <time>2020-03-09T03:11:43.389Z</time>
      </trkpt>
      <trkpt lat="44.70265" lon="3.45616">
        <ele>1158.816938</ele>
        <time>2020-03-09T03:11:46.145Z</time>
      </trkpt>
      <trkpt lat="44.70308" lon="3.45551">
        <ele>1154.044022</ele>
        <time>2020-03-09T03:11:54.143Z</time>
      </trkpt>
      <trkpt lat="44.70356" lon="3.4553">
        <ele>1150.243171</ele>
        <time>2020-03-09T03:12:00.651Z</time>
      </trkpt>
      <trkpt lat="44.70366" lon="3.45516">
        <ele>1149.347905</ele>
        <time>2020-03-09T03:12:02.502Z</time>
      </trkpt>
      <trkpt lat="44.70377" lon="3.45482">
        <ele>1147.697736</ele>
        <time>2020-03-09T03:12:05.953Z</time>
      </trkpt>
      <trkpt lat="44.70393" lon="3.45458">
        <ele>1146.234575</ele>
        <time>2020-03-09T03:12:09.056Z</time>
      </trkpt>
      <trkpt lat="44.70413" lon="3.45388">
        <ele>1142.847647</ele>
        <time>2020-03-09T03:12:16.166Z</time>
      </trkpt>
      <trkpt lat="44.70448" lon="3.4536">
        <ele>1140.336342</ele>
        <time>2020-03-09T03:12:21.385Z</time>
      </trkpt>
      <trkpt lat="44.70486" lon="3.45356">
        <ele>1137.592314</ele>
        <time>2020-03-09T03:12:26.334Z</time>
      </trkpt>
      <trkpt lat="44.70536" lon="3.45387">
        <ele>1133.031698</ele>
        <time>2020-03-09T03:12:33.574Z</time>
      </trkpt>
      <trkpt lat="44.70539" lon="3.45387">
        <ele>1132.831933</ele>
        <time>2020-03-09T03:12:34.294Z</time>
      </trkpt>
      <trkpt lat="44.70543" lon="3.45386">
        <ele>1132.499273</ele>
        <time>2020-03-09T03:12:34.830Z</time>
      </trkpt>
      <trkpt lat="44.70544" lon="3.45386">
        <ele>1132.374525</ele>
        <time>2020-03-09T03:12:35.025Z</time>
      </trkpt>
      <trkpt lat="44.7055" lon="3.45374">
        <ele>1131.529542</ele>
        <time>2020-03-09T03:12:36.369Z</time>
      </trkpt>
      <trkpt lat="44.70549" lon="3.45363">
        <ele>1130.894905</ele>
        <time>2020-03-09T03:12:37.388Z</time>
      </trkpt>
      <trkpt lat="44.70537" lon="3.4533">
        <ele>1128.737486</ele>
        <time>2020-03-09T03:12:40.657Z</time>
      </trkpt>
      <trkpt lat="44.70505" lon="3.45268">
        <ele>1124.272616</ele>
        <time>2020-03-09T03:12:47.276Z</time>
      </trkpt>
      <trkpt lat="44.70452" lon="3.45198">
        <ele>1117.045076</ele>
        <time>2020-03-09T03:12:56.062Z</time>
      </trkpt>
      <trkpt lat="44.70441" lon="3.45167">
        <ele>1114.610749</ele>
        <time>2020-03-09T03:12:59.147Z</time>
      </trkpt>
      <trkpt lat="44.70438" lon="3.45158">
        <ele>1113.900882</ele>
        <time>2020-03-09T03:12:59.997Z</time>
      </trkpt>
      <trkpt lat="44.70432" lon="3.45144">
        <ele>1112.763866</ele>
        <time>2020-03-09T03:13:01.389Z</time>
      </trkpt>
      <trkpt lat="44.70414" lon="3.45109">
        <ele>1109.711182</ele>
        <time>2020-03-09T03:13:05.138Z</time>
      </trkpt>
      <trkpt lat="44.70415" lon="3.45102">
        <ele>1109.217347</ele>
        <time>2020-03-09T03:13:05.755Z</time>
      </trkpt>
      <trkpt lat="44.70451" lon="3.45037">
        <ele>1104.731946</ele>
        <time>2020-03-09T03:13:13.003Z</time>
      </trkpt>
      <trkpt lat="44.70452" lon="3.44998">
        <ele>1103.130722</ele>
        <time>2020-03-09T03:13:16.640Z</time>
      </trkpt>
      <trkpt lat="44.7046" lon="3.44962">
        <ele>1101.598935</ele>
        <time>2020-03-09T03:13:20.016Z</time>
      </trkpt>
      <trkpt lat="44.70457" lon="3.44951">
        <ele>1101.103994</ele>
        <time>2020-03-09T03:13:21.286Z</time>
      </trkpt>
      <trkpt lat="44.70447" lon="3.44936">
        <ele>1100.262861</ele>
        <time>2020-03-09T03:13:23.198Z</time>
      </trkpt>
      <trkpt lat="44.70436" lon="3.44921">
        <ele>1099.39418</ele>
        <time>2020-03-09T03:13:25.477Z</time>
      </trkpt>
      <trkpt lat="44.7043" lon="3.44891">
        <ele>1098.129947</ele>
        <time>2020-03-09T03:13:28.527Z</time>
      </trkpt>
      <trkpt lat="44.70429" lon="3.44859">
        <ele>1096.835448</ele>
        <time>2020-03-09T03:13:31.983Z</time>
      </trkpt>
      <trkpt lat="44.7044" lon="3.44829">
        <ele>1095.918749</ele>
        <time>2020-03-09T03:13:35.437Z</time>
      </trkpt>
      <trkpt lat="44.70472" lon="3.44811">
        <ele>1095.239766</ele>
        <time>2020-03-09T03:13:40.665Z</time>
      </trkpt>
      <trkpt lat="44.70513" lon="3.44829">
        <ele>1094.395378</ele>
        <time>2020-03-09T03:13:47.477Z</time>
      </trkpt>
      <trkpt lat="44.70524" lon="3.44825">
        <ele>1094.171684</ele>
        <time>2020-03-09T03:13:49.620Z</time>
      </trkpt>
      <trkpt lat="44.70535" lon="3.44804">
        <ele>1093.80557</ele>
        <time>2020-03-09T03:13:52.831Z</time>
      </trkpt>
      <trkpt lat="44.70539" lon="3.44714">
        <ele>1092.576008</ele>
        <time>2020-03-09T03:14:03.271Z</time>
      </trkpt>
      <trkpt lat="44.70545" lon="3.44694">
        <ele>1092.37779</ele>
        <time>2020-03-09T03:14:05.758Z</time>
      </trkpt>
      <trkpt lat="44.70583" lon="3.44655">
        <ele>1091.775596</ele>
        <time>2020-03-09T03:14:13.440Z</time>
      </trkpt>
      <trkpt lat="44.70614" lon="3.44594">
        <ele>1091.092161</ele>
        <time>2020-03-09T03:14:22.119Z</time>
      </trkpt>
      <trkpt lat="44.70662" lon="3.44561">
        <ele>1090.404129</ele>
        <time>2020-03-09T03:14:31.176Z</time>
      </trkpt>
      <trkpt lat="44.7072" lon="3.44539">
        <ele>1091.153315</ele>
        <time>2020-03-09T03:14:43.459Z</time>
      </trkpt>
      <trkpt lat="44.7074" lon="3.44509">
        <ele>1091.630131</ele>
        <time>2020-03-09T03:14:49.877Z</time>
      </trkpt>
      <trkpt lat="44.70747" lon="3.4449">
        <ele>1091.875371</ele>
        <time>2020-03-09T03:14:54.647Z</time>
      </trkpt>
      <trkpt lat="44.70752" lon="3.44467">
        <ele>1092.141263</ele>
        <time>2020-03-09T03:14:57.878Z</time>
      </trkpt>
      <trkpt lat="44.7076" lon="3.4447">
        <ele>1092.267488</ele>
        <time>2020-03-09T03:15:01.361Z</time>
      </trkpt>
      <trkpt lat="44.70942" lon="3.44419">
        <ele>1097.204799</ele>
        <time>2020-03-09T03:15:54.773Z</time>
      </trkpt>
      <trkpt lat="44.70982" lon="3.44381">
        <ele>1098.721812</ele>
        <time>2020-03-09T03:16:07.488Z</time>
      </trkpt>
      <trkpt lat="44.71005" lon="3.44366">
        <ele>1099.057202</ele>
        <time>2020-03-09T03:16:13.627Z</time>
      </trkpt>
      <trkpt lat="44.71071" lon="3.44337">
        <ele>1099.747833</ele>
        <time>2020-03-09T03:16:27.754Z</time>
      </trkpt>
      <trkpt lat="44.71134" lon="3.44318">
        <ele>1100.391975</ele>
        <time>2020-03-09T03:16:37.949Z</time>
      </trkpt>
      <trkpt lat="44.71238" lon="3.44223">
        <ele>1100.912282</ele>
        <time>2020-03-09T03:16:55.169Z</time>
      </trkpt>
      <trkpt lat="44.71285" lon="3.44194">
        <ele>1101.051027</ele>
        <time>2020-03-09T03:17:03.609Z</time>
      </trkpt>
      <trkpt lat="44.71328" lon="3.44173">
        <ele>1101.547427</ele>
        <time>2020-03-09T03:17:12.155Z</time>
      </trkpt>
      <trkpt lat="44.71362" lon="3.44167">
        <ele>1102.465079</ele>
        <time>2020-03-09T03:17:19.361Z</time>
      </trkpt>
      <trkpt lat="44.71515" lon="3.44177">
        <ele>1106.864216</ele>
        <time>2020-03-09T03:18:01.847Z</time>
      </trkpt>
      <trkpt lat="44.71535" lon="3.44186">
        <ele>1107.674664</ele>
        <time>2020-03-09T03:18:08.367Z</time>
      </trkpt>
      <trkpt lat="44.71551" lon="3.44203">
        <ele>1108.498122</ele>
        <time>2020-03-09T03:18:15.234Z</time>
      </trkpt>
      <trkpt lat="44.71567" lon="3.44237">
        <ele>1109.640004</ele>
        <time>2020-03-09T03:18:25.580Z</time>
      </trkpt>
      <trkpt lat="44.71585" lon="3.44302">
        <ele>1111.612779</ele>
        <time>2020-03-09T03:18:42.927Z</time>
      </trkpt>
      <trkpt lat="44.71591" lon="3.4439">
        <ele>1112.910441</ele>
        <time>2020-03-09T03:18:59.947Z</time>
      </trkpt>
      <trkpt lat="44.716" lon="3.44414">
        <ele>1112.794499</ele>
        <time>2020-03-09T03:19:04.037Z</time>
      </trkpt>
      <trkpt lat="44.71634" lon="3.44494">
        <ele>1112.402803</ele>
        <time>2020-03-09T03:19:12.779Z</time>
      </trkpt>
      <trkpt lat="44.71649" lon="3.44507">
        <ele>1112.300669</ele>
        <time>2020-03-09T03:19:14.494Z</time>
      </trkpt>
      <trkpt lat="44.71654" lon="3.44507">
        <ele>1112.269313</ele>
        <time>2020-03-09T03:19:15.182Z</time>
      </trkpt>
      <trkpt lat="44.71662" lon="3.44506">
        <ele>1112.221363</ele>
        <time>2020-03-09T03:19:16.312Z</time>
      </trkpt>
      <trkpt lat="44.71677" lon="3.44504">
        <ele>1112.133974</ele>
        <time>2020-03-09T03:19:17.684Z</time>
      </trkpt>
      <trkpt lat="44.71702" lon="3.44487">
        <ele>1111.872995</ele>
        <time>2020-03-09T03:19:20.640Z</time>
      </trkpt>
      <trkpt lat="44.71718" lon="3.44448">
        <ele>1111.084181</ele>
        <time>2020-03-09T03:19:23.836Z</time>
      </trkpt>
      <trkpt lat="44.71723" lon="3.4443">
        <ele>1110.748959</ele>
        <time>2020-03-09T03:19:25.060Z</time>
      </trkpt>
      <trkpt lat="44.71724" lon="3.44415">
        <ele>1110.468554</ele>
        <time>2020-03-09T03:19:26.351Z</time>
      </trkpt>
      <trkpt lat="44.71728" lon="3.44361">
        <ele>1109.522877</ele>
        <time>2020-03-09T03:19:30.120Z</time>
      </trkpt>
      <trkpt lat="44.71744" lon="3.44291">
        <ele>1108.237444</ele>
        <time>2020-03-09T03:19:35.521Z</time>
      </trkpt>
      <trkpt lat="44.71746" lon="3.44283">
        <ele>1108.08118</ele>
        <time>2020-03-09T03:19:36.304Z</time>
      </trkpt>
      <trkpt lat="44.71771" lon="3.44175">
        <ele>1109.156887</ele>
        <time>2020-03-09T03:19:51.202Z</time>
      </trkpt>
      <trkpt lat="44.71813" lon="3.44081">
        <ele>1111.29574</ele>
        <time>2020-03-09T03:20:14.500Z</time>
      </trkpt>
      <trkpt lat="44.71837" lon="3.44055">
        <ele>1112.113514</ele>
        <time>2020-03-09T03:20:24.310Z</time>
      </trkpt>
      <trkpt lat="44.71857" lon="3.44046">
        <ele>1112.847268</ele>
        <time>2020-03-09T03:20:31.816Z</time>
      </trkpt>
      <trkpt lat="44.71878" lon="3.44045">
        <ele>1113.715111</ele>
        <time>2020-03-09T03:20:38.842Z</time>
      </trkpt>
      <trkpt lat="44.71969" lon="3.44064">
        <ele>1117.603799</ele>
        <time>2020-03-09T03:21:09.647Z</time>
      </trkpt>
      <trkpt lat="44.71997" lon="3.44085">
        <ele>1118.950441</ele>
        <time>2020-03-09T03:21:19.446Z</time>
      </trkpt>
      <trkpt lat="44.72043" lon="3.44134">
        <ele>1120.746046</ele>
        <time>2020-03-09T03:21:35.577Z</time>
      </trkpt>
      <trkpt lat="44.72148" lon="3.44246">
        <ele>1123.717898</ele>
        <time>2020-03-09T03:22:05.896Z</time>
      </trkpt>
      <trkpt lat="44.72178" lon="3.44259">
        <ele>1124.328299</ele>
        <time>2020-03-09T03:22:12.054Z</time>
      </trkpt>
      <trkpt lat="44.72256" lon="3.44261">
        <ele>1125.566455</ele>
        <time>2020-03-09T03:22:27.967Z</time>
      </trkpt>
      <trkpt lat="44.72277" lon="3.44267">
        <ele>1125.905313</ele>
        <time>2020-03-09T03:22:32.541Z</time>
      </trkpt>
      <trkpt lat="44.72304" lon="3.44292">
        <ele>1126.406501</ele>
        <time>2020-03-09T03:22:39.519Z</time>
      </trkpt>
      <trkpt lat="44.7235" lon="3.44413">
        <ele>1127.89595</ele>
        <time>2020-03-09T03:23:01.217Z</time>
      </trkpt>
      <trkpt lat="44.72399" lon="3.44488">
        <ele>1128.985452</ele>
        <time>2020-03-09T03:23:16.862Z</time>
      </trkpt>
      <trkpt lat="44.7246" lon="3.44696">
        <ele>1130.449697</ele>
        <time>2020-03-09T03:23:45.143Z</time>
      </trkpt>
      <trkpt lat="44.72484" lon="3.44756">
        <ele>1130.795694</ele>
        <time>2020-03-09T03:23:53.344Z</time>
      </trkpt>
      <trkpt lat="44.72512" lon="3.44796">
        <ele>1131.32415</ele>
        <time>2020-03-09T03:24:00.466Z</time>
      </trkpt>
      <trkpt lat="44.72521" lon="3.44804">
        <ele>1131.498998</ele>
        <time>2020-03-09T03:24:02.291Z</time>
      </trkpt>
      <trkpt lat="44.72524" lon="3.44807">
        <ele>1131.553514</ele>
        <time>2020-03-09T03:24:02.964Z</time>
      </trkpt>
      <trkpt lat="44.72549" lon="3.44813">
        <ele>1131.960295</ele>
        <time>2020-03-09T03:24:08.016Z</time>
      </trkpt>
      <trkpt lat="44.72653" lon="3.44792">
        <ele>1133.658845</ele>
        <time>2020-03-09T03:24:31.574Z</time>
      </trkpt>
      <trkpt lat="44.72683" lon="3.44798">
        <ele>1134.340182</ele>
        <time>2020-03-09T03:24:39.239Z</time>
      </trkpt>
      <trkpt lat="44.72701" lon="3.44809">
        <ele>1134.825692</ele>
        <time>2020-03-09T03:24:44.478Z</time>
      </trkpt>
      <trkpt lat="44.7279" lon="3.44897">
        <ele>1137.554622</ele>
        <time>2020-03-09T03:25:12.636Z</time>
      </trkpt>
      <trkpt lat="44.72878" lon="3.44934">
        <ele>1139.427985</ele>
        <time>2020-03-09T03:25:33.455Z</time>
      </trkpt>
      <trkpt lat="44.7299" lon="3.45018">
        <ele>1141.660711</ele>
        <time>2020-03-09T03:26:00.547Z</time>
      </trkpt>
      <trkpt lat="44.73005" lon="3.45042">
        <ele>1141.873271</ele>
        <time>2020-03-09T03:26:05.641Z</time>
      </trkpt>
      <trkpt lat="44.73035" lon="3.45126">
        <ele>1142.499136</ele>
        <time>2020-03-09T03:26:20.105Z</time>
      </trkpt>
      <trkpt lat="44.73052" lon="3.45154">
        <ele>1142.746452</ele>
        <time>2020-03-09T03:26:25.574Z</time>
      </trkpt>
      <trkpt lat="44.73074" lon="3.45186">
        <ele>1143.050635</ele>
        <time>2020-03-09T03:26:31.170Z</time>
      </trkpt>
      <trkpt lat="44.73078" lon="3.45191">
        <ele>1143.094876</ele>
        <time>2020-03-09T03:26:31.801Z</time>
      </trkpt>
      <trkpt lat="44.731" lon="3.45223">
        <ele>1142.95005</ele>
        <time>2020-03-09T03:26:35.862Z</time>
      </trkpt>
      <trkpt lat="44.7315" lon="3.45339">
        <ele>1140.605139</ele>
        <time>2020-03-09T03:26:46.253Z</time>
      </trkpt>
      <trkpt lat="44.73153" lon="3.45346">
        <ele>1140.461764</ele>
        <time>2020-03-09T03:26:46.826Z</time>
      </trkpt>
      <trkpt lat="44.73155" lon="3.45352">
        <ele>1140.349711</ele>
        <time>2020-03-09T03:26:47.307Z</time>
      </trkpt>
      <trkpt lat="44.73182" lon="3.45418">
        <ele>1139.021956</ele>
        <time>2020-03-09T03:26:52.672Z</time>
      </trkpt>
      <trkpt lat="44.73203" lon="3.45456">
        <ele>1138.402075</ele>
        <time>2020-03-09T03:26:56.072Z</time>
      </trkpt>
      <trkpt lat="44.73225" lon="3.4548">
        <ele>1137.925455</ele>
        <time>2020-03-09T03:26:58.919Z</time>
      </trkpt>
      <trkpt lat="44.73242" lon="3.45489">
        <ele>1137.611966</ele>
        <time>2020-03-09T03:27:00.777Z</time>
      </trkpt>
      <trkpt lat="44.73276" lon="3.4552">
        <ele>1136.926254</ele>
        <time>2020-03-09T03:27:05.108Z</time>
      </trkpt>
      <trkpt lat="44.73303" lon="3.45567">
        <ele>1136.195805</ele>
        <time>2020-03-09T03:27:11.098Z</time>
      </trkpt>
      <trkpt lat="44.73312" lon="3.45612">
        <ele>1136.019339</ele>
        <time>2020-03-09T03:27:16.890Z</time>
      </trkpt>
      <trkpt lat="44.73331" lon="3.45774">
        <ele>1138.034773</ele>
        <time>2020-03-09T03:27:43.663Z</time>
      </trkpt>
      <trkpt lat="44.73329" lon="3.45864">
        <ele>1139.131792</ele>
        <time>2020-03-09T03:27:58.525Z</time>
      </trkpt>
      <trkpt lat="44.73342" lon="3.45934">
        <ele>1140.018748</ele>
        <time>2020-03-09T03:28:10.102Z</time>
      </trkpt>
      <trkpt lat="44.73405" lon="3.46096">
        <ele>1142.307918</ele>
        <time>2020-03-09T03:28:37.639Z</time>
      </trkpt>
      <trkpt lat="44.73445" lon="3.46135">
        <ele>1143.316602</ele>
        <time>2020-03-09T03:28:48.041Z</time>
      </trkpt>
      <trkpt lat="44.73493" lon="3.46163">
        <ele>1144.38686</ele>
        <time>2020-03-09T03:28:59.774Z</time>
      </trkpt>
      <trkpt lat="44.73518" lon="3.46208">
        <ele>1145.249279</ele>
        <time>2020-03-09T03:29:09.878Z</time>
      </trkpt>
      <trkpt lat="44.73526" lon="3.46249">
        <ele>1145.944256</ele>
        <time>2020-03-09T03:29:17.623Z</time>
      </trkpt>
      <trkpt lat="44.73528" lon="3.46379">
        <ele>1148.800101</ele>
        <time>2020-03-09T03:29:42.384Z</time>
      </trkpt>
      <trkpt lat="44.73535" lon="3.46485">
        <ele>1151.153201</ele>
        <time>2020-03-09T03:30:02.749Z</time>
      </trkpt>
      <trkpt lat="44.7354" lon="3.46511">
        <ele>1151.955518</ele>
        <time>2020-03-09T03:30:09.231Z</time>
      </trkpt>
      <trkpt lat="44.73562" lon="3.4656">
        <ele>1153.841534</ele>
        <time>2020-03-09T03:30:21.375Z</time>
      </trkpt>
      <trkpt lat="44.73571" lon="3.46569">
        <ele>1154.373281</ele>
        <time>2020-03-09T03:30:24.222Z</time>
      </trkpt>
      <trkpt lat="44.73581" lon="3.4657">
        <ele>1154.832483</ele>
        <time>2020-03-09T03:30:28.181Z</time>
      </trkpt>
      <trkpt lat="44.73566" lon="3.46533">
        <ele>1156.249627</ele>
        <time>2020-03-09T03:30:37.872Z</time>
      </trkpt>
      <trkpt lat="44.73563" lon="3.46508">
        <ele>1157.063988</ele>
        <time>2020-03-09T03:30:44.766Z</time>
      </trkpt>
      <trkpt lat="44.73564" lon="3.46483">
        <ele>1157.877336</ele>
        <time>2020-03-09T03:30:50.418Z</time>
      </trkpt>
      <trkpt lat="44.73573" lon="3.46456">
        <ele>1158.867826</ele>
        <time>2020-03-09T03:30:59.137Z</time>
      </trkpt>
      <trkpt lat="44.73592" lon="3.46427">
        <ele>1160.279516</ele>
        <time>2020-03-09T03:31:09.485Z</time>
      </trkpt>
      <trkpt lat="44.73645" lon="3.46379">
        <ele>1163.969926</ele>
        <time>2020-03-09T03:31:33.537Z</time>
      </trkpt>
      <trkpt lat="44.737" lon="3.46326">
        <ele>1167.830781</ele>
        <time>2020-03-09T03:32:00.831Z</time>
      </trkpt>
      <trkpt lat="44.73719" lon="3.46307">
        <ele>1169.20331</ele>
        <time>2020-03-09T03:32:09.322Z</time>
      </trkpt>
      <trkpt lat="44.7374" lon="3.4627">
        <ele>1170.641407</ele>
        <time>2020-03-09T03:32:21.255Z</time>
      </trkpt>
      <trkpt lat="44.73755" lon="3.46234">
        <ele>1171.598219</ele>
        <time>2020-03-09T03:32:31.663Z</time>
      </trkpt>
      <trkpt lat="44.73765" lon="3.46197">
        <ele>1172.477397</ele>
        <time>2020-03-09T03:32:40.602Z</time>
      </trkpt>
      <trkpt lat="44.73764" lon="3.46124">
        <ele>1174.093495</ele>
        <time>2020-03-09T03:32:54.216Z</time>
      </trkpt>
      <trkpt lat="44.73762" lon="3.46091">
        <ele>1174.834476</ele>
        <time>2020-03-09T03:32:59.105Z</time>
      </trkpt>
      <trkpt lat="44.73766" lon="3.46062">
        <ele>1175.488091</ele>
        <time>2020-03-09T03:33:03.681Z</time>
      </trkpt>
      <trkpt lat="44.73775" lon="3.46034">
        <ele>1175.643374</ele>
        <time>2020-03-09T03:33:07.317Z</time>
      </trkpt>
      <trkpt lat="44.738" lon="3.4598">
        <ele>1175.367702</ele>
        <time>2020-03-09T03:33:13.898Z</time>
      </trkpt>
      <trkpt lat="44.73808" lon="3.45948">
        <ele>1175.227228</ele>
        <time>2020-03-09T03:33:16.675Z</time>
      </trkpt>
      <trkpt lat="44.73815" lon="3.45837">
        <ele>1174.752702</ele>
        <time>2020-03-09T03:33:26.343Z</time>
      </trkpt>
      <trkpt lat="44.73822" lon="3.45802">
        <ele>1174.601447</ele>
        <time>2020-03-09T03:33:29.162Z</time>
      </trkpt>
      <trkpt lat="44.73871" lon="3.45654">
        <ele>1173.938461</ele>
        <time>2020-03-09T03:33:43.232Z</time>
      </trkpt>
      <trkpt lat="44.73875" lon="3.45601">
        <ele>1173.723428</ele>
        <time>2020-03-09T03:33:49.223Z</time>
      </trkpt>
      <trkpt lat="44.73874" lon="3.45592">
        <ele>1173.685803</ele>
        <time>2020-03-09T03:33:50.256Z</time>
      </trkpt>
      <trkpt lat="44.73873" lon="3.4558">
        <ele>1173.637158</ele>
        <time>2020-03-09T03:33:51.971Z</time>
      </trkpt>
      <trkpt lat="44.73864" lon="3.45547">
        <ele>1173.897021</ele>
        <time>2020-03-09T03:33:56.433Z</time>
      </trkpt>
      <trkpt lat="44.73851" lon="3.45509">
        <ele>1174.234264</ele>
        <time>2020-03-09T03:34:02.520Z</time>
      </trkpt>
      <trkpt lat="44.73838" lon="3.4545">
        <ele>1174.733383</ele>
        <time>2020-03-09T03:34:12.241Z</time>
      </trkpt>
      <trkpt lat="44.73842" lon="3.45419">
        <ele>1174.984062</ele>
        <time>2020-03-09T03:34:17.661Z</time>
      </trkpt>
      <trkpt lat="44.73876" lon="3.45292">
        <ele>1174.88599</ele>
        <time>2020-03-09T03:34:35.328Z</time>
      </trkpt>
      <trkpt lat="44.73882" lon="3.45246">
        <ele>1174.155625</ele>
        <time>2020-03-09T03:34:39.472Z</time>
      </trkpt>
      <trkpt lat="44.73882" lon="3.45208">
        <ele>1173.568059</ele>
        <time>2020-03-09T03:34:42.455Z</time>
      </trkpt>
      <trkpt lat="44.73877" lon="3.45158">
        <ele>1172.781595</ele>
        <time>2020-03-09T03:34:46.182Z</time>
      </trkpt>
      <trkpt lat="44.73871" lon="3.4509">
        <ele>1171.655134</ele>
        <time>2020-03-09T03:34:50.926Z</time>
      </trkpt>
      <trkpt lat="44.73873" lon="3.45045">
        <ele>1169.451911</ele>
        <time>2020-03-09T03:34:53.895Z</time>
      </trkpt>
      <trkpt lat="44.73967" lon="3.4451">
        <ele>1141.27457</ele>
        <time>2020-03-09T03:35:28.767Z</time>
      </trkpt>
      <trkpt lat="44.73973" lon="3.44426">
        <ele>1137.289873</ele>
        <time>2020-03-09T03:35:34.214Z</time>
      </trkpt>
      <trkpt lat="44.73968" lon="3.44284">
        <ele>1132.257131</ele>
        <time>2020-03-09T03:35:43.630Z</time>
      </trkpt>
      <trkpt lat="44.73973" lon="3.44252">
        <ele>1131.560188</ele>
        <time>2020-03-09T03:35:45.934Z</time>
      </trkpt>
      <trkpt lat="44.7398" lon="3.44228">
        <ele>1130.983686</ele>
        <time>2020-03-09T03:35:47.818Z</time>
      </trkpt>
      <trkpt lat="44.73989" lon="3.44203">
        <ele>1130.389138</ele>
        <time>2020-03-09T03:35:49.918Z</time>
      </trkpt>
      <trkpt lat="44.73992" lon="3.44191">
        <ele>1130.108427</ele>
        <time>2020-03-09T03:35:50.864Z</time>
      </trkpt>
      <trkpt lat="44.74004" lon="3.44055">
        <ele>1128.639586</ele>
        <time>2020-03-09T03:36:02.529Z</time>
      </trkpt>
      <trkpt lat="44.74029" lon="3.43937">
        <ele>1129.727205</ele>
        <time>2020-03-09T03:36:21.233Z</time>
      </trkpt>
      <trkpt lat="44.74021" lon="3.43863">
        <ele>1130.398536</ele>
        <time>2020-03-09T03:36:34.549Z</time>
      </trkpt>
      <trkpt lat="44.74023" lon="3.43821">
        <ele>1130.853335</ele>
        <time>2020-03-09T03:36:41.748Z</time>
      </trkpt>
      <trkpt lat="44.74028" lon="3.43808">
        <ele>1131.016752</ele>
        <time>2020-03-09T03:36:45.067Z</time>
      </trkpt>
      <trkpt lat="44.74032" lon="3.43799">
        <ele>1131.136946</ele>
        <time>2020-03-09T03:36:47.083Z</time>
      </trkpt>
      <trkpt lat="44.74051" lon="3.43776">
        <ele>1131.525855</ele>
        <time>2020-03-09T03:36:52.937Z</time>
      </trkpt>
      <trkpt lat="44.74159" lon="3.43615">
        <ele>1132.697362</ele>
        <time>2020-03-09T03:37:22.940Z</time>
      </trkpt>
      <trkpt lat="44.74189" lon="3.43577">
        <ele>1132.17517</ele>
        <time>2020-03-09T03:37:27.773Z</time>
      </trkpt>
      <trkpt lat="44.74225" lon="3.435">
        <ele>1131.343547</ele>
        <time>2020-03-09T03:37:34.930Z</time>
      </trkpt>
      <trkpt lat="44.74308" lon="3.43395">
        <ele>1127.545166</ele>
        <time>2020-03-09T03:37:46.161Z</time>
      </trkpt>
      <trkpt lat="44.74327" lon="3.43362">
        <ele>1126.310406</ele>
        <time>2020-03-09T03:37:49.078Z</time>
      </trkpt>
      <trkpt lat="44.74329" lon="3.43342">
        <ele>1125.704568</ele>
        <time>2020-03-09T03:37:50.489Z</time>
      </trkpt>
      <trkpt lat="44.74325" lon="3.43264">
        <ele>1123.346218</ele>
        <time>2020-03-09T03:37:55.701Z</time>
      </trkpt>
      <trkpt lat="44.74335" lon="3.43218">
        <ele>1121.26557</ele>
        <time>2020-03-09T03:37:58.875Z</time>
      </trkpt>
      <trkpt lat="44.74339" lon="3.43178">
        <ele>1119.501815</ele>
        <time>2020-03-09T03:38:01.559Z</time>
      </trkpt>
      <trkpt lat="44.74348" lon="3.43115">
        <ele>1116.746076</ele>
        <time>2020-03-09T03:38:05.712Z</time>
      </trkpt>
      <trkpt lat="44.74351" lon="3.43092">
        <ele>1115.710511</ele>
        <time>2020-03-09T03:38:07.286Z</time>
      </trkpt>
      <trkpt lat="44.74352" lon="3.43055">
        <ele>1114.123897</ele>
        <time>2020-03-09T03:38:09.651Z</time>
      </trkpt>
      <trkpt lat="44.74346" lon="3.42995">
        <ele>1111.314949</ele>
        <time>2020-03-09T03:38:13.599Z</time>
      </trkpt>
      <trkpt lat="44.74347" lon="3.42936">
        <ele>1108.3999</ele>
        <time>2020-03-09T03:38:17.343Z</time>
      </trkpt>
      <trkpt lat="44.74333" lon="3.429">
        <ele>1106.33633</ele>
        <time>2020-03-09T03:38:20.004Z</time>
      </trkpt>
      <trkpt lat="44.74328" lon="3.42866">
        <ele>1104.63933</ele>
        <time>2020-03-09T03:38:22.197Z</time>
      </trkpt>
      <trkpt lat="44.74361" lon="3.42744">
        <ele>1098.332329</ele>
        <time>2020-03-09T03:38:30.531Z</time>
      </trkpt>
      <trkpt lat="44.74413" lon="3.42672">
        <ele>1093.801017</ele>
        <time>2020-03-09T03:38:37.083Z</time>
      </trkpt>
      <trkpt lat="44.74426" lon="3.4265">
        <ele>1092.513675</ele>
        <time>2020-03-09T03:38:38.958Z</time>
      </trkpt>
      <trkpt lat="44.74439" lon="3.42627">
        <ele>1091.230247</ele>
        <time>2020-03-09T03:38:40.875Z</time>
      </trkpt>
      <trkpt lat="44.74448" lon="3.42593">
        <ele>1089.614764</ele>
        <time>2020-03-09T03:38:43.314Z</time>
      </trkpt>
      <trkpt lat="44.7445" lon="3.4256">
        <ele>1088.516692</ele>
        <time>2020-03-09T03:38:45.516Z</time>
      </trkpt>
      <trkpt lat="44.74445" lon="3.4253">
        <ele>1087.914386</ele>
        <time>2020-03-09T03:38:47.671Z</time>
      </trkpt>
      <trkpt lat="44.74435" lon="3.42501">
        <ele>1087.297963</ele>
        <time>2020-03-09T03:38:49.908Z</time>
      </trkpt>
      <trkpt lat="44.74417" lon="3.42475">
        <ele>1086.600853</ele>
        <time>2020-03-09T03:38:52.453Z</time>
      </trkpt>
      <trkpt lat="44.74366" lon="3.42433">
        <ele>1084.973919</ele>
        <time>2020-03-09T03:38:59.190Z</time>
      </trkpt>
      <trkpt lat="44.74352" lon="3.42411">
        <ele>1084.424495</ele>
        <time>2020-03-09T03:39:01.663Z</time>
      </trkpt>
      <trkpt lat="44.74344" lon="3.42381">
        <ele>1083.86345</ele>
        <time>2020-03-09T03:39:04.551Z</time>
      </trkpt>
      <trkpt lat="44.74347" lon="3.42331">
        <ele>1083.514384</ele>
        <time>2020-03-09T03:39:08.910Z</time>
      </trkpt>
      <trkpt lat="44.74425" lon="3.42148">
        <ele>1082.029588</ele>
        <time>2020-03-09T03:39:27.722Z</time>
      </trkpt>
      <trkpt lat="44.74437" lon="3.42088">
        <ele>1081.708741</ele>
        <time>2020-03-09T03:39:33.011Z</time>
      </trkpt>
      <trkpt lat="44.74438" lon="3.42058">
        <ele>1081.553437</ele>
        <time>2020-03-09T03:39:35.596Z</time>
      </trkpt>
      <trkpt lat="44.74418" lon="3.4194">
        <ele>1080.923041</ele>
        <time>2020-03-09T03:39:46.599Z</time>
      </trkpt>
      <trkpt lat="44.74425" lon="3.41853">
        <ele>1081.170185</ele>
        <time>2020-03-09T03:39:55.569Z</time>
      </trkpt>
      <trkpt lat="44.74413" lon="3.41756">
        <ele>1081.733939</ele>
        <time>2020-03-09T03:40:07.809Z</time>
      </trkpt>
      <trkpt lat="44.74423" lon="3.41678">
        <ele>1082.19111</ele>
        <time>2020-03-09T03:40:19.643Z</time>
      </trkpt>
      <trkpt lat="44.74466" lon="3.41576">
        <ele>1083.629577</ele>
        <time>2020-03-09T03:40:39.193Z</time>
      </trkpt>
      <trkpt lat="44.74481" lon="3.41482">
        <ele>1084.86243</ele>
        <time>2020-03-09T03:40:55.204Z</time>
      </trkpt>
      <trkpt lat="44.74529" lon="3.41349">
        <ele>1085.980221</ele>
        <time>2020-03-09T03:41:16.226Z</time>
      </trkpt>
      <trkpt lat="44.74605" lon="3.41248">
        <ele>1086.703639</ele>
        <time>2020-03-09T03:41:32.359Z</time>
      </trkpt>
      <trkpt lat="44.74619" lon="3.41217">
        <ele>1086.993026</ele>
        <time>2020-03-09T03:41:37.039Z</time>
      </trkpt>
      <trkpt lat="44.7463" lon="3.41155">
        <ele>1087.523237</ele>
        <time>2020-03-09T03:41:44.459Z</time>
      </trkpt>
      <trkpt lat="44.74641" lon="3.41198">
        <ele>1087.908513</ele>
        <time>2020-03-09T03:41:50.659Z</time>
      </trkpt>
      <trkpt lat="44.7465" lon="3.41263">
        <ele>1088.457278</ele>
        <time>2020-03-09T03:41:59.940Z</time>
      </trkpt>
      <trkpt lat="44.74636" lon="3.4157">
        <ele>1093.360318</ele>
        <time>2020-03-09T03:42:54.209Z</time>
      </trkpt>
      <trkpt lat="44.74664" lon="3.417">
        <ele>1095.533777</ele>
        <time>2020-03-09T03:43:17.755Z</time>
      </trkpt>
      <trkpt lat="44.74679" lon="3.41819">
        <ele>1097.43412</ele>
        <time>2020-03-09T03:43:37.836Z</time>
      </trkpt>
      <trkpt lat="44.74805" lon="3.42387">
        <ele>1105.632781</ele>
        <time>2020-03-09T03:45:11.619Z</time>
      </trkpt>
      <trkpt lat="44.74841" lon="3.42511">
        <ele>1107.846566</ele>
        <time>2020-03-09T03:45:35.245Z</time>
      </trkpt>
      <trkpt lat="44.7492" lon="3.426">
        <ele>1111.008909</ele>
        <time>2020-03-09T03:46:02.808Z</time>
      </trkpt>
      <trkpt lat="44.75002" lon="3.42777">
        <ele>1115.744949</ele>
        <time>2020-03-09T03:46:46.397Z</time>
      </trkpt>
      <trkpt lat="44.75076" lon="3.42915">
        <ele>1119.361097</ele>
        <time>2020-03-09T03:47:18.806Z</time>
      </trkpt>
      <trkpt lat="44.75101" lon="3.42974">
        <ele>1120.091107</ele>
        <time>2020-03-09T03:47:29.750Z</time>
      </trkpt>
      <trkpt lat="44.75152" lon="3.43012">
        <ele>1120.958593</ele>
        <time>2020-03-09T03:47:41.702Z</time>
      </trkpt>
      <trkpt lat="44.75166" lon="3.43025">
        <ele>1121.210063</ele>
        <time>2020-03-09T03:47:45.007Z</time>
      </trkpt>
      <trkpt lat="44.75201" lon="3.43054">
        <ele>1121.818963</ele>
        <time>2020-03-09T03:47:52.588Z</time>
      </trkpt>
      <trkpt lat="44.75281" lon="3.43138">
        <ele>1122.937147</ele>
        <time>2020-03-09T03:48:10.165Z</time>
      </trkpt>
      <trkpt lat="44.75415" lon="3.43218">
        <ele>1125.187563</ele>
        <time>2020-03-09T03:48:38.887Z</time>
      </trkpt>
      <trkpt lat="44.75455" lon="3.43234">
        <ele>1126.227248</ele>
        <time>2020-03-09T03:48:49.008Z</time>
      </trkpt>
      <trkpt lat="44.75468" lon="3.43242">
        <ele>1126.591172</ele>
        <time>2020-03-09T03:48:52.388Z</time>
      </trkpt>
      <trkpt lat="44.75473" lon="3.43248">
        <ele>1126.763638</ele>
        <time>2020-03-09T03:48:54.887Z</time>
      </trkpt>
      <trkpt lat="44.75479" lon="3.43264">
        <ele>1127.08226</ele>
        <time>2020-03-09T03:48:58.187Z</time>
      </trkpt>
      <trkpt lat="44.75479" lon="3.43287">
        <ele>1127.493359</ele>
        <time>2020-03-09T03:49:02.354Z</time>
      </trkpt>
      <trkpt lat="44.75468" lon="3.43366">
        <ele>1129.166511</ele>
        <time>2020-03-09T03:49:19.539Z</time>
      </trkpt>
      <trkpt lat="44.75469" lon="3.43422">
        <ele>1130.64563</ele>
        <time>2020-03-09T03:49:31.369Z</time>
      </trkpt>
      <trkpt lat="44.7546" lon="3.43451">
        <ele>1131.497372</ele>
        <time>2020-03-09T03:49:38.685Z</time>
      </trkpt>
      <trkpt lat="44.75444" lon="3.43474">
        <ele>1132.348066</ele>
        <time>2020-03-09T03:49:45.591Z</time>
      </trkpt>
      <trkpt lat="44.75414" lon="3.43498">
        <ele>1133.643011</ele>
        <time>2020-03-09T03:49:56.146Z</time>
      </trkpt>
      <trkpt lat="44.75405" lon="3.43521">
        <ele>1134.314338</ele>
        <time>2020-03-09T03:50:01.445Z</time>
      </trkpt>
      <trkpt lat="44.7541" lon="3.43577">
        <ele>1135.721254</ele>
        <time>2020-03-09T03:50:13.026Z</time>
      </trkpt>
      <trkpt lat="44.75418" lon="3.43601">
        <ele>1136.344063</ele>
        <time>2020-03-09T03:50:18.488Z</time>
      </trkpt>
      <trkpt lat="44.75431" lon="3.43614">
        <ele>1136.835298</ele>
        <time>2020-03-09T03:50:22.651Z</time>
      </trkpt>
      <trkpt lat="44.75447" lon="3.43615">
        <ele>1137.340774</ele>
        <time>2020-03-09T03:50:26.976Z</time>
      </trkpt>
      <trkpt lat="44.75485" lon="3.4358">
        <ele>1138.80406</ele>
        <time>2020-03-09T03:50:39.021Z</time>
      </trkpt>
      <trkpt lat="44.75508" lon="3.43568">
        <ele>1139.575031</ele>
        <time>2020-03-09T03:50:45.457Z</time>
      </trkpt>
      <trkpt lat="44.75528" lon="3.43572">
        <ele>1140.240128</ele>
        <time>2020-03-09T03:50:51.129Z</time>
      </trkpt>
      <trkpt lat="44.75545" lon="3.43588">
        <ele>1140.881618</ele>
        <time>2020-03-09T03:50:56.790Z</time>
      </trkpt>
      <trkpt lat="44.75554" lon="3.43614">
        <ele>1141.565784</ele>
        <time>2020-03-09T03:51:02.755Z</time>
      </trkpt>
      <trkpt lat="44.7555" lon="3.43701">
        <ele>1143.619789</ele>
        <time>2020-03-09T03:51:20.569Z</time>
      </trkpt>
      <trkpt lat="44.7556" lon="3.43797">
        <ele>1145.896666</ele>
        <time>2020-03-09T03:51:39.509Z</time>
      </trkpt>
      <trkpt lat="44.75569" lon="3.43817">
        <ele>1146.444931</ele>
        <time>2020-03-09T03:51:43.968Z</time>
      </trkpt>
      <trkpt lat="44.75579" lon="3.43825">
        <ele>1146.841688</ele>
        <time>2020-03-09T03:51:47.855Z</time>
      </trkpt>
      <trkpt lat="44.75633" lon="3.43818">
        <ele>1148.60101</ele>
        <time>2020-03-09T03:52:02.526Z</time>
      </trkpt>
      <trkpt lat="44.75669" lon="3.43808">
        <ele>1149.807149</ele>
        <time>2020-03-09T03:52:12.533Z</time>
      </trkpt>
      <trkpt lat="44.75698" lon="3.43792">
        <ele>1150.825531</ele>
        <time>2020-03-09T03:52:20.892Z</time>
      </trkpt>
      <trkpt lat="44.75702" lon="3.43791">
        <ele>1150.961877</ele>
        <time>2020-03-09T03:52:21.937Z</time>
      </trkpt>
      <trkpt lat="44.75715" lon="3.43789">
        <ele>1151.392996</ele>
        <time>2020-03-09T03:52:26.065Z</time>
      </trkpt>
      <trkpt lat="44.75721" lon="3.43787">
        <ele>1151.605465</ele>
        <time>2020-03-09T03:52:28.117Z</time>
      </trkpt>
      <trkpt lat="44.75761" lon="3.43794">
        <ele>1152.947822</ele>
        <time>2020-03-09T03:52:38.676Z</time>
      </trkpt>
      <trkpt lat="44.75772" lon="3.43789">
        <ele>1153.433678</ele>
        <time>2020-03-09T03:52:42.218Z</time>
      </trkpt>
      <trkpt lat="44.7578" lon="3.43778">
        <ele>1153.886052</ele>
        <time>2020-03-09T03:52:46.036Z</time>
      </trkpt>
      <trkpt lat="44.75785" lon="3.43769">
        <ele>1154.23693</ele>
        <time>2020-03-09T03:52:48.463Z</time>
      </trkpt>
      <trkpt lat="44.75788" lon="3.43749">
        <ele>1154.826994</ele>
        <time>2020-03-09T03:52:52.429Z</time>
      </trkpt>
      <trkpt lat="44.7579" lon="3.43732">
        <ele>1155.330726</ele>
        <time>2020-03-09T03:52:56.780Z</time>
      </trkpt>
      <trkpt lat="44.75802" lon="3.43706">
        <ele>1156.243631</ele>
        <time>2020-03-09T03:53:03.216Z</time>
      </trkpt>
      <trkpt lat="44.75858" lon="3.43661">
        <ele>1158.897455</ele>
        <time>2020-03-09T03:53:23.792Z</time>
      </trkpt>
      <trkpt lat="44.75867" lon="3.43653">
        <ele>1159.321463</ele>
        <time>2020-03-09T03:53:27.466Z</time>
      </trkpt>
      <trkpt lat="44.75941" lon="3.43549">
        <ele>1163.711739</ele>
        <time>2020-03-09T03:54:02.252Z</time>
      </trkpt>
      <trkpt lat="44.75954" lon="3.43546">
        <ele>1164.278226</ele>
        <time>2020-03-09T03:54:06.763Z</time>
      </trkpt>
      <trkpt lat="44.75975" lon="3.43546">
        <ele>1165.18489</ele>
        <time>2020-03-09T03:54:13.809Z</time>
      </trkpt>
      <trkpt lat="44.76118" lon="3.43607">
        <ele>1170.293127</ele>
        <time>2020-03-09T03:54:57.592Z</time>
      </trkpt>
      <trkpt lat="44.76132" lon="3.43624">
        <ele>1170.802809</ele>
        <time>2020-03-09T03:55:02.278Z</time>
      </trkpt>
      <trkpt lat="44.7614" lon="3.4364">
        <ele>1171.188375</ele>
        <time>2020-03-09T03:55:05.757Z</time>
      </trkpt>
      <trkpt lat="44.76147" lon="3.43673">
        <ele>1171.885008</ele>
        <time>2020-03-09T03:55:11.747Z</time>
      </trkpt>
      <trkpt lat="44.76139" lon="3.43784">
        <ele>1172.959436</ele>
        <time>2020-03-09T03:55:28.786Z</time>
      </trkpt>
      <trkpt lat="44.76186" lon="3.43947">
        <ele>1173.089538</ele>
        <time>2020-03-09T03:55:46.618Z</time>
      </trkpt>
      <trkpt lat="44.76201" lon="3.43973">
        <ele>1172.844072</ele>
        <time>2020-03-09T03:55:49.374Z</time>
      </trkpt>
      <trkpt lat="44.76254" lon="3.44037">
        <ele>1171.151485</ele>
        <time>2020-03-09T03:55:57.061Z</time>
      </trkpt>
      <trkpt lat="44.76274" lon="3.44071">
        <ele>1170.400612</ele>
        <time>2020-03-09T03:56:00.332Z</time>
      </trkpt>
      <trkpt lat="44.76287" lon="3.4413">
        <ele>1169.356176</ele>
        <time>2020-03-09T03:56:04.832Z</time>
      </trkpt>
      <trkpt lat="44.76342" lon="3.44254">
        <ele>1166.538885</ele>
        <time>2020-03-09T03:56:15.246Z</time>
      </trkpt>
      <trkpt lat="44.76369" lon="3.44359">
        <ele>1164.345719</ele>
        <time>2020-03-09T03:56:23.399Z</time>
      </trkpt>
      <trkpt lat="44.76372" lon="3.44372">
        <ele>1164.072777</ele>
        <time>2020-03-09T03:56:24.415Z</time>
      </trkpt>
      <trkpt lat="44.76383" lon="3.44397">
        <ele>1163.777203</ele>
        <time>2020-03-09T03:56:26.651Z</time>
      </trkpt>
      <trkpt lat="44.76508" lon="3.44631">
        <ele>1165.320258</ele>
        <time>2020-03-09T03:57:00.695Z</time>
      </trkpt>
      <trkpt lat="44.76524" lon="3.44654">
        <ele>1166.201084</ele>
        <time>2020-03-09T03:57:07.637Z</time>
      </trkpt>
      <trkpt lat="44.76543" lon="3.44673">
        <ele>1167.076664</ele>
        <time>2020-03-09T03:57:14.856Z</time>
      </trkpt>
      <trkpt lat="44.76599" lon="3.44703">
        <ele>1169.387453</ele>
        <time>2020-03-09T03:57:35.777Z</time>
      </trkpt>
      <trkpt lat="44.7664" lon="3.44734">
        <ele>1171.379774</ele>
        <time>2020-03-09T03:57:53.634Z</time>
      </trkpt>
      <trkpt lat="44.76682" lon="3.44766">
        <ele>1173.984708</ele>
        <time>2020-03-09T03:58:12.181Z</time>
      </trkpt>
      <trkpt lat="44.76722" lon="3.44807">
        <ele>1176.702416</ele>
        <time>2020-03-09T03:58:30.863Z</time>
      </trkpt>
      <trkpt lat="44.76753" lon="3.44878">
        <ele>1179.94306</ele>
        <time>2020-03-09T03:58:52.362Z</time>
      </trkpt>
      <trkpt lat="44.7676" lon="3.4494">
        <ele>1181.977711</ele>
        <time>2020-03-09T03:59:07.396Z</time>
      </trkpt>
      <trkpt lat="44.76762" lon="3.45011">
        <ele>1184.13822</ele>
        <time>2020-03-09T03:59:23.491Z</time>
      </trkpt>
      <trkpt lat="44.76766" lon="3.45105">
        <ele>1186.98239</ele>
        <time>2020-03-09T03:59:44.331Z</time>
      </trkpt>
      <trkpt lat="44.76771" lon="3.45207">
        <ele>1189.848021</ele>
        <time>2020-03-09T04:00:05.933Z</time>
      </trkpt>
      <trkpt lat="44.76779" lon="3.45235">
        <ele>1190.638911</ele>
        <time>2020-03-09T04:00:12.477Z</time>
      </trkpt>
      <trkpt lat="44.76785" lon="3.45242">
        <ele>1190.95822</ele>
        <time>2020-03-09T04:00:14.782Z</time>
      </trkpt>
      <trkpt lat="44.76795" lon="3.45249">
        <ele>1191.359864</ele>
        <time>2020-03-09T04:00:17.782Z</time>
      </trkpt>
      <trkpt lat="44.76819" lon="3.45249">
        <ele>1192.263685</ele>
        <time>2020-03-09T04:00:24.911Z</time>
      </trkpt>
      <trkpt lat="44.76907" lon="3.45197">
        <ele>1195.90828</ele>
        <time>2020-03-09T04:00:53.218Z</time>
      </trkpt>
      <trkpt lat="44.7699" lon="3.45169">
        <ele>1199.486283</ele>
        <time>2020-03-09T04:01:19.600Z</time>
      </trkpt>
      <trkpt lat="44.7707" lon="3.45168">
        <ele>1202.785048</ele>
        <time>2020-03-09T04:01:46.207Z</time>
      </trkpt>
      <trkpt lat="44.77147" lon="3.45179">
        <ele>1205.688874</ele>
        <time>2020-03-09T04:02:11.671Z</time>
      </trkpt>
      <trkpt lat="44.77214" lon="3.45224">
        <ele>1208.449705</ele>
        <time>2020-03-09T04:02:33.767Z</time>
      </trkpt>
      <trkpt lat="44.77355" lon="3.45359">
        <ele>1211.692433</ele>
        <time>2020-03-09T04:03:11.499Z</time>
      </trkpt>
      <trkpt lat="44.77412" lon="3.454">
        <ele>1212.326875</ele>
        <time>2020-03-09T04:03:22.058Z</time>
      </trkpt>
      <trkpt lat="44.77643" lon="3.45519">
        <ele>1213.893556</ele>
        <time>2020-03-09T04:04:01.371Z</time>
      </trkpt>
      <trkpt lat="44.77818" lon="3.45569">
        <ele>1216.703399</ele>
        <time>2020-03-09T04:04:41.133Z</time>
      </trkpt>
      <trkpt lat="44.77955" lon="3.4563">
        <ele>1219.588745</ele>
        <time>2020-03-09T04:05:15.340Z</time>
      </trkpt>
      <trkpt lat="44.78113" lon="3.45672">
        <ele>1222.760623</ele>
        <time>2020-03-09T04:05:51.062Z</time>
      </trkpt>
      <trkpt lat="44.78152" lon="3.45675">
        <ele>1223.533616</ele>
        <time>2020-03-09T04:05:59.592Z</time>
      </trkpt>
      <trkpt lat="44.78208" lon="3.45664">
        <ele>1224.638327</ele>
        <time>2020-03-09T04:06:12.131Z</time>
      </trkpt>
      <trkpt lat="44.78253" lon="3.45666">
        <ele>1225.555418</ele>
        <time>2020-03-09T04:06:22.687Z</time>
      </trkpt>
      <trkpt lat="44.78296" lon="3.4568">
        <ele>1226.72666</ele>
        <time>2020-03-09T04:06:33.411Z</time>
      </trkpt>
      <trkpt lat="44.78339" lon="3.45705">
        <ele>1227.978722</ele>
        <time>2020-03-09T04:06:45.434Z</time>
      </trkpt>
      <trkpt lat="44.78442" lon="3.45816">
        <ele>1231.149924</ele>
        <time>2020-03-09T04:07:19.883Z</time>
      </trkpt>
      <trkpt lat="44.7849" lon="3.4588">
        <ele>1232.496066</ele>
        <time>2020-03-09T04:07:35.780Z</time>
      </trkpt>
      <trkpt lat="44.78513" lon="3.45941">
        <ele>1233.472603</ele>
        <time>2020-03-09T04:07:45.931Z</time>
      </trkpt>
      <trkpt lat="44.78558" lon="3.46094">
        <ele>1234.921422</ele>
        <time>2020-03-09T04:08:07.389Z</time>
      </trkpt>
      <trkpt lat="44.78577" lon="3.46126">
        <ele>1235.233734</ele>
        <time>2020-03-09T04:08:12.698Z</time>
      </trkpt>
      <trkpt lat="44.78602" lon="3.46139">
        <ele>1235.516703</ele>
        <time>2020-03-09T04:08:17.572Z</time>
      </trkpt>
      <trkpt lat="44.78654" lon="3.46119">
        <ele>1236.493993</ele>
        <time>2020-03-09T04:08:28.543Z</time>
      </trkpt>
      <trkpt lat="44.78703" lon="3.46137">
        <ele>1237.766588</ele>
        <time>2020-03-09T04:08:40.968Z</time>
      </trkpt>
      <trkpt lat="44.78803" lon="3.46241">
        <ele>1240.725443</ele>
        <time>2020-03-09T04:09:14.991Z</time>
      </trkpt>
      <trkpt lat="44.78825" lon="3.46278">
        <ele>1241.331791</ele>
        <time>2020-03-09T04:09:23.812Z</time>
      </trkpt>
      <trkpt lat="44.78835" lon="3.46304">
        <ele>1241.699424</ele>
        <time>2020-03-09T04:09:28.686Z</time>
      </trkpt>
      <trkpt lat="44.78855" lon="3.46449">
        <ele>1243.500078</ele>
        <time>2020-03-09T04:09:49.657Z</time>
      </trkpt>
      <trkpt lat="44.78865" lon="3.46478">
        <ele>1243.539327</ele>
        <time>2020-03-09T04:09:53.100Z</time>
      </trkpt>
      <trkpt lat="44.78885" lon="3.46506">
        <ele>1243.588019</ele>
        <time>2020-03-09T04:09:56.903Z</time>
      </trkpt>
      <trkpt lat="44.78905" lon="3.4652">
        <ele>1243.625356</ele>
        <time>2020-03-09T04:09:59.590Z</time>
      </trkpt>
      <trkpt lat="44.78944" lon="3.46574">
        <ele>1243.718242</ele>
        <time>2020-03-09T04:10:06.974Z</time>
      </trkpt>
      <trkpt lat="44.78957" lon="3.4658">
        <ele>1243.742191</ele>
        <time>2020-03-09T04:10:09.153Z</time>
      </trkpt>
      <trkpt lat="44.78974" lon="3.46574">
        <ele>1243.772177</ele>
        <time>2020-03-09T04:10:12.325Z</time>
      </trkpt>
      <trkpt lat="44.78977" lon="3.46572">
        <ele>1243.778347</ele>
        <time>2020-03-09T04:10:12.788Z</time>
      </trkpt>
      <trkpt lat="44.78983" lon="3.46568">
        <ele>1243.789505</ele>
        <time>2020-03-09T04:10:13.941Z</time>
      </trkpt>
      <trkpt lat="44.79002" lon="3.46556">
        <ele>1244.118699</ele>
        <time>2020-03-09T04:10:17.764Z</time>
      </trkpt>
      <trkpt lat="44.79019" lon="3.46559">
        <ele>1244.543973</ele>
        <time>2020-03-09T04:10:21.200Z</time>
      </trkpt>
      <trkpt lat="44.79038" lon="3.466">
        <ele>1245.39147</ele>
        <time>2020-03-09T04:10:28.814Z</time>
      </trkpt>
      <trkpt lat="44.79058" lon="3.46606">
        <ele>1245.874721</ele>
        <time>2020-03-09T04:10:34.147Z</time>
      </trkpt>
      <trkpt lat="44.79074" lon="3.46602">
        <ele>1246.258817</ele>
        <time>2020-03-09T04:10:37.933Z</time>
      </trkpt>
      <trkpt lat="44.79077" lon="3.46623">
        <ele>1246.626352</ele>
        <time>2020-03-09T04:10:42.116Z</time>
      </trkpt>
      <trkpt lat="44.79081" lon="3.46665">
        <ele>1247.349469</ele>
        <time>2020-03-09T04:10:50.168Z</time>
      </trkpt>
      <trkpt lat="44.79089" lon="3.46718">
        <ele>1248.395981</ele>
        <time>2020-03-09T04:11:01.482Z</time>
      </trkpt>
      <trkpt lat="44.79095" lon="3.46743">
        <ele>1249.185778</ele>
        <time>2020-03-09T04:11:06.874Z</time>
      </trkpt>
      <trkpt lat="44.791" lon="3.46756">
        <ele>1249.649895</ele>
        <time>2020-03-09T04:11:10.261Z</time>
      </trkpt>
      <trkpt lat="44.79102" lon="3.46763">
        <ele>1249.894061</ele>
        <time>2020-03-09T04:11:11.731Z</time>
      </trkpt>
      <trkpt lat="44.79109" lon="3.46771">
        <ele>1250.260705</ele>
        <time>2020-03-09T04:11:14.471Z</time>
      </trkpt>
      <trkpt lat="44.79124" lon="3.46803">
        <ele>1251.447277</ele>
        <time>2020-03-09T04:11:24.026Z</time>
      </trkpt>
      <trkpt lat="44.79141" lon="3.4682">
        <ele>1252.361035</ele>
        <time>2020-03-09T04:11:31.091Z</time>
      </trkpt>
      <trkpt lat="44.79223" lon="3.46833">
        <ele>1255.921085</ele>
        <time>2020-03-09T04:11:58.115Z</time>
      </trkpt>
      <trkpt lat="44.7924" lon="3.46846">
        <ele>1256.892732</ele>
        <time>2020-03-09T04:12:04.016Z</time>
      </trkpt>
      <trkpt lat="44.79246" lon="3.46855">
        <ele>1257.335472</ele>
        <time>2020-03-09T04:12:07.497Z</time>
      </trkpt>
      <trkpt lat="44.7925" lon="3.46872">
        <ele>1257.980019</ele>
        <time>2020-03-09T04:12:11.431Z</time>
      </trkpt>
      <trkpt lat="44.79278" lon="3.47048">
        <ele>1264.387095</ele>
        <time>2020-03-09T04:12:56.850Z</time>
      </trkpt>
      <trkpt lat="44.79293" lon="3.472">
        <ele>1269.900143</ele>
        <time>2020-03-09T04:13:36.604Z</time>
      </trkpt>
      <trkpt lat="44.79283" lon="3.47237">
        <ele>1271.313265</ele>
        <time>2020-03-09T04:13:46.982Z</time>
      </trkpt>
      <trkpt lat="44.79172" lon="3.47518">
        <ele>1281.047208</ele>
        <time>2020-03-09T04:14:59.937Z</time>
      </trkpt>
      <trkpt lat="44.79164" lon="3.47557">
        <ele>1281.763099</ele>
        <time>2020-03-09T04:15:07.162Z</time>
      </trkpt>
      <trkpt lat="44.7916" lon="3.4761">
        <ele>1282.569488</ele>
        <time>2020-03-09T04:15:16.110Z</time>
      </trkpt>
      <trkpt lat="44.7916" lon="3.47623">
        <ele>1282.76409</ele>
        <time>2020-03-09T04:15:17.858Z</time>
      </trkpt>
      <trkpt lat="44.79165" lon="3.47639">
        <ele>1283.027107</ele>
        <time>2020-03-09T04:15:20.836Z</time>
      </trkpt>
      <trkpt lat="44.79184" lon="3.47666">
        <ele>1283.60145</ele>
        <time>2020-03-09T04:15:26.619Z</time>
      </trkpt>
      <trkpt lat="44.7929" lon="3.47706">
        <ele>1286.033946</ele>
        <time>2020-03-09T04:15:50.122Z</time>
      </trkpt>
      <trkpt lat="44.79326" lon="3.47697">
        <ele>1286.877095</ele>
        <time>2020-03-09T04:15:58.645Z</time>
      </trkpt>
      <trkpt lat="44.79448" lon="3.47644">
        <ele>1290.075608</ele>
        <time>2020-03-09T04:16:31.174Z</time>
      </trkpt>
      <trkpt lat="44.79609" lon="3.47649">
        <ele>1295.182895</ele>
        <time>2020-03-09T04:17:15.543Z</time>
      </trkpt>
      <trkpt lat="44.79626" lon="3.47666">
        <ele>1296.05872</ele>
        <time>2020-03-09T04:17:21.713Z</time>
      </trkpt>
      <trkpt lat="44.79637" lon="3.47756">
        <ele>1298.757393</ele>
        <time>2020-03-09T04:17:41.377Z</time>
      </trkpt>
      <trkpt lat="44.79652" lon="3.47784">
        <ele>1299.785153</ele>
        <time>2020-03-09T04:17:49.227Z</time>
      </trkpt>
      <trkpt lat="44.79673" lon="3.47801">
        <ele>1300.812173</ele>
        <time>2020-03-09T04:17:57.344Z</time>
      </trkpt>
      <trkpt lat="44.79759" lon="3.47827">
        <ele>1304.918939</ele>
        <time>2020-03-09T04:18:27.566Z</time>
      </trkpt>
      <trkpt lat="44.79796" lon="3.4785">
        <ele>1306.968341</ele>
        <time>2020-03-09T04:18:41.841Z</time>
      </trkpt>
      <trkpt lat="44.79829" lon="3.47898">
        <ele>1309.398168</ele>
        <time>2020-03-09T04:18:59.108Z</time>
      </trkpt>
      <trkpt lat="44.79877" lon="3.48001">
        <ele>1313.797023</ele>
        <time>2020-03-09T04:19:30.269Z</time>
      </trkpt>
      <trkpt lat="44.79892" lon="3.48024">
        <ele>1314.917142</ele>
        <time>2020-03-09T04:19:38.068Z</time>
      </trkpt>
      <trkpt lat="44.79937" lon="3.48043">
        <ele>1317.265478</ele>
        <time>2020-03-09T04:19:54.671Z</time>
      </trkpt>
      <trkpt lat="44.80047" lon="3.48056">
        <ele>1322.786334</ele>
        <time>2020-03-09T04:20:31.450Z</time>
      </trkpt>
      <trkpt lat="44.80062" lon="3.48058">
        <ele>1323.555558</ele>
        <time>2020-03-09T04:20:36.761Z</time>
      </trkpt>
      <trkpt lat="44.80075" lon="3.48062">
        <ele>1324.237349</ele>
        <time>2020-03-09T04:20:41.100Z</time>
      </trkpt>
      <trkpt lat="44.80156" lon="3.48101">
        <ele>1328.623382</ele>
        <time>2020-03-09T04:21:11.212Z</time>
      </trkpt>
      <trkpt lat="44.80204" lon="3.48138">
        <ele>1331.87153</ele>
        <time>2020-03-09T04:21:32.622Z</time>
      </trkpt>
      <trkpt lat="44.80215" lon="3.48183">
        <ele>1334.059641</ele>
        <time>2020-03-09T04:21:45.736Z</time>
      </trkpt>
      <trkpt lat="44.8021" lon="3.48219">
        <ele>1335.756541</ele>
        <time>2020-03-09T04:21:56.301Z</time>
      </trkpt>
      <trkpt lat="44.80191" lon="3.48249">
        <ele>1337.62629</ele>
        <time>2020-03-09T04:22:08.437Z</time>
      </trkpt>
      <trkpt lat="44.80154" lon="3.48268">
        <ele>1340.189193</ele>
        <time>2020-03-09T04:22:25.557Z</time>
      </trkpt>
      <trkpt lat="44.80113" lon="3.48275">
        <ele>1342.898634</ele>
        <time>2020-03-09T04:22:43.420Z</time>
      </trkpt>
      <trkpt lat="44.80047" lon="3.48275">
        <ele>1347.329139</ele>
        <time>2020-03-09T04:23:11.932Z</time>
      </trkpt>
      <trkpt lat="44.80021" lon="3.48288">
        <ele>1349.153016</ele>
        <time>2020-03-09T04:23:23.281Z</time>
      </trkpt>
      <trkpt lat="44.79939" lon="3.48357">
        <ele>1355.141309</ele>
        <time>2020-03-09T04:24:00.956Z</time>
      </trkpt>
      <trkpt lat="44.79903" lon="3.48406">
        <ele>1357.943742</ele>
        <time>2020-03-09T04:24:19.983Z</time>
      </trkpt>
      <trkpt lat="44.79813" lon="3.48612">
        <ele>1366.994233</ele>
        <time>2020-03-09T04:25:21.433Z</time>
      </trkpt>
      <trkpt lat="44.79755" lon="3.48711">
        <ele>1371.450658</ele>
        <time>2020-03-09T04:25:52.131Z</time>
      </trkpt>
      <trkpt lat="44.79729" lon="3.48784">
        <ele>1374.388456</ele>
        <time>2020-03-09T04:26:11.406Z</time>
      </trkpt>
      <trkpt lat="44.79716" lon="3.48842">
        <ele>1376.609912</ele>
        <time>2020-03-09T04:26:25.915Z</time>
      </trkpt>
      <trkpt lat="44.79699" lon="3.49005">
        <ele>1382.961456</ele>
        <time>2020-03-09T04:27:08.256Z</time>
      </trkpt>
      <trkpt lat="44.79644" lon="3.49192">
        <ele>1392.558338</ele>
        <time>2020-03-09T04:28:08.840Z</time>
      </trkpt>
      <trkpt lat="44.7963" lon="3.4932">
        <ele>1399.143381</ele>
        <time>2020-03-09T04:28:50.589Z</time>
      </trkpt>
      <trkpt lat="44.79632" lon="3.49357">
        <ele>1401.020126</ele>
        <time>2020-03-09T04:29:02.343Z</time>
      </trkpt>
      <trkpt lat="44.79639" lon="3.49374">
        <ele>1402.017848</ele>
        <time>2020-03-09T04:29:08.612Z</time>
      </trkpt>
      <trkpt lat="44.79789" lon="3.4958">
        <ele>1415.734806</ele>
        <time>2020-03-09T04:30:36.989Z</time>
      </trkpt>
      <trkpt lat="44.79815" lon="3.49629">
        <ele>1418.114389</ele>
        <time>2020-03-09T04:30:51.845Z</time>
      </trkpt>
      <trkpt lat="44.79819" lon="3.49637">
        <ele>1418.324737</ele>
        <time>2020-03-09T04:30:54.742Z</time>
      </trkpt>
      <trkpt lat="44.7983" lon="3.49659">
        <ele>1418.896651</ele>
        <time>2020-03-09T04:31:00.760Z</time>
      </trkpt>
      <trkpt lat="44.80009" lon="3.5002">
        <ele>1426.963306</ele>
        <time>2020-03-09T04:32:15.792Z</time>
      </trkpt>
      <trkpt lat="44.80012" lon="3.50027">
        <ele>1427.090772</ele>
        <time>2020-03-09T04:32:17.248Z</time>
      </trkpt>
      <trkpt lat="44.80015" lon="3.50032">
        <ele>1427.191149</ele>
        <time>2020-03-09T04:32:18.215Z</time>
      </trkpt>
      <trkpt lat="44.80018" lon="3.5004">
        <ele>1427.282447</ele>
        <time>2020-03-09T04:32:19.678Z</time>
      </trkpt>
      <trkpt lat="44.80014" lon="3.50091">
        <ele>1427.774889</ele>
        <time>2020-03-09T04:32:29.654Z</time>
      </trkpt>
      <trkpt lat="44.80008" lon="3.50157">
        <ele>1428.395639</ele>
        <time>2020-03-09T04:32:42.051Z</time>
      </trkpt>
      <trkpt lat="44.80009" lon="3.50178">
        <ele>1428.601006</ele>
        <time>2020-03-09T04:32:46.128Z</time>
      </trkpt>
      <trkpt lat="44.8001" lon="3.50208">
        <ele>1428.882941</ele>
        <time>2020-03-09T04:32:51.540Z</time>
      </trkpt>
      <trkpt lat="44.80039" lon="3.50381">
        <ele>1429.327581</ele>
        <time>2020-03-09T04:33:20.051Z</time>
      </trkpt>
      <trkpt lat="44.80081" lon="3.50763">
        <ele>1426.787542</ele>
        <time>2020-03-09T04:34:07.341Z</time>
      </trkpt>
      <trkpt lat="44.80098" lon="3.50813">
        <ele>1425.930161</ele>
        <time>2020-03-09T04:34:13.448Z</time>
      </trkpt>
      <trkpt lat="44.80171" lon="3.50907">
        <ele>1423.29402</ele>
        <time>2020-03-09T04:34:28.489Z</time>
      </trkpt>
      <trkpt lat="44.80198" lon="3.50954">
        <ele>1422.156923</ele>
        <time>2020-03-09T04:34:34.746Z</time>
      </trkpt>
      <trkpt lat="44.80225" lon="3.51011">
        <ele>1420.180588</ele>
        <time>2020-03-09T04:34:41.734Z</time>
      </trkpt>
      <trkpt lat="44.80252" lon="3.51086">
        <ele>1417.497684</ele>
        <time>2020-03-09T04:34:50.088Z</time>
      </trkpt>
      <trkpt lat="44.80277" lon="3.5119">
        <ele>1413.978502</ele>
        <time>2020-03-09T04:35:00.755Z</time>
      </trkpt>
      <trkpt lat="44.80353" lon="3.51321">
        <ele>1406.144812</ele>
        <time>2020-03-09T04:35:16.429Z</time>
      </trkpt>
      <trkpt lat="44.8041" lon="3.51736">
        <ele>1384.399035</ele>
        <time>2020-03-09T04:35:54.429Z</time>
      </trkpt>
      <trkpt lat="44.80545" lon="3.52302">
        <ele>1356.400463</ele>
        <time>2020-03-09T04:36:49.724Z</time>
      </trkpt>
      <trkpt lat="44.80675" lon="3.52555">
        <ele>1339.911693</ele>
        <time>2020-03-09T04:37:17.940Z</time>
      </trkpt>
      <trkpt lat="44.80697" lon="3.52671">
        <ele>1332.794307</ele>
        <time>2020-03-09T04:37:28.555Z</time>
      </trkpt>
      <trkpt lat="44.80745" lon="3.52884">
        <ele>1319.122625</ele>
        <time>2020-03-09T04:37:48.300Z</time>
      </trkpt>
      <trkpt lat="44.80771" lon="3.53031">
        <ele>1309.705392</ele>
        <time>2020-03-09T04:38:01.752Z</time>
      </trkpt>
      <trkpt lat="44.808" lon="3.53136">
        <ele>1302.535491</ele>
        <time>2020-03-09T04:38:11.645Z</time>
      </trkpt>
      <trkpt lat="44.80872" lon="3.53361">
        <ele>1286.687415</ele>
        <time>2020-03-09T04:38:33.330Z</time>
      </trkpt>
      <trkpt lat="44.80882" lon="3.53407">
        <ele>1283.712115</ele>
        <time>2020-03-09T04:38:37.571Z</time>
      </trkpt>
      <trkpt lat="44.80889" lon="3.53579">
        <ele>1273.200444</ele>
        <time>2020-03-09T04:38:52.867Z</time>
      </trkpt>
      <trkpt lat="44.80883" lon="3.53626">
        <ele>1270.391151</ele>
        <time>2020-03-09T04:38:57.172Z</time>
      </trkpt>
      <trkpt lat="44.80883" lon="3.53672">
        <ele>1267.726766</ele>
        <time>2020-03-09T04:39:01.261Z</time>
      </trkpt>
      <trkpt lat="44.80894" lon="3.53729">
        <ele>1264.245944</ele>
        <time>2020-03-09T04:39:06.557Z</time>
      </trkpt>
      <trkpt lat="44.809" lon="3.53795">
        <ele>1260.35056</ele>
        <time>2020-03-09T04:39:12.460Z</time>
      </trkpt>
      <trkpt lat="44.80898" lon="3.53837">
        <ele>1257.595222</ele>
        <time>2020-03-09T04:39:16.162Z</time>
      </trkpt>
      <trkpt lat="44.80881" lon="3.53885">
        <ele>1254.078325</ele>
        <time>2020-03-09T04:39:20.880Z</time>
      </trkpt>
      <trkpt lat="44.80891" lon="3.54034">
        <ele>1244.292648</ele>
        <time>2020-03-09T04:39:33.912Z</time>
      </trkpt>
      <trkpt lat="44.80886" lon="3.54097">
        <ele>1240.414093</ele>
        <time>2020-03-09T04:39:39.439Z</time>
      </trkpt>
      <trkpt lat="44.80895" lon="3.54165">
        <ele>1236.167472</ele>
        <time>2020-03-09T04:39:45.598Z</time>
      </trkpt>
      <trkpt lat="44.80893" lon="3.54213">
        <ele>1233.261291</ele>
        <time>2020-03-09T04:39:49.861Z</time>
      </trkpt>
      <trkpt lat="44.80853" lon="3.54464">
        <ele>1219.170613</ele>
        <time>2020-03-09T04:40:12.864Z</time>
      </trkpt>
      <trkpt lat="44.80852" lon="3.54478">
        <ele>1218.410623</ele>
        <time>2020-03-09T04:40:14.137Z</time>
      </trkpt>
      <trkpt lat="44.80848" lon="3.54507">
        <ele>1216.872866</ele>
        <time>2020-03-09T04:40:16.909Z</time>
      </trkpt>
      <trkpt lat="44.80857" lon="3.54562">
        <ele>1214.431522</ele>
        <time>2020-03-09T04:40:22.169Z</time>
      </trkpt>
      <trkpt lat="44.80869" lon="3.54676">
        <ele>1210.85836</ele>
        <time>2020-03-09T04:40:33.186Z</time>
      </trkpt>
      <trkpt lat="44.80866" lon="3.54728">
        <ele>1209.24995</ele>
        <time>2020-03-09T04:40:38.566Z</time>
      </trkpt>
      <trkpt lat="44.80866" lon="3.54793">
        <ele>1207.249816</ele>
        <time>2020-03-09T04:40:45.627Z</time>
      </trkpt>
      <trkpt lat="44.80879" lon="3.5489">
        <ele>1204.450332</ele>
        <time>2020-03-09T04:40:56.147Z</time>
      </trkpt>
      <trkpt lat="44.80881" lon="3.55003">
        <ele>1201.241118</ele>
        <time>2020-03-09T04:41:07.450Z</time>
      </trkpt>
      <trkpt lat="44.80869" lon="3.5509">
        <ele>1197.366194</ele>
        <time>2020-03-09T04:41:15.717Z</time>
      </trkpt>
      <trkpt lat="44.80862" lon="3.55111">
        <ele>1196.056721</ele>
        <time>2020-03-09T04:41:17.832Z</time>
      </trkpt>
      <trkpt lat="44.80865" lon="3.55155">
        <ele>1193.558526</ele>
        <time>2020-03-09T04:41:21.821Z</time>
      </trkpt>
      <trkpt lat="44.80881" lon="3.55226">
        <ele>1189.357087</ele>
        <time>2020-03-09T04:41:28.425Z</time>
      </trkpt>
      <trkpt lat="44.80886" lon="3.55327">
        <ele>1183.4265</ele>
        <time>2020-03-09T04:41:37.226Z</time>
      </trkpt>
      <trkpt lat="44.80899" lon="3.55366">
        <ele>1180.674357</ele>
        <time>2020-03-09T04:41:40.937Z</time>
      </trkpt>
      <trkpt lat="44.80957" lon="3.55492">
        <ele>1171.186636</ele>
        <time>2020-03-09T04:41:54.057Z</time>
      </trkpt>
      <trkpt lat="44.80962" lon="3.55515">
        <ele>1169.74048</ele>
        <time>2020-03-09T04:41:56.286Z</time>
      </trkpt>
      <trkpt lat="44.80963" lon="3.55536">
        <ele>1169.220514</ele>
        <time>2020-03-09T04:41:58.136Z</time>
      </trkpt>
      <trkpt lat="44.80963" lon="3.55555">
        <ele>1168.738067</ele>
        <time>2020-03-09T04:41:59.998Z</time>
      </trkpt>
      <trkpt lat="44.81036" lon="3.55837">
        <ele>1163.167379</ele>
        <time>2020-03-09T04:42:32.858Z</time>
      </trkpt>
      <trkpt lat="44.81095" lon="3.55873">
        <ele>1162.818945</ele>
        <time>2020-03-09T04:42:47.612Z</time>
      </trkpt>
      <trkpt lat="44.81108" lon="3.55902">
        <ele>1162.685988</ele>
        <time>2020-03-09T04:42:52.957Z</time>
      </trkpt>
      <trkpt lat="44.81134" lon="3.55922">
        <ele>1162.529772</ele>
        <time>2020-03-09T04:42:59.747Z</time>
      </trkpt>
      <trkpt lat="44.81169" lon="3.55929">
        <ele>1162.417478</ele>
        <time>2020-03-09T04:43:06.989Z</time>
      </trkpt>
      <trkpt lat="44.8116" lon="3.55936">
        <ele>1162.385622</ele>
        <time>2020-03-09T04:43:08.049Z</time>
      </trkpt>
      <trkpt lat="44.81149" lon="3.55946">
        <ele>1162.34309</ele>
        <time>2020-03-09T04:43:10.294Z</time>
      </trkpt>
      <trkpt lat="44.81109" lon="3.56019">
        <ele>1162.129548</ele>
        <time>2020-03-09T04:43:18.975Z</time>
      </trkpt>
      <trkpt lat="44.81083" lon="3.56049">
        <ele>1162.021118</ele>
        <time>2020-03-09T04:43:23.137Z</time>
      </trkpt>
      <trkpt lat="44.81049" lon="3.56079">
        <ele>1162.269514</ele>
        <time>2020-03-09T04:43:27.965Z</time>
      </trkpt>
      <trkpt lat="44.80982" lon="3.56099">
        <ele>1163.379892</ele>
        <time>2020-03-09T04:43:40.137Z</time>
      </trkpt>
      <trkpt lat="44.80933" lon="3.56172">
        <ele>1164.550408</ele>
        <time>2020-03-09T04:43:57.761Z</time>
      </trkpt>
      <trkpt lat="44.80924" lon="3.56182">
        <ele>1164.738011</ele>
        <time>2020-03-09T04:44:01.198Z</time>
      </trkpt>
      <trkpt lat="44.80917" lon="3.56195">
        <ele>1165.004557</ele>
        <time>2020-03-09T04:44:04.191Z</time>
      </trkpt>
      <trkpt lat="44.80905" lon="3.56208">
        <ele>1165.82413</ele>
        <time>2020-03-09T04:44:09.229Z</time>
      </trkpt>
      <trkpt lat="44.80888" lon="3.56225">
        <ele>1166.963297</ele>
        <time>2020-03-09T04:44:15.506Z</time>
      </trkpt>
      <trkpt lat="44.8074" lon="3.56322">
        <ele>1176.212677</ele>
        <time>2020-03-09T04:45:18.837Z</time>
      </trkpt>
      <trkpt lat="44.80673" lon="3.5635">
        <ele>1181.33289</ele>
        <time>2020-03-09T04:45:48.422Z</time>
      </trkpt>
      <trkpt lat="44.80456" lon="3.56416">
        <ele>1198.127752</ele>
        <time>2020-03-09T04:47:34.102Z</time>
      </trkpt>
      <trkpt lat="44.8039" lon="3.56489">
        <ele>1203.357668</ele>
        <time>2020-03-09T04:48:09.114Z</time>
      </trkpt>
      <trkpt lat="44.80379" lon="3.56494">
        <ele>1203.838632</ele>
        <time>2020-03-09T04:48:12.740Z</time>
      </trkpt>
      <trkpt lat="44.8037" lon="3.56494">
        <ele>1204.224341</ele>
        <time>2020-03-09T04:48:17.320Z</time>
      </trkpt>
      <trkpt lat="44.80363" lon="3.56386">
        <ele>1207.552181</ele>
        <time>2020-03-09T04:48:41.170Z</time>
      </trkpt>
      <trkpt lat="44.80359" lon="3.56339">
        <ele>1209.02231</ele>
        <time>2020-03-09T04:48:49.879Z</time>
      </trkpt>
      <trkpt lat="44.80341" lon="3.56299">
        <ele>1209.59728</ele>
        <time>2020-03-09T04:48:57.359Z</time>
      </trkpt>
      <trkpt lat="44.80273" lon="3.56273">
        <ele>1209.843044</ele>
        <time>2020-03-09T04:49:07.682Z</time>
      </trkpt>
      <trkpt lat="44.80242" lon="3.56255">
        <ele>1209.962213</ele>
        <time>2020-03-09T04:49:12.547Z</time>
      </trkpt>
      <trkpt lat="44.80226" lon="3.56243">
        <ele>1210.024071</ele>
        <time>2020-03-09T04:49:14.823Z</time>
      </trkpt>
      <trkpt lat="44.80223" lon="3.5624">
        <ele>1210.037737</ele>
        <time>2020-03-09T04:49:15.554Z</time>
      </trkpt>
      <trkpt lat="44.80203" lon="3.56235">
        <ele>1210.108003</ele>
        <time>2020-03-09T04:49:18.436Z</time>
      </trkpt>
      <trkpt lat="44.80193" lon="3.5624">
        <ele>1210.145836</ele>
        <time>2020-03-09T04:49:19.828Z</time>
      </trkpt>
      <trkpt lat="44.80135" lon="3.56302">
        <ele>1209.930952</ele>
        <time>2020-03-09T04:49:30.100Z</time>
      </trkpt>
      <trkpt lat="44.80113" lon="3.56308">
        <ele>1209.861135</ele>
        <time>2020-03-09T04:49:33.444Z</time>
      </trkpt>
      <trkpt lat="44.80102" lon="3.56302">
        <ele>1209.825407</ele>
        <time>2020-03-09T04:49:34.889Z</time>
      </trkpt>
      <trkpt lat="44.8009" lon="3.56276">
        <ele>1209.758055</ele>
        <time>2020-03-09T04:49:38.084Z</time>
      </trkpt>
      <trkpt lat="44.80096" lon="3.56173">
        <ele>1209.367831</ele>
        <time>2020-03-09T04:49:47.910Z</time>
      </trkpt>
      <trkpt lat="44.80086" lon="3.56119">
        <ele>1208.924026</ele>
        <time>2020-03-09T04:49:52.929Z</time>
      </trkpt>
      <trkpt lat="44.80069" lon="3.56082">
        <ele>1208.581664</ele>
        <time>2020-03-09T04:49:56.682Z</time>
      </trkpt>
      <trkpt lat="44.80051" lon="3.56057">
        <ele>1208.29963</ele>
        <time>2020-03-09T04:49:59.710Z</time>
      </trkpt>
      <trkpt lat="44.80029" lon="3.56037">
        <ele>1208.014825</ele>
        <time>2020-03-09T04:50:02.724Z</time>
      </trkpt>
      <trkpt lat="44.80005" lon="3.56029">
        <ele>1207.743913</ele>
        <time>2020-03-09T04:50:05.551Z</time>
      </trkpt>
      <trkpt lat="44.7997" lon="3.56028">
        <ele>1207.223351</ele>
        <time>2020-03-09T04:50:09.536Z</time>
      </trkpt>
      <trkpt lat="44.79848" lon="3.56059">
        <ele>1205.138594</ele>
        <time>2020-03-09T04:50:23.253Z</time>
      </trkpt>
      <trkpt lat="44.79803" lon="3.56068">
        <ele>1204.446711</ele>
        <time>2020-03-09T04:50:28.570Z</time>
      </trkpt>
      <trkpt lat="44.79763" lon="3.56079">
        <ele>1204.038198</ele>
        <time>2020-03-09T04:50:33.354Z</time>
      </trkpt>
      <trkpt lat="44.79735" lon="3.56091">
        <ele>1203.736304</ele>
        <time>2020-03-09T04:50:36.952Z</time>
      </trkpt>
      <trkpt lat="44.79694" lon="3.56125">
        <ele>1203.24713</ele>
        <time>2020-03-09T04:50:42.807Z</time>
      </trkpt>
      <trkpt lat="44.79688" lon="3.5613">
        <ele>1203.176878</ele>
        <time>2020-03-09T04:50:43.686Z</time>
      </trkpt>
      <trkpt lat="44.7967" lon="3.5615">
        <ele>1202.939473</ele>
        <time>2020-03-09T04:50:46.665Z</time>
      </trkpt>
      <trkpt lat="44.79623" lon="3.56183">
        <ele>1202.622795</ele>
        <time>2020-03-09T04:50:53.468Z</time>
      </trkpt>
      <trkpt lat="44.79489" lon="3.56202">
        <ele>1202.141364</ele>
        <time>2020-03-09T04:51:11.531Z</time>
      </trkpt>
      <trkpt lat="44.79403" lon="3.56247">
        <ele>1202.495424</ele>
        <time>2020-03-09T04:51:25.696Z</time>
      </trkpt>
      <trkpt lat="44.7934" lon="3.56241">
        <ele>1202.813497</ele>
        <time>2020-03-09T04:51:36.728Z</time>
      </trkpt>
      <trkpt lat="44.793" lon="3.56248">
        <ele>1203.026589</ele>
        <time>2020-03-09T04:51:44.469Z</time>
      </trkpt>
      <trkpt lat="44.79257" lon="3.56289">
        <ele>1203.402911</ele>
        <time>2020-03-09T04:51:54.950Z</time>
      </trkpt>
      <trkpt lat="44.79231" lon="3.56298">
        <ele>1203.599424</ele>
        <time>2020-03-09T04:52:00.483Z</time>
      </trkpt>
      <trkpt lat="44.79219" lon="3.56294">
        <ele>1203.693224</ele>
        <time>2020-03-09T04:52:03.030Z</time>
      </trkpt>
      <trkpt lat="44.79198" lon="3.56273">
        <ele>1203.882122</ele>
        <time>2020-03-09T04:52:07.240Z</time>
      </trkpt>
      <trkpt lat="44.79164" lon="3.56216">
        <ele>1204.266327</ele>
        <time>2020-03-09T04:52:14.955Z</time>
      </trkpt>
      <trkpt lat="44.79103" lon="3.56176">
        <ele>1204.193614</ele>
        <time>2020-03-09T04:52:25.497Z</time>
      </trkpt>
      <trkpt lat="44.79067" lon="3.56155">
        <ele>1204.106394</ele>
        <time>2020-03-09T04:52:31.035Z</time>
      </trkpt>
      <trkpt lat="44.79051" lon="3.56148">
        <ele>1204.068026</ele>
        <time>2020-03-09T04:52:33.528Z</time>
      </trkpt>
      <trkpt lat="44.79023" lon="3.56127">
        <ele>1203.998395</ele>
        <time>2020-03-09T04:52:37.716Z</time>
      </trkpt>
      <trkpt lat="44.79016" lon="3.56118">
        <ele>1203.976652</ele>
        <time>2020-03-09T04:52:38.885Z</time>
      </trkpt>
      <trkpt lat="44.79012" lon="3.5611">
        <ele>1203.961924</ele>
        <time>2020-03-09T04:52:39.862Z</time>
      </trkpt>
      <trkpt lat="44.79008" lon="3.56098">
        <ele>1203.940589</ele>
        <time>2020-03-09T04:52:40.974Z</time>
      </trkpt>
      <trkpt lat="44.79006" lon="3.56084">
        <ele>1203.907781</ele>
        <time>2020-03-09T04:52:42.373Z</time>
      </trkpt>
      <trkpt lat="44.79007" lon="3.56061">
        <ele>1203.80784</ele>
        <time>2020-03-09T04:52:44.384Z</time>
      </trkpt>
      <trkpt lat="44.79012" lon="3.55952">
        <ele>1203.328808</ele>
        <time>2020-03-09T04:52:54.418Z</time>
      </trkpt>
      <trkpt lat="44.79009" lon="3.55927">
        <ele>1203.218964</ele>
        <time>2020-03-09T04:52:56.880Z</time>
      </trkpt>
      <trkpt lat="44.78997" lon="3.55893">
        <ele>1203.051691</ele>
        <time>2020-03-09T04:53:00.521Z</time>
      </trkpt>
      <trkpt lat="44.78972" lon="3.55861">
        <ele>1202.840873</ele>
        <time>2020-03-09T04:53:04.712Z</time>
      </trkpt>
      <trkpt lat="44.78873" lon="3.55783">
        <ele>1202.782274</ele>
        <time>2020-03-09T04:53:19.841Z</time>
      </trkpt>
      <trkpt lat="44.78829" lon="3.55775">
        <ele>1202.769234</ele>
        <time>2020-03-09T04:53:26.727Z</time>
      </trkpt>
      <trkpt lat="44.7867" lon="3.55841">
        <ele>1204.693819</ele>
        <time>2020-03-09T04:53:59.755Z</time>
      </trkpt>
      <trkpt lat="44.78613" lon="3.55859">
        <ele>1205.751057</ele>
        <time>2020-03-09T04:54:12.348Z</time>
      </trkpt>
      <trkpt lat="44.78545" lon="3.55879">
        <ele>1207.748264</ele>
        <time>2020-03-09T04:54:29.764Z</time>
      </trkpt>
      <trkpt lat="44.78531" lon="3.55883">
        <ele>1208.150673</ele>
        <time>2020-03-09T04:54:33.685Z</time>
      </trkpt>
      <trkpt lat="44.78522" lon="3.55881">
        <ele>1208.397817</ele>
        <time>2020-03-09T04:54:35.904Z</time>
      </trkpt>
      <trkpt lat="44.78511" lon="3.55871">
        <ele>1208.785267</ele>
        <time>2020-03-09T04:54:39.594Z</time>
      </trkpt>
      <trkpt lat="44.78504" lon="3.55854">
        <ele>1209.189121</ele>
        <time>2020-03-09T04:54:43.700Z</time>
      </trkpt>
      <trkpt lat="44.78498" lon="3.55832">
        <ele>1209.656389</ele>
        <time>2020-03-09T04:54:47.896Z</time>
      </trkpt>
      <trkpt lat="44.78492" lon="3.55813">
        <ele>1210.07919</ele>
        <time>2020-03-09T04:54:52.692Z</time>
      </trkpt>
      <trkpt lat="44.78486" lon="3.55793">
        <ele>1210.585917</ele>
        <time>2020-03-09T04:54:56.745Z</time>
      </trkpt>
      <trkpt lat="44.78473" lon="3.55771">
        <ele>1211.507988</ele>
        <time>2020-03-09T04:55:03.198Z</time>
      </trkpt>
      <trkpt lat="44.78409" lon="3.55714">
        <ele>1214.889207</ele>
        <time>2020-03-09T04:55:27.706Z</time>
      </trkpt>
      <trkpt lat="44.78363" lon="3.55696">
        <ele>1217.030521</ele>
        <time>2020-03-09T04:55:44.373Z</time>
      </trkpt>
      <trkpt lat="44.78242" lon="3.55671">
        <ele>1222.654992</ele>
        <time>2020-03-09T04:56:26.286Z</time>
      </trkpt>
      <trkpt lat="44.78199" lon="3.55669">
        <ele>1224.66329</ele>
        <time>2020-03-09T04:56:40.381Z</time>
      </trkpt>
      <trkpt lat="44.7818" lon="3.55665">
        <ele>1225.565122</ele>
        <time>2020-03-09T04:56:46.927Z</time>
      </trkpt>
      <trkpt lat="44.78164" lon="3.55656">
        <ele>1226.385167</ele>
        <time>2020-03-09T04:56:52.429Z</time>
      </trkpt>
      <trkpt lat="44.78135" lon="3.55612">
        <ele>1228.206286</ele>
        <time>2020-03-09T04:57:06.203Z</time>
      </trkpt>
      <trkpt lat="44.7811" lon="3.5559">
        <ele>1229.434281</ele>
        <time>2020-03-09T04:57:15.545Z</time>
      </trkpt>
      <trkpt lat="44.78081" lon="3.55593">
        <ele>1230.656078</ele>
        <time>2020-03-09T04:57:24.756Z</time>
      </trkpt>
      <trkpt lat="44.78042" lon="3.55617">
        <ele>1232.415961</ele>
        <time>2020-03-09T04:57:38.183Z</time>
      </trkpt>
      <trkpt lat="44.78042" lon="3.55617">
        <ele>1232.424844</ele>
        <time>2020-03-09T04:57:38.443Z</time>
      </trkpt>
      <trkpt lat="44.78018" lon="3.55622">
        <ele>1233.460668</ele>
        <time>2020-03-09T04:57:45.740Z</time>
      </trkpt>
      <trkpt lat="44.77917" lon="3.55598">
        <ele>1237.409241</ele>
        <time>2020-03-09T04:58:16.108Z</time>
      </trkpt>
      <trkpt lat="44.77862" lon="3.55611">
        <ele>1239.546367</ele>
        <time>2020-03-09T04:58:33.146Z</time>
      </trkpt>
      <trkpt lat="44.77813" lon="3.55589">
        <ele>1241.500056</ele>
        <time>2020-03-09T04:58:48.227Z</time>
      </trkpt>
      <trkpt lat="44.77792" lon="3.55586">
        <ele>1242.379943</ele>
        <time>2020-03-09T04:58:54.513Z</time>
      </trkpt>
      <trkpt lat="44.77773" lon="3.55592">
        <ele>1243.19241</ele>
        <time>2020-03-09T04:59:00.261Z</time>
      </trkpt>
      <trkpt lat="44.77756" lon="3.55605">
        <ele>1244.003188</ele>
        <time>2020-03-09T04:59:06.077Z</time>
      </trkpt>
      <trkpt lat="44.77742" lon="3.55627">
        <ele>1244.896655</ele>
        <time>2020-03-09T04:59:12.558Z</time>
      </trkpt>
      <trkpt lat="44.77673" lon="3.55767">
        <ele>1250.298382</ele>
        <time>2020-03-09T04:59:52.108Z</time>
      </trkpt>
      <trkpt lat="44.77578" lon="3.55863">
        <ele>1256.674146</ele>
        <time>2020-03-09T05:00:35.887Z</time>
      </trkpt>
      <trkpt lat="44.77545" lon="3.55936">
        <ele>1259.90325</ele>
        <time>2020-03-09T05:00:59.743Z</time>
      </trkpt>
      <trkpt lat="44.77531" lon="3.55962">
        <ele>1261.025359</ele>
        <time>2020-03-09T05:01:08.337Z</time>
      </trkpt>
      <trkpt lat="44.77523" lon="3.55973">
        <ele>1261.607972</ele>
        <time>2020-03-09T05:01:12.518Z</time>
      </trkpt>
      <trkpt lat="44.77509" lon="3.55987">
        <ele>1262.435166</ele>
        <time>2020-03-09T05:01:18.416Z</time>
      </trkpt>
      <trkpt lat="44.77493" lon="3.56002">
        <ele>1263.401898</ele>
        <time>2020-03-09T05:01:25.349Z</time>
      </trkpt>
      <trkpt lat="44.77474" lon="3.56016">
        <ele>1264.486229</ele>
        <time>2020-03-09T05:01:32.931Z</time>
      </trkpt>
      <trkpt lat="44.77451" lon="3.56019">
        <ele>1265.650951</ele>
        <time>2020-03-09T05:01:40.562Z</time>
      </trkpt>
      <trkpt lat="44.77431" lon="3.56009">
        <ele>1266.67221</ele>
        <time>2020-03-09T05:01:47.543Z</time>
      </trkpt>
      <trkpt lat="44.77334" lon="3.55931">
        <ele>1270.401584</ele>
        <time>2020-03-09T05:02:19.848Z</time>
      </trkpt>
      <trkpt lat="44.77299" lon="3.55885">
        <ele>1271.855672</ele>
        <time>2020-03-09T05:02:31.417Z</time>
      </trkpt>
      <trkpt lat="44.77285" lon="3.55841">
        <ele>1272.889825</ele>
        <time>2020-03-09T05:02:39.520Z</time>
      </trkpt>
      <trkpt lat="44.7728" lon="3.55786">
        <ele>1273.9271</ele>
        <time>2020-03-09T05:02:48.833Z</time>
      </trkpt>
      <trkpt lat="44.77292" lon="3.55624">
        <ele>1276.949791</ele>
        <time>2020-03-09T05:03:17.815Z</time>
      </trkpt>
      <trkpt lat="44.77283" lon="3.55595">
        <ele>1277.539047</ele>
        <time>2020-03-09T05:03:23.868Z</time>
      </trkpt>
      <trkpt lat="44.77266" lon="3.55577">
        <ele>1278.29568</ele>
        <time>2020-03-09T05:03:29.876Z</time>
      </trkpt>
      <trkpt lat="44.77249" lon="3.55569">
        <ele>1278.925644</ele>
        <time>2020-03-09T05:03:34.654Z</time>
      </trkpt>
      <trkpt lat="44.77167" lon="3.55558">
        <ele>1281.970782</ele>
        <time>2020-03-09T05:03:59.263Z</time>
      </trkpt>
      <trkpt lat="44.77031" lon="3.55574">
        <ele>1286.799742</ele>
        <time>2020-03-09T05:04:41.844Z</time>
      </trkpt>
      <trkpt lat="44.77005" lon="3.55566">
        <ele>1287.704986</ele>
        <time>2020-03-09T05:04:49.587Z</time>
      </trkpt>
      <trkpt lat="44.76904" lon="3.55508">
        <ele>1290.892934</ele>
        <time>2020-03-09T05:05:18.266Z</time>
      </trkpt>
      <trkpt lat="44.7676" lon="3.55476">
        <ele>1293.28324</ele>
        <time>2020-03-09T05:05:48.398Z</time>
      </trkpt>
      <trkpt lat="44.76697" lon="3.55443">
        <ele>1293.773882</ele>
        <time>2020-03-09T05:05:59.749Z</time>
      </trkpt>
      <trkpt lat="44.76677" lon="3.55438">
        <ele>1293.913301</ele>
        <time>2020-03-09T05:06:03.232Z</time>
      </trkpt>
      <trkpt lat="44.76663" lon="3.55436">
        <ele>1294.008461</ele>
        <time>2020-03-09T05:06:05.480Z</time>
      </trkpt>
      <trkpt lat="44.76564" lon="3.55448">
        <ele>1294.948842</ele>
        <time>2020-03-09T05:06:21.463Z</time>
      </trkpt>
      <trkpt lat="44.76527" lon="3.55462">
        <ele>1295.840463</ele>
        <time>2020-03-09T05:06:30.040Z</time>
      </trkpt>
      <trkpt lat="44.76451" lon="3.55553">
        <ele>1298.133002</ele>
        <time>2020-03-09T05:06:54.978Z</time>
      </trkpt>
      <trkpt lat="44.76449" lon="3.55561">
        <ele>1298.26693</ele>
        <time>2020-03-09T05:06:56.317Z</time>
      </trkpt>
      <trkpt lat="44.76449" lon="3.55566">
        <ele>1298.337032</ele>
        <time>2020-03-09T05:06:57.484Z</time>
      </trkpt>
      <trkpt lat="44.76435" lon="3.55567">
        <ele>1298.67075</ele>
        <time>2020-03-09T05:07:02.077Z</time>
      </trkpt>
      <trkpt lat="44.76403" lon="3.55551">
        <ele>1299.905107</ele>
        <time>2020-03-09T05:07:11.681Z</time>
      </trkpt>
      <trkpt lat="44.76323" lon="3.55456">
        <ele>1303.855568</ele>
        <time>2020-03-09T05:07:44.847Z</time>
      </trkpt>
      <trkpt lat="44.76309" lon="3.55429">
        <ele>1304.755092</ele>
        <time>2020-03-09T05:07:52.097Z</time>
      </trkpt>
      <trkpt lat="44.7629" lon="3.5535">
        <ele>1306.650646</ele>
        <time>2020-03-09T05:08:08.561Z</time>
      </trkpt>
      <trkpt lat="44.76274" lon="3.55315">
        <ele>1307.496239</ele>
        <time>2020-03-09T05:08:16.258Z</time>
      </trkpt>
      <trkpt lat="44.76194" lon="3.55218">
        <ele>1310.56981</ele>
        <time>2020-03-09T05:08:43.366Z</time>
      </trkpt>
      <trkpt lat="44.76172" lon="3.55184">
        <ele>1311.462356</ele>
        <time>2020-03-09T05:08:51.382Z</time>
      </trkpt>
      <trkpt lat="44.76092" lon="3.55018">
        <ele>1315.390975</ele>
        <time>2020-03-09T05:09:28.899Z</time>
      </trkpt>
      <trkpt lat="44.76009" lon="3.54906">
        <ele>1317.690828</ele>
        <time>2020-03-09T05:09:57.320Z</time>
      </trkpt>
      <trkpt lat="44.76002" lon="3.5488">
        <ele>1318.068761</ele>
        <time>2020-03-09T05:10:02.412Z</time>
      </trkpt>
      <trkpt lat="44.75999" lon="3.54881">
        <ele>1318.130832</ele>
        <time>2020-03-09T05:10:02.719Z</time>
      </trkpt>
      <trkpt lat="44.75994" lon="3.54874">
        <ele>1318.262789</ele>
        <time>2020-03-09T05:10:03.943Z</time>
      </trkpt>
      <trkpt lat="44.75989" lon="3.54792">
        <ele>1319.146649</ele>
        <time>2020-03-09T05:10:15.437Z</time>
      </trkpt>
      <trkpt lat="44.75967" lon="3.54738">
        <ele>1319.237647</ele>
        <time>2020-03-09T05:10:22.007Z</time>
      </trkpt>
      <trkpt lat="44.7592" lon="3.54702">
        <ele>1319.349639</ele>
        <time>2020-03-09T05:10:29.625Z</time>
      </trkpt>
      <trkpt lat="44.75845" lon="3.54689">
        <ele>1319.605195</ele>
        <time>2020-03-09T05:10:40.469Z</time>
      </trkpt>
      <trkpt lat="44.75817" lon="3.54693">
        <ele>1320.028851</ele>
        <time>2020-03-09T05:10:45.277Z</time>
      </trkpt>
      <trkpt lat="44.75796" lon="3.54713">
        <ele>1320.413712</ele>
        <time>2020-03-09T05:10:50.008Z</time>
      </trkpt>
      <trkpt lat="44.75768" lon="3.54755">
        <ele>1321.037251</ele>
        <time>2020-03-09T05:10:58.605Z</time>
      </trkpt>
      <trkpt lat="44.75734" lon="3.54813">
        <ele>1321.845471</ele>
        <time>2020-03-09T05:11:11.033Z</time>
      </trkpt>
      <trkpt lat="44.75704" lon="3.54882">
        <ele>1323.361497</ele>
        <time>2020-03-09T05:11:25.776Z</time>
      </trkpt>
      <trkpt lat="44.7568" lon="3.54916">
        <ele>1324.535829</ele>
        <time>2020-03-09T05:11:35.211Z</time>
      </trkpt>
      <trkpt lat="44.75609" lon="3.55">
        <ele>1327.736698</ele>
        <time>2020-03-09T05:12:02.682Z</time>
      </trkpt>
      <trkpt lat="44.75545" lon="3.55092">
        <ele>1331.535231</ele>
        <time>2020-03-09T05:12:31.985Z</time>
      </trkpt>
      <trkpt lat="44.75498" lon="3.55144">
        <ele>1334.116166</ele>
        <time>2020-03-09T05:12:51.659Z</time>
      </trkpt>
      <trkpt lat="44.75446" lon="3.5517">
        <ele>1336.448644</ele>
        <time>2020-03-09T05:13:09.595Z</time>
      </trkpt>
      <trkpt lat="44.75382" lon="3.55165">
        <ele>1338.932576</ele>
        <time>2020-03-09T05:13:29.719Z</time>
      </trkpt>
      <trkpt lat="44.75317" lon="3.5517">
        <ele>1341.416508</ele>
        <time>2020-03-09T05:13:48.887Z</time>
      </trkpt>
      <trkpt lat="44.75204" lon="3.55195">
        <ele>1345.716757</ele>
        <time>2020-03-09T05:14:21.657Z</time>
      </trkpt>
      <trkpt lat="44.75124" lon="3.5524">
        <ele>1348.848144</ele>
        <time>2020-03-09T05:14:46.701Z</time>
      </trkpt>
      <trkpt lat="44.75006" lon="3.55333">
        <ele>1354.604035</ele>
        <time>2020-03-09T05:15:29.936Z</time>
      </trkpt>
      <trkpt lat="44.74963" lon="3.55352">
        <ele>1356.582839</ele>
        <time>2020-03-09T05:15:45.114Z</time>
      </trkpt>
      <trkpt lat="44.74845" lon="3.55384">
        <ele>1362.024588</ele>
        <time>2020-03-09T05:16:24.686Z</time>
      </trkpt>
      <trkpt lat="44.74789" lon="3.55421">
        <ele>1364.83033</ele>
        <time>2020-03-09T05:16:44.811Z</time>
      </trkpt>
      <trkpt lat="44.74766" lon="3.55425">
        <ele>1365.929607</ele>
        <time>2020-03-09T05:16:52.641Z</time>
      </trkpt>
      <trkpt lat="44.74753" lon="3.55423">
        <ele>1366.613569</ele>
        <time>2020-03-09T05:16:56.879Z</time>
      </trkpt>
      <trkpt lat="44.74742" lon="3.55412">
        <ele>1367.30436</ele>
        <time>2020-03-09T05:17:01.341Z</time>
      </trkpt>
      <trkpt lat="44.7474" lon="3.55399">
        <ele>1367.800306</ele>
        <time>2020-03-09T05:17:04.525Z</time>
      </trkpt>
      <trkpt lat="44.74798" lon="3.55247">
        <ele>1374.258038</ele>
        <time>2020-03-09T05:17:48.511Z</time>
      </trkpt>
      <trkpt lat="44.74802" lon="3.5521">
        <ele>1375.703799</ele>
        <time>2020-03-09T05:17:58.898Z</time>
      </trkpt>
      <trkpt lat="44.74787" lon="3.55172">
        <ele>1377.643257</ele>
        <time>2020-03-09T05:18:11.490Z</time>
      </trkpt>
      <trkpt lat="44.74777" lon="3.55161">
        <ele>1378.460338</ele>
        <time>2020-03-09T05:18:16.765Z</time>
      </trkpt>
      <trkpt lat="44.74684" lon="3.55131">
        <ele>1384.339451</ele>
        <time>2020-03-09T05:18:55.539Z</time>
      </trkpt>
      <trkpt lat="44.74646" lon="3.55092">
        <ele>1387.112225</ele>
        <time>2020-03-09T05:19:14.209Z</time>
      </trkpt>
      <trkpt lat="44.74579" lon="3.55039">
        <ele>1390.913236</ele>
        <time>2020-03-09T05:19:42.334Z</time>
      </trkpt>
      <trkpt lat="44.74566" lon="3.55017">
        <ele>1391.90168</ele>
        <time>2020-03-09T05:19:49.130Z</time>
      </trkpt>
      <trkpt lat="44.74553" lon="3.54972">
        <ele>1393.613844</ele>
        <time>2020-03-09T05:20:00.314Z</time>
      </trkpt>
      <trkpt lat="44.74515" lon="3.54938">
        <ele>1395.721997</ele>
        <time>2020-03-09T05:20:14.223Z</time>
      </trkpt>
      <trkpt lat="44.74465" lon="3.54882">
        <ele>1397.89486</ele>
        <time>2020-03-09T05:20:32.314Z</time>
      </trkpt>
      <trkpt lat="44.7444" lon="3.54873">
        <ele>1398.805613</ele>
        <time>2020-03-09T05:20:39.600Z</time>
      </trkpt>
      <trkpt lat="44.74405" lon="3.54873">
        <ele>1399.983851</ele>
        <time>2020-03-09T05:20:49.154Z</time>
      </trkpt>
      <trkpt lat="44.74341" lon="3.5482">
        <ele>1402.566294</ele>
        <time>2020-03-09T05:21:10.205Z</time>
      </trkpt>
      <trkpt lat="44.74292" lon="3.5476">
        <ele>1404.837218</ele>
        <time>2020-03-09T05:21:28.927Z</time>
      </trkpt>
      <trkpt lat="44.74216" lon="3.54558">
        <ele>1410.221496</ele>
        <time>2020-03-09T05:22:15.786Z</time>
      </trkpt>
      <trkpt lat="44.74191" lon="3.54526">
        <ele>1411.309123</ele>
        <time>2020-03-09T05:22:25.345Z</time>
      </trkpt>
      <trkpt lat="44.74142" lon="3.54487">
        <ele>1413.075951</ele>
        <time>2020-03-09T05:22:40.219Z</time>
      </trkpt>
      <trkpt lat="44.74088" lon="3.54466">
        <ele>1414.323753</ele>
        <time>2020-03-09T05:22:54.482Z</time>
      </trkpt>
      <trkpt lat="44.7406" lon="3.54461">
        <ele>1414.863201</ele>
        <time>2020-03-09T05:23:01.291Z</time>
      </trkpt>
      <trkpt lat="44.73854" lon="3.54558">
        <ele>1417.699771</ele>
        <time>2020-03-09T05:23:46.226Z</time>
      </trkpt>
      <trkpt lat="44.73839" lon="3.5456">
        <ele>1417.800412</ele>
        <time>2020-03-09T05:23:48.502Z</time>
      </trkpt>
      <trkpt lat="44.73821" lon="3.5456">
        <ele>1417.925381</ele>
        <time>2020-03-09T05:23:50.945Z</time>
      </trkpt>
      <trkpt lat="44.73791" lon="3.54563">
        <ele>1418.137671</ele>
        <time>2020-03-09T05:23:55.118Z</time>
      </trkpt>
      <trkpt lat="44.73771" lon="3.54564">
        <ele>1418.057904</ele>
        <time>2020-03-09T05:23:57.602Z</time>
      </trkpt>
      <trkpt lat="44.7376" lon="3.54565">
        <ele>1417.923162</ele>
        <time>2020-03-09T05:23:59.033Z</time>
      </trkpt>
      <trkpt lat="44.73693" lon="3.54569">
        <ele>1417.115599</ele>
        <time>2020-03-09T05:24:07.157Z</time>
      </trkpt>
      <trkpt lat="44.73423" lon="3.54586">
        <ele>1413.032887</ele>
        <time>2020-03-09T05:24:38.143Z</time>
      </trkpt>
      <trkpt lat="44.73358" lon="3.54569">
        <ele>1410.890397</ele>
        <time>2020-03-09T05:24:45.055Z</time>
      </trkpt>
      <trkpt lat="44.73255" lon="3.5456">
        <ele>1407.521148</ele>
        <time>2020-03-09T05:24:55.285Z</time>
      </trkpt>
      <trkpt lat="44.7321" lon="3.54562">
        <ele>1405.380756</ele>
        <time>2020-03-09T05:24:59.595Z</time>
      </trkpt>
      <trkpt lat="44.73141" lon="3.54588">
        <ele>1401.691844</ele>
        <time>2020-03-09T05:25:06.257Z</time>
      </trkpt>
      <trkpt lat="44.73129" lon="3.54588">
        <ele>1401.022404</ele>
        <time>2020-03-09T05:25:07.452Z</time>
      </trkpt>
      <trkpt lat="44.73103" lon="3.54571">
        <ele>1399.54722</ele>
        <time>2020-03-09T05:25:10.094Z</time>
      </trkpt>
      <trkpt lat="44.73084" lon="3.54539">
        <ele>1397.994036</ele>
        <time>2020-03-09T05:25:12.858Z</time>
      </trkpt>
      <trkpt lat="44.73081" lon="3.54468">
        <ele>1394.996048</ele>
        <time>2020-03-09T05:25:17.495Z</time>
      </trkpt>
      <trkpt lat="44.73071" lon="3.5444">
        <ele>1393.644288</ele>
        <time>2020-03-09T05:25:19.563Z</time>
      </trkpt>
      <trkpt lat="44.73045" lon="3.54414">
        <ele>1391.749895</ele>
        <time>2020-03-09T05:25:22.449Z</time>
      </trkpt>
      <trkpt lat="44.73023" lon="3.5441">
        <ele>1390.446658</ele>
        <time>2020-03-09T05:25:24.428Z</time>
      </trkpt>
      <trkpt lat="44.72933" lon="3.54423">
        <ele>1385.64659</ele>
        <time>2020-03-09T05:25:32.705Z</time>
      </trkpt>
      <trkpt lat="44.72822" lon="3.54466">
        <ele>1380.866443</ele>
        <time>2020-03-09T05:25:43.815Z</time>
      </trkpt>
      <trkpt lat="44.72798" lon="3.54451">
        <ele>1379.796489</ele>
        <time>2020-03-09T05:25:46.588Z</time>
      </trkpt>
      <trkpt lat="44.7279" lon="3.54434">
        <ele>1379.741491</ele>
        <time>2020-03-09T05:25:48.333Z</time>
      </trkpt>
      <trkpt lat="44.72787" lon="3.54425">
        <ele>1379.816401</ele>
        <time>2020-03-09T05:25:48.954Z</time>
      </trkpt>
      <trkpt lat="44.72785" lon="3.54429">
        <ele>1379.860051</ele>
        <time>2020-03-09T05:25:49.992Z</time>
      </trkpt>
      <trkpt lat="44.72762" lon="3.54466">
        <ele>1380.266595</ele>
        <time>2020-03-09T05:25:54.652Z</time>
      </trkpt>
      <trkpt lat="44.72691" lon="3.54539">
        <ele>1381.284188</ele>
        <time>2020-03-09T05:26:13.583Z</time>
      </trkpt>
      <trkpt lat="44.72618" lon="3.54682">
        <ele>1385.581779</ele>
        <time>2020-03-09T05:26:52.836Z</time>
      </trkpt>
      <trkpt lat="44.72566" lon="3.54826">
        <ele>1390.705174</ele>
        <time>2020-03-09T05:27:31.526Z</time>
      </trkpt>
      <trkpt lat="44.72498" lon="3.55088">
        <ele>1400.788933</ele>
        <time>2020-03-09T05:28:40.969Z</time>
      </trkpt>
      <trkpt lat="44.72446" lon="3.55193">
        <ele>1405.706525</ele>
        <time>2020-03-09T05:29:14.423Z</time>
      </trkpt>
      <trkpt lat="44.72436" lon="3.55236">
        <ele>1407.457794</ele>
        <time>2020-03-09T05:29:26.506Z</time>
      </trkpt>
      <trkpt lat="44.72429" lon="3.55275">
        <ele>1409.023722</ele>
        <time>2020-03-09T05:29:37.127Z</time>
      </trkpt>
      <trkpt lat="44.72429" lon="3.55322">
        <ele>1410.925696</ele>
        <time>2020-03-09T05:29:49.812Z</time>
      </trkpt>
      <trkpt lat="44.72438" lon="3.55466">
        <ele>1416.73674</ele>
        <time>2020-03-09T05:30:28.408Z</time>
      </trkpt>
      <trkpt lat="44.72431" lon="3.55506">
        <ele>1418.420409</ele>
        <time>2020-03-09T05:30:39.464Z</time>
      </trkpt>
      <trkpt lat="44.72429" lon="3.55567">
        <ele>1420.972532</ele>
        <time>2020-03-09T05:30:55.383Z</time>
      </trkpt>
      <trkpt lat="44.72436" lon="3.55622">
        <ele>1423.371966</ele>
        <time>2020-03-09T05:31:10.584Z</time>
      </trkpt>
      <trkpt lat="44.72461" lon="3.55749">
        <ele>1428.95908</ele>
        <time>2020-03-09T05:31:47.446Z</time>
      </trkpt>
      <trkpt lat="44.72466" lon="3.55833">
        <ele>1432.934104</ele>
        <time>2020-03-09T05:32:12.087Z</time>
      </trkpt>
      <trkpt lat="44.72427" lon="3.56135">
        <ele>1446.731455</ele>
        <time>2020-03-09T05:33:44.162Z</time>
      </trkpt>
      <trkpt lat="44.72354" lon="3.56373">
        <ele>1453.935371</ele>
        <time>2020-03-09T05:34:45.918Z</time>
      </trkpt>
      <trkpt lat="44.72353" lon="3.56375">
        <ele>1453.963572</ele>
        <time>2020-03-09T05:34:47.229Z</time>
      </trkpt>
      <trkpt lat="44.72335" lon="3.56433">
        <ele>1454.999463</ele>
        <time>2020-03-09T05:34:54.632Z</time>
      </trkpt>
      <trkpt lat="44.72317" lon="3.56487">
        <ele>1455.423528</ele>
        <time>2020-03-09T05:34:59.668Z</time>
      </trkpt>
      <trkpt lat="44.72316" lon="3.56494">
        <ele>1455.182537</ele>
        <time>2020-03-09T05:35:00.179Z</time>
      </trkpt>
      <trkpt lat="44.72313" lon="3.56503">
        <ele>1454.824524</ele>
        <time>2020-03-09T05:35:00.973Z</time>
      </trkpt>
      <trkpt lat="44.72308" lon="3.56517">
        <ele>1454.331978</ele>
        <time>2020-03-09T05:35:02.597Z</time>
      </trkpt>
      <trkpt lat="44.723" lon="3.56541">
        <ele>1453.431776</ele>
        <time>2020-03-09T05:35:04.416Z</time>
      </trkpt>
      <trkpt lat="44.72264" lon="3.5665">
        <ele>1449.341639</ele>
        <time>2020-03-09T05:35:12.479Z</time>
      </trkpt>
      <trkpt lat="44.72195" lon="3.5676">
        <ele>1443.033725</ele>
        <time>2020-03-09T05:35:21.769Z</time>
      </trkpt>
      <trkpt lat="44.72159" lon="3.568">
        <ele>1439.739834</ele>
        <time>2020-03-09T05:35:25.942Z</time>
      </trkpt>
      <trkpt lat="44.72034" lon="3.56901">
        <ele>1429.553179</ele>
        <time>2020-03-09T05:35:38.841Z</time>
      </trkpt>
      <trkpt lat="44.72019" lon="3.56918">
        <ele>1428.181995</ele>
        <time>2020-03-09T05:35:40.592Z</time>
      </trkpt>
      <trkpt lat="44.72006" lon="3.56944">
        <ele>1426.58973</ele>
        <time>2020-03-09T05:35:42.622Z</time>
      </trkpt>
      <trkpt lat="44.71983" lon="3.57006">
        <ele>1423.030816</ele>
        <time>2020-03-09T05:35:47.188Z</time>
      </trkpt>
      <trkpt lat="44.71976" lon="3.57043">
        <ele>1421.049587</ele>
        <time>2020-03-09T05:35:49.529Z</time>
      </trkpt>
      <trkpt lat="44.71974" lon="3.57081">
        <ele>1418.80842</ele>
        <time>2020-03-09T05:35:51.952Z</time>
      </trkpt>
      <trkpt lat="44.71985" lon="3.57169">
        <ele>1413.641356</ele>
        <time>2020-03-09T05:35:57.555Z</time>
      </trkpt>
      <trkpt lat="44.71976" lon="3.57204">
        <ele>1411.538965</ele>
        <time>2020-03-09T05:35:59.852Z</time>
      </trkpt>
      <trkpt lat="44.7197" lon="3.57219">
        <ele>1410.522132</ele>
        <time>2020-03-09T05:36:00.933Z</time>
      </trkpt>
      <trkpt lat="44.71957" lon="3.5724">
        <ele>1408.898772</ele>
        <time>2020-03-09T05:36:02.699Z</time>
      </trkpt>
      <trkpt lat="44.71908" lon="3.57322">
        <ele>1402.904361</ele>
        <time>2020-03-09T05:36:09.394Z</time>
      </trkpt>
      <trkpt lat="44.71805" lon="3.57455">
        <ele>1392.245654</ele>
        <time>2020-03-09T05:36:21.822Z</time>
      </trkpt>
      <trkpt lat="44.71794" lon="3.57466">
        <ele>1391.41597</ele>
        <time>2020-03-09T05:36:23.016Z</time>
      </trkpt>
      <trkpt lat="44.71734" lon="3.57483">
        <ele>1387.539417</ele>
        <time>2020-03-09T05:36:28.584Z</time>
      </trkpt>
      <trkpt lat="44.71717" lon="3.57493">
        <ele>1386.350755</ele>
        <time>2020-03-09T05:36:30.302Z</time>
      </trkpt>
      <trkpt lat="44.71704" lon="3.57513">
        <ele>1385.164996</ele>
        <time>2020-03-09T05:36:32.029Z</time>
      </trkpt>
      <trkpt lat="44.71678" lon="3.5759">
        <ele>1381.394239</ele>
        <time>2020-03-09T05:36:37.656Z</time>
      </trkpt>
      <trkpt lat="44.71657" lon="3.5771">
        <ele>1376.74424</ele>
        <time>2020-03-09T05:36:45.887Z</time>
      </trkpt>
      <trkpt lat="44.7165" lon="3.57762">
        <ele>1374.77988</ele>
        <time>2020-03-09T05:36:49.358Z</time>
      </trkpt>
      <trkpt lat="44.71652" lon="3.5785">
        <ele>1371.61861</ele>
        <time>2020-03-09T05:36:55.283Z</time>
      </trkpt>
      <trkpt lat="44.71658" lon="3.57881">
        <ele>1370.645931</ele>
        <time>2020-03-09T05:36:57.442Z</time>
      </trkpt>
      <trkpt lat="44.71678" lon="3.57951">
        <ele>1368.367688</ele>
        <time>2020-03-09T05:37:02.613Z</time>
      </trkpt>
      <trkpt lat="44.71745" lon="3.58169">
        <ele>1361.636168</ele>
        <time>2020-03-09T05:37:19.305Z</time>
      </trkpt>
      <trkpt lat="44.71755" lon="3.5819">
        <ele>1360.986027</ele>
        <time>2020-03-09T05:37:21.096Z</time>
      </trkpt>
      <trkpt lat="44.71812" lon="3.58268">
        <ele>1358.046986</ele>
        <time>2020-03-09T05:37:29.078Z</time>
      </trkpt>
      <trkpt lat="44.71841" lon="3.58335">
        <ele>1355.416488</ele>
        <time>2020-03-09T05:37:34.523Z</time>
      </trkpt>
      <trkpt lat="44.71875" lon="3.58643">
        <ele>1343.797547</ele>
        <time>2020-03-09T05:37:55.302Z</time>
      </trkpt>
      <trkpt lat="44.71874" lon="3.58727">
        <ele>1340.289606</ele>
        <time>2020-03-09T05:38:00.742Z</time>
      </trkpt>
      <trkpt lat="44.71858" lon="3.58777">
        <ele>1337.851861</ele>
        <time>2020-03-09T05:38:04.272Z</time>
      </trkpt>
      <trkpt lat="44.7175" lon="3.58992">
        <ele>1324.804828</ele>
        <time>2020-03-09T05:38:21.097Z</time>
      </trkpt>
      <trkpt lat="44.71621" lon="3.59171">
        <ele>1312.711458</ele>
        <time>2020-03-09T05:38:37.476Z</time>
      </trkpt>
      <trkpt lat="44.71581" lon="3.59198">
        <ele>1310.204445</ele>
        <time>2020-03-09T05:38:41.528Z</time>
      </trkpt>
      <trkpt lat="44.71557" lon="3.592">
        <ele>1308.84979</ele>
        <time>2020-03-09T05:38:43.726Z</time>
      </trkpt>
      <trkpt lat="44.71501" lon="3.59186">
        <ele>1305.581668</ele>
        <time>2020-03-09T05:38:49.103Z</time>
      </trkpt>
      <trkpt lat="44.71488" lon="3.59191">
        <ele>1304.828843</ele>
        <time>2020-03-09T05:38:50.342Z</time>
      </trkpt>
      <trkpt lat="44.71477" lon="3.59208">
        <ele>1303.909291</ele>
        <time>2020-03-09T05:38:51.889Z</time>
      </trkpt>
      <trkpt lat="44.71471" lon="3.59238">
        <ele>1303.130906</ele>
        <time>2020-03-09T05:38:54.001Z</time>
      </trkpt>
      <trkpt lat="44.71457" lon="3.59469">
        <ele>1298.019935</ele>
        <time>2020-03-09T05:39:10.753Z</time>
      </trkpt>
      <trkpt lat="44.7144" lon="3.59503">
        <ele>1298.216171</ele>
        <time>2020-03-09T05:39:14.455Z</time>
      </trkpt>
      <trkpt lat="44.71376" lon="3.59576">
        <ele>1298.773299</ele>
        <time>2020-03-09T05:39:29.201Z</time>
      </trkpt>
      <trkpt lat="44.71368" lon="3.59599">
        <ele>1298.893457</ele>
        <time>2020-03-09T05:39:33.397Z</time>
      </trkpt>
      <trkpt lat="44.71375" lon="3.59642">
        <ele>1299.10583</ele>
        <time>2020-03-09T05:39:41.140Z</time>
      </trkpt>
      <trkpt lat="44.71425" lon="3.598">
        <ele>1300.873738</ele>
        <time>2020-03-09T05:40:11.761Z</time>
      </trkpt>
      <trkpt lat="44.71431" lon="3.60015">
        <ele>1301.049707</ele>
        <time>2020-03-09T05:40:35.268Z</time>
      </trkpt>
      <trkpt lat="44.71429" lon="3.60103">
        <ele>1300.348418</ele>
        <time>2020-03-09T05:40:42.099Z</time>
      </trkpt>
      <trkpt lat="44.71406" lon="3.60204">
        <ele>1299.4334</ele>
        <time>2020-03-09T05:40:50.296Z</time>
      </trkpt>
      <trkpt lat="44.71386" lon="3.60253">
        <ele>1298.916035</ele>
        <time>2020-03-09T05:40:54.631Z</time>
      </trkpt>
      <trkpt lat="44.7124" lon="3.60493">
        <ele>1297.81529</ele>
        <time>2020-03-09T05:41:23.924Z</time>
      </trkpt>
      <trkpt lat="44.71219" lon="3.60564">
        <ele>1297.900987</ele>
        <time>2020-03-09T05:41:35.571Z</time>
      </trkpt>
      <trkpt lat="44.71212" lon="3.60661">
        <ele>1298.784547</ele>
        <time>2020-03-09T05:41:50.934Z</time>
      </trkpt>
      <trkpt lat="44.71197" lon="3.6074">
        <ele>1299.539928</ele>
        <time>2020-03-09T05:42:02.768Z</time>
      </trkpt>
      <trkpt lat="44.71197" lon="3.6075">
        <ele>1299.636606</ele>
        <time>2020-03-09T05:42:05.392Z</time>
      </trkpt>
      <trkpt lat="44.71199" lon="3.60762">
        <ele>1299.747306</ele>
        <time>2020-03-09T05:42:06.542Z</time>
      </trkpt>
      <trkpt lat="44.71234" lon="3.60813">
        <ele>1300.126183</ele>
        <time>2020-03-09T05:42:15.274Z</time>
      </trkpt>
      <trkpt lat="44.71268" lon="3.60916">
        <ele>1299.489139</ele>
        <time>2020-03-09T05:42:27.189Z</time>
      </trkpt>
      <trkpt lat="44.71356" lon="3.61043">
        <ele>1297.814632</ele>
        <time>2020-03-09T05:42:41.182Z</time>
      </trkpt>
      <trkpt lat="44.71418" lon="3.61161">
        <ele>1295.201036</ele>
        <time>2020-03-09T05:42:52.146Z</time>
      </trkpt>
      <trkpt lat="44.71427" lon="3.61188">
        <ele>1294.660035</ele>
        <time>2020-03-09T05:42:54.380Z</time>
      </trkpt>
      <trkpt lat="44.71429" lon="3.61223">
        <ele>1294.013809</ele>
        <time>2020-03-09T05:42:56.912Z</time>
      </trkpt>
      <trkpt lat="44.71408" lon="3.61358">
        <ele>1291.233828</ele>
        <time>2020-03-09T05:43:07.083Z</time>
      </trkpt>
      <trkpt lat="44.71408" lon="3.61375">
        <ele>1290.888697</ele>
        <time>2020-03-09T05:43:08.344Z</time>
      </trkpt>
      <trkpt lat="44.71414" lon="3.61392">
        <ele>1290.499569</ele>
        <time>2020-03-09T05:43:09.777Z</time>
      </trkpt>
      <trkpt lat="44.71444" lon="3.6142">
        <ele>1289.484191</ele>
        <time>2020-03-09T05:43:13.523Z</time>
      </trkpt>
      <trkpt lat="44.71504" lon="3.61442">
        <ele>1288.116288</ele>
        <time>2020-03-09T05:43:19.991Z</time>
      </trkpt>
      <trkpt lat="44.71524" lon="3.61457">
        <ele>1287.652965</ele>
        <time>2020-03-09T05:43:22.387Z</time>
      </trkpt>
      <trkpt lat="44.71545" lon="3.61494">
        <ele>1286.931256</ele>
        <time>2020-03-09T05:43:26.184Z</time>
      </trkpt>
      <trkpt lat="44.7155" lon="3.61538">
        <ele>1286.271069</ele>
        <time>2020-03-09T05:43:29.732Z</time>
      </trkpt>
      <trkpt lat="44.71549" lon="3.61558">
        <ele>1285.965849</ele>
        <time>2020-03-09T05:43:31.329Z</time>
      </trkpt>
      <trkpt lat="44.71546" lon="3.61582">
        <ele>1285.60787</ele>
        <time>2020-03-09T05:43:33.311Z</time>
      </trkpt>
      <trkpt lat="44.71536" lon="3.61618">
        <ele>1285.120082</ele>
        <time>2020-03-09T05:43:36.453Z</time>
      </trkpt>
      <trkpt lat="44.71498" lon="3.61688">
        <ele>1284.082245</ele>
        <time>2020-03-09T05:43:43.660Z</time>
      </trkpt>
      <trkpt lat="44.71491" lon="3.61714">
        <ele>1283.762356</ele>
        <time>2020-03-09T05:43:45.937Z</time>
      </trkpt>
      <trkpt lat="44.7149" lon="3.61744">
        <ele>1283.409076</ele>
        <time>2020-03-09T05:43:48.350Z</time>
      </trkpt>
      <trkpt lat="44.715" lon="3.61808">
        <ele>1282.642554</ele>
        <time>2020-03-09T05:43:53.740Z</time>
      </trkpt>
      <trkpt lat="44.715" lon="3.6184">
        <ele>1282.162942</ele>
        <time>2020-03-09T05:43:56.300Z</time>
      </trkpt>
      <trkpt lat="44.71429" lon="3.62201">
        <ele>1274.86462</ele>
        <time>2020-03-09T05:44:24.165Z</time>
      </trkpt>
      <trkpt lat="44.71426" lon="3.62221">
        <ele>1274.416146</ele>
        <time>2020-03-09T05:44:25.614Z</time>
      </trkpt>
      <trkpt lat="44.71423" lon="3.62238">
        <ele>1274.024898</ele>
        <time>2020-03-09T05:44:26.826Z</time>
      </trkpt>
      <trkpt lat="44.71406" lon="3.623">
        <ele>1272.523692</ele>
        <time>2020-03-09T05:44:31.652Z</time>
      </trkpt>
      <trkpt lat="44.71373" lon="3.62373">
        <ele>1270.481677</ele>
        <time>2020-03-09T05:44:37.576Z</time>
      </trkpt>
      <trkpt lat="44.71345" lon="3.62422">
        <ele>1268.965289</ele>
        <time>2020-03-09T05:44:42.043Z</time>
      </trkpt>
      <trkpt lat="44.71319" lon="3.62456">
        <ele>1267.759329</ele>
        <time>2020-03-09T05:44:45.698Z</time>
      </trkpt>
      <trkpt lat="44.7131" lon="3.6247">
        <ele>1267.310422</ele>
        <time>2020-03-09T05:44:47.007Z</time>
      </trkpt>
      <trkpt lat="44.71301" lon="3.62477">
        <ele>1266.938648</ele>
        <time>2020-03-09T05:44:48.656Z</time>
      </trkpt>
      <trkpt lat="44.71267" lon="3.6252">
        <ele>1265.565982</ele>
        <time>2020-03-09T05:44:55.406Z</time>
      </trkpt>
      <trkpt lat="44.71221" lon="3.62603">
        <ele>1263.505841</ele>
        <time>2020-03-09T05:45:06.575Z</time>
      </trkpt>
      <trkpt lat="44.7119" lon="3.62641">
        <ele>1262.377229</ele>
        <time>2020-03-09T05:45:12.623Z</time>
      </trkpt>
      <trkpt lat="44.71097" lon="3.62733">
        <ele>1259.976957</ele>
        <time>2020-03-09T05:45:30.013Z</time>
      </trkpt>
      <trkpt lat="44.71095" lon="3.6274">
        <ele>1259.875382</ele>
        <time>2020-03-09T05:45:30.790Z</time>
      </trkpt>
      <trkpt lat="44.71083" lon="3.62749">
        <ele>1259.626027</ele>
        <time>2020-03-09T05:45:32.393Z</time>
      </trkpt>
      <trkpt lat="44.71038" lon="3.62786">
        <ele>1258.701913</ele>
        <time>2020-03-09T05:45:38.445Z</time>
      </trkpt>
      <trkpt lat="44.71027" lon="3.62796">
        <ele>1258.476396</ele>
        <time>2020-03-09T05:45:39.835Z</time>
      </trkpt>
      <trkpt lat="44.70987" lon="3.62839">
        <ele>1258.396187</ele>
        <time>2020-03-09T05:45:46.525Z</time>
      </trkpt>
      <trkpt lat="44.70988" lon="3.62843">
        <ele>1258.432679</ele>
        <time>2020-03-09T05:45:47.048Z</time>
      </trkpt>
      <trkpt lat="44.70986" lon="3.62891">
        <ele>1258.777101</ele>
        <time>2020-03-09T05:45:52.158Z</time>
      </trkpt>
      <trkpt lat="44.70991" lon="3.62944">
        <ele>1259.163677</ele>
        <time>2020-03-09T05:45:59.505Z</time>
      </trkpt>
      <trkpt lat="44.71019" lon="3.63045">
        <ele>1259.990593</ele>
        <time>2020-03-09T05:46:17.224Z</time>
      </trkpt>
      <trkpt lat="44.7106" lon="3.63145">
        <ele>1262.800099</ele>
        <time>2020-03-09T05:46:39.704Z</time>
      </trkpt>
      <trkpt lat="44.71063" lon="3.63203">
        <ele>1264.189104</ele>
        <time>2020-03-09T05:46:51.595Z</time>
      </trkpt>
      <trkpt lat="44.71042" lon="3.6329">
        <ele>1266.542821</ele>
        <time>2020-03-09T05:47:11.740Z</time>
      </trkpt>
      <trkpt lat="44.71024" lon="3.63328">
        <ele>1268.032866</ele>
        <time>2020-03-09T05:47:22.162Z</time>
      </trkpt>
      <trkpt lat="44.70982" lon="3.63393">
        <ele>1270.896395</ele>
        <time>2020-03-09T05:47:42.770Z</time>
      </trkpt>
      <trkpt lat="44.70962" lon="3.63448">
        <ele>1272.911081</ele>
        <time>2020-03-09T05:47:57.735Z</time>
      </trkpt>
      <trkpt lat="44.70959" lon="3.63496">
        <ele>1274.493166</ele>
        <time>2020-03-09T05:48:09.655Z</time>
      </trkpt>
      <trkpt lat="44.70971" lon="3.63646">
        <ele>1279.919321</ele>
        <time>2020-03-09T05:48:48.320Z</time>
      </trkpt>
      <trkpt lat="44.7097" lon="3.63684">
        <ele>1281.28546</ele>
        <time>2020-03-09T05:48:57.917Z</time>
      </trkpt>
      <trkpt lat="44.70944" lon="3.63817">
        <ele>1285.682328</ele>
        <time>2020-03-09T05:49:30.980Z</time>
      </trkpt>
      <trkpt lat="44.70936" lon="3.63974">
        <ele>1290.214466</ele>
        <time>2020-03-09T05:50:04.566Z</time>
      </trkpt>
      <trkpt lat="44.70895" lon="3.64098">
        <ele>1293.686197</ele>
        <time>2020-03-09T05:50:32.838Z</time>
      </trkpt>
      <trkpt lat="44.70885" lon="3.64129">
        <ele>1294.528171</ele>
        <time>2020-03-09T05:50:39.610Z</time>
      </trkpt>
      <trkpt lat="44.70869" lon="3.64186">
        <ele>1296.047879</ele>
        <time>2020-03-09T05:50:52.058Z</time>
      </trkpt>
      <trkpt lat="44.70848" lon="3.64304">
        <ele>1298.839516</ele>
        <time>2020-03-09T05:51:16.706Z</time>
      </trkpt>
      <trkpt lat="44.70841" lon="3.64418">
        <ele>1301.353421</ele>
        <time>2020-03-09T05:51:39.043Z</time>
      </trkpt>
      <trkpt lat="44.70845" lon="3.64489">
        <ele>1302.876021</ele>
        <time>2020-03-09T05:51:51.902Z</time>
      </trkpt>
      <trkpt lat="44.70854" lon="3.64574">
        <ele>1304.551574</ele>
        <time>2020-03-09T05:52:07.365Z</time>
      </trkpt>
      <trkpt lat="44.70901" lon="3.64716">
        <ele>1307.600164</ele>
        <time>2020-03-09T05:52:35.787Z</time>
      </trkpt>
      <trkpt lat="44.7091" lon="3.6477">
        <ele>1308.887229</ele>
        <time>2020-03-09T05:52:46.295Z</time>
      </trkpt>
      <trkpt lat="44.70914" lon="3.64838">
        <ele>1310.497416</ele>
        <time>2020-03-09T05:52:59.917Z</time>
      </trkpt>
      <trkpt lat="44.70899" lon="3.65152">
        <ele>1318.166965</ele>
        <time>2020-03-09T05:54:05.542Z</time>
      </trkpt>
      <trkpt lat="44.70893" lon="3.65197">
        <ele>1319.321922</ele>
        <time>2020-03-09T05:54:14.936Z</time>
      </trkpt>
      <trkpt lat="44.70841" lon="3.65356">
        <ele>1322.907078</ele>
        <time>2020-03-09T05:54:48.278Z</time>
      </trkpt>
      <trkpt lat="44.70788" lon="3.65478">
        <ele>1325.49848</ele>
        <time>2020-03-09T05:55:13.371Z</time>
      </trkpt>
      <trkpt lat="44.70779" lon="3.65529">
        <ele>1326.241638</ele>
        <time>2020-03-09T05:55:22.264Z</time>
      </trkpt>
      <trkpt lat="44.70762" lon="3.65991">
        <ele>1331.401491</ele>
        <time>2020-03-09T05:56:33.873Z</time>
      </trkpt>
      <trkpt lat="44.70766" lon="3.66077">
        <ele>1331.427346</ele>
        <time>2020-03-09T05:56:43.332Z</time>
      </trkpt>
      <trkpt lat="44.70764" lon="3.66265">
        <ele>1330.412385</ele>
        <time>2020-03-09T05:56:59.754Z</time>
      </trkpt>
      <trkpt lat="44.70773" lon="3.66358">
        <ele>1329.184952</ele>
        <time>2020-03-09T05:57:07.086Z</time>
      </trkpt>
      <trkpt lat="44.70788" lon="3.66447">
        <ele>1327.83738</ele>
        <time>2020-03-09T05:57:14.072Z</time>
      </trkpt>
      <trkpt lat="44.70798" lon="3.66506">
        <ele>1326.38668</ele>
        <time>2020-03-09T05:57:18.453Z</time>
      </trkpt>
      <trkpt lat="44.70803" lon="3.66557">
        <ele>1325.133082</ele>
        <time>2020-03-09T05:57:22.172Z</time>
      </trkpt>
      <trkpt lat="44.708" lon="3.66647">
        <ele>1322.953705</ele>
        <time>2020-03-09T05:57:28.520Z</time>
      </trkpt>
      <trkpt lat="44.70792" lon="3.66679">
        <ele>1322.122101</ele>
        <time>2020-03-09T05:57:30.917Z</time>
      </trkpt>
      <trkpt lat="44.70736" lon="3.66825">
        <ele>1317.707412</ele>
        <time>2020-03-09T05:57:42.467Z</time>
      </trkpt>
      <trkpt lat="44.70708" lon="3.66875">
        <ele>1316.021426</ele>
        <time>2020-03-09T05:57:46.901Z</time>
      </trkpt>
      <trkpt lat="44.70646" lon="3.66965">
        <ele>1312.991621</ele>
        <time>2020-03-09T05:57:55.969Z</time>
      </trkpt>
      <trkpt lat="44.70622" lon="3.67016">
        <ele>1311.56165</ele>
        <time>2020-03-09T05:58:00.487Z</time>
      </trkpt>
      <trkpt lat="44.70614" lon="3.67049">
        <ele>1310.758918</ele>
        <time>2020-03-09T05:58:02.974Z</time>
      </trkpt>
      <trkpt lat="44.70607" lon="3.67119">
        <ele>1309.037431</ele>
        <time>2020-03-09T05:58:08.008Z</time>
      </trkpt>
      <trkpt lat="44.70612" lon="3.67154">
        <ele>1308.037874</ele>
        <time>2020-03-09T05:58:10.491Z</time>
      </trkpt>
      <trkpt lat="44.70633" lon="3.67199">
        <ele>1306.481621</ele>
        <time>2020-03-09T05:58:14.303Z</time>
      </trkpt>
      <trkpt lat="44.70642" lon="3.67212">
        <ele>1305.974032</ele>
        <time>2020-03-09T05:58:15.494Z</time>
      </trkpt>
      <trkpt lat="44.70659" lon="3.67231">
        <ele>1305.085693</ele>
        <time>2020-03-09T05:58:17.713Z</time>
      </trkpt>
      <trkpt lat="44.70676" lon="3.6725">
        <ele>1304.200508</ele>
        <time>2020-03-09T05:58:19.842Z</time>
      </trkpt>
      <trkpt lat="44.707" lon="3.67274">
        <ele>1303.031396</ele>
        <time>2020-03-09T05:58:22.627Z</time>
      </trkpt>
      <trkpt lat="44.70721" lon="3.67297">
        <ele>1301.904006</ele>
        <time>2020-03-09T05:58:25.268Z</time>
      </trkpt>
      <trkpt lat="44.70747" lon="3.67347">
        <ele>1299.828614</ele>
        <time>2020-03-09T05:58:29.365Z</time>
      </trkpt>
      <trkpt lat="44.70757" lon="3.67408">
        <ele>1297.702539</ele>
        <time>2020-03-09T05:58:33.598Z</time>
      </trkpt>
      <trkpt lat="44.70755" lon="3.67463">
        <ele>1295.833601</ele>
        <time>2020-03-09T05:58:37.318Z</time>
      </trkpt>
      <trkpt lat="44.70715" lon="3.67594">
        <ele>1291.044602</ele>
        <time>2020-03-09T05:58:46.999Z</time>
      </trkpt>
      <trkpt lat="44.70657" lon="3.67819">
        <ele>1283.161703</ele>
        <time>2020-03-09T05:59:03.280Z</time>
      </trkpt>
      <trkpt lat="44.70592" lon="3.67991">
        <ele>1276.896354</ele>
        <time>2020-03-09T05:59:16.593Z</time>
      </trkpt>
      <trkpt lat="44.7053" lon="3.68207">
        <ele>1268.261397</ele>
        <time>2020-03-09T05:59:32.209Z</time>
      </trkpt>
      <trkpt lat="44.70506" lon="3.68248">
        <ele>1266.280483</ele>
        <time>2020-03-09T05:59:35.657Z</time>
      </trkpt>
      <trkpt lat="44.70485" lon="3.68272">
        <ele>1264.825649</ele>
        <time>2020-03-09T05:59:38.174Z</time>
      </trkpt>
      <trkpt lat="44.70438" lon="3.68306">
        <ele>1261.98321</ele>
        <time>2020-03-09T05:59:43.094Z</time>
      </trkpt>
      <trkpt lat="44.70388" lon="3.68375">
        <ele>1258.266741</ele>
        <time>2020-03-09T05:59:49.584Z</time>
      </trkpt>
      <trkpt lat="44.70352" lon="3.68415">
        <ele>1256.452791</ele>
        <time>2020-03-09T05:59:54.037Z</time>
      </trkpt>
      <trkpt lat="44.70294" lon="3.68458">
        <ele>1254.032211</ele>
        <time>2020-03-09T06:00:00.544Z</time>
      </trkpt>
      <trkpt lat="44.70273" lon="3.68484">
        <ele>1252.989164</ele>
        <time>2020-03-09T06:00:03.408Z</time>
      </trkpt>
      <trkpt lat="44.70255" lon="3.68516">
        <ele>1251.932906</ele>
        <time>2020-03-09T06:00:06.340Z</time>
      </trkpt>
      <trkpt lat="44.70243" lon="3.68557">
        <ele>1250.92584</ele>
        <time>2020-03-09T06:00:09.623Z</time>
      </trkpt>
      <trkpt lat="44.70236" lon="3.68615">
        <ele>1249.843549</ele>
        <time>2020-03-09T06:00:14.020Z</time>
      </trkpt>
      <trkpt lat="44.70238" lon="3.68636">
        <ele>1249.44249</ele>
        <time>2020-03-09T06:00:15.632Z</time>
      </trkpt>
      <trkpt lat="44.7024" lon="3.68664">
        <ele>1248.924477</ele>
        <time>2020-03-09T06:00:17.791Z</time>
      </trkpt>
      <trkpt lat="44.70247" lon="3.6869">
        <ele>1248.420819</ele>
        <time>2020-03-09T06:00:19.839Z</time>
      </trkpt>
      <trkpt lat="44.7027" lon="3.68765">
        <ele>1246.904735</ele>
        <time>2020-03-09T06:00:26.149Z</time>
      </trkpt>
      <trkpt lat="44.70354" lon="3.68982">
        <ele>1241.497096</ele>
        <time>2020-03-09T06:00:44.055Z</time>
      </trkpt>
      <trkpt lat="44.7037" lon="3.69022">
        <ele>1240.306548</ele>
        <time>2020-03-09T06:00:47.257Z</time>
      </trkpt>
      <trkpt lat="44.70371" lon="3.69029">
        <ele>1240.079483</ele>
        <time>2020-03-09T06:00:47.812Z</time>
      </trkpt>
      <trkpt lat="44.70378" lon="3.69053">
        <ele>1239.331355</ele>
        <time>2020-03-09T06:00:49.623Z</time>
      </trkpt>
      <trkpt lat="44.70382" lon="3.69076">
        <ele>1238.611215</ele>
        <time>2020-03-09T06:00:51.305Z</time>
      </trkpt>
      <trkpt lat="44.70386" lon="3.69102">
        <ele>1237.827918</ele>
        <time>2020-03-09T06:00:53.167Z</time>
      </trkpt>
      <trkpt lat="44.70386" lon="3.69121">
        <ele>1237.257437</ele>
        <time>2020-03-09T06:00:54.470Z</time>
      </trkpt>
      <trkpt lat="44.70384" lon="3.69177">
        <ele>1235.605533</ele>
        <time>2020-03-09T06:00:58.268Z</time>
      </trkpt>
      <trkpt lat="44.70376" lon="3.69237">
        <ele>1233.793416</ele>
        <time>2020-03-09T06:01:02.442Z</time>
      </trkpt>
      <trkpt lat="44.70378" lon="3.69267">
        <ele>1232.957846</ele>
        <time>2020-03-09T06:01:04.511Z</time>
      </trkpt>
      <trkpt lat="44.70392" lon="3.69353">
        <ele>1230.574076</ele>
        <time>2020-03-09T06:01:10.621Z</time>
      </trkpt>
      <trkpt lat="44.70399" lon="3.69375">
        <ele>1229.926544</ele>
        <time>2020-03-09T06:01:12.297Z</time>
      </trkpt>
      <trkpt lat="44.70414" lon="3.69413">
        <ele>1228.733936</ele>
        <time>2020-03-09T06:01:15.435Z</time>
      </trkpt>
      <trkpt lat="44.70461" lon="3.69478">
        <ele>1226.360639</ele>
        <time>2020-03-09T06:01:21.981Z</time>
      </trkpt>
      <trkpt lat="44.70571" lon="3.6954">
        <ele>1223.076233</ele>
        <time>2020-03-09T06:01:34.302Z</time>
      </trkpt>
      <trkpt lat="44.70584" lon="3.69548">
        <ele>1222.678891</ele>
        <time>2020-03-09T06:01:35.814Z</time>
      </trkpt>
      <trkpt lat="44.70594" lon="3.69574">
        <ele>1222.087939</ele>
        <time>2020-03-09T06:01:38.042Z</time>
      </trkpt>
      <trkpt lat="44.70657" lon="3.69651">
        <ele>1220.234283</ele>
        <time>2020-03-09T06:01:46.880Z</time>
      </trkpt>
      <trkpt lat="44.70663" lon="3.69662">
        <ele>1220.021485</ele>
        <time>2020-03-09T06:01:47.961Z</time>
      </trkpt>
      <trkpt lat="44.70667" lon="3.69677">
        <ele>1219.776346</ele>
        <time>2020-03-09T06:01:49.143Z</time>
      </trkpt>
      <trkpt lat="44.70721" lon="3.69913">
        <ele>1216.934051</ele>
        <time>2020-03-09T06:02:08.868Z</time>
      </trkpt>
      <trkpt lat="44.7074" lon="3.70063">
        <ele>1215.815045</ele>
        <time>2020-03-09T06:02:23.538Z</time>
      </trkpt>
      <trkpt lat="44.70745" lon="3.70089">
        <ele>1215.685557</ele>
        <time>2020-03-09T06:02:26.241Z</time>
      </trkpt>
      <trkpt lat="44.70753" lon="3.70153">
        <ele>1215.364188</ele>
        <time>2020-03-09T06:02:32.692Z</time>
      </trkpt>
      <trkpt lat="44.70768" lon="3.70267">
        <ele>1214.797036</ele>
        <time>2020-03-09T06:02:43.310Z</time>
      </trkpt>
      <trkpt lat="44.70773" lon="3.70308">
        <ele>1214.326232</ele>
        <time>2020-03-09T06:02:46.876Z</time>
      </trkpt>
      <trkpt lat="44.70773" lon="3.70327">
        <ele>1213.941346</ele>
        <time>2020-03-09T06:02:48.396Z</time>
      </trkpt>
      <trkpt lat="44.70753" lon="3.70458">
        <ele>1211.275311</ele>
        <time>2020-03-09T06:02:58.433Z</time>
      </trkpt>
      <trkpt lat="44.70755" lon="3.70531">
        <ele>1209.818326</ele>
        <time>2020-03-09T06:03:03.523Z</time>
      </trkpt>
      <trkpt lat="44.70766" lon="3.7063">
        <ele>1206.556056</ele>
        <time>2020-03-09T06:03:10.348Z</time>
      </trkpt>
      <trkpt lat="44.70773" lon="3.70744">
        <ele>1202.683295</ele>
        <time>2020-03-09T06:03:17.999Z</time>
      </trkpt>
      <trkpt lat="44.7076" lon="3.70806">
        <ele>1200.451887</ele>
        <time>2020-03-09T06:03:22.340Z</time>
      </trkpt>
      <trkpt lat="44.7074" lon="3.70853">
        <ele>1198.499251</ele>
        <time>2020-03-09T06:03:25.999Z</time>
      </trkpt>
      <trkpt lat="44.70719" lon="3.71029">
        <ele>1192.095649</ele>
        <time>2020-03-09T06:03:37.983Z</time>
      </trkpt>
      <trkpt lat="44.70721" lon="3.71093">
        <ele>1189.414151</ele>
        <time>2020-03-09T06:03:42.317Z</time>
      </trkpt>
      <trkpt lat="44.70723" lon="3.71161">
        <ele>1186.568777</ele>
        <time>2020-03-09T06:03:46.866Z</time>
      </trkpt>
      <trkpt lat="44.70725" lon="3.71176">
        <ele>1185.946936</ele>
        <time>2020-03-09T06:03:47.812Z</time>
      </trkpt>
      <trkpt lat="44.70753" lon="3.71347">
        <ele>1177.63172</ele>
        <time>2020-03-09T06:03:59.125Z</time>
      </trkpt>
      <trkpt lat="44.70768" lon="3.71396">
        <ele>1174.601738</ele>
        <time>2020-03-09T06:04:02.505Z</time>
      </trkpt>
      <trkpt lat="44.7079" lon="3.71437">
        <ele>1171.732003</ele>
        <time>2020-03-09T06:04:05.693Z</time>
      </trkpt>
      <trkpt lat="44.70824" lon="3.71471">
        <ele>1168.386697</ele>
        <time>2020-03-09T06:04:09.378Z</time>
      </trkpt>
      <trkpt lat="44.70839" lon="3.71475">
        <ele>1167.16972</ele>
        <time>2020-03-09T06:04:10.709Z</time>
      </trkpt>
      <trkpt lat="44.70891" lon="3.71473">
        <ele>1162.489793</ele>
        <time>2020-03-09T06:04:15.182Z</time>
      </trkpt>
      <trkpt lat="44.70908" lon="3.71488">
        <ele>1160.645232</ele>
        <time>2020-03-09T06:04:16.936Z</time>
      </trkpt>
      <trkpt lat="44.70933" lon="3.7157">
        <ele>1154.869118</ele>
        <time>2020-03-09T06:04:22.460Z</time>
      </trkpt>
      <trkpt lat="44.71034" lon="3.71722">
        <ele>1143.363945</ele>
        <time>2020-03-09T06:04:35.370Z</time>
      </trkpt>
      <trkpt lat="44.71048" lon="3.71743">
        <ele>1141.93837</ele>
        <time>2020-03-09T06:04:37.140Z</time>
      </trkpt>
      <trkpt lat="44.71075" lon="3.71782">
        <ele>1139.1354</ele>
        <time>2020-03-09T06:04:40.737Z</time>
      </trkpt>
      <trkpt lat="44.71283" lon="3.72102">
        <ele>1131.360972</ele>
        <time>2020-03-09T06:05:14.062Z</time>
      </trkpt>
      <trkpt lat="44.71292" lon="3.7213">
        <ele>1130.99497</ele>
        <time>2020-03-09T06:05:16.798Z</time>
      </trkpt>
      <trkpt lat="44.71298" lon="3.72226">
        <ele>1129.847403</ele>
        <time>2020-03-09T06:05:25.433Z</time>
      </trkpt>
      <trkpt lat="44.7133" lon="3.7246">
        <ele>1127.033528</ele>
        <time>2020-03-09T06:05:44.736Z</time>
      </trkpt>
      <trkpt lat="44.71333" lon="3.72465">
        <ele>1126.92101</ele>
        <time>2020-03-09T06:05:45.113Z</time>
      </trkpt>
      <trkpt lat="44.71339" lon="3.72477">
        <ele>1126.624653</ele>
        <time>2020-03-09T06:05:46.298Z</time>
      </trkpt>
      <trkpt lat="44.71373" lon="3.72527">
        <ele>1125.283322</ele>
        <time>2020-03-09T06:05:51.567Z</time>
      </trkpt>
      <trkpt lat="44.71438" lon="3.72602">
        <ele>1122.995149</ele>
        <time>2020-03-09T06:06:00.120Z</time>
      </trkpt>
      <trkpt lat="44.71528" lon="3.72743">
        <ele>1118.419249</ele>
        <time>2020-03-09T06:06:13.719Z</time>
      </trkpt>
      <trkpt lat="44.71543" lon="3.72769">
        <ele>1117.58757</ele>
        <time>2020-03-09T06:06:16.054Z</time>
      </trkpt>
      <trkpt lat="44.71597" lon="3.72911">
        <ele>1113.578342</ele>
        <time>2020-03-09T06:06:27.327Z</time>
      </trkpt>
      <trkpt lat="44.71612" lon="3.72969">
        <ele>1112.037679</ele>
        <time>2020-03-09T06:06:31.672Z</time>
      </trkpt>
      <trkpt lat="44.71612" lon="3.73009">
        <ele>1111.021751</ele>
        <time>2020-03-09T06:06:34.570Z</time>
      </trkpt>
      <trkpt lat="44.71601" lon="3.73065">
        <ele>1109.61798</ele>
        <time>2020-03-09T06:06:38.733Z</time>
      </trkpt>
      <trkpt lat="44.71582" lon="3.73128">
        <ele>1108.383906</ele>
        <time>2020-03-09T06:06:43.731Z</time>
      </trkpt>
      <trkpt lat="44.71579" lon="3.73149">
        <ele>1107.991277</ele>
        <time>2020-03-09T06:06:45.365Z</time>
      </trkpt>
      <trkpt lat="44.71584" lon="3.7317">
        <ele>1107.58571</ele>
        <time>2020-03-09T06:06:47.026Z</time>
      </trkpt>
      <trkpt lat="44.71609" lon="3.73228">
        <ele>1106.34611</ele>
        <time>2020-03-09T06:06:52.185Z</time>
      </trkpt>
      <trkpt lat="44.71672" lon="3.73314">
        <ele>1104.196515</ele>
        <time>2020-03-09T06:07:01.684Z</time>
      </trkpt>
      <trkpt lat="44.71697" lon="3.73361">
        <ele>1103.20026</ele>
        <time>2020-03-09T06:07:06.575Z</time>
      </trkpt>
      <trkpt lat="44.71719" lon="3.73441">
        <ele>1101.776679</ele>
        <time>2020-03-09T06:07:13.061Z</time>
      </trkpt>
      <trkpt lat="44.71732" lon="3.73544">
        <ele>1098.875496</ele>
        <time>2020-03-09T06:07:20.658Z</time>
      </trkpt>
      <trkpt lat="44.71734" lon="3.73563">
        <ele>1098.111625</ele>
        <time>2020-03-09T06:07:22.076Z</time>
      </trkpt>
      <trkpt lat="44.7174" lon="3.73585">
        <ele>1097.199662</ele>
        <time>2020-03-09T06:07:23.627Z</time>
      </trkpt>
      <trkpt lat="44.71751" lon="3.73619">
        <ele>1095.731912</ele>
        <time>2020-03-09T06:07:26.166Z</time>
      </trkpt>
      <trkpt lat="44.71777" lon="3.73675">
        <ele>1093.130413</ele>
        <time>2020-03-09T06:07:30.478Z</time>
      </trkpt>
      <trkpt lat="44.71815" lon="3.73739">
        <ele>1089.050895</ele>
        <time>2020-03-09T06:07:35.797Z</time>
      </trkpt>
      <trkpt lat="44.7183" lon="3.73776">
        <ele>1086.270799</ele>
        <time>2020-03-09T06:07:38.409Z</time>
      </trkpt>
      <trkpt lat="44.71833" lon="3.73866">
        <ele>1080.336892</ele>
        <time>2020-03-09T06:07:43.937Z</time>
      </trkpt>
      <trkpt lat="44.71858" lon="3.73934">
        <ele>1075.226416</ele>
        <time>2020-03-09T06:07:48.672Z</time>
      </trkpt>
      <trkpt lat="44.71858" lon="3.73969">
        <ele>1073.428646</ele>
        <time>2020-03-09T06:07:50.813Z</time>
      </trkpt>
      <trkpt lat="44.7185" lon="3.74012">
        <ele>1071.494583</ele>
        <time>2020-03-09T06:07:53.634Z</time>
      </trkpt>
      <trkpt lat="44.71847" lon="3.74024">
        <ele>1070.927678</ele>
        <time>2020-03-09T06:07:54.418Z</time>
      </trkpt>
      <trkpt lat="44.71859" lon="3.74055">
        <ele>1069.406085</ele>
        <time>2020-03-09T06:07:56.732Z</time>
      </trkpt>
      <trkpt lat="44.7188" lon="3.74096">
        <ele>1067.197147</ele>
        <time>2020-03-09T06:08:00.053Z</time>
      </trkpt>
      <trkpt lat="44.71895" lon="3.7411">
        <ele>1066.11414</ele>
        <time>2020-03-09T06:08:01.667Z</time>
      </trkpt>
      <trkpt lat="44.71921" lon="3.74109">
        <ele>1064.536895</ele>
        <time>2020-03-09T06:08:04.158Z</time>
      </trkpt>
      <trkpt lat="44.7202" lon="3.74067">
        <ele>1062.425586</ele>
        <time>2020-03-09T06:08:15.783Z</time>
      </trkpt>
      <trkpt lat="44.72067" lon="3.74063">
        <ele>1061.921804</ele>
        <time>2020-03-09T06:08:22.681Z</time>
      </trkpt>
      <trkpt lat="44.72117" lon="3.74074">
        <ele>1061.390333</ele>
        <time>2020-03-09T06:08:30.245Z</time>
      </trkpt>
      <trkpt lat="44.72153" lon="3.74095">
        <ele>1061.285803</ele>
        <time>2020-03-09T06:08:35.919Z</time>
      </trkpt>
      <trkpt lat="44.7217" lon="3.74121">
        <ele>1061.216517</ele>
        <time>2020-03-09T06:08:39.638Z</time>
      </trkpt>
      <trkpt lat="44.72189" lon="3.74165">
        <ele>1061.117681</ele>
        <time>2020-03-09T06:08:44.784Z</time>
      </trkpt>
      <trkpt lat="44.72193" lon="3.74197">
        <ele>1061.05428</ele>
        <time>2020-03-09T06:08:47.981Z</time>
      </trkpt>
      <trkpt lat="44.72191" lon="3.74282">
        <ele>1060.861823</ele>
        <time>2020-03-09T06:08:55.982Z</time>
      </trkpt>
      <trkpt lat="44.72183" lon="3.74358">
        <ele>1060.440855</ele>
        <time>2020-03-09T06:09:03.004Z</time>
      </trkpt>
      <trkpt lat="44.72182" lon="3.74403">
        <ele>1060.190083</ele>
        <time>2020-03-09T06:09:07.093Z</time>
      </trkpt>
      <trkpt lat="44.72187" lon="3.7443">
        <ele>1060.036722</ele>
        <time>2020-03-09T06:09:09.573Z</time>
      </trkpt>
      <trkpt lat="44.72199" lon="3.74456">
        <ele>1059.868634</ele>
        <time>2020-03-09T06:09:12.228Z</time>
      </trkpt>
      <trkpt lat="44.7222" lon="3.74479">
        <ele>1059.664174</ele>
        <time>2020-03-09T06:09:15.501Z</time>
      </trkpt>
      <trkpt lat="44.72242" lon="3.7449">
        <ele>1059.484422</ele>
        <time>2020-03-09T06:09:18.451Z</time>
      </trkpt>
      <trkpt lat="44.72282" lon="3.74492">
        <ele>1059.186736</ele>
        <time>2020-03-09T06:09:23.496Z</time>
      </trkpt>
      <trkpt lat="44.72308" lon="3.74501">
        <ele>1058.987364</ele>
        <time>2020-03-09T06:09:26.879Z</time>
      </trkpt>
      <trkpt lat="44.72331" lon="3.74526">
        <ele>1058.772526</ele>
        <time>2020-03-09T06:09:30.453Z</time>
      </trkpt>
      <trkpt lat="44.7235" lon="3.74565">
        <ele>1058.522056</ele>
        <time>2020-03-09T06:09:34.464Z</time>
      </trkpt>
      <trkpt lat="44.72367" lon="3.74578">
        <ele>1058.380655</ele>
        <time>2020-03-09T06:09:36.796Z</time>
      </trkpt>
      <trkpt lat="44.72445" lon="3.74612">
        <ele>1059.502211</ele>
        <time>2020-03-09T06:09:48.404Z</time>
      </trkpt>
      <trkpt lat="44.72485" lon="3.74629">
        <ele>1060.502731</ele>
        <time>2020-03-09T06:10:00.064Z</time>
      </trkpt>
      <trkpt lat="44.72517" lon="3.74641">
        <ele>1061.290128</ele>
        <time>2020-03-09T06:10:09.987Z</time>
      </trkpt>
      <trkpt lat="44.7253" lon="3.74661">
        <ele>1061.7416</ele>
        <time>2020-03-09T06:10:15.630Z</time>
      </trkpt>
      <trkpt lat="44.72539" lon="3.74734">
        <ele>1063.135086</ele>
        <time>2020-03-09T06:10:32.017Z</time>
      </trkpt>
      <trkpt lat="44.72541" lon="3.7475">
        <ele>1063.465483</ele>
        <time>2020-03-09T06:10:35.548Z</time>
      </trkpt>
      <trkpt lat="44.7256" lon="3.74764">
        <ele>1064.108996</ele>
        <time>2020-03-09T06:10:42.404Z</time>
      </trkpt>
      <trkpt lat="44.72596" lon="3.74775">
        <ele>1065.2278</ele>
        <time>2020-03-09T06:10:54.248Z</time>
      </trkpt>
      <trkpt lat="44.72661" lon="3.74777">
        <ele>1067.163465</ele>
        <time>2020-03-09T06:11:12.763Z</time>
      </trkpt>
      <trkpt lat="44.7272" lon="3.74768">
        <ele>1066.724112</ele>
        <time>2020-03-09T06:11:21.538Z</time>
      </trkpt>
      <trkpt lat="44.72765" lon="3.74747">
        <ele>1065.309549</ele>
        <time>2020-03-09T06:11:26.355Z</time>
      </trkpt>
      <trkpt lat="44.7285" lon="3.74687">
        <ele>1062.482409</ele>
        <time>2020-03-09T06:11:35.420Z</time>
      </trkpt>
      <trkpt lat="44.72876" lon="3.74645">
        <ele>1061.232388</ele>
        <time>2020-03-09T06:11:39.120Z</time>
      </trkpt>
      <trkpt lat="44.72899" lon="3.7459">
        <ele>1059.79875</ele>
        <time>2020-03-09T06:11:43.441Z</time>
      </trkpt>
      <trkpt lat="44.72907" lon="3.74532">
        <ele>1058.457185</ele>
        <time>2020-03-09T06:11:47.731Z</time>
      </trkpt>
      <trkpt lat="44.72899" lon="3.7444">
        <ele>1056.94274</ele>
        <time>2020-03-09T06:11:55.366Z</time>
      </trkpt>
      <trkpt lat="44.72897" lon="3.74359">
        <ele>1057.833895</ele>
        <time>2020-03-09T06:12:05.888Z</time>
      </trkpt>
      <trkpt lat="44.7291" lon="3.74333">
        <ele>1058.179797</ele>
        <time>2020-03-09T06:12:11.075Z</time>
      </trkpt>
      <trkpt lat="44.72931" lon="3.74329">
        <ele>1058.514463</ele>
        <time>2020-03-09T06:12:16.739Z</time>
      </trkpt>
      <trkpt lat="44.73101" lon="3.74429">
        <ele>1059.758187</ele>
        <time>2020-03-09T06:13:04.213Z</time>
      </trkpt>
      <trkpt lat="44.73179" lon="3.7446">
        <ele>1058.585939</ele>
        <time>2020-03-09T06:13:12.243Z</time>
      </trkpt>
      <trkpt lat="44.73225" lon="3.74466">
        <ele>1055.468401</ele>
        <time>2020-03-09T06:13:16.408Z</time>
      </trkpt>
      <trkpt lat="44.73251" lon="3.74458">
        <ele>1053.711484</ele>
        <time>2020-03-09T06:13:18.809Z</time>
      </trkpt>
      <trkpt lat="44.73254" lon="3.74455">
        <ele>1053.471609</ele>
        <time>2020-03-09T06:13:19.101Z</time>
      </trkpt>
      <trkpt lat="44.7328" lon="3.74432">
        <ele>1051.367933</ele>
        <time>2020-03-09T06:13:21.914Z</time>
      </trkpt>
      <trkpt lat="44.73307" lon="3.74383">
        <ele>1048.396099</ele>
        <time>2020-03-09T06:13:25.765Z</time>
      </trkpt>
      <trkpt lat="44.73315" lon="3.74353">
        <ele>1047.141913</ele>
        <time>2020-03-09T06:13:27.797Z</time>
      </trkpt>
      <trkpt lat="44.73309" lon="3.74318">
        <ele>1045.905901</ele>
        <time>2020-03-09T06:13:30.083Z</time>
      </trkpt>
      <trkpt lat="44.73295" lon="3.74283">
        <ele>1044.551371</ele>
        <time>2020-03-09T06:13:32.621Z</time>
      </trkpt>
      <trkpt lat="44.73264" lon="3.74245">
        <ele>1042.594229</ele>
        <time>2020-03-09T06:13:36.566Z</time>
      </trkpt>
      <trkpt lat="44.73235" lon="3.74194">
        <ele>1040.358958</ele>
        <time>2020-03-09T06:13:41.565Z</time>
      </trkpt>
      <trkpt lat="44.73222" lon="3.7416">
        <ele>1039.170805</ele>
        <time>2020-03-09T06:13:44.497Z</time>
      </trkpt>
      <trkpt lat="44.73227" lon="3.7404">
        <ele>1038.546787</ele>
        <time>2020-03-09T06:13:54.606Z</time>
      </trkpt>
      <trkpt lat="44.73227" lon="3.74016">
        <ele>1038.424676</ele>
        <time>2020-03-09T06:13:57.238Z</time>
      </trkpt>
      <trkpt lat="44.73228" lon="3.73987">
        <ele>1038.276806</ele>
        <time>2020-03-09T06:13:59.811Z</time>
      </trkpt>
      <trkpt lat="44.73235" lon="3.73897">
        <ele>1038.021126</ele>
        <time>2020-03-09T06:14:09.965Z</time>
      </trkpt>
      <trkpt lat="44.73223" lon="3.738">
        <ele>1038.995604</ele>
        <time>2020-03-09T06:14:22.602Z</time>
      </trkpt>
      <trkpt lat="44.73229" lon="3.73772">
        <ele>1039.283789</ele>
        <time>2020-03-09T06:14:26.875Z</time>
      </trkpt>
      <trkpt lat="44.73242" lon="3.73758">
        <ele>1039.510536</ele>
        <time>2020-03-09T06:14:31.418Z</time>
      </trkpt>
      <trkpt lat="44.73267" lon="3.73752">
        <ele>1039.874964</ele>
        <time>2020-03-09T06:14:37.578Z</time>
      </trkpt>
      <trkpt lat="44.73365" lon="3.7375">
        <ele>1040.900734</ele>
        <time>2020-03-09T06:14:59.491Z</time>
      </trkpt>
      <trkpt lat="44.73392" lon="3.73747">
        <ele>1041.124891</ele>
        <time>2020-03-09T06:15:05.326Z</time>
      </trkpt>
      <trkpt lat="44.7341" lon="3.73744">
        <ele>1041.283853</ele>
        <time>2020-03-09T06:15:08.131Z</time>
      </trkpt>
      <trkpt lat="44.73493" lon="3.73712">
        <ele>1041.773526</ele>
        <time>2020-03-09T06:15:21.219Z</time>
      </trkpt>
      <trkpt lat="44.73576" lon="3.73615">
        <ele>1040.628254</ele>
        <time>2020-03-09T06:15:33.609Z</time>
      </trkpt>
      <trkpt lat="44.7363" lon="3.73583">
        <ele>1040.010722</ele>
        <time>2020-03-09T06:15:40.597Z</time>
      </trkpt>
      <trkpt lat="44.73687" lon="3.73561">
        <ele>1039.605837</ele>
        <time>2020-03-09T06:15:48.403Z</time>
      </trkpt>
      <trkpt lat="44.7373" lon="3.73569">
        <ele>1039.319774</ele>
        <time>2020-03-09T06:15:54.411Z</time>
      </trkpt>
      <trkpt lat="44.73763" lon="3.73586">
        <ele>1039.083414</ele>
        <time>2020-03-09T06:15:59.364Z</time>
      </trkpt>
      <trkpt lat="44.73807" lon="3.73586">
        <ele>1038.786064</ele>
        <time>2020-03-09T06:16:05.053Z</time>
      </trkpt>
      <trkpt lat="44.73888" lon="3.73555">
        <ele>1036.327034</ele>
        <time>2020-03-09T06:16:14.480Z</time>
      </trkpt>
      <trkpt lat="44.73957" lon="3.73541">
        <ele>1034.288596</ele>
        <time>2020-03-09T06:16:21.490Z</time>
      </trkpt>
      <trkpt lat="44.74083" lon="3.73503">
        <ele>1027.518452</ele>
        <time>2020-03-09T06:16:33.384Z</time>
      </trkpt>
      <trkpt lat="44.74102" lon="3.73486">
        <ele>1026.190816</ele>
        <time>2020-03-09T06:16:35.429Z</time>
      </trkpt>
      <trkpt lat="44.74118" lon="3.73452">
        <ele>1024.467316</ele>
        <time>2020-03-09T06:16:38.070Z</time>
      </trkpt>
      <trkpt lat="44.74125" lon="3.73421">
        <ele>1023.154875</ele>
        <time>2020-03-09T06:16:40.088Z</time>
      </trkpt>
      <trkpt lat="44.74105" lon="3.73327">
        <ele>1020.224581</ele>
        <time>2020-03-09T06:16:46.517Z</time>
      </trkpt>
      <trkpt lat="44.74078" lon="3.73235">
        <ele>1017.302596</ele>
        <time>2020-03-09T06:16:53.379Z</time>
      </trkpt>
      <trkpt lat="44.74052" lon="3.73097">
        <ele>1016.265995</ele>
        <time>2020-03-09T06:17:05.624Z</time>
      </trkpt>
      <trkpt lat="44.74052" lon="3.73054">
        <ele>1016.62177</ele>
        <time>2020-03-09T06:17:11.751Z</time>
      </trkpt>
      <trkpt lat="44.74058" lon="3.73038">
        <ele>1016.770777</ele>
        <time>2020-03-09T06:17:14.581Z</time>
      </trkpt>
      <trkpt lat="44.74068" lon="3.73027">
        <ele>1016.922886</ele>
        <time>2020-03-09T06:17:17.929Z</time>
      </trkpt>
      <trkpt lat="44.74082" lon="3.73022">
        <ele>1017.088864</ele>
        <time>2020-03-09T06:17:21.621Z</time>
      </trkpt>
      <trkpt lat="44.74113" lon="3.73024">
        <ele>1017.462031</ele>
        <time>2020-03-09T06:17:30.433Z</time>
      </trkpt>
      <trkpt lat="44.74187" lon="3.73055">
        <ele>1018.807423</ele>
        <time>2020-03-09T06:17:52.581Z</time>
      </trkpt>
      <trkpt lat="44.74263" lon="3.73087">
        <ele>1020.30673</ele>
        <time>2020-03-09T06:18:10.983Z</time>
      </trkpt>
      <trkpt lat="44.7429" lon="3.7309">
        <ele>1020.839394</ele>
        <time>2020-03-09T06:18:16.158Z</time>
      </trkpt>
      <trkpt lat="44.74306" lon="3.73084">
        <ele>1021.090925</ele>
        <time>2020-03-09T06:18:18.814Z</time>
      </trkpt>
      <trkpt lat="44.74329" lon="3.73076">
        <ele>1020.591886</ele>
        <time>2020-03-09T06:18:22.187Z</time>
      </trkpt>
      <trkpt lat="44.74526" lon="3.72976">
        <ele>1015.992086</ele>
        <time>2020-03-09T06:18:43.914Z</time>
      </trkpt>
      <trkpt lat="44.74545" lon="3.7296">
        <ele>1015.496733</ele>
        <time>2020-03-09T06:18:46.046Z</time>
      </trkpt>
      <trkpt lat="44.74581" lon="3.72902">
        <ele>1014.268981</ele>
        <time>2020-03-09T06:18:51.447Z</time>
      </trkpt>
      <trkpt lat="44.7464" lon="3.7278">
        <ele>1014.661918</ele>
        <time>2020-03-09T06:19:08.273Z</time>
      </trkpt>
      <trkpt lat="44.74656" lon="3.72765">
        <ele>1015.164834</ele>
        <time>2020-03-09T06:19:12.293Z</time>
      </trkpt>
      <trkpt lat="44.74668" lon="3.72761">
        <ele>1015.490042</ele>
        <time>2020-03-09T06:19:15.700Z</time>
      </trkpt>
      <trkpt lat="44.74676" lon="3.7276">
        <ele>1015.689818</ele>
        <time>2020-03-09T06:19:17.956Z</time>
      </trkpt>
      <trkpt lat="44.74712" lon="3.72773">
        <ele>1016.690881</ele>
        <time>2020-03-09T06:19:29.221Z</time>
      </trkpt>
      <trkpt lat="44.74813" lon="3.72829">
        <ele>1019.092941</ele>
        <time>2020-03-09T06:20:07.228Z</time>
      </trkpt>
      <trkpt lat="44.74834" lon="3.72847">
        <ele>1019.567815</ele>
        <time>2020-03-09T06:20:14.982Z</time>
      </trkpt>
      <trkpt lat="44.74858" lon="3.72857">
        <ele>1020.044287</ele>
        <time>2020-03-09T06:20:20.660Z</time>
      </trkpt>
      <trkpt lat="44.74895" lon="3.72861">
        <ele>1020.764028</ele>
        <time>2020-03-09T06:20:26.502Z</time>
      </trkpt>
      <trkpt lat="44.74949" lon="3.72904">
        <ele>1019.483863</ele>
        <time>2020-03-09T06:20:33.244Z</time>
      </trkpt>
      <trkpt lat="44.74951" lon="3.72905">
        <ele>1019.333596</ele>
        <time>2020-03-09T06:20:33.473Z</time>
      </trkpt>
      <trkpt lat="44.74994" lon="3.7292">
        <ele>1016.645569</ele>
        <time>2020-03-09T06:20:37.619Z</time>
      </trkpt>
      <trkpt lat="44.75018" lon="3.7292">
        <ele>1015.219844</ele>
        <time>2020-03-09T06:20:39.746Z</time>
      </trkpt>
      <trkpt lat="44.75069" lon="3.72914">
        <ele>1012.073078</ele>
        <time>2020-03-09T06:20:44.269Z</time>
      </trkpt>
      <trkpt lat="44.75117" lon="3.729">
        <ele>1008.633923</ele>
        <time>2020-03-09T06:20:48.476Z</time>
      </trkpt>
      <trkpt lat="44.75132" lon="3.72889">
        <ele>1007.216847</ele>
        <time>2020-03-09T06:20:49.979Z</time>
      </trkpt>
      <trkpt lat="44.75164" lon="3.7285">
        <ele>1003.655386</ele>
        <time>2020-03-09T06:20:53.704Z</time>
      </trkpt>
      <trkpt lat="44.75183" lon="3.72833">
        <ele>1001.780922</ele>
        <time>2020-03-09T06:20:55.640Z</time>
      </trkpt>
      <trkpt lat="44.75225" lon="3.72783">
        <ele>997.233848</ele>
        <time>2020-03-09T06:21:00.455Z</time>
      </trkpt>
      <trkpt lat="44.75226" lon="3.72781">
        <ele>997.019971</ele>
        <time>2020-03-09T06:21:00.668Z</time>
      </trkpt>
      <trkpt lat="44.7523" lon="3.72775">
        <ele>996.584634</ele>
        <time>2020-03-09T06:21:01.120Z</time>
      </trkpt>
      <trkpt lat="44.75245" lon="3.72747">
        <ele>994.98439</ele>
        <time>2020-03-09T06:21:03.464Z</time>
      </trkpt>
      <trkpt lat="44.75246" lon="3.72743">
        <ele>994.848169</ele>
        <time>2020-03-09T06:21:03.779Z</time>
      </trkpt>
      <trkpt lat="44.75249" lon="3.72737">
        <ele>994.66515</ele>
        <time>2020-03-09T06:21:04.175Z</time>
      </trkpt>
      <trkpt lat="44.75277" lon="3.72673">
        <ele>992.588544</ele>
        <time>2020-03-09T06:21:09.337Z</time>
      </trkpt>
      <trkpt lat="44.75279" lon="3.72664">
        <ele>992.357498</ele>
        <time>2020-03-09T06:21:09.933Z</time>
      </trkpt>
      <trkpt lat="44.75284" lon="3.72643">
        <ele>991.739526</ele>
        <time>2020-03-09T06:21:11.452Z</time>
      </trkpt>
      <trkpt lat="44.75284" lon="3.7263">
        <ele>991.397052</ele>
        <time>2020-03-09T06:21:12.479Z</time>
      </trkpt>
      <trkpt lat="44.75283" lon="3.72617">
        <ele>991.017188</ele>
        <time>2020-03-09T06:21:13.523Z</time>
      </trkpt>
      <trkpt lat="44.75273" lon="3.72576">
        <ele>989.83012</ele>
        <time>2020-03-09T06:21:16.729Z</time>
      </trkpt>
      <trkpt lat="44.75257" lon="3.72545">
        <ele>988.804186</ele>
        <time>2020-03-09T06:21:19.680Z</time>
      </trkpt>
      <trkpt lat="44.75253" lon="3.72526">
        <ele>988.410307</ele>
        <time>2020-03-09T06:21:21.349Z</time>
      </trkpt>
      <trkpt lat="44.75254" lon="3.72504">
        <ele>988.276555</ele>
        <time>2020-03-09T06:21:23.517Z</time>
      </trkpt>
      <trkpt lat="44.75277" lon="3.72476">
        <ele>988.016825</ele>
        <time>2020-03-09T06:21:27.313Z</time>
      </trkpt>
      <trkpt lat="44.75305" lon="3.72462">
        <ele>987.768319</ele>
        <time>2020-03-09T06:21:31.487Z</time>
      </trkpt>
      <trkpt lat="44.75318" lon="3.72454">
        <ele>987.642461</ele>
        <time>2020-03-09T06:21:33.878Z</time>
      </trkpt>
      <trkpt lat="44.75333" lon="3.72445">
        <ele>987.506028</ele>
        <time>2020-03-09T06:21:36.164Z</time>
      </trkpt>
      <trkpt lat="44.75383" lon="3.72426">
        <ele>987.059339</ele>
        <time>2020-03-09T06:21:42.488Z</time>
      </trkpt>
      <trkpt lat="44.75422" lon="3.7243">
        <ele>986.471262</ele>
        <time>2020-03-09T06:21:47.213Z</time>
      </trkpt>
      <trkpt lat="44.75446" lon="3.72438">
        <ele>986.002277</ele>
        <time>2020-03-09T06:21:50.011Z</time>
      </trkpt>
      <trkpt lat="44.75469" lon="3.72444">
        <ele>985.531237</ele>
        <time>2020-03-09T06:21:52.879Z</time>
      </trkpt>
      <trkpt lat="44.75488" lon="3.72444">
        <ele>985.170171</ele>
        <time>2020-03-09T06:21:54.763Z</time>
      </trkpt>
      <trkpt lat="44.75536" lon="3.72418">
        <ele>984.149114</ele>
        <time>2020-03-09T06:22:00.429Z</time>
      </trkpt>
      <trkpt lat="44.75601" lon="3.72346">
        <ele>982.710132</ele>
        <time>2020-03-09T06:22:08.971Z</time>
      </trkpt>
      <trkpt lat="44.75607" lon="3.7233">
        <ele>982.512681</ele>
        <time>2020-03-09T06:22:10.252Z</time>
      </trkpt>
      <trkpt lat="44.75608" lon="3.723">
        <ele>982.179622</ele>
        <time>2020-03-09T06:22:12.684Z</time>
      </trkpt>
      <trkpt lat="44.75603" lon="3.72278">
        <ele>981.926255</ele>
        <time>2020-03-09T06:22:14.552Z</time>
      </trkpt>
      <trkpt lat="44.75559" lon="3.7215">
        <ele>980.744409</ele>
        <time>2020-03-09T06:22:27.078Z</time>
      </trkpt>
      <trkpt lat="44.7556" lon="3.72123">
        <ele>980.942247</ele>
        <time>2020-03-09T06:22:29.871Z</time>
      </trkpt>
      <trkpt lat="44.75585" lon="3.71978">
        <ele>982.030778</ele>
        <time>2020-03-09T06:22:49.538Z</time>
      </trkpt>
      <trkpt lat="44.75599" lon="3.71953">
        <ele>982.259969</ele>
        <time>2020-03-09T06:22:54.434Z</time>
      </trkpt>
      <trkpt lat="44.7562" lon="3.7194">
        <ele>982.649428</ele>
        <time>2020-03-09T06:22:59.796Z</time>
      </trkpt>
      <trkpt lat="44.75662" lon="3.71931">
        <ele>984.01519</ele>
        <time>2020-03-09T06:23:13.499Z</time>
      </trkpt>
      <trkpt lat="44.75725" lon="3.71935">
        <ele>986.093203</ele>
        <time>2020-03-09T06:23:32.049Z</time>
      </trkpt>
      <trkpt lat="44.75763" lon="3.71949">
        <ele>987.340231</ele>
        <time>2020-03-09T06:23:43.447Z</time>
      </trkpt>
      <trkpt lat="44.75767" lon="3.71953">
        <ele>987.508981</ele>
        <time>2020-03-09T06:23:46.008Z</time>
      </trkpt>
      <trkpt lat="44.7578" lon="3.71962">
        <ele>987.97107</ele>
        <time>2020-03-09T06:23:50.073Z</time>
      </trkpt>
      <trkpt lat="44.75831" lon="3.71993">
        <ele>988.460979</ele>
        <time>2020-03-09T06:24:02.477Z</time>
      </trkpt>
      <trkpt lat="44.7589" lon="3.72006">
        <ele>988.703633</ele>
        <time>2020-03-09T06:24:14.299Z</time>
      </trkpt>
      <trkpt lat="44.75918" lon="3.72008">
        <ele>988.818189</ele>
        <time>2020-03-09T06:24:19.355Z</time>
      </trkpt>
      <trkpt lat="44.75934" lon="3.7201">
        <ele>988.880744</ele>
        <time>2020-03-09T06:24:20.970Z</time>
      </trkpt>
      <trkpt lat="44.76009" lon="3.71994">
        <ele>987.270594</ele>
        <time>2020-03-09T06:24:28.963Z</time>
      </trkpt>
      <trkpt lat="44.76173" lon="3.7194">
        <ele>980.799942</ele>
        <time>2020-03-09T06:24:45.226Z</time>
      </trkpt>
      <trkpt lat="44.76207" lon="3.71942">
        <ele>979.291455</ele>
        <time>2020-03-09T06:24:48.476Z</time>
      </trkpt>
      <trkpt lat="44.76267" lon="3.71923">
        <ele>976.578505</ele>
        <time>2020-03-09T06:24:54.344Z</time>
      </trkpt>
      <trkpt lat="44.76281" lon="3.71903">
        <ele>975.718761</ele>
        <time>2020-03-09T06:24:56.219Z</time>
      </trkpt>
      <trkpt lat="44.76304" lon="3.71844">
        <ele>973.887547</ele>
        <time>2020-03-09T06:25:00.917Z</time>
      </trkpt>
      <trkpt lat="44.76353" lon="3.71776">
        <ele>971.964969</ele>
        <time>2020-03-09T06:25:07.695Z</time>
      </trkpt>
      <trkpt lat="44.76426" lon="3.71693">
        <ele>969.356881</ele>
        <time>2020-03-09T06:25:17.866Z</time>
      </trkpt>
      <trkpt lat="44.76465" lon="3.71681">
        <ele>969.29673</ele>
        <time>2020-03-09T06:25:22.954Z</time>
      </trkpt>
      <trkpt lat="44.76488" lon="3.71662">
        <ele>969.255977</ele>
        <time>2020-03-09T06:25:26.677Z</time>
      </trkpt>
      <trkpt lat="44.76545" lon="3.71559">
        <ele>969.11636</ele>
        <time>2020-03-09T06:25:40.951Z</time>
      </trkpt>
      <trkpt lat="44.76562" lon="3.71539">
        <ele>969.116627</ele>
        <time>2020-03-09T06:25:44.900Z</time>
      </trkpt>
      <trkpt lat="44.76608" lon="3.71536">
        <ele>969.586268</ele>
        <time>2020-03-09T06:25:54.150Z</time>
      </trkpt>
      <trkpt lat="44.76654" lon="3.71574">
        <ele>970.133076</ele>
        <time>2020-03-09T06:26:05.635Z</time>
      </trkpt>
      <trkpt lat="44.76705" lon="3.71583">
        <ele>970.657422</ele>
        <time>2020-03-09T06:26:15.588Z</time>
      </trkpt>
      <trkpt lat="44.76724" lon="3.71576">
        <ele>970.853727</ele>
        <time>2020-03-09T06:26:18.841Z</time>
      </trkpt>
      <trkpt lat="44.7678" lon="3.71528">
        <ele>970.371049</ele>
        <time>2020-03-09T06:26:28.710Z</time>
      </trkpt>
      <trkpt lat="44.76807" lon="3.71519">
        <ele>970.104926</ele>
        <time>2020-03-09T06:26:32.647Z</time>
      </trkpt>
      <trkpt lat="44.76842" lon="3.71533">
        <ele>969.754291</ele>
        <time>2020-03-09T06:26:37.521Z</time>
      </trkpt>
      <trkpt lat="44.76894" lon="3.71543">
        <ele>969.261728</ele>
        <time>2020-03-09T06:26:43.263Z</time>
      </trkpt>
      <trkpt lat="44.76952" lon="3.71543">
        <ele>966.608359</ele>
        <time>2020-03-09T06:26:48.948Z</time>
      </trkpt>
      <trkpt lat="44.76975" lon="3.71537">
        <ele>965.450306</ele>
        <time>2020-03-09T06:26:51.180Z</time>
      </trkpt>
      <trkpt lat="44.77007" lon="3.71526">
        <ele>963.843789</ele>
        <time>2020-03-09T06:26:54.227Z</time>
      </trkpt>
      <trkpt lat="44.77043" lon="3.71501">
        <ele>961.887345</ele>
        <time>2020-03-09T06:26:57.915Z</time>
      </trkpt>
      <trkpt lat="44.77095" lon="3.71479">
        <ele>959.641381</ele>
        <time>2020-03-09T06:27:02.834Z</time>
      </trkpt>
      <trkpt lat="44.7711" lon="3.71467">
        <ele>959.057808</ele>
        <time>2020-03-09T06:27:04.438Z</time>
      </trkpt>
      <trkpt lat="44.77124" lon="3.71443">
        <ele>958.32309</ele>
        <time>2020-03-09T06:27:06.527Z</time>
      </trkpt>
      <trkpt lat="44.77144" lon="3.71375">
        <ele>956.588475</ele>
        <time>2020-03-09T06:27:11.848Z</time>
      </trkpt>
      <trkpt lat="44.77151" lon="3.71361">
        <ele>956.192729</ele>
        <time>2020-03-09T06:27:13.219Z</time>
      </trkpt>
      <trkpt lat="44.77167" lon="3.71344">
        <ele>955.527707</ele>
        <time>2020-03-09T06:27:15.416Z</time>
      </trkpt>
      <trkpt lat="44.77207" lon="3.71328">
        <ele>954.454712</ele>
        <time>2020-03-09T06:27:20.594Z</time>
      </trkpt>
      <trkpt lat="44.77222" lon="3.71324">
        <ele>954.426442</ele>
        <time>2020-03-09T06:27:22.836Z</time>
      </trkpt>
      <trkpt lat="44.77249" lon="3.7132">
        <ele>954.375437</ele>
        <time>2020-03-09T06:27:27.419Z</time>
      </trkpt>
      <trkpt lat="44.77295" lon="3.71322">
        <ele>954.291891</ele>
        <time>2020-03-09T06:27:34.793Z</time>
      </trkpt>
      <trkpt lat="44.77318" lon="3.71339">
        <ele>954.244548</ele>
        <time>2020-03-09T06:27:39.422Z</time>
      </trkpt>
      <trkpt lat="44.77329" lon="3.71357">
        <ele>954.214227</ele>
        <time>2020-03-09T06:27:41.726Z</time>
      </trkpt>
      <trkpt lat="44.77343" lon="3.71362">
        <ele>954.187128</ele>
        <time>2020-03-09T06:27:44.096Z</time>
      </trkpt>
      <trkpt lat="44.77409" lon="3.71319">
        <ele>953.927825</ele>
        <time>2020-03-09T06:27:53.139Z</time>
      </trkpt>
      <trkpt lat="44.77453" lon="3.71299">
        <ele>953.723533</ele>
        <time>2020-03-09T06:27:58.401Z</time>
      </trkpt>
      <trkpt lat="44.77503" lon="3.71263">
        <ele>953.472146</ele>
        <time>2020-03-09T06:28:05.378Z</time>
      </trkpt>
      <trkpt lat="44.77594" lon="3.71166">
        <ele>955.274539</ele>
        <time>2020-03-09T06:28:28.873Z</time>
      </trkpt>
      <trkpt lat="44.77608" lon="3.7117">
        <ele>955.580505</ele>
        <time>2020-03-09T06:28:32.774Z</time>
      </trkpt>
      <trkpt lat="44.77656" lon="3.7126">
        <ele>957.395867</ele>
        <time>2020-03-09T06:28:57.282Z</time>
      </trkpt>
      <trkpt lat="44.77679" lon="3.71297">
        <ele>956.866072</ele>
        <time>2020-03-09T06:29:06.227Z</time>
      </trkpt>
      <trkpt lat="44.77695" lon="3.71309">
        <ele>956.579248</ele>
        <time>2020-03-09T06:29:10.005Z</time>
      </trkpt>
      <trkpt lat="44.77798" lon="3.71325">
        <ele>954.920431</ele>
        <time>2020-03-09T06:29:21.099Z</time>
      </trkpt>
      <trkpt lat="44.77864" lon="3.71323">
        <ele>951.767995</ele>
        <time>2020-03-09T06:29:27.032Z</time>
      </trkpt>
      <trkpt lat="44.77904" lon="3.7131">
        <ele>949.033268</ele>
        <time>2020-03-09T06:29:30.680Z</time>
      </trkpt>
      <trkpt lat="44.77921" lon="3.71296">
        <ele>947.698087</ele>
        <time>2020-03-09T06:29:32.447Z</time>
      </trkpt>
      <trkpt lat="44.77953" lon="3.71256">
        <ele>944.863453</ele>
        <time>2020-03-09T06:29:36.230Z</time>
      </trkpt>
      <trkpt lat="44.77963" lon="3.71231">
        <ele>943.494109</ele>
        <time>2020-03-09T06:29:38.084Z</time>
      </trkpt>
      <trkpt lat="44.77963" lon="3.71156">
        <ele>941.449439</ele>
        <time>2020-03-09T06:29:43.039Z</time>
      </trkpt>
      <trkpt lat="44.77981" lon="3.7114">
        <ele>940.823453</ele>
        <time>2020-03-09T06:29:45.228Z</time>
      </trkpt>
      <trkpt lat="44.78042" lon="3.71168">
        <ele>938.960235</ele>
        <time>2020-03-09T06:29:52.527Z</time>
      </trkpt>
      <trkpt lat="44.78079" lon="3.71226">
        <ele>937.333581</ele>
        <time>2020-03-09T06:29:59.264Z</time>
      </trkpt>
      <trkpt lat="44.78113" lon="3.71263">
        <ele>935.43184</ele>
        <time>2020-03-09T06:30:04.000Z</time>
      </trkpt>
      <trkpt lat="44.78131" lon="3.71275">
        <ele>934.514015</ele>
        <time>2020-03-09T06:30:06.111Z</time>
      </trkpt>
      <trkpt lat="44.78161" lon="3.71311">
        <ele>932.755886</ele>
        <time>2020-03-09T06:30:09.944Z</time>
      </trkpt>
      <trkpt lat="44.78184" lon="3.7132">
        <ele>931.718</ele>
        <time>2020-03-09T06:30:12.118Z</time>
      </trkpt>
      <trkpt lat="44.78214" lon="3.71316">
        <ele>930.341462</ele>
        <time>2020-03-09T06:30:14.915Z</time>
      </trkpt>
      <trkpt lat="44.78326" lon="3.71202">
        <ele>920.978087</ele>
        <time>2020-03-09T06:30:27.098Z</time>
      </trkpt>
      <trkpt lat="44.78344" lon="3.71169">
        <ele>918.813922</ele>
        <time>2020-03-09T06:30:29.756Z</time>
      </trkpt>
      <trkpt lat="44.78374" lon="3.71071">
        <ele>915.206097</ele>
        <time>2020-03-09T06:30:36.680Z</time>
      </trkpt>
      <trkpt lat="44.78435" lon="3.70901">
        <ele>911.560589</ele>
        <time>2020-03-09T06:30:51.577Z</time>
      </trkpt>
      <trkpt lat="44.7846" lon="3.70857">
        <ele>912.374238</ele>
        <time>2020-03-09T06:30:59.074Z</time>
      </trkpt>
      <trkpt lat="44.78491" lon="3.70826">
        <ele>913.337669</ele>
        <time>2020-03-09T06:31:08.300Z</time>
      </trkpt>
      <trkpt lat="44.78509" lon="3.70803">
        <ele>913.962663</ele>
        <time>2020-03-09T06:31:13.225Z</time>
      </trkpt>
      <trkpt lat="44.78511" lon="3.70809">
        <ele>914.073349</ele>
        <time>2020-03-09T06:31:15.770Z</time>
      </trkpt>
      <trkpt lat="44.78514" lon="3.70813">
        <ele>914.179443</ele>
        <time>2020-03-09T06:31:16.881Z</time>
      </trkpt>
      <trkpt lat="44.78519" lon="3.70815">
        <ele>914.30749</ele>
        <time>2020-03-09T06:31:18.892Z</time>
      </trkpt>
      <trkpt lat="44.78525" lon="3.70813">
        <ele>914.467273</ele>
        <time>2020-03-09T06:31:19.917Z</time>
      </trkpt>
      <trkpt lat="44.78528" lon="3.70806">
        <ele>914.621546</ele>
        <time>2020-03-09T06:31:21.421Z</time>
      </trkpt>
      <trkpt lat="44.78527" lon="3.70795">
        <ele>914.814077</ele>
        <time>2020-03-09T06:31:22.668Z</time>
      </trkpt>
      <trkpt lat="44.78534" lon="3.70791">
        <ele>914.991689</ele>
        <time>2020-03-09T06:31:26.512Z</time>
      </trkpt>
      <trkpt lat="44.78562" lon="3.70774">
        <ele>915.771938</ele>
        <time>2020-03-09T06:31:34.999Z</time>
      </trkpt>
      <trkpt lat="44.78599" lon="3.70755">
        <ele>917.624895</ele>
        <time>2020-03-09T06:31:49.356Z</time>
      </trkpt>
      <trkpt lat="44.7861" lon="3.70749">
        <ele>918.298085</ele>
        <time>2020-03-09T06:31:54.628Z</time>
      </trkpt>
      <trkpt lat="44.78664" lon="3.70713">
        <ele>921.614116</ele>
        <time>2020-03-09T06:32:16.555Z</time>
      </trkpt>
      <trkpt lat="44.78684" lon="3.70715">
        <ele>922.696282</ele>
        <time>2020-03-09T06:32:24.248Z</time>
      </trkpt>
      <trkpt lat="44.787" lon="3.70733">
        <ele>923.846501</ele>
        <time>2020-03-09T06:32:32.520Z</time>
      </trkpt>
      <trkpt lat="44.78716" lon="3.70811">
        <ele>926.419124</ele>
        <time>2020-03-09T06:32:55.165Z</time>
      </trkpt>
      <trkpt lat="44.78727" lon="3.70838">
        <ele>926.972289</ele>
        <time>2020-03-09T06:33:02.867Z</time>
      </trkpt>
      <trkpt lat="44.78765" lon="3.70902">
        <ele>928.454561</ele>
        <time>2020-03-09T06:33:20.718Z</time>
      </trkpt>
      <trkpt lat="44.78793" lon="3.7097">
        <ele>929.847328</ele>
        <time>2020-03-09T06:33:32.813Z</time>
      </trkpt>
      <trkpt lat="44.78865" lon="3.71074">
        <ele>925.644344</ele>
        <time>2020-03-09T06:33:43.428Z</time>
      </trkpt>
      <trkpt lat="44.789" lon="3.7109">
        <ele>923.426427</ele>
        <time>2020-03-09T06:33:46.727Z</time>
      </trkpt>
      <trkpt lat="44.78929" lon="3.71084">
        <ele>921.648901</ele>
        <time>2020-03-09T06:33:49.299Z</time>
      </trkpt>
      <trkpt lat="44.78976" lon="3.71059">
        <ele>918.500727</ele>
        <time>2020-03-09T06:33:53.598Z</time>
      </trkpt>
      <trkpt lat="44.79017" lon="3.70978">
        <ele>913.591001</ele>
        <time>2020-03-09T06:33:59.745Z</time>
      </trkpt>
      <trkpt lat="44.79023" lon="3.70933">
        <ele>911.336556</ele>
        <time>2020-03-09T06:34:02.657Z</time>
      </trkpt>
      <trkpt lat="44.79017" lon="3.70874">
        <ele>908.406745</ele>
        <time>2020-03-09T06:34:06.660Z</time>
      </trkpt>
      <trkpt lat="44.7902" lon="3.70834">
        <ele>907.4004</ele>
        <time>2020-03-09T06:34:09.610Z</time>
      </trkpt>
      <trkpt lat="44.79039" lon="3.70796">
        <ele>907.970796</ele>
        <time>2020-03-09T06:34:13.881Z</time>
      </trkpt>
      <trkpt lat="44.7906" lon="3.70773">
        <ele>908.434425</ele>
        <time>2020-03-09T06:34:19.438Z</time>
      </trkpt>
      <trkpt lat="44.7909" lon="3.70767">
        <ele>908.948201</ele>
        <time>2020-03-09T06:34:27.313Z</time>
      </trkpt>
      <trkpt lat="44.79141" lon="3.70779">
        <ele>909.853695</ele>
        <time>2020-03-09T06:34:44.051Z</time>
      </trkpt>
      <trkpt lat="44.79165" lon="3.70793">
        <ele>910.289791</ele>
        <time>2020-03-09T06:34:52.219Z</time>
      </trkpt>
      <trkpt lat="44.79204" lon="3.70835">
        <ele>910.760144</ele>
        <time>2020-03-09T06:35:07.746Z</time>
      </trkpt>
      <trkpt lat="44.79265" lon="3.70883">
        <ele>911.408466</ele>
        <time>2020-03-09T06:35:23.618Z</time>
      </trkpt>
      <trkpt lat="44.79342" lon="3.70969">
        <ele>909.971079</ele>
        <time>2020-03-09T06:35:34.107Z</time>
      </trkpt>
      <trkpt lat="44.79375" lon="3.70991">
        <ele>907.888612</ele>
        <time>2020-03-09T06:35:37.553Z</time>
      </trkpt>
      <trkpt lat="44.79414" lon="3.70989">
        <ele>905.691053</ele>
        <time>2020-03-09T06:35:41.093Z</time>
      </trkpt>
      <trkpt lat="44.79488" lon="3.70956">
        <ele>901.250781</ele>
        <time>2020-03-09T06:35:48.025Z</time>
      </trkpt>
      <trkpt lat="44.79521" lon="3.7092">
        <ele>898.655002</ele>
        <time>2020-03-09T06:35:51.685Z</time>
      </trkpt>
      <trkpt lat="44.79558" lon="3.70841">
        <ele>894.408978</ele>
        <time>2020-03-09T06:35:57.766Z</time>
      </trkpt>
      <trkpt lat="44.79605" lon="3.70787">
        <ele>890.589929</ele>
        <time>2020-03-09T06:36:03.433Z</time>
      </trkpt>
      <trkpt lat="44.79619" lon="3.70755">
        <ele>889.97801</ele>
        <time>2020-03-09T06:36:05.938Z</time>
      </trkpt>
      <trkpt lat="44.79688" lon="3.70408">
        <ele>886.870597</ele>
        <time>2020-03-09T06:36:35.462Z</time>
      </trkpt>
      <trkpt lat="44.79704" lon="3.70364">
        <ele>886.996728</ele>
        <time>2020-03-09T06:36:43.315Z</time>
      </trkpt>
      <trkpt lat="44.7973" lon="3.70327">
        <ele>887.12861</ele>
        <time>2020-03-09T06:36:52.620Z</time>
      </trkpt>
      <trkpt lat="44.79849" lon="3.70228">
        <ele>891.539867</ele>
        <time>2020-03-09T06:37:34.784Z</time>
      </trkpt>
      <trkpt lat="44.79922" lon="3.7019">
        <ele>893.160232</ele>
        <time>2020-03-09T06:37:55.852Z</time>
      </trkpt>
      <trkpt lat="44.80062" lon="3.70132">
        <ele>893.361943</ele>
        <time>2020-03-09T06:38:17.070Z</time>
      </trkpt>
      <trkpt lat="44.80114" lon="3.7009">
        <ele>891.590164</ele>
        <time>2020-03-09T06:38:22.902Z</time>
      </trkpt>
      <trkpt lat="44.80146" lon="3.70055">
        <ele>890.281025</ele>
        <time>2020-03-09T06:38:26.924Z</time>
      </trkpt>
      <trkpt lat="44.80168" lon="3.70022">
        <ele>889.268322</ele>
        <time>2020-03-09T06:38:30.038Z</time>
      </trkpt>
      <trkpt lat="44.80187" lon="3.69987">
        <ele>888.277397</ele>
        <time>2020-03-09T06:38:33.064Z</time>
      </trkpt>
      <trkpt lat="44.8024" lon="3.69876">
        <ele>886.543953</ele>
        <time>2020-03-09T06:38:43.247Z</time>
      </trkpt>
      <trkpt lat="44.80293" lon="3.69814">
        <ele>885.565159</ele>
        <time>2020-03-09T06:38:51.714Z</time>
      </trkpt>
      <trkpt lat="44.80307" lon="3.69803">
        <ele>885.332431</ele>
        <time>2020-03-09T06:38:54.627Z</time>
      </trkpt>
      <trkpt lat="44.80314" lon="3.698">
        <ele>885.23105</ele>
        <time>2020-03-09T06:38:55.512Z</time>
      </trkpt>
      <trkpt lat="44.8033" lon="3.69795">
        <ele>884.989179</ele>
        <time>2020-03-09T06:38:58.371Z</time>
      </trkpt>
      <trkpt lat="44.80389" lon="3.69808">
        <ele>884.212532</ele>
        <time>2020-03-09T06:39:06.413Z</time>
      </trkpt>
      <trkpt lat="44.80476" lon="3.69809">
        <ele>883.05297</ele>
        <time>2020-03-09T06:39:16.819Z</time>
      </trkpt>
      <trkpt lat="44.80535" lon="3.69767">
        <ele>881.78449</ele>
        <time>2020-03-09T06:39:23.487Z</time>
      </trkpt>
      <trkpt lat="44.80554" lon="3.69748">
        <ele>881.20175</ele>
        <time>2020-03-09T06:39:25.836Z</time>
      </trkpt>
      <trkpt lat="44.80594" lon="3.69688">
        <ele>879.777864</ele>
        <time>2020-03-09T06:39:31.638Z</time>
      </trkpt>
      <trkpt lat="44.80651" lon="3.6964">
        <ele>878.433339</ele>
        <time>2020-03-09T06:39:38.482Z</time>
      </trkpt>
      <trkpt lat="44.80671" lon="3.69627">
        <ele>879.43195</ele>
        <time>2020-03-09T06:39:41.798Z</time>
      </trkpt>
      <trkpt lat="44.80765" lon="3.69614">
        <ele>883.731508</ele>
        <time>2020-03-09T06:40:13.862Z</time>
      </trkpt>
      <trkpt lat="44.80775" lon="3.69614">
        <ele>884.166203</ele>
        <time>2020-03-09T06:40:17.662Z</time>
      </trkpt>
      <trkpt lat="44.80781" lon="3.69644">
        <ele>885.182343</ele>
        <time>2020-03-09T06:40:28.064Z</time>
      </trkpt>
      <trkpt lat="44.80779" lon="3.69718">
        <ele>888.06943</ele>
        <time>2020-03-09T06:40:53.708Z</time>
      </trkpt>
      <trkpt lat="44.80784" lon="3.69806">
        <ele>892.125381</ele>
        <time>2020-03-09T06:41:25.982Z</time>
      </trkpt>
      <trkpt lat="44.80794" lon="3.69856">
        <ele>894.536259</ele>
        <time>2020-03-09T06:41:44.988Z</time>
      </trkpt>
      <trkpt lat="44.80844" lon="3.7">
        <ele>896.09063</ele>
        <time>2020-03-09T06:42:10.989Z</time>
      </trkpt>
      <trkpt lat="44.80873" lon="3.70043">
        <ele>894.637673</ele>
        <time>2020-03-09T06:42:15.128Z</time>
      </trkpt>
      <trkpt lat="44.80949" lon="3.7013">
        <ele>890.48603</ele>
        <time>2020-03-09T06:42:23.910Z</time>
      </trkpt>
      <trkpt lat="44.80971" lon="3.70144">
        <ele>888.693936</ele>
        <time>2020-03-09T06:42:25.959Z</time>
      </trkpt>
      <trkpt lat="44.81022" lon="3.70157">
        <ele>884.806902</ele>
        <time>2020-03-09T06:42:30.416Z</time>
      </trkpt>
      <trkpt lat="44.81096" lon="3.70223">
        <ele>878.37258</ele>
        <time>2020-03-09T06:42:38.337Z</time>
      </trkpt>
      <trkpt lat="44.81103" lon="3.70242">
        <ele>878.133136</ele>
        <time>2020-03-09T06:42:39.719Z</time>
      </trkpt>
      <trkpt lat="44.81102" lon="3.70258">
        <ele>877.956767</ele>
        <time>2020-03-09T06:42:40.957Z</time>
      </trkpt>
      <trkpt lat="44.81093" lon="3.7028">
        <ele>877.661485</ele>
        <time>2020-03-09T06:42:42.758Z</time>
      </trkpt>
      <trkpt lat="44.81082" lon="3.70296">
        <ele>877.417822</ele>
        <time>2020-03-09T06:42:44.529Z</time>
      </trkpt>
      <trkpt lat="44.81027" lon="3.70377">
        <ele>876.183605</ele>
        <time>2020-03-09T06:42:54.361Z</time>
      </trkpt>
      <trkpt lat="44.81023" lon="3.70407">
        <ele>875.841259</ele>
        <time>2020-03-09T06:42:57.684Z</time>
      </trkpt>
      <trkpt lat="44.8103" lon="3.70424">
        <ele>875.619593</ele>
        <time>2020-03-09T06:43:01.451Z</time>
      </trkpt>
      <trkpt lat="44.81128" lon="3.70587">
        <ele>879.103454</ele>
        <time>2020-03-09T06:43:42.558Z</time>
      </trkpt>
      <trkpt lat="44.81192" lon="3.70639">
        <ele>879.079824</ele>
        <time>2020-03-09T06:43:58.242Z</time>
      </trkpt>
      <trkpt lat="44.81263" lon="3.70719">
        <ele>877.635349</ele>
        <time>2020-03-09T06:44:08.393Z</time>
      </trkpt>
      <trkpt lat="44.81331" lon="3.70724">
        <ele>876.007594</ele>
        <time>2020-03-09T06:44:14.952Z</time>
      </trkpt>
      <trkpt lat="44.81355" lon="3.70714">
        <ele>875.078539</ele>
        <time>2020-03-09T06:44:17.201Z</time>
      </trkpt>
      <trkpt lat="44.81371" lon="3.70681">
        <ele>874.008219</ele>
        <time>2020-03-09T06:44:19.816Z</time>
      </trkpt>
      <trkpt lat="44.81384" lon="3.70628">
        <ele>872.48015</ele>
        <time>2020-03-09T06:44:23.610Z</time>
      </trkpt>
      <trkpt lat="44.8145" lon="3.70541">
        <ele>870.293893</ele>
        <time>2020-03-09T06:44:33.298Z</time>
      </trkpt>
      <trkpt lat="44.81475" lon="3.70526">
        <ele>870.527062</ele>
        <time>2020-03-09T06:44:37.906Z</time>
      </trkpt>
      <trkpt lat="44.81486" lon="3.70528">
        <ele>870.620849</ele>
        <time>2020-03-09T06:44:40.045Z</time>
      </trkpt>
      <trkpt lat="44.815" lon="3.70542">
        <ele>870.763908</ele>
        <time>2020-03-09T06:44:43.728Z</time>
      </trkpt>
      <trkpt lat="44.81525" lon="3.70598">
        <ele>871.166069</ele>
        <time>2020-03-09T06:44:55.547Z</time>
      </trkpt>
      <trkpt lat="44.81567" lon="3.70663">
        <ele>871.454235</ele>
        <time>2020-03-09T06:45:09.783Z</time>
      </trkpt>
      <trkpt lat="44.81592" lon="3.70669">
        <ele>871.1699</ele>
        <time>2020-03-09T06:45:14.809Z</time>
      </trkpt>
      <trkpt lat="44.81621" lon="3.70685">
        <ele>870.818643</ele>
        <time>2020-03-09T06:45:20.000Z</time>
      </trkpt>
      <trkpt lat="44.81744" lon="3.70793">
        <ele>868.391311</ele>
        <time>2020-03-09T06:45:35.295Z</time>
      </trkpt>
      <trkpt lat="44.81758" lon="3.70837">
        <ele>867.215484</ele>
        <time>2020-03-09T06:45:38.602Z</time>
      </trkpt>
      <trkpt lat="44.81758" lon="3.70873">
        <ele>866.33912</ele>
        <time>2020-03-09T06:45:41.116Z</time>
      </trkpt>
      <trkpt lat="44.81743" lon="3.70988">
        <ele>863.471849</ele>
        <time>2020-03-09T06:45:49.749Z</time>
      </trkpt>
      <trkpt lat="44.81757" lon="3.7103">
        <ele>861.466672</ele>
        <time>2020-03-09T06:45:52.951Z</time>
      </trkpt>
      <trkpt lat="44.81751" lon="3.71188">
        <ele>854.232678</ele>
        <time>2020-03-09T06:46:03.075Z</time>
      </trkpt>
      <trkpt lat="44.81757" lon="3.712">
        <ele>853.596824</ele>
        <time>2020-03-09T06:46:03.959Z</time>
      </trkpt>
      <trkpt lat="44.81768" lon="3.71203">
        <ele>852.858566</ele>
        <time>2020-03-09T06:46:04.973Z</time>
      </trkpt>
      <trkpt lat="44.81798" lon="3.71216">
        <ele>851.043023</ele>
        <time>2020-03-09T06:46:07.738Z</time>
      </trkpt>
      <trkpt lat="44.81827" lon="3.71233">
        <ele>849.465611</ele>
        <time>2020-03-09T06:46:10.510Z</time>
      </trkpt>
      <trkpt lat="44.81841" lon="3.7126">
        <ele>848.257203</ele>
        <time>2020-03-09T06:46:12.651Z</time>
      </trkpt>
      <trkpt lat="44.81857" lon="3.71384">
        <ele>843.712823</ele>
        <time>2020-03-09T06:46:21.006Z</time>
      </trkpt>
      <trkpt lat="44.81854" lon="3.71411">
        <ele>842.722408</ele>
        <time>2020-03-09T06:46:23.292Z</time>
      </trkpt>
      <trkpt lat="44.81808" lon="3.71525">
        <ele>841.775377</ele>
        <time>2020-03-09T06:46:39.204Z</time>
      </trkpt>
      <trkpt lat="44.81793" lon="3.71545">
        <ele>841.588212</ele>
        <time>2020-03-09T06:46:42.109Z</time>
      </trkpt>
      <trkpt lat="44.81738" lon="3.71585">
        <ele>841.018143</ele>
        <time>2020-03-09T06:46:50.715Z</time>
      </trkpt>
      <trkpt lat="44.8172" lon="3.7159">
        <ele>840.282285</ele>
        <time>2020-03-09T06:46:52.814Z</time>
      </trkpt>
      <trkpt lat="44.81632" lon="3.71591">
        <ele>835.425665</ele>
        <time>2020-03-09T06:47:01.018Z</time>
      </trkpt>
      <trkpt lat="44.81581" lon="3.71603">
        <ele>832.611919</ele>
        <time>2020-03-09T06:47:05.601Z</time>
      </trkpt>
      <trkpt lat="44.81563" lon="3.71621">
        <ele>831.387334</ele>
        <time>2020-03-09T06:47:07.534Z</time>
      </trkpt>
      <trkpt lat="44.8155" lon="3.71649">
        <ele>830.513139</ele>
        <time>2020-03-09T06:47:09.747Z</time>
      </trkpt>
      <trkpt lat="44.81547" lon="3.7166">
        <ele>830.260504</ele>
        <time>2020-03-09T06:47:10.451Z</time>
      </trkpt>
      <trkpt lat="44.8154" lon="3.71692">
        <ele>829.531276</ele>
        <time>2020-03-09T06:47:12.675Z</time>
      </trkpt>
      <trkpt lat="44.8154" lon="3.71756">
        <ele>828.158346</ele>
        <time>2020-03-09T06:47:16.864Z</time>
      </trkpt>
      <trkpt lat="44.8154" lon="3.71764">
        <ele>827.990488</ele>
        <time>2020-03-09T06:47:17.392Z</time>
      </trkpt>
      <trkpt lat="44.81543" lon="3.71883">
        <ele>825.872436</ele>
        <time>2020-03-09T06:47:30.427Z</time>
      </trkpt>
      <trkpt lat="44.81544" lon="3.71903">
        <ele>826.589907</ele>
        <time>2020-03-09T06:47:35.368Z</time>
      </trkpt>
      <trkpt lat="44.81544" lon="3.71938">
        <ele>827.843193</ele>
        <time>2020-03-09T06:47:43.207Z</time>
      </trkpt>
      <trkpt lat="44.81545" lon="3.71975">
        <ele>829.142722</ele>
        <time>2020-03-09T06:47:54.211Z</time>
      </trkpt>
      <trkpt lat="44.81546" lon="3.72017">
        <ele>830.638777</ele>
        <time>2020-03-09T06:48:06.485Z</time>
      </trkpt>
      <trkpt lat="44.81539" lon="3.72044">
        <ele>831.67588</ele>
        <time>2020-03-09T06:48:14.515Z</time>
      </trkpt>
      <trkpt lat="44.81532" lon="3.72056">
        <ele>832.218398</ele>
        <time>2020-03-09T06:48:19.639Z</time>
      </trkpt>
      <trkpt lat="44.81458" lon="3.72101">
        <ele>834.406214</ele>
        <time>2020-03-09T06:48:51.283Z</time>
      </trkpt>
      <trkpt lat="44.81403" lon="3.72099">
        <ele>834.084342</ele>
        <time>2020-03-09T06:49:01.762Z</time>
      </trkpt>
      <trkpt lat="44.81276" lon="3.72037">
        <ele>830.929593</ele>
        <time>2020-03-09T06:49:14.795Z</time>
      </trkpt>
      <trkpt lat="44.81253" lon="3.72032">
        <ele>829.50312</ele>
        <time>2020-03-09T06:49:16.884Z</time>
      </trkpt>
      <trkpt lat="44.8117" lon="3.72027">
        <ele>824.477885</ele>
        <time>2020-03-09T06:49:24.272Z</time>
      </trkpt>
      <trkpt lat="44.81147" lon="3.72038">
        <ele>822.979598</ele>
        <time>2020-03-09T06:49:26.505Z</time>
      </trkpt>
      <trkpt lat="44.81129" lon="3.72057">
        <ele>821.93617</ele>
        <time>2020-03-09T06:49:28.532Z</time>
      </trkpt>
      <trkpt lat="44.81125" lon="3.72078">
        <ele>821.296485</ele>
        <time>2020-03-09T06:49:29.950Z</time>
      </trkpt>
      <trkpt lat="44.81132" lon="3.7213">
        <ele>819.723263</ele>
        <time>2020-03-09T06:49:33.525Z</time>
      </trkpt>
      <trkpt lat="44.81152" lon="3.72162">
        <ele>818.470347</ele>
        <time>2020-03-09T06:49:36.449Z</time>
      </trkpt>
      <trkpt lat="44.81214" lon="3.72243">
        <ele>815.010223</ele>
        <time>2020-03-09T06:49:45.149Z</time>
      </trkpt>
      <trkpt lat="44.81274" lon="3.7232">
        <ele>813.300226</ele>
        <time>2020-03-09T06:49:53.895Z</time>
      </trkpt>
      <trkpt lat="44.81356" lon="3.72415">
        <ele>811.159414</ele>
        <time>2020-03-09T06:50:05.557Z</time>
      </trkpt>
      <trkpt lat="44.81532" lon="3.72684">
        <ele>811.817128</ele>
        <time>2020-03-09T06:50:37.357Z</time>
      </trkpt>
      <trkpt lat="44.81559" lon="3.72719">
        <ele>812.867566</ele>
        <time>2020-03-09T06:50:50.292Z</time>
      </trkpt>
      <trkpt lat="44.81573" lon="3.72746">
        <ele>813.551262</ele>
        <time>2020-03-09T06:51:00.199Z</time>
      </trkpt>
      <trkpt lat="44.81573" lon="3.7276">
        <ele>813.838828</ele>
        <time>2020-03-09T06:51:05.273Z</time>
      </trkpt>
      <trkpt lat="44.81563" lon="3.72777">
        <ele>814.280227</ele>
        <time>2020-03-09T06:51:12.594Z</time>
      </trkpt>
      <trkpt lat="44.81525" lon="3.72809">
        <ele>817.602278</ele>
        <time>2020-03-09T06:51:32.874Z</time>
      </trkpt>
      <trkpt lat="44.81509" lon="3.72826">
        <ele>819.213062</ele>
        <time>2020-03-09T06:51:44.241Z</time>
      </trkpt>
      <trkpt lat="44.81505" lon="3.72847">
        <ele>820.407263</ele>
        <time>2020-03-09T06:51:50.519Z</time>
      </trkpt>
      <trkpt lat="44.81506" lon="3.7287">
        <ele>821.688023</ele>
        <time>2020-03-09T06:51:59.580Z</time>
      </trkpt>
      <trkpt lat="44.81514" lon="3.72887">
        <ele>822.838627</ele>
        <time>2020-03-09T06:52:06.852Z</time>
      </trkpt>
      <trkpt lat="44.81604" lon="3.72939">
        <ele>828.990559</ele>
        <time>2020-03-09T06:52:54.094Z</time>
      </trkpt>
      <trkpt lat="44.81754" lon="3.72974">
        <ele>831.413843</ele>
        <time>2020-03-09T06:53:20.328Z</time>
      </trkpt>
      <trkpt lat="44.81791" lon="3.72999">
        <ele>829.835931</ele>
        <time>2020-03-09T06:53:24.478Z</time>
      </trkpt>
      <trkpt lat="44.81868" lon="3.73103">
        <ele>825.336392</ele>
        <time>2020-03-09T06:53:34.586Z</time>
      </trkpt>
      <trkpt lat="44.81879" lon="3.73144">
        <ele>824.020139</ele>
        <time>2020-03-09T06:53:37.444Z</time>
      </trkpt>
      <trkpt lat="44.81892" lon="3.73259">
        <ele>821.28885</ele>
        <time>2020-03-09T06:53:45.179Z</time>
      </trkpt>
      <trkpt lat="44.8189" lon="3.73283">
        <ele>820.731898</ele>
        <time>2020-03-09T06:53:46.864Z</time>
      </trkpt>
      <trkpt lat="44.81879" lon="3.73302">
        <ele>820.178098</ele>
        <time>2020-03-09T06:53:48.575Z</time>
      </trkpt>
      <trkpt lat="44.81851" lon="3.73331">
        <ele>819.024409</ele>
        <time>2020-03-09T06:53:52.364Z</time>
      </trkpt>
      <trkpt lat="44.81818" lon="3.73343">
        <ele>818.024683</ele>
        <time>2020-03-09T06:53:56.538Z</time>
      </trkpt>
      <trkpt lat="44.81728" lon="3.73396">
        <ele>819.874175</ele>
        <time>2020-03-09T06:54:17.001Z</time>
      </trkpt>
      <trkpt lat="44.81691" lon="3.7344">
        <ele>820.786362</ele>
        <time>2020-03-09T06:54:30.556Z</time>
      </trkpt>
      <trkpt lat="44.81676" lon="3.7348">
        <ele>821.401344</ele>
        <time>2020-03-09T06:54:40.064Z</time>
      </trkpt>
      <trkpt lat="44.81667" lon="3.73534">
        <ele>822.420519</ele>
        <time>2020-03-09T06:54:50.557Z</time>
      </trkpt>
      <trkpt lat="44.8166" lon="3.7362">
        <ele>823.999949</ele>
        <time>2020-03-09T06:55:04.057Z</time>
      </trkpt>
      <trkpt lat="44.81664" lon="3.73665">
        <ele>824.838092</ele>
        <time>2020-03-09T06:55:12.645Z</time>
      </trkpt>
      <trkpt lat="44.81669" lon="3.73686">
        <ele>825.241434</ele>
        <time>2020-03-09T06:55:18.195Z</time>
      </trkpt>
      <trkpt lat="44.81683" lon="3.73702">
        <ele>825.704405</ele>
        <time>2020-03-09T06:55:21.558Z</time>
      </trkpt>
      <trkpt lat="44.81719" lon="3.73716">
        <ele>826.671571</ele>
        <time>2020-03-09T06:55:30.593Z</time>
      </trkpt>
      <trkpt lat="44.81751" lon="3.73743">
        <ele>827.616981</ele>
        <time>2020-03-09T06:55:39.198Z</time>
      </trkpt>
      <trkpt lat="44.81762" lon="3.73764">
        <ele>828.113064</ele>
        <time>2020-03-09T06:55:46.532Z</time>
      </trkpt>
      <trkpt lat="44.8182" lon="3.73819">
        <ele>829.901904</ele>
        <time>2020-03-09T06:56:06.947Z</time>
      </trkpt>
      <trkpt lat="44.81864" lon="3.7383">
        <ele>830.910238</ele>
        <time>2020-03-09T06:56:20.443Z</time>
      </trkpt>
      <trkpt lat="44.81886" lon="3.73847">
        <ele>831.329949</ele>
        <time>2020-03-09T06:56:29.004Z</time>
      </trkpt>
      <trkpt lat="44.81913" lon="3.7384">
        <ele>831.784767</ele>
        <time>2020-03-09T06:56:36.414Z</time>
      </trkpt>
      <trkpt lat="44.8198" lon="3.73845">
        <ele>832.893909</ele>
        <time>2020-03-09T06:56:51.892Z</time>
      </trkpt>
      <trkpt lat="44.82016" lon="3.7382">
        <ele>833.557101</ele>
        <time>2020-03-09T06:57:01.966Z</time>
      </trkpt>
      <trkpt lat="44.82083" lon="3.73886">
        <ele>836.083892</ele>
        <time>2020-03-09T06:57:25.664Z</time>
      </trkpt>
      <trkpt lat="44.82098" lon="3.73886">
        <ele>836.574963</ele>
        <time>2020-03-09T06:57:30.584Z</time>
      </trkpt>
      <trkpt lat="44.82129" lon="3.73863">
        <ele>837.697278</ele>
        <time>2020-03-09T06:57:42.261Z</time>
      </trkpt>
      <trkpt lat="44.82171" lon="3.73881">
        <ele>839.104489</ele>
        <time>2020-03-09T06:57:58.472Z</time>
      </trkpt>
      <trkpt lat="44.82191" lon="3.73878">
        <ele>840.149588</ele>
        <time>2020-03-09T06:58:06.758Z</time>
      </trkpt>
      <trkpt lat="44.82204" lon="3.73891">
        <ele>841.216876</ele>
        <time>2020-03-09T06:58:13.597Z</time>
      </trkpt>
      <trkpt lat="44.82204" lon="3.73908">
        <ele>842.027192</ele>
        <time>2020-03-09T06:58:18.888Z</time>
      </trkpt>
      <trkpt lat="44.82134" lon="3.7401">
        <ele>848.679058</ele>
        <time>2020-03-09T06:59:07.320Z</time>
      </trkpt>
      <trkpt lat="44.8211" lon="3.74054">
        <ele>851.288431</ele>
        <time>2020-03-09T06:59:27.063Z</time>
      </trkpt>
      <trkpt lat="44.821" lon="3.74057">
        <ele>852.116673</ele>
        <time>2020-03-09T06:59:32.221Z</time>
      </trkpt>
      <trkpt lat="44.82094" lon="3.74053">
        <ele>852.663435</ele>
        <time>2020-03-09T06:59:35.564Z</time>
      </trkpt>
      <trkpt lat="44.82041" lon="3.73949">
        <ele>860.228042</ele>
        <time>2020-03-09T07:00:23.560Z</time>
      </trkpt>
      <trkpt lat="44.82028" lon="3.73945">
        <ele>861.335779</ele>
        <time>2020-03-09T07:00:30.850Z</time>
      </trkpt>
      <trkpt lat="44.82018" lon="3.73952">
        <ele>862.259863</ele>
        <time>2020-03-09T07:00:37.055Z</time>
      </trkpt>
      <trkpt lat="44.82014" lon="3.73967">
        <ele>863.202527</ele>
        <time>2020-03-09T07:00:43.359Z</time>
      </trkpt>
      <trkpt lat="44.82029" lon="3.74031">
        <ele>867.114231</ele>
        <time>2020-03-09T07:01:09.991Z</time>
      </trkpt>
      <trkpt lat="44.82022" lon="3.74073">
        <ele>869.611075</ele>
        <time>2020-03-09T07:01:27.451Z</time>
      </trkpt>
      <trkpt lat="44.82008" lon="3.74093">
        <ele>871.13398</ele>
        <time>2020-03-09T07:01:38.010Z</time>
      </trkpt>
      <trkpt lat="44.81986" lon="3.74113">
        <ele>873.273576</ele>
        <time>2020-03-09T07:01:52.685Z</time>
      </trkpt>
      <trkpt lat="44.81959" lon="3.74195">
        <ele>878.371997</ele>
        <time>2020-03-09T07:02:26.269Z</time>
      </trkpt>
      <trkpt lat="44.81904" lon="3.74294">
        <ele>883.405277</ele>
        <time>2020-03-09T07:03:06.767Z</time>
      </trkpt>
      <trkpt lat="44.81896" lon="3.7433">
        <ele>884.571978</ele>
        <time>2020-03-09T07:03:17.009Z</time>
      </trkpt>
      <trkpt lat="44.81902" lon="3.74357">
        <ele>885.476142</ele>
        <time>2020-03-09T07:03:23.785Z</time>
      </trkpt>
      <trkpt lat="44.81913" lon="3.7437">
        <ele>886.104741</ele>
        <time>2020-03-09T07:03:28.982Z</time>
      </trkpt>
      <trkpt lat="44.81933" lon="3.74373">
        <ele>887.023342</ele>
        <time>2020-03-09T07:03:35.256Z</time>
      </trkpt>
      <trkpt lat="44.81952" lon="3.74377">
        <ele>887.852577</ele>
        <time>2020-03-09T07:03:41.746Z</time>
      </trkpt>
      <trkpt lat="44.81962" lon="3.74401">
        <ele>888.738707</ele>
        <time>2020-03-09T07:03:47.969Z</time>
      </trkpt>
      <trkpt lat="44.8196" lon="3.74481">
        <ele>890.259678</ele>
        <time>2020-03-09T07:04:04.759Z</time>
      </trkpt>
      <trkpt lat="44.81946" lon="3.74521">
        <ele>891.113536</ele>
        <time>2020-03-09T07:04:14.008Z</time>
      </trkpt>
      <trkpt lat="44.81935" lon="3.74551">
        <ele>891.76</ele>
        <time>2020-03-09T07:04:20.566Z</time>
      </trkpt>
      <trkpt lat="44.81918" lon="3.7454">
        <ele>892.254143</ele>
        <time>2020-03-09T07:04:26.461Z</time>
      </trkpt>
      <trkpt lat="44.81905" lon="3.74533">
        <ele>892.625126</ele>
        <time>2020-03-09T07:04:30.508Z</time>
      </trkpt>
      <trkpt lat="44.81893" lon="3.74531">
        <ele>892.953258</ele>
        <time>2020-03-09T07:04:34.553Z</time>
      </trkpt>
      <trkpt lat="44.81834" lon="3.74545">
        <ele>895.071342</ele>
        <time>2020-03-09T07:04:54.966Z</time>
      </trkpt>
      <trkpt lat="44.81813" lon="3.7455">
        <ele>895.910196</ele>
        <time>2020-03-09T07:05:02.845Z</time>
      </trkpt>
      <trkpt lat="44.8178" lon="3.74543">
        <ele>897.269455</ele>
        <time>2020-03-09T07:05:15.532Z</time>
      </trkpt>
      <trkpt lat="44.81743" lon="3.74521">
        <ele>898.90609</ele>
        <time>2020-03-09T07:05:30.617Z</time>
      </trkpt>
      <trkpt lat="44.81693" lon="3.74492">
        <ele>900.935068</ele>
        <time>2020-03-09T07:05:50.663Z</time>
      </trkpt>
      <trkpt lat="44.81646" lon="3.74488">
        <ele>901.921203</ele>
        <time>2020-03-09T07:06:08.709Z</time>
      </trkpt>
      <trkpt lat="44.81608" lon="3.74471">
        <ele>902.745479</ele>
        <time>2020-03-09T07:06:21.407Z</time>
      </trkpt>
      <trkpt lat="44.81583" lon="3.74474">
        <ele>903.259923</ele>
        <time>2020-03-09T07:06:28.007Z</time>
      </trkpt>
      <trkpt lat="44.8155" lon="3.74468">
        <ele>903.952282</ele>
        <time>2020-03-09T07:06:36.091Z</time>
      </trkpt>
      <trkpt lat="44.81495" lon="3.74469">
        <ele>903.709253</ele>
        <time>2020-03-09T07:06:46.142Z</time>
      </trkpt>
      <trkpt lat="44.81455" lon="3.74463">
        <ele>902.485921</ele>
        <time>2020-03-09T07:06:52.277Z</time>
      </trkpt>
      <trkpt lat="44.81421" lon="3.74471">
        <ele>901.455668</ele>
        <time>2020-03-09T07:06:57.194Z</time>
      </trkpt>
      <trkpt lat="44.81382" lon="3.74473">
        <ele>900.269573</ele>
        <time>2020-03-09T07:07:02.656Z</time>
      </trkpt>
      <trkpt lat="44.81356" lon="3.74482">
        <ele>899.444646</ele>
        <time>2020-03-09T07:07:06.366Z</time>
      </trkpt>
      <trkpt lat="44.81317" lon="3.74527">
        <ele>897.889799</ele>
        <time>2020-03-09T07:07:13.178Z</time>
      </trkpt>
      <trkpt lat="44.81298" lon="3.7454">
        <ele>897.231305</ele>
        <time>2020-03-09T07:07:16.140Z</time>
      </trkpt>
      <trkpt lat="44.81215" lon="3.74586">
        <ele>894.450743</ele>
        <time>2020-03-09T07:07:29.171Z</time>
      </trkpt>
      <trkpt lat="44.81193" lon="3.74598">
        <ele>893.716051</ele>
        <time>2020-03-09T07:07:33.082Z</time>
      </trkpt>
      <trkpt lat="44.81176" lon="3.7461">
        <ele>893.451575</ele>
        <time>2020-03-09T07:07:36.348Z</time>
      </trkpt>
      <trkpt lat="44.81123" lon="3.74674">
        <ele>893.295091</ele>
        <time>2020-03-09T07:07:49.224Z</time>
      </trkpt>
      <trkpt lat="44.81056" lon="3.7471">
        <ele>893.132606</ele>
        <time>2020-03-09T07:08:04.543Z</time>
      </trkpt>
      <trkpt lat="44.8104" lon="3.74711">
        <ele>893.095758</ele>
        <time>2020-03-09T07:08:08.268Z</time>
      </trkpt>
      <trkpt lat="44.80987" lon="3.74696">
        <ele>893.284789</ele>
        <time>2020-03-09T07:08:20.377Z</time>
      </trkpt>
      <trkpt lat="44.80975" lon="3.74699">
        <ele>893.343671</ele>
        <time>2020-03-09T07:08:23.051Z</time>
      </trkpt>
      <trkpt lat="44.80903" lon="3.74772">
        <ele>893.779952</ele>
        <time>2020-03-09T07:08:42.741Z</time>
      </trkpt>
      <trkpt lat="44.80884" lon="3.74783">
        <ele>893.880273</ele>
        <time>2020-03-09T07:08:47.156Z</time>
      </trkpt>
      <trkpt lat="44.80874" lon="3.74784">
        <ele>893.931036</ele>
        <time>2020-03-09T07:08:49.506Z</time>
      </trkpt>
      <trkpt lat="44.80861" lon="3.74784">
        <ele>894.044816</ele>
        <time>2020-03-09T07:08:52.364Z</time>
      </trkpt>
      <trkpt lat="44.80799" lon="3.74816">
        <ele>894.756593</ele>
        <time>2020-03-09T07:09:07.092Z</time>
      </trkpt>
      <trkpt lat="44.80779" lon="3.74816">
        <ele>894.978639</ele>
        <time>2020-03-09T07:09:11.742Z</time>
      </trkpt>
      <trkpt lat="44.80731" lon="3.74801">
        <ele>895.513579</ele>
        <time>2020-03-09T07:09:23.742Z</time>
      </trkpt>
      <trkpt lat="44.80708" lon="3.7481">
        <ele>895.777272</ele>
        <time>2020-03-09T07:09:30.139Z</time>
      </trkpt>
      <trkpt lat="44.80646" lon="3.7485">
        <ele>898.054752</ele>
        <time>2020-03-09T07:09:50.648Z</time>
      </trkpt>
      <trkpt lat="44.80606" lon="3.74895">
        <ele>900.042602</ele>
        <time>2020-03-09T07:10:08.733Z</time>
      </trkpt>
      <trkpt lat="44.80589" lon="3.74902">
        <ele>900.699841</ele>
        <time>2020-03-09T07:10:15.164Z</time>
      </trkpt>
      <trkpt lat="44.80575" lon="3.74902">
        <ele>901.27595</ele>
        <time>2020-03-09T07:10:21.037Z</time>
      </trkpt>
      <trkpt lat="44.80522" lon="3.74879">
        <ele>903.640053</ele>
        <time>2020-03-09T07:10:44.135Z</time>
      </trkpt>
      <trkpt lat="44.80511" lon="3.7488">
        <ele>904.259727</ele>
        <time>2020-03-09T07:10:48.968Z</time>
      </trkpt>
      <trkpt lat="44.80421" lon="3.74926">
        <ele>909.70641</ele>
        <time>2020-03-09T07:11:33.060Z</time>
      </trkpt>
      <trkpt lat="44.80366" lon="3.74997">
        <ele>913.350924</ele>
        <time>2020-03-09T07:12:03.919Z</time>
      </trkpt>
      <trkpt lat="44.80326" lon="3.75031">
        <ele>914.284175</ele>
        <time>2020-03-09T07:12:20.825Z</time>
      </trkpt>
      <trkpt lat="44.80248" lon="3.75138">
        <ele>916.424409</ele>
        <time>2020-03-09T07:12:47.201Z</time>
      </trkpt>
      <trkpt lat="44.80157" lon="3.75199">
        <ele>915.723807</ele>
        <time>2020-03-09T07:13:04.210Z</time>
      </trkpt>
      <trkpt lat="44.80142" lon="3.75204">
        <ele>915.576733</ele>
        <time>2020-03-09T07:13:06.526Z</time>
      </trkpt>
      <trkpt lat="44.80134" lon="3.75207">
        <ele>915.490219</ele>
        <time>2020-03-09T07:13:08.369Z</time>
      </trkpt>
      <trkpt lat="44.80116" lon="3.752">
        <ele>915.318058</ele>
        <time>2020-03-09T07:13:11.470Z</time>
      </trkpt>
      <trkpt lat="44.8007" lon="3.75153">
        <ele>914.989572</ele>
        <time>2020-03-09T07:13:21.012Z</time>
      </trkpt>
      <trkpt lat="44.80057" lon="3.75127">
        <ele>915.189256</ele>
        <time>2020-03-09T07:13:25.085Z</time>
      </trkpt>
      <trkpt lat="44.8005" lon="3.75116">
        <ele>915.285008</ele>
        <time>2020-03-09T07:13:27.334Z</time>
      </trkpt>
      <trkpt lat="44.80038" lon="3.75106">
        <ele>915.410399</ele>
        <time>2020-03-09T07:13:30.369Z</time>
      </trkpt>
      <trkpt lat="44.8003" lon="3.75102">
        <ele>915.482936</ele>
        <time>2020-03-09T07:13:31.974Z</time>
      </trkpt>
      <trkpt lat="44.79995" lon="3.75086">
        <ele>915.816302</ele>
        <time>2020-03-09T07:13:41.519Z</time>
      </trkpt>
      <trkpt lat="44.79972" lon="3.75066">
        <ele>916.056286</ele>
        <time>2020-03-09T07:13:48.485Z</time>
      </trkpt>
      <trkpt lat="44.79959" lon="3.7507">
        <ele>916.175349</ele>
        <time>2020-03-09T07:13:52.535Z</time>
      </trkpt>
      <trkpt lat="44.79952" lon="3.75093">
        <ele>916.335671</ele>
        <time>2020-03-09T07:13:57.122Z</time>
      </trkpt>
      <trkpt lat="44.79952" lon="3.7511">
        <ele>916.441333</ele>
        <time>2020-03-09T07:14:01.166Z</time>
      </trkpt>
      <trkpt lat="44.79931" lon="3.75149">
        <ele>917.228443</ele>
        <time>2020-03-09T07:14:11.246Z</time>
      </trkpt>
      <trkpt lat="44.79888" lon="3.75172">
        <ele>918.391979</ele>
        <time>2020-03-09T07:14:25.105Z</time>
      </trkpt>
      <trkpt lat="44.7989" lon="3.75207">
        <ele>919.009413</ele>
        <time>2020-03-09T07:14:32.662Z</time>
      </trkpt>
      <trkpt lat="44.79903" lon="3.75243">
        <ele>919.739332</ele>
        <time>2020-03-09T07:14:41.477Z</time>
      </trkpt>
      <trkpt lat="44.79909" lon="3.75286">
        <ele>920.525775</ele>
        <time>2020-03-09T07:14:51.675Z</time>
      </trkpt>
      <trkpt lat="44.79907" lon="3.7532">
        <ele>921.148575</ele>
        <time>2020-03-09T07:14:59.219Z</time>
      </trkpt>
      <trkpt lat="44.79898" lon="3.75361">
        <ele>921.950171</ele>
        <time>2020-03-09T07:15:08.350Z</time>
      </trkpt>
      <trkpt lat="44.79875" lon="3.75413">
        <ele>923.104782</ele>
        <time>2020-03-09T07:15:21.186Z</time>
      </trkpt>
      <trkpt lat="44.79862" lon="3.75479">
        <ele>924.402483</ele>
        <time>2020-03-09T07:15:36.387Z</time>
      </trkpt>
      <trkpt lat="44.79832" lon="3.75548">
        <ele>925.951495</ele>
        <time>2020-03-09T07:15:54.379Z</time>
      </trkpt>
      <trkpt lat="44.79819" lon="3.75621">
        <ele>927.724051</ele>
        <time>2020-03-09T07:16:11.277Z</time>
      </trkpt>
      <trkpt lat="44.79815" lon="3.75643">
        <ele>928.260139</ele>
        <time>2020-03-09T07:16:16.687Z</time>
      </trkpt>
      <trkpt lat="44.79813" lon="3.75653">
        <ele>928.512972</ele>
        <time>2020-03-09T07:16:19.392Z</time>
      </trkpt>
      <trkpt lat="44.798" lon="3.75707">
        <ele>929.850517</ele>
        <time>2020-03-09T07:16:32.435Z</time>
      </trkpt>
      <trkpt lat="44.79787" lon="3.75745">
        <ele>930.855719</ele>
        <time>2020-03-09T07:16:42.697Z</time>
      </trkpt>
      <trkpt lat="44.79774" lon="3.7578">
        <ele>931.771577</ele>
        <time>2020-03-09T07:16:52.251Z</time>
      </trkpt>
      <trkpt lat="44.7974" lon="3.7585">
        <ele>934.014489</ele>
        <time>2020-03-09T07:17:16.152Z</time>
      </trkpt>
      <trkpt lat="44.79686" lon="3.7593">
        <ele>936.887023</ele>
        <time>2020-03-09T07:17:43.658Z</time>
      </trkpt>
      <trkpt lat="44.7967" lon="3.75947">
        <ele>937.623853</ele>
        <time>2020-03-09T07:17:51.016Z</time>
      </trkpt>
      <trkpt lat="44.79651" lon="3.75982">
        <ele>938.513384</ele>
        <time>2020-03-09T07:18:00.956Z</time>
      </trkpt>
      <trkpt lat="44.79617" lon="3.7612">
        <ele>939.426007</ele>
        <time>2020-03-09T07:18:29.570Z</time>
      </trkpt>
      <trkpt lat="44.79602" lon="3.76147">
        <ele>939.639963</ele>
        <time>2020-03-09T07:18:34.388Z</time>
      </trkpt>
      <trkpt lat="44.79569" lon="3.76168">
        <ele>939.962077</ele>
        <time>2020-03-09T07:18:40.415Z</time>
      </trkpt>
      <trkpt lat="44.79559" lon="3.76183">
        <ele>939.792373</ele>
        <time>2020-03-09T07:18:42.659Z</time>
      </trkpt>
      <trkpt lat="44.79553" lon="3.7625">
        <ele>938.491925</ele>
        <time>2020-03-09T07:18:50.107Z</time>
      </trkpt>
      <trkpt lat="44.79547" lon="3.76301">
        <ele>937.478284</ele>
        <time>2020-03-09T07:18:55.700Z</time>
      </trkpt>
      <trkpt lat="44.79536" lon="3.76319">
        <ele>937.030648</ele>
        <time>2020-03-09T07:18:58.051Z</time>
      </trkpt>
      <trkpt lat="44.7951" lon="3.76341">
        <ele>936.198471</ele>
        <time>2020-03-09T07:19:02.505Z</time>
      </trkpt>
      <trkpt lat="44.79482" lon="3.76346">
        <ele>935.438073</ele>
        <time>2020-03-09T07:19:06.530Z</time>
      </trkpt>
      <trkpt lat="44.79422" lon="3.7634">
        <ele>933.641375</ele>
        <time>2020-03-09T07:19:15.099Z</time>
      </trkpt>
      <trkpt lat="44.79403" lon="3.76346">
        <ele>933.037685</ele>
        <time>2020-03-09T07:19:17.914Z</time>
      </trkpt>
      <trkpt lat="44.79334" lon="3.76385">
        <ele>930.785789</ele>
        <time>2020-03-09T07:19:28.832Z</time>
      </trkpt>
      <trkpt lat="44.79304" lon="3.76395">
        <ele>929.843555</ele>
        <time>2020-03-09T07:19:33.519Z</time>
      </trkpt>
      <trkpt lat="44.79276" lon="3.76421">
        <ele>929.38955</ele>
        <time>2020-03-09T07:19:38.636Z</time>
      </trkpt>
      <trkpt lat="44.79255" lon="3.7643">
        <ele>929.18716</ele>
        <time>2020-03-09T07:19:42.102Z</time>
      </trkpt>
      <trkpt lat="44.7921" lon="3.76413">
        <ele>928.764929</ele>
        <time>2020-03-09T07:19:49.712Z</time>
      </trkpt>
      <trkpt lat="44.79107" lon="3.76325">
        <ele>928.844234</ele>
        <time>2020-03-09T07:20:15.298Z</time>
      </trkpt>
      <trkpt lat="44.7907" lon="3.76327">
        <ele>929.706135</ele>
        <time>2020-03-09T07:20:25.424Z</time>
      </trkpt>
      <trkpt lat="44.79029" lon="3.76348">
        <ele>930.733219</ele>
        <time>2020-03-09T07:20:38.685Z</time>
      </trkpt>
      <trkpt lat="44.79004" lon="3.76353">
        <ele>931.34614</ele>
        <time>2020-03-09T07:20:47.194Z</time>
      </trkpt>
      <trkpt lat="44.78941" lon="3.76331">
        <ele>933.417911</ele>
        <time>2020-03-09T07:21:10.367Z</time>
      </trkpt>
      <trkpt lat="44.7892" lon="3.76333">
        <ele>934.38615</ele>
        <time>2020-03-09T07:21:18.633Z</time>
      </trkpt>
      <trkpt lat="44.78905" lon="3.76365">
        <ele>935.622437</ele>
        <time>2020-03-09T07:21:29.443Z</time>
      </trkpt>
      <trkpt lat="44.78911" lon="3.76453">
        <ele>938.456554</ele>
        <time>2020-03-09T07:21:54.297Z</time>
      </trkpt>
      <trkpt lat="44.7892" lon="3.76488">
        <ele>939.621831</ele>
        <time>2020-03-09T07:22:04.389Z</time>
      </trkpt>
      <trkpt lat="44.78961" lon="3.76561">
        <ele>942.268618</ele>
        <time>2020-03-09T07:22:29.677Z</time>
      </trkpt>
      <trkpt lat="44.78969" lon="3.76591">
        <ele>943.153461</ele>
        <time>2020-03-09T07:22:38.272Z</time>
      </trkpt>
      <trkpt lat="44.78969" lon="3.76622">
        <ele>944.004124</ele>
        <time>2020-03-09T07:22:46.415Z</time>
      </trkpt>
      <trkpt lat="44.78939" lon="3.76721">
        <ele>946.952599</ele>
        <time>2020-03-09T07:23:12.929Z</time>
      </trkpt>
      <trkpt lat="44.78941" lon="3.76741">
        <ele>947.369357</ele>
        <time>2020-03-09T07:23:17.442Z</time>
      </trkpt>
      <trkpt lat="44.78961" lon="3.76782">
        <ele>947.873678</ele>
        <time>2020-03-09T07:23:28.138Z</time>
      </trkpt>
      <trkpt lat="44.78968" lon="3.76809">
        <ele>948.162308</ele>
        <time>2020-03-09T07:23:34.022Z</time>
      </trkpt>
      <trkpt lat="44.7897" lon="3.76861">
        <ele>948.679745</ele>
        <time>2020-03-09T07:23:43.827Z</time>
      </trkpt>
      <trkpt lat="44.78982" lon="3.76906">
        <ele>949.168958</ele>
        <time>2020-03-09T07:23:51.870Z</time>
      </trkpt>
      <trkpt lat="44.78981" lon="3.76922">
        <ele>949.333586</ele>
        <time>2020-03-09T07:23:54.351Z</time>
      </trkpt>
      <trkpt lat="44.78957" lon="3.76991">
        <ele>949.749985</ele>
        <time>2020-03-09T07:24:05.326Z</time>
      </trkpt>
      <trkpt lat="44.78938" lon="3.77028">
        <ele>949.570802</ele>
        <time>2020-03-09T07:24:11.822Z</time>
      </trkpt>
      <trkpt lat="44.78931" lon="3.77053">
        <ele>949.470433</ele>
        <time>2020-03-09T07:24:15.501Z</time>
      </trkpt>
      <trkpt lat="44.78922" lon="3.77071">
        <ele>949.3864</ele>
        <time>2020-03-09T07:24:18.491Z</time>
      </trkpt>
      <trkpt lat="44.78885" lon="3.7711">
        <ele>949.133939</ele>
        <time>2020-03-09T07:24:26.676Z</time>
      </trkpt>
      <trkpt lat="44.7884" lon="3.77115">
        <ele>948.887764</ele>
        <time>2020-03-09T07:24:34.244Z</time>
      </trkpt>
      <trkpt lat="44.78813" lon="3.77126">
        <ele>948.896968</ele>
        <time>2020-03-09T07:24:38.860Z</time>
      </trkpt>
      <trkpt lat="44.7879" lon="3.77128">
        <ele>948.922365</ele>
        <time>2020-03-09T07:24:43.284Z</time>
      </trkpt>
      <trkpt lat="44.78751" lon="3.77197">
        <ele>948.98886</ele>
        <time>2020-03-09T07:24:56.066Z</time>
      </trkpt>
      <trkpt lat="44.78746" lon="3.77226">
        <ele>949.011237</ele>
        <time>2020-03-09T07:25:00.687Z</time>
      </trkpt>
      <trkpt lat="44.78714" lon="3.77242">
        <ele>949.047286</ele>
        <time>2020-03-09T07:25:09.033Z</time>
      </trkpt>
      <trkpt lat="44.78639" lon="3.77243">
        <ele>950.093023</ele>
        <time>2020-03-09T07:25:27.924Z</time>
      </trkpt>
      <trkpt lat="44.78578" lon="3.77264">
        <ele>951.140664</ele>
        <time>2020-03-09T07:25:45.411Z</time>
      </trkpt>
      <trkpt lat="44.78538" lon="3.77275">
        <ele>951.827272</ele>
        <time>2020-03-09T07:25:56.974Z</time>
      </trkpt>
      <trkpt lat="44.78511" lon="3.77294">
        <ele>952.413972</ele>
        <time>2020-03-09T07:26:05.468Z</time>
      </trkpt>
      <trkpt lat="44.78476" lon="3.7733">
        <ele>953.35245</ele>
        <time>2020-03-09T07:26:17.523Z</time>
      </trkpt>
      <trkpt lat="44.7845" lon="3.77379">
        <ele>954.306009</ele>
        <time>2020-03-09T07:26:29.366Z</time>
      </trkpt>
      <trkpt lat="44.78401" lon="3.77548">
        <ele>958.124032</ele>
        <time>2020-03-09T07:27:08.580Z</time>
      </trkpt>
      <trkpt lat="44.78377" lon="3.7767">
        <ele>961.811125</ele>
        <time>2020-03-09T07:27:43.202Z</time>
      </trkpt>
      <trkpt lat="44.78371" lon="3.777">
        <ele>962.725242</ele>
        <time>2020-03-09T07:27:52.678Z</time>
      </trkpt>
      <trkpt lat="44.78379" lon="3.77747">
        <ele>964.158767</ele>
        <time>2020-03-09T07:28:06.991Z</time>
      </trkpt>
      <trkpt lat="44.78388" lon="3.77777">
        <ele>965.121352</ele>
        <time>2020-03-09T07:28:16.271Z</time>
      </trkpt>
      <trkpt lat="44.78396" lon="3.77857">
        <ele>967.510941</ele>
        <time>2020-03-09T07:28:39.540Z</time>
      </trkpt>
      <trkpt lat="44.78386" lon="3.77932">
        <ele>969.789824</ele>
        <time>2020-03-09T07:28:59.885Z</time>
      </trkpt>
      <trkpt lat="44.78362" lon="3.78016">
        <ele>971.026435</ele>
        <time>2020-03-09T07:29:17.773Z</time>
      </trkpt>
      <trkpt lat="44.78343" lon="3.78076">
        <ele>971.141503</ele>
        <time>2020-03-09T07:29:28.401Z</time>
      </trkpt>
      <trkpt lat="44.78313" lon="3.78138">
        <ele>971.272822</ele>
        <time>2020-03-09T07:29:38.074Z</time>
      </trkpt>
      <trkpt lat="44.7827" lon="3.782">
        <ele>971.342403</ele>
        <time>2020-03-09T07:29:48.463Z</time>
      </trkpt>
      <trkpt lat="44.78231" lon="3.78239">
        <ele>971.249743</ele>
        <time>2020-03-09T07:29:56.749Z</time>
      </trkpt>
      <trkpt lat="44.78214" lon="3.78264">
        <ele>971.200707</ele>
        <time>2020-03-09T07:30:01.448Z</time>
      </trkpt>
      <trkpt lat="44.78196" lon="3.78291">
        <ele>971.149281</ele>
        <time>2020-03-09T07:30:06.314Z</time>
      </trkpt>
      <trkpt lat="44.78161" lon="3.7826">
        <ele>971.069504</ele>
        <time>2020-03-09T07:30:13.086Z</time>
      </trkpt>
      <trkpt lat="44.78132" lon="3.78227">
        <ele>971.285544</ele>
        <time>2020-03-09T07:30:20.025Z</time>
      </trkpt>
      <trkpt lat="44.78093" lon="3.78205">
        <ele>971.981437</ele>
        <time>2020-03-09T07:30:28.905Z</time>
      </trkpt>
      <trkpt lat="44.78046" lon="3.78156">
        <ele>972.919944</ele>
        <time>2020-03-09T07:30:42.542Z</time>
      </trkpt>
      <trkpt lat="44.77993" lon="3.78164">
        <ele>973.802722</ele>
        <time>2020-03-09T07:30:54.199Z</time>
      </trkpt>
      <trkpt lat="44.77949" lon="3.78151">
        <ele>974.858837</ele>
        <time>2020-03-09T07:31:03.305Z</time>
      </trkpt>
      <trkpt lat="44.77921" lon="3.78156">
        <ele>975.56065</ele>
        <time>2020-03-09T07:31:10.297Z</time>
      </trkpt>
      <trkpt lat="44.77893" lon="3.78164">
        <ele>976.296104</ele>
        <time>2020-03-09T07:31:17.542Z</time>
      </trkpt>
      <trkpt lat="44.77876" lon="3.78163">
        <ele>976.728073</ele>
        <time>2020-03-09T07:31:21.520Z</time>
      </trkpt>
      <trkpt lat="44.77856" lon="3.78156">
        <ele>977.229831</ele>
        <time>2020-03-09T07:31:26.843Z</time>
      </trkpt>
      <trkpt lat="44.77842" lon="3.78141">
        <ele>977.672657</ele>
        <time>2020-03-09T07:31:31.006Z</time>
      </trkpt>
      <trkpt lat="44.77817" lon="3.78106">
        <ele>978.600931</ele>
        <time>2020-03-09T07:31:41.457Z</time>
      </trkpt>
      <trkpt lat="44.77789" lon="3.78079">
        <ele>979.986292</ele>
        <time>2020-03-09T07:31:51.232Z</time>
      </trkpt>
      <trkpt lat="44.77748" lon="3.78038">
        <ele>982.000336</ele>
        <time>2020-03-09T07:32:06.060Z</time>
      </trkpt>
      <trkpt lat="44.77733" lon="3.78029">
        <ele>982.657813</ele>
        <time>2020-03-09T07:32:11.231Z</time>
      </trkpt>
      <trkpt lat="44.77719" lon="3.7803">
        <ele>983.229528</ele>
        <time>2020-03-09T07:32:15.140Z</time>
      </trkpt>
      <trkpt lat="44.77711" lon="3.7804">
        <ele>983.678715</ele>
        <time>2020-03-09T07:32:20.178Z</time>
      </trkpt>
      <trkpt lat="44.7769" lon="3.78072">
        <ele>984.900807</ele>
        <time>2020-03-09T07:32:29.641Z</time>
      </trkpt>
      <trkpt lat="44.77644" lon="3.78122">
        <ele>987.623229</ele>
        <time>2020-03-09T07:32:48.371Z</time>
      </trkpt>
      <trkpt lat="44.77625" lon="3.7813">
        <ele>988.610925</ele>
        <time>2020-03-09T07:32:55.915Z</time>
      </trkpt>
      <trkpt lat="44.77589" lon="3.78119">
        <ele>990.446305</ele>
        <time>2020-03-09T07:33:08.330Z</time>
      </trkpt>
      <trkpt lat="44.77559" lon="3.7808">
        <ele>992.502105</ele>
        <time>2020-03-09T07:33:21.449Z</time>
      </trkpt>
      <trkpt lat="44.77521" lon="3.78021">
        <ele>995.515254</ele>
        <time>2020-03-09T07:33:42.452Z</time>
      </trkpt>
      <trkpt lat="44.775" lon="3.77983">
        <ele>997.953663</ele>
        <time>2020-03-09T07:33:56.337Z</time>
      </trkpt>
      <trkpt lat="44.7748" lon="3.77929">
        <ele>1001.067118</ele>
        <time>2020-03-09T07:34:14.983Z</time>
      </trkpt>
      <trkpt lat="44.7746" lon="3.77901">
        <ele>1003.103082</ele>
        <time>2020-03-09T07:34:28.621Z</time>
      </trkpt>
      <trkpt lat="44.77366" lon="3.77833">
        <ele>1010.473483</ele>
        <time>2020-03-09T07:35:17.082Z</time>
      </trkpt>
      <trkpt lat="44.77342" lon="3.77823">
        <ele>1012.157699</ele>
        <time>2020-03-09T07:35:28.100Z</time>
      </trkpt>
      <trkpt lat="44.77325" lon="3.77824">
        <ele>1013.325578</ele>
        <time>2020-03-09T07:35:35.520Z</time>
      </trkpt>
      <trkpt lat="44.77246" lon="3.77872">
        <ele>1019.177164</ele>
        <time>2020-03-09T07:36:10.942Z</time>
      </trkpt>
      <trkpt lat="44.77128" lon="3.77904">
        <ele>1025.14215</ele>
        <time>2020-03-09T07:36:53.318Z</time>
      </trkpt>
      <trkpt lat="44.77045" lon="3.77939">
        <ele>1028.977272</ele>
        <time>2020-03-09T07:37:20.407Z</time>
      </trkpt>
      <trkpt lat="44.77018" lon="3.77957">
        <ele>1029.809185</ele>
        <time>2020-03-09T07:37:29.179Z</time>
      </trkpt>
      <trkpt lat="44.7692" lon="3.78082">
        <ele>1033.465186</ele>
        <time>2020-03-09T07:38:02.206Z</time>
      </trkpt>
      <trkpt lat="44.76885" lon="3.78107">
        <ele>1033.725863</ele>
        <time>2020-03-09T07:38:10.301Z</time>
      </trkpt>
      <trkpt lat="44.76813" lon="3.78127">
        <ele>1034.139365</ele>
        <time>2020-03-09T07:38:23.853Z</time>
      </trkpt>
      <trkpt lat="44.76787" lon="3.78142">
        <ele>1034.2968</ele>
        <time>2020-03-09T07:38:28.524Z</time>
      </trkpt>
      <trkpt lat="44.76772" lon="3.78161">
        <ele>1034.413458</ele>
        <time>2020-03-09T07:38:31.502Z</time>
      </trkpt>
      <trkpt lat="44.76759" lon="3.78186">
        <ele>1034.475922</ele>
        <time>2020-03-09T07:38:34.101Z</time>
      </trkpt>
      <trkpt lat="44.76743" lon="3.78241">
        <ele>1033.254335</ele>
        <time>2020-03-09T07:38:38.998Z</time>
      </trkpt>
      <trkpt lat="44.76714" lon="3.78312">
        <ele>1031.561764</ele>
        <time>2020-03-09T07:38:45.105Z</time>
      </trkpt>
      <trkpt lat="44.76705" lon="3.78333">
        <ele>1031.056873</ele>
        <time>2020-03-09T07:38:46.952Z</time>
      </trkpt>
      <trkpt lat="44.76696" lon="3.78351">
        <ele>1030.600802</ele>
        <time>2020-03-09T07:38:48.463Z</time>
      </trkpt>
      <trkpt lat="44.7667" lon="3.7839">
        <ele>1029.499757</ele>
        <time>2020-03-09T07:38:52.187Z</time>
      </trkpt>
      <trkpt lat="44.76556" lon="3.78497">
        <ele>1021.403594</ele>
        <time>2020-03-09T07:39:04.814Z</time>
      </trkpt>
      <trkpt lat="44.76478" lon="3.78607">
        <ele>1014.183712</ele>
        <time>2020-03-09T07:39:14.719Z</time>
      </trkpt>
      <trkpt lat="44.76383" lon="3.78716">
        <ele>1005.754804</ele>
        <time>2020-03-09T07:39:25.710Z</time>
      </trkpt>
      <trkpt lat="44.76359" lon="3.78757">
        <ele>1003.652423</ele>
        <time>2020-03-09T07:39:29.178Z</time>
      </trkpt>
      <trkpt lat="44.76329" lon="3.7882">
        <ele>1000.670074</ele>
        <time>2020-03-09T07:39:34.169Z</time>
      </trkpt>
      <trkpt lat="44.76277" lon="3.78976">
        <ele>993.783214</ele>
        <time>2020-03-09T07:39:45.767Z</time>
      </trkpt>
      <trkpt lat="44.76257" lon="3.79003">
        <ele>992.181094</ele>
        <time>2020-03-09T07:39:48.382Z</time>
      </trkpt>
      <trkpt lat="44.76149" lon="3.79093">
        <ele>984.90578</ele>
        <time>2020-03-09T07:39:59.888Z</time>
      </trkpt>
      <trkpt lat="44.76125" lon="3.79124">
        <ele>982.940771</ele>
        <time>2020-03-09T07:40:02.809Z</time>
      </trkpt>
      <trkpt lat="44.76088" lon="3.7922">
        <ele>978.258751</ele>
        <time>2020-03-09T07:40:09.925Z</time>
      </trkpt>
      <trkpt lat="44.76075" lon="3.7923">
        <ele>977.387739</ele>
        <time>2020-03-09T07:40:11.202Z</time>
      </trkpt>
      <trkpt lat="44.76042" lon="3.79366">
        <ele>972.18525</ele>
        <time>2020-03-09T07:40:20.860Z</time>
      </trkpt>
      <trkpt lat="44.76017" lon="3.79412">
        <ele>970.38835</ele>
        <time>2020-03-09T07:40:24.731Z</time>
      </trkpt>
      <trkpt lat="44.75929" lon="3.7949">
        <ele>966.581676</ele>
        <time>2020-03-09T07:40:35.211Z</time>
      </trkpt>
      <trkpt lat="44.75888" lon="3.79575">
        <ele>965.624791</ele>
        <time>2020-03-09T07:40:43.073Z</time>
      </trkpt>
      <trkpt lat="44.75882" lon="3.79596">
        <ele>965.40521</ele>
        <time>2020-03-09T07:40:45.070Z</time>
      </trkpt>
      <trkpt lat="44.7587" lon="3.79656">
        <ele>964.819962</ele>
        <time>2020-03-09T07:40:50.916Z</time>
      </trkpt>
      <trkpt lat="44.75868" lon="3.79697">
        <ele>964.668615</ele>
        <time>2020-03-09T07:40:55.490Z</time>
      </trkpt>
      <trkpt lat="44.75882" lon="3.79824">
        <ele>966.864818</ele>
        <time>2020-03-09T07:41:17.917Z</time>
      </trkpt>
      <trkpt lat="44.75876" lon="3.79885">
        <ele>967.933831</ele>
        <time>2020-03-09T07:41:30.808Z</time>
      </trkpt>
      <trkpt lat="44.75862" lon="3.79924">
        <ele>968.682487</ele>
        <time>2020-03-09T07:41:39.321Z</time>
      </trkpt>
      <trkpt lat="44.75812" lon="3.8001">
        <ele>970.677842</ele>
        <time>2020-03-09T07:41:59.434Z</time>
      </trkpt>
      <trkpt lat="44.75807" lon="3.80027">
        <ele>971.005466</ele>
        <time>2020-03-09T07:42:02.658Z</time>
      </trkpt>
      <trkpt lat="44.75798" lon="3.80115">
        <ele>972.611631</ele>
        <time>2020-03-09T07:42:18.420Z</time>
      </trkpt>
      <trkpt lat="44.75785" lon="3.80156">
        <ele>973.431723</ele>
        <time>2020-03-09T07:42:26.184Z</time>
      </trkpt>
      <trkpt lat="44.75772" lon="3.80182">
        <ele>973.741193</ele>
        <time>2020-03-09T07:42:31.428Z</time>
      </trkpt>
      <trkpt lat="44.75735" lon="3.80225">
        <ele>974.384012</ele>
        <time>2020-03-09T07:42:41.999Z</time>
      </trkpt>
      <trkpt lat="44.75716" lon="3.80259">
        <ele>974.800533</ele>
        <time>2020-03-09T07:42:48.553Z</time>
      </trkpt>
      <trkpt lat="44.75657" lon="3.80422">
        <ele>975.552234</ele>
        <time>2020-03-09T07:43:11.374Z</time>
      </trkpt>
      <trkpt lat="44.75655" lon="3.80428">
        <ele>975.525472</ele>
        <time>2020-03-09T07:43:11.941Z</time>
      </trkpt>
      <trkpt lat="44.75628" lon="3.80506">
        <ele>975.138238</ele>
        <time>2020-03-09T07:43:19.847Z</time>
      </trkpt>
      <trkpt lat="44.75624" lon="3.80516">
        <ele>975.088054</ele>
        <time>2020-03-09T07:43:20.819Z</time>
      </trkpt>
      <trkpt lat="44.75614" lon="3.80543">
        <ele>974.952431</ele>
        <time>2020-03-09T07:43:23.343Z</time>
      </trkpt>
      <trkpt lat="44.75582" lon="3.80591">
        <ele>974.506084</ele>
        <time>2020-03-09T07:43:28.589Z</time>
      </trkpt>
      <trkpt lat="44.75518" lon="3.80634">
        <ele>973.234676</ele>
        <time>2020-03-09T07:43:36.410Z</time>
      </trkpt>
      <trkpt lat="44.75486" lon="3.80671">
        <ele>972.500565</ele>
        <time>2020-03-09T07:43:41.078Z</time>
      </trkpt>
      <trkpt lat="44.75291" lon="3.8103">
        <ele>965.90711</ele>
        <time>2020-03-09T07:44:17.068Z</time>
      </trkpt>
      <trkpt lat="44.75127" lon="3.81315">
        <ele>957.136652</ele>
        <time>2020-03-09T07:44:42.814Z</time>
      </trkpt>
      <trkpt lat="44.75113" lon="3.81339">
        <ele>956.506163</ele>
        <time>2020-03-09T07:44:44.974Z</time>
      </trkpt>
      <trkpt lat="44.75071" lon="3.81428">
        <ele>955.089237</ele>
        <time>2020-03-09T07:44:52.937Z</time>
      </trkpt>
      <trkpt lat="44.75049" lon="3.815">
        <ele>954.057863</ele>
        <time>2020-03-09T07:44:59.248Z</time>
      </trkpt>
      <trkpt lat="44.74988" lon="3.81769">
        <ele>953.627219</ele>
        <time>2020-03-09T07:45:31.614Z</time>
      </trkpt>
      <trkpt lat="44.74903" lon="3.81955">
        <ele>953.249693</ele>
        <time>2020-03-09T07:45:54.907Z</time>
      </trkpt>
      <trkpt lat="44.74822" lon="3.82131">
        <ele>951.009899</ele>
        <time>2020-03-09T07:46:12.650Z</time>
      </trkpt>
      <trkpt lat="44.74801" lon="3.82273">
        <ele>949.20126</ele>
        <time>2020-03-09T07:46:23.097Z</time>
      </trkpt>
      <trkpt lat="44.74801" lon="3.82327">
        <ele>948.693957</ele>
        <time>2020-03-09T07:46:27.127Z</time>
      </trkpt>
      <trkpt lat="44.74809" lon="3.82387">
        <ele>948.107883</ele>
        <time>2020-03-09T07:46:31.923Z</time>
      </trkpt>
      <trkpt lat="44.74776" lon="3.82632">
        <ele>948.839322</ele>
        <time>2020-03-09T07:47:03.474Z</time>
      </trkpt>
      <trkpt lat="44.74767" lon="3.82668">
        <ele>949.236461</ele>
        <time>2020-03-09T07:47:09.665Z</time>
      </trkpt>
      <trkpt lat="44.74763" lon="3.82673">
        <ele>949.303699</ele>
        <time>2020-03-09T07:47:12.184Z</time>
      </trkpt>
      <trkpt lat="44.74754" lon="3.82675">
        <ele>949.446716</ele>
        <time>2020-03-09T07:47:14.240Z</time>
      </trkpt>
      <trkpt lat="44.74745" lon="3.82672">
        <ele>949.577829</ele>
        <time>2020-03-09T07:47:16.380Z</time>
      </trkpt>
      <trkpt lat="44.74741" lon="3.82669">
        <ele>949.643651</ele>
        <time>2020-03-09T07:47:17.141Z</time>
      </trkpt>
      <trkpt lat="44.74733" lon="3.82666">
        <ele>949.768617</ele>
        <time>2020-03-09T07:47:19.296Z</time>
      </trkpt>
      <trkpt lat="44.74706" lon="3.82669">
        <ele>950.237847</ele>
        <time>2020-03-09T07:47:26.138Z</time>
      </trkpt>
      <trkpt lat="44.74681" lon="3.82697">
        <ele>950.80228</ele>
        <time>2020-03-09T07:47:35.305Z</time>
      </trkpt>
      <trkpt lat="44.74671" lon="3.82741">
        <ele>951.392895</ele>
        <time>2020-03-09T07:47:43.315Z</time>
      </trkpt>
      <trkpt lat="44.74654" lon="3.82877">
        <ele>953.055941</ele>
        <time>2020-03-09T07:48:02.103Z</time>
      </trkpt>
      <trkpt lat="44.74649" lon="3.82892">
        <ele>953.018311</ele>
        <time>2020-03-09T07:48:05.070Z</time>
      </trkpt>
      <trkpt lat="44.74637" lon="3.82909">
        <ele>952.961216</ele>
        <time>2020-03-09T07:48:07.380Z</time>
      </trkpt>
      <trkpt lat="44.74605" lon="3.82928">
        <ele>952.847604</ele>
        <time>2020-03-09T07:48:12.858Z</time>
      </trkpt>
      <trkpt lat="44.74516" lon="3.8292">
        <ele>952.558247</ele>
        <time>2020-03-09T07:48:24.702Z</time>
      </trkpt>
      <trkpt lat="44.74483" lon="3.82926">
        <ele>952.274404</ele>
        <time>2020-03-09T07:48:28.436Z</time>
      </trkpt>
      <trkpt lat="44.74451" lon="3.82945">
        <ele>951.624969</ele>
        <time>2020-03-09T07:48:32.214Z</time>
      </trkpt>
      <trkpt lat="44.74357" lon="3.83017">
        <ele>949.601449</ele>
        <time>2020-03-09T07:48:43.858Z</time>
      </trkpt>
      <trkpt lat="44.74323" lon="3.83052">
        <ele>948.906764</ele>
        <time>2020-03-09T07:48:48.506Z</time>
      </trkpt>
      <trkpt lat="44.74283" lon="3.83101">
        <ele>948.298902</ele>
        <time>2020-03-09T07:48:54.447Z</time>
      </trkpt>
      <trkpt lat="44.74239" lon="3.83169">
        <ele>947.551951</ele>
        <time>2020-03-09T07:49:02.059Z</time>
      </trkpt>
      <trkpt lat="44.7422" lon="3.83187">
        <ele>947.283042</ele>
        <time>2020-03-09T07:49:04.885Z</time>
      </trkpt>
      <trkpt lat="44.73972" lon="3.83298">
        <ele>950.332529</ele>
        <time>2020-03-09T07:49:50.618Z</time>
      </trkpt>
      <trkpt lat="44.73951" lon="3.83308">
        <ele>951.217871</ele>
        <time>2020-03-09T07:49:57.498Z</time>
      </trkpt>
      <trkpt lat="44.73937" lon="3.83317">
        <ele>951.820232</ele>
        <time>2020-03-09T07:50:02.809Z</time>
      </trkpt>
      <trkpt lat="44.739" lon="3.83357">
        <ele>953.637632</ele>
        <time>2020-03-09T07:50:19.389Z</time>
      </trkpt>
      <trkpt lat="44.73893" lon="3.83366">
        <ele>954.003035</ele>
        <time>2020-03-09T07:50:22.872Z</time>
      </trkpt>
      <trkpt lat="44.73876" lon="3.83392">
        <ele>954.982238</ele>
        <time>2020-03-09T07:50:32.998Z</time>
      </trkpt>
      <trkpt lat="44.73814" lon="3.83491">
        <ele>961.175572</ele>
        <time>2020-03-09T07:51:13.192Z</time>
      </trkpt>
      <trkpt lat="44.73759" lon="3.83576">
        <ele>966.653388</ele>
        <time>2020-03-09T07:51:48.369Z</time>
      </trkpt>
      <trkpt lat="44.73709" lon="3.8364">
        <ele>970.592604</ele>
        <time>2020-03-09T07:52:14.536Z</time>
      </trkpt>
      <trkpt lat="44.73481" lon="3.83883">
        <ele>985.966489</ele>
        <time>2020-03-09T07:53:58.483Z</time>
      </trkpt>
      <trkpt lat="44.73427" lon="3.83924">
        <ele>988.152412</ele>
        <time>2020-03-09T07:54:18.347Z</time>
      </trkpt>
      <trkpt lat="44.7335" lon="3.83959">
        <ele>990.589594</ele>
        <time>2020-03-09T07:54:40.582Z</time>
      </trkpt>
      <trkpt lat="44.73244" lon="3.84004">
        <ele>992.288372</ele>
        <time>2020-03-09T07:55:02.879Z</time>
      </trkpt>
      <trkpt lat="44.73244" lon="3.84008">
        <ele>992.295039</ele>
        <time>2020-03-09T07:55:03.425Z</time>
      </trkpt>
      <trkpt lat="44.73244" lon="3.84029">
        <ele>992.32841</ele>
        <time>2020-03-09T07:55:06.582Z</time>
      </trkpt>
      <trkpt lat="44.73215" lon="3.84062">
        <ele>992.412681</ele>
        <time>2020-03-09T07:55:13.972Z</time>
      </trkpt>
      <trkpt lat="44.73167" lon="3.8414">
        <ele>992.468657</ele>
        <time>2020-03-09T07:55:27.472Z</time>
      </trkpt>
      <trkpt lat="44.73134" lon="3.84212">
        <ele>991.735586</ele>
        <time>2020-03-09T07:55:38.237Z</time>
      </trkpt>
      <trkpt lat="44.73125" lon="3.84231">
        <ele>991.545578</ele>
        <time>2020-03-09T07:55:41.089Z</time>
      </trkpt>
      <trkpt lat="44.73122" lon="3.84237">
        <ele>991.480227</ele>
        <time>2020-03-09T07:55:42.044Z</time>
      </trkpt>
      <trkpt lat="44.73112" lon="3.84259">
        <ele>991.262032</ele>
        <time>2020-03-09T07:55:45.186Z</time>
      </trkpt>
      <trkpt lat="44.73036" lon="3.84467">
        <ele>987.537535</ele>
        <time>2020-03-09T07:56:11.910Z</time>
      </trkpt>
      <trkpt lat="44.73018" lon="3.84531">
        <ele>986.069402</ele>
        <time>2020-03-09T07:56:18.951Z</time>
      </trkpt>
      <trkpt lat="44.73001" lon="3.84622">
        <ele>983.065287</ele>
        <time>2020-03-09T07:56:28.080Z</time>
      </trkpt>
      <trkpt lat="44.73007" lon="3.84698">
        <ele>979.712735</ele>
        <time>2020-03-09T07:56:35.205Z</time>
      </trkpt>
      <trkpt lat="44.7299" lon="3.84801">
        <ele>975.07144</ele>
        <time>2020-03-09T07:56:44.978Z</time>
      </trkpt>
      <trkpt lat="44.72985" lon="3.84815">
        <ele>974.408544</ele>
        <time>2020-03-09T07:56:46.296Z</time>
      </trkpt>
      <trkpt lat="44.72978" lon="3.84842">
        <ele>972.931335</ele>
        <time>2020-03-09T07:56:49.038Z</time>
      </trkpt>
      <trkpt lat="44.72961" lon="3.84946">
        <ele>966.984637</ele>
        <time>2020-03-09T07:56:58.741Z</time>
      </trkpt>
      <trkpt lat="44.7295" lon="3.85001">
        <ele>963.829387</ele>
        <time>2020-03-09T07:57:03.790Z</time>
      </trkpt>
      <trkpt lat="44.72938" lon="3.85077">
        <ele>959.379608</ele>
        <time>2020-03-09T07:57:10.716Z</time>
      </trkpt>
      <trkpt lat="44.7293" lon="3.85111">
        <ele>956.764111</ele>
        <time>2020-03-09T07:57:13.892Z</time>
      </trkpt>
      <trkpt lat="44.72901" lon="3.85197">
        <ele>949.792713</ele>
        <time>2020-03-09T07:57:22.211Z</time>
      </trkpt>
      <trkpt lat="44.7289" lon="3.85245">
        <ele>946.117161</ele>
        <time>2020-03-09T07:57:26.487Z</time>
      </trkpt>
      <trkpt lat="44.72883" lon="3.85279">
        <ele>943.467719</ele>
        <time>2020-03-09T07:57:29.558Z</time>
      </trkpt>
      <trkpt lat="44.7286" lon="3.85329">
        <ele>939.163103</ele>
        <time>2020-03-09T07:57:34.615Z</time>
      </trkpt>
      <trkpt lat="44.72859" lon="3.85329">
        <ele>939.127973</ele>
        <time>2020-03-09T07:57:34.657Z</time>
      </trkpt>
      <trkpt lat="44.72833" lon="3.85359">
        <ele>935.695427</ele>
        <time>2020-03-09T07:57:38.773Z</time>
      </trkpt>
      <trkpt lat="44.72813" lon="3.85378">
        <ele>933.283915</ele>
        <time>2020-03-09T07:57:41.608Z</time>
      </trkpt>
      <trkpt lat="44.72786" lon="3.85405">
        <ele>929.898353</ele>
        <time>2020-03-09T07:57:45.673Z</time>
      </trkpt>
      <trkpt lat="44.72776" lon="3.85418">
        <ele>928.538749</ele>
        <time>2020-03-09T07:57:47.398Z</time>
      </trkpt>
      <trkpt lat="44.72769" lon="3.8543">
        <ele>927.443749</ele>
        <time>2020-03-09T07:57:48.717Z</time>
      </trkpt>
      <trkpt lat="44.72747" lon="3.85424">
        <ele>925.130024</ele>
        <time>2020-03-09T07:57:51.599Z</time>
      </trkpt>
      <trkpt lat="44.72691" lon="3.85429">
        <ele>921.5152</ele>
        <time>2020-03-09T07:57:58.582Z</time>
      </trkpt>
      <trkpt lat="44.72689" lon="3.8543">
        <ele>921.422168</ele>
        <time>2020-03-09T07:57:58.835Z</time>
      </trkpt>
      <trkpt lat="44.7269" lon="3.85432">
        <ele>921.355579</ele>
        <time>2020-03-09T07:57:59.018Z</time>
      </trkpt>
      <trkpt lat="44.7269" lon="3.85446">
        <ele>920.925045</ele>
        <time>2020-03-09T07:58:00.374Z</time>
      </trkpt>
      <trkpt lat="44.72689" lon="3.85452">
        <ele>920.734531</ele>
        <time>2020-03-09T07:58:00.937Z</time>
      </trkpt>
      <trkpt lat="44.72684" lon="3.8545">
        <ele>920.507769</ele>
        <time>2020-03-09T07:58:01.627Z</time>
      </trkpt>
      <trkpt lat="44.72678" lon="3.8545">
        <ele>920.240215</ele>
        <time>2020-03-09T07:58:02.445Z</time>
      </trkpt>
      <trkpt lat="44.72659" lon="3.85458">
        <ele>919.410284</ele>
        <time>2020-03-09T07:58:05.024Z</time>
      </trkpt>
      <trkpt lat="44.72643" lon="3.85466">
        <ele>918.642641</ele>
        <time>2020-03-09T07:58:07.500Z</time>
      </trkpt>
      <trkpt lat="44.7263" lon="3.85475">
        <ele>918.043617</ele>
        <time>2020-03-09T07:58:09.384Z</time>
      </trkpt>
      <trkpt lat="44.72622" lon="3.85485">
        <ele>917.56894</ele>
        <time>2020-03-09T07:58:10.963Z</time>
      </trkpt>
      <trkpt lat="44.72611" lon="3.855">
        <ele>916.92618</ele>
        <time>2020-03-09T07:58:13.892Z</time>
      </trkpt>
      <trkpt lat="44.72607" lon="3.85505">
        <ele>916.687056</ele>
        <time>2020-03-09T07:58:14.619Z</time>
      </trkpt>
      <trkpt lat="44.72604" lon="3.85501">
        <ele>916.523573</ele>
        <time>2020-03-09T07:58:15.127Z</time>
      </trkpt>
      <trkpt lat="44.72601" lon="3.85496">
        <ele>916.29453</ele>
        <time>2020-03-09T07:58:15.868Z</time>
      </trkpt>
      <trkpt lat="44.72574" lon="3.85459">
        <ele>915.755574</ele>
        <time>2020-03-09T07:58:21.206Z</time>
      </trkpt>
      <trkpt lat="44.72571" lon="3.85462">
        <ele>915.86268</ele>
        <time>2020-03-09T07:58:21.495Z</time>
      </trkpt>
      <trkpt lat="44.72564" lon="3.85473">
        <ele>916.248247</ele>
        <time>2020-03-09T07:58:24.509Z</time>
      </trkpt>
      <trkpt lat="44.72542" lon="3.85503">
        <ele>917.335788</ele>
        <time>2020-03-09T07:58:31.309Z</time>
      </trkpt>
      <trkpt lat="44.72539" lon="3.85507">
        <ele>917.480905</ele>
        <time>2020-03-09T07:58:32.940Z</time>
      </trkpt>
      <trkpt lat="44.72508" lon="3.85548">
        <ele>918.979602</ele>
        <time>2020-03-09T07:58:45.658Z</time>
      </trkpt>
      <trkpt lat="44.72506" lon="3.8555">
        <ele>919.069462</ele>
        <time>2020-03-09T07:58:46.718Z</time>
      </trkpt>
      <trkpt lat="44.72492" lon="3.8557">
        <ele>919.791664</ele>
        <time>2020-03-09T07:58:53.043Z</time>
      </trkpt>
      <trkpt lat="44.72481" lon="3.85584">
        <ele>920.308303</ele>
        <time>2020-03-09T07:58:58.979Z</time>
      </trkpt>
      <trkpt lat="44.72449" lon="3.85597">
        <ele>921.493234</ele>
        <time>2020-03-09T07:59:10.805Z</time>
      </trkpt>
      <trkpt lat="44.72438" lon="3.856">
        <ele>922.025626</ele>
        <time>2020-03-09T07:59:15.847Z</time>
      </trkpt>
      <trkpt lat="44.72348" lon="3.85618">
        <ele>927.653</ele>
        <time>2020-03-09T07:59:54.831Z</time>
      </trkpt>
      <trkpt lat="44.72331" lon="3.85622">
        <ele>928.700878</ele>
        <time>2020-03-09T08:00:02.972Z</time>
      </trkpt>
      <trkpt lat="44.72306" lon="3.85627">
        <ele>930.289144</ele>
        <time>2020-03-09T08:00:11.677Z</time>
      </trkpt>
      <trkpt lat="44.72302" lon="3.85627">
        <ele>930.524471</ele>
        <time>2020-03-09T08:00:13.472Z</time>
      </trkpt>
      <trkpt lat="44.72293" lon="3.85629">
        <ele>931.045077</ele>
        <time>2020-03-09T08:00:17.335Z</time>
      </trkpt>
      <trkpt lat="44.72276" lon="3.85634">
        <ele>932.161175</ele>
        <time>2020-03-09T08:00:23.260Z</time>
      </trkpt>
      <trkpt lat="44.72259" lon="3.85641">
        <ele>933.115187</ele>
        <time>2020-03-09T08:00:29.385Z</time>
      </trkpt>
      <trkpt lat="44.72246" lon="3.85651">
        <ele>933.771982</ele>
        <time>2020-03-09T08:00:33.978Z</time>
      </trkpt>
      <trkpt lat="44.72228" lon="3.85671">
        <ele>934.808931</ele>
        <time>2020-03-09T08:00:41.463Z</time>
      </trkpt>
      <trkpt lat="44.72097" lon="3.85818">
        <ele>942.223925</ele>
        <time>2020-03-09T08:01:35.538Z</time>
      </trkpt>
      <trkpt lat="44.72085" lon="3.85832">
        <ele>942.908841</ele>
        <time>2020-03-09T08:01:40.584Z</time>
      </trkpt>
      <trkpt lat="44.72073" lon="3.85844">
        <ele>943.509348</ele>
        <time>2020-03-09T08:01:44.235Z</time>
      </trkpt>
      <trkpt lat="44.72069" lon="3.85842">
        <ele>943.682532</ele>
        <time>2020-03-09T08:01:45.809Z</time>
      </trkpt>
      <trkpt lat="44.72011" lon="3.85807">
        <ele>946.372479</ele>
        <time>2020-03-09T08:02:08.741Z</time>
      </trkpt>
      <trkpt lat="44.7198" lon="3.85778">
        <ele>947.98975</ele>
        <time>2020-03-09T08:02:23.623Z</time>
      </trkpt>
      <trkpt lat="44.71917" lon="3.85729">
        <ele>951.150988</ele>
        <time>2020-03-09T08:02:51.370Z</time>
      </trkpt>
      <trkpt lat="44.71907" lon="3.85724">
        <ele>951.644919</ele>
        <time>2020-03-09T08:02:55.654Z</time>
      </trkpt>
      <trkpt lat="44.7186" lon="3.85699">
        <ele>953.898426</ele>
        <time>2020-03-09T08:03:14.540Z</time>
      </trkpt>
      <trkpt lat="44.71842" lon="3.8569">
        <ele>954.762559</ele>
        <time>2020-03-09T08:03:22.369Z</time>
      </trkpt>
      <trkpt lat="44.71781" lon="3.85662">
        <ele>957.403663</ele>
        <time>2020-03-09T08:03:45.936Z</time>
      </trkpt>
      <trkpt lat="44.71709" lon="3.85601">
        <ele>960.461411</ele>
        <time>2020-03-09T08:04:16.410Z</time>
      </trkpt>
      <trkpt lat="44.71668" lon="3.856">
        <ele>961.960564</ele>
        <time>2020-03-09T08:04:29.468Z</time>
      </trkpt>
      <trkpt lat="44.71655" lon="3.856">
        <ele>962.443519</ele>
        <time>2020-03-09T08:04:33.574Z</time>
      </trkpt>
      <trkpt lat="44.71639" lon="3.85592">
        <ele>963.048454</ele>
        <time>2020-03-09T08:04:39.127Z</time>
      </trkpt>
      <trkpt lat="44.71624" lon="3.85576">
        <ele>963.723845</ele>
        <time>2020-03-09T08:04:44.967Z</time>
      </trkpt>
      <trkpt lat="44.71563" lon="3.85451">
        <ele>967.534083</ele>
        <time>2020-03-09T08:05:21.430Z</time>
      </trkpt>
      <trkpt lat="44.7152" lon="3.85394">
        <ele>969.663648</ele>
        <time>2020-03-09T08:05:42.574Z</time>
      </trkpt>
      <trkpt lat="44.71503" lon="3.85365">
        <ele>970.865922</ele>
        <time>2020-03-09T08:05:52.505Z</time>
      </trkpt>
      <trkpt lat="44.71482" lon="3.85333">
        <ele>972.316335</ele>
        <time>2020-03-09T08:06:04.701Z</time>
      </trkpt>
      <trkpt lat="44.71466" lon="3.85315">
        <ele>973.250845</ele>
        <time>2020-03-09T08:06:12.513Z</time>
      </trkpt>
      <trkpt lat="44.71317" lon="3.85187">
        <ele>981.699163</ele>
        <time>2020-03-09T08:07:21.413Z</time>
      </trkpt>
      <trkpt lat="44.71294" lon="3.85171">
        <ele>983.002058</ele>
        <time>2020-03-09T08:07:31.093Z</time>
      </trkpt>
      <trkpt lat="44.71267" lon="3.85144">
        <ele>984.755118</ele>
        <time>2020-03-09T08:07:44.850Z</time>
      </trkpt>
      <trkpt lat="44.71217" lon="3.85042">
        <ele>990.034961</ele>
        <time>2020-03-09T08:08:23.910Z</time>
      </trkpt>
      <trkpt lat="44.71186" lon="3.85002">
        <ele>992.909431</ele>
        <time>2020-03-09T08:08:43.595Z</time>
      </trkpt>
      <trkpt lat="44.71159" lon="3.84968">
        <ele>995.357731</ele>
        <time>2020-03-09T08:09:00.813Z</time>
      </trkpt>
      <trkpt lat="44.71137" lon="3.84961">
        <ele>996.88495</ele>
        <time>2020-03-09T08:09:11.889Z</time>
      </trkpt>
      <trkpt lat="44.71074" lon="3.84961">
        <ele>1001.077908</ele>
        <time>2020-03-09T08:09:44.264Z</time>
      </trkpt>
      <trkpt lat="44.71024" lon="3.84941">
        <ele>1004.44972</ele>
        <time>2020-03-09T08:10:10.883Z</time>
      </trkpt>
      <trkpt lat="44.70991" lon="3.84944">
        <ele>1006.608047</ele>
        <time>2020-03-09T08:10:26.016Z</time>
      </trkpt>
      <trkpt lat="44.70957" lon="3.84939">
        <ele>1008.826754</ele>
        <time>2020-03-09T08:10:40.797Z</time>
      </trkpt>
      <trkpt lat="44.70909" lon="3.84924">
        <ele>1011.494401</ele>
        <time>2020-03-09T08:11:01.480Z</time>
      </trkpt>
      <trkpt lat="44.70778" lon="3.84857">
        <ele>1016.304453</ele>
        <time>2020-03-09T08:11:48.731Z</time>
      </trkpt>
      <trkpt lat="44.70757" lon="3.84848">
        <ele>1017.073068</ele>
        <time>2020-03-09T08:11:54.982Z</time>
      </trkpt>
      <trkpt lat="44.70691" lon="3.84822">
        <ele>1017.834418</ele>
        <time>2020-03-09T08:12:12.638Z</time>
      </trkpt>
      <trkpt lat="44.70639" lon="3.84788">
        <ele>1018.486787</ele>
        <time>2020-03-09T08:12:26.674Z</time>
      </trkpt>
      <trkpt lat="44.70578" lon="3.84758">
        <ele>1019.134766</ele>
        <time>2020-03-09T08:12:40.540Z</time>
      </trkpt>
      <trkpt lat="44.70526" lon="3.84742">
        <ele>1019.344395</ele>
        <time>2020-03-09T08:12:51.723Z</time>
      </trkpt>
      <trkpt lat="44.70505" lon="3.84742">
        <ele>1019.426502</ele>
        <time>2020-03-09T08:12:56.312Z</time>
      </trkpt>
      <trkpt lat="44.70479" lon="3.84745">
        <ele>1019.528781</ele>
        <time>2020-03-09T08:13:01.812Z</time>
      </trkpt>
      <trkpt lat="44.70402" lon="3.8477">
        <ele>1019.873853</ele>
        <time>2020-03-09T08:13:19.353Z</time>
      </trkpt>
      <trkpt lat="44.70155" lon="3.84798">
        <ele>1022.127403</ele>
        <time>2020-03-09T08:14:17.253Z</time>
      </trkpt>
      <trkpt lat="44.7011" lon="3.84793">
        <ele>1022.721124</ele>
        <time>2020-03-09T08:14:28.468Z</time>
      </trkpt>
      <trkpt lat="44.7001" lon="3.84767">
        <ele>1025.484238</ele>
        <time>2020-03-09T08:14:55.889Z</time>
      </trkpt>
      <trkpt lat="44.69874" lon="3.84761">
        <ele>1031.630885</ele>
        <time>2020-03-09T08:15:51.675Z</time>
      </trkpt>
      <trkpt lat="44.69851" lon="3.84756">
        <ele>1033.300638</ele>
        <time>2020-03-09T08:16:04.138Z</time>
      </trkpt>
      <trkpt lat="44.69831" lon="3.84745">
        <ele>1034.80381</ele>
        <time>2020-03-09T08:16:14.347Z</time>
      </trkpt>
      <trkpt lat="44.69706" lon="3.84635">
        <ele>1044.738957</ele>
        <time>2020-03-09T08:17:29.159Z</time>
      </trkpt>
      <trkpt lat="44.69676" lon="3.84617">
        <ele>1046.016053</ele>
        <time>2020-03-09T08:17:42.554Z</time>
      </trkpt>
      <trkpt lat="44.69535" lon="3.84619">
        <ele>1051.480698</ele>
        <time>2020-03-09T08:18:29.959Z</time>
      </trkpt>
      <trkpt lat="44.69416" lon="3.84649">
        <ele>1052.778441</ele>
        <time>2020-03-09T08:18:58.544Z</time>
      </trkpt>
      <trkpt lat="44.6934" lon="3.84649">
        <ele>1053.592037</ele>
        <time>2020-03-09T08:19:14.420Z</time>
      </trkpt>
      <trkpt lat="44.69197" lon="3.84686">
        <ele>1055.108434</ele>
        <time>2020-03-09T08:19:49.410Z</time>
      </trkpt>
      <trkpt lat="44.69163" lon="3.84681">
        <ele>1055.865789</ele>
        <time>2020-03-09T08:19:59.323Z</time>
      </trkpt>
      <trkpt lat="44.68974" lon="3.84624">
        <ele>1061.215972</ele>
        <time>2020-03-09T08:21:01.316Z</time>
      </trkpt>
      <trkpt lat="44.6891" lon="3.84588">
        <ele>1063.33257</ele>
        <time>2020-03-09T08:21:24.006Z</time>
      </trkpt>
      <trkpt lat="44.68853" lon="3.84579">
        <ele>1065.071737</ele>
        <time>2020-03-09T08:21:42.398Z</time>
      </trkpt>
      <trkpt lat="44.68779" lon="3.84595">
        <ele>1067.672704</ele>
        <time>2020-03-09T08:22:06.591Z</time>
      </trkpt>
      <trkpt lat="44.68684" lon="3.84637">
        <ele>1071.232</ele>
        <time>2020-03-09T08:22:40.877Z</time>
      </trkpt>
      <trkpt lat="44.68625" lon="3.8464">
        <ele>1073.957403</ele>
        <time>2020-03-09T08:23:03.480Z</time>
      </trkpt>
      <trkpt lat="44.68601" lon="3.8463">
        <ele>1075.254278</ele>
        <time>2020-03-09T08:23:13.528Z</time>
      </trkpt>
      <trkpt lat="44.68526" lon="3.8457">
        <ele>1079.723504</ele>
        <time>2020-03-09T08:23:49.867Z</time>
      </trkpt>
      <trkpt lat="44.68422" lon="3.84508">
        <ele>1086.014211</ele>
        <time>2020-03-09T08:24:38.762Z</time>
      </trkpt>
      <trkpt lat="44.68405" lon="3.84491">
        <ele>1087.20324</ele>
        <time>2020-03-09T08:24:47.409Z</time>
      </trkpt>
      <trkpt lat="44.6832" lon="3.84466">
        <ele>1092.144826</ele>
        <time>2020-03-09T08:25:25.646Z</time>
      </trkpt>
      <trkpt lat="44.68249" lon="3.84454">
        <ele>1095.809733</ele>
        <time>2020-03-09T08:25:56.126Z</time>
      </trkpt>
      <trkpt lat="44.68234" lon="3.84448">
        <ele>1096.612412</ele>
        <time>2020-03-09T08:26:02.522Z</time>
      </trkpt>
      <trkpt lat="44.68218" lon="3.84441">
        <ele>1097.468092</ele>
        <time>2020-03-09T08:26:09.659Z</time>
      </trkpt>
      <trkpt lat="44.68195" lon="3.84435">
        <ele>1098.641086</ele>
        <time>2020-03-09T08:26:18.807Z</time>
      </trkpt>
      <trkpt lat="44.68043" lon="3.84325">
        <ele>1104.261908</ele>
        <time>2020-03-09T08:27:21.543Z</time>
      </trkpt>
      <trkpt lat="44.67942" lon="3.84273">
        <ele>1103.366167</ele>
        <time>2020-03-09T08:27:41.427Z</time>
      </trkpt>
      <trkpt lat="44.67933" lon="3.84273">
        <ele>1103.015707</ele>
        <time>2020-03-09T08:27:42.788Z</time>
      </trkpt>
      <trkpt lat="44.67932" lon="3.84266">
        <ele>1102.792361</ele>
        <time>2020-03-09T08:27:43.595Z</time>
      </trkpt>
      <trkpt lat="44.67932" lon="3.8426">
        <ele>1102.633281</ele>
        <time>2020-03-09T08:27:44.170Z</time>
      </trkpt>
      <trkpt lat="44.67942" lon="3.84252">
        <ele>1102.150585</ele>
        <time>2020-03-09T08:27:45.782Z</time>
      </trkpt>
      <trkpt lat="44.68148" lon="3.8405">
        <ele>1087.728308</ele>
        <time>2020-03-09T08:28:18.145Z</time>
      </trkpt>
      <trkpt lat="44.68263" lon="3.83993">
        <ele>1080.312662</ele>
        <time>2020-03-09T08:28:33.989Z</time>
      </trkpt>
      <trkpt lat="44.6842" lon="3.83972">
        <ele>1071.105805</ele>
        <time>2020-03-09T08:28:55.117Z</time>
      </trkpt>
      <trkpt lat="44.68421" lon="3.83971">
        <ele>1071.076838</ele>
        <time>2020-03-09T08:28:55.187Z</time>
      </trkpt>
      <trkpt lat="44.68465" lon="3.83952">
        <ele>1068.422263</ele>
        <time>2020-03-09T08:29:01.496Z</time>
      </trkpt>
      <trkpt lat="44.68501" lon="3.83927">
        <ele>1066.077712</ele>
        <time>2020-03-09T08:29:06.901Z</time>
      </trkpt>
      <trkpt lat="44.68575" lon="3.83899">
        <ele>1060.825181</ele>
        <time>2020-03-09T08:29:16.705Z</time>
      </trkpt>
      <trkpt lat="44.68649" lon="3.83877">
        <ele>1055.414213</ele>
        <time>2020-03-09T08:29:26.334Z</time>
      </trkpt>
      <trkpt lat="44.68664" lon="3.83881">
        <ele>1054.300701</ele>
        <time>2020-03-09T08:29:28.289Z</time>
      </trkpt>
      <trkpt lat="44.68697" lon="3.8387">
        <ele>1051.876627</ele>
        <time>2020-03-09T08:29:32.472Z</time>
      </trkpt>
      <trkpt lat="44.68851" lon="3.83803">
        <ele>1038.813762</ele>
        <time>2020-03-09T08:29:52.719Z</time>
      </trkpt>
      <trkpt lat="44.6887" lon="3.83781">
        <ele>1036.847572</ele>
        <time>2020-03-09T08:29:55.840Z</time>
      </trkpt>
      <trkpt lat="44.69011" lon="3.83691">
        <ele>1024.884263</ele>
        <time>2020-03-09T08:30:15.391Z</time>
      </trkpt>
      <trkpt lat="44.69144" lon="3.83622">
        <ele>1015.185574</ele>
        <time>2020-03-09T08:30:33.504Z</time>
      </trkpt>
      <trkpt lat="44.69231" lon="3.83547">
        <ele>1008.022943</ele>
        <time>2020-03-09T08:30:46.850Z</time>
      </trkpt>
      <trkpt lat="44.69294" lon="3.83501">
        <ele>1002.976375</ele>
        <time>2020-03-09T08:30:55.897Z</time>
      </trkpt>
      <trkpt lat="44.69319" lon="3.8347">
        <ele>1000.592285</ele>
        <time>2020-03-09T08:31:00.124Z</time>
      </trkpt>
      <trkpt lat="44.69353" lon="3.83402">
        <ele>995.774663</ele>
        <time>2020-03-09T08:31:07.627Z</time>
      </trkpt>
      <trkpt lat="44.69455" lon="3.83315">
        <ele>985.383018</ele>
        <time>2020-03-09T08:31:22.361Z</time>
      </trkpt>
      <trkpt lat="44.69468" lon="3.83311">
        <ele>984.161506</ele>
        <time>2020-03-09T08:31:24.095Z</time>
      </trkpt>
      <trkpt lat="44.69495" lon="3.83316">
        <ele>981.889132</ele>
        <time>2020-03-09T08:31:27.387Z</time>
      </trkpt>
      <trkpt lat="44.6954" lon="3.8335">
        <ele>977.786206</ele>
        <time>2020-03-09T08:31:33.633Z</time>
      </trkpt>
      <trkpt lat="44.69566" lon="3.8338">
        <ele>975.126285</ele>
        <time>2020-03-09T08:31:37.720Z</time>
      </trkpt>
      <trkpt lat="44.69575" lon="3.83401">
        <ele>973.703571</ele>
        <time>2020-03-09T08:31:39.902Z</time>
      </trkpt>
      <trkpt lat="44.6958" lon="3.83433">
        <ele>971.863831</ele>
        <time>2020-03-09T08:31:42.853Z</time>
      </trkpt>
      <trkpt lat="44.69586" lon="3.8344">
        <ele>971.236766</ele>
        <time>2020-03-09T08:31:43.802Z</time>
      </trkpt>
      <trkpt lat="44.69591" lon="3.8344">
        <ele>970.882028</ele>
        <time>2020-03-09T08:31:44.365Z</time>
      </trkpt>
      <trkpt lat="44.69617" lon="3.83434">
        <ele>968.710272</ele>
        <time>2020-03-09T08:31:48.072Z</time>
      </trkpt>
      <trkpt lat="44.69631" lon="3.83429">
        <ele>968.722571</ele>
        <time>2020-03-09T08:31:49.915Z</time>
      </trkpt>
      <trkpt lat="44.69639" lon="3.83427">
        <ele>968.82286</ele>
        <time>2020-03-09T08:31:51.218Z</time>
      </trkpt>
      <trkpt lat="44.6965" lon="3.83425">
        <ele>968.952689</ele>
        <time>2020-03-09T08:31:52.956Z</time>
      </trkpt>
      <trkpt lat="44.69713" lon="3.83429">
        <ele>969.714182</ele>
        <time>2020-03-09T08:32:04.014Z</time>
      </trkpt>
      <trkpt lat="44.69731" lon="3.83436">
        <ele>969.942485</ele>
        <time>2020-03-09T08:32:08.291Z</time>
      </trkpt>
      <trkpt lat="44.69738" lon="3.83441">
        <ele>970.038459</ele>
        <time>2020-03-09T08:32:10.544Z</time>
      </trkpt>
      <trkpt lat="44.69765" lon="3.83464">
        <ele>970.413399</ele>
        <time>2020-03-09T08:32:22.331Z</time>
      </trkpt>
      <trkpt lat="44.69777" lon="3.83464">
        <ele>970.562131</ele>
        <time>2020-03-09T08:32:27.853Z</time>
      </trkpt>
      <trkpt lat="44.69778" lon="3.83446">
        <ele>970.717012</ele>
        <time>2020-03-09T08:32:34.292Z</time>
      </trkpt>
      <trkpt lat="44.69729" lon="3.83271">
        <ele>984.334681</ele>
        <time>2020-03-09T08:33:57.206Z</time>
      </trkpt>
      <trkpt lat="44.69716" lon="3.83232">
        <ele>987.463128</ele>
        <time>2020-03-09T08:34:17.622Z</time>
      </trkpt>
      <trkpt lat="44.69657" lon="3.83123">
        <ele>999.230727</ele>
        <time>2020-03-09T08:35:25.641Z</time>
      </trkpt>
      <trkpt lat="44.69614" lon="3.83023">
        <ele>1009.627703</ele>
        <time>2020-03-09T08:36:25.686Z</time>
      </trkpt>
      <trkpt lat="44.6961" lon="3.83007">
        <ele>1011.195689</ele>
        <time>2020-03-09T08:36:34.509Z</time>
      </trkpt>
      <trkpt lat="44.69615" lon="3.82955">
        <ele>1015.451418</ele>
        <time>2020-03-09T08:37:00.540Z</time>
      </trkpt>
      <trkpt lat="44.69599" lon="3.8287">
        <ele>1022.534003</ele>
        <time>2020-03-09T08:37:43.691Z</time>
      </trkpt>
      <trkpt lat="44.6959" lon="3.82774">
        <ele>1030.415165</ele>
        <time>2020-03-09T08:38:28.901Z</time>
      </trkpt>
      <trkpt lat="44.69584" lon="3.82731">
        <ele>1033.062049</ele>
        <time>2020-03-09T08:38:47.135Z</time>
      </trkpt>
      <trkpt lat="44.69584" lon="3.82726">
        <ele>1033.241386</ele>
        <time>2020-03-09T08:38:48.671Z</time>
      </trkpt>
      <trkpt lat="44.69588" lon="3.82695">
        <ele>1034.558103</ele>
        <time>2020-03-09T08:39:00.001Z</time>
      </trkpt>
      <trkpt lat="44.69588" lon="3.82673">
        <ele>1035.476821</ele>
        <time>2020-03-09T08:39:08.260Z</time>
      </trkpt>
      <trkpt lat="44.69592" lon="3.82638">
        <ele>1036.91238</ele>
        <time>2020-03-09T08:39:19.096Z</time>
      </trkpt>
      <trkpt lat="44.69592" lon="3.82631">
        <ele>1037.222752</ele>
        <time>2020-03-09T08:39:22.128Z</time>
      </trkpt>
      <trkpt lat="44.6959" lon="3.82599">
        <ele>1038.534833</ele>
        <time>2020-03-09T08:39:30.825Z</time>
      </trkpt>
      <trkpt lat="44.69584" lon="3.82572">
        <ele>1039.71312</ele>
        <time>2020-03-09T08:39:39.348Z</time>
      </trkpt>
      <trkpt lat="44.69572" lon="3.82571">
        <ele>1040.42329</ele>
        <time>2020-03-09T08:39:42.794Z</time>
      </trkpt>
      <trkpt lat="44.6954" lon="3.82552">
        <ele>1042.474544</ele>
        <time>2020-03-09T08:39:52.479Z</time>
      </trkpt>
      <trkpt lat="44.69512" lon="3.8254">
        <ele>1042.845945</ele>
        <time>2020-03-09T08:39:58.834Z</time>
      </trkpt>
      <trkpt lat="44.6946" lon="3.8251">
        <ele>1043.403532</ele>
        <time>2020-03-09T08:40:09.174Z</time>
      </trkpt>
      <trkpt lat="44.69385" lon="3.82453">
        <ele>1044.243916</ele>
        <time>2020-03-09T08:40:21.593Z</time>
      </trkpt>
      <trkpt lat="44.69311" lon="3.82338">
        <ele>1046.041758</ele>
        <time>2020-03-09T08:40:43.336Z</time>
      </trkpt>
      <trkpt lat="44.69275" lon="3.82267">
        <ele>1047.089206</ele>
        <time>2020-03-09T08:40:58.286Z</time>
      </trkpt>
      <trkpt lat="44.69251" lon="3.82255">
        <ele>1047.645533</ele>
        <time>2020-03-09T08:41:04.039Z</time>
      </trkpt>
      <trkpt lat="44.69244" lon="3.82255">
        <ele>1047.938911</ele>
        <time>2020-03-09T08:41:06.780Z</time>
      </trkpt>
      <trkpt lat="44.69222" lon="3.82255">
        <ele>1048.776674</ele>
        <time>2020-03-09T08:41:12.358Z</time>
      </trkpt>
      <trkpt lat="44.69145" lon="3.82246">
        <ele>1051.694072</ele>
        <time>2020-03-09T08:41:34.739Z</time>
      </trkpt>
      <trkpt lat="44.69104" lon="3.82237">
        <ele>1053.282412</ele>
        <time>2020-03-09T08:41:49.613Z</time>
      </trkpt>
      <trkpt lat="44.69085" lon="3.8224">
        <ele>1054.007227</ele>
        <time>2020-03-09T08:41:57.294Z</time>
      </trkpt>
      <trkpt lat="44.69059" lon="3.82269">
        <ele>1054.97503</ele>
        <time>2020-03-09T08:42:07.383Z</time>
      </trkpt>
      <trkpt lat="44.69015" lon="3.82334">
        <ele>1056.714494</ele>
        <time>2020-03-09T08:42:24.913Z</time>
      </trkpt>
      <trkpt lat="44.68982" lon="3.82386">
        <ele>1058.07517</ele>
        <time>2020-03-09T08:42:37.921Z</time>
      </trkpt>
      <trkpt lat="44.68976" lon="3.82401">
        <ele>1058.407308</ele>
        <time>2020-03-09T08:42:39.806Z</time>
      </trkpt>
      <trkpt lat="44.68974" lon="3.82442">
        <ele>1059.141169</ele>
        <time>2020-03-09T08:42:45.946Z</time>
      </trkpt>
      <trkpt lat="44.69008" lon="3.82514">
        <ele>1058.305333</ele>
        <time>2020-03-09T08:42:55.319Z</time>
      </trkpt>
      <trkpt lat="44.69008" lon="3.82535">
        <ele>1058.102193</ele>
        <time>2020-03-09T08:42:57.040Z</time>
      </trkpt>
      <trkpt lat="44.69003" lon="3.82559">
        <ele>1057.855894</ele>
        <time>2020-03-09T08:42:59.161Z</time>
      </trkpt>
      <trkpt lat="44.68978" lon="3.82592">
        <ele>1057.397819</ele>
        <time>2020-03-09T08:43:02.578Z</time>
      </trkpt>
      <trkpt lat="44.68823" lon="3.82665">
        <ele>1054.316596</ele>
        <time>2020-03-09T08:43:19.731Z</time>
      </trkpt>
      <trkpt lat="44.68795" lon="3.82673">
        <ele>1053.71295</ele>
        <time>2020-03-09T08:43:23.066Z</time>
      </trkpt>
      <trkpt lat="44.68706" lon="3.82681">
        <ele>1052.871066</ele>
        <time>2020-03-09T08:43:33.786Z</time>
      </trkpt>
      <trkpt lat="44.68672" lon="3.82649">
        <ele>1052.822095</ele>
        <time>2020-03-09T08:43:38.782Z</time>
      </trkpt>
      <trkpt lat="44.68659" lon="3.8264">
        <ele>1052.804627</ele>
        <time>2020-03-09T08:43:40.779Z</time>
      </trkpt>
      <trkpt lat="44.68652" lon="3.82638">
        <ele>1052.795869</ele>
        <time>2020-03-09T08:43:41.723Z</time>
      </trkpt>
      <trkpt lat="44.68645" lon="3.82638">
        <ele>1052.787472</ele>
        <time>2020-03-09T08:43:42.540Z</time>
      </trkpt>
      <trkpt lat="44.68607" lon="3.82636">
        <ele>1052.74258</ele>
        <time>2020-03-09T08:43:49.432Z</time>
      </trkpt>
      <trkpt lat="44.68579" lon="3.82632">
        <ele>1052.937833</ele>
        <time>2020-03-09T08:43:56.048Z</time>
      </trkpt>
      <trkpt lat="44.68552" lon="3.82628">
        <ele>1053.716428</ele>
        <time>2020-03-09T08:44:01.766Z</time>
      </trkpt>
      <trkpt lat="44.68544" lon="3.82626">
        <ele>1053.934646</ele>
        <time>2020-03-09T08:44:04.565Z</time>
      </trkpt>
      <trkpt lat="44.68526" lon="3.82629">
        <ele>1054.426454</ele>
        <time>2020-03-09T08:44:07.627Z</time>
      </trkpt>
      <trkpt lat="44.68511" lon="3.82629">
        <ele>1054.86682</ele>
        <time>2020-03-09T08:44:13.422Z</time>
      </trkpt>
      <trkpt lat="44.68498" lon="3.82617">
        <ele>1055.285171</ele>
        <time>2020-03-09T08:44:16.467Z</time>
      </trkpt>
      <trkpt lat="44.6849" lon="3.82604">
        <ele>1055.630317</ele>
        <time>2020-03-09T08:44:18.824Z</time>
      </trkpt>
      <trkpt lat="44.68485" lon="3.82597">
        <ele>1055.81601</ele>
        <time>2020-03-09T08:44:22.734Z</time>
      </trkpt>
      <trkpt lat="44.68454" lon="3.82593">
        <ele>1056.69326</ele>
        <time>2020-03-09T08:44:30.191Z</time>
      </trkpt>
      <trkpt lat="44.68423" lon="3.82571">
        <ele>1057.643889</ele>
        <time>2020-03-09T08:44:39.480Z</time>
      </trkpt>
      <trkpt lat="44.68404" lon="3.82582">
        <ele>1058.050779</ele>
        <time>2020-03-09T08:44:46.709Z</time>
      </trkpt>
      <trkpt lat="44.68393" lon="3.82605">
        <ele>1058.422095</ele>
        <time>2020-03-09T08:44:52.773Z</time>
      </trkpt>
      <trkpt lat="44.68373" lon="3.82662">
        <ele>1059.275106</ele>
        <time>2020-03-09T08:45:07.676Z</time>
      </trkpt>
      <trkpt lat="44.68342" lon="3.82856">
        <ele>1060.150309</ele>
        <time>2020-03-09T08:45:29.534Z</time>
      </trkpt>
      <trkpt lat="44.68345" lon="3.8292">
        <ele>1059.143923</ele>
        <time>2020-03-09T08:45:34.202Z</time>
      </trkpt>
      <trkpt lat="44.68332" lon="3.82964">
        <ele>1058.389049</ele>
        <time>2020-03-09T08:45:37.698Z</time>
      </trkpt>
      <trkpt lat="44.68324" lon="3.82976">
        <ele>1058.138952</ele>
        <time>2020-03-09T08:45:38.791Z</time>
      </trkpt>
      <trkpt lat="44.68303" lon="3.82996">
        <ele>1057.566755</ele>
        <time>2020-03-09T08:45:41.479Z</time>
      </trkpt>
      <trkpt lat="44.68281" lon="3.83004">
        <ele>1057.109638</ele>
        <time>2020-03-09T08:45:43.791Z</time>
      </trkpt>
      <trkpt lat="44.68224" lon="3.83006">
        <ele>1056.667428</ele>
        <time>2020-03-09T08:45:49.586Z</time>
      </trkpt>
      <trkpt lat="44.68175" lon="3.82988">
        <ele>1056.264543</ele>
        <time>2020-03-09T08:45:55.441Z</time>
      </trkpt>
      <trkpt lat="44.68127" lon="3.82939">
        <ele>1055.801384</ele>
        <time>2020-03-09T08:46:06.646Z</time>
      </trkpt>
      <trkpt lat="44.68077" lon="3.82858">
        <ele>1057.696295</ele>
        <time>2020-03-09T08:46:26.229Z</time>
      </trkpt>
      <trkpt lat="44.68025" lon="3.82859">
        <ele>1059.26165</ele>
        <time>2020-03-09T08:46:40.845Z</time>
      </trkpt>
      <trkpt lat="44.67969" lon="3.8282">
        <ele>1061.134585</ele>
        <time>2020-03-09T08:46:59.215Z</time>
      </trkpt>
      <trkpt lat="44.6792" lon="3.82809">
        <ele>1062.733258</ele>
        <time>2020-03-09T08:47:13.360Z</time>
      </trkpt>
      <trkpt lat="44.67901" lon="3.8279">
        <ele>1063.477717</ele>
        <time>2020-03-09T08:47:19.814Z</time>
      </trkpt>
      <trkpt lat="44.6789" lon="3.82752">
        <ele>1064.417956</ele>
        <time>2020-03-09T08:47:27.781Z</time>
      </trkpt>
      <trkpt lat="44.67887" lon="3.82678">
        <ele>1066.109406</ele>
        <time>2020-03-09T08:47:41.860Z</time>
      </trkpt>
      <trkpt lat="44.67874" lon="3.82585">
        <ele>1068.569375</ele>
        <time>2020-03-09T08:48:00.343Z</time>
      </trkpt>
      <trkpt lat="44.67883" lon="3.82524">
        <ele>1070.298511</ele>
        <time>2020-03-09T08:48:13.466Z</time>
      </trkpt>
      <trkpt lat="44.679" lon="3.82484">
        <ele>1071.576518</ele>
        <time>2020-03-09T08:48:23.561Z</time>
      </trkpt>
      <trkpt lat="44.67905" lon="3.82463">
        <ele>1072.199806</ele>
        <time>2020-03-09T08:48:28.574Z</time>
      </trkpt>
      <trkpt lat="44.67901" lon="3.82451">
        <ele>1072.550346</ele>
        <time>2020-03-09T08:48:31.446Z</time>
      </trkpt>
      <trkpt lat="44.67858" lon="3.82401">
        <ele>1075.118177</ele>
        <time>2020-03-09T08:48:50.076Z</time>
      </trkpt>
      <trkpt lat="44.67852" lon="3.82368">
        <ele>1076.491464</ele>
        <time>2020-03-09T08:48:58.626Z</time>
      </trkpt>
      <trkpt lat="44.67855" lon="3.82346">
        <ele>1077.39307</ele>
        <time>2020-03-09T08:49:04.322Z</time>
      </trkpt>
      <trkpt lat="44.67885" lon="3.82247">
        <ele>1081.698594</ele>
        <time>2020-03-09T08:49:33.482Z</time>
      </trkpt>
      <trkpt lat="44.67891" lon="3.82201">
        <ele>1083.582024</ele>
        <time>2020-03-09T08:49:46.960Z</time>
      </trkpt>
      <trkpt lat="44.67906" lon="3.82163">
        <ele>1085.638103</ele>
        <time>2020-03-09T08:49:59.740Z</time>
      </trkpt>
      <trkpt lat="44.67927" lon="3.82125">
        <ele>1088.035388</ele>
        <time>2020-03-09T08:50:14.071Z</time>
      </trkpt>
      <trkpt lat="44.67932" lon="3.82106">
        <ele>1089.060654</ele>
        <time>2020-03-09T08:50:20.289Z</time>
      </trkpt>
      <trkpt lat="44.67932" lon="3.8209">
        <ele>1089.837737</ele>
        <time>2020-03-09T08:50:24.955Z</time>
      </trkpt>
      <trkpt lat="44.67921" lon="3.82068">
        <ele>1091.177571</ele>
        <time>2020-03-09T08:50:33.163Z</time>
      </trkpt>
      <trkpt lat="44.67913" lon="3.82064">
        <ele>1091.795088</ele>
        <time>2020-03-09T08:50:36.903Z</time>
      </trkpt>
      <trkpt lat="44.67866" lon="3.82079">
        <ele>1095.143156</ele>
        <time>2020-03-09T08:50:57.744Z</time>
      </trkpt>
      <trkpt lat="44.67846" lon="3.82041">
        <ele>1097.558985</ele>
        <time>2020-03-09T08:51:12.937Z</time>
      </trkpt>
      <trkpt lat="44.67785" lon="3.81989">
        <ele>1102.964119</ele>
        <time>2020-03-09T08:51:45.820Z</time>
      </trkpt>
      <trkpt lat="44.67769" lon="3.81992">
        <ele>1104.201944</ele>
        <time>2020-03-09T08:51:53.288Z</time>
      </trkpt>
      <trkpt lat="44.6775" lon="3.82016">
        <ele>1106.151108</ele>
        <time>2020-03-09T08:52:04.966Z</time>
      </trkpt>
      <trkpt lat="44.67728" lon="3.82012">
        <ele>1107.811051</ele>
        <time>2020-03-09T08:52:14.907Z</time>
      </trkpt>
      <trkpt lat="44.67679" lon="3.81942">
        <ele>1112.41582</ele>
        <time>2020-03-09T08:52:45.872Z</time>
      </trkpt>
      <trkpt lat="44.67659" lon="3.81935">
        <ele>1113.658942</ele>
        <time>2020-03-09T08:52:55.111Z</time>
      </trkpt>
      <trkpt lat="44.67642" lon="3.8195">
        <ele>1114.791788</ele>
        <time>2020-03-09T08:53:03.237Z</time>
      </trkpt>
      <trkpt lat="44.67599" lon="3.82053">
        <ele>1119.750633</ele>
        <time>2020-03-09T08:53:34.994Z</time>
      </trkpt>
      <trkpt lat="44.67594" lon="3.82096">
        <ele>1120.961478</ele>
        <time>2020-03-09T08:53:44.292Z</time>
      </trkpt>
      <trkpt lat="44.67563" lon="3.82239">
        <ele>1122.51751</ele>
        <time>2020-03-09T08:54:07.404Z</time>
      </trkpt>
      <trkpt lat="44.67554" lon="3.82262">
        <ele>1122.782562</ele>
        <time>2020-03-09T08:54:10.147Z</time>
      </trkpt>
      <trkpt lat="44.67526" lon="3.82307">
        <ele>1123.383952</ele>
        <time>2020-03-09T08:54:15.946Z</time>
      </trkpt>
      <trkpt lat="44.67513" lon="3.82347">
        <ele>1123.298573</ele>
        <time>2020-03-09T08:54:20.032Z</time>
      </trkpt>
      <trkpt lat="44.67509" lon="3.8239">
        <ele>1123.213757</ele>
        <time>2020-03-09T08:54:23.990Z</time>
      </trkpt>
      <trkpt lat="44.67482" lon="3.8243">
        <ele>1123.107716</ele>
        <time>2020-03-09T08:54:28.782Z</time>
      </trkpt>
      <trkpt lat="44.6747" lon="3.82435">
        <ele>1123.075325</ele>
        <time>2020-03-09T08:54:30.199Z</time>
      </trkpt>
      <trkpt lat="44.67304" lon="3.82441">
        <ele>1123.935118</ele>
        <time>2020-03-09T08:54:57.857Z</time>
      </trkpt>
      <trkpt lat="44.67277" lon="3.82429">
        <ele>1124.222713</ele>
        <time>2020-03-09T08:55:02.970Z</time>
      </trkpt>
      <trkpt lat="44.67255" lon="3.82402">
        <ele>1124.528485</ele>
        <time>2020-03-09T08:55:09.446Z</time>
      </trkpt>
      <trkpt lat="44.67237" lon="3.82389">
        <ele>1124.731016</ele>
        <time>2020-03-09T08:55:13.759Z</time>
      </trkpt>
      <trkpt lat="44.67212" lon="3.82381">
        <ele>1125.400536</ele>
        <time>2020-03-09T08:55:20.190Z</time>
      </trkpt>
      <trkpt lat="44.67189" lon="3.82375">
        <ele>1126.010701</ele>
        <time>2020-03-09T08:55:26.818Z</time>
      </trkpt>
      <trkpt lat="44.67179" lon="3.82369">
        <ele>1126.286486</ele>
        <time>2020-03-09T08:55:29.248Z</time>
      </trkpt>
      <trkpt lat="44.67163" lon="3.8235">
        <ele>1126.822826</ele>
        <time>2020-03-09T08:55:35.100Z</time>
      </trkpt>
      <trkpt lat="44.6715" lon="3.8233">
        <ele>1127.340858</ele>
        <time>2020-03-09T08:55:40.071Z</time>
      </trkpt>
      <trkpt lat="44.67096" lon="3.82251">
        <ele>1129.385079</ele>
        <time>2020-03-09T08:55:59.589Z</time>
      </trkpt>
      <trkpt lat="44.67079" lon="3.82238">
        <ele>1130.009133</ele>
        <time>2020-03-09T08:56:04.333Z</time>
      </trkpt>
      <trkpt lat="44.67016" lon="3.82216">
        <ele>1132.213287</ele>
        <time>2020-03-09T08:56:22.722Z</time>
      </trkpt>
      <trkpt lat="44.66966" lon="3.82178">
        <ele>1134.157206</ele>
        <time>2020-03-09T08:56:40.321Z</time>
      </trkpt>
      <trkpt lat="44.66919" lon="3.82142">
        <ele>1135.996087</ele>
        <time>2020-03-09T08:56:55.090Z</time>
      </trkpt>
      <trkpt lat="44.66913" lon="3.82136">
        <ele>1136.263994</ele>
        <time>2020-03-09T08:56:56.677Z</time>
      </trkpt>
      <trkpt lat="44.66901" lon="3.82119">
        <ele>1136.915619</ele>
        <time>2020-03-09T08:57:02.607Z</time>
      </trkpt>
      <trkpt lat="44.66864" lon="3.82051">
        <ele>1139.183236</ele>
        <time>2020-03-09T08:57:20.220Z</time>
      </trkpt>
      <trkpt lat="44.66837" lon="3.82027">
        <ele>1140.37408</ele>
        <time>2020-03-09T08:57:29.942Z</time>
      </trkpt>
      <trkpt lat="44.66753" lon="3.8202">
        <ele>1143.312377</ele>
        <time>2020-03-09T08:57:55.891Z</time>
      </trkpt>
      <trkpt lat="44.66648" lon="3.82001">
        <ele>1146.714717</ele>
        <time>2020-03-09T08:58:24.165Z</time>
      </trkpt>
      <trkpt lat="44.6663" lon="3.81992">
        <ele>1147.318215</ele>
        <time>2020-03-09T08:58:29.160Z</time>
      </trkpt>
      <trkpt lat="44.66592" lon="3.8196">
        <ele>1148.735374</ele>
        <time>2020-03-09T08:58:41.058Z</time>
      </trkpt>
      <trkpt lat="44.66562" lon="3.81954">
        <ele>1149.713227</ele>
        <time>2020-03-09T08:58:49.239Z</time>
      </trkpt>
      <trkpt lat="44.66513" lon="3.81952">
        <ele>1151.264591</ele>
        <time>2020-03-09T08:59:02.225Z</time>
      </trkpt>
      <trkpt lat="44.66459" lon="3.81976">
        <ele>1153.039905</ele>
        <time>2020-03-09T08:59:17.725Z</time>
      </trkpt>
      <trkpt lat="44.66435" lon="3.81974">
        <ele>1153.8587</ele>
        <time>2020-03-09T08:59:24.891Z</time>
      </trkpt>
      <trkpt lat="44.66394" lon="3.81935">
        <ele>1156.064342</ele>
        <time>2020-03-09T08:59:39.854Z</time>
      </trkpt>
      <trkpt lat="44.6625" lon="3.81871">
        <ele>1162.976072</ele>
        <time>2020-03-09T09:00:30.819Z</time>
      </trkpt>
      <trkpt lat="44.66216" lon="3.8185">
        <ele>1164.855464</ele>
        <time>2020-03-09T09:00:45.511Z</time>
      </trkpt>
      <trkpt lat="44.66191" lon="3.81826">
        <ele>1166.407285</ele>
        <time>2020-03-09T09:00:57.068Z</time>
      </trkpt>
      <trkpt lat="44.66183" lon="3.8181">
        <ele>1167.098874</ele>
        <time>2020-03-09T09:01:02.296Z</time>
      </trkpt>
      <trkpt lat="44.6618" lon="3.81788">
        <ele>1167.937595</ele>
        <time>2020-03-09T09:01:08.076Z</time>
      </trkpt>
      <trkpt lat="44.66174" lon="3.81703">
        <ele>1170.963346</ele>
        <time>2020-03-09T09:01:29.139Z</time>
      </trkpt>
      <trkpt lat="44.66172" lon="3.81668">
        <ele>1171.54873</ele>
        <time>2020-03-09T09:01:37.154Z</time>
      </trkpt>
      <trkpt lat="44.66151" lon="3.81381">
        <ele>1175.132922</ele>
        <time>2020-03-09T09:02:22.229Z</time>
      </trkpt>
      <trkpt lat="44.66141" lon="3.81336">
        <ele>1175.112739</ele>
        <time>2020-03-09T09:02:26.665Z</time>
      </trkpt>
      <trkpt lat="44.66132" lon="3.81323">
        <ele>1175.105078</ele>
        <time>2020-03-09T09:02:28.349Z</time>
      </trkpt>
      <trkpt lat="44.66131" lon="3.81321">
        <ele>1175.104083</ele>
        <time>2020-03-09T09:02:28.566Z</time>
      </trkpt>
      <trkpt lat="44.66111" lon="3.81294">
        <ele>1175.087463</ele>
        <time>2020-03-09T09:02:32.008Z</time>
      </trkpt>
      <trkpt lat="44.66098" lon="3.81264">
        <ele>1175.072651</ele>
        <time>2020-03-09T09:02:35.090Z</time>
      </trkpt>
      <trkpt lat="44.66077" lon="3.81185">
        <ele>1174.39411</ele>
        <time>2020-03-09T09:02:42.408Z</time>
      </trkpt>
      <trkpt lat="44.66067" lon="3.81171">
        <ele>1174.113731</ele>
        <time>2020-03-09T09:02:43.892Z</time>
      </trkpt>
      <trkpt lat="44.66043" lon="3.81167">
        <ele>1173.61692</ele>
        <time>2020-03-09T09:02:46.661Z</time>
      </trkpt>
      <trkpt lat="44.66003" lon="3.8119">
        <ele>1172.751823</ele>
        <time>2020-03-09T09:02:51.286Z</time>
      </trkpt>
      <trkpt lat="44.65945" lon="3.8123">
        <ele>1171.461309</ele>
        <time>2020-03-09T09:02:58.257Z</time>
      </trkpt>
      <trkpt lat="44.65929" lon="3.81241">
        <ele>1170.966885</ele>
        <time>2020-03-09T09:03:00.078Z</time>
      </trkpt>
      <trkpt lat="44.65903" lon="3.81249">
        <ele>1170.220231</ele>
        <time>2020-03-09T09:03:02.921Z</time>
      </trkpt>
      <trkpt lat="44.65891" lon="3.81245">
        <ele>1169.881536</ele>
        <time>2020-03-09T09:03:04.168Z</time>
      </trkpt>
      <trkpt lat="44.65804" lon="3.81194">
        <ele>1167.249574</ele>
        <time>2020-03-09T09:03:13.865Z</time>
      </trkpt>
      <trkpt lat="44.65783" lon="3.81175">
        <ele>1166.565511</ele>
        <time>2020-03-09T09:03:16.349Z</time>
      </trkpt>
      <trkpt lat="44.65758" lon="3.81137">
        <ele>1165.638469</ele>
        <time>2020-03-09T09:03:20.230Z</time>
      </trkpt>
      <trkpt lat="44.65755" lon="3.81111">
        <ele>1165.17503</ele>
        <time>2020-03-09T09:03:22.217Z</time>
      </trkpt>
      <trkpt lat="44.65774" lon="3.81046">
        <ele>1163.936017</ele>
        <time>2020-03-09T09:03:27.517Z</time>
      </trkpt>
      <trkpt lat="44.65783" lon="3.8098">
        <ele>1162.754137</ele>
        <time>2020-03-09T09:03:32.595Z</time>
      </trkpt>
      <trkpt lat="44.65812" lon="3.80909">
        <ele>1161.231981</ele>
        <time>2020-03-09T09:03:39.055Z</time>
      </trkpt>
      <trkpt lat="44.6582" lon="3.80868">
        <ele>1160.385509</ele>
        <time>2020-03-09T09:03:42.517Z</time>
      </trkpt>
      <trkpt lat="44.65823" lon="3.80839">
        <ele>1159.818447</ele>
        <time>2020-03-09T09:03:44.775Z</time>
      </trkpt>
      <trkpt lat="44.65834" lon="3.808">
        <ele>1158.988691</ele>
        <time>2020-03-09T09:03:48.319Z</time>
      </trkpt>
      <trkpt lat="44.65861" lon="3.80751">
        <ele>1157.751933</ele>
        <time>2020-03-09T09:03:52.883Z</time>
      </trkpt>
      <trkpt lat="44.65866" lon="3.80731">
        <ele>1157.324756</ele>
        <time>2020-03-09T09:03:54.338Z</time>
      </trkpt>
      <trkpt lat="44.65846" lon="3.80609">
        <ele>1152.105179</ele>
        <time>2020-03-09T09:04:02.597Z</time>
      </trkpt>
      <trkpt lat="44.65839" lon="3.80601">
        <ele>1151.517205</ele>
        <time>2020-03-09T09:04:03.423Z</time>
      </trkpt>
      <trkpt lat="44.65819" lon="3.80596">
        <ele>1150.245894</ele>
        <time>2020-03-09T09:04:05.259Z</time>
      </trkpt>
      <trkpt lat="44.6578" lon="3.80598">
        <ele>1147.775558</ele>
        <time>2020-03-09T09:04:08.747Z</time>
      </trkpt>
      <trkpt lat="44.65759" lon="3.80596">
        <ele>1146.473546</ele>
        <time>2020-03-09T09:04:10.574Z</time>
      </trkpt>
      <trkpt lat="44.6571" lon="3.80556">
        <ele>1142.850546</ele>
        <time>2020-03-09T09:04:15.635Z</time>
      </trkpt>
      <trkpt lat="44.65671" lon="3.80552">
        <ele>1140.337257</ele>
        <time>2020-03-09T09:04:19.100Z</time>
      </trkpt>
      <trkpt lat="44.65657" lon="3.80545">
        <ele>1139.420359</ele>
        <time>2020-03-09T09:04:20.387Z</time>
      </trkpt>
      <trkpt lat="44.6565" lon="3.80536">
        <ele>1138.771211</ele>
        <time>2020-03-09T09:04:21.300Z</time>
      </trkpt>
      <trkpt lat="44.65632" lon="3.80479">
        <ele>1135.955052</ele>
        <time>2020-03-09T09:04:25.454Z</time>
      </trkpt>
      <trkpt lat="44.65619" lon="3.80468">
        <ele>1135.022089</ele>
        <time>2020-03-09T09:04:26.877Z</time>
      </trkpt>
      <trkpt lat="44.65563" lon="3.8044">
        <ele>1133.101084</ele>
        <time>2020-03-09T09:04:32.683Z</time>
      </trkpt>
      <trkpt lat="44.65502" lon="3.80414">
        <ele>1131.682698</ele>
        <time>2020-03-09T09:04:39.318Z</time>
      </trkpt>
      <trkpt lat="44.65467" lon="3.80416">
        <ele>1130.877038</ele>
        <time>2020-03-09T09:04:43.469Z</time>
      </trkpt>
      <trkpt lat="44.65436" lon="3.80402">
        <ele>1130.156088</ele>
        <time>2020-03-09T09:04:47.656Z</time>
      </trkpt>
      <trkpt lat="44.65405" lon="3.80352">
        <ele>1130.550845</ele>
        <time>2020-03-09T09:04:56.037Z</time>
      </trkpt>
      <trkpt lat="44.65374" lon="3.80301">
        <ele>1131.034821</ele>
        <time>2020-03-09T09:05:05.567Z</time>
      </trkpt>
      <trkpt lat="44.65352" lon="3.80242">
        <ele>1131.516636</ele>
        <time>2020-03-09T09:05:16.061Z</time>
      </trkpt>
      <trkpt lat="44.6531" lon="3.80205">
        <ele>1131.832555</ele>
        <time>2020-03-09T09:05:26.689Z</time>
      </trkpt>
      <trkpt lat="44.65293" lon="3.80146">
        <ele>1131.383523</ele>
        <time>2020-03-09T09:05:34.529Z</time>
      </trkpt>
      <trkpt lat="44.65278" lon="3.8014">
        <ele>1131.220427</ele>
        <time>2020-03-09T09:05:36.973Z</time>
      </trkpt>
      <trkpt lat="44.65263" lon="3.80151">
        <ele>1131.048492</ele>
        <time>2020-03-09T09:05:39.217Z</time>
      </trkpt>
      <trkpt lat="44.6524" lon="3.80266">
        <ele>1130.197583</ele>
        <time>2020-03-09T09:05:48.374Z</time>
      </trkpt>
      <trkpt lat="44.65228" lon="3.80284">
        <ele>1129.781871</ele>
        <time>2020-03-09T09:05:50.157Z</time>
      </trkpt>
      <trkpt lat="44.65159" lon="3.80293">
        <ele>1127.57414</ele>
        <time>2020-03-09T09:05:57.033Z</time>
      </trkpt>
      <trkpt lat="44.65077" lon="3.80326">
        <ele>1124.839037</ele>
        <time>2020-03-09T09:06:05.610Z</time>
      </trkpt>
      <trkpt lat="44.65016" lon="3.80328">
        <ele>1123.492068</ele>
        <time>2020-03-09T09:06:11.917Z</time>
      </trkpt>
      <trkpt lat="44.65001" lon="3.80323">
        <ele>1123.2079</ele>
        <time>2020-03-09T09:06:13.519Z</time>
      </trkpt>
      <trkpt lat="44.64982" lon="3.80323">
        <ele>1122.863286</ele>
        <time>2020-03-09T09:06:15.538Z</time>
      </trkpt>
      <trkpt lat="44.64944" lon="3.80322">
        <ele>1122.143903</ele>
        <time>2020-03-09T09:06:19.739Z</time>
      </trkpt>
      <trkpt lat="44.6492" lon="3.80326">
        <ele>1121.691112</ele>
        <time>2020-03-09T09:06:22.513Z</time>
      </trkpt>
      <trkpt lat="44.6484" lon="3.80332">
        <ele>1121.662602</ele>
        <time>2020-03-09T09:06:33.894Z</time>
      </trkpt>
      <trkpt lat="44.64825" lon="3.80336">
        <ele>1121.896611</ele>
        <time>2020-03-09T09:06:35.731Z</time>
      </trkpt>
      <trkpt lat="44.64813" lon="3.80339">
        <ele>1122.071695</ele>
        <time>2020-03-09T09:06:37.478Z</time>
      </trkpt>
      <trkpt lat="44.64801" lon="3.80336">
        <ele>1122.271417</ele>
        <time>2020-03-09T09:06:39.891Z</time>
      </trkpt>
      <trkpt lat="44.64788" lon="3.80327">
        <ele>1122.485313</ele>
        <time>2020-03-09T09:06:41.676Z</time>
      </trkpt>
      <trkpt lat="44.64778" lon="3.80324">
        <ele>1122.646034</ele>
        <time>2020-03-09T09:06:43.594Z</time>
      </trkpt>
      <trkpt lat="44.64762" lon="3.80325">
        <ele>1122.892558</ele>
        <time>2020-03-09T09:06:47.587Z</time>
      </trkpt>
      <trkpt lat="44.64752" lon="3.80326">
        <ele>1123.044278</ele>
        <time>2020-03-09T09:06:49.386Z</time>
      </trkpt>
      <trkpt lat="44.64743" lon="3.80327">
        <ele>1123.176402</ele>
        <time>2020-03-09T09:06:51.719Z</time>
      </trkpt>
      <trkpt lat="44.64738" lon="3.80327">
        <ele>1123.262144</ele>
        <time>2020-03-09T09:06:53.982Z</time>
      </trkpt>
      <trkpt lat="44.64711" lon="3.80326">
        <ele>1123.669369</ele>
        <time>2020-03-09T09:07:01.565Z</time>
      </trkpt>
      <trkpt lat="44.64674" lon="3.80336">
        <ele>1126.151593</ele>
        <time>2020-03-09T09:07:14.997Z</time>
      </trkpt>
      <trkpt lat="44.64636" lon="3.80325">
        <ele>1129.04571</ele>
        <time>2020-03-09T09:07:33.529Z</time>
      </trkpt>
      <trkpt lat="44.64626" lon="3.80322">
        <ele>1129.839912</ele>
        <time>2020-03-09T09:07:38.448Z</time>
      </trkpt>
      <trkpt lat="44.64619" lon="3.80325">
        <ele>1130.358337</ele>
        <time>2020-03-09T09:07:41.953Z</time>
      </trkpt>
      <trkpt lat="44.64607" lon="3.80337">
        <ele>1131.467004</ele>
        <time>2020-03-09T09:07:46.997Z</time>
      </trkpt>
      <trkpt lat="44.64605" lon="3.80344">
        <ele>1131.852421</ele>
        <time>2020-03-09T09:07:51.660Z</time>
      </trkpt>
      <trkpt lat="44.64597" lon="3.80355">
        <ele>1132.675053</ele>
        <time>2020-03-09T09:07:56.118Z</time>
      </trkpt>
      <trkpt lat="44.64585" lon="3.8037">
        <ele>1133.880549</ele>
        <time>2020-03-09T09:08:02.380Z</time>
      </trkpt>
      <trkpt lat="44.64579" lon="3.80379">
        <ele>1134.505336</ele>
        <time>2020-03-09T09:08:08.012Z</time>
      </trkpt>
      <trkpt lat="44.64576" lon="3.80388">
        <ele>1135.044583</ele>
        <time>2020-03-09T09:08:10.770Z</time>
      </trkpt>
      <trkpt lat="44.64577" lon="3.80403">
        <ele>1135.830637</ele>
        <time>2020-03-09T09:08:15.928Z</time>
      </trkpt>
      <trkpt lat="44.64582" lon="3.80419">
        <ele>1136.772941</ele>
        <time>2020-03-09T09:08:20.404Z</time>
      </trkpt>
      <trkpt lat="44.64583" lon="3.80427">
        <ele>1137.208663</ele>
        <time>2020-03-09T09:08:25.387Z</time>
      </trkpt>
      <trkpt lat="44.6458" lon="3.80438">
        <ele>1137.973011</ele>
        <time>2020-03-09T09:08:29.162Z</time>
      </trkpt>
      <trkpt lat="44.64521" lon="3.80522">
        <ele>1145.427873</ele>
        <time>2020-03-09T09:09:19.029Z</time>
      </trkpt>
      <trkpt lat="44.64505" lon="3.80554">
        <ele>1147.920404</ele>
        <time>2020-03-09T09:09:33.681Z</time>
      </trkpt>
      <trkpt lat="44.64502" lon="3.80598">
        <ele>1150.703911</ele>
        <time>2020-03-09T09:09:46.407Z</time>
      </trkpt>
      <trkpt lat="44.645" lon="3.80603">
        <ele>1151.074118</ele>
        <time>2020-03-09T09:09:50.079Z</time>
      </trkpt>
      <trkpt lat="44.64496" lon="3.8061">
        <ele>1151.66742</ele>
        <time>2020-03-09T09:09:52.348Z</time>
      </trkpt>
      <trkpt lat="44.6449" lon="3.80613">
        <ele>1152.188115</ele>
        <time>2020-03-09T09:09:54.407Z</time>
      </trkpt>
      <trkpt lat="44.64483" lon="3.8061">
        <ele>1152.851427</ele>
        <time>2020-03-09T09:09:56.918Z</time>
      </trkpt>
      <trkpt lat="44.64475" lon="3.80608">
        <ele>1153.408764</ele>
        <time>2020-03-09T09:09:59.658Z</time>
      </trkpt>
      <trkpt lat="44.6447" lon="3.80602">
        <ele>1153.809362</ele>
        <time>2020-03-09T09:10:03.460Z</time>
      </trkpt>
      <trkpt lat="44.64462" lon="3.80563">
        <ele>1155.44234</ele>
        <time>2020-03-09T09:10:13.638Z</time>
      </trkpt>
      <trkpt lat="44.64468" lon="3.80505">
        <ele>1157.815491</ele>
        <time>2020-03-09T09:10:30.126Z</time>
      </trkpt>
      <trkpt lat="44.64476" lon="3.80474">
        <ele>1159.17597</ele>
        <time>2020-03-09T09:10:39.552Z</time>
      </trkpt>
      <trkpt lat="44.64473" lon="3.80428">
        <ele>1161.029309</ele>
        <time>2020-03-09T09:10:52.435Z</time>
      </trkpt>
      <trkpt lat="44.64482" lon="3.80391">
        <ele>1162.633314</ele>
        <time>2020-03-09T09:11:00.976Z</time>
      </trkpt>
      <trkpt lat="44.64495" lon="3.80374">
        <ele>1163.627596</ele>
        <time>2020-03-09T09:11:06.178Z</time>
      </trkpt>
      <trkpt lat="44.64497" lon="3.80351">
        <ele>1164.432057</ele>
        <time>2020-03-09T09:11:11.516Z</time>
      </trkpt>
      <trkpt lat="44.64449" lon="3.80223">
        <ele>1169.381175</ele>
        <time>2020-03-09T09:11:47.870Z</time>
      </trkpt>
      <trkpt lat="44.64396" lon="3.80012">
        <ele>1176.548264</ele>
        <time>2020-03-09T09:12:41.241Z</time>
      </trkpt>
      <trkpt lat="44.64384" lon="3.79994">
        <ele>1177.295732</ele>
        <time>2020-03-09T09:12:46.415Z</time>
      </trkpt>
      <trkpt lat="44.64308" lon="3.79937">
        <ele>1181.016817</ele>
        <time>2020-03-09T09:13:12.601Z</time>
      </trkpt>
      <trkpt lat="44.64277" lon="3.79904">
        <ele>1182.665636</ele>
        <time>2020-03-09T09:13:24.184Z</time>
      </trkpt>
      <trkpt lat="44.64264" lon="3.79904">
        <ele>1183.260975</ele>
        <time>2020-03-09T09:13:28.283Z</time>
      </trkpt>
      <trkpt lat="44.64254" lon="3.79912">
        <ele>1183.753123</ele>
        <time>2020-03-09T09:13:31.786Z</time>
      </trkpt>
      <trkpt lat="44.64225" lon="3.79946">
        <ele>1185.365924</ele>
        <time>2020-03-09T09:13:43.537Z</time>
      </trkpt>
      <trkpt lat="44.64201" lon="3.79962">
        <ele>1186.495852</ele>
        <time>2020-03-09T09:13:52.215Z</time>
      </trkpt>
      <trkpt lat="44.6413" lon="3.80042">
        <ele>1191.026398</ele>
        <time>2020-03-09T09:14:25.571Z</time>
      </trkpt>
      <trkpt lat="44.64104" lon="3.80056">
        <ele>1192.465221</ele>
        <time>2020-03-09T09:14:35.717Z</time>
      </trkpt>
      <trkpt lat="44.64077" lon="3.80063">
        <ele>1193.942243</ele>
        <time>2020-03-09T09:14:45.880Z</time>
      </trkpt>
      <trkpt lat="44.64007" lon="3.80067">
        <ele>1197.614555</ele>
        <time>2020-03-09T09:15:10.574Z</time>
      </trkpt>
      <trkpt lat="44.63962" lon="3.80062">
        <ele>1199.968016</ele>
        <time>2020-03-09T09:15:26.377Z</time>
      </trkpt>
      <trkpt lat="44.63951" lon="3.80066">
        <ele>1200.571428</ele>
        <time>2020-03-09T09:15:30.440Z</time>
      </trkpt>
      <trkpt lat="44.63907" lon="3.80142">
        <ele>1204.194297</ele>
        <time>2020-03-09T09:15:56.039Z</time>
      </trkpt>
      <trkpt lat="44.63872" lon="3.80164">
        <ele>1206.182494</ele>
        <time>2020-03-09T09:16:09.663Z</time>
      </trkpt>
      <trkpt lat="44.638" lon="3.80189">
        <ele>1209.537061</ele>
        <time>2020-03-09T09:16:35.069Z</time>
      </trkpt>
      <trkpt lat="44.63755" lon="3.80175">
        <ele>1211.610165</ele>
        <time>2020-03-09T09:16:50.328Z</time>
      </trkpt>
      <trkpt lat="44.63726" lon="3.80173">
        <ele>1212.912529</ele>
        <time>2020-03-09T09:16:59.607Z</time>
      </trkpt>
      <trkpt lat="44.63664" lon="3.8019">
        <ele>1215.28461</ele>
        <time>2020-03-09T09:17:18.886Z</time>
      </trkpt>
      <trkpt lat="44.63637" lon="3.80188">
        <ele>1216.089937</ele>
        <time>2020-03-09T09:17:26.289Z</time>
      </trkpt>
      <trkpt lat="44.63585" lon="3.80166">
        <ele>1217.677644</ele>
        <time>2020-03-09T09:17:39.633Z</time>
      </trkpt>
      <trkpt lat="44.63525" lon="3.8017">
        <ele>1219.47064</ele>
        <time>2020-03-09T09:17:54.600Z</time>
      </trkpt>
      <trkpt lat="44.63479" lon="3.80183">
        <ele>1221.032206</ele>
        <time>2020-03-09T09:18:06.696Z</time>
      </trkpt>
      <trkpt lat="44.63445" lon="3.80216">
        <ele>1222.451107</ele>
        <time>2020-03-09T09:18:17.926Z</time>
      </trkpt>
      <trkpt lat="44.63428" lon="3.8022">
        <ele>1223.040795</ele>
        <time>2020-03-09T09:18:22.703Z</time>
      </trkpt>
      <trkpt lat="44.63399" lon="3.80179">
        <ele>1224.471059</ele>
        <time>2020-03-09T09:18:34.436Z</time>
      </trkpt>
      <trkpt lat="44.6337" lon="3.80173">
        <ele>1225.484564</ele>
        <time>2020-03-09T09:18:43.202Z</time>
      </trkpt>
      <trkpt lat="44.63347" lon="3.80176">
        <ele>1226.425782</ele>
        <time>2020-03-09T09:18:50.529Z</time>
      </trkpt>
      <trkpt lat="44.6327" lon="3.80207">
        <ele>1230.619597</ele>
        <time>2020-03-09T09:19:20.297Z</time>
      </trkpt>
      <trkpt lat="44.63199" lon="3.80236">
        <ele>1234.536695</ele>
        <time>2020-03-09T09:19:47.743Z</time>
      </trkpt>
      <trkpt lat="44.63169" lon="3.8025">
        <ele>1236.031466</ele>
        <time>2020-03-09T09:19:59.029Z</time>
      </trkpt>
      <trkpt lat="44.63148" lon="3.80241">
        <ele>1236.980856</ele>
        <time>2020-03-09T09:20:06.585Z</time>
      </trkpt>
      <trkpt lat="44.6313" lon="3.80189">
        <ele>1238.778199</ele>
        <time>2020-03-09T09:20:20.918Z</time>
      </trkpt>
      <trkpt lat="44.63083" lon="3.80113">
        <ele>1241.89733</ele>
        <time>2020-03-09T09:20:43.576Z</time>
      </trkpt>
      <trkpt lat="44.63062" lon="3.80101">
        <ele>1242.905179</ele>
        <time>2020-03-09T09:20:49.985Z</time>
      </trkpt>
      <trkpt lat="44.62962" lon="3.80088">
        <ele>1246.257466</ele>
        <time>2020-03-09T09:21:16.781Z</time>
      </trkpt>
      <trkpt lat="44.62892" lon="3.80044">
        <ele>1248.734264</ele>
        <time>2020-03-09T09:21:37.941Z</time>
      </trkpt>
      <trkpt lat="44.6286" lon="3.80034">
        <ele>1249.953601</ele>
        <time>2020-03-09T09:21:47.677Z</time>
      </trkpt>
      <trkpt lat="44.62743" lon="3.79974">
        <ele>1254.663283</ele>
        <time>2020-03-09T09:22:25.574Z</time>
      </trkpt>
      <trkpt lat="44.62703" lon="3.79966">
        <ele>1256.209179</ele>
        <time>2020-03-09T09:22:38.101Z</time>
      </trkpt>
      <trkpt lat="44.62647" lon="3.79964">
        <ele>1258.148347</ele>
        <time>2020-03-09T09:22:54.554Z</time>
      </trkpt>
      <trkpt lat="44.62583" lon="3.79951">
        <ele>1260.427722</ele>
        <time>2020-03-09T09:23:13.158Z</time>
      </trkpt>
      <trkpt lat="44.62534" lon="3.79955">
        <ele>1262.143654</ele>
        <time>2020-03-09T09:23:26.814Z</time>
      </trkpt>
      <trkpt lat="44.62518" lon="3.79947">
        <ele>1262.660121</ele>
        <time>2020-03-09T09:23:31.385Z</time>
      </trkpt>
      <trkpt lat="44.6248" lon="3.79864">
        <ele>1264.790056</ele>
        <time>2020-03-09T09:23:50.526Z</time>
      </trkpt>
      <trkpt lat="44.62465" lon="3.79847">
        <ele>1265.37036</ele>
        <time>2020-03-09T09:23:55.747Z</time>
      </trkpt>
      <trkpt lat="44.62392" lon="3.79819">
        <ele>1267.654699</ele>
        <time>2020-03-09T09:24:15.996Z</time>
      </trkpt>
      <trkpt lat="44.6232" lon="3.79805">
        <ele>1269.05634</ele>
        <time>2020-03-09T09:24:34.660Z</time>
      </trkpt>
      <trkpt lat="44.62284" lon="3.7979">
        <ele>1269.778369</ele>
        <time>2020-03-09T09:24:43.652Z</time>
      </trkpt>
      <trkpt lat="44.62249" lon="3.79787">
        <ele>1270.442479</ele>
        <time>2020-03-09T09:24:51.177Z</time>
      </trkpt>
      <trkpt lat="44.62239" lon="3.79781">
        <ele>1270.664804</ele>
        <time>2020-03-09T09:24:53.105Z</time>
      </trkpt>
      <trkpt lat="44.62221" lon="3.79739">
        <ele>1271.217282</ele>
        <time>2020-03-09T09:24:58.328Z</time>
      </trkpt>
      <trkpt lat="44.62209" lon="3.7972">
        <ele>1271.374866</ele>
        <time>2020-03-09T09:25:00.963Z</time>
      </trkpt>
      <trkpt lat="44.62186" lon="3.79696">
        <ele>1271.621421</ele>
        <time>2020-03-09T09:25:06.129Z</time>
      </trkpt>
      <trkpt lat="44.62139" lon="3.79657">
        <ele>1272.100063</ele>
        <time>2020-03-09T09:25:16.529Z</time>
      </trkpt>
      <trkpt lat="44.62114" lon="3.79646">
        <ele>1272.330924</ele>
        <time>2020-03-09T09:25:21.058Z</time>
      </trkpt>
      <trkpt lat="44.62088" lon="3.79637">
        <ele>1272.560746</ele>
        <time>2020-03-09T09:25:26.227Z</time>
      </trkpt>
      <trkpt lat="44.62056" lon="3.79626">
        <ele>1272.795292</ele>
        <time>2020-03-09T09:25:32.824Z</time>
      </trkpt>
      <trkpt lat="44.61962" lon="3.79599">
        <ele>1273.360329</ele>
        <time>2020-03-09T09:25:51.054Z</time>
      </trkpt>
      <trkpt lat="44.61933" lon="3.79563">
        <ele>1273.589368</ele>
        <time>2020-03-09T09:25:58.654Z</time>
      </trkpt>
      <trkpt lat="44.61917" lon="3.79528">
        <ele>1273.679805</ele>
        <time>2020-03-09T09:26:02.892Z</time>
      </trkpt>
      <trkpt lat="44.61895" lon="3.79498">
        <ele>1272.904242</ele>
        <time>2020-03-09T09:26:06.460Z</time>
      </trkpt>
      <trkpt lat="44.61759" lon="3.79379">
        <ele>1268.906951</ele>
        <time>2020-03-09T09:26:22.603Z</time>
      </trkpt>
      <trkpt lat="44.61724" lon="3.79376">
        <ele>1268.263181</ele>
        <time>2020-03-09T09:26:26.178Z</time>
      </trkpt>
      <trkpt lat="44.6169" lon="3.79388">
        <ele>1267.613956</ele>
        <time>2020-03-09T09:26:30.000Z</time>
      </trkpt>
      <trkpt lat="44.61671" lon="3.79406">
        <ele>1267.178523</ele>
        <time>2020-03-09T09:26:32.627Z</time>
      </trkpt>
      <trkpt lat="44.61641" lon="3.79419">
        <ele>1266.590775</ele>
        <time>2020-03-09T09:26:36.830Z</time>
      </trkpt>
      <trkpt lat="44.61599" lon="3.79428">
        <ele>1265.812638</ele>
        <time>2020-03-09T09:26:41.749Z</time>
      </trkpt>
      <trkpt lat="44.61538" lon="3.79451">
        <ele>1265.543054</ele>
        <time>2020-03-09T09:26:49.638Z</time>
      </trkpt>
      <trkpt lat="44.61487" lon="3.7944">
        <ele>1265.319557</ele>
        <time>2020-03-09T09:26:56.790Z</time>
      </trkpt>
      <trkpt lat="44.61484" lon="3.79431">
        <ele>1265.287</ele>
        <time>2020-03-09T09:26:59.015Z</time>
      </trkpt>
      <trkpt lat="44.61484" lon="3.79415">
        <ele>1265.237703</ele>
        <time>2020-03-09T09:27:00.318Z</time>
      </trkpt>
      <trkpt lat="44.61488" lon="3.79397">
        <ele>1265.181159</ele>
        <time>2020-03-09T09:27:01.762Z</time>
      </trkpt>
      <trkpt lat="44.6152" lon="3.79377">
        <ele>1265.08994</ele>
        <time>2020-03-09T09:27:06.769Z</time>
      </trkpt>
      <trkpt lat="44.61533" lon="3.7936">
        <ele>1265.451987</ele>
        <time>2020-03-09T09:27:10.602Z</time>
      </trkpt>
      <trkpt lat="44.61539" lon="3.79343">
        <ele>1265.71619</ele>
        <time>2020-03-09T09:27:12.104Z</time>
      </trkpt>
      <trkpt lat="44.61533" lon="3.79315">
        <ele>1266.128605</ele>
        <time>2020-03-09T09:27:16.484Z</time>
      </trkpt>
      <trkpt lat="44.61516" lon="3.79302">
        <ele>1266.512509</ele>
        <time>2020-03-09T09:27:18.799Z</time>
      </trkpt>
      <trkpt lat="44.61418" lon="3.79257">
        <ele>1268.567531</ele>
        <time>2020-03-09T09:27:45.636Z</time>
      </trkpt>
      <trkpt lat="44.61338" lon="3.7919">
        <ele>1273.504127</ele>
        <time>2020-03-09T09:28:20.008Z</time>
      </trkpt>
      <trkpt lat="44.61232" lon="3.79121">
        <ele>1279.527828</ele>
        <time>2020-03-09T09:29:06.319Z</time>
      </trkpt>
      <trkpt lat="44.61093" lon="3.79077">
        <ele>1285.489562</ele>
        <time>2020-03-09T09:29:51.587Z</time>
      </trkpt>
      <trkpt lat="44.6105" lon="3.79032">
        <ele>1287.050858</ele>
        <time>2020-03-09T09:30:01.718Z</time>
      </trkpt>
      <trkpt lat="44.61045" lon="3.79019">
        <ele>1287.338353</ele>
        <time>2020-03-09T09:30:04.628Z</time>
      </trkpt>
      <trkpt lat="44.61045" lon="3.79006">
        <ele>1287.574621</ele>
        <time>2020-03-09T09:30:07.578Z</time>
      </trkpt>
      <trkpt lat="44.61051" lon="3.78995">
        <ele>1287.846013</ele>
        <time>2020-03-09T09:30:08.627Z</time>
      </trkpt>
      <trkpt lat="44.61081" lon="3.7899">
        <ele>1288.638739</ele>
        <time>2020-03-09T09:30:16.137Z</time>
      </trkpt>
      <trkpt lat="44.61139" lon="3.78999">
        <ele>1290.154044</ele>
        <time>2020-03-09T09:30:30.456Z</time>
      </trkpt>
      <trkpt lat="44.61184" lon="3.78987">
        <ele>1292.746349</ele>
        <time>2020-03-09T09:30:45.206Z</time>
      </trkpt>
      <trkpt lat="44.61195" lon="3.78976">
        <ele>1293.847058</ele>
        <time>2020-03-09T09:30:48.213Z</time>
      </trkpt>
      <trkpt lat="44.61207" lon="3.78949">
        <ele>1295.564626</ele>
        <time>2020-03-09T09:30:57.123Z</time>
      </trkpt>
      <trkpt lat="44.61246" lon="3.78753">
        <ele>1307.537778</ele>
        <time>2020-03-09T09:32:15.548Z</time>
      </trkpt>
      <trkpt lat="44.61243" lon="3.78727">
        <ele>1309.374929</ele>
        <time>2020-03-09T09:32:27.022Z</time>
      </trkpt>
      <trkpt lat="44.61231" lon="3.78686">
        <ele>1312.550633</ele>
        <time>2020-03-09T09:32:45.982Z</time>
      </trkpt>
      <trkpt lat="44.61217" lon="3.78647">
        <ele>1315.651339</ele>
        <time>2020-03-09T09:33:03.631Z</time>
      </trkpt>
      <trkpt lat="44.61191" lon="3.78598">
        <ele>1319.981281</ele>
        <time>2020-03-09T09:33:26.972Z</time>
      </trkpt>
      <trkpt lat="44.61159" lon="3.7854">
        <ele>1324.672172</ele>
        <time>2020-03-09T09:33:53.698Z</time>
      </trkpt>
      <trkpt lat="44.61068" lon="3.78417">
        <ele>1334.656599</ele>
        <time>2020-03-09T09:34:50.997Z</time>
      </trkpt>
      <trkpt lat="44.61055" lon="3.78406">
        <ele>1335.830878</ele>
        <time>2020-03-09T09:34:57.622Z</time>
      </trkpt>
      <trkpt lat="44.61044" lon="3.78398">
        <ele>1336.804451</ele>
        <time>2020-03-09T09:35:03.572Z</time>
      </trkpt>
      <trkpt lat="44.60991" lon="3.78372">
        <ele>1340.713256</ele>
        <time>2020-03-09T09:35:27.703Z</time>
      </trkpt>
      <trkpt lat="44.6097" lon="3.78369">
        <ele>1342.219221</ele>
        <time>2020-03-09T09:35:37.132Z</time>
      </trkpt>
      <trkpt lat="44.60912" lon="3.78362">
        <ele>1346.282331</ele>
        <time>2020-03-09T09:36:02.054Z</time>
      </trkpt>
      <trkpt lat="44.60893" lon="3.78358">
        <ele>1347.594546</ele>
        <time>2020-03-09T09:36:10.290Z</time>
      </trkpt>
      <trkpt lat="44.6086" lon="3.78335">
        <ele>1350.062599</ele>
        <time>2020-03-09T09:36:24.706Z</time>
      </trkpt>
      <trkpt lat="44.60823" lon="3.783">
        <ele>1352.76648</ele>
        <time>2020-03-09T09:36:42.637Z</time>
      </trkpt>
      <trkpt lat="44.60745" lon="3.78211">
        <ele>1358.880461</ele>
        <time>2020-03-09T09:37:22.057Z</time>
      </trkpt>
      <trkpt lat="44.60691" lon="3.7814">
        <ele>1362.634417</ele>
        <time>2020-03-09T09:37:49.442Z</time>
      </trkpt>
      <trkpt lat="44.60672" lon="3.781">
        <ele>1364.20262</ele>
        <time>2020-03-09T09:38:01.711Z</time>
      </trkpt>
      <trkpt lat="44.60658" lon="3.78048">
        <ele>1366.020544</ele>
        <time>2020-03-09T09:38:15.505Z</time>
      </trkpt>
      <trkpt lat="44.60643" lon="3.7782">
        <ele>1370.936349</ele>
        <time>2020-03-09T09:38:59.551Z</time>
      </trkpt>
      <trkpt lat="44.60645" lon="3.7778">
        <ele>1371.56813</ele>
        <time>2020-03-09T09:39:05.411Z</time>
      </trkpt>
      <trkpt lat="44.60642" lon="3.77768">
        <ele>1371.778803</ele>
        <time>2020-03-09T09:39:06.925Z</time>
      </trkpt>
      <trkpt lat="44.60636" lon="3.7776">
        <ele>1371.965257</ele>
        <time>2020-03-09T09:39:08.593Z</time>
      </trkpt>
      <trkpt lat="44.60616" lon="3.77749">
        <ele>1372.440988</ele>
        <time>2020-03-09T09:39:12.514Z</time>
      </trkpt>
      <trkpt lat="44.60612" lon="3.77747">
        <ele>1372.537912</ele>
        <time>2020-03-09T09:39:13.211Z</time>
      </trkpt>
      <trkpt lat="44.60589" lon="3.77738">
        <ele>1372.690762</ele>
        <time>2020-03-09T09:39:17.589Z</time>
      </trkpt>
      <trkpt lat="44.60559" lon="3.77728">
        <ele>1372.871342</ele>
        <time>2020-03-09T09:39:22.629Z</time>
      </trkpt>
      <trkpt lat="44.6048" lon="3.77742">
        <ele>1373.338572</ele>
        <time>2020-03-09T09:39:35.043Z</time>
      </trkpt>
      <trkpt lat="44.60357" lon="3.77801">
        <ele>1374.750035</ele>
        <time>2020-03-09T09:39:59.400Z</time>
      </trkpt>
      <trkpt lat="44.60247" lon="3.77833">
        <ele>1376.211225</ele>
        <time>2020-03-09T09:40:23.947Z</time>
      </trkpt>
      <trkpt lat="44.60141" lon="3.77847">
        <ele>1377.262312</ele>
        <time>2020-03-09T09:40:45.857Z</time>
      </trkpt>
      <trkpt lat="44.59976" lon="3.77858">
        <ele>1377.24022</ele>
        <time>2020-03-09T09:41:09.997Z</time>
      </trkpt>
      <trkpt lat="44.59928" lon="3.77855">
        <ele>1376.984088</ele>
        <time>2020-03-09T09:41:15.801Z</time>
      </trkpt>
      <trkpt lat="44.59745" lon="3.77815">
        <ele>1374.269195</ele>
        <time>2020-03-09T09:41:36.936Z</time>
      </trkpt>
      <trkpt lat="44.59611" lon="3.77754">
        <ele>1371.569724</ele>
        <time>2020-03-09T09:41:52.356Z</time>
      </trkpt>
      <trkpt lat="44.59493" lon="3.77639">
        <ele>1368.397502</ele>
        <time>2020-03-09T09:42:08.181Z</time>
      </trkpt>
      <trkpt lat="44.59414" lon="3.77507">
        <ele>1365.093091</ele>
        <time>2020-03-09T09:42:21.085Z</time>
      </trkpt>
      <trkpt lat="44.59387" lon="3.77462">
        <ele>1363.515373</ele>
        <time>2020-03-09T09:42:25.338Z</time>
      </trkpt>
      <trkpt lat="44.59364" lon="3.7743">
        <ele>1362.30866</ele>
        <time>2020-03-09T09:42:28.498Z</time>
      </trkpt>
      <trkpt lat="44.5935" lon="3.7742">
        <ele>1361.744308</ele>
        <time>2020-03-09T09:42:29.963Z</time>
      </trkpt>
      <trkpt lat="44.59332" lon="3.77418">
        <ele>1361.059953</ele>
        <time>2020-03-09T09:42:31.727Z</time>
      </trkpt>
      <trkpt lat="44.59325" lon="3.7742">
        <ele>1360.789351</ele>
        <time>2020-03-09T09:42:32.468Z</time>
      </trkpt>
      <trkpt lat="44.59318" lon="3.77422">
        <ele>1360.530775</ele>
        <time>2020-03-09T09:42:33.103Z</time>
      </trkpt>
      <trkpt lat="44.59142" lon="3.77509">
        <ele>1352.960181</ele>
        <time>2020-03-09T09:42:51.076Z</time>
      </trkpt>
      <trkpt lat="44.59095" lon="3.77545">
        <ele>1351.102061</ele>
        <time>2020-03-09T09:42:56.507Z</time>
      </trkpt>
      <trkpt lat="44.59077" lon="3.7757">
        <ele>1350.351387</ele>
        <time>2020-03-09T09:42:59.041Z</time>
      </trkpt>
      <trkpt lat="44.59062" lon="3.77614">
        <ele>1349.282919</ele>
        <time>2020-03-09T09:43:02.680Z</time>
      </trkpt>
      <trkpt lat="44.59061" lon="3.77651">
        <ele>1348.478371</ele>
        <time>2020-03-09T09:43:05.451Z</time>
      </trkpt>
      <trkpt lat="44.59074" lon="3.77694">
        <ele>1347.46442</ele>
        <time>2020-03-09T09:43:08.960Z</time>
      </trkpt>
      <trkpt lat="44.59072" lon="3.77713">
        <ele>1347.060976</ele>
        <time>2020-03-09T09:43:10.340Z</time>
      </trkpt>
      <trkpt lat="44.59065" lon="3.77725">
        <ele>1346.725838</ele>
        <time>2020-03-09T09:43:11.478Z</time>
      </trkpt>
      <trkpt lat="44.59056" lon="3.77729">
        <ele>1346.448021</ele>
        <time>2020-03-09T09:43:12.425Z</time>
      </trkpt>
      <trkpt lat="44.59031" lon="3.77722">
        <ele>1345.681562</ele>
        <time>2020-03-09T09:43:14.997Z</time>
      </trkpt>
      <trkpt lat="44.5897" lon="3.77673">
        <ele>1343.537801</ele>
        <time>2020-03-09T09:43:22.101Z</time>
      </trkpt>
      <trkpt lat="44.58911" lon="3.7765">
        <ele>1341.699422</ele>
        <time>2020-03-09T09:43:28.243Z</time>
      </trkpt>
      <trkpt lat="44.58834" lon="3.77652">
        <ele>1339.607305</ele>
        <time>2020-03-09T09:43:36.552Z</time>
      </trkpt>
      <trkpt lat="44.58773" lon="3.77685">
        <ele>1337.885931</ele>
        <time>2020-03-09T09:43:43.498Z</time>
      </trkpt>
      <trkpt lat="44.5876" lon="3.77687">
        <ele>1337.558173</ele>
        <time>2020-03-09T09:43:44.716Z</time>
      </trkpt>
      <trkpt lat="44.58753" lon="3.77683">
        <ele>1337.367385</ele>
        <time>2020-03-09T09:43:45.572Z</time>
      </trkpt>
      <trkpt lat="44.58745" lon="3.77678">
        <ele>1337.123711</ele>
        <time>2020-03-09T09:43:46.607Z</time>
      </trkpt>
      <trkpt lat="44.58737" lon="3.77674">
        <ele>1336.910799</ele>
        <time>2020-03-09T09:43:47.520Z</time>
      </trkpt>
      <trkpt lat="44.58732" lon="3.77653">
        <ele>1336.485797</ele>
        <time>2020-03-09T09:43:49.131Z</time>
      </trkpt>
      <trkpt lat="44.58728" lon="3.77629">
        <ele>1335.954853</ele>
        <time>2020-03-09T09:43:51.044Z</time>
      </trkpt>
      <trkpt lat="44.58721" lon="3.77617">
        <ele>1335.586416</ele>
        <time>2020-03-09T09:43:52.173Z</time>
      </trkpt>
      <trkpt lat="44.58668" lon="3.77553">
        <ele>1333.361442</ele>
        <time>2020-03-09T09:43:59.489Z</time>
      </trkpt>
      <trkpt lat="44.58606" lon="3.77505">
        <ele>1331.106304</ele>
        <time>2020-03-09T09:44:06.509Z</time>
      </trkpt>
      <trkpt lat="44.58516" lon="3.77477">
        <ele>1327.51675</ele>
        <time>2020-03-09T09:44:15.570Z</time>
      </trkpt>
      <trkpt lat="44.58496" lon="3.77465">
        <ele>1326.651396</ele>
        <time>2020-03-09T09:44:17.691Z</time>
      </trkpt>
      <trkpt lat="44.5838" lon="3.77369">
        <ele>1320.748253</ele>
        <time>2020-03-09T09:44:30.793Z</time>
      </trkpt>
      <trkpt lat="44.58302" lon="3.7727">
        <ele>1315.670722</ele>
        <time>2020-03-09T09:44:40.636Z</time>
      </trkpt>
      <trkpt lat="44.58214" lon="3.77206">
        <ele>1310.130995</ele>
        <time>2020-03-09T09:44:49.868Z</time>
      </trkpt>
      <trkpt lat="44.58022" lon="3.76978">
        <ele>1295.49174</ele>
        <time>2020-03-09T09:45:13.033Z</time>
      </trkpt>
      <trkpt lat="44.5795" lon="3.76884">
        <ele>1289.63301</ele>
        <time>2020-03-09T09:45:22.076Z</time>
      </trkpt>
      <trkpt lat="44.57849" lon="3.76678">
        <ele>1278.869393</ele>
        <time>2020-03-09T09:45:38.447Z</time>
      </trkpt>
      <trkpt lat="44.57817" lon="3.76586">
        <ele>1274.434035</ele>
        <time>2020-03-09T09:45:45.104Z</time>
      </trkpt>
      <trkpt lat="44.5773" lon="3.76375">
        <ele>1264.15215</ele>
        <time>2020-03-09T09:46:01.077Z</time>
      </trkpt>
      <trkpt lat="44.57716" lon="3.76238">
        <ele>1257.863824</ele>
        <time>2020-03-09T09:46:10.189Z</time>
      </trkpt>
      <trkpt lat="44.57711" lon="3.76203">
        <ele>1256.155081</ele>
        <time>2020-03-09T09:46:12.522Z</time>
      </trkpt>
      <trkpt lat="44.57709" lon="3.76195">
        <ele>1255.737284</ele>
        <time>2020-03-09T09:46:13.099Z</time>
      </trkpt>
      <trkpt lat="44.57704" lon="3.7617">
        <ele>1254.536326</ele>
        <time>2020-03-09T09:46:14.698Z</time>
      </trkpt>
      <trkpt lat="44.57697" lon="3.7615">
        <ele>1253.437967</ele>
        <time>2020-03-09T09:46:16.217Z</time>
      </trkpt>
      <trkpt lat="44.57682" lon="3.76134">
        <ele>1252.155648</ele>
        <time>2020-03-09T09:46:17.909Z</time>
      </trkpt>
      <trkpt lat="44.57651" lon="3.76113">
        <ele>1249.896574</ele>
        <time>2020-03-09T09:46:20.919Z</time>
      </trkpt>
      <trkpt lat="44.57589" lon="3.76101">
        <ele>1244.668865</ele>
        <time>2020-03-09T09:46:26.462Z</time>
      </trkpt>
      <trkpt lat="44.5757" lon="3.76106">
        <ele>1243.019604</ele>
        <time>2020-03-09T09:46:28.152Z</time>
      </trkpt>
      <trkpt lat="44.57549" lon="3.76119">
        <ele>1241.052498</ele>
        <time>2020-03-09T09:46:30.201Z</time>
      </trkpt>
      <trkpt lat="44.57487" lon="3.76204">
        <ele>1233.727221</ele>
        <time>2020-03-09T09:46:37.715Z</time>
      </trkpt>
      <trkpt lat="44.57473" lon="3.76213">
        <ele>1232.264837</ele>
        <time>2020-03-09T09:46:39.109Z</time>
      </trkpt>
      <trkpt lat="44.5746" lon="3.76211">
        <ele>1231.125641</ele>
        <time>2020-03-09T09:46:40.181Z</time>
      </trkpt>
      <trkpt lat="44.57453" lon="3.76198">
        <ele>1230.03403</ele>
        <time>2020-03-09T09:46:41.216Z</time>
      </trkpt>
      <trkpt lat="44.57451" lon="3.7614">
        <ele>1226.248867</ele>
        <time>2020-03-09T09:46:44.822Z</time>
      </trkpt>
      <trkpt lat="44.57442" lon="3.76112">
        <ele>1224.283109</ele>
        <time>2020-03-09T09:46:46.694Z</time>
      </trkpt>
      <trkpt lat="44.57429" lon="3.76089">
        <ele>1222.382522</ele>
        <time>2020-03-09T09:46:48.499Z</time>
      </trkpt>
      <trkpt lat="44.57406" lon="3.76068">
        <ele>1219.85301</ele>
        <time>2020-03-09T09:46:50.898Z</time>
      </trkpt>
      <trkpt lat="44.57379" lon="3.76063">
        <ele>1217.297322</ele>
        <time>2020-03-09T09:46:53.285Z</time>
      </trkpt>
      <trkpt lat="44.57288" lon="3.76086">
        <ele>1208.391793</ele>
        <time>2020-03-09T09:47:01.207Z</time>
      </trkpt>
      <trkpt lat="44.57216" lon="3.76104">
        <ele>1201.298247</ele>
        <time>2020-03-09T09:47:07.549Z</time>
      </trkpt>
      <trkpt lat="44.57194" lon="3.76105">
        <ele>1199.438835</ele>
        <time>2020-03-09T09:47:09.462Z</time>
      </trkpt>
      <trkpt lat="44.5717" lon="3.76101">
        <ele>1197.670199</ele>
        <time>2020-03-09T09:47:11.513Z</time>
      </trkpt>
      <trkpt lat="44.57141" lon="3.76078">
        <ele>1195.201057</ele>
        <time>2020-03-09T09:47:14.402Z</time>
      </trkpt>
      <trkpt lat="44.57122" lon="3.76051">
        <ele>1193.117507</ele>
        <time>2020-03-09T09:47:16.860Z</time>
      </trkpt>
      <trkpt lat="44.57063" lon="3.75925">
        <ele>1185.758005</ele>
        <time>2020-03-09T09:47:26.621Z</time>
      </trkpt>
      <trkpt lat="44.57022" lon="3.75855">
        <ele>1182.641097</ele>
        <time>2020-03-09T09:47:32.856Z</time>
      </trkpt>
      <trkpt lat="44.57022" lon="3.75854">
        <ele>1182.608949</ele>
        <time>2020-03-09T09:47:32.920Z</time>
      </trkpt>
      <trkpt lat="44.57018" lon="3.75839">
        <ele>1182.075203</ele>
        <time>2020-03-09T09:47:33.989Z</time>
      </trkpt>
      <trkpt lat="44.5702" lon="3.75796">
        <ele>1180.591887</ele>
        <time>2020-03-09T09:47:37.000Z</time>
      </trkpt>
      <trkpt lat="44.57016" lon="3.75775">
        <ele>1179.849826</ele>
        <time>2020-03-09T09:47:38.483Z</time>
      </trkpt>
      <trkpt lat="44.57007" lon="3.75753">
        <ele>1178.981317</ele>
        <time>2020-03-09T09:47:40.302Z</time>
      </trkpt>
      <trkpt lat="44.57004" lon="3.75746">
        <ele>1178.725213</ele>
        <time>2020-03-09T09:47:40.819Z</time>
      </trkpt>
      <trkpt lat="44.56991" lon="3.75723">
        <ele>1177.808243</ele>
        <time>2020-03-09T09:47:42.845Z</time>
      </trkpt>
      <trkpt lat="44.5699" lon="3.75707">
        <ele>1177.334822</ele>
        <time>2020-03-09T09:47:43.986Z</time>
      </trkpt>
      <trkpt lat="44.56998" lon="3.75679">
        <ele>1176.47529</ele>
        <time>2020-03-09T09:47:45.998Z</time>
      </trkpt>
      <trkpt lat="44.56996" lon="3.75661">
        <ele>1175.933445</ele>
        <time>2020-03-09T09:47:47.297Z</time>
      </trkpt>
      <trkpt lat="44.56966" lon="3.75628">
        <ele>1174.392311</ele>
        <time>2020-03-09T09:47:50.962Z</time>
      </trkpt>
      <trkpt lat="44.5692" lon="3.75612">
        <ele>1172.466501</ele>
        <time>2020-03-09T09:47:55.629Z</time>
      </trkpt>
      <trkpt lat="44.5689" lon="3.75601">
        <ele>1171.234823</ele>
        <time>2020-03-09T09:47:58.638Z</time>
      </trkpt>
      <trkpt lat="44.56885" lon="3.75598">
        <ele>1171.005321</ele>
        <time>2020-03-09T09:47:59.260Z</time>
      </trkpt>
      <trkpt lat="44.56867" lon="3.75586">
        <ele>1170.606378</ele>
        <time>2020-03-09T09:48:01.247Z</time>
      </trkpt>
      <trkpt lat="44.56839" lon="3.75565">
        <ele>1169.974947</ele>
        <time>2020-03-09T09:48:04.587Z</time>
      </trkpt>
      <trkpt lat="44.56803" lon="3.75464">
        <ele>1168.368227</ele>
        <time>2020-03-09T09:48:13.387Z</time>
      </trkpt>
      <trkpt lat="44.56794" lon="3.7545">
        <ele>1168.115215</ele>
        <time>2020-03-09T09:48:14.870Z</time>
      </trkpt>
      <trkpt lat="44.56785" lon="3.7544">
        <ele>1167.880382</ele>
        <time>2020-03-09T09:48:16.481Z</time>
      </trkpt>
      <trkpt lat="44.56765" lon="3.7544">
        <ele>1167.474456</ele>
        <time>2020-03-09T09:48:19.049Z</time>
      </trkpt>
      <trkpt lat="44.56755" lon="3.75414">
        <ele>1167.451702</ele>
        <time>2020-03-09T09:48:22.384Z</time>
      </trkpt>
      <trkpt lat="44.56745" lon="3.75378">
        <ele>1167.462327</ele>
        <time>2020-03-09T09:48:26.346Z</time>
      </trkpt>
      <trkpt lat="44.56727" lon="3.75343">
        <ele>1167.474012</ele>
        <time>2020-03-09T09:48:30.791Z</time>
      </trkpt>
      <trkpt lat="44.56702" lon="3.75324">
        <ele>1167.485084</ele>
        <time>2020-03-09T09:48:35.153Z</time>
      </trkpt>
      <trkpt lat="44.56654" lon="3.75302">
        <ele>1167.504577</ele>
        <time>2020-03-09T09:48:43.656Z</time>
      </trkpt>
      <trkpt lat="44.56597" lon="3.75267">
        <ele>1167.682435</ele>
        <time>2020-03-09T09:48:54.038Z</time>
      </trkpt>
      <trkpt lat="44.56547" lon="3.75224">
        <ele>1167.932708</ele>
        <time>2020-03-09T09:49:03.554Z</time>
      </trkpt>
      <trkpt lat="44.5653" lon="3.75178">
        <ele>1168.09137</ele>
        <time>2020-03-09T09:49:09.604Z</time>
      </trkpt>
      <trkpt lat="44.56532" lon="3.75133">
        <ele>1168.226568</ele>
        <time>2020-03-09T09:49:14.762Z</time>
      </trkpt>
      <trkpt lat="44.56553" lon="3.75062">
        <ele>1168.700648</ele>
        <time>2020-03-09T09:49:24.130Z</time>
      </trkpt>
      <trkpt lat="44.56557" lon="3.7503">
        <ele>1168.930029</ele>
        <time>2020-03-09T09:49:27.631Z</time>
      </trkpt>
      <trkpt lat="44.56553" lon="3.74895">
        <ele>1169.875651</ele>
        <time>2020-03-09T09:49:46.685Z</time>
      </trkpt>
      <trkpt lat="44.5655" lon="3.74878">
        <ele>1170.001781</ele>
        <time>2020-03-09T09:49:48.746Z</time>
      </trkpt>
      <trkpt lat="44.56548" lon="3.74863">
        <ele>1170.132731</ele>
        <time>2020-03-09T09:49:51.739Z</time>
      </trkpt>
      <trkpt lat="44.56522" lon="3.74769">
        <ele>1171.254617</ele>
        <time>2020-03-09T09:50:07.502Z</time>
      </trkpt>
      <trkpt lat="44.56515" lon="3.7464">
        <ele>1172.679224</ele>
        <time>2020-03-09T09:50:27.440Z</time>
      </trkpt>
      <trkpt lat="44.56524" lon="3.74605">
        <ele>1172.920552</ele>
        <time>2020-03-09T09:50:32.592Z</time>
      </trkpt>
      <trkpt lat="44.56574" lon="3.74532">
        <ele>1173.241428</ele>
        <time>2020-03-09T09:50:45.201Z</time>
      </trkpt>
      <trkpt lat="44.56591" lon="3.74498">
        <ele>1173.374713</ele>
        <time>2020-03-09T09:50:49.543Z</time>
      </trkpt>
      <trkpt lat="44.56591" lon="3.74497">
        <ele>1173.37576</ele>
        <time>2020-03-09T09:50:49.569Z</time>
      </trkpt>
      <trkpt lat="44.56601" lon="3.74467">
        <ele>1173.481741</ele>
        <time>2020-03-09T09:50:52.951Z</time>
      </trkpt>
      <trkpt lat="44.56608" lon="3.74404">
        <ele>1173.796457</ele>
        <time>2020-03-09T09:50:59.119Z</time>
      </trkpt>
      <trkpt lat="44.56607" lon="3.7432">
        <ele>1175.051271</ele>
        <time>2020-03-09T09:51:09.836Z</time>
      </trkpt>
      <trkpt lat="44.56612" lon="3.74293">
        <ele>1175.465953</ele>
        <time>2020-03-09T09:51:13.664Z</time>
      </trkpt>
      <trkpt lat="44.56609" lon="3.74292">
        <ele>1175.526463</ele>
        <time>2020-03-09T09:51:14.290Z</time>
      </trkpt>
      <trkpt lat="44.56596" lon="3.74286">
        <ele>1175.802193</ele>
        <time>2020-03-09T09:51:18.597Z</time>
      </trkpt>
      <trkpt lat="44.56583" lon="3.7428">
        <ele>1176.099773</ele>
        <time>2020-03-09T09:51:21.990Z</time>
      </trkpt>
      <trkpt lat="44.56564" lon="3.74272">
        <ele>1176.500919</ele>
        <time>2020-03-09T09:51:27.427Z</time>
      </trkpt>
      <trkpt lat="44.56539" lon="3.74268">
        <ele>1177.035652</ele>
        <time>2020-03-09T09:51:34.097Z</time>
      </trkpt>
      <trkpt lat="44.56532" lon="3.74271">
        <ele>1177.192027</ele>
        <time>2020-03-09T09:51:36.727Z</time>
      </trkpt>
      <trkpt lat="44.56523" lon="3.74281">
        <ele>1177.463892</ele>
        <time>2020-03-09T09:51:40.919Z</time>
      </trkpt>
      <trkpt lat="44.56511" lon="3.74303">
        <ele>1178.434923</ele>
        <time>2020-03-09T09:51:46.006Z</time>
      </trkpt>
      <trkpt lat="44.56497" lon="3.74336">
        <ele>1179.743611</ele>
        <time>2020-03-09T09:51:55.107Z</time>
      </trkpt>
      <trkpt lat="44.56493" lon="3.74345">
        <ele>1180.129864</ele>
        <time>2020-03-09T09:51:57.447Z</time>
      </trkpt>
      <trkpt lat="44.56484" lon="3.74363">
        <ele>1180.904507</ele>
        <time>2020-03-09T09:52:04.335Z</time>
      </trkpt>
      <trkpt lat="44.56477" lon="3.74386">
        <ele>1181.773424</ele>
        <time>2020-03-09T09:52:09.707Z</time>
      </trkpt>
      <trkpt lat="44.56481" lon="3.74443">
        <ele>1183.779746</ele>
        <time>2020-03-09T09:52:25.001Z</time>
      </trkpt>
      <trkpt lat="44.56444" lon="3.74527">
        <ele>1187.119825</ele>
        <time>2020-03-09T09:52:50.890Z</time>
      </trkpt>
      <trkpt lat="44.56437" lon="3.7453">
        <ele>1187.447851</ele>
        <time>2020-03-09T09:52:53.788Z</time>
      </trkpt>
      <trkpt lat="44.56428" lon="3.74522">
        <ele>1187.910163</ele>
        <time>2020-03-09T09:52:57.453Z</time>
      </trkpt>
      <trkpt lat="44.5641" lon="3.74461">
        <ele>1189.995088</ele>
        <time>2020-03-09T09:53:11.382Z</time>
      </trkpt>
      <trkpt lat="44.56396" lon="3.74446">
        <ele>1190.785191</ele>
        <time>2020-03-09T09:53:16.583Z</time>
      </trkpt>
      <trkpt lat="44.5638" lon="3.74449">
        <ele>1191.486001</ele>
        <time>2020-03-09T09:53:21.438Z</time>
      </trkpt>
      <trkpt lat="44.56366" lon="3.74472">
        <ele>1192.436627</ele>
        <time>2020-03-09T09:53:28.565Z</time>
      </trkpt>
      <trkpt lat="44.56346" lon="3.74509">
        <ele>1193.885561</ele>
        <time>2020-03-09T09:53:39.253Z</time>
      </trkpt>
      <trkpt lat="44.56323" lon="3.74553">
        <ele>1195.845731</ele>
        <time>2020-03-09T09:53:51.888Z</time>
      </trkpt>
      <trkpt lat="44.56297" lon="3.74604">
        <ele>1198.111277</ele>
        <time>2020-03-09T09:54:06.536Z</time>
      </trkpt>
      <trkpt lat="44.56282" lon="3.74627">
        <ele>1199.242132</ele>
        <time>2020-03-09T09:54:14.645Z</time>
      </trkpt>
      <trkpt lat="44.56278" lon="3.74677">
        <ele>1201.073532</ele>
        <time>2020-03-09T09:54:27.488Z</time>
      </trkpt>
      <trkpt lat="44.56272" lon="3.74683">
        <ele>1201.452811</ele>
        <time>2020-03-09T09:54:30.020Z</time>
      </trkpt>
      <trkpt lat="44.56247" lon="3.74686">
        <ele>1202.699302</ele>
        <time>2020-03-09T09:54:39.474Z</time>
      </trkpt>
      <trkpt lat="44.56205" lon="3.74729">
        <ele>1205.3706</ele>
        <time>2020-03-09T09:55:00.238Z</time>
      </trkpt>
      <trkpt lat="44.56193" lon="3.74802">
        <ele>1208.085995</ele>
        <time>2020-03-09T09:55:20.824Z</time>
      </trkpt>
      <trkpt lat="44.56164" lon="3.74861">
        <ele>1210.694003</ele>
        <time>2020-03-09T09:55:38.519Z</time>
      </trkpt>
      <trkpt lat="44.56135" lon="3.74924">
        <ele>1212.699758</ele>
        <time>2020-03-09T09:55:54.751Z</time>
      </trkpt>
      <trkpt lat="44.561" lon="3.75027">
        <ele>1213.771828</ele>
        <time>2020-03-09T09:56:14.529Z</time>
      </trkpt>
      <trkpt lat="44.56087" lon="3.75105">
        <ele>1214.532568</ele>
        <time>2020-03-09T09:56:23.075Z</time>
      </trkpt>
      <trkpt lat="44.56071" lon="3.7516">
        <ele>1214.390168</ele>
        <time>2020-03-09T09:56:28.044Z</time>
      </trkpt>
      <trkpt lat="44.56057" lon="3.75202">
        <ele>1213.654711</ele>
        <time>2020-03-09T09:56:31.732Z</time>
      </trkpt>
      <trkpt lat="44.56023" lon="3.75269">
        <ele>1212.360108</ele>
        <time>2020-03-09T09:56:37.854Z</time>
      </trkpt>
      <trkpt lat="44.55966" lon="3.75346">
        <ele>1210.708462</ele>
        <time>2020-03-09T09:56:46.043Z</time>
      </trkpt>
      <trkpt lat="44.55964" lon="3.75348">
        <ele>1210.664872</ele>
        <time>2020-03-09T09:56:46.369Z</time>
      </trkpt>
      <trkpt lat="44.55947" lon="3.75368">
        <ele>1210.35145</ele>
        <time>2020-03-09T09:56:48.702Z</time>
      </trkpt>
      <trkpt lat="44.55927" lon="3.75381">
        <ele>1210.036331</ele>
        <time>2020-03-09T09:56:51.081Z</time>
      </trkpt>
      <trkpt lat="44.55866" lon="3.7541">
        <ele>1209.105809</ele>
        <time>2020-03-09T09:56:58.507Z</time>
      </trkpt>
      <trkpt lat="44.55783" lon="3.7543">
        <ele>1208.395723</ele>
        <time>2020-03-09T09:57:09.641Z</time>
      </trkpt>
      <trkpt lat="44.55662" lon="3.75476">
        <ele>1208.938466</ele>
        <time>2020-03-09T09:57:31.709Z</time>
      </trkpt>
      <trkpt lat="44.55497" lon="3.75604">
        <ele>1210.510869</ele>
        <time>2020-03-09T09:58:05.900Z</time>
      </trkpt>
      <trkpt lat="44.55449" lon="3.75635">
        <ele>1211.111489</ele>
        <time>2020-03-09T09:58:16.103Z</time>
      </trkpt>
      <trkpt lat="44.55382" lon="3.75668">
        <ele>1212.025162</ele>
        <time>2020-03-09T09:58:30.698Z</time>
      </trkpt>
      <trkpt lat="44.55345" lon="3.75675">
        <ele>1212.509104</ele>
        <time>2020-03-09T09:58:38.018Z</time>
      </trkpt>
      <trkpt lat="44.553" lon="3.75666">
        <ele>1213.166136</ele>
        <time>2020-03-09T09:58:46.307Z</time>
      </trkpt>
      <trkpt lat="44.55282" lon="3.75662">
        <ele>1213.61784</ele>
        <time>2020-03-09T09:58:49.718Z</time>
      </trkpt>
      <trkpt lat="44.55156" lon="3.75603">
        <ele>1216.896009</ele>
        <time>2020-03-09T09:59:22.569Z</time>
      </trkpt>
      <trkpt lat="44.55148" lon="3.75593">
        <ele>1217.169317</ele>
        <time>2020-03-09T09:59:25.539Z</time>
      </trkpt>
      <trkpt lat="44.55144" lon="3.75579">
        <ele>1217.425209</ele>
        <time>2020-03-09T09:59:29.179Z</time>
      </trkpt>
      <trkpt lat="44.55144" lon="3.75531">
        <ele>1219.20212</ele>
        <time>2020-03-09T09:59:39.436Z</time>
      </trkpt>
      <trkpt lat="44.55146" lon="3.75417">
        <ele>1223.415384</ele>
        <time>2020-03-09T10:00:07.211Z</time>
      </trkpt>
      <trkpt lat="44.55146" lon="3.75403">
        <ele>1223.939708</ele>
        <time>2020-03-09T10:00:11.517Z</time>
      </trkpt>
      <trkpt lat="44.55149" lon="3.75312">
        <ele>1227.630893</ele>
        <time>2020-03-09T10:00:36.673Z</time>
      </trkpt>
      <trkpt lat="44.55144" lon="3.75111">
        <ele>1239.634844</ele>
        <time>2020-03-09T10:01:45.055Z</time>
      </trkpt>
      <trkpt lat="44.55146" lon="3.75045">
        <ele>1244.018251</ele>
        <time>2020-03-09T10:02:10.831Z</time>
      </trkpt>
      <trkpt lat="44.55142" lon="3.75028">
        <ele>1245.413181</ele>
        <time>2020-03-09T10:02:19.993Z</time>
      </trkpt>
      <trkpt lat="44.55118" lon="3.7499">
        <ele>1249.244968</ele>
        <time>2020-03-09T10:02:41.546Z</time>
      </trkpt>
      <trkpt lat="44.55085" lon="3.74959">
        <ele>1253.515486</ele>
        <time>2020-03-09T10:03:05.265Z</time>
      </trkpt>
      <trkpt lat="44.55048" lon="3.74936">
        <ele>1257.762368</ele>
        <time>2020-03-09T10:03:29.113Z</time>
      </trkpt>
      <trkpt lat="44.55048" lon="3.74935">
        <ele>1257.833146</ele>
        <time>2020-03-09T10:03:29.428Z</time>
      </trkpt>
      <trkpt lat="44.55016" lon="3.74914">
        <ele>1261.434918</ele>
        <time>2020-03-09T10:03:49.452Z</time>
      </trkpt>
      <trkpt lat="44.54876" lon="3.74838">
        <ele>1274.653814</ele>
        <time>2020-03-09T10:05:04.344Z</time>
      </trkpt>
      <trkpt lat="44.54796" lon="3.74817">
        <ele>1281.59866</ele>
        <time>2020-03-09T10:05:40.531Z</time>
      </trkpt>
      <trkpt lat="44.54708" lon="3.74807">
        <ele>1289.064335</ele>
        <time>2020-03-09T10:06:25.637Z</time>
      </trkpt>
      <trkpt lat="44.5468" lon="3.74787">
        <ele>1291.768869</ele>
        <time>2020-03-09T10:06:41.213Z</time>
      </trkpt>
      <trkpt lat="44.54652" lon="3.74764">
        <ele>1294.386828</ele>
        <time>2020-03-09T10:06:57.119Z</time>
      </trkpt>
      <trkpt lat="44.54632" lon="3.74749">
        <ele>1296.17604</ele>
        <time>2020-03-09T10:07:08.181Z</time>
      </trkpt>
      <trkpt lat="44.54591" lon="3.74736">
        <ele>1299.568908</ele>
        <time>2020-03-09T10:07:28.200Z</time>
      </trkpt>
      <trkpt lat="44.54552" lon="3.74694">
        <ele>1303.521688</ele>
        <time>2020-03-09T10:07:51.198Z</time>
      </trkpt>
      <trkpt lat="44.54535" lon="3.74683">
        <ele>1305.032547</ele>
        <time>2020-03-09T10:08:00.511Z</time>
      </trkpt>
      <trkpt lat="44.54506" lon="3.74677">
        <ele>1307.267437</ele>
        <time>2020-03-09T10:08:13.086Z</time>
      </trkpt>
      <trkpt lat="44.54484" lon="3.74682">
        <ele>1308.820518</ele>
        <time>2020-03-09T10:08:21.633Z</time>
      </trkpt>
      <trkpt lat="44.5444" lon="3.74712">
        <ele>1312.279033</ele>
        <time>2020-03-09T10:08:41.317Z</time>
      </trkpt>
      <trkpt lat="44.54371" lon="3.74778">
        <ele>1318.172278</ele>
        <time>2020-03-09T10:09:17.773Z</time>
      </trkpt>
      <trkpt lat="44.54303" lon="3.7483">
        <ele>1325.19908</ele>
        <time>2020-03-09T10:09:52.537Z</time>
      </trkpt>
      <trkpt lat="44.54195" lon="3.74941">
        <ele>1338.577432</ele>
        <time>2020-03-09T10:11:09.471Z</time>
      </trkpt>
      <trkpt lat="44.54173" lon="3.74957">
        <ele>1341.809094</ele>
        <time>2020-03-09T10:11:23.802Z</time>
      </trkpt>
      <trkpt lat="44.54167" lon="3.74961">
        <ele>1342.579341</ele>
        <time>2020-03-09T10:11:29.029Z</time>
      </trkpt>
      <trkpt lat="44.54151" lon="3.74975">
        <ele>1344.983488</ele>
        <time>2020-03-09T10:11:39.885Z</time>
      </trkpt>
      <trkpt lat="44.54129" lon="3.75016">
        <ele>1349.729625</ele>
        <time>2020-03-09T10:12:04.488Z</time>
      </trkpt>
      <trkpt lat="44.54111" lon="3.75091">
        <ele>1356.858029</ele>
        <time>2020-03-09T10:12:45.246Z</time>
      </trkpt>
      <trkpt lat="44.54113" lon="3.75146">
        <ele>1361.799495</ele>
        <time>2020-03-09T10:13:14.775Z</time>
      </trkpt>
      <trkpt lat="44.54076" lon="3.75222">
        <ele>1369.787616</ele>
        <time>2020-03-09T10:13:58.234Z</time>
      </trkpt>
      <trkpt lat="44.54068" lon="3.7522">
        <ele>1370.790698</ele>
        <time>2020-03-09T10:14:03.642Z</time>
      </trkpt>
      <trkpt lat="44.54051" lon="3.7519">
        <ele>1374.154505</ele>
        <time>2020-03-09T10:14:21.417Z</time>
      </trkpt>
      <trkpt lat="44.54036" lon="3.75176">
        <ele>1376.378295</ele>
        <time>2020-03-09T10:14:33.129Z</time>
      </trkpt>
      <trkpt lat="44.53875" lon="3.75106">
        <ele>1392.63102</ele>
        <time>2020-03-09T10:16:01.442Z</time>
      </trkpt>
      <trkpt lat="44.53875" lon="3.75084">
        <ele>1393.985551</ele>
        <time>2020-03-09T10:16:08.721Z</time>
      </trkpt>
      <trkpt lat="44.53895" lon="3.75058">
        <ele>1396.400666</ele>
        <time>2020-03-09T10:16:20.425Z</time>
      </trkpt>
      <trkpt lat="44.53906" lon="3.75032">
        <ele>1398.089415</ele>
        <time>2020-03-09T10:16:30.590Z</time>
      </trkpt>
      <trkpt lat="44.53914" lon="3.74984">
        <ele>1400.562587</ele>
        <time>2020-03-09T10:16:45.654Z</time>
      </trkpt>
      <trkpt lat="44.53913" lon="3.74971">
        <ele>1401.212181</ele>
        <time>2020-03-09T10:16:48.583Z</time>
      </trkpt>
      <trkpt lat="44.53913" lon="3.74933">
        <ele>1403.110239</ele>
        <time>2020-03-09T10:17:00.737Z</time>
      </trkpt>
      <trkpt lat="44.53907" lon="3.7484">
        <ele>1407.811296</ele>
        <time>2020-03-09T10:17:27.221Z</time>
      </trkpt>
      <trkpt lat="44.53909" lon="3.74803">
        <ele>1409.685564</ele>
        <time>2020-03-09T10:17:39.415Z</time>
      </trkpt>
      <trkpt lat="44.53925" lon="3.74715">
        <ele>1414.531698</ele>
        <time>2020-03-09T10:18:09.558Z</time>
      </trkpt>
      <trkpt lat="44.53951" lon="3.74632">
        <ele>1419.387144</ele>
        <time>2020-03-09T10:18:38.475Z</time>
      </trkpt>
      <trkpt lat="44.5395" lon="3.74624">
        <ele>1419.848264</ele>
        <time>2020-03-09T10:18:40.758Z</time>
      </trkpt>
      <trkpt lat="44.53945" lon="3.74619">
        <ele>1420.278605</ele>
        <time>2020-03-09T10:18:43.755Z</time>
      </trkpt>
      <trkpt lat="44.53941" lon="3.74618">
        <ele>1420.582021</ele>
        <time>2020-03-09T10:18:46.965Z</time>
      </trkpt>
      <trkpt lat="44.53936" lon="3.74624">
        <ele>1421.070778</ele>
        <time>2020-03-09T10:18:49.392Z</time>
      </trkpt>
      <trkpt lat="44.53919" lon="3.74677">
        <ele>1424.184996</ele>
        <time>2020-03-09T10:19:07.426Z</time>
      </trkpt>
      <trkpt lat="44.53862" lon="3.74764">
        <ele>1430.175118</ele>
        <time>2020-03-09T10:19:44.175Z</time>
      </trkpt>
      <trkpt lat="44.53837" lon="3.74842">
        <ele>1434.607433</ele>
        <time>2020-03-09T10:20:11.336Z</time>
      </trkpt>
      <trkpt lat="44.53811" lon="3.74903">
        <ele>1437.974958</ele>
        <time>2020-03-09T10:20:32.012Z</time>
      </trkpt>
      <trkpt lat="44.53794" lon="3.74932">
        <ele>1439.706114</ele>
        <time>2020-03-09T10:20:43.409Z</time>
      </trkpt>
      <trkpt lat="44.53676" lon="3.75081">
        <ele>1448.482027</ele>
        <time>2020-03-09T10:21:47.876Z</time>
      </trkpt>
      <trkpt lat="44.53608" lon="3.75215">
        <ele>1451.147968</ele>
        <time>2020-03-09T10:22:17.233Z</time>
      </trkpt>
      <trkpt lat="44.53585" lon="3.75258">
        <ele>1451.30641</ele>
        <time>2020-03-09T10:22:21.666Z</time>
      </trkpt>
      <trkpt lat="44.53547" lon="3.75192">
        <ele>1447.618796</ele>
        <time>2020-03-09T10:22:27.606Z</time>
      </trkpt>
      <trkpt lat="44.53429" lon="3.74989">
        <ele>1434.052186</ele>
        <time>2020-03-09T10:22:44.019Z</time>
      </trkpt>
      <trkpt lat="44.5339" lon="3.74936">
        <ele>1429.183803</ele>
        <time>2020-03-09T10:22:48.714Z</time>
      </trkpt>
      <trkpt lat="44.53364" lon="3.74908">
        <ele>1426.191587</ele>
        <time>2020-03-09T10:22:51.599Z</time>
      </trkpt>
      <trkpt lat="44.53315" lon="3.74871">
        <ele>1421.435165</ele>
        <time>2020-03-09T10:22:56.436Z</time>
      </trkpt>
      <trkpt lat="44.53298" lon="3.74864">
        <ele>1419.935417</ele>
        <time>2020-03-09T10:22:58.003Z</time>
      </trkpt>
      <trkpt lat="44.5328" lon="3.74863">
        <ele>1418.433211</ele>
        <time>2020-03-09T10:22:59.568Z</time>
      </trkpt>
      <trkpt lat="44.53268" lon="3.74865">
        <ele>1417.404527</ele>
        <time>2020-03-09T10:23:00.630Z</time>
      </trkpt>
      <trkpt lat="44.53216" lon="3.74899">
        <ele>1412.666785</ele>
        <time>2020-03-09T10:23:05.618Z</time>
      </trkpt>
      <trkpt lat="44.53061" lon="3.75063">
        <ele>1397.501125</ele>
        <time>2020-03-09T10:23:22.887Z</time>
      </trkpt>
      <trkpt lat="44.53011" lon="3.75108">
        <ele>1392.859918</ele>
        <time>2020-03-09T10:23:28.233Z</time>
      </trkpt>
      <trkpt lat="44.52859" lon="3.75212">
        <ele>1379.283899</ele>
        <time>2020-03-09T10:23:43.160Z</time>
      </trkpt>
      <trkpt lat="44.52839" lon="3.75222">
        <ele>1377.362479</ele>
        <time>2020-03-09T10:23:45.072Z</time>
      </trkpt>
      <trkpt lat="44.52825" lon="3.7522">
        <ele>1376.180399</ele>
        <time>2020-03-09T10:23:46.220Z</time>
      </trkpt>
      <trkpt lat="44.52814" lon="3.75215">
        <ele>1375.133088</ele>
        <time>2020-03-09T10:23:47.263Z</time>
      </trkpt>
      <trkpt lat="44.5276" lon="3.75156">
        <ele>1368.906644</ele>
        <time>2020-03-09T10:23:53.278Z</time>
      </trkpt>
      <trkpt lat="44.52653" lon="3.75182">
        <ele>1358.319851</ele>
        <time>2020-03-09T10:24:02.539Z</time>
      </trkpt>
      <trkpt lat="44.52646" lon="3.75183">
        <ele>1357.567762</ele>
        <time>2020-03-09T10:24:03.153Z</time>
      </trkpt>
      <trkpt lat="44.52645" lon="3.75183">
        <ele>1357.505935</ele>
        <time>2020-03-09T10:24:03.214Z</time>
      </trkpt>
      <trkpt lat="44.52635" lon="3.75174">
        <ele>1356.280588</ele>
        <time>2020-03-09T10:24:04.281Z</time>
      </trkpt>
      <trkpt lat="44.52628" lon="3.75087">
        <ele>1349.86068</ele>
        <time>2020-03-09T10:24:09.676Z</time>
      </trkpt>
      <trkpt lat="44.52619" lon="3.75063">
        <ele>1347.889906</ele>
        <time>2020-03-09T10:24:11.386Z</time>
      </trkpt>
      <trkpt lat="44.52595" lon="3.75042">
        <ele>1345.339738</ele>
        <time>2020-03-09T10:24:13.832Z</time>
      </trkpt>
      <trkpt lat="44.52421" lon="3.74924">
        <ele>1329.998174</ele>
        <time>2020-03-09T10:24:30.823Z</time>
      </trkpt>
      <trkpt lat="44.52377" lon="3.74881">
        <ele>1326.931956</ele>
        <time>2020-03-09T10:24:35.717Z</time>
      </trkpt>
      <trkpt lat="44.52322" lon="3.74826">
        <ele>1323.087876</ele>
        <time>2020-03-09T10:24:42.057Z</time>
      </trkpt>
      <trkpt lat="44.52285" lon="3.74787">
        <ele>1321.370485</ele>
        <time>2020-03-09T10:24:46.642Z</time>
      </trkpt>
      <trkpt lat="44.52109" lon="3.7459">
        <ele>1319.518172</ele>
        <time>2020-03-09T10:25:14.625Z</time>
      </trkpt>
      <trkpt lat="44.52081" lon="3.74565">
        <ele>1319.778141</ele>
        <time>2020-03-09T10:25:21.914Z</time>
      </trkpt>
      <trkpt lat="44.52068" lon="3.74558">
        <ele>1319.88152</ele>
        <time>2020-03-09T10:25:25.186Z</time>
      </trkpt>
      <trkpt lat="44.5205" lon="3.74552">
        <ele>1320.021386</ele>
        <time>2020-03-09T10:25:29.365Z</time>
      </trkpt>
      <trkpt lat="44.51995" lon="3.74549">
        <ele>1320.374684</ele>
        <time>2020-03-09T10:25:42.322Z</time>
      </trkpt>
      <trkpt lat="44.51871" lon="3.74561">
        <ele>1320.295701</ele>
        <time>2020-03-09T10:26:05.188Z</time>
      </trkpt>
      <trkpt lat="44.51807" lon="3.74554">
        <ele>1319.506965</ele>
        <time>2020-03-09T10:26:12.144Z</time>
      </trkpt>
      <trkpt lat="44.51567" lon="3.74433">
        <ele>1306.528244</ele>
        <time>2020-03-09T10:26:36.139Z</time>
      </trkpt>
      <trkpt lat="44.51368" lon="3.74311">
        <ele>1292.53445</ele>
        <time>2020-03-09T10:26:55.657Z</time>
      </trkpt>
      <trkpt lat="44.51277" lon="3.74268">
        <ele>1285.492794</ele>
        <time>2020-03-09T10:27:04.349Z</time>
      </trkpt>
      <trkpt lat="44.51245" lon="3.74258">
        <ele>1282.902901</ele>
        <time>2020-03-09T10:27:07.282Z</time>
      </trkpt>
      <trkpt lat="44.51202" lon="3.7426">
        <ele>1279.430607</ele>
        <time>2020-03-09T10:27:11.106Z</time>
      </trkpt>
      <trkpt lat="44.51153" lon="3.74263">
        <ele>1275.536775</ele>
        <time>2020-03-09T10:27:15.358Z</time>
      </trkpt>
      <trkpt lat="44.51109" lon="3.74247">
        <ele>1270.780927</ele>
        <time>2020-03-09T10:27:19.305Z</time>
      </trkpt>
      <trkpt lat="44.51078" lon="3.74236">
        <ele>1267.254634</ele>
        <time>2020-03-09T10:27:22.036Z</time>
      </trkpt>
      <trkpt lat="44.51045" lon="3.74231">
        <ele>1263.624328</ele>
        <time>2020-03-09T10:27:24.842Z</time>
      </trkpt>
      <trkpt lat="44.51008" lon="3.74241">
        <ele>1259.467182</ele>
        <time>2020-03-09T10:27:28.042Z</time>
      </trkpt>
      <trkpt lat="44.50945" lon="3.74264">
        <ele>1252.344466</ele>
        <time>2020-03-09T10:27:33.505Z</time>
      </trkpt>
      <trkpt lat="44.50883" lon="3.74307">
        <ele>1244.711996</ele>
        <time>2020-03-09T10:27:39.442Z</time>
      </trkpt>
      <trkpt lat="44.50867" lon="3.74309">
        <ele>1243.002677</ele>
        <time>2020-03-09T10:27:40.754Z</time>
      </trkpt>
      <trkpt lat="44.5086" lon="3.74302">
        <ele>1242.032404</ele>
        <time>2020-03-09T10:27:41.517Z</time>
      </trkpt>
      <trkpt lat="44.50849" lon="3.74268">
        <ele>1239.088022</ele>
        <time>2020-03-09T10:27:43.798Z</time>
      </trkpt>
      <trkpt lat="44.50827" lon="3.74156">
        <ele>1231.126279</ele>
        <time>2020-03-09T10:27:50.994Z</time>
      </trkpt>
      <trkpt lat="44.50819" lon="3.74143">
        <ele>1230.102442</ele>
        <time>2020-03-09T10:27:52.034Z</time>
      </trkpt>
      <trkpt lat="44.50808" lon="3.74134">
        <ele>1228.96806</ele>
        <time>2020-03-09T10:27:53.172Z</time>
      </trkpt>
      <trkpt lat="44.50674" lon="3.74067">
        <ele>1217.596639</ele>
        <time>2020-03-09T10:28:05.710Z</time>
      </trkpt>
      <trkpt lat="44.50639" lon="3.74067">
        <ele>1215.392859</ele>
        <time>2020-03-09T10:28:08.954Z</time>
      </trkpt>
      <trkpt lat="44.50609" lon="3.74075">
        <ele>1213.470575</ele>
        <time>2020-03-09T10:28:11.856Z</time>
      </trkpt>
      <trkpt lat="44.50605" lon="3.74077">
        <ele>1213.213512</ele>
        <time>2020-03-09T10:28:12.206Z</time>
      </trkpt>
      <trkpt lat="44.50583" lon="3.74084">
        <ele>1211.821443</ele>
        <time>2020-03-09T10:28:14.302Z</time>
      </trkpt>
      <trkpt lat="44.50542" lon="3.74092">
        <ele>1209.221137</ele>
        <time>2020-03-09T10:28:18.125Z</time>
      </trkpt>
      <trkpt lat="44.50516" lon="3.74099">
        <ele>1207.578688</ele>
        <time>2020-03-09T10:28:20.504Z</time>
      </trkpt>
      <trkpt lat="44.50482" lon="3.74112">
        <ele>1205.381917</ele>
        <time>2020-03-09T10:28:23.739Z</time>
      </trkpt>
      <trkpt lat="44.50447" lon="3.74128">
        <ele>1203.052609</ele>
        <time>2020-03-09T10:28:27.139Z</time>
      </trkpt>
      <trkpt lat="44.50431" lon="3.74133">
        <ele>1202.038643</ele>
        <time>2020-03-09T10:28:28.652Z</time>
      </trkpt>
      <trkpt lat="44.50413" lon="3.74139">
        <ele>1200.902877</ele>
        <time>2020-03-09T10:28:30.319Z</time>
      </trkpt>
      <trkpt lat="44.50342" lon="3.7415">
        <ele>1196.136546</ele>
        <time>2020-03-09T10:28:36.806Z</time>
      </trkpt>
      <trkpt lat="44.50249" lon="3.74142">
        <ele>1188.317082</ele>
        <time>2020-03-09T10:28:45.106Z</time>
      </trkpt>
      <trkpt lat="44.50057" lon="3.74087">
        <ele>1169.938218</ele>
        <time>2020-03-09T10:29:01.967Z</time>
      </trkpt>
      <trkpt lat="44.49938" lon="3.74045">
        <ele>1157.306846</ele>
        <time>2020-03-09T10:29:12.478Z</time>
      </trkpt>
      <trkpt lat="44.498" lon="3.73972">
        <ele>1142.172989</ele>
        <time>2020-03-09T10:29:25.172Z</time>
      </trkpt>
      <trkpt lat="44.49734" lon="3.73961">
        <ele>1135.946526</ele>
        <time>2020-03-09T10:29:30.863Z</time>
      </trkpt>
      <trkpt lat="44.49622" lon="3.73959">
        <ele>1125.301364</ele>
        <time>2020-03-09T10:29:40.664Z</time>
      </trkpt>
      <trkpt lat="44.49577" lon="3.73954">
        <ele>1121.071323</ele>
        <time>2020-03-09T10:29:44.578Z</time>
      </trkpt>
      <trkpt lat="44.49536" lon="3.73949">
        <ele>1117.258714</ele>
        <time>2020-03-09T10:29:48.077Z</time>
      </trkpt>
      <trkpt lat="44.49485" lon="3.73937">
        <ele>1112.361032</ele>
        <time>2020-03-09T10:29:52.587Z</time>
      </trkpt>
      <trkpt lat="44.49483" lon="3.73937">
        <ele>1112.17933</ele>
        <time>2020-03-09T10:29:52.742Z</time>
      </trkpt>
      <trkpt lat="44.4946" lon="3.73929">
        <ele>1109.909755</ele>
        <time>2020-03-09T10:29:54.779Z</time>
      </trkpt>
      <trkpt lat="44.49445" lon="3.73925">
        <ele>1108.444728</ele>
        <time>2020-03-09T10:29:56.076Z</time>
      </trkpt>
      <trkpt lat="44.49423" lon="3.73921">
        <ele>1106.251113</ele>
        <time>2020-03-09T10:29:58.037Z</time>
      </trkpt>
      <trkpt lat="44.49379" lon="3.7391">
        <ele>1101.864397</ele>
        <time>2020-03-09T10:30:01.964Z</time>
      </trkpt>
      <trkpt lat="44.49296" lon="3.73884">
        <ele>1093.669875</ele>
        <time>2020-03-09T10:30:09.193Z</time>
      </trkpt>
      <trkpt lat="44.49263" lon="3.7388">
        <ele>1090.651019</ele>
        <time>2020-03-09T10:30:12.117Z</time>
      </trkpt>
      <trkpt lat="44.49214" lon="3.73874">
        <ele>1086.350965</ele>
        <time>2020-03-09T10:30:16.270Z</time>
      </trkpt>
      <trkpt lat="44.49199" lon="3.73878">
        <ele>1084.920305</ele>
        <time>2020-03-09T10:30:17.715Z</time>
      </trkpt>
      <trkpt lat="44.49189" lon="3.73881">
        <ele>1084.058357</ele>
        <time>2020-03-09T10:30:18.559Z</time>
      </trkpt>
      <trkpt lat="44.4918" lon="3.73887">
        <ele>1083.150369</ele>
        <time>2020-03-09T10:30:19.423Z</time>
      </trkpt>
      <trkpt lat="44.49139" lon="3.73905">
        <ele>1079.346634</ele>
        <time>2020-03-09T10:30:23.225Z</time>
      </trkpt>
      <trkpt lat="44.49098" lon="3.73911">
        <ele>1077.063099</ele>
        <time>2020-03-09T10:30:26.911Z</time>
      </trkpt>
      <trkpt lat="44.49083" lon="3.73915">
        <ele>1076.554623</ele>
        <time>2020-03-09T10:30:28.269Z</time>
      </trkpt>
      <trkpt lat="44.49067" lon="3.73932">
        <ele>1075.84619</ele>
        <time>2020-03-09T10:30:30.182Z</time>
      </trkpt>
      <trkpt lat="44.4906" lon="3.7395">
        <ele>1075.355978</ele>
        <time>2020-03-09T10:30:31.553Z</time>
      </trkpt>
      <trkpt lat="44.49058" lon="3.73966">
        <ele>1074.965478</ele>
        <time>2020-03-09T10:30:32.575Z</time>
      </trkpt>
      <trkpt lat="44.49058" lon="3.73967">
        <ele>1074.933265</ele>
        <time>2020-03-09T10:30:32.748Z</time>
      </trkpt>
      <trkpt lat="44.49068" lon="3.74002">
        <ele>1074.029173</ele>
        <time>2020-03-09T10:30:35.509Z</time>
      </trkpt>
      <trkpt lat="44.49074" lon="3.74019">
        <ele>1073.568349</ele>
        <time>2020-03-09T10:30:36.961Z</time>
      </trkpt>
      <trkpt lat="44.49075" lon="3.74033">
        <ele>1073.216323</ele>
        <time>2020-03-09T10:30:38.427Z</time>
      </trkpt>
      <trkpt lat="44.4907" lon="3.74049">
        <ele>1072.799909</ele>
        <time>2020-03-09T10:30:39.831Z</time>
      </trkpt>
      <trkpt lat="44.49061" lon="3.74038">
        <ele>1072.389326</ele>
        <time>2020-03-09T10:30:41.225Z</time>
      </trkpt>
      <trkpt lat="44.49051" lon="3.74028">
        <ele>1071.968713</ele>
        <time>2020-03-09T10:30:44.753Z</time>
      </trkpt>
      <trkpt lat="44.49049" lon="3.74024">
        <ele>1071.843397</ele>
        <time>2020-03-09T10:30:45.817Z</time>
      </trkpt>
      <trkpt lat="44.49036" lon="3.74009">
        <ele>1072.351536</ele>
        <time>2020-03-09T10:30:49.281Z</time>
      </trkpt>
      <trkpt lat="44.49029" lon="3.73997">
        <ele>1072.717709</ele>
        <time>2020-03-09T10:30:53.220Z</time>
      </trkpt>
      <trkpt lat="44.49026" lon="3.7399">
        <ele>1072.916352</ele>
        <time>2020-03-09T10:30:55.376Z</time>
      </trkpt>
      <trkpt lat="44.49019" lon="3.73966">
        <ele>1073.532174</ele>
        <time>2020-03-09T10:30:59.533Z</time>
      </trkpt>
      <trkpt lat="44.49016" lon="3.73952">
        <ele>1073.873083</ele>
        <time>2020-03-09T10:31:03.285Z</time>
      </trkpt>
      <trkpt lat="44.48989" lon="3.73942">
        <ele>1074.820417</ele>
        <time>2020-03-09T10:31:11.613Z</time>
      </trkpt>
      <trkpt lat="44.48974" lon="3.73938">
        <ele>1075.330732</ele>
        <time>2020-03-09T10:31:17.194Z</time>
      </trkpt>
      <trkpt lat="44.48955" lon="3.73936">
        <ele>1075.953125</ele>
        <time>2020-03-09T10:31:21.942Z</time>
      </trkpt>
      <trkpt lat="44.48934" lon="3.73928">
        <ele>1076.686316</ele>
        <time>2020-03-09T10:31:29.251Z</time>
      </trkpt>
      <trkpt lat="44.4892" lon="3.73916">
        <ele>1077.246061</ele>
        <time>2020-03-09T10:31:33.935Z</time>
      </trkpt>
      <trkpt lat="44.48917" lon="3.73909">
        <ele>1077.449289</ele>
        <time>2020-03-09T10:31:36.315Z</time>
      </trkpt>
      <trkpt lat="44.48904" lon="3.7386">
        <ele>1078.297413</ele>
        <time>2020-03-09T10:31:47.742Z</time>
      </trkpt>
      <trkpt lat="44.48899" lon="3.7383">
        <ele>1078.689287</ele>
        <time>2020-03-09T10:31:53.987Z</time>
      </trkpt>
      <trkpt lat="44.48886" lon="3.73763">
        <ele>1079.583183</ele>
        <time>2020-03-09T10:32:08.439Z</time>
      </trkpt>
      <trkpt lat="44.48868" lon="3.73712">
        <ele>1080.312768</ele>
        <time>2020-03-09T10:32:16.790Z</time>
      </trkpt>
      <trkpt lat="44.4877" lon="3.73542">
        <ele>1078.918984</ele>
        <time>2020-03-09T10:32:34.216Z</time>
      </trkpt>
      <trkpt lat="44.48749" lon="3.73528">
        <ele>1078.470384</ele>
        <time>2020-03-09T10:32:36.908Z</time>
      </trkpt>
      <trkpt lat="44.48729" lon="3.73514">
        <ele>1078.043094</ele>
        <time>2020-03-09T10:32:39.198Z</time>
      </trkpt>
      <trkpt lat="44.48688" lon="3.73484">
        <ele>1077.271043</ele>
        <time>2020-03-09T10:32:44.121Z</time>
      </trkpt>
      <trkpt lat="44.48681" lon="3.73479">
        <ele>1077.165688</ele>
        <time>2020-03-09T10:32:44.833Z</time>
      </trkpt>
      <trkpt lat="44.48649" lon="3.73456">
        <ele>1076.640765</ele>
        <time>2020-03-09T10:32:48.689Z</time>
      </trkpt>
      <trkpt lat="44.48643" lon="3.73451">
        <ele>1076.5417</ele>
        <time>2020-03-09T10:32:49.423Z</time>
      </trkpt>
      <trkpt lat="44.4863" lon="3.73447">
        <ele>1076.356878</ele>
        <time>2020-03-09T10:32:50.841Z</time>
      </trkpt>
      <trkpt lat="44.48618" lon="3.7345">
        <ele>1076.169591</ele>
        <time>2020-03-09T10:32:52.273Z</time>
      </trkpt>
      <trkpt lat="44.48613" lon="3.73435">
        <ele>1076.000806</ele>
        <time>2020-03-09T10:32:53.546Z</time>
      </trkpt>
      <trkpt lat="44.4861" lon="3.73409">
        <ele>1075.729226</ele>
        <time>2020-03-09T10:32:56.154Z</time>
      </trkpt>
      <trkpt lat="44.48607" lon="3.734">
        <ele>1075.629953</ele>
        <time>2020-03-09T10:32:56.931Z</time>
      </trkpt>
      <trkpt lat="44.48571" lon="3.7335">
        <ele>1075.168883</ele>
        <time>2020-03-09T10:33:04.370Z</time>
      </trkpt>
      <trkpt lat="44.4853" lon="3.73301">
        <ele>1075.867806</ele>
        <time>2020-03-09T10:33:14.597Z</time>
      </trkpt>
      <trkpt lat="44.48503" lon="3.73272">
        <ele>1076.315138</ele>
        <time>2020-03-09T10:33:21.060Z</time>
      </trkpt>
      <trkpt lat="44.48485" lon="3.73257">
        <ele>1076.580487</ele>
        <time>2020-03-09T10:33:25.610Z</time>
      </trkpt>
      <trkpt lat="44.48469" lon="3.73246">
        <ele>1076.813038</ele>
        <time>2020-03-09T10:33:29.806Z</time>
      </trkpt>
      <trkpt lat="44.48432" lon="3.73229">
        <ele>1077.320314</ele>
        <time>2020-03-09T10:33:38.968Z</time>
      </trkpt>
      <trkpt lat="44.48311" lon="3.73176">
        <ele>1080.067031</ele>
        <time>2020-03-09T10:34:08.845Z</time>
      </trkpt>
      <trkpt lat="44.48243" lon="3.73126">
        <ele>1081.748564</ele>
        <time>2020-03-09T10:34:26.991Z</time>
      </trkpt>
      <trkpt lat="44.4822" lon="3.73103">
        <ele>1082.387551</ele>
        <time>2020-03-09T10:34:33.339Z</time>
      </trkpt>
      <trkpt lat="44.48218" lon="3.73099">
        <ele>1082.461703</ele>
        <time>2020-03-09T10:34:34.489Z</time>
      </trkpt>
      <trkpt lat="44.4821" lon="3.73085">
        <ele>1082.747974</ele>
        <time>2020-03-09T10:34:37.820Z</time>
      </trkpt>
      <trkpt lat="44.48198" lon="3.73055">
        <ele>1083.304576</ele>
        <time>2020-03-09T10:34:43.563Z</time>
      </trkpt>
      <trkpt lat="44.48185" lon="3.73041">
        <ele>1083.671825</ele>
        <time>2020-03-09T10:34:47.607Z</time>
      </trkpt>
      <trkpt lat="44.481" lon="3.73014">
        <ele>1085.597682</ele>
        <time>2020-03-09T10:35:08.611Z</time>
      </trkpt>
      <trkpt lat="44.47949" lon="3.72956">
        <ele>1088.678603</ele>
        <time>2020-03-09T10:35:43.802Z</time>
      </trkpt>
      <trkpt lat="44.47871" lon="3.72904">
        <ele>1090.304961</ele>
        <time>2020-03-09T10:36:02.889Z</time>
      </trkpt>
      <trkpt lat="44.47826" lon="3.72865">
        <ele>1091.301257</ele>
        <time>2020-03-09T10:36:14.615Z</time>
      </trkpt>
      <trkpt lat="44.47682" lon="3.72768">
        <ele>1094.716015</ele>
        <time>2020-03-09T10:36:50.430Z</time>
      </trkpt>
      <trkpt lat="44.47633" lon="3.72749">
        <ele>1095.867557</ele>
        <time>2020-03-09T10:37:02.994Z</time>
      </trkpt>
      <trkpt lat="44.4761" lon="3.7275">
        <ele>1096.401967</ele>
        <time>2020-03-09T10:37:08.577Z</time>
      </trkpt>
      <trkpt lat="44.47583" lon="3.72754">
        <ele>1097.326447</ele>
        <time>2020-03-09T10:37:17.028Z</time>
      </trkpt>
      <trkpt lat="44.47495" lon="3.72772">
        <ele>1100.267493</ele>
        <time>2020-03-09T10:37:42.017Z</time>
      </trkpt>
      <trkpt lat="44.47465" lon="3.72769">
        <ele>1101.293198</ele>
        <time>2020-03-09T10:37:50.802Z</time>
      </trkpt>
      <trkpt lat="44.47445" lon="3.7276">
        <ele>1101.973555</ele>
        <time>2020-03-09T10:37:57.480Z</time>
      </trkpt>
      <trkpt lat="44.47357" lon="3.72721">
        <ele>1105.802286</ele>
        <time>2020-03-09T10:38:22.193Z</time>
      </trkpt>
      <trkpt lat="44.47276" lon="3.72673">
        <ele>1109.566482</ele>
        <time>2020-03-09T10:38:52.348Z</time>
      </trkpt>
      <trkpt lat="44.47253" lon="3.72667">
        <ele>1111.029952</ele>
        <time>2020-03-09T10:39:00.442Z</time>
      </trkpt>
      <trkpt lat="44.4724" lon="3.72671">
        <ele>1112.031848</ele>
        <time>2020-03-09T10:39:05.741Z</time>
      </trkpt>
      <trkpt lat="44.47231" lon="3.72678">
        <ele>1112.799394</ele>
        <time>2020-03-09T10:39:09.893Z</time>
      </trkpt>
      <trkpt lat="44.47224" lon="3.72686">
        <ele>1113.530193</ele>
        <time>2020-03-09T10:39:13.708Z</time>
      </trkpt>
      <trkpt lat="44.47203" lon="3.7271">
        <ele>1115.544809</ele>
        <time>2020-03-09T10:39:25.862Z</time>
      </trkpt>
      <trkpt lat="44.47168" lon="3.72732">
        <ele>1118.515177</ele>
        <time>2020-03-09T10:39:43.843Z</time>
      </trkpt>
      <trkpt lat="44.47133" lon="3.72736">
        <ele>1121.172931</ele>
        <time>2020-03-09T10:40:00.981Z</time>
      </trkpt>
      <trkpt lat="44.47098" lon="3.72738">
        <ele>1123.846717</ele>
        <time>2020-03-09T10:40:18.836Z</time>
      </trkpt>
      <trkpt lat="44.47071" lon="3.72738">
        <ele>1126.423752</ele>
        <time>2020-03-09T10:40:33.734Z</time>
      </trkpt>
      <trkpt lat="44.46955" lon="3.72705">
        <ele>1137.435278</ele>
        <time>2020-03-09T10:41:35.286Z</time>
      </trkpt>
      <trkpt lat="44.46776" lon="3.72708">
        <ele>1154.250583</ele>
        <time>2020-03-09T10:43:09.675Z</time>
      </trkpt>
      <trkpt lat="44.46727" lon="3.72703">
        <ele>1158.658292</ele>
        <time>2020-03-09T10:43:35.572Z</time>
      </trkpt>
      <trkpt lat="44.46686" lon="3.72716">
        <ele>1161.995543</ele>
        <time>2020-03-09T10:43:56.609Z</time>
      </trkpt>
      <trkpt lat="44.46584" lon="3.72649">
        <ele>1171.115229</ele>
        <time>2020-03-09T10:44:49.292Z</time>
      </trkpt>
      <trkpt lat="44.46574" lon="3.72646">
        <ele>1171.937881</ele>
        <time>2020-03-09T10:44:53.525Z</time>
      </trkpt>
      <trkpt lat="44.46549" lon="3.72654">
        <ele>1173.174764</ele>
        <time>2020-03-09T10:45:03.990Z</time>
      </trkpt>
      <trkpt lat="44.46535" lon="3.72648">
        <ele>1173.867822</ele>
        <time>2020-03-09T10:45:09.222Z</time>
      </trkpt>
      <trkpt lat="44.4652" lon="3.72621">
        <ele>1175.041686</ele>
        <time>2020-03-09T10:45:18.247Z</time>
      </trkpt>
      <trkpt lat="44.46505" lon="3.72575">
        <ele>1176.772485</ele>
        <time>2020-03-09T10:45:30.215Z</time>
      </trkpt>
      <trkpt lat="44.46499" lon="3.72569">
        <ele>1177.145873</ele>
        <time>2020-03-09T10:45:32.165Z</time>
      </trkpt>
      <trkpt lat="44.4648" lon="3.72566">
        <ele>1178.052022</ele>
        <time>2020-03-09T10:45:37.460Z</time>
      </trkpt>
      <trkpt lat="44.46398" lon="3.7259">
        <ele>1182.230637</ele>
        <time>2020-03-09T10:46:02.041Z</time>
      </trkpt>
      <trkpt lat="44.46367" lon="3.72575">
        <ele>1183.936653</ele>
        <time>2020-03-09T10:46:12.487Z</time>
      </trkpt>
      <trkpt lat="44.46349" lon="3.72556">
        <ele>1185.115024</ele>
        <time>2020-03-09T10:46:19.787Z</time>
      </trkpt>
      <trkpt lat="44.46338" lon="3.72546">
        <ele>1185.813922</ele>
        <time>2020-03-09T10:46:24.652Z</time>
      </trkpt>
      <trkpt lat="44.46322" lon="3.72538">
        <ele>1186.667835</ele>
        <time>2020-03-09T10:46:30.380Z</time>
      </trkpt>
      <trkpt lat="44.46303" lon="3.72549">
        <ele>1187.762794</ele>
        <time>2020-03-09T10:46:38.310Z</time>
      </trkpt>
      <trkpt lat="44.46253" lon="3.72662">
        <ele>1193.967185</ele>
        <time>2020-03-09T10:47:19.974Z</time>
      </trkpt>
      <trkpt lat="44.46207" lon="3.72706">
        <ele>1198.154059</ele>
        <time>2020-03-09T10:47:48.202Z</time>
      </trkpt>
      <trkpt lat="44.46145" lon="3.72732">
        <ele>1203.012788</ele>
        <time>2020-03-09T10:48:17.524Z</time>
      </trkpt>
      <trkpt lat="44.46129" lon="3.72729">
        <ele>1203.955309</ele>
        <time>2020-03-09T10:48:24.185Z</time>
      </trkpt>
      <trkpt lat="44.46092" lon="3.72704">
        <ele>1205.771651</ele>
        <time>2020-03-09T10:48:39.019Z</time>
      </trkpt>
      <trkpt lat="44.46069" lon="3.72702">
        <ele>1206.812681</ele>
        <time>2020-03-09T10:48:46.851Z</time>
      </trkpt>
      <trkpt lat="44.46018" lon="3.72737">
        <ele>1209.325751</ele>
        <time>2020-03-09T10:49:04.759Z</time>
      </trkpt>
      <trkpt lat="44.45976" lon="3.72774">
        <ele>1211.527729</ele>
        <time>2020-03-09T10:49:17.769Z</time>
      </trkpt>
      <trkpt lat="44.45918" lon="3.72794">
        <ele>1213.518212</ele>
        <time>2020-03-09T10:49:32.232Z</time>
      </trkpt>
      <trkpt lat="44.45907" lon="3.72814">
        <ele>1214.131756</ele>
        <time>2020-03-09T10:49:37.034Z</time>
      </trkpt>
      <trkpt lat="44.45898" lon="3.72867">
        <ele>1215.419057</ele>
        <time>2020-03-09T10:49:47.599Z</time>
      </trkpt>
      <trkpt lat="44.4587" lon="3.72924">
        <ele>1217.06227</ele>
        <time>2020-03-09T10:50:02.553Z</time>
      </trkpt>
      <trkpt lat="44.45837" lon="3.72978">
        <ele>1219.742116</ele>
        <time>2020-03-09T10:50:19.351Z</time>
      </trkpt>
      <trkpt lat="44.45804" lon="3.73003">
        <ele>1222.003421</ele>
        <time>2020-03-09T10:50:32.173Z</time>
      </trkpt>
      <trkpt lat="44.4579" lon="3.7302">
        <ele>1223.113867</ele>
        <time>2020-03-09T10:50:38.977Z</time>
      </trkpt>
      <trkpt lat="44.45783" lon="3.73061">
        <ele>1224.932076</ele>
        <time>2020-03-09T10:50:51.038Z</time>
      </trkpt>
      <trkpt lat="44.4578" lon="3.7319">
        <ele>1231.432773</ele>
        <time>2020-03-09T10:51:33.429Z</time>
      </trkpt>
      <trkpt lat="44.45747" lon="3.73373">
        <ele>1243.281886</ele>
        <time>2020-03-09T10:52:42.537Z</time>
      </trkpt>
      <trkpt lat="44.45751" lon="3.73404">
        <ele>1245.26022</ele>
        <time>2020-03-09T10:52:54.534Z</time>
      </trkpt>
      <trkpt lat="44.45757" lon="3.73419">
        <ele>1246.312507</ele>
        <time>2020-03-09T10:53:01.014Z</time>
      </trkpt>
      <trkpt lat="44.45814" lon="3.73485">
        <ele>1252.68964</ele>
        <time>2020-03-09T10:53:39.153Z</time>
      </trkpt>
      <trkpt lat="44.45822" lon="3.73505">
        <ele>1254.086995</ele>
        <time>2020-03-09T10:53:47.063Z</time>
      </trkpt>
      <trkpt lat="44.45819" lon="3.73516">
        <ele>1254.801915</ele>
        <time>2020-03-09T10:53:51.040Z</time>
      </trkpt>
      <trkpt lat="44.45811" lon="3.73522">
        <ele>1255.557539</ele>
        <time>2020-03-09T10:53:55.182Z</time>
      </trkpt>
      <trkpt lat="44.45756" lon="3.73499">
        <ele>1260.517695</ele>
        <time>2020-03-09T10:54:21.219Z</time>
      </trkpt>
      <trkpt lat="44.45719" lon="3.73511">
        <ele>1263.723826</ele>
        <time>2020-03-09T10:54:38.389Z</time>
      </trkpt>
      <trkpt lat="44.45705" lon="3.73528">
        <ele>1265.248102</ele>
        <time>2020-03-09T10:54:46.939Z</time>
      </trkpt>
      <trkpt lat="44.45678" lon="3.73612">
        <ele>1270.76296</ele>
        <time>2020-03-09T10:55:19.502Z</time>
      </trkpt>
      <trkpt lat="44.45673" lon="3.73689">
        <ele>1275.487658</ele>
        <time>2020-03-09T10:55:47.637Z</time>
      </trkpt>
      <trkpt lat="44.45688" lon="3.7374">
        <ele>1279.189397</ele>
        <time>2020-03-09T10:56:07.660Z</time>
      </trkpt>
      <trkpt lat="44.45692" lon="3.73786">
        <ele>1282.345221</ele>
        <time>2020-03-09T10:56:25.112Z</time>
      </trkpt>
      <trkpt lat="44.45677" lon="3.73916">
        <ele>1291.199685</ele>
        <time>2020-03-09T10:57:15.510Z</time>
      </trkpt>
      <trkpt lat="44.45685" lon="3.74054">
        <ele>1300.432346</ele>
        <time>2020-03-09T10:58:08.119Z</time>
      </trkpt>
      <trkpt lat="44.45679" lon="3.74173">
        <ele>1308.432905</ele>
        <time>2020-03-09T10:58:52.964Z</time>
      </trkpt>
      <trkpt lat="44.45678" lon="3.74201">
        <ele>1309.895661</ele>
        <time>2020-03-09T10:59:02.389Z</time>
      </trkpt>
      <trkpt lat="44.45677" lon="3.74215">
        <ele>1310.608596</ele>
        <time>2020-03-09T10:59:08.324Z</time>
      </trkpt>
      <trkpt lat="44.45673" lon="3.74231">
        <ele>1311.471756</ele>
        <time>2020-03-09T10:59:13.472Z</time>
      </trkpt>
      <trkpt lat="44.45661" lon="3.74247">
        <ele>1312.627649</ele>
        <time>2020-03-09T10:59:21.121Z</time>
      </trkpt>
      <trkpt lat="44.45646" lon="3.74249">
        <ele>1313.710313</ele>
        <time>2020-03-09T10:59:28.375Z</time>
      </trkpt>
      <trkpt lat="44.45632" lon="3.74235">
        <ele>1314.912633</ele>
        <time>2020-03-09T10:59:35.668Z</time>
      </trkpt>
      <trkpt lat="44.45576" lon="3.74018">
        <ele>1325.218078</ele>
        <time>2020-03-09T11:00:38.972Z</time>
      </trkpt>
      <trkpt lat="44.45528" lon="3.73905">
        <ele>1330.166656</ele>
        <time>2020-03-09T11:01:10.669Z</time>
      </trkpt>
      <trkpt lat="44.45516" lon="3.73881">
        <ele>1331.333084</ele>
        <time>2020-03-09T11:01:17.340Z</time>
      </trkpt>
      <trkpt lat="44.45513" lon="3.73874">
        <ele>1331.661297</ele>
        <time>2020-03-09T11:01:18.863Z</time>
      </trkpt>
      <trkpt lat="44.45508" lon="3.73863">
        <ele>1332.261826</ele>
        <time>2020-03-09T11:01:23.537Z</time>
      </trkpt>
      <trkpt lat="44.45492" lon="3.73844">
        <ele>1333.504947</ele>
        <time>2020-03-09T11:01:30.376Z</time>
      </trkpt>
      <trkpt lat="44.45468" lon="3.73845">
        <ele>1334.953161</ele>
        <time>2020-03-09T11:01:39.806Z</time>
      </trkpt>
      <trkpt lat="44.454" lon="3.73897">
        <ele>1339.567814</ele>
        <time>2020-03-09T11:02:10.635Z</time>
      </trkpt>
      <trkpt lat="44.45289" lon="3.73951">
        <ele>1347.47996</ele>
        <time>2020-03-09T11:03:00.815Z</time>
      </trkpt>
      <trkpt lat="44.45211" lon="3.74019">
        <ele>1353.837808</ele>
        <time>2020-03-09T11:03:38.875Z</time>
      </trkpt>
      <trkpt lat="44.45121" lon="3.74147">
        <ele>1365.00773</ele>
        <time>2020-03-09T11:04:39.624Z</time>
      </trkpt>
      <trkpt lat="44.45101" lon="3.74167">
        <ele>1367.173464</ele>
        <time>2020-03-09T11:04:53.117Z</time>
      </trkpt>
      <trkpt lat="44.45094" lon="3.74182">
        <ele>1368.319744</ele>
        <time>2020-03-09T11:05:00.467Z</time>
      </trkpt>
      <trkpt lat="44.45091" lon="3.74206">
        <ele>1369.81898</ele>
        <time>2020-03-09T11:05:10.336Z</time>
      </trkpt>
      <trkpt lat="44.45097" lon="3.74272">
        <ele>1375.021164</ele>
        <time>2020-03-09T11:05:38.412Z</time>
      </trkpt>
      <trkpt lat="44.45125" lon="3.744">
        <ele>1385.526043</ele>
        <time>2020-03-09T11:06:37.037Z</time>
      </trkpt>
      <trkpt lat="44.45125" lon="3.74421">
        <ele>1387.187927</ele>
        <time>2020-03-09T11:06:46.064Z</time>
      </trkpt>
      <trkpt lat="44.45121" lon="3.74428">
        <ele>1387.96612</ele>
        <time>2020-03-09T11:06:50.127Z</time>
      </trkpt>
      <trkpt lat="44.4511" lon="3.7443">
        <ele>1389.184575</ele>
        <time>2020-03-09T11:06:56.609Z</time>
      </trkpt>
      <trkpt lat="44.45075" lon="3.74379">
        <ele>1393.228828</ele>
        <time>2020-03-09T11:07:23.876Z</time>
      </trkpt>
      <trkpt lat="44.45042" lon="3.74355">
        <ele>1396.149555</ele>
        <time>2020-03-09T11:07:42.457Z</time>
      </trkpt>
      <trkpt lat="44.45031" lon="3.74356">
        <ele>1396.97337</ele>
        <time>2020-03-09T11:07:47.314Z</time>
      </trkpt>
      <trkpt lat="44.45027" lon="3.74369">
        <ele>1397.791949</ele>
        <time>2020-03-09T11:07:52.238Z</time>
      </trkpt>
      <trkpt lat="44.45061" lon="3.74423">
        <ele>1401.797172</ele>
        <time>2020-03-09T11:08:14.234Z</time>
      </trkpt>
      <trkpt lat="44.45153" lon="3.74685">
        <ele>1411.711814</ele>
        <time>2020-03-09T11:09:21.248Z</time>
      </trkpt>
      <trkpt lat="44.45176" lon="3.74723">
        <ele>1413.242601</ele>
        <time>2020-03-09T11:09:30.673Z</time>
      </trkpt>
      <trkpt lat="44.45182" lon="3.74732">
        <ele>1413.617252</ele>
        <time>2020-03-09T11:09:32.610Z</time>
      </trkpt>
      <trkpt lat="44.45185" lon="3.7476">
        <ele>1414.467918</ele>
        <time>2020-03-09T11:09:37.841Z</time>
      </trkpt>
      <trkpt lat="44.45175" lon="3.74776">
        <ele>1415.10396</ele>
        <time>2020-03-09T11:09:42.209Z</time>
      </trkpt>
      <trkpt lat="44.45166" lon="3.74782">
        <ele>1415.557467</ele>
        <time>2020-03-09T11:09:45.165Z</time>
      </trkpt>
      <trkpt lat="44.45151" lon="3.74781">
        <ele>1416.177464</ele>
        <time>2020-03-09T11:09:50.154Z</time>
      </trkpt>
      <trkpt lat="44.45045" lon="3.74763">
        <ele>1421.889133</ele>
        <time>2020-03-09T11:10:28.146Z</time>
      </trkpt>
      <trkpt lat="44.45032" lon="3.74758">
        <ele>1422.881019</ele>
        <time>2020-03-09T11:10:33.906Z</time>
      </trkpt>
      <trkpt lat="44.44997" lon="3.74744">
        <ele>1425.538099</ele>
        <time>2020-03-09T11:10:49.579Z</time>
      </trkpt>
      <trkpt lat="44.44944" lon="3.74725">
        <ele>1429.610588</ele>
        <time>2020-03-09T11:11:14.319Z</time>
      </trkpt>
      <trkpt lat="44.44856" lon="3.74706">
        <ele>1437.441869</ele>
        <time>2020-03-09T11:12:01.225Z</time>
      </trkpt>
      <trkpt lat="44.44793" lon="3.74698">
        <ele>1443.786165</ele>
        <time>2020-03-09T11:12:37.192Z</time>
      </trkpt>
      <trkpt lat="44.44744" lon="3.74701">
        <ele>1448.633054</ele>
        <time>2020-03-09T11:13:03.958Z</time>
      </trkpt>
      <trkpt lat="44.4472" lon="3.74707">
        <ele>1451.107421</ele>
        <time>2020-03-09T11:13:17.779Z</time>
      </trkpt>
      <trkpt lat="44.44698" lon="3.74719">
        <ele>1453.53043</ele>
        <time>2020-03-09T11:13:30.836Z</time>
      </trkpt>
      <trkpt lat="44.44545" lon="3.74827">
        <ele>1470.707122</ele>
        <time>2020-03-09T11:15:08.493Z</time>
      </trkpt>
      <trkpt lat="44.44532" lon="3.74835">
        <ele>1471.793081</ele>
        <time>2020-03-09T11:15:16.090Z</time>
      </trkpt>
      <trkpt lat="44.4453" lon="3.74837">
        <ele>1472.025786</ele>
        <time>2020-03-09T11:15:17.359Z</time>
      </trkpt>
      <trkpt lat="44.44508" lon="3.7485">
        <ele>1473.875468</ele>
        <time>2020-03-09T11:15:28.792Z</time>
      </trkpt>
      <trkpt lat="44.44393" lon="3.74927">
        <ele>1483.431836</ele>
        <time>2020-03-09T11:16:25.996Z</time>
      </trkpt>
      <trkpt lat="44.44207" lon="3.75131">
        <ele>1490.656042</ele>
        <time>2020-03-09T11:17:28.508Z</time>
      </trkpt>
      <trkpt lat="44.44087" lon="3.75184">
        <ele>1492.790709</ele>
        <time>2020-03-09T11:17:51.730Z</time>
      </trkpt>
      <trkpt lat="44.44036" lon="3.7519">
        <ele>1493.806851</ele>
        <time>2020-03-09T11:18:01.717Z</time>
      </trkpt>
      <trkpt lat="44.4391" lon="3.75178">
        <ele>1496.344174</ele>
        <time>2020-03-09T11:18:32.239Z</time>
      </trkpt>
      <trkpt lat="44.43889" lon="3.75181">
        <ele>1496.912947</ele>
        <time>2020-03-09T11:18:38.065Z</time>
      </trkpt>
      <trkpt lat="44.43861" lon="3.75187">
        <ele>1497.679707</ele>
        <time>2020-03-09T11:18:45.736Z</time>
      </trkpt>
      <trkpt lat="44.43803" lon="3.75212">
        <ele>1499.311727</ele>
        <time>2020-03-09T11:19:01.646Z</time>
      </trkpt>
      <trkpt lat="44.43677" lon="3.75305">
        <ele>1503.135827</ele>
        <time>2020-03-09T11:19:36.754Z</time>
      </trkpt>
      <trkpt lat="44.43594" lon="3.75319">
        <ele>1505.416503</ele>
        <time>2020-03-09T11:19:58.277Z</time>
      </trkpt>
      <trkpt lat="44.43566" lon="3.75331">
        <ele>1506.3173</ele>
        <time>2020-03-09T11:20:06.257Z</time>
      </trkpt>
      <trkpt lat="44.43546" lon="3.75352">
        <ele>1507.187902</ele>
        <time>2020-03-09T11:20:13.281Z</time>
      </trkpt>
      <trkpt lat="44.435" lon="3.75427">
        <ele>1509.649736</ele>
        <time>2020-03-09T11:20:34.027Z</time>
      </trkpt>
      <trkpt lat="44.43379" lon="3.75563">
        <ele>1514.691659</ele>
        <time>2020-03-09T11:21:19.567Z</time>
      </trkpt>
      <trkpt lat="44.43376" lon="3.75567">
        <ele>1514.814375</ele>
        <time>2020-03-09T11:21:20.659Z</time>
      </trkpt>
      <trkpt lat="44.43371" lon="3.75574">
        <ele>1515.045702</ele>
        <time>2020-03-09T11:21:22.730Z</time>
      </trkpt>
      <trkpt lat="44.4336" lon="3.75588">
        <ele>1515.504593</ele>
        <time>2020-03-09T11:21:26.605Z</time>
      </trkpt>
      <trkpt lat="44.43347" lon="3.75634">
        <ele>1516.589894</ele>
        <time>2020-03-09T11:21:35.526Z</time>
      </trkpt>
      <trkpt lat="44.43353" lon="3.75756">
        <ele>1518.795916</ele>
        <time>2020-03-09T11:21:56.454Z</time>
      </trkpt>
      <trkpt lat="44.43344" lon="3.75849">
        <ele>1520.272745</ele>
        <time>2020-03-09T11:22:11.963Z</time>
      </trkpt>
      <trkpt lat="44.43328" lon="3.75909">
        <ele>1521.26915</ele>
        <time>2020-03-09T11:22:22.726Z</time>
      </trkpt>
      <trkpt lat="44.43289" lon="3.76004">
        <ele>1522.705725</ele>
        <time>2020-03-09T11:22:41.656Z</time>
      </trkpt>
      <trkpt lat="44.43274" lon="3.76052">
        <ele>1523.369617</ele>
        <time>2020-03-09T11:22:50.205Z</time>
      </trkpt>
      <trkpt lat="44.43252" lon="3.76148">
        <ele>1524.650471</ele>
        <time>2020-03-09T11:23:05.156Z</time>
      </trkpt>
      <trkpt lat="44.43247" lon="3.76211">
        <ele>1524.775345</ele>
        <time>2020-03-09T11:23:13.315Z</time>
      </trkpt>
      <trkpt lat="44.43249" lon="3.76231">
        <ele>1524.788947</ele>
        <time>2020-03-09T11:23:15.865Z</time>
      </trkpt>
      <trkpt lat="44.43249" lon="3.76246">
        <ele>1524.799497</ele>
        <time>2020-03-09T11:23:17.373Z</time>
      </trkpt>
      <trkpt lat="44.43239" lon="3.76318">
        <ele>1524.849501</ele>
        <time>2020-03-09T11:23:25.228Z</time>
      </trkpt>
      <trkpt lat="44.43227" lon="3.76351">
        <ele>1524.874163</ele>
        <time>2020-03-09T11:23:28.653Z</time>
      </trkpt>
      <trkpt lat="44.43214" lon="3.76367">
        <ele>1524.890503</ele>
        <time>2020-03-09T11:23:31.037Z</time>
      </trkpt>
      <trkpt lat="44.43072" lon="3.765">
        <ele>1523.89082</ele>
        <time>2020-03-09T11:23:52.731Z</time>
      </trkpt>
      <trkpt lat="44.43046" lon="3.7651">
        <ele>1523.714244</ele>
        <time>2020-03-09T11:23:56.184Z</time>
      </trkpt>
      <trkpt lat="44.43014" lon="3.76505">
        <ele>1523.901438</ele>
        <time>2020-03-09T11:24:00.467Z</time>
      </trkpt>
      <trkpt lat="44.4296" lon="3.76482">
        <ele>1524.24845</ele>
        <time>2020-03-09T11:24:08.431Z</time>
      </trkpt>
      <trkpt lat="44.42912" lon="3.76462">
        <ele>1524.552086</ele>
        <time>2020-03-09T11:24:17.209Z</time>
      </trkpt>
      <trkpt lat="44.42882" lon="3.76454">
        <ele>1524.737409</ele>
        <time>2020-03-09T11:24:24.037Z</time>
      </trkpt>
      <trkpt lat="44.42809" lon="3.76452">
        <ele>1526.998367</ele>
        <time>2020-03-09T11:24:42.429Z</time>
      </trkpt>
      <trkpt lat="44.42748" lon="3.76452">
        <ele>1529.174149</ele>
        <time>2020-03-09T11:25:00.039Z</time>
      </trkpt>
      <trkpt lat="44.42739" lon="3.76455">
        <ele>1529.495805</ele>
        <time>2020-03-09T11:25:03.065Z</time>
      </trkpt>
      <trkpt lat="44.42638" lon="3.76526">
        <ele>1534.401499</ele>
        <time>2020-03-09T11:25:42.714Z</time>
      </trkpt>
      <trkpt lat="44.42594" lon="3.76537">
        <ele>1536.609925</ele>
        <time>2020-03-09T11:25:59.480Z</time>
      </trkpt>
      <trkpt lat="44.42519" lon="3.76541">
        <ele>1540.20011</ele>
        <time>2020-03-09T11:26:24.429Z</time>
      </trkpt>
      <trkpt lat="44.42502" lon="3.76544">
        <ele>1540.662399</ele>
        <time>2020-03-09T11:26:30.472Z</time>
      </trkpt>
      <trkpt lat="44.42499" lon="3.76545">
        <ele>1540.748145</ele>
        <time>2020-03-09T11:26:31.355Z</time>
      </trkpt>
      <trkpt lat="44.42486" lon="3.76557">
        <ele>1541.149872</ele>
        <time>2020-03-09T11:26:35.396Z</time>
      </trkpt>
      <trkpt lat="44.42482" lon="3.76563">
        <ele>1541.312593</ele>
        <time>2020-03-09T11:26:37.495Z</time>
      </trkpt>
      <trkpt lat="44.42475" lon="3.76586">
        <ele>1541.778932</ele>
        <time>2020-03-09T11:26:42.725Z</time>
      </trkpt>
      <trkpt lat="44.42468" lon="3.76698">
        <ele>1543.930454</ele>
        <time>2020-03-09T11:27:03.301Z</time>
      </trkpt>
      <trkpt lat="44.4244" lon="3.76788">
        <ele>1544.446895</ele>
        <time>2020-03-09T11:27:15.432Z</time>
      </trkpt>
      <trkpt lat="44.42432" lon="3.76807">
        <ele>1544.26775</ele>
        <time>2020-03-09T11:27:17.200Z</time>
      </trkpt>
      <trkpt lat="44.4241" lon="3.76853">
        <ele>1543.798133</ele>
        <time>2020-03-09T11:27:21.926Z</time>
      </trkpt>
      <trkpt lat="44.42391" lon="3.76887">
        <ele>1543.437328</ele>
        <time>2020-03-09T11:27:25.378Z</time>
      </trkpt>
      <trkpt lat="44.42384" lon="3.769">
        <ele>1543.300381</ele>
        <time>2020-03-09T11:27:26.748Z</time>
      </trkpt>
      <trkpt lat="44.42369" lon="3.76925">
        <ele>1543.017539</ele>
        <time>2020-03-09T11:27:29.321Z</time>
      </trkpt>
      <trkpt lat="44.42318" lon="3.76968">
        <ele>1541.616197</ele>
        <time>2020-03-09T11:27:35.642Z</time>
      </trkpt>
      <trkpt lat="44.42245" lon="3.77011">
        <ele>1539.182792</ele>
        <time>2020-03-09T11:27:43.597Z</time>
      </trkpt>
      <trkpt lat="44.42222" lon="3.77018">
        <ele>1538.442256</ele>
        <time>2020-03-09T11:27:45.981Z</time>
      </trkpt>
      <trkpt lat="44.42123" lon="3.77017">
        <ele>1535.116418</ele>
        <time>2020-03-09T11:27:55.825Z</time>
      </trkpt>
      <trkpt lat="44.42032" lon="3.77027">
        <ele>1531.853291</ele>
        <time>2020-03-09T11:28:04.905Z</time>
      </trkpt>
      <trkpt lat="44.41936" lon="3.7705">
        <ele>1528.099318</ele>
        <time>2020-03-09T11:28:14.557Z</time>
      </trkpt>
      <trkpt lat="44.41882" lon="3.77086">
        <ele>1525.709149</ele>
        <time>2020-03-09T11:28:20.440Z</time>
      </trkpt>
      <trkpt lat="44.41819" lon="3.77111">
        <ele>1523.051096</ele>
        <time>2020-03-09T11:28:26.734Z</time>
      </trkpt>
      <trkpt lat="44.41722" lon="3.77194">
        <ele>1517.836494</ele>
        <time>2020-03-09T11:28:37.548Z</time>
      </trkpt>
      <trkpt lat="44.41665" lon="3.77227">
        <ele>1514.894966</ele>
        <time>2020-03-09T11:28:43.508Z</time>
      </trkpt>
      <trkpt lat="44.41614" lon="3.77246">
        <ele>1512.04111</ele>
        <time>2020-03-09T11:28:48.498Z</time>
      </trkpt>
      <trkpt lat="44.41491" lon="3.77338">
        <ele>1504.407267</ele>
        <time>2020-03-09T11:29:01.381Z</time>
      </trkpt>
      <trkpt lat="44.41482" lon="3.77344">
        <ele>1503.83744</ele>
        <time>2020-03-09T11:29:02.253Z</time>
      </trkpt>
      <trkpt lat="44.41476" lon="3.77346">
        <ele>1503.489574</ele>
        <time>2020-03-09T11:29:02.830Z</time>
      </trkpt>
      <trkpt lat="44.41468" lon="3.77347">
        <ele>1503.035072</ele>
        <time>2020-03-09T11:29:03.538Z</time>
      </trkpt>
      <trkpt lat="44.41451" lon="3.77339">
        <ele>1502.003793</ele>
        <time>2020-03-09T11:29:05.216Z</time>
      </trkpt>
      <trkpt lat="44.41444" lon="3.77329">
        <ele>1501.409414</ele>
        <time>2020-03-09T11:29:06.165Z</time>
      </trkpt>
      <trkpt lat="44.4142" lon="3.77242">
        <ele>1497.538446</ele>
        <time>2020-03-09T11:29:12.336Z</time>
      </trkpt>
      <trkpt lat="44.41406" lon="3.77216">
        <ele>1496.167958</ele>
        <time>2020-03-09T11:29:14.503Z</time>
      </trkpt>
      <trkpt lat="44.41324" lon="3.77151">
        <ele>1489.860488</ele>
        <time>2020-03-09T11:29:23.194Z</time>
      </trkpt>
      <trkpt lat="44.41293" lon="3.77126">
        <ele>1487.425437</ele>
        <time>2020-03-09T11:29:26.379Z</time>
      </trkpt>
      <trkpt lat="44.41279" lon="3.77119">
        <ele>1486.432755</ele>
        <time>2020-03-09T11:29:27.656Z</time>
      </trkpt>
      <trkpt lat="44.41249" lon="3.77115">
        <ele>1484.32562</ele>
        <time>2020-03-09T11:29:30.389Z</time>
      </trkpt>
      <trkpt lat="44.41219" lon="3.7712">
        <ele>1482.161083</ele>
        <time>2020-03-09T11:29:33.042Z</time>
      </trkpt>
      <trkpt lat="44.41178" lon="3.77126">
        <ele>1478.645291</ele>
        <time>2020-03-09T11:29:36.682Z</time>
      </trkpt>
      <trkpt lat="44.41097" lon="3.77134">
        <ele>1471.823116</ele>
        <time>2020-03-09T11:29:43.727Z</time>
      </trkpt>
      <trkpt lat="44.4098" lon="3.77099">
        <ele>1462.76284</ele>
        <time>2020-03-09T11:29:54.213Z</time>
      </trkpt>
      <trkpt lat="44.40921" lon="3.77019">
        <ele>1457.026439</ele>
        <time>2020-03-09T11:30:01.665Z</time>
      </trkpt>
      <trkpt lat="44.40887" lon="3.76953">
        <ele>1453.700106</ele>
        <time>2020-03-09T11:30:07.102Z</time>
      </trkpt>
      <trkpt lat="44.40848" lon="3.76764">
        <ele>1447.399686</ele>
        <time>2020-03-09T11:30:20.807Z</time>
      </trkpt>
      <trkpt lat="44.40839" lon="3.76737">
        <ele>1446.513106</ele>
        <time>2020-03-09T11:30:22.887Z</time>
      </trkpt>
      <trkpt lat="44.40817" lon="3.76696">
        <ele>1445.030501</ele>
        <time>2020-03-09T11:30:26.471Z</time>
      </trkpt>
      <trkpt lat="44.40755" lon="3.76637">
        <ele>1441.987289</ele>
        <time>2020-03-09T11:30:33.780Z</time>
      </trkpt>
      <trkpt lat="44.40718" lon="3.7661">
        <ele>1440.265383</ele>
        <time>2020-03-09T11:30:37.896Z</time>
      </trkpt>
      <trkpt lat="44.40681" lon="3.76598">
        <ele>1438.555542</ele>
        <time>2020-03-09T11:30:41.517Z</time>
      </trkpt>
      <trkpt lat="44.40609" lon="3.76589">
        <ele>1435.013139</ele>
        <time>2020-03-09T11:30:48.428Z</time>
      </trkpt>
      <trkpt lat="44.40591" lon="3.76573">
        <ele>1433.991514</ele>
        <time>2020-03-09T11:30:50.413Z</time>
      </trkpt>
      <trkpt lat="44.40586" lon="3.76547">
        <ele>1433.03878</ele>
        <time>2020-03-09T11:30:52.257Z</time>
      </trkpt>
      <trkpt lat="44.40589" lon="3.76526">
        <ele>1432.315634</ele>
        <time>2020-03-09T11:30:53.660Z</time>
      </trkpt>
      <trkpt lat="44.40644" lon="3.76392">
        <ele>1426.087266</ele>
        <time>2020-03-09T11:31:03.988Z</time>
      </trkpt>
      <trkpt lat="44.40643" lon="3.76365">
        <ele>1424.946795</ele>
        <time>2020-03-09T11:31:05.769Z</time>
      </trkpt>
      <trkpt lat="44.40632" lon="3.76343">
        <ele>1423.828839</ele>
        <time>2020-03-09T11:31:07.507Z</time>
      </trkpt>
      <trkpt lat="44.40611" lon="3.76328">
        <ele>1422.426028</ele>
        <time>2020-03-09T11:31:09.677Z</time>
      </trkpt>
      <trkpt lat="44.40535" lon="3.7632">
        <ele>1417.800362</ele>
        <time>2020-03-09T11:31:16.571Z</time>
      </trkpt>
      <trkpt lat="44.40491" lon="3.76301">
        <ele>1414.855429</ele>
        <time>2020-03-09T11:31:20.806Z</time>
      </trkpt>
      <trkpt lat="44.40446" lon="3.76313">
        <ele>1411.957995</ele>
        <time>2020-03-09T11:31:25.007Z</time>
      </trkpt>
      <trkpt lat="44.4042" lon="3.7631">
        <ele>1410.346519</ele>
        <time>2020-03-09T11:31:27.318Z</time>
      </trkpt>
      <trkpt lat="44.40403" lon="3.76306">
        <ele>1409.250054</ele>
        <time>2020-03-09T11:31:28.878Z</time>
      </trkpt>
      <trkpt lat="44.4038" lon="3.76289">
        <ele>1407.62365</ele>
        <time>2020-03-09T11:31:31.268Z</time>
      </trkpt>
      <trkpt lat="44.40374" lon="3.76282">
        <ele>1407.145756</ele>
        <time>2020-03-09T11:31:31.937Z</time>
      </trkpt>
      <trkpt lat="44.40345" lon="3.76249">
        <ele>1404.78211</ele>
        <time>2020-03-09T11:31:35.421Z</time>
      </trkpt>
      <trkpt lat="44.40327" lon="3.76222">
        <ele>1403.129846</ele>
        <time>2020-03-09T11:31:37.895Z</time>
      </trkpt>
      <trkpt lat="44.40316" lon="3.76194">
        <ele>1401.702235</ele>
        <time>2020-03-09T11:31:40.017Z</time>
      </trkpt>
      <trkpt lat="44.40313" lon="3.76182">
        <ele>1401.111854</ele>
        <time>2020-03-09T11:31:40.861Z</time>
      </trkpt>
      <trkpt lat="44.40316" lon="3.7615">
        <ele>1399.671597</ele>
        <time>2020-03-09T11:31:42.980Z</time>
      </trkpt>
      <trkpt lat="44.40368" lon="3.76042">
        <ele>1392.876147</ele>
        <time>2020-03-09T11:31:51.346Z</time>
      </trkpt>
      <trkpt lat="44.40395" lon="3.76016">
        <ele>1390.328842</ele>
        <time>2020-03-09T11:31:54.218Z</time>
      </trkpt>
      <trkpt lat="44.40438" lon="3.76008">
        <ele>1386.947652</ele>
        <time>2020-03-09T11:31:58.061Z</time>
      </trkpt>
      <trkpt lat="44.40461" lon="3.75988">
        <ele>1384.835127</ele>
        <time>2020-03-09T11:32:00.445Z</time>
      </trkpt>
      <trkpt lat="44.40471" lon="3.75966">
        <ele>1383.398497</ele>
        <time>2020-03-09T11:32:02.034Z</time>
      </trkpt>
      <trkpt lat="44.4048" lon="3.75884">
        <ele>1378.38697</ele>
        <time>2020-03-09T11:32:07.226Z</time>
      </trkpt>
      <trkpt lat="44.40496" lon="3.75834">
        <ele>1375.049387</ele>
        <time>2020-03-09T11:32:10.686Z</time>
      </trkpt>
      <trkpt lat="44.4051" lon="3.75806">
        <ele>1372.989554</ele>
        <time>2020-03-09T11:32:12.818Z</time>
      </trkpt>
      <trkpt lat="44.40566" lon="3.75734">
        <ele>1366.627861</ele>
        <time>2020-03-09T11:32:19.492Z</time>
      </trkpt>
      <trkpt lat="44.40754" lon="3.75636">
        <ele>1349.326422</ele>
        <time>2020-03-09T11:32:37.102Z</time>
      </trkpt>
      <trkpt lat="44.40765" lon="3.75625">
        <ele>1347.965833</ele>
        <time>2020-03-09T11:32:38.313Z</time>
      </trkpt>
      <trkpt lat="44.40774" lon="3.75607">
        <ele>1346.456154</ele>
        <time>2020-03-09T11:32:39.665Z</time>
      </trkpt>
      <trkpt lat="44.40819" lon="3.75457">
        <ele>1335.205238</ele>
        <time>2020-03-09T11:32:49.688Z</time>
      </trkpt>
      <trkpt lat="44.40818" lon="3.75389">
        <ele>1330.401722</ele>
        <time>2020-03-09T11:32:53.862Z</time>
      </trkpt>
      <trkpt lat="44.40881" lon="3.75107">
        <ele>1309.202459</ele>
        <time>2020-03-09T11:33:12.151Z</time>
      </trkpt>
      <trkpt lat="44.40876" lon="3.75081">
        <ele>1307.286403</ele>
        <time>2020-03-09T11:33:13.775Z</time>
      </trkpt>
      <trkpt lat="44.4087" lon="3.75074">
        <ele>1306.483084</ele>
        <time>2020-03-09T11:33:14.437Z</time>
      </trkpt>
      <trkpt lat="44.4085" lon="3.75065">
        <ele>1304.340453</ele>
        <time>2020-03-09T11:33:16.238Z</time>
      </trkpt>
      <trkpt lat="44.40818" lon="3.75051">
        <ele>1300.860449</ele>
        <time>2020-03-09T11:33:19.161Z</time>
      </trkpt>
      <trkpt lat="44.40805" lon="3.75053">
        <ele>1299.526023</ele>
        <time>2020-03-09T11:33:20.280Z</time>
      </trkpt>
      <trkpt lat="44.40776" lon="3.75057">
        <ele>1296.677191</ele>
        <time>2020-03-09T11:33:22.704Z</time>
      </trkpt>
      <trkpt lat="44.40732" lon="3.75051">
        <ele>1292.197932</ele>
        <time>2020-03-09T11:33:26.498Z</time>
      </trkpt>
      <trkpt lat="44.40691" lon="3.75023">
        <ele>1287.620235</ele>
        <time>2020-03-09T11:33:30.418Z</time>
      </trkpt>
      <trkpt lat="44.40657" lon="3.7499">
        <ele>1283.481436</ele>
        <time>2020-03-09T11:33:33.997Z</time>
      </trkpt>
      <trkpt lat="44.40644" lon="3.74963">
        <ele>1281.229421</ele>
        <time>2020-03-09T11:33:36.046Z</time>
      </trkpt>
      <trkpt lat="44.4063" lon="3.74908">
        <ele>1277.736374</ele>
        <time>2020-03-09T11:33:39.705Z</time>
      </trkpt>
      <trkpt lat="44.40603" lon="3.74856">
        <ele>1273.906391</ele>
        <time>2020-03-09T11:33:43.749Z</time>
      </trkpt>
      <trkpt lat="44.4059" lon="3.74793">
        <ele>1269.957433</ele>
        <time>2020-03-09T11:33:47.960Z</time>
      </trkpt>
      <trkpt lat="44.40584" lon="3.7478">
        <ele>1269.048502</ele>
        <time>2020-03-09T11:33:48.896Z</time>
      </trkpt>
      <trkpt lat="44.40576" lon="3.74767">
        <ele>1268.060852</ele>
        <time>2020-03-09T11:33:49.923Z</time>
      </trkpt>
      <trkpt lat="44.40566" lon="3.74727">
        <ele>1265.5903</ele>
        <time>2020-03-09T11:33:52.625Z</time>
      </trkpt>
      <trkpt lat="44.40566" lon="3.74706">
        <ele>1264.390215</ele>
        <time>2020-03-09T11:33:54.000Z</time>
      </trkpt>
      <trkpt lat="44.40577" lon="3.74647">
        <ele>1260.941461</ele>
        <time>2020-03-09T11:33:57.878Z</time>
      </trkpt>
      <trkpt lat="44.40582" lon="3.74625">
        <ele>1259.662296</ele>
        <time>2020-03-09T11:33:59.276Z</time>
      </trkpt>
      <trkpt lat="44.40607" lon="3.74565">
        <ele>1255.760933</ele>
        <time>2020-03-09T11:34:03.668Z</time>
      </trkpt>
      <trkpt lat="44.40608" lon="3.74536">
        <ele>1254.127291</ele>
        <time>2020-03-09T11:34:05.535Z</time>
      </trkpt>
      <trkpt lat="44.40595" lon="3.74522">
        <ele>1252.80869</ele>
        <time>2020-03-09T11:34:07.052Z</time>
      </trkpt>
      <trkpt lat="44.40583" lon="3.74524">
        <ele>1251.927392</ele>
        <time>2020-03-09T11:34:08.104Z</time>
      </trkpt>
      <trkpt lat="44.40559" lon="3.74543">
        <ele>1249.912411</ele>
        <time>2020-03-09T11:34:10.554Z</time>
      </trkpt>
      <trkpt lat="44.40533" lon="3.7455">
        <ele>1247.911183</ele>
        <time>2020-03-09T11:34:12.961Z</time>
      </trkpt>
      <trkpt lat="44.40512" lon="3.74543">
        <ele>1246.346084</ele>
        <time>2020-03-09T11:34:14.840Z</time>
      </trkpt>
      <trkpt lat="44.40461" lon="3.7451">
        <ele>1242.231783</ele>
        <time>2020-03-09T11:34:19.865Z</time>
      </trkpt>
      <trkpt lat="44.40441" lon="3.74477">
        <ele>1239.967589</ele>
        <time>2020-03-09T11:34:22.600Z</time>
      </trkpt>
      <trkpt lat="44.4042" lon="3.74421">
        <ele>1237.25602</ele>
        <time>2020-03-09T11:34:26.690Z</time>
      </trkpt>
      <trkpt lat="44.40416" lon="3.74416">
        <ele>1236.964374</ele>
        <time>2020-03-09T11:34:27.146Z</time>
      </trkpt>
      <trkpt lat="44.40412" lon="3.74416">
        <ele>1236.721099</ele>
        <time>2020-03-09T11:34:27.529Z</time>
      </trkpt>
      <trkpt lat="44.40407" lon="3.74429">
        <ele>1236.102555</ele>
        <time>2020-03-09T11:34:28.547Z</time>
      </trkpt>
      <trkpt lat="44.4042" lon="3.74467">
        <ele>1234.416227</ele>
        <time>2020-03-09T11:34:31.304Z</time>
      </trkpt>
      <trkpt lat="44.40421" lon="3.74473">
        <ele>1234.141057</ele>
        <time>2020-03-09T11:34:31.747Z</time>
      </trkpt>
      <trkpt lat="44.40419" lon="3.74498">
        <ele>1233.1372</ele>
        <time>2020-03-09T11:34:33.415Z</time>
      </trkpt>
      <trkpt lat="44.40413" lon="3.74533">
        <ele>1231.716349</ele>
        <time>2020-03-09T11:34:35.837Z</time>
      </trkpt>
      <trkpt lat="44.40412" lon="3.74542">
        <ele>1231.325089</ele>
        <time>2020-03-09T11:34:36.493Z</time>
      </trkpt>
      <trkpt lat="44.40398" lon="3.74582">
        <ele>1229.510974</ele>
        <time>2020-03-09T11:34:39.656Z</time>
      </trkpt>
      <trkpt lat="44.40396" lon="3.74596">
        <ele>1229.034663</ele>
        <time>2020-03-09T11:34:40.561Z</time>
      </trkpt>
      <trkpt lat="44.40397" lon="3.74616">
        <ele>1228.421324</ele>
        <time>2020-03-09T11:34:42.043Z</time>
      </trkpt>
      <trkpt lat="44.40398" lon="3.74638">
        <ele>1227.764835</ele>
        <time>2020-03-09T11:34:43.548Z</time>
      </trkpt>
      <trkpt lat="44.40392" lon="3.74662">
        <ele>1227.007613</ele>
        <time>2020-03-09T11:34:45.287Z</time>
      </trkpt>
      <trkpt lat="44.40383" lon="3.74685">
        <ele>1226.234807</ele>
        <time>2020-03-09T11:34:47.033Z</time>
      </trkpt>
      <trkpt lat="44.40344" lon="3.74767">
        <ele>1223.300112</ele>
        <time>2020-03-09T11:34:53.991Z</time>
      </trkpt>
      <trkpt lat="44.40336" lon="3.7478">
        <ele>1222.776663</ele>
        <time>2020-03-09T11:34:55.144Z</time>
      </trkpt>
      <trkpt lat="44.40325" lon="3.74792">
        <ele>1222.210489</ele>
        <time>2020-03-09T11:34:56.703Z</time>
      </trkpt>
      <trkpt lat="44.40319" lon="3.74797">
        <ele>1221.922537</ele>
        <time>2020-03-09T11:34:57.426Z</time>
      </trkpt>
      <trkpt lat="44.40308" lon="3.74805">
        <ele>1221.369476</ele>
        <time>2020-03-09T11:34:58.536Z</time>
      </trkpt>
      <trkpt lat="44.40282" lon="3.74815">
        <ele>1220.12816</ele>
        <time>2020-03-09T11:35:01.255Z</time>
      </trkpt>
      <trkpt lat="44.40224" lon="3.74827">
        <ele>1217.360661</ele>
        <time>2020-03-09T11:35:06.898Z</time>
      </trkpt>
      <trkpt lat="44.40196" lon="3.7484">
        <ele>1215.988468</ele>
        <time>2020-03-09T11:35:09.636Z</time>
      </trkpt>
      <trkpt lat="44.40175" lon="3.74867">
        <ele>1214.649729</ele>
        <time>2020-03-09T11:35:12.268Z</time>
      </trkpt>
      <trkpt lat="44.40161" lon="3.74908">
        <ele>1213.139405</ele>
        <time>2020-03-09T11:35:15.412Z</time>
      </trkpt>
      <trkpt lat="44.40149" lon="3.74924">
        <ele>1212.360943</ele>
        <time>2020-03-09T11:35:17.015Z</time>
      </trkpt>
      <trkpt lat="44.40128" lon="3.74938">
        <ele>1211.269791</ele>
        <time>2020-03-09T11:35:19.276Z</time>
      </trkpt>
      <trkpt lat="44.4012" lon="3.7494">
        <ele>1210.884016</ele>
        <time>2020-03-09T11:35:20.086Z</time>
      </trkpt>
      <trkpt lat="44.40111" lon="3.7494">
        <ele>1210.461254</ele>
        <time>2020-03-09T11:35:20.903Z</time>
      </trkpt>
      <trkpt lat="44.40068" lon="3.74929">
        <ele>1208.412216</ele>
        <time>2020-03-09T11:35:25.130Z</time>
      </trkpt>
      <trkpt lat="44.40019" lon="3.74938">
        <ele>1206.083024</ele>
        <time>2020-03-09T11:35:29.826Z</time>
      </trkpt>
      <trkpt lat="44.40005" lon="3.74944">
        <ele>1205.382769</ele>
        <time>2020-03-09T11:35:31.183Z</time>
      </trkpt>
      <trkpt lat="44.39975" lon="3.74968">
        <ele>1203.916277</ele>
        <time>2020-03-09T11:35:34.358Z</time>
      </trkpt>
      <trkpt lat="44.39895" lon="3.75004">
        <ele>1200.414271</ele>
        <time>2020-03-09T11:35:42.521Z</time>
      </trkpt>
      <trkpt lat="44.39879" lon="3.75013">
        <ele>1199.705961</ele>
        <time>2020-03-09T11:35:44.133Z</time>
      </trkpt>
      <trkpt lat="44.39869" lon="3.75027">
        <ele>1199.118442</ele>
        <time>2020-03-09T11:35:45.621Z</time>
      </trkpt>
      <trkpt lat="44.39843" lon="3.75089">
        <ele>1197.072681</ele>
        <time>2020-03-09T11:35:50.779Z</time>
      </trkpt>
      <trkpt lat="44.39843" lon="3.75131">
        <ele>1196.089168</ele>
        <time>2020-03-09T11:35:53.873Z</time>
      </trkpt>
      <trkpt lat="44.39841" lon="3.75145">
        <ele>1195.748926</ele>
        <time>2020-03-09T11:35:54.879Z</time>
      </trkpt>
      <trkpt lat="44.39832" lon="3.75157">
        <ele>1195.342579</ele>
        <time>2020-03-09T11:35:56.189Z</time>
      </trkpt>
      <trkpt lat="44.39813" lon="3.75162">
        <ele>1194.692007</ele>
        <time>2020-03-09T11:35:58.170Z</time>
      </trkpt>
      <trkpt lat="44.39781" lon="3.75155">
        <ele>1193.632264</ele>
        <time>2020-03-09T11:36:01.536Z</time>
      </trkpt>
      <trkpt lat="44.39757" lon="3.75161">
        <ele>1192.851391</ele>
        <time>2020-03-09T11:36:04.043Z</time>
      </trkpt>
      <trkpt lat="44.39729" lon="3.75197">
        <ele>1191.60929</ele>
        <time>2020-03-09T11:36:07.916Z</time>
      </trkpt>
      <trkpt lat="44.39713" lon="3.75206">
        <ele>1190.805379</ele>
        <time>2020-03-09T11:36:09.609Z</time>
      </trkpt>
      <trkpt lat="44.39699" lon="3.75206">
        <ele>1190.080717</ele>
        <time>2020-03-09T11:36:11.048Z</time>
      </trkpt>
      <trkpt lat="44.39686" lon="3.75199">
        <ele>1189.409831</ele>
        <time>2020-03-09T11:36:12.350Z</time>
      </trkpt>
      <trkpt lat="44.39639" lon="3.75125">
        <ele>1185.919286</ele>
        <time>2020-03-09T11:36:18.986Z</time>
      </trkpt>
      <trkpt lat="44.39618" lon="3.75115">
        <ele>1184.836319</ele>
        <time>2020-03-09T11:36:21.022Z</time>
      </trkpt>
      <trkpt lat="44.3951" lon="3.75143">
        <ele>1178.94481</ele>
        <time>2020-03-09T11:36:31.195Z</time>
      </trkpt>
      <trkpt lat="44.3944" lon="3.75175">
        <ele>1174.753626</ele>
        <time>2020-03-09T11:36:38.153Z</time>
      </trkpt>
      <trkpt lat="44.39412" lon="3.75189">
        <ele>1173.128208</ele>
        <time>2020-03-09T11:36:40.892Z</time>
      </trkpt>
      <trkpt lat="44.3935" lon="3.75214">
        <ele>1168.416666</ele>
        <time>2020-03-09T11:36:46.747Z</time>
      </trkpt>
      <trkpt lat="44.3929" lon="3.75222">
        <ele>1163.880113</ele>
        <time>2020-03-09T11:36:52.063Z</time>
      </trkpt>
      <trkpt lat="44.39271" lon="3.75214">
        <ele>1162.408655</ele>
        <time>2020-03-09T11:36:53.745Z</time>
      </trkpt>
      <trkpt lat="44.39259" lon="3.75198">
        <ele>1161.16681</ele>
        <time>2020-03-09T11:36:55.230Z</time>
      </trkpt>
      <trkpt lat="44.39254" lon="3.75185">
        <ele>1160.330091</ele>
        <time>2020-03-09T11:36:56.203Z</time>
      </trkpt>
      <trkpt lat="44.39248" lon="3.75165">
        <ele>1159.168015</ele>
        <time>2020-03-09T11:36:57.535Z</time>
      </trkpt>
      <trkpt lat="44.39236" lon="3.75142">
        <ele>1157.732893</ele>
        <time>2020-03-09T11:36:59.372Z</time>
      </trkpt>
      <trkpt lat="44.39214" lon="3.75124">
        <ele>1155.951077</ele>
        <time>2020-03-09T11:37:01.639Z</time>
      </trkpt>
      <trkpt lat="44.39193" lon="3.75119">
        <ele>1154.472745</ele>
        <time>2020-03-09T11:37:03.479Z</time>
      </trkpt>
      <trkpt lat="44.39171" lon="3.75125">
        <ele>1152.88641</ele>
        <time>2020-03-09T11:37:05.515Z</time>
      </trkpt>
      <trkpt lat="44.39145" lon="3.75151">
        <ele>1150.683317</ele>
        <time>2020-03-09T11:37:08.319Z</time>
      </trkpt>
      <trkpt lat="44.39082" lon="3.75263">
        <ele>1144.402812</ele>
        <time>2020-03-09T11:37:17.870Z</time>
      </trkpt>
      <trkpt lat="44.39059" lon="3.75295">
        <ele>1142.803071</ele>
        <time>2020-03-09T11:37:21.060Z</time>
      </trkpt>
      <trkpt lat="44.38996" lon="3.75331">
        <ele>1139.422695</ele>
        <time>2020-03-09T11:37:27.645Z</time>
      </trkpt>
      <trkpt lat="44.38941" lon="3.75347">
        <ele>1136.136367</ele>
        <time>2020-03-09T11:37:32.896Z</time>
      </trkpt>
      <trkpt lat="44.38916" lon="3.75344">
        <ele>1134.245343</ele>
        <time>2020-03-09T11:37:35.122Z</time>
      </trkpt>
      <trkpt lat="44.38894" lon="3.75319">
        <ele>1132.056608</ele>
        <time>2020-03-09T11:37:37.667Z</time>
      </trkpt>
      <trkpt lat="44.38882" lon="3.75313">
        <ele>1131.024443</ele>
        <time>2020-03-09T11:37:38.857Z</time>
      </trkpt>
      <trkpt lat="44.38858" lon="3.75316">
        <ele>1129.195375</ele>
        <time>2020-03-09T11:37:40.947Z</time>
      </trkpt>
      <trkpt lat="44.3883" lon="3.75331">
        <ele>1126.853013</ele>
        <time>2020-03-09T11:37:43.616Z</time>
      </trkpt>
      <trkpt lat="44.38808" lon="3.75336">
        <ele>1125.190445</ele>
        <time>2020-03-09T11:37:45.484Z</time>
      </trkpt>
      <trkpt lat="44.38758" lon="3.75296">
        <ele>1119.983273</ele>
        <time>2020-03-09T11:37:50.478Z</time>
      </trkpt>
      <trkpt lat="44.38733" lon="3.75288">
        <ele>1117.520773</ele>
        <time>2020-03-09T11:37:52.668Z</time>
      </trkpt>
      <trkpt lat="44.38557" lon="3.75329">
        <ele>1101.700047</ele>
        <time>2020-03-09T11:38:08.114Z</time>
      </trkpt>
      <trkpt lat="44.38419" lon="3.75336">
        <ele>1093.134277</ele>
        <time>2020-03-09T11:38:20.557Z</time>
      </trkpt>
      <trkpt lat="44.38401" lon="3.75352">
        <ele>1093.102814</ele>
        <time>2020-03-09T11:38:22.807Z</time>
      </trkpt>
      <trkpt lat="44.38362" lon="3.75412">
        <ele>1093.020517</ele>
        <time>2020-03-09T11:38:34.936Z</time>
      </trkpt>
      <trkpt lat="44.38356" lon="3.75446">
        <ele>1092.984732</ele>
        <time>2020-03-09T11:38:41.155Z</time>
      </trkpt>
      <trkpt lat="44.38328" lon="3.75502">
        <ele>1092.915547</ele>
        <time>2020-03-09T11:38:52.757Z</time>
      </trkpt>
      <trkpt lat="44.38324" lon="3.75542">
        <ele>1092.529054</ele>
        <time>2020-03-09T11:38:58.750Z</time>
      </trkpt>
      <trkpt lat="44.38321" lon="3.75556">
        <ele>1092.33775</ele>
        <time>2020-03-09T11:39:01.806Z</time>
      </trkpt>
      <trkpt lat="44.38304" lon="3.7558">
        <ele>1091.932662</ele>
        <time>2020-03-09T11:39:05.365Z</time>
      </trkpt>
      <trkpt lat="44.38294" lon="3.75581">
        <ele>1091.75545</ele>
        <time>2020-03-09T11:39:07.001Z</time>
      </trkpt>
      <trkpt lat="44.38283" lon="3.75574">
        <ele>1091.544656</ele>
        <time>2020-03-09T11:39:08.762Z</time>
      </trkpt>
      <trkpt lat="44.38251" lon="3.75493">
        <ele>1090.405118</ele>
        <time>2020-03-09T11:39:16.034Z</time>
      </trkpt>
      <trkpt lat="44.38249" lon="3.75435">
        <ele>1089.240293</ele>
        <time>2020-03-09T11:39:20.049Z</time>
      </trkpt>
      <trkpt lat="44.38255" lon="3.75309">
        <ele>1081.596631</ele>
        <time>2020-03-09T11:39:27.851Z</time>
      </trkpt>
      <trkpt lat="44.38253" lon="3.75297">
        <ele>1080.803782</ele>
        <time>2020-03-09T11:39:28.662Z</time>
      </trkpt>
      <trkpt lat="44.38237" lon="3.75279">
        <ele>1079.112606</ele>
        <time>2020-03-09T11:39:30.386Z</time>
      </trkpt>
      <trkpt lat="44.38047" lon="3.75281">
        <ele>1062.712248</ele>
        <time>2020-03-09T11:39:47.062Z</time>
      </trkpt>
      <trkpt lat="44.38019" lon="3.75274">
        <ele>1060.227203</ele>
        <time>2020-03-09T11:39:49.581Z</time>
      </trkpt>
      <trkpt lat="44.37946" lon="3.75233">
        <ele>1053.189147</ele>
        <time>2020-03-09T11:39:56.364Z</time>
      </trkpt>
      <trkpt lat="44.37893" lon="3.75224">
        <ele>1048.252312</ele>
        <time>2020-03-09T11:40:01.057Z</time>
      </trkpt>
      <trkpt lat="44.37849" lon="3.75233">
        <ele>1044.253488</ele>
        <time>2020-03-09T11:40:04.831Z</time>
      </trkpt>
      <trkpt lat="44.37768" lon="3.75209">
        <ele>1037.633389</ele>
        <time>2020-03-09T11:40:12.093Z</time>
      </trkpt>
      <trkpt lat="44.37727" lon="3.75198">
        <ele>1034.460863</ele>
        <time>2020-03-09T11:40:15.778Z</time>
      </trkpt>
      <trkpt lat="44.37667" lon="3.75201">
        <ele>1029.826867</ele>
        <time>2020-03-09T11:40:21.271Z</time>
      </trkpt>
      <trkpt lat="44.37618" lon="3.75198">
        <ele>1026.622886</ele>
        <time>2020-03-09T11:40:25.716Z</time>
      </trkpt>
      <trkpt lat="44.37571" lon="3.75182">
        <ele>1023.665449</ele>
        <time>2020-03-09T11:40:30.166Z</time>
      </trkpt>
      <trkpt lat="44.37496" lon="3.75142">
        <ele>1018.762975</ele>
        <time>2020-03-09T11:40:37.525Z</time>
      </trkpt>
      <trkpt lat="44.37448" lon="3.75146">
        <ele>1015.836096</ele>
        <time>2020-03-09T11:40:41.891Z</time>
      </trkpt>
      <trkpt lat="44.37356" lon="3.75132">
        <ele>1010.24804</ele>
        <time>2020-03-09T11:40:50.258Z</time>
      </trkpt>
      <trkpt lat="44.37319" lon="3.75117">
        <ele>1007.858466</ele>
        <time>2020-03-09T11:40:53.881Z</time>
      </trkpt>
      <trkpt lat="44.37229" lon="3.75106">
        <ele>1002.795959</ele>
        <time>2020-03-09T11:41:02.319Z</time>
      </trkpt>
      <trkpt lat="44.37181" lon="3.75078">
        <ele>999.938549</ele>
        <time>2020-03-09T11:41:07.240Z</time>
      </trkpt>
      <trkpt lat="44.3715" lon="3.7505">
        <ele>997.938945</ele>
        <time>2020-03-09T11:41:10.623Z</time>
      </trkpt>
      <trkpt lat="44.3711" lon="3.74995">
        <ele>994.241217</ele>
        <time>2020-03-09T11:41:15.734Z</time>
      </trkpt>
      <trkpt lat="44.37072" lon="3.74978">
        <ele>991.473598</ele>
        <time>2020-03-09T11:41:19.300Z</time>
      </trkpt>
      <trkpt lat="44.37031" lon="3.74913">
        <ele>987.177343</ele>
        <time>2020-03-09T11:41:24.827Z</time>
      </trkpt>
      <trkpt lat="44.37012" lon="3.74894">
        <ele>985.528063</ele>
        <time>2020-03-09T11:41:26.913Z</time>
      </trkpt>
      <trkpt lat="44.36956" lon="3.74866">
        <ele>981.067743</ele>
        <time>2020-03-09T11:41:32.298Z</time>
      </trkpt>
      <trkpt lat="44.36837" lon="3.74858">
        <ele>972.055696</ele>
        <time>2020-03-09T11:41:42.900Z</time>
      </trkpt>
      <trkpt lat="44.36788" lon="3.74843">
        <ele>967.287907</ele>
        <time>2020-03-09T11:41:47.329Z</time>
      </trkpt>
      <trkpt lat="44.36767" lon="3.74822">
        <ele>964.592954</ele>
        <time>2020-03-09T11:41:49.568Z</time>
      </trkpt>
      <trkpt lat="44.36726" lon="3.74744">
        <ele>957.433574</ele>
        <time>2020-03-09T11:41:55.448Z</time>
      </trkpt>
      <trkpt lat="44.36698" lon="3.74709">
        <ele>953.496064</ele>
        <time>2020-03-09T11:41:58.692Z</time>
      </trkpt>
      <trkpt lat="44.36682" lon="3.747">
        <ele>951.542714</ele>
        <time>2020-03-09T11:42:00.125Z</time>
      </trkpt>
      <trkpt lat="44.36655" lon="3.74694">
        <ele>947.293487</ele>
        <time>2020-03-09T11:42:02.451Z</time>
      </trkpt>
      <trkpt lat="44.36545" lon="3.74671">
        <ele>930.025442</ele>
        <time>2020-03-09T11:42:11.642Z</time>
      </trkpt>
      <trkpt lat="44.36522" lon="3.7466">
        <ele>926.262124</ele>
        <time>2020-03-09T11:42:13.629Z</time>
      </trkpt>
      <trkpt lat="44.36509" lon="3.74653">
        <ele>924.163091</ele>
        <time>2020-03-09T11:42:14.774Z</time>
      </trkpt>
      <trkpt lat="44.365" lon="3.74651">
        <ele>922.899089</ele>
        <time>2020-03-09T11:42:15.531Z</time>
      </trkpt>
      <trkpt lat="44.36489" lon="3.74649">
        <ele>921.322229</ele>
        <time>2020-03-09T11:42:16.446Z</time>
      </trkpt>
      <trkpt lat="44.36437" lon="3.74647">
        <ele>913.982495</ele>
        <time>2020-03-09T11:42:20.807Z</time>
      </trkpt>
      <trkpt lat="44.36416" lon="3.74652">
        <ele>911.032725</ele>
        <time>2020-03-09T11:42:22.552Z</time>
      </trkpt>
      <trkpt lat="44.36406" lon="3.74655">
        <ele>909.619015</ele>
        <time>2020-03-09T11:42:23.389Z</time>
      </trkpt>
      <trkpt lat="44.3639" lon="3.74667">
        <ele>907.016074</ele>
        <time>2020-03-09T11:42:24.951Z</time>
      </trkpt>
      <trkpt lat="44.36381" lon="3.7469">
        <ele>904.435846</ele>
        <time>2020-03-09T11:42:26.490Z</time>
      </trkpt>
      <trkpt lat="44.36375" lon="3.74726">
        <ele>900.813064</ele>
        <time>2020-03-09T11:42:28.694Z</time>
      </trkpt>
      <trkpt lat="44.36369" lon="3.74729">
        <ele>899.89529</ele>
        <time>2020-03-09T11:42:29.268Z</time>
      </trkpt>
      <trkpt lat="44.36367" lon="3.74728">
        <ele>899.577582</ele>
        <time>2020-03-09T11:42:29.455Z</time>
      </trkpt>
      <trkpt lat="44.36364" lon="3.74725">
        <ele>899.08462</ele>
        <time>2020-03-09T11:42:29.786Z</time>
      </trkpt>
      <trkpt lat="44.36364" lon="3.74713">
        <ele>898.652921</ele>
        <time>2020-03-09T11:42:30.567Z</time>
      </trkpt>
      <trkpt lat="44.36381" lon="3.74637">
        <ele>896.138242</ele>
        <time>2020-03-09T11:42:35.571Z</time>
      </trkpt>
      <trkpt lat="44.36399" lon="3.74557">
        <ele>893.456081</ele>
        <time>2020-03-09T11:42:41.653Z</time>
      </trkpt>
      <trkpt lat="44.36399" lon="3.74542">
        <ele>892.980554</ele>
        <time>2020-03-09T11:42:42.892Z</time>
      </trkpt>
      <trkpt lat="44.36397" lon="3.74535">
        <ele>892.75348</ele>
        <time>2020-03-09T11:42:43.339Z</time>
      </trkpt>
      <trkpt lat="44.36392" lon="3.74531">
        <ele>892.480911</ele>
        <time>2020-03-09T11:42:44.005Z</time>
      </trkpt>
      <trkpt lat="44.36384" lon="3.74529">
        <ele>892.133051</ele>
        <time>2020-03-09T11:42:45.414Z</time>
      </trkpt>
      <trkpt lat="44.36377" lon="3.74533">
        <ele>891.792451</ele>
        <time>2020-03-09T11:42:46.868Z</time>
      </trkpt>
      <trkpt lat="44.36352" lon="3.74585">
        <ele>892.199872</ele>
        <time>2020-03-09T11:42:56.932Z</time>
      </trkpt>
      <trkpt lat="44.36339" lon="3.74633">
        <ele>893.695279</ele>
        <time>2020-03-09T11:43:06.562Z</time>
      </trkpt>
      <trkpt lat="44.36342" lon="3.74687">
        <ele>895.29852</ele>
        <time>2020-03-09T11:43:18.209Z</time>
      </trkpt>
      <trkpt lat="44.36339" lon="3.747">
        <ele>895.690758</ele>
        <time>2020-03-09T11:43:20.931Z</time>
      </trkpt>
      <trkpt lat="44.36336" lon="3.74703">
        <ele>895.855255</ele>
        <time>2020-03-09T11:43:22.321Z</time>
      </trkpt>
      <trkpt lat="44.36343" lon="3.74746">
        <ele>897.114023</ele>
        <time>2020-03-09T11:43:34.074Z</time>
      </trkpt>
      <trkpt lat="44.36331" lon="3.74869">
        <ele>902.686858</ele>
        <time>2020-03-09T11:44:14.812Z</time>
      </trkpt>
      <trkpt lat="44.36308" lon="3.7495">
        <ele>907.329913</ele>
        <time>2020-03-09T11:44:45.499Z</time>
      </trkpt>
      <trkpt lat="44.36305" lon="3.75047">
        <ele>912.236527</ele>
        <time>2020-03-09T11:45:14.449Z</time>
      </trkpt>
      <trkpt lat="44.36309" lon="3.75095">
        <ele>914.01767</ele>
        <time>2020-03-09T11:45:27.924Z</time>
      </trkpt>
      <trkpt lat="44.36343" lon="3.7522">
        <ele>918.971529</ele>
        <time>2020-03-09T11:46:01.333Z</time>
      </trkpt>
      <trkpt lat="44.36347" lon="3.75281">
        <ele>921.175056</ele>
        <time>2020-03-09T11:46:15.282Z</time>
      </trkpt>
      <trkpt lat="44.36342" lon="3.75321">
        <ele>922.18317</ele>
        <time>2020-03-09T11:46:24.099Z</time>
      </trkpt>
      <trkpt lat="44.36302" lon="3.75416">
        <ele>924.936203</ele>
        <time>2020-03-09T11:46:47.010Z</time>
      </trkpt>
      <trkpt lat="44.36286" lon="3.75438">
        <ele>925.737388</ele>
        <time>2020-03-09T11:46:53.451Z</time>
      </trkpt>
      <trkpt lat="44.36096" lon="3.75552">
        <ele>932.021012</ele>
        <time>2020-03-09T11:47:48.192Z</time>
      </trkpt>
      <trkpt lat="44.36026" lon="3.7563">
        <ele>934.493819</ele>
        <time>2020-03-09T11:48:11.017Z</time>
      </trkpt>
      <trkpt lat="44.35991" lon="3.75661">
        <ele>935.645006</ele>
        <time>2020-03-09T11:48:21.909Z</time>
      </trkpt>
      <trkpt lat="44.3598" lon="3.75683">
        <ele>936.154281</ele>
        <time>2020-03-09T11:48:26.732Z</time>
      </trkpt>
      <trkpt lat="44.35974" lon="3.7571">
        <ele>936.705712</ele>
        <time>2020-03-09T11:48:31.999Z</time>
      </trkpt>
      <trkpt lat="44.35975" lon="3.75737">
        <ele>937.231979</ele>
        <time>2020-03-09T11:48:36.988Z</time>
      </trkpt>
      <trkpt lat="44.35996" lon="3.75802">
        <ele>938.602281</ele>
        <time>2020-03-09T11:48:50.472Z</time>
      </trkpt>
      <trkpt lat="44.36019" lon="3.75913">
        <ele>940.766789</ele>
        <time>2020-03-09T11:49:11.699Z</time>
      </trkpt>
      <trkpt lat="44.36012" lon="3.76008">
        <ele>942.514132</ele>
        <time>2020-03-09T11:49:28.544Z</time>
      </trkpt>
      <trkpt lat="44.36023" lon="3.76095">
        <ele>943.944643</ele>
        <time>2020-03-09T11:49:43.615Z</time>
      </trkpt>
      <trkpt lat="44.36034" lon="3.76375">
        <ele>948.730018</ele>
        <time>2020-03-09T11:50:30.867Z</time>
      </trkpt>
      <trkpt lat="44.36049" lon="3.7647">
        <ele>950.491477</ele>
        <time>2020-03-09T11:50:48.334Z</time>
      </trkpt>
      <trkpt lat="44.36044" lon="3.76568">
        <ele>953.285493</ele>
        <time>2020-03-09T11:51:08.162Z</time>
      </trkpt>
      <trkpt lat="44.36049" lon="3.76588">
        <ele>953.916373</ele>
        <time>2020-03-09T11:51:13.962Z</time>
      </trkpt>
      <trkpt lat="44.36062" lon="3.76604">
        <ele>954.699306</ele>
        <time>2020-03-09T11:51:20.153Z</time>
      </trkpt>
      <trkpt lat="44.36081" lon="3.76613">
        <ele>955.576523</ele>
        <time>2020-03-09T11:51:27.860Z</time>
      </trkpt>
      <trkpt lat="44.361" lon="3.76613">
        <ele>956.365483</ele>
        <time>2020-03-09T11:51:33.718Z</time>
      </trkpt>
      <trkpt lat="44.36132" lon="3.76603">
        <ele>957.806502</ele>
        <time>2020-03-09T11:51:44.948Z</time>
      </trkpt>
      <trkpt lat="44.36145" lon="3.76608">
        <ele>958.394081</ele>
        <time>2020-03-09T11:51:49.384Z</time>
      </trkpt>
      <trkpt lat="44.36152" lon="3.76617">
        <ele>958.799996</ele>
        <time>2020-03-09T11:51:52.990Z</time>
      </trkpt>
      <trkpt lat="44.36154" lon="3.76632">
        <ele>959.277304</ele>
        <time>2020-03-09T11:51:55.629Z</time>
      </trkpt>
      <trkpt lat="44.36154" lon="3.76661">
        <ele>960.199592</ele>
        <time>2020-03-09T11:52:02.293Z</time>
      </trkpt>
      <trkpt lat="44.3615" lon="3.76674">
        <ele>960.670287</ele>
        <time>2020-03-09T11:52:05.245Z</time>
      </trkpt>
      <trkpt lat="44.36124" lon="3.76698">
        <ele>962.037107</ele>
        <time>2020-03-09T11:52:16.345Z</time>
      </trkpt>
      <trkpt lat="44.3606" lon="3.76718">
        <ele>964.959116</ele>
        <time>2020-03-09T11:52:39.149Z</time>
      </trkpt>
      <trkpt lat="44.36007" lon="3.76732">
        <ele>967.161638</ele>
        <time>2020-03-09T11:52:55.138Z</time>
      </trkpt>
      <trkpt lat="44.35992" lon="3.76742">
        <ele>967.677472</ele>
        <time>2020-03-09T11:53:00.349Z</time>
      </trkpt>
      <trkpt lat="44.35956" lon="3.76814">
        <ele>969.682082</ele>
        <time>2020-03-09T11:53:16.398Z</time>
      </trkpt>
      <trkpt lat="44.35937" lon="3.76834">
        <ele>970.433341</ele>
        <time>2020-03-09T11:53:22.657Z</time>
      </trkpt>
      <trkpt lat="44.35914" lon="3.7685">
        <ele>971.253961</ele>
        <time>2020-03-09T11:53:30.565Z</time>
      </trkpt>
      <trkpt lat="44.35838" lon="3.76871">
        <ele>973.187005</ele>
        <time>2020-03-09T11:53:50.960Z</time>
      </trkpt>
      <trkpt lat="44.35813" lon="3.76888">
        <ele>973.72591</ele>
        <time>2020-03-09T11:53:57.206Z</time>
      </trkpt>
      <trkpt lat="44.3576" lon="3.76943">
        <ele>975.018436</ele>
        <time>2020-03-09T11:54:11.577Z</time>
      </trkpt>
      <trkpt lat="44.35749" lon="3.7696">
        <ele>975.337399</ele>
        <time>2020-03-09T11:54:14.993Z</time>
      </trkpt>
      <trkpt lat="44.35743" lon="3.76983">
        <ele>975.665174</ele>
        <time>2020-03-09T11:54:18.351Z</time>
      </trkpt>
      <trkpt lat="44.35751" lon="3.77064">
        <ele>976.381904</ele>
        <time>2020-03-09T11:54:29.605Z</time>
      </trkpt>
      <trkpt lat="44.35756" lon="3.77083">
        <ele>976.540023</ele>
        <time>2020-03-09T11:54:32.213Z</time>
      </trkpt>
      <trkpt lat="44.35766" lon="3.77094">
        <ele>976.677446</ele>
        <time>2020-03-09T11:54:34.583Z</time>
      </trkpt>
      <trkpt lat="44.35783" lon="3.77098">
        <ele>976.860346</ele>
        <time>2020-03-09T11:54:37.520Z</time>
      </trkpt>
      <trkpt lat="44.35881" lon="3.77079">
        <ele>978.013403</ele>
        <time>2020-03-09T11:54:56.244Z</time>
      </trkpt>
      <trkpt lat="44.35895" lon="3.77092">
        <ele>978.330924</ele>
        <time>2020-03-09T11:54:59.705Z</time>
      </trkpt>
      <trkpt lat="44.35905" lon="3.7711">
        <ele>978.618172</ele>
        <time>2020-03-09T11:55:03.614Z</time>
      </trkpt>
      <trkpt lat="44.35907" lon="3.77136">
        <ele>978.947797</ele>
        <time>2020-03-09T11:55:07.296Z</time>
      </trkpt>
      <trkpt lat="44.35892" lon="3.77249">
        <ele>980.439601</ele>
        <time>2020-03-09T11:55:26.146Z</time>
      </trkpt>
      <trkpt lat="44.35883" lon="3.7729">
        <ele>980.986396</ele>
        <time>2020-03-09T11:55:32.841Z</time>
      </trkpt>
      <trkpt lat="44.35879" lon="3.77307">
        <ele>981.259405</ele>
        <time>2020-03-09T11:55:36.247Z</time>
      </trkpt>
      <trkpt lat="44.35862" lon="3.77363">
        <ele>982.219745</ele>
        <time>2020-03-09T11:55:46.683Z</time>
      </trkpt>
      <trkpt lat="44.35843" lon="3.77404">
        <ele>982.992247</ele>
        <time>2020-03-09T11:55:55.282Z</time>
      </trkpt>
      <trkpt lat="44.35801" lon="3.77467">
        <ele>984.3472</ele>
        <time>2020-03-09T11:56:10.095Z</time>
      </trkpt>
      <trkpt lat="44.35785" lon="3.77503">
        <ele>985.029306</ele>
        <time>2020-03-09T11:56:17.205Z</time>
      </trkpt>
      <trkpt lat="44.35774" lon="3.7752">
        <ele>985.339002</ele>
        <time>2020-03-09T11:56:20.836Z</time>
      </trkpt>
      <trkpt lat="44.35727" lon="3.77551">
        <ele>986.352206</ele>
        <time>2020-03-09T11:56:32.173Z</time>
      </trkpt>
      <trkpt lat="44.35709" lon="3.77582">
        <ele>986.892673</ele>
        <time>2020-03-09T11:56:38.367Z</time>
      </trkpt>
      <trkpt lat="44.35693" lon="3.77638">
        <ele>987.733229</ele>
        <time>2020-03-09T11:56:48.270Z</time>
      </trkpt>
      <trkpt lat="44.35625" lon="3.77712">
        <ele>989.62306</ele>
        <time>2020-03-09T11:57:07.838Z</time>
      </trkpt>
      <trkpt lat="44.35584" lon="3.77794">
        <ele>991.372345</ele>
        <time>2020-03-09T11:57:25.452Z</time>
      </trkpt>
      <trkpt lat="44.35559" lon="3.77826">
        <ele>992.208978</ele>
        <time>2020-03-09T11:57:34.190Z</time>
      </trkpt>
      <trkpt lat="44.35514" lon="3.77866">
        <ele>993.590734</ele>
        <time>2020-03-09T11:57:48.019Z</time>
      </trkpt>
      <trkpt lat="44.35485" lon="3.77904">
        <ele>994.680686</ele>
        <time>2020-03-09T11:57:58.365Z</time>
      </trkpt>
      <trkpt lat="44.35417" lon="3.77955">
        <ele>996.856037</ele>
        <time>2020-03-09T11:58:18.975Z</time>
      </trkpt>
      <trkpt lat="44.35278" lon="3.78135">
        <ele>1001.798303</ele>
        <time>2020-03-09T11:59:07.257Z</time>
      </trkpt>
      <trkpt lat="44.35057" lon="3.78327">
        <ele>1007.408617</ele>
        <time>2020-03-09T12:00:07.269Z</time>
      </trkpt>
      <trkpt lat="44.35049" lon="3.78343">
        <ele>1007.697621</ele>
        <time>2020-03-09T12:00:10.521Z</time>
      </trkpt>
      <trkpt lat="44.3504" lon="3.78385">
        <ele>1008.354102</ele>
        <time>2020-03-09T12:00:17.924Z</time>
      </trkpt>
      <trkpt lat="44.35019" lon="3.78422">
        <ele>1009.052944</ele>
        <time>2020-03-09T12:00:25.731Z</time>
      </trkpt>
      <trkpt lat="44.35004" lon="3.78446">
        <ele>1009.533745</ele>
        <time>2020-03-09T12:00:31.325Z</time>
      </trkpt>
      <trkpt lat="44.34982" lon="3.78481">
        <ele>1010.217624</ele>
        <time>2020-03-09T12:00:39.022Z</time>
      </trkpt>
      <trkpt lat="44.34868" lon="3.78567">
        <ele>1012.614637</ele>
        <time>2020-03-09T12:01:07.774Z</time>
      </trkpt>
      <trkpt lat="44.34826" lon="3.78608">
        <ele>1013.697344</ele>
        <time>2020-03-09T12:01:18.017Z</time>
      </trkpt>
      <trkpt lat="44.34784" lon="3.78668">
        <ele>1015.879921</ele>
        <time>2020-03-09T12:01:32.227Z</time>
      </trkpt>
      <trkpt lat="44.34747" lon="3.78749">
        <ele>1018.36846</ele>
        <time>2020-03-09T12:01:55.391Z</time>
      </trkpt>
      <trkpt lat="44.34738" lon="3.78759">
        <ele>1018.76985</ele>
        <time>2020-03-09T12:01:58.994Z</time>
      </trkpt>
      <trkpt lat="44.34726" lon="3.78762">
        <ele>1019.235121</ele>
        <time>2020-03-09T12:02:03.470Z</time>
      </trkpt>
      <trkpt lat="44.34701" lon="3.78763">
        <ele>1020.161373</ele>
        <time>2020-03-09T12:02:11.663Z</time>
      </trkpt>
      <trkpt lat="44.3466" lon="3.78764">
        <ele>1021.752041</ele>
        <time>2020-03-09T12:02:25.485Z</time>
      </trkpt>
      <trkpt lat="44.34642" lon="3.78757">
        <ele>1022.495997</ele>
        <time>2020-03-09T12:02:31.866Z</time>
      </trkpt>
      <trkpt lat="44.34603" lon="3.78744">
        <ele>1024.092636</ele>
        <time>2020-03-09T12:02:45.275Z</time>
      </trkpt>
      <trkpt lat="44.34575" lon="3.78745">
        <ele>1025.192986</ele>
        <time>2020-03-09T12:02:54.467Z</time>
      </trkpt>
      <trkpt lat="44.34459" lon="3.78769">
        <ele>1027.467271</ele>
        <time>2020-03-09T12:03:22.403Z</time>
      </trkpt>
      <trkpt lat="44.34419" lon="3.78783">
        <ele>1027.714033</ele>
        <time>2020-03-09T12:03:28.255Z</time>
      </trkpt>
      <trkpt lat="44.34366" lon="3.78777">
        <ele>1028.036652</ele>
        <time>2020-03-09T12:03:35.200Z</time>
      </trkpt>
      <trkpt lat="44.34281" lon="3.78791">
        <ele>1027.281921</ele>
        <time>2020-03-09T12:03:45.509Z</time>
      </trkpt>
      <trkpt lat="44.34183" lon="3.78848">
        <ele>1026.018129</ele>
        <time>2020-03-09T12:03:57.857Z</time>
      </trkpt>
      <trkpt lat="44.34107" lon="3.78915">
        <ele>1025.779355</ele>
        <time>2020-03-09T12:04:08.606Z</time>
      </trkpt>
      <trkpt lat="44.34048" lon="3.78991">
        <ele>1025.589051</ele>
        <time>2020-03-09T12:04:21.542Z</time>
      </trkpt>
      <trkpt lat="44.34033" lon="3.79">
        <ele>1025.660319</ele>
        <time>2020-03-09T12:04:24.496Z</time>
      </trkpt>
      <trkpt lat="44.34015" lon="3.79009">
        <ele>1026.157533</ele>
        <time>2020-03-09T12:04:28.466Z</time>
      </trkpt>
      <trkpt lat="44.33977" lon="3.79023">
        <ele>1027.193016</ele>
        <time>2020-03-09T12:04:37.175Z</time>
      </trkpt>
      <trkpt lat="44.3394" lon="3.79041">
        <ele>1028.232117</ele>
        <time>2020-03-09T12:04:47.038Z</time>
      </trkpt>
      <trkpt lat="44.33885" lon="3.79105">
        <ele>1030.105778</ele>
        <time>2020-03-09T12:05:07.790Z</time>
      </trkpt>
      <trkpt lat="44.33875" lon="3.79123">
        <ele>1030.647288</ele>
        <time>2020-03-09T12:05:12.959Z</time>
      </trkpt>
      <trkpt lat="44.33852" lon="3.79187">
        <ele>1032.645621</ele>
        <time>2020-03-09T12:05:29.008Z</time>
      </trkpt>
      <trkpt lat="44.33783" lon="3.79285">
        <ele>1036.469803</ele>
        <time>2020-03-09T12:05:59.491Z</time>
      </trkpt>
      <trkpt lat="44.33675" lon="3.79355">
        <ele>1040.291211</ele>
        <time>2020-03-09T12:06:33.933Z</time>
      </trkpt>
      <trkpt lat="44.33534" lon="3.79567">
        <ele>1045.080473</ele>
        <time>2020-03-09T12:07:25.077Z</time>
      </trkpt>
      <trkpt lat="44.33506" lon="3.79589">
        <ele>1045.656537</ele>
        <time>2020-03-09T12:07:30.729Z</time>
      </trkpt>
      <trkpt lat="44.3347" lon="3.79605">
        <ele>1046.039567</ele>
        <time>2020-03-09T12:07:36.839Z</time>
      </trkpt>
      <trkpt lat="44.33444" lon="3.79605">
        <ele>1045.995542</ele>
        <time>2020-03-09T12:07:40.604Z</time>
      </trkpt>
      <trkpt lat="44.334" lon="3.79594">
        <ele>1045.920394</ele>
        <time>2020-03-09T12:07:46.836Z</time>
      </trkpt>
      <trkpt lat="44.33384" lon="3.79589">
        <ele>1045.892996</ele>
        <time>2020-03-09T12:07:48.734Z</time>
      </trkpt>
      <trkpt lat="44.33356" lon="3.79585">
        <ele>1045.844938</ele>
        <time>2020-03-09T12:07:52.463Z</time>
      </trkpt>
      <trkpt lat="44.33334" lon="3.7959">
        <ele>1045.807218</ele>
        <time>2020-03-09T12:07:55.545Z</time>
      </trkpt>
      <trkpt lat="44.33315" lon="3.79596">
        <ele>1045.773633</ele>
        <time>2020-03-09T12:07:58.105Z</time>
      </trkpt>
      <trkpt lat="44.33288" lon="3.79619">
        <ele>1045.936353</ele>
        <time>2020-03-09T12:08:02.904Z</time>
      </trkpt>
      <trkpt lat="44.33278" lon="3.7964">
        <ele>1046.065081</ele>
        <time>2020-03-09T12:08:05.784Z</time>
      </trkpt>
      <trkpt lat="44.3328" lon="3.79732">
        <ele>1046.537609</ele>
        <time>2020-03-09T12:08:17.100Z</time>
      </trkpt>
      <trkpt lat="44.33281" lon="3.79759">
        <ele>1046.677861</ele>
        <time>2020-03-09T12:08:21.080Z</time>
      </trkpt>
      <trkpt lat="44.33282" lon="3.79792">
        <ele>1046.850006</ele>
        <time>2020-03-09T12:08:25.924Z</time>
      </trkpt>
      <trkpt lat="44.33279" lon="3.79867">
        <ele>1047.553893</ele>
        <time>2020-03-09T12:08:36.890Z</time>
      </trkpt>
      <trkpt lat="44.3327" lon="3.79936">
        <ele>1048.553925</ele>
        <time>2020-03-09T12:08:46.693Z</time>
      </trkpt>
      <trkpt lat="44.33256" lon="3.79991">
        <ele>1049.378814</ele>
        <time>2020-03-09T12:08:56.489Z</time>
      </trkpt>
      <trkpt lat="44.33246" lon="3.80015">
        <ele>1049.76488</ele>
        <time>2020-03-09T12:09:01.044Z</time>
      </trkpt>
      <trkpt lat="44.33196" lon="3.80132">
        <ele>1052.619151</ele>
        <time>2020-03-09T12:09:26.858Z</time>
      </trkpt>
      <trkpt lat="44.33194" lon="3.80174">
        <ele>1053.708813</ele>
        <time>2020-03-09T12:09:36.029Z</time>
      </trkpt>
      <trkpt lat="44.33196" lon="3.8023">
        <ele>1055.171912</ele>
        <time>2020-03-09T12:09:48.020Z</time>
      </trkpt>
      <trkpt lat="44.33236" lon="3.80368">
        <ele>1058.510129</ele>
        <time>2020-03-09T12:10:22.461Z</time>
      </trkpt>
      <trkpt lat="44.33269" lon="3.80425">
        <ele>1059.858771</ele>
        <time>2020-03-09T12:10:35.898Z</time>
      </trkpt>
      <trkpt lat="44.33335" lon="3.80516">
        <ele>1061.893684</ele>
        <time>2020-03-09T12:10:55.235Z</time>
      </trkpt>
      <trkpt lat="44.33346" lon="3.8054">
        <ele>1061.972506</ele>
        <time>2020-03-09T12:10:58.585Z</time>
      </trkpt>
      <trkpt lat="44.33384" lon="3.80782">
        <ele>1062.85086</ele>
        <time>2020-03-09T12:11:25.719Z</time>
      </trkpt>
      <trkpt lat="44.33451" lon="3.8093">
        <ele>1064.017347</ele>
        <time>2020-03-09T12:11:48.871Z</time>
      </trkpt>
      <trkpt lat="44.33465" lon="3.80971">
        <ele>1064.480844</ele>
        <time>2020-03-09T12:11:55.755Z</time>
      </trkpt>
      <trkpt lat="44.33466" lon="3.80987">
        <ele>1064.746287</ele>
        <time>2020-03-09T12:11:58.441Z</time>
      </trkpt>
      <trkpt lat="44.33464" lon="3.81004">
        <ele>1065.026618</ele>
        <time>2020-03-09T12:12:01.189Z</time>
      </trkpt>
      <trkpt lat="44.3341" lon="3.81135">
        <ele>1067.465836</ele>
        <time>2020-03-09T12:12:27.590Z</time>
      </trkpt>
      <trkpt lat="44.33407" lon="3.81158">
        <ele>1067.85538</ele>
        <time>2020-03-09T12:12:32.091Z</time>
      </trkpt>
      <trkpt lat="44.33425" lon="3.8123">
        <ele>1069.147095</ele>
        <time>2020-03-09T12:12:46.400Z</time>
      </trkpt>
      <trkpt lat="44.33396" lon="3.81394">
        <ele>1072.038161</ele>
        <time>2020-03-09T12:13:16.223Z</time>
      </trkpt>
      <trkpt lat="44.33384" lon="3.81441">
        <ele>1072.9437</ele>
        <time>2020-03-09T12:13:23.930Z</time>
      </trkpt>
      <trkpt lat="44.33366" lon="3.81495">
        <ele>1074.152143</ele>
        <time>2020-03-09T12:13:33.696Z</time>
      </trkpt>
      <trkpt lat="44.33325" lon="3.81563">
        <ele>1075.93403</ele>
        <time>2020-03-09T12:13:49.855Z</time>
      </trkpt>
      <trkpt lat="44.33291" lon="3.81601">
        <ele>1077.165726</ele>
        <time>2020-03-09T12:14:01.610Z</time>
      </trkpt>
      <trkpt lat="44.33289" lon="3.81603">
        <ele>1077.236409</ele>
        <time>2020-03-09T12:14:01.898Z</time>
      </trkpt>
      <trkpt lat="44.33261" lon="3.81628">
        <ele>1078.53188</ele>
        <time>2020-03-09T12:14:11.921Z</time>
      </trkpt>
      <trkpt lat="44.33173" lon="3.8173">
        <ele>1084.00985</ele>
        <time>2020-03-09T12:14:53.187Z</time>
      </trkpt>
      <trkpt lat="44.33155" lon="3.81743">
        <ele>1084.967649</ele>
        <time>2020-03-09T12:15:00.305Z</time>
      </trkpt>
      <trkpt lat="44.33141" lon="3.81741">
        <ele>1085.665191</ele>
        <time>2020-03-09T12:15:04.822Z</time>
      </trkpt>
      <trkpt lat="44.33139" lon="3.81739">
        <ele>1085.773169</ele>
        <time>2020-03-09T12:15:07.223Z</time>
      </trkpt>
      <trkpt lat="44.33136" lon="3.81736">
        <ele>1085.961524</ele>
        <time>2020-03-09T12:15:08.195Z</time>
      </trkpt>
      <trkpt lat="44.33133" lon="3.8172">
        <ele>1086.431207</ele>
        <time>2020-03-09T12:15:11.333Z</time>
      </trkpt>
      <trkpt lat="44.33141" lon="3.81674">
        <ele>1087.525185</ele>
        <time>2020-03-09T12:15:22.612Z</time>
      </trkpt>
      <trkpt lat="44.33141" lon="3.81648">
        <ele>1088.114667</ele>
        <time>2020-03-09T12:15:27.365Z</time>
      </trkpt>
      <trkpt lat="44.33132" lon="3.8163">
        <ele>1088.603442</ele>
        <time>2020-03-09T12:15:33.189Z</time>
      </trkpt>
      <trkpt lat="44.3311" lon="3.81618">
        <ele>1089.33417</ele>
        <time>2020-03-09T12:15:40.079Z</time>
      </trkpt>
      <trkpt lat="44.32981" lon="3.81593">
        <ele>1092.464463</ele>
        <time>2020-03-09T12:16:09.182Z</time>
      </trkpt>
      <trkpt lat="44.32879" lon="3.8156">
        <ele>1093.553727</ele>
        <time>2020-03-09T12:16:27.613Z</time>
      </trkpt>
      <trkpt lat="44.32794" lon="3.81574">
        <ele>1094.054515</ele>
        <time>2020-03-09T12:16:42.439Z</time>
      </trkpt>
      <trkpt lat="44.32727" lon="3.81602">
        <ele>1094.31013</ele>
        <time>2020-03-09T12:16:54.567Z</time>
      </trkpt>
      <trkpt lat="44.32698" lon="3.81624">
        <ele>1094.429555</ele>
        <time>2020-03-09T12:16:59.528Z</time>
      </trkpt>
      <trkpt lat="44.32671" lon="3.81646">
        <ele>1094.354469</ele>
        <time>2020-03-09T12:17:04.049Z</time>
      </trkpt>
      <trkpt lat="44.32666" lon="3.81647">
        <ele>1094.286741</ele>
        <time>2020-03-09T12:17:04.754Z</time>
      </trkpt>
      <trkpt lat="44.32661" lon="3.81647">
        <ele>1094.231451</ele>
        <time>2020-03-09T12:17:05.373Z</time>
      </trkpt>
      <trkpt lat="44.32653" lon="3.81655">
        <ele>1094.113846</ele>
        <time>2020-03-09T12:17:06.827Z</time>
      </trkpt>
      <trkpt lat="44.32646" lon="3.81662">
        <ele>1094.01274</ele>
        <time>2020-03-09T12:17:08.013Z</time>
      </trkpt>
      <trkpt lat="44.32637" lon="3.81671">
        <ele>1093.877101</ele>
        <time>2020-03-09T12:17:09.350Z</time>
      </trkpt>
      <trkpt lat="44.32572" lon="3.81795">
        <ele>1092.528399</ele>
        <time>2020-03-09T12:17:22.669Z</time>
      </trkpt>
      <trkpt lat="44.32512" lon="3.81859">
        <ele>1090.264529</ele>
        <time>2020-03-09T12:17:30.344Z</time>
      </trkpt>
      <trkpt lat="44.3249" lon="3.81876">
        <ele>1089.385645</ele>
        <time>2020-03-09T12:17:32.800Z</time>
      </trkpt>
      <trkpt lat="44.32442" lon="3.81897">
        <ele>1087.598918</ele>
        <time>2020-03-09T12:17:37.743Z</time>
      </trkpt>
      <trkpt lat="44.32396" lon="3.81937">
        <ele>1085.639933</ele>
        <time>2020-03-09T12:17:42.969Z</time>
      </trkpt>
      <trkpt lat="44.32356" lon="3.81947">
        <ele>1084.018965</ele>
        <time>2020-03-09T12:17:46.888Z</time>
      </trkpt>
      <trkpt lat="44.32336" lon="3.81979">
        <ele>1082.815479</ele>
        <time>2020-03-09T12:17:49.787Z</time>
      </trkpt>
      <trkpt lat="44.32279" lon="3.82033">
        <ele>1080.134065</ele>
        <time>2020-03-09T12:17:56.342Z</time>
      </trkpt>
      <trkpt lat="44.32258" lon="3.82047">
        <ele>1079.195625</ele>
        <time>2020-03-09T12:17:58.732Z</time>
      </trkpt>
      <trkpt lat="44.32207" lon="3.82068">
        <ele>1079.544202</ele>
        <time>2020-03-09T12:18:04.658Z</time>
      </trkpt>
      <trkpt lat="44.32158" lon="3.82099">
        <ele>1080.452488</ele>
        <time>2020-03-09T12:18:13.373Z</time>
      </trkpt>
      <trkpt lat="44.32126" lon="3.82091">
        <ele>1081.019388</ele>
        <time>2020-03-09T12:18:22.072Z</time>
      </trkpt>
      <trkpt lat="44.32056" lon="3.82085">
        <ele>1083.365956</ele>
        <time>2020-03-09T12:18:48.057Z</time>
      </trkpt>
      <trkpt lat="44.31995" lon="3.8209">
        <ele>1087.900384</ele>
        <time>2020-03-09T12:19:16.899Z</time>
      </trkpt>
      <trkpt lat="44.31926" lon="3.82082">
        <ele>1093.024921</ele>
        <time>2020-03-09T12:19:51.003Z</time>
      </trkpt>
      <trkpt lat="44.31911" lon="3.82088">
        <ele>1094.222427</ele>
        <time>2020-03-09T12:19:58.557Z</time>
      </trkpt>
      <trkpt lat="44.31904" lon="3.82107">
        <ele>1095.288665</ele>
        <time>2020-03-09T12:20:05.273Z</time>
      </trkpt>
      <trkpt lat="44.31907" lon="3.82119">
        <ele>1095.559846</ele>
        <time>2020-03-09T12:20:09.294Z</time>
      </trkpt>
      <trkpt lat="44.31949" lon="3.82173">
        <ele>1097.209468</ele>
        <time>2020-03-09T12:20:30.695Z</time>
      </trkpt>
      <trkpt lat="44.31988" lon="3.82243">
        <ele>1099.060469</ele>
        <time>2020-03-09T12:20:47.162Z</time>
      </trkpt>
      <trkpt lat="44.32035" lon="3.82306">
        <ele>1099.711068</ele>
        <time>2020-03-09T12:20:55.458Z</time>
      </trkpt>
      <trkpt lat="44.32059" lon="3.82349">
        <ele>1097.787716</ele>
        <time>2020-03-09T12:20:59.368Z</time>
      </trkpt>
      <trkpt lat="44.32085" lon="3.82417">
        <ele>1095.02665</ele>
        <time>2020-03-09T12:21:04.556Z</time>
      </trkpt>
      <trkpt lat="44.321" lon="3.82474">
        <ele>1092.870852</ele>
        <time>2020-03-09T12:21:08.474Z</time>
      </trkpt>
      <trkpt lat="44.32125" lon="3.82515">
        <ele>1090.752989</ele>
        <time>2020-03-09T12:21:11.874Z</time>
      </trkpt>
      <trkpt lat="44.32131" lon="3.82543">
        <ele>1089.334889</ele>
        <time>2020-03-09T12:21:13.728Z</time>
      </trkpt>
      <trkpt lat="44.32129" lon="3.82577">
        <ele>1087.685231</ele>
        <time>2020-03-09T12:21:15.877Z</time>
      </trkpt>
      <trkpt lat="44.32093" lon="3.82691">
        <ele>1081.600623</ele>
        <time>2020-03-09T12:21:23.902Z</time>
      </trkpt>
      <trkpt lat="44.32067" lon="3.82733">
        <ele>1079.10649</ele>
        <time>2020-03-09T12:21:27.530Z</time>
      </trkpt>
      <trkpt lat="44.32053" lon="3.82745">
        <ele>1078.472252</ele>
        <time>2020-03-09T12:21:29.120Z</time>
      </trkpt>
      <trkpt lat="44.32029" lon="3.82752">
        <ele>1077.570732</ele>
        <time>2020-03-09T12:21:31.461Z</time>
      </trkpt>
      <trkpt lat="44.31945" lon="3.82755">
        <ele>1074.398836</ele>
        <time>2020-03-09T12:21:40.280Z</time>
      </trkpt>
      <trkpt lat="44.3186" lon="3.8283">
        <ele>1070.007142</ele>
        <time>2020-03-09T12:21:50.234Z</time>
      </trkpt>
      <trkpt lat="44.31825" lon="3.82876">
        <ele>1067.600641</ele>
        <time>2020-03-09T12:21:54.869Z</time>
      </trkpt>
      <trkpt lat="44.31814" lon="3.82898">
        <ele>1066.637929</ele>
        <time>2020-03-09T12:21:56.756Z</time>
      </trkpt>
      <trkpt lat="44.31805" lon="3.82916">
        <ele>1065.869264</ele>
        <time>2020-03-09T12:21:58.153Z</time>
      </trkpt>
      <trkpt lat="44.31788" lon="3.82958">
        <ele>1064.158137</ele>
        <time>2020-03-09T12:22:01.314Z</time>
      </trkpt>
      <trkpt lat="44.31778" lon="3.83039">
        <ele>1060.12473</ele>
        <time>2020-03-09T12:22:06.591Z</time>
      </trkpt>
      <trkpt lat="44.31785" lon="3.83213">
        <ele>1051.062467</ele>
        <time>2020-03-09T12:22:17.740Z</time>
      </trkpt>
      <trkpt lat="44.31776" lon="3.8324">
        <ele>1049.459274</ele>
        <time>2020-03-09T12:22:19.603Z</time>
      </trkpt>
      <trkpt lat="44.31757" lon="3.83271">
        <ele>1047.078544</ele>
        <time>2020-03-09T12:22:22.284Z</time>
      </trkpt>
      <trkpt lat="44.31741" lon="3.83324">
        <ele>1043.785701</ele>
        <time>2020-03-09T12:22:25.911Z</time>
      </trkpt>
      <trkpt lat="44.31742" lon="3.83353">
        <ele>1042.139425</ele>
        <time>2020-03-09T12:22:27.713Z</time>
      </trkpt>
      <trkpt lat="44.31766" lon="3.83437">
        <ele>1036.953779</ele>
        <time>2020-03-09T12:22:33.445Z</time>
      </trkpt>
      <trkpt lat="44.31768" lon="3.83459">
        <ele>1035.71839</ele>
        <time>2020-03-09T12:22:34.879Z</time>
      </trkpt>
      <trkpt lat="44.31766" lon="3.83467">
        <ele>1035.226971</ele>
        <time>2020-03-09T12:22:35.447Z</time>
      </trkpt>
      <trkpt lat="44.31761" lon="3.83477">
        <ele>1034.598647</ele>
        <time>2020-03-09T12:22:36.133Z</time>
      </trkpt>
      <trkpt lat="44.31738" lon="3.83513">
        <ele>1031.907254</ele>
        <time>2020-03-09T12:22:39.226Z</time>
      </trkpt>
      <trkpt lat="44.31697" lon="3.83613">
        <ele>1025.585275</ele>
        <time>2020-03-09T12:22:46.481Z</time>
      </trkpt>
      <trkpt lat="44.31675" lon="3.83706">
        <ele>1020.76186</ele>
        <time>2020-03-09T12:22:52.777Z</time>
      </trkpt>
      <trkpt lat="44.31659" lon="3.83836">
        <ele>1015.412532</ele>
        <time>2020-03-09T12:23:01.614Z</time>
      </trkpt>
      <trkpt lat="44.31624" lon="3.83938">
        <ele>1011.067707</ele>
        <time>2020-03-09T12:23:09.291Z</time>
      </trkpt>
      <trkpt lat="44.31596" lon="3.84044">
        <ele>1007.32281</ele>
        <time>2020-03-09T12:23:17.038Z</time>
      </trkpt>
      <trkpt lat="44.31593" lon="3.84054">
        <ele>1006.954988</ele>
        <time>2020-03-09T12:23:17.762Z</time>
      </trkpt>
      <trkpt lat="44.31536" lon="3.84226">
        <ele>1001.580267</ele>
        <time>2020-03-09T12:23:30.839Z</time>
      </trkpt>
      <trkpt lat="44.31528" lon="3.84258">
        <ele>1000.757009</ele>
        <time>2020-03-09T12:23:33.324Z</time>
      </trkpt>
      <trkpt lat="44.31527" lon="3.84261">
        <ele>1000.685003</ele>
        <time>2020-03-09T12:23:33.506Z</time>
      </trkpt>
      <trkpt lat="44.31524" lon="3.84268">
        <ele>1000.490448</ele>
        <time>2020-03-09T12:23:34.109Z</time>
      </trkpt>
      <trkpt lat="44.31517" lon="3.84278">
        <ele>1000.133343</ele>
        <time>2020-03-09T12:23:35.291Z</time>
      </trkpt>
      <trkpt lat="44.31482" lon="3.84316">
        <ele>998.66848</ele>
        <time>2020-03-09T12:23:39.878Z</time>
      </trkpt>
      <trkpt lat="44.31403" lon="3.84428">
        <ele>996.471897</ele>
        <time>2020-03-09T12:23:52.060Z</time>
      </trkpt>
      <trkpt lat="44.3135" lon="3.84512">
        <ele>995.224953</ele>
        <time>2020-03-09T12:24:01.394Z</time>
      </trkpt>
      <trkpt lat="44.3126" lon="3.8466">
        <ele>996.165432</ele>
        <time>2020-03-09T12:24:22.076Z</time>
      </trkpt>
      <trkpt lat="44.31217" lon="3.84736">
        <ele>997.483522</ele>
        <time>2020-03-09T12:24:39.990Z</time>
      </trkpt>
      <trkpt lat="44.31206" lon="3.84756">
        <ele>998.481657</ele>
        <time>2020-03-09T12:24:45.648Z</time>
      </trkpt>
      <trkpt lat="44.31193" lon="3.84775">
        <ele>999.469155</ele>
        <time>2020-03-09T12:24:51.337Z</time>
      </trkpt>
      <trkpt lat="44.31037" lon="3.84963">
        <ele>1011.518555</ele>
        <time>2020-03-09T12:26:14.263Z</time>
      </trkpt>
      <trkpt lat="44.31012" lon="3.85002">
        <ele>1014.04415</ele>
        <time>2020-03-09T12:26:30.664Z</time>
      </trkpt>
      <trkpt lat="44.31003" lon="3.85009">
        <ele>1014.782411</ele>
        <time>2020-03-09T12:26:36.063Z</time>
      </trkpt>
      <trkpt lat="44.30991" lon="3.85019">
        <ele>1015.719072</ele>
        <time>2020-03-09T12:26:42.386Z</time>
      </trkpt>
      <trkpt lat="44.30847" lon="3.85182">
        <ele>1026.419313</ele>
        <time>2020-03-09T12:27:57.669Z</time>
      </trkpt>
      <trkpt lat="44.30822" lon="3.85185">
        <ele>1027.785949</ele>
        <time>2020-03-09T12:28:04.454Z</time>
      </trkpt>
      <trkpt lat="44.30786" lon="3.85149">
        <ele>1028.296023</ele>
        <time>2020-03-09T12:28:14.852Z</time>
      </trkpt>
      <trkpt lat="44.30757" lon="3.85138">
        <ele>1028.324738</ele>
        <time>2020-03-09T12:28:20.374Z</time>
      </trkpt>
      <trkpt lat="44.30735" lon="3.85137">
        <ele>1028.346998</ele>
        <time>2020-03-09T12:28:23.900Z</time>
      </trkpt>
      <trkpt lat="44.30699" lon="3.85154">
        <ele>1028.383414</ele>
        <time>2020-03-09T12:28:28.639Z</time>
      </trkpt>
      <trkpt lat="44.3055" lon="3.8525">
        <ele>1026.929301</ele>
        <time>2020-03-09T12:28:46.466Z</time>
      </trkpt>
      <trkpt lat="44.30539" lon="3.85262">
        <ele>1026.729428</ele>
        <time>2020-03-09T12:28:48.157Z</time>
      </trkpt>
      <trkpt lat="44.30527" lon="3.85301">
        <ele>1026.318947</ele>
        <time>2020-03-09T12:28:51.826Z</time>
      </trkpt>
      <trkpt lat="44.30522" lon="3.85351">
        <ele>1026.086378</ele>
        <time>2020-03-09T12:28:57.061Z</time>
      </trkpt>
      <trkpt lat="44.3053" lon="3.85401">
        <ele>1026.481733</ele>
        <time>2020-03-09T12:29:03.506Z</time>
      </trkpt>
      <trkpt lat="44.3053" lon="3.85455">
        <ele>1026.89511</ele>
        <time>2020-03-09T12:29:11.209Z</time>
      </trkpt>
      <trkpt lat="44.30523" lon="3.85548">
        <ele>1027.618751</ele>
        <time>2020-03-09T12:29:25.600Z</time>
      </trkpt>
      <trkpt lat="44.3053" lon="3.85581">
        <ele>1027.882167</ele>
        <time>2020-03-09T12:29:30.862Z</time>
      </trkpt>
      <trkpt lat="44.30546" lon="3.85605">
        <ele>1028.029802</ele>
        <time>2020-03-09T12:29:35.883Z</time>
      </trkpt>
      <trkpt lat="44.30603" lon="3.85615">
        <ele>1028.354798</ele>
        <time>2020-03-09T12:29:47.419Z</time>
      </trkpt>
      <trkpt lat="44.30625" lon="3.85631">
        <ele>1028.49098</ele>
        <time>2020-03-09T12:29:51.682Z</time>
      </trkpt>
      <trkpt lat="44.30681" lon="3.85723">
        <ele>1028.80218</ele>
        <time>2020-03-09T12:30:03.953Z</time>
      </trkpt>
      <trkpt lat="44.30705" lon="3.85752">
        <ele>1028.406458</ele>
        <time>2020-03-09T12:30:07.919Z</time>
      </trkpt>
      <trkpt lat="44.30713" lon="3.85767">
        <ele>1028.238001</ele>
        <time>2020-03-09T12:30:09.548Z</time>
      </trkpt>
      <trkpt lat="44.30777" lon="3.86027">
        <ele>1024.675563</ele>
        <time>2020-03-09T12:30:32.082Z</time>
      </trkpt>
      <trkpt lat="44.30812" lon="3.86113">
        <ele>1022.689197</ele>
        <time>2020-03-09T12:30:39.424Z</time>
      </trkpt>
      <trkpt lat="44.30824" lon="3.86186">
        <ele>1020.705915</ele>
        <time>2020-03-09T12:30:44.730Z</time>
      </trkpt>
      <trkpt lat="44.30823" lon="3.86208">
        <ele>1019.821557</ele>
        <time>2020-03-09T12:30:46.158Z</time>
      </trkpt>
      <trkpt lat="44.30781" lon="3.86372">
        <ele>1012.804141</ele>
        <time>2020-03-09T12:30:57.631Z</time>
      </trkpt>
      <trkpt lat="44.30775" lon="3.86398">
        <ele>1011.689026</ele>
        <time>2020-03-09T12:30:59.407Z</time>
      </trkpt>
      <trkpt lat="44.30769" lon="3.86426">
        <ele>1010.454868</ele>
        <time>2020-03-09T12:31:01.342Z</time>
      </trkpt>
      <trkpt lat="44.30763" lon="3.86571">
        <ele>1004.225344</ele>
        <time>2020-03-09T12:31:10.911Z</time>
      </trkpt>
      <trkpt lat="44.30749" lon="3.86717">
        <ele>997.774539</ele>
        <time>2020-03-09T12:31:20.640Z</time>
      </trkpt>
      <trkpt lat="44.30728" lon="3.86785">
        <ele>994.405624</ele>
        <time>2020-03-09T12:31:25.489Z</time>
      </trkpt>
      <trkpt lat="44.30712" lon="3.8687">
        <ele>990.396795</ele>
        <time>2020-03-09T12:31:31.210Z</time>
      </trkpt>
      <trkpt lat="44.30709" lon="3.86918">
        <ele>988.175434</ele>
        <time>2020-03-09T12:31:34.298Z</time>
      </trkpt>
      <trkpt lat="44.30719" lon="3.86976">
        <ele>985.30018</ele>
        <time>2020-03-09T12:31:38.208Z</time>
      </trkpt>
      <trkpt lat="44.30731" lon="3.87016">
        <ele>983.254646</ele>
        <time>2020-03-09T12:31:40.991Z</time>
      </trkpt>
      <trkpt lat="44.30807" lon="3.87122">
        <ele>975.954989</ele>
        <time>2020-03-09T12:31:50.754Z</time>
      </trkpt>
      <trkpt lat="44.30821" lon="3.87203">
        <ele>971.488788</ele>
        <time>2020-03-09T12:31:56.153Z</time>
      </trkpt>
      <trkpt lat="44.30793" lon="3.87258">
        <ele>967.859671</ele>
        <time>2020-03-09T12:32:00.475Z</time>
      </trkpt>
      <trkpt lat="44.30778" lon="3.87312">
        <ele>964.726804</ele>
        <time>2020-03-09T12:32:04.163Z</time>
      </trkpt>
      <trkpt lat="44.30761" lon="3.87323">
        <ele>963.155285</ele>
        <time>2020-03-09T12:32:05.794Z</time>
      </trkpt>
      <trkpt lat="44.30702" lon="3.87335">
        <ele>957.331298</ele>
        <time>2020-03-09T12:32:10.984Z</time>
      </trkpt>
      <trkpt lat="44.30677" lon="3.87355">
        <ele>954.552595</ele>
        <time>2020-03-09T12:32:13.440Z</time>
      </trkpt>
      <trkpt lat="44.30633" lon="3.87434">
        <ele>947.604243</ele>
        <time>2020-03-09T12:32:19.595Z</time>
      </trkpt>
      <trkpt lat="44.30628" lon="3.87476">
        <ele>944.873654</ele>
        <time>2020-03-09T12:32:22.181Z</time>
      </trkpt>
      <trkpt lat="44.30637" lon="3.87506">
        <ele>942.843604</ele>
        <time>2020-03-09T12:32:24.202Z</time>
      </trkpt>
      <trkpt lat="44.30654" lon="3.87522">
        <ele>941.043681</ele>
        <time>2020-03-09T12:32:25.998Z</time>
      </trkpt>
      <trkpt lat="44.30735" lon="3.8754">
        <ele>933.917188</ele>
        <time>2020-03-09T12:32:33.187Z</time>
      </trkpt>
      <trkpt lat="44.30759" lon="3.87554">
        <ele>931.651426</ele>
        <time>2020-03-09T12:32:35.488Z</time>
      </trkpt>
      <trkpt lat="44.30824" lon="3.87612">
        <ele>925.779727</ele>
        <time>2020-03-09T12:32:42.412Z</time>
      </trkpt>
      <trkpt lat="44.30951" lon="3.87695">
        <ele>915.506441</ele>
        <time>2020-03-09T12:32:54.934Z</time>
      </trkpt>
      <trkpt lat="44.30972" lon="3.87735">
        <ele>913.055692</ele>
        <time>2020-03-09T12:32:58.055Z</time>
      </trkpt>
      <trkpt lat="44.3097" lon="3.87754">
        <ele>912.066296</ele>
        <time>2020-03-09T12:32:59.277Z</time>
      </trkpt>
      <trkpt lat="44.30955" lon="3.87795">
        <ele>909.778756</ele>
        <time>2020-03-09T12:33:02.234Z</time>
      </trkpt>
      <trkpt lat="44.30958" lon="3.87825">
        <ele>908.2224</ele>
        <time>2020-03-09T12:33:04.317Z</time>
      </trkpt>
      <trkpt lat="44.30966" lon="3.87852">
        <ele>906.806955</ele>
        <time>2020-03-09T12:33:06.092Z</time>
      </trkpt>
      <trkpt lat="44.30959" lon="3.87852">
        <ele>906.32443</ele>
        <time>2020-03-09T12:33:06.893Z</time>
      </trkpt>
      <trkpt lat="44.30948" lon="3.8784">
        <ele>905.36644</ele>
        <time>2020-03-09T12:33:08.157Z</time>
      </trkpt>
      <trkpt lat="44.30938" lon="3.87806">
        <ele>903.713538</ele>
        <time>2020-03-09T12:33:10.561Z</time>
      </trkpt>
      <trkpt lat="44.30949" lon="3.87758">
        <ele>901.474686</ele>
        <time>2020-03-09T12:33:13.934Z</time>
      </trkpt>
      <trkpt lat="44.30943" lon="3.8774">
        <ele>900.589558</ele>
        <time>2020-03-09T12:33:15.237Z</time>
      </trkpt>
      <trkpt lat="44.30923" lon="3.87731">
        <ele>899.314471</ele>
        <time>2020-03-09T12:33:17.138Z</time>
      </trkpt>
      <trkpt lat="44.30885" lon="3.87745">
        <ele>896.841422</ele>
        <time>2020-03-09T12:33:20.758Z</time>
      </trkpt>
      <trkpt lat="44.30852" lon="3.87721">
        <ele>894.581071</ele>
        <time>2020-03-09T12:33:24.188Z</time>
      </trkpt>
      <trkpt lat="44.30794" lon="3.87714">
        <ele>890.671948</ele>
        <time>2020-03-09T12:33:29.503Z</time>
      </trkpt>
      <trkpt lat="44.30776" lon="3.877">
        <ele>889.249651</ele>
        <time>2020-03-09T12:33:31.323Z</time>
      </trkpt>
      <trkpt lat="44.30757" lon="3.87685">
        <ele>887.678314</ele>
        <time>2020-03-09T12:33:33.384Z</time>
      </trkpt>
      <trkpt lat="44.30732" lon="3.87672">
        <ele>885.881006</ele>
        <time>2020-03-09T12:33:35.708Z</time>
      </trkpt>
      <trkpt lat="44.30701" lon="3.87669">
        <ele>883.683502</ele>
        <time>2020-03-09T12:33:38.520Z</time>
      </trkpt>
      <trkpt lat="44.30542" lon="3.87737">
        <ele>871.184541</ele>
        <time>2020-03-09T12:33:53.192Z</time>
      </trkpt>
      <trkpt lat="44.305" lon="3.87741">
        <ele>867.911294</ele>
        <time>2020-03-09T12:33:56.953Z</time>
      </trkpt>
      <trkpt lat="44.30387" lon="3.87727">
        <ele>860.229698</ele>
        <time>2020-03-09T12:34:07.090Z</time>
      </trkpt>
      <trkpt lat="44.30295" lon="3.87738">
        <ele>854.443586</ele>
        <time>2020-03-09T12:34:15.545Z</time>
      </trkpt>
      <trkpt lat="44.30262" lon="3.87757">
        <ele>852.74637</ele>
        <time>2020-03-09T12:34:18.881Z</time>
      </trkpt>
      <trkpt lat="44.30177" lon="3.87825">
        <ele>848.083628</ele>
        <time>2020-03-09T12:34:28.339Z</time>
      </trkpt>
      <trkpt lat="44.30154" lon="3.87834">
        <ele>846.971165</ele>
        <time>2020-03-09T12:34:30.729Z</time>
      </trkpt>
      <trkpt lat="44.30148" lon="3.87836">
        <ele>846.693295</ele>
        <time>2020-03-09T12:34:31.277Z</time>
      </trkpt>
      <trkpt lat="44.30142" lon="3.8783">
        <ele>846.333123</ele>
        <time>2020-03-09T12:34:32.017Z</time>
      </trkpt>
      <trkpt lat="44.30141" lon="3.87816">
        <ele>845.875288</ele>
        <time>2020-03-09T12:34:33.024Z</time>
      </trkpt>
      <trkpt lat="44.30201" lon="3.87675">
        <ele>840.440926</ele>
        <time>2020-03-09T12:34:44.333Z</time>
      </trkpt>
      <trkpt lat="44.30258" lon="3.87571">
        <ele>834.9566</ele>
        <time>2020-03-09T12:34:53.061Z</time>
      </trkpt>
      <trkpt lat="44.30277" lon="3.87525">
        <ele>832.324416</ele>
        <time>2020-03-09T12:34:56.549Z</time>
      </trkpt>
      <trkpt lat="44.3029" lon="3.87488">
        <ele>830.324256</ele>
        <time>2020-03-09T12:34:59.149Z</time>
      </trkpt>
      <trkpt lat="44.30303" lon="3.87377">
        <ele>824.092028</ele>
        <time>2020-03-09T12:35:06.285Z</time>
      </trkpt>
      <trkpt lat="44.30324" lon="3.87328">
        <ele>819.925626</ele>
        <time>2020-03-09T12:35:09.867Z</time>
      </trkpt>
      <trkpt lat="44.30326" lon="3.87316">
        <ele>819.048167</ele>
        <time>2020-03-09T12:35:10.613Z</time>
      </trkpt>
      <trkpt lat="44.30318" lon="3.87305">
        <ele>817.879406</ele>
        <time>2020-03-09T12:35:11.609Z</time>
      </trkpt>
      <trkpt lat="44.30291" lon="3.87298">
        <ele>815.108822</ele>
        <time>2020-03-09T12:35:13.950Z</time>
      </trkpt>
      <trkpt lat="44.30271" lon="3.87305">
        <ele>812.965002</ele>
        <time>2020-03-09T12:35:15.751Z</time>
      </trkpt>
      <trkpt lat="44.30202" lon="3.87357">
        <ele>804.494612</ele>
        <time>2020-03-09T12:35:22.365Z</time>
      </trkpt>
      <trkpt lat="44.30166" lon="3.87364">
        <ele>800.126633</ele>
        <time>2020-03-09T12:35:25.428Z</time>
      </trkpt>
      <trkpt lat="44.30131" lon="3.87363">
        <ele>795.882449</ele>
        <time>2020-03-09T12:35:28.406Z</time>
      </trkpt>
      <trkpt lat="44.30107" lon="3.87352">
        <ele>792.84011</ele>
        <time>2020-03-09T12:35:30.534Z</time>
      </trkpt>
      <trkpt lat="44.30076" lon="3.87321">
        <ele>788.26779</ele>
        <time>2020-03-09T12:35:33.752Z</time>
      </trkpt>
      <trkpt lat="44.30023" lon="3.87261">
        <ele>781.493265</ele>
        <time>2020-03-09T12:35:39.561Z</time>
      </trkpt>
      <trkpt lat="44.29982" lon="3.87226">
        <ele>777.085306</ele>
        <time>2020-03-09T12:35:43.668Z</time>
      </trkpt>
      <trkpt lat="44.29942" lon="3.87176">
        <ele>772.124952</ele>
        <time>2020-03-09T12:35:48.387Z</time>
      </trkpt>
      <trkpt lat="44.29923" lon="3.87144">
        <ele>769.439736</ele>
        <time>2020-03-09T12:35:51.111Z</time>
      </trkpt>
      <trkpt lat="44.29918" lon="3.87108">
        <ele>767.84193</ele>
        <time>2020-03-09T12:35:53.504Z</time>
      </trkpt>
      <trkpt lat="44.29965" lon="3.87006">
        <ele>762.519622</ele>
        <time>2020-03-09T12:36:01.532Z</time>
      </trkpt>
      <trkpt lat="44.30002" lon="3.86906">
        <ele>757.192635</ele>
        <time>2020-03-09T12:36:08.977Z</time>
      </trkpt>
      <trkpt lat="44.30015" lon="3.86883">
        <ele>755.46658</ele>
        <time>2020-03-09T12:36:10.866Z</time>
      </trkpt>
      <trkpt lat="44.30044" lon="3.86854">
        <ele>752.593353</ele>
        <time>2020-03-09T12:36:14.018Z</time>
      </trkpt>
      <trkpt lat="44.30065" lon="3.86834">
        <ele>750.489618</ele>
        <time>2020-03-09T12:36:16.313Z</time>
      </trkpt>
      <trkpt lat="44.30084" lon="3.86804">
        <ele>748.15781</ele>
        <time>2020-03-09T12:36:18.808Z</time>
      </trkpt>
      <trkpt lat="44.30091" lon="3.86775">
        <ele>746.389979</ele>
        <time>2020-03-09T12:36:20.683Z</time>
      </trkpt>
      <trkpt lat="44.30089" lon="3.86712">
        <ele>742.703757</ele>
        <time>2020-03-09T12:36:24.584Z</time>
      </trkpt>
      <trkpt lat="44.30082" lon="3.8669">
        <ele>741.267435</ele>
        <time>2020-03-09T12:36:26.123Z</time>
      </trkpt>
      <trkpt lat="44.3007" lon="3.86683">
        <ele>740.216191</ele>
        <time>2020-03-09T12:36:27.243Z</time>
      </trkpt>
      <trkpt lat="44.3004" lon="3.86696">
        <ele>737.626708</ele>
        <time>2020-03-09T12:36:30.008Z</time>
      </trkpt>
      <trkpt lat="44.30026" lon="3.8669">
        <ele>736.416405</ele>
        <time>2020-03-09T12:36:31.313Z</time>
      </trkpt>
      <trkpt lat="44.29987" lon="3.8663">
        <ele>731.794895</ele>
        <time>2020-03-09T12:36:36.372Z</time>
      </trkpt>
      <trkpt lat="44.29972" lon="3.86622">
        <ele>730.458273</ele>
        <time>2020-03-09T12:36:37.867Z</time>
      </trkpt>
      <trkpt lat="44.29952" lon="3.86621">
        <ele>729.197573</ele>
        <time>2020-03-09T12:36:39.683Z</time>
      </trkpt>
      <trkpt lat="44.29915" lon="3.86598">
        <ele>728.370654</ele>
        <time>2020-03-09T12:36:43.550Z</time>
      </trkpt>
      <trkpt lat="44.29872" lon="3.86491">
        <ele>726.582443</ele>
        <time>2020-03-09T12:36:53.917Z</time>
      </trkpt>
      <trkpt lat="44.29853" lon="3.86464">
        <ele>726.03252</ele>
        <time>2020-03-09T12:36:58.934Z</time>
      </trkpt>
      <trkpt lat="44.29823" lon="3.86403">
        <ele>724.990105</ele>
        <time>2020-03-09T12:37:08.264Z</time>
      </trkpt>
      <trkpt lat="44.29816" lon="3.86366">
        <ele>724.487496</ele>
        <time>2020-03-09T12:37:11.710Z</time>
      </trkpt>
      <trkpt lat="44.29822" lon="3.86283">
        <ele>723.363672</ele>
        <time>2020-03-09T12:37:19.237Z</time>
      </trkpt>
      <trkpt lat="44.29813" lon="3.86269">
        <ele>723.101467</ele>
        <time>2020-03-09T12:37:20.527Z</time>
      </trkpt>
      <trkpt lat="44.29804" lon="3.86268">
        <ele>722.924346</ele>
        <time>2020-03-09T12:37:21.445Z</time>
      </trkpt>
      <trkpt lat="44.29798" lon="3.86272">
        <ele>722.813461</ele>
        <time>2020-03-09T12:37:24.037Z</time>
      </trkpt>
      <trkpt lat="44.29796" lon="3.86274">
        <ele>722.757615</ele>
        <time>2020-03-09T12:37:24.312Z</time>
      </trkpt>
      <trkpt lat="44.2978" lon="3.86286">
        <ele>722.412032</ele>
        <time>2020-03-09T12:37:25.969Z</time>
      </trkpt>
      <trkpt lat="44.29757" lon="3.86304">
        <ele>721.029647</ele>
        <time>2020-03-09T12:37:28.501Z</time>
      </trkpt>
      <trkpt lat="44.29673" lon="3.86345">
        <ele>714.776838</ele>
        <time>2020-03-09T12:37:36.477Z</time>
      </trkpt>
      <trkpt lat="44.29672" lon="3.86345">
        <ele>714.713677</ele>
        <time>2020-03-09T12:37:36.548Z</time>
      </trkpt>
      <trkpt lat="44.29632" lon="3.86347">
        <ele>711.878631</ele>
        <time>2020-03-09T12:37:40.077Z</time>
      </trkpt>
      <trkpt lat="44.29557" lon="3.8629">
        <ele>706.280231</ele>
        <time>2020-03-09T12:37:47.717Z</time>
      </trkpt>
      <trkpt lat="44.29543" lon="3.86286">
        <ele>705.358514</ele>
        <time>2020-03-09T12:37:49.047Z</time>
      </trkpt>
      <trkpt lat="44.29532" lon="3.86286">
        <ele>704.665374</ele>
        <time>2020-03-09T12:37:50.015Z</time>
      </trkpt>
      <trkpt lat="44.29511" lon="3.86303">
        <ele>703.136705</ele>
        <time>2020-03-09T12:37:52.221Z</time>
      </trkpt>
      <trkpt lat="44.29468" lon="3.86323">
        <ele>700.271646</ele>
        <time>2020-03-09T12:37:56.355Z</time>
      </trkpt>
      <trkpt lat="44.29433" lon="3.8633">
        <ele>698.03834</ele>
        <time>2020-03-09T12:37:59.657Z</time>
      </trkpt>
      <trkpt lat="44.29411" lon="3.86313">
        <ele>696.694847</ele>
        <time>2020-03-09T12:38:02.000Z</time>
      </trkpt>
      <trkpt lat="44.29397" lon="3.86285">
        <ele>695.38091</ele>
        <time>2020-03-09T12:38:04.344Z</time>
      </trkpt>
      <trkpt lat="44.2939" lon="3.86246">
        <ele>693.847159</ele>
        <time>2020-03-09T12:38:07.083Z</time>
      </trkpt>
      <trkpt lat="44.29382" lon="3.86219">
        <ele>692.71017</ele>
        <time>2020-03-09T12:38:09.082Z</time>
      </trkpt>
      <trkpt lat="44.29362" lon="3.86196">
        <ele>691.359513</ele>
        <time>2020-03-09T12:38:11.449Z</time>
      </trkpt>
      <trkpt lat="44.29309" lon="3.86198">
        <ele>688.555394</ele>
        <time>2020-03-09T12:38:16.357Z</time>
      </trkpt>
      <trkpt lat="44.29263" lon="3.86186">
        <ele>686.715478</ele>
        <time>2020-03-09T12:38:20.699Z</time>
      </trkpt>
      <trkpt lat="44.2925" lon="3.86169">
        <ele>686.005676</ele>
        <time>2020-03-09T12:38:22.372Z</time>
      </trkpt>
      <trkpt lat="44.29227" lon="3.86117">
        <ele>684.276521</ele>
        <time>2020-03-09T12:38:26.508Z</time>
      </trkpt>
      <trkpt lat="44.29105" lon="3.85943">
        <ele>680.635716</ele>
        <time>2020-03-09T12:38:46.107Z</time>
      </trkpt>
      <trkpt lat="44.29102" lon="3.85929">
        <ele>680.545799</ele>
        <time>2020-03-09T12:38:47.409Z</time>
      </trkpt>
      <trkpt lat="44.29103" lon="3.85918">
        <ele>680.477481</ele>
        <time>2020-03-09T12:38:48.246Z</time>
      </trkpt>
      <trkpt lat="44.29103" lon="3.85915">
        <ele>680.452988</ele>
        <time>2020-03-09T12:38:50.985Z</time>
      </trkpt>
      <trkpt lat="44.2911" lon="3.85897">
        <ele>680.329442</ele>
        <time>2020-03-09T12:38:52.805Z</time>
      </trkpt>
      <trkpt lat="44.29125" lon="3.85886">
        <ele>680.182505</ele>
        <time>2020-03-09T12:38:54.779Z</time>
      </trkpt>
      <trkpt lat="44.29143" lon="3.85886">
        <ele>680.029642</ele>
        <time>2020-03-09T12:38:59.178Z</time>
      </trkpt>
      <trkpt lat="44.29185" lon="3.85907">
        <ele>679.181168</ele>
        <time>2020-03-09T12:39:06.372Z</time>
      </trkpt>
      <trkpt lat="44.29202" lon="3.85907">
        <ele>678.824065</ele>
        <time>2020-03-09T12:39:10.079Z</time>
      </trkpt>
      <trkpt lat="44.29311" lon="3.8585">
        <ele>676.468058</ele>
        <time>2020-03-09T12:39:22.427Z</time>
      </trkpt>
      <trkpt lat="44.2932" lon="3.85837">
        <ele>675.865683</ele>
        <time>2020-03-09T12:39:23.628Z</time>
      </trkpt>
      <trkpt lat="44.29318" lon="3.85806">
        <ele>674.281088</ele>
        <time>2020-03-09T12:39:25.601Z</time>
      </trkpt>
      <trkpt lat="44.29328" lon="3.85754">
        <ele>671.49445</ele>
        <time>2020-03-09T12:39:29.038Z</time>
      </trkpt>
      <trkpt lat="44.29325" lon="3.85733">
        <ele>670.398827</ele>
        <time>2020-03-09T12:39:30.390Z</time>
      </trkpt>
      <trkpt lat="44.29317" lon="3.85721">
        <ele>669.600818</ele>
        <time>2020-03-09T12:39:31.358Z</time>
      </trkpt>
      <trkpt lat="44.29317" lon="3.85699">
        <ele>668.481894</ele>
        <time>2020-03-09T12:39:32.741Z</time>
      </trkpt>
      <trkpt lat="44.29322" lon="3.85676">
        <ele>667.194011</ele>
        <time>2020-03-09T12:39:34.316Z</time>
      </trkpt>
      <trkpt lat="44.29349" lon="3.85625">
        <ele>663.993816</ele>
        <time>2020-03-09T12:39:38.262Z</time>
      </trkpt>
      <trkpt lat="44.29361" lon="3.8561">
        <ele>662.939282</ele>
        <time>2020-03-09T12:39:39.737Z</time>
      </trkpt>
      <trkpt lat="44.2938" lon="3.85601">
        <ele>661.846225</ele>
        <time>2020-03-09T12:39:41.488Z</time>
      </trkpt>
      <trkpt lat="44.29385" lon="3.8559">
        <ele>661.310584</ele>
        <time>2020-03-09T12:39:42.352Z</time>
      </trkpt>
      <trkpt lat="44.29385" lon="3.85579">
        <ele>660.879756</ele>
        <time>2020-03-09T12:39:43.047Z</time>
      </trkpt>
      <trkpt lat="44.29377" lon="3.85564">
        <ele>660.153752</ele>
        <time>2020-03-09T12:39:44.218Z</time>
      </trkpt>
      <trkpt lat="44.29356" lon="3.8555">
        <ele>658.855515</ele>
        <time>2020-03-09T12:39:46.326Z</time>
      </trkpt>
      <trkpt lat="44.29341" lon="3.85533">
        <ele>657.826541</ele>
        <time>2020-03-09T12:39:48.023Z</time>
      </trkpt>
      <trkpt lat="44.29332" lon="3.85503">
        <ele>656.509572</ele>
        <time>2020-03-09T12:39:50.265Z</time>
      </trkpt>
      <trkpt lat="44.29303" lon="3.85467">
        <ele>654.352768</ele>
        <time>2020-03-09T12:39:54.110Z</time>
      </trkpt>
      <trkpt lat="44.29283" lon="3.85421">
        <ele>652.876439</ele>
        <time>2020-03-09T12:39:58.239Z</time>
      </trkpt>
      <trkpt lat="44.29249" lon="3.85416">
        <ele>652.034339</ele>
        <time>2020-03-09T12:40:01.982Z</time>
      </trkpt>
      <trkpt lat="44.2922" lon="3.85393">
        <ele>651.19856</ele>
        <time>2020-03-09T12:40:05.733Z</time>
      </trkpt>
      <trkpt lat="44.29173" lon="3.85388">
        <ele>650.02648</ele>
        <time>2020-03-09T12:40:10.805Z</time>
      </trkpt>
      <trkpt lat="44.29163" lon="3.85382">
        <ele>649.748854</ele>
        <time>2020-03-09T12:40:11.986Z</time>
      </trkpt>
      <trkpt lat="44.29152" lon="3.85371">
        <ele>649.409061</ele>
        <time>2020-03-09T12:40:13.429Z</time>
      </trkpt>
      <trkpt lat="44.29131" lon="3.85325">
        <ele>647.961832</ele>
        <time>2020-03-09T12:40:17.517Z</time>
      </trkpt>
      <trkpt lat="44.29121" lon="3.85314">
        <ele>647.367531</ele>
        <time>2020-03-09T12:40:18.799Z</time>
      </trkpt>
      <trkpt lat="44.2911" lon="3.85313">
        <ele>646.845356</ele>
        <time>2020-03-09T12:40:19.912Z</time>
      </trkpt>
      <trkpt lat="44.29082" lon="3.8533">
        <ele>645.402464</ele>
        <time>2020-03-09T12:40:22.891Z</time>
      </trkpt>
      <trkpt lat="44.29053" lon="3.85335">
        <ele>644.004547</ele>
        <time>2020-03-09T12:40:25.677Z</time>
      </trkpt>
      <trkpt lat="44.2901" lon="3.85384">
        <ele>641.362312</ele>
        <time>2020-03-09T12:40:30.761Z</time>
      </trkpt>
      <trkpt lat="44.2895" lon="3.85425">
        <ele>637.235475</ele>
        <time>2020-03-09T12:40:36.757Z</time>
      </trkpt>
      <trkpt lat="44.28925" lon="3.85436">
        <ele>635.440663</ele>
        <time>2020-03-09T12:40:39.090Z</time>
      </trkpt>
      <trkpt lat="44.28879" lon="3.85438">
        <ele>632.30855</ele>
        <time>2020-03-09T12:40:43.269Z</time>
      </trkpt>
      <trkpt lat="44.28861" lon="3.85439">
        <ele>631.068246</ele>
        <time>2020-03-09T12:40:44.865Z</time>
      </trkpt>
      <trkpt lat="44.28844" lon="3.8544">
        <ele>629.937185</ele>
        <time>2020-03-09T12:40:46.446Z</time>
      </trkpt>
      <trkpt lat="44.28811" lon="3.85438">
        <ele>627.66338</ele>
        <time>2020-03-09T12:40:49.478Z</time>
      </trkpt>
      <trkpt lat="44.28728" lon="3.85409">
        <ele>621.789399</ele>
        <time>2020-03-09T12:40:57.160Z</time>
      </trkpt>
      <trkpt lat="44.28686" lon="3.85456">
        <ele>618.140589</ele>
        <time>2020-03-09T12:41:01.945Z</time>
      </trkpt>
      <trkpt lat="44.28644" lon="3.85493">
        <ele>614.624436</ele>
        <time>2020-03-09T12:41:06.470Z</time>
      </trkpt>
      <trkpt lat="44.28635" lon="3.855">
        <ele>613.797532</ele>
        <time>2020-03-09T12:41:07.394Z</time>
      </trkpt>
      <trkpt lat="44.28596" lon="3.85533">
        <ele>610.324928</ele>
        <time>2020-03-09T12:41:11.535Z</time>
      </trkpt>
      <trkpt lat="44.28577" lon="3.85536">
        <ele>608.838333</ele>
        <time>2020-03-09T12:41:13.293Z</time>
      </trkpt>
      <trkpt lat="44.28553" lon="3.8552">
        <ele>606.829017</ele>
        <time>2020-03-09T12:41:15.577Z</time>
      </trkpt>
      <trkpt lat="44.28508" lon="3.8552">
        <ele>603.356388</ele>
        <time>2020-03-09T12:41:19.541Z</time>
      </trkpt>
      <trkpt lat="44.28457" lon="3.85495">
        <ele>598.839057</ele>
        <time>2020-03-09T12:41:24.302Z</time>
      </trkpt>
      <trkpt lat="44.28448" lon="3.85494">
        <ele>598.093133</ele>
        <time>2020-03-09T12:41:25.124Z</time>
      </trkpt>
      <trkpt lat="44.28435" lon="3.85497">
        <ele>596.9019</ele>
        <time>2020-03-09T12:41:26.412Z</time>
      </trkpt>
      <trkpt lat="44.28425" lon="3.855">
        <ele>596.042425</ele>
        <time>2020-03-09T12:41:27.265Z</time>
      </trkpt>
      <trkpt lat="44.28382" lon="3.85507">
        <ele>592.295339</ele>
        <time>2020-03-09T12:41:31.058Z</time>
      </trkpt>
      <trkpt lat="44.28327" lon="3.85491">
        <ele>587.487645</ele>
        <time>2020-03-09T12:41:35.926Z</time>
      </trkpt>
      <trkpt lat="44.2828" lon="3.85451">
        <ele>582.620914</ele>
        <time>2020-03-09T12:41:40.627Z</time>
      </trkpt>
      <trkpt lat="44.28268" lon="3.85448">
        <ele>581.49192</ele>
        <time>2020-03-09T12:41:41.820Z</time>
      </trkpt>
      <trkpt lat="44.2826" lon="3.85448">
        <ele>580.790094</ele>
        <time>2020-03-09T12:41:42.521Z</time>
      </trkpt>
      <trkpt lat="44.28253" lon="3.85448">
        <ele>580.159411</ele>
        <time>2020-03-09T12:41:43.110Z</time>
      </trkpt>
      <trkpt lat="44.28193" lon="3.85458">
        <ele>574.806718</ele>
        <time>2020-03-09T12:41:48.452Z</time>
      </trkpt>
      <trkpt lat="44.28152" lon="3.85446">
        <ele>571.095177</ele>
        <time>2020-03-09T12:41:52.080Z</time>
      </trkpt>
      <trkpt lat="44.28146" lon="3.85458">
        <ele>570.187506</ele>
        <time>2020-03-09T12:41:52.994Z</time>
      </trkpt>
      <trkpt lat="44.28161" lon="3.85469">
        <ele>568.899726</ele>
        <time>2020-03-09T12:41:54.549Z</time>
      </trkpt>
      <trkpt lat="44.28261" lon="3.85495">
        <ele>561.168445</ele>
        <time>2020-03-09T12:42:03.719Z</time>
      </trkpt>
      <trkpt lat="44.28274" lon="3.8551">
        <ele>559.915881</ele>
        <time>2020-03-09T12:42:05.141Z</time>
      </trkpt>
      <trkpt lat="44.28297" lon="3.8556">
        <ele>556.688345</ele>
        <time>2020-03-09T12:42:08.906Z</time>
      </trkpt>
      <trkpt lat="44.28311" lon="3.85595">
        <ele>554.744394</ele>
        <time>2020-03-09T12:42:11.438Z</time>
      </trkpt>
      <trkpt lat="44.28321" lon="3.85639">
        <ele>552.491524</ele>
        <time>2020-03-09T12:42:14.465Z</time>
      </trkpt>
      <trkpt lat="44.28344" lon="3.85666">
        <ele>550.450664</ele>
        <time>2020-03-09T12:42:17.297Z</time>
      </trkpt>
      <trkpt lat="44.28346" lon="3.85672">
        <ele>550.158657</ele>
        <time>2020-03-09T12:42:17.661Z</time>
      </trkpt>
      <trkpt lat="44.28345" lon="3.8568">
        <ele>549.744757</ele>
        <time>2020-03-09T12:42:18.188Z</time>
      </trkpt>
      <trkpt lat="44.28336" lon="3.85685">
        <ele>549.080685</ele>
        <time>2020-03-09T12:42:19.219Z</time>
      </trkpt>
      <trkpt lat="44.2833" lon="3.85681">
        <ele>548.642192</ele>
        <time>2020-03-09T12:42:19.872Z</time>
      </trkpt>
      <trkpt lat="44.283" lon="3.85636">
        <ele>545.650039</ele>
        <time>2020-03-09T12:42:23.930Z</time>
      </trkpt>
      <trkpt lat="44.2829" lon="3.85608">
        <ele>544.131445</ele>
        <time>2020-03-09T12:42:25.915Z</time>
      </trkpt>
      <trkpt lat="44.28258" lon="3.85557">
        <ele>540.889108</ele>
        <time>2020-03-09T12:42:30.194Z</time>
      </trkpt>
      <trkpt lat="44.28221" lon="3.8555">
        <ele>538.383708</ele>
        <time>2020-03-09T12:42:33.479Z</time>
      </trkpt>
      <trkpt lat="44.28173" lon="3.85556">
        <ele>535.128864</ele>
        <time>2020-03-09T12:42:37.990Z</time>
      </trkpt>
      <trkpt lat="44.28133" lon="3.85559">
        <ele>532.545871</ele>
        <time>2020-03-09T12:42:41.669Z</time>
      </trkpt>
      <trkpt lat="44.28118" lon="3.85553">
        <ele>532.061831</ele>
        <time>2020-03-09T12:42:43.115Z</time>
      </trkpt>
      <trkpt lat="44.28103" lon="3.85531">
        <ele>531.391214</ele>
        <time>2020-03-09T12:42:45.107Z</time>
      </trkpt>
      <trkpt lat="44.2807" lon="3.85441">
        <ele>529.109857</ele>
        <time>2020-03-09T12:42:52.137Z</time>
      </trkpt>
      <trkpt lat="44.28043" lon="3.85391">
        <ele>527.721086</ele>
        <time>2020-03-09T12:42:57.120Z</time>
      </trkpt>
      <trkpt lat="44.28041" lon="3.85361">
        <ele>527.033243</ele>
        <time>2020-03-09T12:43:00.773Z</time>
      </trkpt>
      <trkpt lat="44.28058" lon="3.85331">
        <ele>526.9125</ele>
        <time>2020-03-09T12:43:07.154Z</time>
      </trkpt>
      <trkpt lat="44.2811" lon="3.85262">
        <ele>526.707084</ele>
        <time>2020-03-09T12:43:20.603Z</time>
      </trkpt>
      <trkpt lat="44.28125" lon="3.85249">
        <ele>526.65642</ele>
        <time>2020-03-09T12:43:23.131Z</time>
      </trkpt>
      <trkpt lat="44.2817" lon="3.8523">
        <ele>526.523747</ele>
        <time>2020-03-09T12:43:28.877Z</time>
      </trkpt>
      <trkpt lat="44.28182" lon="3.85222">
        <ele>526.484038</ele>
        <time>2020-03-09T12:43:31.786Z</time>
      </trkpt>
      <trkpt lat="44.28201" lon="3.85211">
        <ele>525.515004</ele>
        <time>2020-03-09T12:43:33.773Z</time>
      </trkpt>
      <trkpt lat="44.28235" lon="3.85174">
        <ele>523.075457</ele>
        <time>2020-03-09T12:43:38.009Z</time>
      </trkpt>
      <trkpt lat="44.28264" lon="3.85129">
        <ele>520.548567</ele>
        <time>2020-03-09T12:43:42.152Z</time>
      </trkpt>
      <trkpt lat="44.28327" lon="3.85079">
        <ele>516.400097</ele>
        <time>2020-03-09T12:43:48.483Z</time>
      </trkpt>
      <trkpt lat="44.2834" lon="3.85059">
        <ele>514.915009</ele>
        <time>2020-03-09T12:43:50.162Z</time>
      </trkpt>
      <trkpt lat="44.28376" lon="3.85002">
        <ele>510.402716</ele>
        <time>2020-03-09T12:43:54.877Z</time>
      </trkpt>
      <trkpt lat="44.28395" lon="3.84954">
        <ele>507.1284</ele>
        <time>2020-03-09T12:43:58.295Z</time>
      </trkpt>
      <trkpt lat="44.28409" lon="3.84903">
        <ele>503.901148</ele>
        <time>2020-03-09T12:44:01.748Z</time>
      </trkpt>
      <trkpt lat="44.28411" lon="3.84882">
        <ele>502.667181</ele>
        <time>2020-03-09T12:44:03.035Z</time>
      </trkpt>
      <trkpt lat="44.28414" lon="3.84844">
        <ele>501.129202</ele>
        <time>2020-03-09T12:44:05.675Z</time>
      </trkpt>
      <trkpt lat="44.28414" lon="3.84827">
        <ele>501.034675</ele>
        <time>2020-03-09T12:44:06.821Z</time>
      </trkpt>
      <trkpt lat="44.28403" lon="3.84806">
        <ele>500.894694</ele>
        <time>2020-03-09T12:44:08.981Z</time>
      </trkpt>
      <trkpt lat="44.28392" lon="3.84795">
        <ele>500.792679</ele>
        <time>2020-03-09T12:44:10.193Z</time>
      </trkpt>
      <trkpt lat="44.28387" lon="3.8478">
        <ele>500.701279</ele>
        <time>2020-03-09T12:44:12.173Z</time>
      </trkpt>
      <trkpt lat="44.28371" lon="3.84745">
        <ele>500.471226</ele>
        <time>2020-03-09T12:44:15.694Z</time>
      </trkpt>
      <trkpt lat="44.28364" lon="3.8471">
        <ele>500.275411</ele>
        <time>2020-03-09T12:44:19.990Z</time>
      </trkpt>
      <trkpt lat="44.2838" lon="3.84685">
        <ele>500.091636</ele>
        <time>2020-03-09T12:44:26.324Z</time>
      </trkpt>
      <trkpt lat="44.28422" lon="3.84647">
        <ele>500.287639</ele>
        <time>2020-03-09T12:44:40.442Z</time>
      </trkpt>
      <trkpt lat="44.28438" lon="3.84646">
        <ele>500.744053</ele>
        <time>2020-03-09T12:44:46.217Z</time>
      </trkpt>
      <trkpt lat="44.28461" lon="3.8466">
        <ele>501.502849</ele>
        <time>2020-03-09T12:44:51.099Z</time>
      </trkpt>
      <trkpt lat="44.28532" lon="3.84686">
        <ele>503.68685</ele>
        <time>2020-03-09T12:45:10.438Z</time>
      </trkpt>
      <trkpt lat="44.28537" lon="3.84684">
        <ele>503.84556</ele>
        <time>2020-03-09T12:45:14.556Z</time>
      </trkpt>
      <trkpt lat="44.28541" lon="3.84678">
        <ele>504.011038</ele>
        <time>2020-03-09T12:45:15.612Z</time>
      </trkpt>
      <trkpt lat="44.28546" lon="3.84655">
        <ele>504.532579</ele>
        <time>2020-03-09T12:45:18.734Z</time>
      </trkpt>
      <trkpt lat="44.28545" lon="3.84648">
        <ele>504.690007</ele>
        <time>2020-03-09T12:45:19.616Z</time>
      </trkpt>
      <trkpt lat="44.2854" lon="3.84641">
        <ele>504.902102</ele>
        <time>2020-03-09T12:45:23.462Z</time>
      </trkpt>
      <trkpt lat="44.2851" lon="3.84624">
        <ele>505.960845</ele>
        <time>2020-03-09T12:45:30.455Z</time>
      </trkpt>
      <trkpt lat="44.28448" lon="3.84572">
        <ele>508.36744</ele>
        <time>2020-03-09T12:45:49.533Z</time>
      </trkpt>
      <trkpt lat="44.28421" lon="3.84562">
        <ele>509.319894</ele>
        <time>2020-03-09T12:45:56.580Z</time>
      </trkpt>
      <trkpt lat="44.28397" lon="3.84565">
        <ele>510.125295</ele>
        <time>2020-03-09T12:46:02.989Z</time>
      </trkpt>
      <trkpt lat="44.2833" lon="3.846">
        <ele>512.295361</ele>
        <time>2020-03-09T12:46:28.743Z</time>
      </trkpt>
      <trkpt lat="44.28309" lon="3.84628">
        <ele>513.113116</ele>
        <time>2020-03-09T12:46:38.452Z</time>
      </trkpt>
      <trkpt lat="44.28275" lon="3.84659">
        <ele>514.252498</ele>
        <time>2020-03-09T12:46:50.170Z</time>
      </trkpt>
      <trkpt lat="44.28265" lon="3.84742">
        <ele>515.947461</ele>
        <time>2020-03-09T12:47:02.252Z</time>
      </trkpt>
      <trkpt lat="44.28241" lon="3.84797">
        <ele>515.940301</ele>
        <time>2020-03-09T12:47:08.727Z</time>
      </trkpt>
      <trkpt lat="44.28238" lon="3.8482">
        <ele>515.791871</ele>
        <time>2020-03-09T12:47:10.619Z</time>
      </trkpt>
      <trkpt lat="44.28239" lon="3.84866">
        <ele>515.495009</ele>
        <time>2020-03-09T12:47:14.388Z</time>
      </trkpt>
      <trkpt lat="44.28228" lon="3.84877">
        <ele>515.377482</ele>
        <time>2020-03-09T12:47:15.866Z</time>
      </trkpt>
      <trkpt lat="44.28204" lon="3.84881">
        <ele>515.155536</ele>
        <time>2020-03-09T12:47:18.678Z</time>
      </trkpt>
      <trkpt lat="44.28095" lon="3.84867">
        <ele>514.495775</ele>
        <time>2020-03-09T12:47:32.170Z</time>
      </trkpt>
      <trkpt lat="44.28028" lon="3.8488">
        <ele>514.297728</ele>
        <time>2020-03-09T12:47:43.029Z</time>
      </trkpt>
      <trkpt lat="44.27987" lon="3.8488">
        <ele>514.178427</ele>
        <time>2020-03-09T12:47:49.459Z</time>
      </trkpt>
      <trkpt lat="44.27974" lon="3.84887">
        <ele>514.139204</ele>
        <time>2020-03-09T12:47:51.368Z</time>
      </trkpt>
      <trkpt lat="44.27948" lon="3.8495">
        <ele>513.499389</ele>
        <time>2020-03-09T12:47:57.946Z</time>
      </trkpt>
      <trkpt lat="44.2794" lon="3.84961">
        <ele>513.340781</ele>
        <time>2020-03-09T12:47:59.399Z</time>
      </trkpt>
      <trkpt lat="44.27871" lon="3.84996">
        <ele>512.356597</ele>
        <time>2020-03-09T12:48:07.673Z</time>
      </trkpt>
      <trkpt lat="44.27853" lon="3.84996">
        <ele>512.118479</ele>
        <time>2020-03-09T12:48:09.582Z</time>
      </trkpt>
      <trkpt lat="44.27813" lon="3.84977">
        <ele>511.747818</ele>
        <time>2020-03-09T12:48:14.104Z</time>
      </trkpt>
      <trkpt lat="44.27798" lon="3.84977">
        <ele>511.78617</ele>
        <time>2020-03-09T12:48:15.766Z</time>
      </trkpt>
      <trkpt lat="44.27706" lon="3.85007">
        <ele>512.026737</ele>
        <time>2020-03-09T12:48:28.550Z</time>
      </trkpt>
      <trkpt lat="44.27692" lon="3.85">
        <ele>512.065168</ele>
        <time>2020-03-09T12:48:31.617Z</time>
      </trkpt>
      <trkpt lat="44.27667" lon="3.84961">
        <ele>512.159107</ele>
        <time>2020-03-09T12:48:40.404Z</time>
      </trkpt>
      <trkpt lat="44.27644" lon="3.84948">
        <ele>512.818012</ele>
        <time>2020-03-09T12:48:46.915Z</time>
      </trkpt>
      <trkpt lat="44.27622" lon="3.84926">
        <ele>513.758446</ele>
        <time>2020-03-09T12:48:55.280Z</time>
      </trkpt>
      <trkpt lat="44.27544" lon="3.84815">
        <ele>517.628999</ele>
        <time>2020-03-09T12:49:29.814Z</time>
      </trkpt>
      <trkpt lat="44.27535" lon="3.84813">
        <ele>517.937092</ele>
        <time>2020-03-09T12:49:32.446Z</time>
      </trkpt>
      <trkpt lat="44.2748" lon="3.84847">
        <ele>519.430773</ele>
        <time>2020-03-09T12:49:48.398Z</time>
      </trkpt>
      <trkpt lat="44.27443" lon="3.84854">
        <ele>520.250802</ele>
        <time>2020-03-09T12:49:56.702Z</time>
      </trkpt>
      <trkpt lat="44.27424" lon="3.84848">
        <ele>520.676817</ele>
        <time>2020-03-09T12:50:01.021Z</time>
      </trkpt>
      <trkpt lat="44.27393" lon="3.84822">
        <ele>521.473189</ele>
        <time>2020-03-09T12:50:08.972Z</time>
      </trkpt>
      <trkpt lat="44.27352" lon="3.84826">
        <ele>522.388633</ele>
        <time>2020-03-09T12:50:17.728Z</time>
      </trkpt>
      <trkpt lat="44.27341" lon="3.84822">
        <ele>522.650965</ele>
        <time>2020-03-09T12:50:20.207Z</time>
      </trkpt>
      <trkpt lat="44.27334" lon="3.84813">
        <ele>522.858803</ele>
        <time>2020-03-09T12:50:22.115Z</time>
      </trkpt>
      <trkpt lat="44.27333" lon="3.84797">
        <ele>523.114127</ele>
        <time>2020-03-09T12:50:24.537Z</time>
      </trkpt>
      <trkpt lat="44.27359" lon="3.8469">
        <ele>524.944345</ele>
        <time>2020-03-09T12:50:43.129Z</time>
      </trkpt>
      <trkpt lat="44.2738" lon="3.84641">
        <ele>525.857875</ele>
        <time>2020-03-09T12:50:54.049Z</time>
      </trkpt>
      <trkpt lat="44.27452" lon="3.84534">
        <ele>528.804569</ele>
        <time>2020-03-09T12:51:21.731Z</time>
      </trkpt>
      <trkpt lat="44.27458" lon="3.84506">
        <ele>529.443353</ele>
        <time>2020-03-09T12:51:26.882Z</time>
      </trkpt>
      <trkpt lat="44.27458" lon="3.84478">
        <ele>530.034437</ele>
        <time>2020-03-09T12:51:31.850Z</time>
      </trkpt>
      <trkpt lat="44.2745" lon="3.84438">
        <ele>530.925435</ele>
        <time>2020-03-09T12:51:39.651Z</time>
      </trkpt>
      <trkpt lat="44.27452" lon="3.84387">
        <ele>532.095572</ele>
        <time>2020-03-09T12:51:49.983Z</time>
      </trkpt>
      <trkpt lat="44.27458" lon="3.84357">
        <ele>533.050867</ele>
        <time>2020-03-09T12:51:56.804Z</time>
      </trkpt>
      <trkpt lat="44.27476" lon="3.84321">
        <ele>534.404198</ele>
        <time>2020-03-09T12:52:06.921Z</time>
      </trkpt>
      <trkpt lat="44.27483" lon="3.84296">
        <ele>535.208098</ele>
        <time>2020-03-09T12:52:12.988Z</time>
      </trkpt>
      <trkpt lat="44.2748" lon="3.84239">
        <ele>536.974373</ele>
        <time>2020-03-09T12:52:26.440Z</time>
      </trkpt>
      <trkpt lat="44.27484" lon="3.84195">
        <ele>538.315608</ele>
        <time>2020-03-09T12:52:36.819Z</time>
      </trkpt>
      <trkpt lat="44.27491" lon="3.84173">
        <ele>539.043354</ele>
        <time>2020-03-09T12:52:42.590Z</time>
      </trkpt>
      <trkpt lat="44.27512" lon="3.84147">
        <ele>540.024651</ele>
        <time>2020-03-09T12:52:52.742Z</time>
      </trkpt>
      <trkpt lat="44.27571" lon="3.84112">
        <ele>541.872544</ele>
        <time>2020-03-09T12:53:14.036Z</time>
      </trkpt>
      <trkpt lat="44.27643" lon="3.84034">
        <ele>544.539577</ele>
        <time>2020-03-09T12:53:35.171Z</time>
      </trkpt>
      <trkpt lat="44.27657" lon="3.84015">
        <ele>544.563488</ele>
        <time>2020-03-09T12:53:38.048Z</time>
      </trkpt>
      <trkpt lat="44.27663" lon="3.83992">
        <ele>544.330172</ele>
        <time>2020-03-09T12:53:40.347Z</time>
      </trkpt>
      <trkpt lat="44.27665" lon="3.83974">
        <ele>544.159183</ele>
        <time>2020-03-09T12:53:41.990Z</time>
      </trkpt>
      <trkpt lat="44.27653" lon="3.83902">
        <ele>543.454662</ele>
        <time>2020-03-09T12:53:48.098Z</time>
      </trkpt>
      <trkpt lat="44.27645" lon="3.83817">
        <ele>542.648023</ele>
        <time>2020-03-09T12:53:54.805Z</time>
      </trkpt>
      <trkpt lat="44.27647" lon="3.83792">
        <ele>542.40797</ele>
        <time>2020-03-09T12:53:56.753Z</time>
      </trkpt>
      <trkpt lat="44.2766" lon="3.83737">
        <ele>541.211908</ele>
        <time>2020-03-09T12:54:01.236Z</time>
      </trkpt>
      <trkpt lat="44.27672" lon="3.83645">
        <ele>539.177814</ele>
        <time>2020-03-09T12:54:08.006Z</time>
      </trkpt>
      <trkpt lat="44.27695" lon="3.83582">
        <ele>537.614789</ele>
        <time>2020-03-09T12:54:13.118Z</time>
      </trkpt>
      <trkpt lat="44.27694" lon="3.83561">
        <ele>537.161407</ele>
        <time>2020-03-09T12:54:14.734Z</time>
      </trkpt>
      <trkpt lat="44.27689" lon="3.83549">
        <ele>536.83902</ele>
        <time>2020-03-09T12:54:15.843Z</time>
      </trkpt>
      <trkpt lat="44.27684" lon="3.83545">
        <ele>536.603969</ele>
        <time>2020-03-09T12:54:16.323Z</time>
      </trkpt>
      <trkpt lat="44.27677" lon="3.83539">
        <ele>536.254174</ele>
        <time>2020-03-09T12:54:17.100Z</time>
      </trkpt>
      <trkpt lat="44.27671" lon="3.83521">
        <ele>535.646963</ele>
        <time>2020-03-09T12:54:18.628Z</time>
      </trkpt>
      <trkpt lat="44.27673" lon="3.83483">
        <ele>534.444787</ele>
        <time>2020-03-09T12:54:21.298Z</time>
      </trkpt>
      <trkpt lat="44.27694" lon="3.83384">
        <ele>531.227508</ele>
        <time>2020-03-09T12:54:28.390Z</time>
      </trkpt>
      <trkpt lat="44.27715" lon="3.83334">
        <ele>529.428839</ele>
        <time>2020-03-09T12:54:32.276Z</time>
      </trkpt>
      <trkpt lat="44.27707" lon="3.83286">
        <ele>528.079453</ele>
        <time>2020-03-09T12:54:35.707Z</time>
      </trkpt>
      <trkpt lat="44.27712" lon="3.83235">
        <ele>526.759315</ele>
        <time>2020-03-09T12:54:39.267Z</time>
      </trkpt>
      <trkpt lat="44.27688" lon="3.83135">
        <ele>524.03368</ele>
        <time>2020-03-09T12:54:46.792Z</time>
      </trkpt>
      <trkpt lat="44.27685" lon="3.83111">
        <ele>523.4249</ele>
        <time>2020-03-09T12:54:48.563Z</time>
      </trkpt>
      <trkpt lat="44.27689" lon="3.83085">
        <ele>522.728386</ele>
        <time>2020-03-09T12:54:50.623Z</time>
      </trkpt>
      <trkpt lat="44.27711" lon="3.8303">
        <ele>521.409755</ele>
        <time>2020-03-09T12:54:55.481Z</time>
      </trkpt>
      <trkpt lat="44.27736" lon="3.83006">
        <ele>520.534186</ele>
        <time>2020-03-09T12:54:58.773Z</time>
      </trkpt>
      <trkpt lat="44.27778" lon="3.82926">
        <ele>518.507889</ele>
        <time>2020-03-09T12:55:06.057Z</time>
      </trkpt>
      <trkpt lat="44.27796" lon="3.82914">
        <ele>517.934339</ele>
        <time>2020-03-09T12:55:08.074Z</time>
      </trkpt>
      <trkpt lat="44.27821" lon="3.82913">
        <ele>517.120261</ele>
        <time>2020-03-09T12:55:10.592Z</time>
      </trkpt>
      <trkpt lat="44.27846" lon="3.82887">
        <ele>515.712235</ele>
        <time>2020-03-09T12:55:13.703Z</time>
      </trkpt>
      <trkpt lat="44.27853" lon="3.82874">
        <ele>515.182197</ele>
        <time>2020-03-09T12:55:14.824Z</time>
      </trkpt>
      <trkpt lat="44.27872" lon="3.82859">
        <ele>514.181066</ele>
        <time>2020-03-09T12:55:16.997Z</time>
      </trkpt>
      <trkpt lat="44.27877" lon="3.82848">
        <ele>513.758818</ele>
        <time>2020-03-09T12:55:17.884Z</time>
      </trkpt>
      <trkpt lat="44.27878" lon="3.82833">
        <ele>513.279693</ele>
        <time>2020-03-09T12:55:18.890Z</time>
      </trkpt>
      <trkpt lat="44.27874" lon="3.82819">
        <ele>512.800967</ele>
        <time>2020-03-09T12:55:19.918Z</time>
      </trkpt>
      <trkpt lat="44.27863" lon="3.82809">
        <ele>512.181464</ele>
        <time>2020-03-09T12:55:21.203Z</time>
      </trkpt>
      <trkpt lat="44.27805" lon="3.82806">
        <ele>509.597632</ele>
        <time>2020-03-09T12:55:26.533Z</time>
      </trkpt>
      <trkpt lat="44.27788" lon="3.82799">
        <ele>508.828081</ele>
        <time>2020-03-09T12:55:28.238Z</time>
      </trkpt>
      <trkpt lat="44.27777" lon="3.82779">
        <ele>508.095795</ele>
        <time>2020-03-09T12:55:29.954Z</time>
      </trkpt>
      <trkpt lat="44.27784" lon="3.82747">
        <ele>507.117868</ele>
        <time>2020-03-09T12:55:32.281Z</time>
      </trkpt>
      <trkpt lat="44.27829" lon="3.82664">
        <ele>504.077603</ele>
        <time>2020-03-09T12:55:39.581Z</time>
      </trkpt>
      <trkpt lat="44.2786" lon="3.82586">
        <ele>501.838615</ele>
        <time>2020-03-09T12:55:46.035Z</time>
      </trkpt>
      <trkpt lat="44.27864" lon="3.82537">
        <ele>501.410278</ele>
        <time>2020-03-09T12:55:49.681Z</time>
      </trkpt>
      <trkpt lat="44.27864" lon="3.82526">
        <ele>501.318178</ele>
        <time>2020-03-09T12:55:50.400Z</time>
      </trkpt>
      <trkpt lat="44.27866" lon="3.82516">
        <ele>501.227254</ele>
        <time>2020-03-09T12:55:51.143Z</time>
      </trkpt>
      <trkpt lat="44.27874" lon="3.82488">
        <ele>500.971147</ele>
        <time>2020-03-09T12:55:53.572Z</time>
      </trkpt>
      <trkpt lat="44.27874" lon="3.82443">
        <ele>500.579739</ele>
        <time>2020-03-09T12:55:57.472Z</time>
      </trkpt>
      <trkpt lat="44.27892" lon="3.8238">
        <ele>499.991642</ele>
        <time>2020-03-09T12:56:03.996Z</time>
      </trkpt>
      <trkpt lat="44.27872" lon="3.82347">
        <ele>500.403848</ele>
        <time>2020-03-09T12:56:11.747Z</time>
      </trkpt>
      <trkpt lat="44.27871" lon="3.82313">
        <ele>501.28567</ele>
        <time>2020-03-09T12:56:17.545Z</time>
      </trkpt>
      <trkpt lat="44.27876" lon="3.82291">
        <ele>501.87337</ele>
        <time>2020-03-09T12:56:22.233Z</time>
      </trkpt>
      <trkpt lat="44.27873" lon="3.82274">
        <ele>502.328845</ele>
        <time>2020-03-09T12:56:26.464Z</time>
      </trkpt>
      <trkpt lat="44.27861" lon="3.82254">
        <ele>502.995822</ele>
        <time>2020-03-09T12:56:31.614Z</time>
      </trkpt>
      <trkpt lat="44.27839" lon="3.82245">
        <ele>503.846831</ele>
        <time>2020-03-09T12:56:38.680Z</time>
      </trkpt>
      <trkpt lat="44.27826" lon="3.82251">
        <ele>504.334743</ele>
        <time>2020-03-09T12:56:43.105Z</time>
      </trkpt>
      <trkpt lat="44.27794" lon="3.82272">
        <ele>505.598645</ele>
        <time>2020-03-09T12:56:54.530Z</time>
      </trkpt>
      <trkpt lat="44.27789" lon="3.82281">
        <ele>505.908284</ele>
        <time>2020-03-09T12:56:57.605Z</time>
      </trkpt>
      <trkpt lat="44.27788" lon="3.82307">
        <ele>506.762903</ele>
        <time>2020-03-09T12:57:04.010Z</time>
      </trkpt>
      <trkpt lat="44.27786" lon="3.82333">
        <ele>507.882402</ele>
        <time>2020-03-09T12:57:11.505Z</time>
      </trkpt>
      <trkpt lat="44.27778" lon="3.82354">
        <ele>508.888186</ele>
        <time>2020-03-09T12:57:18.035Z</time>
      </trkpt>
      <trkpt lat="44.2773" lon="3.82384">
        <ele>511.980433</ele>
        <time>2020-03-09T12:57:39.219Z</time>
      </trkpt>
      <trkpt lat="44.27694" lon="3.82426">
        <ele>514.77761</ele>
        <time>2020-03-09T12:57:56.718Z</time>
      </trkpt>
      <trkpt lat="44.27618" lon="3.8249">
        <ele>521.585263</ele>
        <time>2020-03-09T12:58:32.322Z</time>
      </trkpt>
      <trkpt lat="44.27587" lon="3.82491">
        <ele>524.324506</ele>
        <time>2020-03-09T12:58:46.915Z</time>
      </trkpt>
      <trkpt lat="44.27476" lon="3.82408">
        <ele>536.250359</ele>
        <time>2020-03-09T12:59:58.991Z</time>
      </trkpt>
      <trkpt lat="44.27457" lon="3.82408">
        <ele>538.336491</ele>
        <time>2020-03-09T13:00:10.203Z</time>
      </trkpt>
      <trkpt lat="44.27446" lon="3.82411">
        <ele>539.576711</ele>
        <time>2020-03-09T13:00:16.956Z</time>
      </trkpt>
      <trkpt lat="44.2744" lon="3.82421">
        <ele>540.630615</ele>
        <time>2020-03-09T13:00:22.706Z</time>
      </trkpt>
      <trkpt lat="44.27441" lon="3.8244">
        <ele>542.181969</ele>
        <time>2020-03-09T13:00:31.026Z</time>
      </trkpt>
      <trkpt lat="44.27453" lon="3.82473">
        <ele>545.178215</ele>
        <time>2020-03-09T13:00:47.216Z</time>
      </trkpt>
      <trkpt lat="44.27449" lon="3.82488">
        <ele>546.504959</ele>
        <time>2020-03-09T13:00:54.308Z</time>
      </trkpt>
      <trkpt lat="44.27435" lon="3.82497">
        <ele>548.17317</ele>
        <time>2020-03-09T13:01:03.361Z</time>
      </trkpt>
      <trkpt lat="44.2741" lon="3.82498">
        <ele>551.011485</ele>
        <time>2020-03-09T13:01:18.728Z</time>
      </trkpt>
      <trkpt lat="44.27357" lon="3.82514">
        <ele>556.700509</ele>
        <time>2020-03-09T13:01:51.916Z</time>
      </trkpt>
      <trkpt lat="44.2735" lon="3.82525">
        <ele>557.783377</ele>
        <time>2020-03-09T13:01:58.197Z</time>
      </trkpt>
      <trkpt lat="44.27351" lon="3.82541">
        <ele>558.952752</ele>
        <time>2020-03-09T13:02:04.785Z</time>
      </trkpt>
      <trkpt lat="44.2736" lon="3.82559">
        <ele>560.491507</ele>
        <time>2020-03-09T13:02:13.480Z</time>
      </trkpt>
      <trkpt lat="44.27375" lon="3.82567">
        <ele>562.130471</ele>
        <time>2020-03-09T13:02:22.097Z</time>
      </trkpt>
      <trkpt lat="44.27419" lon="3.82628">
        <ele>568.361707</ele>
        <time>2020-03-09T13:02:54.685Z</time>
      </trkpt>
      <trkpt lat="44.27432" lon="3.82669">
        <ele>571.5892</ele>
        <time>2020-03-09T13:03:11.421Z</time>
      </trkpt>
      <trkpt lat="44.27429" lon="3.82677">
        <ele>572.132873</ele>
        <time>2020-03-09T13:03:14.553Z</time>
      </trkpt>
      <trkpt lat="44.27426" lon="3.82675">
        <ele>572.465369</ele>
        <time>2020-03-09T13:03:16.410Z</time>
      </trkpt>
      <trkpt lat="44.27418" lon="3.82648">
        <ele>574.270325</ele>
        <time>2020-03-09T13:03:27.197Z</time>
      </trkpt>
      <trkpt lat="44.27406" lon="3.82627">
        <ele>575.958978</ele>
        <time>2020-03-09T13:03:37.043Z</time>
      </trkpt>
      <trkpt lat="44.27399" lon="3.82631">
        <ele>576.641677</ele>
        <time>2020-03-09T13:03:41.320Z</time>
      </trkpt>
      <trkpt lat="44.27411" lon="3.82656">
        <ele>578.537629</ele>
        <time>2020-03-09T13:03:52.295Z</time>
      </trkpt>
      <trkpt lat="44.2741" lon="3.8272">
        <ele>582.498285</ele>
        <time>2020-03-09T13:04:14.926Z</time>
      </trkpt>
      <trkpt lat="44.27403" lon="3.8275">
        <ele>584.498281</ele>
        <time>2020-03-09T13:04:25.865Z</time>
      </trkpt>
      <trkpt lat="44.27406" lon="3.82773">
        <ele>585.960942</ele>
        <time>2020-03-09T13:04:33.681Z</time>
      </trkpt>
      <trkpt lat="44.27418" lon="3.82798">
        <ele>587.798658</ele>
        <time>2020-03-09T13:04:43.533Z</time>
      </trkpt>
      <trkpt lat="44.27418" lon="3.82817">
        <ele>588.917258</ele>
        <time>2020-03-09T13:04:50.212Z</time>
      </trkpt>
      <trkpt lat="44.27396" lon="3.82875">
        <ele>592.669119</ele>
        <time>2020-03-09T13:05:12.696Z</time>
      </trkpt>
      <trkpt lat="44.27391" lon="3.82874">
        <ele>593.01813</ele>
        <time>2020-03-09T13:05:14.813Z</time>
      </trkpt>
      <trkpt lat="44.27391" lon="3.82866">
        <ele>593.458592</ele>
        <time>2020-03-09T13:05:17.342Z</time>
      </trkpt>
      <trkpt lat="44.27404" lon="3.82827">
        <ele>595.978298</ele>
        <time>2020-03-09T13:05:31.814Z</time>
      </trkpt>
      <trkpt lat="44.27401" lon="3.82809">
        <ele>597.020502</ele>
        <time>2020-03-09T13:05:37.797Z</time>
      </trkpt>
      <trkpt lat="44.27377" lon="3.82774">
        <ele>599.773308</ele>
        <time>2020-03-09T13:05:53.759Z</time>
      </trkpt>
      <trkpt lat="44.27355" lon="3.82692">
        <ele>605.057904</ele>
        <time>2020-03-09T13:06:23.577Z</time>
      </trkpt>
      <trkpt lat="44.27332" lon="3.82655">
        <ele>608.091813</ele>
        <time>2020-03-09T13:06:40.268Z</time>
      </trkpt>
      <trkpt lat="44.27322" lon="3.82655">
        <ele>608.912717</ele>
        <time>2020-03-09T13:06:44.958Z</time>
      </trkpt>
      <trkpt lat="44.27319" lon="3.82661">
        <ele>609.355779</ele>
        <time>2020-03-09T13:06:47.572Z</time>
      </trkpt>
      <trkpt lat="44.27332" lon="3.82694">
        <ele>611.678084</ele>
        <time>2020-03-09T13:07:01.015Z</time>
      </trkpt>
      <trkpt lat="44.27329" lon="3.8273">
        <ele>613.855224</ele>
        <time>2020-03-09T13:07:13.992Z</time>
      </trkpt>
      <trkpt lat="44.27347" lon="3.828">
        <ele>618.492294</ele>
        <time>2020-03-09T13:07:41.307Z</time>
      </trkpt>
      <trkpt lat="44.27361" lon="3.82815">
        <ele>620.108593</ele>
        <time>2020-03-09T13:07:50.030Z</time>
      </trkpt>
      <trkpt lat="44.2736" lon="3.82828">
        <ele>620.988741</ele>
        <time>2020-03-09T13:07:55.053Z</time>
      </trkpt>
      <trkpt lat="44.2729" lon="3.82755">
        <ele>628.994997</ele>
        <time>2020-03-09T13:08:41.568Z</time>
      </trkpt>
      <trkpt lat="44.27251" lon="3.82701">
        <ele>633.882035</ele>
        <time>2020-03-09T13:09:09.221Z</time>
      </trkpt>
      <trkpt lat="44.2723" lon="3.82696">
        <ele>635.428273</ele>
        <time>2020-03-09T13:09:19.889Z</time>
      </trkpt>
      <trkpt lat="44.27224" lon="3.82701">
        <ele>635.890452</ele>
        <time>2020-03-09T13:09:22.975Z</time>
      </trkpt>
      <trkpt lat="44.27226" lon="3.82709">
        <ele>636.285814</ele>
        <time>2020-03-09T13:09:25.620Z</time>
      </trkpt>
      <trkpt lat="44.27247" lon="3.82718">
        <ele>637.875884</ele>
        <time>2020-03-09T13:09:36.158Z</time>
      </trkpt>
      <trkpt lat="44.27285" lon="3.82798">
        <ele>642.799192</ele>
        <time>2020-03-09T13:10:06.293Z</time>
      </trkpt>
      <trkpt lat="44.27306" lon="3.82858">
        <ele>646.235509</ele>
        <time>2020-03-09T13:10:24.702Z</time>
      </trkpt>
      <trkpt lat="44.2729" lon="3.82918">
        <ele>648.192784</ele>
        <time>2020-03-09T13:10:40.327Z</time>
      </trkpt>
      <trkpt lat="44.27293" lon="3.82947">
        <ele>649.057271</ele>
        <time>2020-03-09T13:10:46.743Z</time>
      </trkpt>
      <trkpt lat="44.2731" lon="3.82981">
        <ele>650.335446</ele>
        <time>2020-03-09T13:10:55.625Z</time>
      </trkpt>
      <trkpt lat="44.27312" lon="3.83002">
        <ele>650.970971</ele>
        <time>2020-03-09T13:10:59.888Z</time>
      </trkpt>
      <trkpt lat="44.27307" lon="3.83021">
        <ele>651.585016</ele>
        <time>2020-03-09T13:11:03.962Z</time>
      </trkpt>
      <trkpt lat="44.27266" lon="3.83093">
        <ele>654.55422</ele>
        <time>2020-03-09T13:11:23.057Z</time>
      </trkpt>
      <trkpt lat="44.27254" lon="3.83102">
        <ele>655.409089</ele>
        <time>2020-03-09T13:11:27.541Z</time>
      </trkpt>
      <trkpt lat="44.27221" lon="3.8311">
        <ele>657.492685</ele>
        <time>2020-03-09T13:11:38.711Z</time>
      </trkpt>
      <trkpt lat="44.27205" lon="3.83141">
        <ele>659.203009</ele>
        <time>2020-03-09T13:11:48.547Z</time>
      </trkpt>
      <trkpt lat="44.27142" lon="3.8316">
        <ele>663.172241</ele>
        <time>2020-03-09T13:12:15.283Z</time>
      </trkpt>
      <trkpt lat="44.27137" lon="3.83156">
        <ele>663.549901</ele>
        <time>2020-03-09T13:12:18.027Z</time>
      </trkpt>
      <trkpt lat="44.2714" lon="3.83147">
        <ele>664.01319</ele>
        <time>2020-03-09T13:12:21.559Z</time>
      </trkpt>
      <trkpt lat="44.27223" lon="3.83066">
        <ele>674.230256</ele>
        <time>2020-03-09T13:13:16.260Z</time>
      </trkpt>
      <trkpt lat="44.27239" lon="3.83029">
        <ele>677.569127</ele>
        <time>2020-03-09T13:13:35.258Z</time>
      </trkpt>
      <trkpt lat="44.27246" lon="3.82986">
        <ele>680.996478</ele>
        <time>2020-03-09T13:13:55.674Z</time>
      </trkpt>
      <trkpt lat="44.27232" lon="3.8293">
        <ele>685.559108</ele>
        <time>2020-03-09T13:14:23.496Z</time>
      </trkpt>
      <trkpt lat="44.27231" lon="3.82892">
        <ele>688.4618</ele>
        <time>2020-03-09T13:14:40.925Z</time>
      </trkpt>
      <trkpt lat="44.27215" lon="3.82867">
        <ele>691.031818</ele>
        <time>2020-03-09T13:14:56.246Z</time>
      </trkpt>
      <trkpt lat="44.27122" lon="3.82858">
        <ele>701.038439</ele>
        <time>2020-03-09T13:15:50.954Z</time>
      </trkpt>
      <trkpt lat="44.2704" lon="3.82837">
        <ele>706.433249</ele>
        <time>2020-03-09T13:16:28.668Z</time>
      </trkpt>
      <trkpt lat="44.27037" lon="3.82848">
        <ele>706.795037</ele>
        <time>2020-03-09T13:16:31.623Z</time>
      </trkpt>
      <trkpt lat="44.27045" lon="3.82855">
        <ele>707.221354</ele>
        <time>2020-03-09T13:16:34.672Z</time>
      </trkpt>
      <trkpt lat="44.27105" lon="3.82875">
        <ele>710.037402</ele>
        <time>2020-03-09T13:16:52.182Z</time>
      </trkpt>
      <trkpt lat="44.27173" lon="3.82914">
        <ele>712.350739</ele>
        <time>2020-03-09T13:17:07.458Z</time>
      </trkpt>
      <trkpt lat="44.27182" lon="3.82929">
        <ele>712.494074</ele>
        <time>2020-03-09T13:17:09.671Z</time>
      </trkpt>
      <trkpt lat="44.2718" lon="3.82957">
        <ele>712.705627</ele>
        <time>2020-03-09T13:17:13.552Z</time>
      </trkpt>
      <trkpt lat="44.27166" lon="3.82987">
        <ele>712.96779</ele>
        <time>2020-03-09T13:17:18.038Z</time>
      </trkpt>
      <trkpt lat="44.27147" lon="3.83011">
        <ele>713.232431</ele>
        <time>2020-03-09T13:17:22.684Z</time>
      </trkpt>
      <trkpt lat="44.27111" lon="3.83033">
        <ele>713.639122</ele>
        <time>2020-03-09T13:17:29.875Z</time>
      </trkpt>
      <trkpt lat="44.27009" lon="3.83076">
        <ele>714.772562</ele>
        <time>2020-03-09T13:17:49.522Z</time>
      </trkpt>
      <trkpt lat="44.2694" lon="3.83117">
        <ele>715.576425</ele>
        <time>2020-03-09T13:18:01.403Z</time>
      </trkpt>
      <trkpt lat="44.26904" lon="3.8313">
        <ele>716.549682</ele>
        <time>2020-03-09T13:18:10.472Z</time>
      </trkpt>
      <trkpt lat="44.26884" lon="3.83141">
        <ele>717.634828</ele>
        <time>2020-03-09T13:18:17.065Z</time>
      </trkpt>
      <trkpt lat="44.26873" lon="3.83164">
        <ele>718.656004</ele>
        <time>2020-03-09T13:18:22.232Z</time>
      </trkpt>
      <trkpt lat="44.26857" lon="3.83166">
        <ele>719.462422</ele>
        <time>2020-03-09T13:18:27.622Z</time>
      </trkpt>
      <trkpt lat="44.2685" lon="3.83156">
        <ele>719.973875</ele>
        <time>2020-03-09T13:18:29.460Z</time>
      </trkpt>
      <trkpt lat="44.26846" lon="3.8305">
        <ele>723.845422</ele>
        <time>2020-03-09T13:18:58.666Z</time>
      </trkpt>
      <trkpt lat="44.26841" lon="3.82922">
        <ele>732.06676</ele>
        <time>2020-03-09T13:19:46.701Z</time>
      </trkpt>
      <trkpt lat="44.26827" lon="3.82878">
        <ele>735.599852</ele>
        <time>2020-03-09T13:20:07.848Z</time>
      </trkpt>
      <trkpt lat="44.26779" lon="3.8285">
        <ele>740.896446</ele>
        <time>2020-03-09T13:20:38.415Z</time>
      </trkpt>
      <trkpt lat="44.26655" lon="3.8274">
        <ele>755.664734</ele>
        <time>2020-03-09T13:22:05.598Z</time>
      </trkpt>
      <trkpt lat="44.26633" lon="3.82729">
        <ele>757.973988</ele>
        <time>2020-03-09T13:22:16.872Z</time>
      </trkpt>
      <trkpt lat="44.26615" lon="3.82697">
        <ele>760.880386</ele>
        <time>2020-03-09T13:22:31.307Z</time>
      </trkpt>
      <trkpt lat="44.26577" lon="3.827">
        <ele>762.942329</ele>
        <time>2020-03-09T13:22:47.677Z</time>
      </trkpt>
      <trkpt lat="44.26481" lon="3.82757">
        <ele>768.140466</ele>
        <time>2020-03-09T13:23:25.877Z</time>
      </trkpt>
      <trkpt lat="44.26444" lon="3.82766">
        <ele>770.048447</ele>
        <time>2020-03-09T13:23:33.755Z</time>
      </trkpt>
      <trkpt lat="44.26423" lon="3.8276">
        <ele>770.404201</ele>
        <time>2020-03-09T13:23:38.124Z</time>
      </trkpt>
      <trkpt lat="44.26407" lon="3.82736">
        <ele>770.592427</ele>
        <time>2020-03-09T13:23:43.066Z</time>
      </trkpt>
      <trkpt lat="44.26393" lon="3.82686">
        <ele>770.899948</ele>
        <time>2020-03-09T13:23:50.785Z</time>
      </trkpt>
      <trkpt lat="44.26377" lon="3.82666">
        <ele>771.070968</ele>
        <time>2020-03-09T13:23:54.577Z</time>
      </trkpt>
      <trkpt lat="44.26364" lon="3.82659">
        <ele>771.1864</ele>
        <time>2020-03-09T13:23:57.282Z</time>
      </trkpt>
      <trkpt lat="44.26345" lon="3.82666">
        <ele>771.34022</ele>
        <time>2020-03-09T13:24:00.257Z</time>
      </trkpt>
      <trkpt lat="44.26328" lon="3.82685">
        <ele>771.518296</ele>
        <time>2020-03-09T13:24:03.618Z</time>
      </trkpt>
      <trkpt lat="44.26303" lon="3.82728">
        <ele>771.7377</ele>
        <time>2020-03-09T13:24:08.729Z</time>
      </trkpt>
      <trkpt lat="44.26276" lon="3.82753">
        <ele>771.792619</ele>
        <time>2020-03-09T13:24:12.906Z</time>
      </trkpt>
      <trkpt lat="44.26255" lon="3.82755">
        <ele>771.826563</ele>
        <time>2020-03-09T13:24:15.441Z</time>
      </trkpt>
      <trkpt lat="44.26238" lon="3.82749">
        <ele>771.856956</ele>
        <time>2020-03-09T13:24:18.003Z</time>
      </trkpt>
      <trkpt lat="44.26226" lon="3.82736">
        <ele>771.881343</ele>
        <time>2020-03-09T13:24:20.059Z</time>
      </trkpt>
      <trkpt lat="44.26197" lon="3.82683">
        <ele>771.961759</ele>
        <time>2020-03-09T13:24:28.504Z</time>
      </trkpt>
      <trkpt lat="44.2618" lon="3.82664">
        <ele>771.998414</ele>
        <time>2020-03-09T13:24:32.527Z</time>
      </trkpt>
      <trkpt lat="44.26125" lon="3.82626">
        <ele>773.27489</ele>
        <time>2020-03-09T13:24:45.056Z</time>
      </trkpt>
      <trkpt lat="44.26096" lon="3.82584">
        <ele>774.281541</ele>
        <time>2020-03-09T13:24:55.348Z</time>
      </trkpt>
      <trkpt lat="44.26063" lon="3.82558">
        <ele>775.187873</ele>
        <time>2020-03-09T13:25:05.589Z</time>
      </trkpt>
      <trkpt lat="44.26039" lon="3.82497">
        <ele>776.337011</ele>
        <time>2020-03-09T13:25:20.060Z</time>
      </trkpt>
      <trkpt lat="44.26027" lon="3.82482">
        <ele>776.515637</ele>
        <time>2020-03-09T13:25:24.367Z</time>
      </trkpt>
      <trkpt lat="44.26004" lon="3.82466">
        <ele>776.816189</ele>
        <time>2020-03-09T13:25:31.640Z</time>
      </trkpt>
      <trkpt lat="44.25905" lon="3.8249">
        <ele>777.960346</ele>
        <time>2020-03-09T13:25:52.049Z</time>
      </trkpt>
      <trkpt lat="44.25819" lon="3.8249">
        <ele>776.71112</ele>
        <time>2020-03-09T13:26:01.671Z</time>
      </trkpt>
      <trkpt lat="44.25798" lon="3.82479">
        <ele>776.001399</ele>
        <time>2020-03-09T13:26:04.066Z</time>
      </trkpt>
      <trkpt lat="44.25794" lon="3.82474">
        <ele>775.834565</ele>
        <time>2020-03-09T13:26:04.650Z</time>
      </trkpt>
      <trkpt lat="44.25792" lon="3.82458">
        <ele>775.464102</ele>
        <time>2020-03-09T13:26:05.720Z</time>
      </trkpt>
      <trkpt lat="44.25836" lon="3.82349">
        <ele>772.602464</ele>
        <time>2020-03-09T13:26:14.431Z</time>
      </trkpt>
      <trkpt lat="44.25844" lon="3.82306">
        <ele>771.051934</ele>
        <time>2020-03-09T13:26:17.445Z</time>
      </trkpt>
      <trkpt lat="44.2586" lon="3.82266">
        <ele>769.458098</ele>
        <time>2020-03-09T13:26:20.495Z</time>
      </trkpt>
      <trkpt lat="44.25919" lon="3.82173">
        <ele>765.144554</ele>
        <time>2020-03-09T13:26:28.928Z</time>
      </trkpt>
      <trkpt lat="44.25978" lon="3.82128">
        <ele>761.497751</ele>
        <time>2020-03-09T13:26:35.324Z</time>
      </trkpt>
      <trkpt lat="44.26008" lon="3.82063">
        <ele>758.267235</ele>
        <time>2020-03-09T13:26:40.522Z</time>
      </trkpt>
      <trkpt lat="44.26049" lon="3.82005">
        <ele>754.867135</ele>
        <time>2020-03-09T13:26:45.877Z</time>
      </trkpt>
      <trkpt lat="44.26083" lon="3.81933">
        <ele>749.987137</ele>
        <time>2020-03-09T13:26:51.348Z</time>
      </trkpt>
      <trkpt lat="44.26154" lon="3.81861">
        <ele>741.589912</ele>
        <time>2020-03-09T13:26:59.040Z</time>
      </trkpt>
      <trkpt lat="44.26166" lon="3.81831">
        <ele>739.288285</ele>
        <time>2020-03-09T13:27:01.108Z</time>
      </trkpt>
      <trkpt lat="44.26158" lon="3.81798">
        <ele>736.885247</ele>
        <time>2020-03-09T13:27:03.253Z</time>
      </trkpt>
      <trkpt lat="44.26152" lon="3.81792">
        <ele>736.185528</ele>
        <time>2020-03-09T13:27:03.866Z</time>
      </trkpt>
      <trkpt lat="44.26105" lon="3.81792">
        <ele>731.023341</ele>
        <time>2020-03-09T13:27:07.804Z</time>
      </trkpt>
      <trkpt lat="44.26073" lon="3.81778">
        <ele>727.27895</ele>
        <time>2020-03-09T13:27:10.665Z</time>
      </trkpt>
      <trkpt lat="44.26038" lon="3.81754">
        <ele>722.98702</ele>
        <time>2020-03-09T13:27:13.953Z</time>
      </trkpt>
      <trkpt lat="44.26016" lon="3.81719">
        <ele>719.312202</ele>
        <time>2020-03-09T13:27:16.793Z</time>
      </trkpt>
      <trkpt lat="44.25996" lon="3.81659">
        <ele>715.338935</ele>
        <time>2020-03-09T13:27:20.964Z</time>
      </trkpt>
      <trkpt lat="44.25962" lon="3.81646">
        <ele>713.640455</ele>
        <time>2020-03-09T13:27:24.117Z</time>
      </trkpt>
      <trkpt lat="44.25951" lon="3.81636">
        <ele>712.994094</ele>
        <time>2020-03-09T13:27:25.329Z</time>
      </trkpt>
      <trkpt lat="44.25899" lon="3.81549">
        <ele>709.108472</ele>
        <time>2020-03-09T13:27:33.447Z</time>
      </trkpt>
      <trkpt lat="44.25889" lon="3.81531">
        <ele>708.315869</ele>
        <time>2020-03-09T13:27:35.800Z</time>
      </trkpt>
      <trkpt lat="44.25884" lon="3.81517">
        <ele>707.765148</ele>
        <time>2020-03-09T13:27:36.998Z</time>
      </trkpt>
      <trkpt lat="44.25887" lon="3.81504">
        <ele>707.481682</ele>
        <time>2020-03-09T13:27:38.150Z</time>
      </trkpt>
      <trkpt lat="44.25908" lon="3.81465">
        <ele>706.616466</ele>
        <time>2020-03-09T13:27:42.284Z</time>
      </trkpt>
      <trkpt lat="44.25923" lon="3.81394">
        <ele>705.287076</ele>
        <time>2020-03-09T13:27:48.622Z</time>
      </trkpt>
      <trkpt lat="44.25938" lon="3.81374">
        <ele>704.758099</ele>
        <time>2020-03-09T13:27:50.859Z</time>
      </trkpt>
      <trkpt lat="44.25943" lon="3.81366">
        <ele>704.577798</ele>
        <time>2020-03-09T13:27:52.657Z</time>
      </trkpt>
      <trkpt lat="44.25948" lon="3.81356">
        <ele>704.366947</ele>
        <time>2020-03-09T13:27:53.446Z</time>
      </trkpt>
      <trkpt lat="44.25983" lon="3.81284">
        <ele>702.225781</ele>
        <time>2020-03-09T13:27:59.610Z</time>
      </trkpt>
      <trkpt lat="44.25994" lon="3.81254">
        <ele>700.713624</ele>
        <time>2020-03-09T13:28:01.789Z</time>
      </trkpt>
      <trkpt lat="44.25996" lon="3.81233">
        <ele>699.753523</ele>
        <time>2020-03-09T13:28:03.232Z</time>
      </trkpt>
      <trkpt lat="44.2599" lon="3.81187">
        <ele>697.648936</ele>
        <time>2020-03-09T13:28:06.271Z</time>
      </trkpt>
      <trkpt lat="44.25966" lon="3.81144">
        <ele>695.226089</ele>
        <time>2020-03-09T13:28:09.680Z</time>
      </trkpt>
      <trkpt lat="44.25953" lon="3.81138">
        <ele>694.374783</ele>
        <time>2020-03-09T13:28:10.885Z</time>
      </trkpt>
      <trkpt lat="44.25931" lon="3.81143">
        <ele>692.959867</ele>
        <time>2020-03-09T13:28:12.938Z</time>
      </trkpt>
      <trkpt lat="44.25884" lon="3.81096">
        <ele>690.188575</ele>
        <time>2020-03-09T13:28:18.268Z</time>
      </trkpt>
      <trkpt lat="44.25855" lon="3.8106">
        <ele>688.569945</ele>
        <time>2020-03-09T13:28:21.966Z</time>
      </trkpt>
      <trkpt lat="44.25846" lon="3.81022">
        <ele>687.347227</ele>
        <time>2020-03-09T13:28:24.807Z</time>
      </trkpt>
      <trkpt lat="44.25848" lon="3.81008">
        <ele>686.927188</ele>
        <time>2020-03-09T13:28:25.805Z</time>
      </trkpt>
      <trkpt lat="44.25851" lon="3.80996">
        <ele>686.535496</ele>
        <time>2020-03-09T13:28:26.724Z</time>
      </trkpt>
      <trkpt lat="44.25835" lon="3.80944">
        <ele>684.851504</ele>
        <time>2020-03-09T13:28:30.833Z</time>
      </trkpt>
      <trkpt lat="44.25837" lon="3.80902">
        <ele>683.944565</ele>
        <time>2020-03-09T13:28:34.065Z</time>
      </trkpt>
      <trkpt lat="44.25839" lon="3.80874">
        <ele>683.496777</ele>
        <time>2020-03-09T13:28:36.370Z</time>
      </trkpt>
      <trkpt lat="44.25838" lon="3.80864">
        <ele>683.33376</ele>
        <time>2020-03-09T13:28:37.150Z</time>
      </trkpt>
      <trkpt lat="44.25837" lon="3.80816">
        <ele>682.570528</ele>
        <time>2020-03-09T13:28:41.074Z</time>
      </trkpt>
      <trkpt lat="44.25868" lon="3.80746">
        <ele>681.25049</ele>
        <time>2020-03-09T13:28:47.735Z</time>
      </trkpt>
      <trkpt lat="44.25881" lon="3.8068">
        <ele>680.138866</ele>
        <time>2020-03-09T13:28:52.832Z</time>
      </trkpt>
      <trkpt lat="44.25881" lon="3.80614">
        <ele>678.928159</ele>
        <time>2020-03-09T13:28:57.672Z</time>
      </trkpt>
      <trkpt lat="44.25896" lon="3.80525">
        <ele>677.262142</ele>
        <time>2020-03-09T13:29:04.550Z</time>
      </trkpt>
      <trkpt lat="44.25887" lon="3.80506">
        <ele>676.863165</ele>
        <time>2020-03-09T13:29:06.242Z</time>
      </trkpt>
      <trkpt lat="44.25879" lon="3.805">
        <ele>676.614663</ele>
        <time>2020-03-09T13:29:07.305Z</time>
      </trkpt>
      <trkpt lat="44.25831" lon="3.80474">
        <ele>675.348193</ele>
        <time>2020-03-09T13:29:12.913Z</time>
      </trkpt>
      <trkpt lat="44.25821" lon="3.80474">
        <ele>675.111646</ele>
        <time>2020-03-09T13:29:13.986Z</time>
      </trkpt>
      <trkpt lat="44.25784" lon="3.80507">
        <ele>674.07261</ele>
        <time>2020-03-09T13:29:18.594Z</time>
      </trkpt>
      <trkpt lat="44.2572" lon="3.80548">
        <ele>672.412608</ele>
        <time>2020-03-09T13:29:26.026Z</time>
      </trkpt>
      <trkpt lat="44.25699" lon="3.80532">
        <ele>671.842017</ele>
        <time>2020-03-09T13:29:28.645Z</time>
      </trkpt>
      <trkpt lat="44.25673" lon="3.80494">
        <ele>670.93225</ele>
        <time>2020-03-09T13:29:32.795Z</time>
      </trkpt>
      <trkpt lat="44.25658" lon="3.80484">
        <ele>670.531109</ele>
        <time>2020-03-09T13:29:34.522Z</time>
      </trkpt>
      <trkpt lat="44.25647" lon="3.80482">
        <ele>670.247746</ele>
        <time>2020-03-09T13:29:35.732Z</time>
      </trkpt>
      <trkpt lat="44.25628" lon="3.8049">
        <ele>669.750865</ele>
        <time>2020-03-09T13:29:37.796Z</time>
      </trkpt>
      <trkpt lat="44.2562" lon="3.80505">
        <ele>669.425932</ele>
        <time>2020-03-09T13:29:39.159Z</time>
      </trkpt>
      <trkpt lat="44.25602" lon="3.80598">
        <ele>667.722608</ele>
        <time>2020-03-09T13:29:46.229Z</time>
      </trkpt>
      <trkpt lat="44.25547" lon="3.80641">
        <ele>667.157464</ele>
        <time>2020-03-09T13:29:53.338Z</time>
      </trkpt>
      <trkpt lat="44.25499" lon="3.80697">
        <ele>667.242642</ele>
        <time>2020-03-09T13:30:02.759Z</time>
      </trkpt>
      <trkpt lat="44.25464" lon="3.80706">
        <ele>667.291234</ele>
        <time>2020-03-09T13:30:11.024Z</time>
      </trkpt>
      <trkpt lat="44.25373" lon="3.8068">
        <ele>666.163879</ele>
        <time>2020-03-09T13:30:29.753Z</time>
      </trkpt>
      <trkpt lat="44.25364" lon="3.80684">
        <ele>665.950426</ele>
        <time>2020-03-09T13:30:30.808Z</time>
      </trkpt>
      <trkpt lat="44.25359" lon="3.80713">
        <ele>665.441699</ele>
        <time>2020-03-09T13:30:33.231Z</time>
      </trkpt>
      <trkpt lat="44.2536" lon="3.80774">
        <ele>664.386646</ele>
        <time>2020-03-09T13:30:38.148Z</time>
      </trkpt>
      <trkpt lat="44.25365" lon="3.8081">
        <ele>663.751594</ele>
        <time>2020-03-09T13:30:40.619Z</time>
      </trkpt>
      <trkpt lat="44.25368" lon="3.80963">
        <ele>655.968653</ele>
        <time>2020-03-09T13:30:50.475Z</time>
      </trkpt>
      <trkpt lat="44.25366" lon="3.80986">
        <ele>654.507804</ele>
        <time>2020-03-09T13:30:51.881Z</time>
      </trkpt>
      <trkpt lat="44.25356" lon="3.81005">
        <ele>653.021569</ele>
        <time>2020-03-09T13:30:53.287Z</time>
      </trkpt>
      <trkpt lat="44.25233" lon="3.81172">
        <ele>638.146217</ele>
        <time>2020-03-09T13:31:08.137Z</time>
      </trkpt>
      <trkpt lat="44.25221" lon="3.81181">
        <ele>637.021005</ele>
        <time>2020-03-09T13:31:09.302Z</time>
      </trkpt>
      <trkpt lat="44.25149" lon="3.81185">
        <ele>631.31157</ele>
        <time>2020-03-09T13:31:15.748Z</time>
      </trkpt>
      <trkpt lat="44.25087" lon="3.81213">
        <ele>628.771482</ele>
        <time>2020-03-09T13:31:21.939Z</time>
      </trkpt>
      <trkpt lat="44.25073" lon="3.81215">
        <ele>628.232238</ele>
        <time>2020-03-09T13:31:23.378Z</time>
      </trkpt>
      <trkpt lat="44.25058" lon="3.8121">
        <ele>627.642109</ele>
        <time>2020-03-09T13:31:24.985Z</time>
      </trkpt>
      <trkpt lat="44.25028" lon="3.81175">
        <ele>626.114077</ele>
        <time>2020-03-09T13:31:29.091Z</time>
      </trkpt>
      <trkpt lat="44.25026" lon="3.8117">
        <ele>625.957665</ele>
        <time>2020-03-09T13:31:29.455Z</time>
      </trkpt>
      <trkpt lat="44.25019" lon="3.81154">
        <ele>625.449025</ele>
        <time>2020-03-09T13:31:31.076Z</time>
      </trkpt>
      <trkpt lat="44.25008" lon="3.81102">
        <ele>624.222102</ele>
        <time>2020-03-09T13:31:35.438Z</time>
      </trkpt>
      <trkpt lat="44.24952" lon="3.81051">
        <ele>622.63325</ele>
        <time>2020-03-09T13:31:42.699Z</time>
      </trkpt>
      <trkpt lat="44.24945" lon="3.81053">
        <ele>622.474728</ele>
        <time>2020-03-09T13:31:44.392Z</time>
      </trkpt>
      <trkpt lat="44.24936" lon="3.81063">
        <ele>622.196786</ele>
        <time>2020-03-09T13:31:45.494Z</time>
      </trkpt>
      <trkpt lat="44.24903" lon="3.8113">
        <ele>620.813933</ele>
        <time>2020-03-09T13:31:51.901Z</time>
      </trkpt>
      <trkpt lat="44.24856" lon="3.81144">
        <ele>619.342458</ele>
        <time>2020-03-09T13:31:56.558Z</time>
      </trkpt>
      <trkpt lat="44.24761" lon="3.81243">
        <ele>615.204404</ele>
        <time>2020-03-09T13:32:08.252Z</time>
      </trkpt>
      <trkpt lat="44.24732" lon="3.81264">
        <ele>614.078818</ele>
        <time>2020-03-09T13:32:11.626Z</time>
      </trkpt>
      <trkpt lat="44.24715" lon="3.81293">
        <ele>613.305889</ele>
        <time>2020-03-09T13:32:14.410Z</time>
      </trkpt>
      <trkpt lat="44.24629" lon="3.81373">
        <ele>610.302845</ele>
        <time>2020-03-09T13:32:25.338Z</time>
      </trkpt>
      <trkpt lat="44.2459" lon="3.81403">
        <ele>609.019561</ele>
        <time>2020-03-09T13:32:30.059Z</time>
      </trkpt>
      <trkpt lat="44.24552" lon="3.81397">
        <ele>606.277354</ele>
        <time>2020-03-09T13:32:33.829Z</time>
      </trkpt>
      <trkpt lat="44.24543" lon="3.81422">
        <ele>604.773837</ele>
        <time>2020-03-09T13:32:35.696Z</time>
      </trkpt>
      <trkpt lat="44.24547" lon="3.81437">
        <ele>603.920741</ele>
        <time>2020-03-09T13:32:36.737Z</time>
      </trkpt>
      <trkpt lat="44.24588" lon="3.81527">
        <ele>598.1326</ele>
        <time>2020-03-09T13:32:43.466Z</time>
      </trkpt>
      <trkpt lat="44.24588" lon="3.81574">
        <ele>595.579214</ele>
        <time>2020-03-09T13:32:46.356Z</time>
      </trkpt>
      <trkpt lat="44.24583" lon="3.81601">
        <ele>593.055796</ele>
        <time>2020-03-09T13:32:48.060Z</time>
      </trkpt>
      <trkpt lat="44.24577" lon="3.81616">
        <ele>591.518948</ele>
        <time>2020-03-09T13:32:49.033Z</time>
      </trkpt>
      <trkpt lat="44.24556" lon="3.81632">
        <ele>588.24431</ele>
        <time>2020-03-09T13:32:51.104Z</time>
      </trkpt>
      <trkpt lat="44.24529" lon="3.81666">
        <ele>583.421803</ele>
        <time>2020-03-09T13:32:54.141Z</time>
      </trkpt>
      <trkpt lat="44.24487" lon="3.81738">
        <ele>574.523153</ele>
        <time>2020-03-09T13:32:59.709Z</time>
      </trkpt>
      <trkpt lat="44.2446" lon="3.81762">
        <ele>570.619145</ele>
        <time>2020-03-09T13:33:02.345Z</time>
      </trkpt>
      <trkpt lat="44.24427" lon="3.81765">
        <ele>567.437197</ele>
        <time>2020-03-09T13:33:05.088Z</time>
      </trkpt>
      <trkpt lat="44.24372" lon="3.8173">
        <ele>561.472709</ele>
        <time>2020-03-09T13:33:10.316Z</time>
      </trkpt>
      <trkpt lat="44.24291" lon="3.81754">
        <ele>553.981512</ele>
        <time>2020-03-09T13:33:17.676Z</time>
      </trkpt>
      <trkpt lat="44.2426" lon="3.81771">
        <ele>554.137004</ele>
        <time>2020-03-09T13:33:20.940Z</time>
      </trkpt>
      <trkpt lat="44.2417" lon="3.81726">
        <ele>554.581858</ele>
        <time>2020-03-09T13:33:38.761Z</time>
      </trkpt>
      <trkpt lat="44.24162" lon="3.81713">
        <ele>554.642121</ele>
        <time>2020-03-09T13:33:42.792Z</time>
      </trkpt>
      <trkpt lat="44.24157" lon="3.8166">
        <ele>554.99258</ele>
        <time>2020-03-09T13:33:56.780Z</time>
      </trkpt>
      <trkpt lat="44.24176" lon="3.81517">
        <ele>559.33527</ele>
        <time>2020-03-09T13:34:36.828Z</time>
      </trkpt>
      <trkpt lat="44.24167" lon="3.81482">
        <ele>560.420192</ele>
        <time>2020-03-09T13:34:45.575Z</time>
      </trkpt>
      <trkpt lat="44.24151" lon="3.81475">
        <ele>561.126646</ele>
        <time>2020-03-09T13:34:50.492Z</time>
      </trkpt>
      <trkpt lat="44.24142" lon="3.81481">
        <ele>561.533696</ele>
        <time>2020-03-09T13:34:52.955Z</time>
      </trkpt>
      <trkpt lat="44.24125" lon="3.81546">
        <ele>561.18253</ele>
        <time>2020-03-09T13:35:01.610Z</time>
      </trkpt>
      <trkpt lat="44.24085" lon="3.81592">
        <ele>559.474816</ele>
        <time>2020-03-09T13:35:07.087Z</time>
      </trkpt>
      <trkpt lat="44.24068" lon="3.81637">
        <ele>558.248399</ele>
        <time>2020-03-09T13:35:10.618Z</time>
      </trkpt>
      <trkpt lat="44.23982" lon="3.81708">
        <ele>553.746868</ele>
        <time>2020-03-09T13:35:19.713Z</time>
      </trkpt>
      <trkpt lat="44.23902" lon="3.81753">
        <ele>548.449791</ele>
        <time>2020-03-09T13:35:27.398Z</time>
      </trkpt>
      <trkpt lat="44.23886" lon="3.81757">
        <ele>547.43437</ele>
        <time>2020-03-09T13:35:28.892Z</time>
      </trkpt>
      <trkpt lat="44.23868" lon="3.81756">
        <ele>546.311176</ele>
        <time>2020-03-09T13:35:30.549Z</time>
      </trkpt>
      <trkpt lat="44.23844" lon="3.8174">
        <ele>544.834201</ele>
        <time>2020-03-09T13:35:33.087Z</time>
      </trkpt>
      <trkpt lat="44.23762" lon="3.81639">
        <ele>540.716521</ele>
        <time>2020-03-09T13:35:43.959Z</time>
      </trkpt>
      <trkpt lat="44.23743" lon="3.81637">
        <ele>540.032793</ele>
        <time>2020-03-09T13:35:45.803Z</time>
      </trkpt>
      <trkpt lat="44.23732" lon="3.81644">
        <ele>539.555037</ele>
        <time>2020-03-09T13:35:47.079Z</time>
      </trkpt>
      <trkpt lat="44.23712" lon="3.81672">
        <ele>538.493094</ele>
        <time>2020-03-09T13:35:50.063Z</time>
      </trkpt>
      <trkpt lat="44.23692" lon="3.81689">
        <ele>537.698503</ele>
        <time>2020-03-09T13:35:52.393Z</time>
      </trkpt>
      <trkpt lat="44.23663" lon="3.81691">
        <ele>536.753931</ele>
        <time>2020-03-09T13:35:55.303Z</time>
      </trkpt>
      <trkpt lat="44.23648" lon="3.81677">
        <ele>536.168874</ele>
        <time>2020-03-09T13:35:57.125Z</time>
      </trkpt>
      <trkpt lat="44.23633" lon="3.8165">
        <ele>535.355129</ele>
        <time>2020-03-09T13:35:59.606Z</time>
      </trkpt>
      <trkpt lat="44.23632" lon="3.81609">
        <ele>534.364615</ele>
        <time>2020-03-09T13:36:02.740Z</time>
      </trkpt>
      <trkpt lat="44.23627" lon="3.81595">
        <ele>534.006925</ele>
        <time>2020-03-09T13:36:03.813Z</time>
      </trkpt>
      <trkpt lat="44.23616" lon="3.81588">
        <ele>533.60701</ele>
        <time>2020-03-09T13:36:05.222Z</time>
      </trkpt>
      <trkpt lat="44.2358" lon="3.81582">
        <ele>532.373435</ele>
        <time>2020-03-09T13:36:08.842Z</time>
      </trkpt>
      <trkpt lat="44.23543" lon="3.81563">
        <ele>530.222357</ele>
        <time>2020-03-09T13:36:12.654Z</time>
      </trkpt>
      <trkpt lat="44.23473" lon="3.81549">
        <ele>526.402555</ele>
        <time>2020-03-09T13:36:19.250Z</time>
      </trkpt>
      <trkpt lat="44.23397" lon="3.81588">
        <ele>521.312169</ele>
        <time>2020-03-09T13:36:26.603Z</time>
      </trkpt>
      <trkpt lat="44.23345" lon="3.81601">
        <ele>515.344483</ele>
        <time>2020-03-09T13:36:31.350Z</time>
      </trkpt>
      <trkpt lat="44.2333" lon="3.81615">
        <ele>513.412919</ele>
        <time>2020-03-09T13:36:32.846Z</time>
      </trkpt>
      <trkpt lat="44.23273" lon="3.81709">
        <ele>503.543679</ele>
        <time>2020-03-09T13:36:40.299Z</time>
      </trkpt>
      <trkpt lat="44.23251" lon="3.81726">
        <ele>500.204337</ele>
        <time>2020-03-09T13:36:42.367Z</time>
      </trkpt>
      <trkpt lat="44.23232" lon="3.81732">
        <ele>497.267951</ele>
        <time>2020-03-09T13:36:44.031Z</time>
      </trkpt>
      <trkpt lat="44.23179" lon="3.81739">
        <ele>489.530859</ele>
        <time>2020-03-09T13:36:48.418Z</time>
      </trkpt>
      <trkpt lat="44.23146" lon="3.81737">
        <ele>484.768242</ele>
        <time>2020-03-09T13:36:51.116Z</time>
      </trkpt>
      <trkpt lat="44.23041" lon="3.81699">
        <ele>472.184748</ele>
        <time>2020-03-09T13:37:00.190Z</time>
      </trkpt>
      <trkpt lat="44.23034" lon="3.81694">
        <ele>471.513014</ele>
        <time>2020-03-09T13:37:00.860Z</time>
      </trkpt>
      <trkpt lat="44.23031" lon="3.81685">
        <ele>470.946978</ele>
        <time>2020-03-09T13:37:01.861Z</time>
      </trkpt>
      <trkpt lat="44.23031" lon="3.81645">
        <ele>468.617255</ele>
        <time>2020-03-09T13:37:04.345Z</time>
      </trkpt>
      <trkpt lat="44.23119" lon="3.81513">
        <ele>459.686495</ele>
        <time>2020-03-09T13:37:16.782Z</time>
      </trkpt>
      <trkpt lat="44.23155" lon="3.8144">
        <ele>456.959365</ele>
        <time>2020-03-09T13:37:23.337Z</time>
      </trkpt>
      <trkpt lat="44.23181" lon="3.81355">
        <ele>454.131767</ele>
        <time>2020-03-09T13:37:29.560Z</time>
      </trkpt>
      <trkpt lat="44.23219" lon="3.81088">
        <ele>445.047737</ele>
        <time>2020-03-09T13:37:47.623Z</time>
      </trkpt>
      <trkpt lat="44.23237" lon="3.81039">
        <ele>445.961481</ele>
        <time>2020-03-09T13:37:54.166Z</time>
      </trkpt>
      <trkpt lat="44.23227" lon="3.81001">
        <ele>446.653415</ele>
        <time>2020-03-09T13:38:01.073Z</time>
      </trkpt>
      <trkpt lat="44.2322" lon="3.80943">
        <ele>447.637728</ele>
        <time>2020-03-09T13:38:13.153Z</time>
      </trkpt>
      <trkpt lat="44.2322" lon="3.80918">
        <ele>448.051317</ele>
        <time>2020-03-09T13:38:18.621Z</time>
      </trkpt>
      <trkpt lat="44.23218" lon="3.809">
        <ele>448.366355</ele>
        <time>2020-03-09T13:38:24.082Z</time>
      </trkpt>
      <trkpt lat="44.232" lon="3.80883">
        <ele>448.879132</ele>
        <time>2020-03-09T13:38:31.895Z</time>
      </trkpt>
      <trkpt lat="44.23192" lon="3.80884">
        <ele>449.06655</ele>
        <time>2020-03-09T13:38:36.032Z</time>
      </trkpt>
      <trkpt lat="44.23183" lon="3.80891">
        <ele>449.709795</ele>
        <time>2020-03-09T13:38:39.935Z</time>
      </trkpt>
      <trkpt lat="44.23176" lon="3.80906">
        <ele>450.52445</ele>
        <time>2020-03-09T13:38:44.867Z</time>
      </trkpt>
      <trkpt lat="44.23155" lon="3.80976">
        <ele>453.929611</ele>
        <time>2020-03-09T13:39:09.400Z</time>
      </trkpt>
      <trkpt lat="44.23117" lon="3.81001">
        <ele>456.596746</ele>
        <time>2020-03-09T13:39:28.815Z</time>
      </trkpt>
      <trkpt lat="44.23052" lon="3.81092">
        <ele>461.160847</ele>
        <time>2020-03-09T13:40:01.455Z</time>
      </trkpt>
      <trkpt lat="44.23046" lon="3.81192">
        <ele>462.939215</ele>
        <time>2020-03-09T13:40:19.839Z</time>
      </trkpt>
      <trkpt lat="44.23032" lon="3.81199">
        <ele>463.304135</ele>
        <time>2020-03-09T13:40:22.858Z</time>
      </trkpt>
      <trkpt lat="44.22982" lon="3.81193">
        <ele>464.548443</ele>
        <time>2020-03-09T13:40:32.304Z</time>
      </trkpt>
      <trkpt lat="44.2297" lon="3.81209">
        <ele>464.8198</ele>
        <time>2020-03-09T13:40:35.135Z</time>
      </trkpt>
      <trkpt lat="44.22963" lon="3.81271">
        <ele>464.817006</ele>
        <time>2020-03-09T13:40:42.366Z</time>
      </trkpt>
      <trkpt lat="44.22952" lon="3.81286">
        <ele>464.8161</ele>
        <time>2020-03-09T13:40:44.508Z</time>
      </trkpt>
      <trkpt lat="44.22931" lon="3.81309">
        <ele>464.814421</ele>
        <time>2020-03-09T13:40:48.145Z</time>
      </trkpt>
      <trkpt lat="44.22908" lon="3.8132">
        <ele>464.812921</ele>
        <time>2020-03-09T13:40:51.475Z</time>
      </trkpt>
      <trkpt lat="44.22788" lon="3.81331">
        <ele>464.746753</ele>
        <time>2020-03-09T13:41:08.029Z</time>
      </trkpt>
      <trkpt lat="44.22774" lon="3.81326">
        <ele>464.730499</ele>
        <time>2020-03-09T13:41:10.519Z</time>
      </trkpt>
      <trkpt lat="44.22732" lon="3.81292">
        <ele>464.677017</ele>
        <time>2020-03-09T13:41:18.261Z</time>
      </trkpt>
      <trkpt lat="44.22661" lon="3.81284">
        <ele>464.622132</ele>
        <time>2020-03-09T13:41:27.741Z</time>
      </trkpt>
      <trkpt lat="44.22626" lon="3.81268">
        <ele>464.656623</ele>
        <time>2020-03-09T13:41:33.192Z</time>
      </trkpt>
      <trkpt lat="44.22558" lon="3.81255">
        <ele>464.721126</ele>
        <time>2020-03-09T13:41:43.867Z</time>
      </trkpt>
      <trkpt lat="44.22532" lon="3.81227">
        <ele>464.752262</ele>
        <time>2020-03-09T13:41:49.417Z</time>
      </trkpt>
      <trkpt lat="44.22522" lon="3.81209">
        <ele>464.766997</ele>
        <time>2020-03-09T13:41:51.121Z</time>
      </trkpt>
      <trkpt lat="44.22521" lon="3.81192">
        <ele>464.778495</ele>
        <time>2020-03-09T13:41:54.912Z</time>
      </trkpt>
      <trkpt lat="44.22519" lon="3.81162">
        <ele>464.819611</ele>
        <time>2020-03-09T13:41:57.488Z</time>
      </trkpt>
      <trkpt lat="44.22498" lon="3.8109">
        <ele>464.928917</ele>
        <time>2020-03-09T13:42:08.072Z</time>
      </trkpt>
      <trkpt lat="44.225" lon="3.81043">
        <ele>464.995016</ele>
        <time>2020-03-09T13:42:13.390Z</time>
      </trkpt>
      <trkpt lat="44.22446" lon="3.81015">
        <ele>465.108922</ele>
        <time>2020-03-09T13:42:21.554Z</time>
      </trkpt>
      <trkpt lat="44.22437" lon="3.81005">
        <ele>465.131863</ele>
        <time>2020-03-09T13:42:23.145Z</time>
      </trkpt>
      <trkpt lat="44.22416" lon="3.80954">
        <ele>465.527401</ele>
        <time>2020-03-09T13:42:28.929Z</time>
      </trkpt>
      <trkpt lat="44.22352" lon="3.80917">
        <ele>466.203996</ele>
        <time>2020-03-09T13:42:38.837Z</time>
      </trkpt>
      <trkpt lat="44.22323" lon="3.80892">
        <ele>466.540171</ele>
        <time>2020-03-09T13:42:45.418Z</time>
      </trkpt>
      <trkpt lat="44.2229" lon="3.80879">
        <ele>466.869527</ele>
        <time>2020-03-09T13:42:53.751Z</time>
      </trkpt>
      <trkpt lat="44.22242" lon="3.80847">
        <ele>470.327926</ele>
        <time>2020-03-09T13:43:11.358Z</time>
      </trkpt>
      <trkpt lat="44.22223" lon="3.80822">
        <ele>472.161184</ele>
        <time>2020-03-09T13:43:22.516Z</time>
      </trkpt>
      <trkpt lat="44.22214" lon="3.80791">
        <ele>473.759666</ele>
        <time>2020-03-09T13:43:33.495Z</time>
      </trkpt>
      <trkpt lat="44.22208" lon="3.80786">
        <ele>474.235521</ele>
        <time>2020-03-09T13:43:36.763Z</time>
      </trkpt>
      <trkpt lat="44.22179" lon="3.80786">
        <ele>476.165893</ele>
        <time>2020-03-09T13:43:50.851Z</time>
      </trkpt>
      <trkpt lat="44.22141" lon="3.80751">
        <ele>479.256228</ele>
        <time>2020-03-09T13:44:14.010Z</time>
      </trkpt>
      <trkpt lat="44.22127" lon="3.80736">
        <ele>480.370992</ele>
        <time>2020-03-09T13:44:23.123Z</time>
      </trkpt>
      <trkpt lat="44.22117" lon="3.80677">
        <ele>483.095334</ele>
        <time>2020-03-09T13:44:45.223Z</time>
      </trkpt>
      <trkpt lat="44.22103" lon="3.80654">
        <ele>484.47209</ele>
        <time>2020-03-09T13:44:55.642Z</time>
      </trkpt>
      <trkpt lat="44.22089" lon="3.80649">
        <ele>485.360418</ele>
        <time>2020-03-09T13:45:01.801Z</time>
      </trkpt>
      <trkpt lat="44.22076" lon="3.80653">
        <ele>486.210948</ele>
        <time>2020-03-09T13:45:07.369Z</time>
      </trkpt>
      <trkpt lat="44.22064" lon="3.80668">
        <ele>487.219031</ele>
        <time>2020-03-09T13:45:13.368Z</time>
      </trkpt>
      <trkpt lat="44.22047" lon="3.80757">
        <ele>490.266143</ele>
        <time>2020-03-09T13:45:31.205Z</time>
      </trkpt>
      <trkpt lat="44.22029" lon="3.8078">
        <ele>490.055906</ele>
        <time>2020-03-09T13:45:35.491Z</time>
      </trkpt>
      <trkpt lat="44.22027" lon="3.80793">
        <ele>489.974188</ele>
        <time>2020-03-09T13:45:36.852Z</time>
      </trkpt>
      <trkpt lat="44.22031" lon="3.80852">
        <ele>489.609193</ele>
        <time>2020-03-09T13:45:41.906Z</time>
      </trkpt>
      <trkpt lat="44.22029" lon="3.80867">
        <ele>489.514457</ele>
        <time>2020-03-09T13:45:43.100Z</time>
      </trkpt>
      <trkpt lat="44.21993" lon="3.80913">
        <ele>489.103549</ele>
        <time>2020-03-09T13:45:48.291Z</time>
      </trkpt>
      <trkpt lat="44.21924" lon="3.80937">
        <ele>488.007225</ele>
        <time>2020-03-09T13:45:55.699Z</time>
      </trkpt>
      <trkpt lat="44.21907" lon="3.80939">
        <ele>487.650175</ele>
        <time>2020-03-09T13:45:57.488Z</time>
      </trkpt>
      <trkpt lat="44.21902" lon="3.8094">
        <ele>487.545682</ele>
        <time>2020-03-09T13:45:58.085Z</time>
      </trkpt>
      <trkpt lat="44.21874" lon="3.80941">
        <ele>486.993123</ele>
        <time>2020-03-09T13:46:01.093Z</time>
      </trkpt>
      <trkpt lat="44.21855" lon="3.80924">
        <ele>486.537703</ele>
        <time>2020-03-09T13:46:03.592Z</time>
      </trkpt>
      <trkpt lat="44.2184" lon="3.80897">
        <ele>486.052924</ele>
        <time>2020-03-09T13:46:06.146Z</time>
      </trkpt>
      <trkpt lat="44.21834" lon="3.80893">
        <ele>485.919414</ele>
        <time>2020-03-09T13:46:06.911Z</time>
      </trkpt>
      <trkpt lat="44.21831" lon="3.80893">
        <ele>485.851089</ele>
        <time>2020-03-09T13:46:07.607Z</time>
      </trkpt>
      <trkpt lat="44.21828" lon="3.80894">
        <ele>485.79075</ele>
        <time>2020-03-09T13:46:07.905Z</time>
      </trkpt>
      <trkpt lat="44.21823" lon="3.80898">
        <ele>485.681337</ele>
        <time>2020-03-09T13:46:08.475Z</time>
      </trkpt>
      <trkpt lat="44.21818" lon="3.80899">
        <ele>485.576133</ele>
        <time>2020-03-09T13:46:09.006Z</time>
      </trkpt>
      <trkpt lat="44.21812" lon="3.80895">
        <ele>485.447483</ele>
        <time>2020-03-09T13:46:09.766Z</time>
      </trkpt>
      <trkpt lat="44.21796" lon="3.80883">
        <ele>485.480026</ele>
        <time>2020-03-09T13:46:12.085Z</time>
      </trkpt>
      <trkpt lat="44.21788" lon="3.80872">
        <ele>485.760402</ele>
        <time>2020-03-09T13:46:13.271Z</time>
      </trkpt>
      <trkpt lat="44.21775" lon="3.80854">
        <ele>486.218135</ele>
        <time>2020-03-09T13:46:15.649Z</time>
      </trkpt>
      <trkpt lat="44.21764" lon="3.80842">
        <ele>486.574994</ele>
        <time>2020-03-09T13:46:18.322Z</time>
      </trkpt>
      <trkpt lat="44.21757" lon="3.80837">
        <ele>486.763151</ele>
        <time>2020-03-09T13:46:20.146Z</time>
      </trkpt>
      <trkpt lat="44.21747" lon="3.80835">
        <ele>487.021501</ele>
        <time>2020-03-09T13:46:22.479Z</time>
      </trkpt>
      <trkpt lat="44.21724" lon="3.80837">
        <ele>487.619437</ele>
        <time>2020-03-09T13:46:28.268Z</time>
      </trkpt>
      <trkpt lat="44.21687" lon="3.80817">
        <ele>488.609333</ele>
        <time>2020-03-09T13:46:38.532Z</time>
      </trkpt>
      <trkpt lat="44.21636" lon="3.80785">
        <ele>490.469588</ele>
        <time>2020-03-09T13:46:59.067Z</time>
      </trkpt>
      <trkpt lat="44.21606" lon="3.80767">
        <ele>492.935663</ele>
        <time>2020-03-09T13:47:13.485Z</time>
      </trkpt>
      <trkpt lat="44.21596" lon="3.80751">
        <ele>494.112465</ele>
        <time>2020-03-09T13:47:22.000Z</time>
      </trkpt>
      <trkpt lat="44.21592" lon="3.80728">
        <ele>495.352998</ele>
        <time>2020-03-09T13:47:28.616Z</time>
      </trkpt>
      <trkpt lat="44.21593" lon="3.8072">
        <ele>495.815721</ele>
        <time>2020-03-09T13:47:30.728Z</time>
      </trkpt>
      <trkpt lat="44.21609" lon="3.807">
        <ele>497.420141</ele>
        <time>2020-03-09T13:47:42.933Z</time>
      </trkpt>
      <trkpt lat="44.21612" lon="3.80675">
        <ele>498.778779</ele>
        <time>2020-03-09T13:47:49.753Z</time>
      </trkpt>
      <trkpt lat="44.21606" lon="3.80664">
        <ele>499.53028</ele>
        <time>2020-03-09T13:47:57.308Z</time>
      </trkpt>
      <trkpt lat="44.21598" lon="3.80658">
        <ele>500.244101</ele>
        <time>2020-03-09T13:48:01.736Z</time>
      </trkpt>
      <trkpt lat="44.21556" lon="3.80675">
        <ele>503.462978</ele>
        <time>2020-03-09T13:48:22.833Z</time>
      </trkpt>
      <trkpt lat="44.21524" lon="3.80704">
        <ele>504.817573</ele>
        <time>2020-03-09T13:48:37.419Z</time>
      </trkpt>
      <trkpt lat="44.21487" lon="3.80699">
        <ele>506.113264</ele>
        <time>2020-03-09T13:48:49.896Z</time>
      </trkpt>
      <trkpt lat="44.21441" lon="3.80722">
        <ele>507.817132</ele>
        <time>2020-03-09T13:49:03.108Z</time>
      </trkpt>
      <trkpt lat="44.21435" lon="3.80729">
        <ele>508.098984</ele>
        <time>2020-03-09T13:49:05.634Z</time>
      </trkpt>
      <trkpt lat="44.2142" lon="3.80753">
        <ele>508.890653</ele>
        <time>2020-03-09T13:49:08.400Z</time>
      </trkpt>
      <trkpt lat="44.21403" lon="3.80805">
        <ele>509.554508</ele>
        <time>2020-03-09T13:49:14.651Z</time>
      </trkpt>
      <trkpt lat="44.21389" lon="3.80816">
        <ele>509.391886</ele>
        <time>2020-03-09T13:49:17.512Z</time>
      </trkpt>
      <trkpt lat="44.21339" lon="3.80818">
        <ele>508.874135</ele>
        <time>2020-03-09T13:49:23.982Z</time>
      </trkpt>
      <trkpt lat="44.2131" lon="3.80833">
        <ele>508.55536</ele>
        <time>2020-03-09T13:49:27.915Z</time>
      </trkpt>
      <trkpt lat="44.21265" lon="3.80898">
        <ele>507.881805</ele>
        <time>2020-03-09T13:49:34.933Z</time>
      </trkpt>
      <trkpt lat="44.21224" lon="3.80913">
        <ele>506.379338</ele>
        <time>2020-03-09T13:49:39.430Z</time>
      </trkpt>
      <trkpt lat="44.2122" lon="3.80924">
        <ele>506.072937</ele>
        <time>2020-03-09T13:49:40.222Z</time>
      </trkpt>
      <trkpt lat="44.21228" lon="3.80959">
        <ele>505.112907</ele>
        <time>2020-03-09T13:49:43.101Z</time>
      </trkpt>
      <trkpt lat="44.2123" lon="3.80964">
        <ele>504.955113</ele>
        <time>2020-03-09T13:49:43.496Z</time>
      </trkpt>
      <trkpt lat="44.21238" lon="3.80964">
        <ele>504.66535</ele>
        <time>2020-03-09T13:49:44.259Z</time>
      </trkpt>
      <trkpt lat="44.2124" lon="3.80979">
        <ele>504.274808</ele>
        <time>2020-03-09T13:49:45.416Z</time>
      </trkpt>
      <trkpt lat="44.21235" lon="3.80994">
        <ele>503.824862</ele>
        <time>2020-03-09T13:49:46.774Z</time>
      </trkpt>
      <trkpt lat="44.21164" lon="3.8102">
        <ele>501.120395</ele>
        <time>2020-03-09T13:49:53.793Z</time>
      </trkpt>
      <trkpt lat="44.21147" lon="3.811">
        <ele>498.290397</ele>
        <time>2020-03-09T13:49:59.231Z</time>
      </trkpt>
      <trkpt lat="44.21135" lon="3.81118">
        <ele>497.467385</ele>
        <time>2020-03-09T13:50:00.857Z</time>
      </trkpt>
      <trkpt lat="44.21106" lon="3.81136">
        <ele>495.966274</ele>
        <time>2020-03-09T13:50:03.875Z</time>
      </trkpt>
      <trkpt lat="44.21043" lon="3.81147">
        <ele>492.928972</ele>
        <time>2020-03-09T13:50:10.134Z</time>
      </trkpt>
      <trkpt lat="44.21028" lon="3.81155">
        <ele>492.741599</ele>
        <time>2020-03-09T13:50:11.698Z</time>
      </trkpt>
      <trkpt lat="44.20988" lon="3.81254">
        <ele>492.067732</ele>
        <time>2020-03-09T13:50:20.517Z</time>
      </trkpt>
      <trkpt lat="44.20975" lon="3.81271">
        <ele>491.915419</ele>
        <time>2020-03-09T13:50:23.059Z</time>
      </trkpt>
      <trkpt lat="44.20966" lon="3.81269">
        <ele>491.839695</ele>
        <time>2020-03-09T13:50:24.377Z</time>
      </trkpt>
      <trkpt lat="44.20954" lon="3.81246">
        <ele>491.673835</ele>
        <time>2020-03-09T13:50:28.286Z</time>
      </trkpt>
      <trkpt lat="44.20932" lon="3.81154">
        <ele>491.879911</ele>
        <time>2020-03-09T13:50:44.857Z</time>
      </trkpt>
      <trkpt lat="44.2092" lon="3.81129">
        <ele>492.219351</ele>
        <time>2020-03-09T13:50:50.075Z</time>
      </trkpt>
      <trkpt lat="44.20907" lon="3.8112">
        <ele>492.445325</ele>
        <time>2020-03-09T13:50:53.536Z</time>
      </trkpt>
      <trkpt lat="44.20893" lon="3.81126">
        <ele>492.667397</ele>
        <time>2020-03-09T13:50:56.895Z</time>
      </trkpt>
      <trkpt lat="44.20882" lon="3.81171">
        <ele>493.196491</ele>
        <time>2020-03-09T13:51:04.294Z</time>
      </trkpt>
      <trkpt lat="44.20849" lon="3.81229">
        <ele>494.019557</ele>
        <time>2020-03-09T13:51:14.796Z</time>
      </trkpt>
      <trkpt lat="44.20817" lon="3.81366">
        <ele>493.932556</ele>
        <time>2020-03-09T13:51:31.415Z</time>
      </trkpt>
      <trkpt lat="44.20808" lon="3.81387">
        <ele>493.890688</ele>
        <time>2020-03-09T13:51:33.579Z</time>
      </trkpt>
      <trkpt lat="44.20766" lon="3.81417">
        <ele>493.775979</ele>
        <time>2020-03-09T13:51:39.449Z</time>
      </trkpt>
      <trkpt lat="44.20667" lon="3.81505">
        <ele>491.617217</ele>
        <time>2020-03-09T13:51:53.276Z</time>
      </trkpt>
      <trkpt lat="44.20651" lon="3.81529">
        <ele>491.092129</ele>
        <time>2020-03-09T13:51:55.890Z</time>
      </trkpt>
      <trkpt lat="44.20647" lon="3.8155">
        <ele>490.760272</ele>
        <time>2020-03-09T13:51:57.467Z</time>
      </trkpt>
      <trkpt lat="44.20647" lon="3.81627">
        <ele>489.243594</ele>
        <time>2020-03-09T13:52:03.004Z</time>
      </trkpt>
      <trkpt lat="44.20628" lon="3.81681">
        <ele>487.121532</ele>
        <time>2020-03-09T13:52:07.169Z</time>
      </trkpt>
      <trkpt lat="44.20623" lon="3.81729">
        <ele>485.431168</ele>
        <time>2020-03-09T13:52:10.439Z</time>
      </trkpt>
      <trkpt lat="44.20606" lon="3.81775">
        <ele>483.61279</ele>
        <time>2020-03-09T13:52:13.912Z</time>
      </trkpt>
      <trkpt lat="44.20562" lon="3.8183">
        <ele>480.741883</ele>
        <time>2020-03-09T13:52:19.354Z</time>
      </trkpt>
      <trkpt lat="44.20554" lon="3.81852">
        <ele>479.851041</ele>
        <time>2020-03-09T13:52:21.019Z</time>
      </trkpt>
      <trkpt lat="44.20536" lon="3.81978">
        <ele>475.23523</ele>
        <time>2020-03-09T13:52:29.702Z</time>
      </trkpt>
      <trkpt lat="44.20483" lon="3.82048">
        <ele>471.74138</ele>
        <time>2020-03-09T13:52:36.638Z</time>
      </trkpt>
      <trkpt lat="44.20465" lon="3.82092">
        <ele>470.565174</ele>
        <time>2020-03-09T13:52:40.143Z</time>
      </trkpt>
      <trkpt lat="44.20444" lon="3.82152">
        <ele>469.015805</ele>
        <time>2020-03-09T13:52:44.835Z</time>
      </trkpt>
      <trkpt lat="44.20413" lon="3.82189">
        <ele>467.659311</ele>
        <time>2020-03-09T13:52:49.144Z</time>
      </trkpt>
      <trkpt lat="44.2036" lon="3.82233">
        <ele>466.015464</ele>
        <time>2020-03-09T13:52:55.768Z</time>
      </trkpt>
      <trkpt lat="44.20341" lon="3.8226">
        <ele>465.782565</ele>
        <time>2020-03-09T13:52:58.785Z</time>
      </trkpt>
      <trkpt lat="44.20329" lon="3.82306">
        <ele>465.478139</ele>
        <time>2020-03-09T13:53:03.035Z</time>
      </trkpt>
      <trkpt lat="44.20327" lon="3.82349">
        <ele>465.210298</ele>
        <time>2020-03-09T13:53:07.290Z</time>
      </trkpt>
      <trkpt lat="44.20308" lon="3.82389">
        <ele>464.913503</ele>
        <time>2020-03-09T13:53:12.438Z</time>
      </trkpt>
      <trkpt lat="44.20289" lon="3.82412">
        <ele>464.696176</ele>
        <time>2020-03-09T13:53:16.403Z</time>
      </trkpt>
      <trkpt lat="44.20273" lon="3.82469">
        <ele>463.536707</ele>
        <time>2020-03-09T13:53:22.563Z</time>
      </trkpt>
      <trkpt lat="44.20274" lon="3.82491">
        <ele>463.004505</ele>
        <time>2020-03-09T13:53:24.514Z</time>
      </trkpt>
      <trkpt lat="44.20294" lon="3.82547">
        <ele>461.487886</ele>
        <time>2020-03-09T13:53:29.303Z</time>
      </trkpt>
      <trkpt lat="44.20319" lon="3.82579">
        <ele>460.340424</ele>
        <time>2020-03-09T13:53:32.593Z</time>
      </trkpt>
      <trkpt lat="44.20325" lon="3.82605">
        <ele>459.687745</ele>
        <time>2020-03-09T13:53:34.393Z</time>
      </trkpt>
      <trkpt lat="44.20321" lon="3.82625">
        <ele>459.173988</ele>
        <time>2020-03-09T13:53:35.817Z</time>
      </trkpt>
      <trkpt lat="44.20297" lon="3.82663">
        <ele>456.860657</ele>
        <time>2020-03-09T13:53:39.131Z</time>
      </trkpt>
      <trkpt lat="44.20279" lon="3.82737">
        <ele>451.241833</ele>
        <time>2020-03-09T13:53:44.086Z</time>
      </trkpt>
      <trkpt lat="44.20287" lon="3.82776">
        <ele>448.32697</ele>
        <time>2020-03-09T13:53:46.598Z</time>
      </trkpt>
      <trkpt lat="44.20329" lon="3.82841">
        <ele>442.013803</ele>
        <time>2020-03-09T13:53:51.853Z</time>
      </trkpt>
      <trkpt lat="44.2037" lon="3.82964">
        <ele>432.928104</ele>
        <time>2020-03-09T13:54:00.195Z</time>
      </trkpt>
      <trkpt lat="44.2037" lon="3.82974">
        <ele>432.277334</ele>
        <time>2020-03-09T13:54:00.777Z</time>
      </trkpt>
      <trkpt lat="44.2037" lon="3.82985">
        <ele>431.573917</ele>
        <time>2020-03-09T13:54:01.435Z</time>
      </trkpt>
      <trkpt lat="44.20361" lon="3.82995">
        <ele>430.485041</ele>
        <time>2020-03-09T13:54:02.554Z</time>
      </trkpt>
      <trkpt lat="44.20322" lon="3.82986">
        <ele>426.907782</ele>
        <time>2020-03-09T13:54:06.024Z</time>
      </trkpt>
      <trkpt lat="44.2024" lon="3.83004">
        <ele>422.646507</ele>
        <time>2020-03-09T13:54:13.766Z</time>
      </trkpt>
      <trkpt lat="44.20189" lon="3.82995">
        <ele>421.360185</ele>
        <time>2020-03-09T13:54:20.408Z</time>
      </trkpt>
      <trkpt lat="44.20109" lon="3.8301">
        <ele>419.219095</ele>
        <time>2020-03-09T13:54:31.214Z</time>
      </trkpt>
      <trkpt lat="44.20091" lon="3.83091">
        <ele>415.951522</ele>
        <time>2020-03-09T13:54:37.309Z</time>
      </trkpt>
      <trkpt lat="44.20089" lon="3.83134">
        <ele>414.261928</ele>
        <time>2020-03-09T13:54:40.236Z</time>
      </trkpt>
      <trkpt lat="44.20049" lon="3.83218">
        <ele>410.354926</ele>
        <time>2020-03-09T13:54:46.760Z</time>
      </trkpt>
      <trkpt lat="44.20061" lon="3.8326">
        <ele>407.764401</ele>
        <time>2020-03-09T13:54:49.572Z</time>
      </trkpt>
      <trkpt lat="44.20056" lon="3.83288">
        <ele>405.694973</ele>
        <time>2020-03-09T13:54:51.405Z</time>
      </trkpt>
      <trkpt lat="44.20025" lon="3.83398">
        <ele>397.480269</ele>
        <time>2020-03-09T13:54:58.629Z</time>
      </trkpt>
      <trkpt lat="44.2001" lon="3.83414">
        <ele>395.696438</ele>
        <time>2020-03-09T13:55:00.202Z</time>
      </trkpt>
      <trkpt lat="44.19993" lon="3.83405">
        <ele>393.894497</ele>
        <time>2020-03-09T13:55:01.796Z</time>
      </trkpt>
      <trkpt lat="44.19962" lon="3.83358">
        <ele>390.035233</ele>
        <time>2020-03-09T13:55:05.780Z</time>
      </trkpt>
      <trkpt lat="44.19934" lon="3.83337">
        <ele>387.555416</ele>
        <time>2020-03-09T13:55:08.636Z</time>
      </trkpt>
      <trkpt lat="44.19918" lon="3.83333">
        <ele>386.361764</ele>
        <time>2020-03-09T13:55:10.011Z</time>
      </trkpt>
      <trkpt lat="44.19907" lon="3.83339">
        <ele>385.403993</ele>
        <time>2020-03-09T13:55:11.118Z</time>
      </trkpt>
      <trkpt lat="44.19899" lon="3.83354">
        <ele>384.372712</ele>
        <time>2020-03-09T13:55:12.301Z</time>
      </trkpt>
      <trkpt lat="44.19891" lon="3.83423">
        <ele>380.542109</ele>
        <time>2020-03-09T13:55:16.742Z</time>
      </trkpt>
      <trkpt lat="44.19882" lon="3.8344">
        <ele>379.394825</ele>
        <time>2020-03-09T13:55:18.097Z</time>
      </trkpt>
      <trkpt lat="44.19863" lon="3.83447">
        <ele>378.146754</ele>
        <time>2020-03-09T13:55:19.892Z</time>
      </trkpt>
      <trkpt lat="44.19849" lon="3.83443">
        <ele>377.638568</ele>
        <time>2020-03-09T13:55:21.188Z</time>
      </trkpt>
      <trkpt lat="44.1977" lon="3.8336">
        <ele>373.988381</ele>
        <time>2020-03-09T13:55:31.213Z</time>
      </trkpt>
      <trkpt lat="44.19751" lon="3.83358">
        <ele>373.307182</ele>
        <time>2020-03-09T13:55:33.146Z</time>
      </trkpt>
      <trkpt lat="44.19742" lon="3.83367">
        <ele>372.885216</ele>
        <time>2020-03-09T13:55:34.334Z</time>
      </trkpt>
      <trkpt lat="44.19736" lon="3.83385">
        <ele>372.379031</ele>
        <time>2020-03-09T13:55:35.761Z</time>
      </trkpt>
      <trkpt lat="44.19734" lon="3.83437">
        <ele>371.384639</ele>
        <time>2020-03-09T13:55:39.648Z</time>
      </trkpt>
      <trkpt lat="44.1973" lon="3.83451">
        <ele>371.186348</ele>
        <time>2020-03-09T13:55:40.784Z</time>
      </trkpt>
      <trkpt lat="44.19721" lon="3.8346">
        <ele>370.984896</ele>
        <time>2020-03-09T13:55:41.956Z</time>
      </trkpt>
      <trkpt lat="44.19636" lon="3.83467">
        <ele>369.429238</ele>
        <time>2020-03-09T13:55:52.228Z</time>
      </trkpt>
      <trkpt lat="44.1961" lon="3.83481">
        <ele>368.90163</ele>
        <time>2020-03-09T13:55:55.628Z</time>
      </trkpt>
      <trkpt lat="44.19598" lon="3.8351">
        <ele>368.459138</ele>
        <time>2020-03-09T13:55:58.272Z</time>
      </trkpt>
      <trkpt lat="44.19588" lon="3.83647">
        <ele>364.114931</ele>
        <time>2020-03-09T13:56:08.277Z</time>
      </trkpt>
      <trkpt lat="44.19582" lon="3.83674">
        <ele>363.209896</ele>
        <time>2020-03-09T13:56:10.306Z</time>
      </trkpt>
      <trkpt lat="44.19535" lon="3.83755">
        <ele>359.064763</ele>
        <time>2020-03-09T13:56:17.210Z</time>
      </trkpt>
      <trkpt lat="44.19513" lon="3.83864">
        <ele>350.866579</ele>
        <time>2020-03-09T13:56:24.180Z</time>
      </trkpt>
      <trkpt lat="44.19504" lon="3.83905">
        <ele>347.729164</ele>
        <time>2020-03-09T13:56:26.819Z</time>
      </trkpt>
      <trkpt lat="44.19502" lon="3.83935">
        <ele>345.558116</ele>
        <time>2020-03-09T13:56:28.616Z</time>
      </trkpt>
      <trkpt lat="44.19503" lon="3.83981">
        <ele>342.144333</ele>
        <time>2020-03-09T13:56:31.466Z</time>
      </trkpt>
      <trkpt lat="44.19498" lon="3.84007">
        <ele>339.947872</ele>
        <time>2020-03-09T13:56:33.109Z</time>
      </trkpt>
      <trkpt lat="44.19487" lon="3.84033">
        <ele>337.430953</ele>
        <time>2020-03-09T13:56:34.940Z</time>
      </trkpt>
      <trkpt lat="44.19469" lon="3.84053">
        <ele>334.785612</ele>
        <time>2020-03-09T13:56:36.892Z</time>
      </trkpt>
      <trkpt lat="44.19433" lon="3.84072">
        <ele>330.295187</ele>
        <time>2020-03-09T13:56:40.176Z</time>
      </trkpt>
      <trkpt lat="44.19411" lon="3.84073">
        <ele>327.831879</ele>
        <time>2020-03-09T13:56:42.009Z</time>
      </trkpt>
      <trkpt lat="44.19392" lon="3.84064">
        <ele>325.5008</ele>
        <time>2020-03-09T13:56:43.743Z</time>
      </trkpt>
      <trkpt lat="44.19345" lon="3.84012">
        <ele>319.150721</ele>
        <time>2020-03-09T13:56:48.893Z</time>
      </trkpt>
      <trkpt lat="44.19318" lon="3.84005">
        <ele>316.649646</ele>
        <time>2020-03-09T13:56:51.212Z</time>
      </trkpt>
      <trkpt lat="44.19274" lon="3.84008">
        <ele>312.587491</ele>
        <time>2020-03-09T13:56:54.990Z</time>
      </trkpt>
      <trkpt lat="44.19241" lon="3.84021">
        <ele>309.421288</ele>
        <time>2020-03-09T13:56:57.963Z</time>
      </trkpt>
      <trkpt lat="44.19204" lon="3.8401">
        <ele>305.891264</ele>
        <time>2020-03-09T13:57:01.319Z</time>
      </trkpt>
      <trkpt lat="44.19167" lon="3.8397">
        <ele>303.118608</ele>
        <time>2020-03-09T13:57:05.509Z</time>
      </trkpt>
      <trkpt lat="44.19138" lon="3.83886">
        <ele>299.84145</ele>
        <time>2020-03-09T13:57:11.706Z</time>
      </trkpt>
      <trkpt lat="44.1908" lon="3.83797">
        <ele>295.832154</ele>
        <time>2020-03-09T13:57:20.742Z</time>
      </trkpt>
      <trkpt lat="44.19056" lon="3.83709">
        <ele>293.933646</ele>
        <time>2020-03-09T13:57:27.976Z</time>
      </trkpt>
      <trkpt lat="44.19045" lon="3.83692">
        <ele>293.479182</ele>
        <time>2020-03-09T13:57:29.739Z</time>
      </trkpt>
      <trkpt lat="44.19018" lon="3.83662">
        <ele>292.508384</ele>
        <time>2020-03-09T13:57:33.362Z</time>
      </trkpt>
      <trkpt lat="44.18995" lon="3.83625">
        <ele>291.525567</ele>
        <time>2020-03-09T13:57:36.965Z</time>
      </trkpt>
      <trkpt lat="44.18969" lon="3.83561">
        <ele>289.380899</ele>
        <time>2020-03-09T13:57:42.240Z</time>
      </trkpt>
      <trkpt lat="44.18925" lon="3.83514">
        <ele>286.795326</ele>
        <time>2020-03-09T13:57:47.517Z</time>
      </trkpt>
      <trkpt lat="44.18906" lon="3.83469">
        <ele>285.057905</ele>
        <time>2020-03-09T13:57:51.058Z</time>
      </trkpt>
      <trkpt lat="44.1889" lon="3.83395">
        <ele>282.450269</ele>
        <time>2020-03-09T13:57:56.280Z</time>
      </trkpt>
      <trkpt lat="44.18869" lon="3.83355">
        <ele>280.58751</ele>
        <time>2020-03-09T13:57:59.598Z</time>
      </trkpt>
      <trkpt lat="44.1884" lon="3.83323">
        <ele>278.686025</ele>
        <time>2020-03-09T13:58:02.971Z</time>
      </trkpt>
      <trkpt lat="44.18809" lon="3.83326">
        <ele>277.020278</ele>
        <time>2020-03-09T13:58:05.846Z</time>
      </trkpt>
      <trkpt lat="44.1879" lon="3.83338">
        <ele>275.936846</ele>
        <time>2020-03-09T13:58:07.773Z</time>
      </trkpt>
      <trkpt lat="44.18712" lon="3.83406">
        <ele>273.129951</ele>
        <time>2020-03-09T13:58:16.472Z</time>
      </trkpt>
      <trkpt lat="44.18692" lon="3.834">
        <ele>273.067919</ele>
        <time>2020-03-09T13:58:20.442Z</time>
      </trkpt>
      <trkpt lat="44.18681" lon="3.83383">
        <ele>273.020322</ele>
        <time>2020-03-09T13:58:22.246Z</time>
      </trkpt>
      <trkpt lat="44.18679" lon="3.83364">
        <ele>272.977773</ele>
        <time>2020-03-09T13:58:27.068Z</time>
      </trkpt>
      <trkpt lat="44.18682" lon="3.83336">
        <ele>272.916834</ele>
        <time>2020-03-09T13:58:29.490Z</time>
      </trkpt>
      <trkpt lat="44.18692" lon="3.83303">
        <ele>272.841334</ele>
        <time>2020-03-09T13:58:36.433Z</time>
      </trkpt>
      <trkpt lat="44.18704" lon="3.83263">
        <ele>272.745699</ele>
        <time>2020-03-09T13:58:43.790Z</time>
      </trkpt>
      <trkpt lat="44.18704" lon="3.83253">
        <ele>272.725169</ele>
        <time>2020-03-09T13:58:44.473Z</time>
      </trkpt>
      <trkpt lat="44.18701" lon="3.83248">
        <ele>272.715351</ele>
        <time>2020-03-09T13:58:45.013Z</time>
      </trkpt>
      <trkpt lat="44.18655" lon="3.83228">
        <ele>273.205869</ele>
        <time>2020-03-09T13:58:56.615Z</time>
      </trkpt>
      <trkpt lat="44.18649" lon="3.8323">
        <ele>273.264968</ele>
        <time>2020-03-09T13:58:58.713Z</time>
      </trkpt>
      <trkpt lat="44.18642" lon="3.83233">
        <ele>273.3389</ele>
        <time>2020-03-09T13:59:00.866Z</time>
      </trkpt>
      <trkpt lat="44.18636" lon="3.83243">
        <ele>273.431989</ele>
        <time>2020-03-09T13:59:01.990Z</time>
      </trkpt>
      <trkpt lat="44.18609" lon="3.83284">
        <ele>273.839195</ele>
        <time>2020-03-09T13:59:11.408Z</time>
      </trkpt>
      <trkpt lat="44.1857" lon="3.83366">
        <ele>274.503227</ele>
        <time>2020-03-09T13:59:24.152Z</time>
      </trkpt>
      <trkpt lat="44.18534" lon="3.83422">
        <ele>273.379593</ele>
        <time>2020-03-09T13:59:29.760Z</time>
      </trkpt>
      <trkpt lat="44.18492" lon="3.8347">
        <ele>272.261415</ele>
        <time>2020-03-09T13:59:35.218Z</time>
      </trkpt>
      <trkpt lat="44.1839" lon="3.83516">
        <ele>270.762998</ele>
        <time>2020-03-09T13:59:47.075Z</time>
      </trkpt>
      <trkpt lat="44.18349" lon="3.8351">
        <ele>270.694949</ele>
        <time>2020-03-09T13:59:52.618Z</time>
      </trkpt>
      <trkpt lat="44.18299" lon="3.83521">
        <ele>270.611581</ele>
        <time>2020-03-09T14:00:00.755Z</time>
      </trkpt>
      <trkpt lat="44.18109" lon="3.83521">
        <ele>271.598535</ele>
        <time>2020-03-09T14:00:36.661Z</time>
      </trkpt>
      <trkpt lat="44.18101" lon="3.83528">
        <ele>271.667033</ele>
        <time>2020-03-09T14:00:38.140Z</time>
      </trkpt>
      <trkpt lat="44.18099" lon="3.83541">
        <ele>271.737857</ele>
        <time>2020-03-09T14:00:39.616Z</time>
      </trkpt>
      <trkpt lat="44.18101" lon="3.83578">
        <ele>271.912416</ele>
        <time>2020-03-09T14:00:43.742Z</time>
      </trkpt>
      <trkpt lat="44.18085" lon="3.83627">
        <ele>271.970787</ele>
        <time>2020-03-09T14:00:49.407Z</time>
      </trkpt>
      <trkpt lat="44.18075" lon="3.83642">
        <ele>271.992251</ele>
        <time>2020-03-09T14:00:51.489Z</time>
      </trkpt>
      <trkpt lat="44.18047" lon="3.83652">
        <ele>272.036612</ele>
        <time>2020-03-09T14:00:56.415Z</time>
      </trkpt>
      <trkpt lat="44.17976" lon="3.83646">
        <ele>272.142902</ele>
        <time>2020-03-09T14:01:07.351Z</time>
      </trkpt>
      <trkpt lat="44.17956" lon="3.8365">
        <ele>272.173005</ele>
        <time>2020-03-09T14:01:10.160Z</time>
      </trkpt>
      <trkpt lat="44.1793" lon="3.83666">
        <ele>272.552255</ele>
        <time>2020-03-09T14:01:14.226Z</time>
      </trkpt>
      <trkpt lat="44.17904" lon="3.837">
        <ele>273.046089</ele>
        <time>2020-03-09T14:01:19.800Z</time>
      </trkpt>
      <trkpt lat="44.17898" lon="3.83708">
        <ele>273.173864</ele>
        <time>2020-03-09T14:01:20.963Z</time>
      </trkpt>
      <trkpt lat="44.17868" lon="3.83732">
        <ele>273.65993</ele>
        <time>2020-03-09T14:01:27.870Z</time>
      </trkpt>
      <trkpt lat="44.17854" lon="3.83771">
        <ele>274.102916</ele>
        <time>2020-03-09T14:01:35.416Z</time>
      </trkpt>
      <trkpt lat="44.17839" lon="3.8379">
        <ele>274.387812</ele>
        <time>2020-03-09T14:01:40.745Z</time>
      </trkpt>
      <trkpt lat="44.17819" lon="3.83801">
        <ele>274.700604</ele>
        <time>2020-03-09T14:01:46.303Z</time>
      </trkpt>
      <trkpt lat="44.17793" lon="3.83823">
        <ele>275.553994</ele>
        <time>2020-03-09T14:01:54.946Z</time>
      </trkpt>
      <trkpt lat="44.17765" lon="3.8383">
        <ele>276.369413</ele>
        <time>2020-03-09T14:02:02.387Z</time>
      </trkpt>
      <trkpt lat="44.17734" lon="3.83867">
        <ele>277.552876</ele>
        <time>2020-03-09T14:02:13.640Z</time>
      </trkpt>
      <trkpt lat="44.17693" lon="3.83888">
        <ele>278.852583</ele>
        <time>2020-03-09T14:02:26.191Z</time>
      </trkpt>
      <trkpt lat="44.17645" lon="3.83954">
        <ele>279.539168</ele>
        <time>2020-03-09T14:02:45.876Z</time>
      </trkpt>
      <trkpt lat="44.17615" lon="3.84164">
        <ele>277.058188</ele>
        <time>2020-03-09T14:03:02.377Z</time>
      </trkpt>
      <trkpt lat="44.17613" lon="3.84188">
        <ele>275.895806</ele>
        <time>2020-03-09T14:03:03.956Z</time>
      </trkpt>
      <trkpt lat="44.17603" lon="3.84223">
        <ele>274.0993</ele>
        <time>2020-03-09T14:03:06.392Z</time>
      </trkpt>
      <trkpt lat="44.17583" lon="3.84298">
        <ele>270.2439</ele>
        <time>2020-03-09T14:03:11.543Z</time>
      </trkpt>
      <trkpt lat="44.17563" lon="3.84329">
        <ele>268.230014</ele>
        <time>2020-03-09T14:03:14.181Z</time>
      </trkpt>
      <trkpt lat="44.17527" lon="3.84361">
        <ele>265.336822</ele>
        <time>2020-03-09T14:03:17.957Z</time>
      </trkpt>
      <trkpt lat="44.17468" lon="3.84392">
        <ele>262.333127</ele>
        <time>2020-03-09T14:03:23.662Z</time>
      </trkpt>
      <trkpt lat="44.1744" lon="3.84389">
        <ele>261.011845</ele>
        <time>2020-03-09T14:03:26.334Z</time>
      </trkpt>
      <trkpt lat="44.17404" lon="3.8433">
        <ele>258.380541</ele>
        <time>2020-03-09T14:03:31.847Z</time>
      </trkpt>
      <trkpt lat="44.17361" lon="3.8429">
        <ele>256.442739</ele>
        <time>2020-03-09T14:03:37.178Z</time>
      </trkpt>
      <trkpt lat="44.17334" lon="3.84278">
        <ele>255.986531</ele>
        <time>2020-03-09T14:03:40.409Z</time>
      </trkpt>
      <trkpt lat="44.17258" lon="3.84275">
        <ele>254.779855</ele>
        <time>2020-03-09T14:03:49.447Z</time>
      </trkpt>
      <trkpt lat="44.17195" lon="3.84233">
        <ele>253.738521</ele>
        <time>2020-03-09T14:03:57.956Z</time>
      </trkpt>
      <trkpt lat="44.17151" lon="3.84115">
        <ele>252.929847</ele>
        <time>2020-03-09T14:04:08.390Z</time>
      </trkpt>
      <trkpt lat="44.17146" lon="3.84072">
        <ele>252.660615</ele>
        <time>2020-03-09T14:04:12.656Z</time>
      </trkpt>
      <trkpt lat="44.17153" lon="3.83992">
        <ele>252.735109</ele>
        <time>2020-03-09T14:04:20.155Z</time>
      </trkpt>
      <trkpt lat="44.1715" lon="3.83975">
        <ele>253.14899</ele>
        <time>2020-03-09T14:04:25.228Z</time>
      </trkpt>
      <trkpt lat="44.17143" lon="3.83953">
        <ele>253.730768</ele>
        <time>2020-03-09T14:04:28.309Z</time>
      </trkpt>
      <trkpt lat="44.17128" lon="3.83923">
        <ele>254.574004</ele>
        <time>2020-03-09T14:04:36.809Z</time>
      </trkpt>
      <trkpt lat="44.17119" lon="3.83909">
        <ele>255.032077</ele>
        <time>2020-03-09T14:04:39.795Z</time>
      </trkpt>
      <trkpt lat="44.17112" lon="3.83904">
        <ele>255.283943</ele>
        <time>2020-03-09T14:04:44.070Z</time>
      </trkpt>
      <trkpt lat="44.17101" lon="3.83897">
        <ele>255.681276</ele>
        <time>2020-03-09T14:04:48.072Z</time>
      </trkpt>
      <trkpt lat="44.17046" lon="3.83886">
        <ele>257.503511</ele>
        <time>2020-03-09T14:05:04.679Z</time>
      </trkpt>
      <trkpt lat="44.17033" lon="3.83889">
        <ele>257.949373</ele>
        <time>2020-03-09T14:05:10.496Z</time>
      </trkpt>
      <trkpt lat="44.17015" lon="3.83895">
        <ele>258.39774</ele>
        <time>2020-03-09T14:05:13.996Z</time>
      </trkpt>
      <trkpt lat="44.16989" lon="3.83917">
        <ele>258.97392</ele>
        <time>2020-03-09T14:05:24.341Z</time>
      </trkpt>
      <trkpt lat="44.16958" lon="3.83944">
        <ele>259.638567</ele>
        <time>2020-03-09T14:05:35.458Z</time>
      </trkpt>
      <trkpt lat="44.16926" lon="3.83972">
        <ele>260.355108</ele>
        <time>2020-03-09T14:05:44.405Z</time>
      </trkpt>
      <trkpt lat="44.16913" lon="3.83992">
        <ele>260.715187</ele>
        <time>2020-03-09T14:05:48.967Z</time>
      </trkpt>
      <trkpt lat="44.16883" lon="3.84047">
        <ele>261.442785</ele>
        <time>2020-03-09T14:05:55.406Z</time>
      </trkpt>
      <trkpt lat="44.16807" lon="3.84158">
        <ele>258.310569</ele>
        <time>2020-03-09T14:06:06.438Z</time>
      </trkpt>
      <trkpt lat="44.168" lon="3.8417">
        <ele>258.008255</ele>
        <time>2020-03-09T14:06:07.522Z</time>
      </trkpt>
      <trkpt lat="44.16791" lon="3.84202">
        <ele>257.323892</ele>
        <time>2020-03-09T14:06:09.965Z</time>
      </trkpt>
      <trkpt lat="44.16789" lon="3.84206">
        <ele>257.208246</ele>
        <time>2020-03-09T14:06:10.387Z</time>
      </trkpt>
      <trkpt lat="44.16785" lon="3.84211">
        <ele>257.059371</ele>
        <time>2020-03-09T14:06:10.939Z</time>
      </trkpt>
      <trkpt lat="44.1678" lon="3.84216">
        <ele>256.8811</ele>
        <time>2020-03-09T14:06:11.606Z</time>
      </trkpt>
      <trkpt lat="44.16776" lon="3.84219">
        <ele>256.740473</ele>
        <time>2020-03-09T14:06:12.119Z</time>
      </trkpt>
      <trkpt lat="44.16774" lon="3.84221">
        <ele>256.684524</ele>
        <time>2020-03-09T14:06:12.310Z</time>
      </trkpt>
      <trkpt lat="44.16765" lon="3.84227">
        <ele>256.390935</ele>
        <time>2020-03-09T14:06:13.432Z</time>
      </trkpt>
      <trkpt lat="44.1675" lon="3.8423">
        <ele>255.99822</ele>
        <time>2020-03-09T14:06:14.970Z</time>
      </trkpt>
      <trkpt lat="44.16726" lon="3.84229">
        <ele>255.34299</ele>
        <time>2020-03-09T14:06:17.522Z</time>
      </trkpt>
      <trkpt lat="44.16578" lon="3.84217">
        <ele>251.850255</ele>
        <time>2020-03-09T14:06:32.697Z</time>
      </trkpt>
      <trkpt lat="44.16569" lon="3.84217">
        <ele>252.043414</ele>
        <time>2020-03-09T14:06:33.612Z</time>
      </trkpt>
      <trkpt lat="44.16496" lon="3.8421">
        <ele>253.611359</ele>
        <time>2020-03-09T14:06:45.367Z</time>
      </trkpt>
      <trkpt lat="44.16428" lon="3.84204">
        <ele>255.076125</ele>
        <time>2020-03-09T14:07:10.377Z</time>
      </trkpt>
      <trkpt lat="44.1638" lon="3.84201">
        <ele>256.290968</ele>
        <time>2020-03-09T14:07:27.376Z</time>
      </trkpt>
      <trkpt lat="44.16378" lon="3.84201">
        <ele>256.35027</ele>
        <time>2020-03-09T14:07:27.921Z</time>
      </trkpt>
      <trkpt lat="44.16351" lon="3.84199">
        <ele>257.103482</ele>
        <time>2020-03-09T14:07:37.989Z</time>
      </trkpt>
      <trkpt lat="44.16334" lon="3.84198">
        <ele>257.597019</ele>
        <time>2020-03-09T14:07:43.188Z</time>
      </trkpt>
      <trkpt lat="44.16324" lon="3.842">
        <ele>257.866863</ele>
        <time>2020-03-09T14:07:47.554Z</time>
      </trkpt>
      <trkpt lat="44.1632" lon="3.84203">
        <ele>257.996305</ele>
        <time>2020-03-09T14:07:48.190Z</time>
      </trkpt>
      <trkpt lat="44.16285" lon="3.84304">
        <ele>260.272405</ele>
        <time>2020-03-09T14:08:07.011Z</time>
      </trkpt>
      <trkpt lat="44.1627" lon="3.84326">
        <ele>260.005489</ele>
        <time>2020-03-09T14:08:11.775Z</time>
      </trkpt>
      <trkpt lat="44.16201" lon="3.84426">
        <ele>254.976495</ele>
        <time>2020-03-09T14:08:21.081Z</time>
      </trkpt>
      <trkpt lat="44.16189" lon="3.84434">
        <ele>254.342955</ele>
        <time>2020-03-09T14:08:22.199Z</time>
      </trkpt>
      <trkpt lat="44.16166" lon="3.84429">
        <ele>253.152034</ele>
        <time>2020-03-09T14:08:24.303Z</time>
      </trkpt>
      <trkpt lat="44.16152" lon="3.84412">
        <ele>252.210702</ele>
        <time>2020-03-09T14:08:25.970Z</time>
      </trkpt>
      <trkpt lat="44.16136" lon="3.84381">
        <ele>250.848446</ele>
        <time>2020-03-09T14:08:28.411Z</time>
      </trkpt>
      <trkpt lat="44.16115" lon="3.84357">
        <ele>249.485316</ele>
        <time>2020-03-09T14:08:30.906Z</time>
      </trkpt>
      <trkpt lat="44.16087" lon="3.84346">
        <ele>248.080711</ele>
        <time>2020-03-09T14:08:33.519Z</time>
      </trkpt>
      <trkpt lat="44.15967" lon="3.84371">
        <ele>242.519405</ele>
        <time>2020-03-09T14:08:45.269Z</time>
      </trkpt>
      <trkpt lat="44.15958" lon="3.84365">
        <ele>242.454116</ele>
        <time>2020-03-09T14:08:46.240Z</time>
      </trkpt>
      <trkpt lat="44.15908" lon="3.84231">
        <ele>241.721226</ele>
        <time>2020-03-09T14:08:59.585Z</time>
      </trkpt>
      <trkpt lat="44.15895" lon="3.84167">
        <ele>241.396831</ele>
        <time>2020-03-09T14:09:09.295Z</time>
      </trkpt>
      <trkpt lat="44.15898" lon="3.84155">
        <ele>241.659566</ele>
        <time>2020-03-09T14:09:11.295Z</time>
      </trkpt>
      <trkpt lat="44.15898" lon="3.84143">
        <ele>241.996595</ele>
        <time>2020-03-09T14:09:13.103Z</time>
      </trkpt>
      <trkpt lat="44.15888" lon="3.84129">
        <ele>242.543665</ele>
        <time>2020-03-09T14:09:17.101Z</time>
      </trkpt>
      <trkpt lat="44.15881" lon="3.841">
        <ele>243.41413</ele>
        <time>2020-03-09T14:09:22.591Z</time>
      </trkpt>
      <trkpt lat="44.15886" lon="3.84082">
        <ele>243.928569</ele>
        <time>2020-03-09T14:09:26.875Z</time>
      </trkpt>
      <trkpt lat="44.15916" lon="3.84034">
        <ele>245.750446</ele>
        <time>2020-03-09T14:09:41.866Z</time>
      </trkpt>
      <trkpt lat="44.15984" lon="3.83953">
        <ele>249.342113</ele>
        <time>2020-03-09T14:10:14.703Z</time>
      </trkpt>
      <trkpt lat="44.16009" lon="3.83889">
        <ele>251.512588</ele>
        <time>2020-03-09T14:10:31.646Z</time>
      </trkpt>
      <trkpt lat="44.16014" lon="3.83859">
        <ele>252.408874</ele>
        <time>2020-03-09T14:10:38.464Z</time>
      </trkpt>
      <trkpt lat="44.1601" lon="3.83809">
        <ele>253.921335</ele>
        <time>2020-03-09T14:10:50.312Z</time>
      </trkpt>
      <trkpt lat="44.15991" lon="3.83715">
        <ele>256.206929</ele>
        <time>2020-03-09T14:11:10.125Z</time>
      </trkpt>
      <trkpt lat="44.15979" lon="3.83693">
        <ele>256.429254</ele>
        <time>2020-03-09T14:11:15.414Z</time>
      </trkpt>
      <trkpt lat="44.15963" lon="3.83673">
        <ele>256.671382</ele>
        <time>2020-03-09T14:11:19.766Z</time>
      </trkpt>
      <trkpt lat="44.15952" lon="3.83659">
        <ele>256.830756</ele>
        <time>2020-03-09T14:11:23.382Z</time>
      </trkpt>
      <trkpt lat="44.15922" lon="3.8364">
        <ele>257.198161</ele>
        <time>2020-03-09T14:11:29.743Z</time>
      </trkpt>
      <trkpt lat="44.15902" lon="3.83646">
        <ele>257.415271</ele>
        <time>2020-03-09T14:11:31.919Z</time>
      </trkpt>
      <trkpt lat="44.15812" lon="3.8373">
        <ele>257.757975</ele>
        <time>2020-03-09T14:11:46.917Z</time>
      </trkpt>
      <trkpt lat="44.15791" lon="3.83743">
        <ele>257.681642</ele>
        <time>2020-03-09T14:11:50.280Z</time>
      </trkpt>
      <trkpt lat="44.1578" lon="3.83745">
        <ele>257.643554</ele>
        <time>2020-03-09T14:11:51.367Z</time>
      </trkpt>
      <trkpt lat="44.15773" lon="3.83741">
        <ele>257.617154</ele>
        <time>2020-03-09T14:11:52.950Z</time>
      </trkpt>
      <trkpt lat="44.15764" lon="3.83725">
        <ele>257.569102</ele>
        <time>2020-03-09T14:11:55.151Z</time>
      </trkpt>
      <trkpt lat="44.1577" lon="3.8368">
        <ele>257.458104</ele>
        <time>2020-03-09T14:11:59.464Z</time>
      </trkpt>
      <trkpt lat="44.1577" lon="3.83648">
        <ele>257.379549</ele>
        <time>2020-03-09T14:12:02.465Z</time>
      </trkpt>
      <trkpt lat="44.15747" lon="3.83546">
        <ele>258.560797</ele>
        <time>2020-03-09T14:12:15.888Z</time>
      </trkpt>
      <trkpt lat="44.1574" lon="3.83522">
        <ele>258.884323</ele>
        <time>2020-03-09T14:12:20.227Z</time>
      </trkpt>
      <trkpt lat="44.15731" lon="3.83505">
        <ele>259.153792</ele>
        <time>2020-03-09T14:12:23.793Z</time>
      </trkpt>
      <trkpt lat="44.15671" lon="3.83451">
        <ele>260.416661</ele>
        <time>2020-03-09T14:12:41.797Z</time>
      </trkpt>
      <trkpt lat="44.15629" lon="3.83383">
        <ele>262.161159</ele>
        <time>2020-03-09T14:13:00.205Z</time>
      </trkpt>
      <trkpt lat="44.15597" lon="3.83372">
        <ele>263.066603</ele>
        <time>2020-03-09T14:13:09.088Z</time>
      </trkpt>
      <trkpt lat="44.15545" lon="3.8338">
        <ele>264.538185</ele>
        <time>2020-03-09T14:13:22.705Z</time>
      </trkpt>
      <trkpt lat="44.15531" lon="3.8338">
        <ele>264.914461</ele>
        <time>2020-03-09T14:13:25.949Z</time>
      </trkpt>
      <trkpt lat="44.15524" lon="3.83374">
        <ele>265.142043</ele>
        <time>2020-03-09T14:13:27.931Z</time>
      </trkpt>
      <trkpt lat="44.1552" lon="3.83349">
        <ele>265.614041</ele>
        <time>2020-03-09T14:13:32.375Z</time>
      </trkpt>
      <trkpt lat="44.15532" lon="3.83258">
        <ele>266.681389</ele>
        <time>2020-03-09T14:13:47.892Z</time>
      </trkpt>
      <trkpt lat="44.15523" lon="3.83189">
        <ele>267.489956</ele>
        <time>2020-03-09T14:13:58.691Z</time>
      </trkpt>
      <trkpt lat="44.15518" lon="3.83179">
        <ele>267.630339</ele>
        <time>2020-03-09T14:14:00.472Z</time>
      </trkpt>
      <trkpt lat="44.15416" lon="3.83123">
        <ele>269.047517</ele>
        <time>2020-03-09T14:14:19.836Z</time>
      </trkpt>
      <trkpt lat="44.15329" lon="3.83106">
        <ele>269.941896</ele>
        <time>2020-03-09T14:14:36.886Z</time>
      </trkpt>
      <trkpt lat="44.15309" lon="3.83097">
        <ele>270.160687</ele>
        <time>2020-03-09T14:14:41.171Z</time>
      </trkpt>
      <trkpt lat="44.15303" lon="3.83083">
        <ele>270.273923</ele>
        <time>2020-03-09T14:14:43.390Z</time>
      </trkpt>
      <trkpt lat="44.15307" lon="3.83066">
        <ele>270.351791</ele>
        <time>2020-03-09T14:14:45.869Z</time>
      </trkpt>
      <trkpt lat="44.15339" lon="3.82998">
        <ele>270.691993</ele>
        <time>2020-03-09T14:14:56.935Z</time>
      </trkpt>
      <trkpt lat="44.15345" lon="3.82966">
        <ele>270.832313</ele>
        <time>2020-03-09T14:15:01.197Z</time>
      </trkpt>
      <trkpt lat="44.15358" lon="3.82931">
        <ele>270.998009</ele>
        <time>2020-03-09T14:15:06.066Z</time>
      </trkpt>
      <trkpt lat="44.1538" lon="3.82907">
        <ele>271.160236</ele>
        <time>2020-03-09T14:15:10.672Z</time>
      </trkpt>
      <trkpt lat="44.15418" lon="3.82897">
        <ele>271.215327</ele>
        <time>2020-03-09T14:15:16.662Z</time>
      </trkpt>
      <trkpt lat="44.15433" lon="3.82885">
        <ele>270.979467</ele>
        <time>2020-03-09T14:15:18.974Z</time>
      </trkpt>
      <trkpt lat="44.15463" lon="3.8285">
        <ele>270.438342</ele>
        <time>2020-03-09T14:15:23.790Z</time>
      </trkpt>
      <trkpt lat="44.15484" lon="3.82813">
        <ele>269.975852</ele>
        <time>2020-03-09T14:15:27.448Z</time>
      </trkpt>
      <trkpt lat="44.15496" lon="3.82752">
        <ele>269.351624</ele>
        <time>2020-03-09T14:15:32.331Z</time>
      </trkpt>
      <trkpt lat="44.15501" lon="3.82665">
        <ele>269.105111</ele>
        <time>2020-03-09T14:15:39.514Z</time>
      </trkpt>
      <trkpt lat="44.15496" lon="3.82638">
        <ele>269.278915</ele>
        <time>2020-03-09T14:15:41.778Z</time>
      </trkpt>
      <trkpt lat="44.15476" lon="3.82587">
        <ele>269.639959</ele>
        <time>2020-03-09T14:15:47.311Z</time>
      </trkpt>
      <trkpt lat="44.15407" lon="3.82394">
        <ele>273.202122</ele>
        <time>2020-03-09T14:16:28.116Z</time>
      </trkpt>
      <trkpt lat="44.15409" lon="3.82363">
        <ele>274.177999</ele>
        <time>2020-03-09T14:16:36.694Z</time>
      </trkpt>
      <trkpt lat="44.15416" lon="3.82346">
        <ele>274.769262</ele>
        <time>2020-03-09T14:16:41.837Z</time>
      </trkpt>
      <trkpt lat="44.15433" lon="3.82332">
        <ele>275.630134</ele>
        <time>2020-03-09T14:16:49.483Z</time>
      </trkpt>
      <trkpt lat="44.15479" lon="3.82319">
        <ele>277.672388</ele>
        <time>2020-03-09T14:17:07.855Z</time>
      </trkpt>
      <trkpt lat="44.15684" lon="3.82315">
        <ele>283.580606</ele>
        <time>2020-03-09T14:18:03.109Z</time>
      </trkpt>
      <trkpt lat="44.15699" lon="3.82309">
        <ele>283.589062</ele>
        <time>2020-03-09T14:18:05.287Z</time>
      </trkpt>
      <trkpt lat="44.15709" lon="3.82292">
        <ele>283.597797</ele>
        <time>2020-03-09T14:18:07.176Z</time>
      </trkpt>
      <trkpt lat="44.15714" lon="3.82231">
        <ele>283.621651</ele>
        <time>2020-03-09T14:18:13.183Z</time>
      </trkpt>
      <trkpt lat="44.15725" lon="3.8219">
        <ele>283.638374</ele>
        <time>2020-03-09T14:18:16.938Z</time>
      </trkpt>
      <trkpt lat="44.15737" lon="3.82124">
        <ele>283.664868</ele>
        <time>2020-03-09T14:18:23.665Z</time>
      </trkpt>
      <trkpt lat="44.15757" lon="3.82064">
        <ele>284.128387</ele>
        <time>2020-03-09T14:18:29.953Z</time>
      </trkpt>
      <trkpt lat="44.15759" lon="3.82014">
        <ele>284.582657</ele>
        <time>2020-03-09T14:18:35.854Z</time>
      </trkpt>
      <trkpt lat="44.15791" lon="3.81925">
        <ele>285.486256</ele>
        <time>2020-03-09T14:18:55.206Z</time>
      </trkpt>
      <trkpt lat="44.15871" lon="3.81816">
        <ele>284.982824</ele>
        <time>2020-03-09T14:19:16.808Z</time>
      </trkpt>
      <trkpt lat="44.15892" lon="3.81759">
        <ele>284.387005</ele>
        <time>2020-03-09T14:19:21.657Z</time>
      </trkpt>
      <trkpt lat="44.15909" lon="3.81682">
        <ele>283.651262</ele>
        <time>2020-03-09T14:19:27.514Z</time>
      </trkpt>
      <trkpt lat="44.15919" lon="3.81661">
        <ele>282.97595</ele>
        <time>2020-03-09T14:19:29.300Z</time>
      </trkpt>
      <trkpt lat="44.15938" lon="3.81639">
        <ele>282.056789</ele>
        <time>2020-03-09T14:19:31.753Z</time>
      </trkpt>
      <trkpt lat="44.15938" lon="3.81639">
        <ele>282.056789</ele>
        <time>2020-03-09T14:19:31.769Z</time>
      </trkpt>
      <trkpt lat="44.15942" lon="3.81618">
        <ele>281.464704</ele>
        <time>2020-03-09T14:19:33.304Z</time>
      </trkpt>
      <trkpt lat="44.15942" lon="3.81597">
        <ele>280.900088</ele>
        <time>2020-03-09T14:19:34.810Z</time>
      </trkpt>
      <trkpt lat="44.15937" lon="3.81578">
        <ele>280.337927</ele>
        <time>2020-03-09T14:19:36.210Z</time>
      </trkpt>
      <trkpt lat="44.15914" lon="3.81531">
        <ele>278.80753</ele>
        <time>2020-03-09T14:19:40.128Z</time>
      </trkpt>
      <trkpt lat="44.15896" lon="3.81356">
        <ele>275.523082</ele>
        <time>2020-03-09T14:19:53.093Z</time>
      </trkpt>
      <trkpt lat="44.15912" lon="3.81201">
        <ele>273.658682</ele>
        <time>2020-03-09T14:20:06.785Z</time>
      </trkpt>
      <trkpt lat="44.15926" lon="3.81169">
        <ele>273.753893</ele>
        <time>2020-03-09T14:20:10.660Z</time>
      </trkpt>
      <trkpt lat="44.15944" lon="3.81149">
        <ele>273.834052</ele>
        <time>2020-03-09T14:20:14.204Z</time>
      </trkpt>
      <trkpt lat="44.15954" lon="3.81126">
        <ele>273.900348</ele>
        <time>2020-03-09T14:20:17.269Z</time>
      </trkpt>
      <trkpt lat="44.15951" lon="3.81074">
        <ele>274.031754</ele>
        <time>2020-03-09T14:20:23.708Z</time>
      </trkpt>
      <trkpt lat="44.15956" lon="3.81052">
        <ele>274.088355</ele>
        <time>2020-03-09T14:20:26.630Z</time>
      </trkpt>
      <trkpt lat="44.16025" lon="3.80872">
        <ele>274.73197</ele>
        <time>2020-03-09T14:20:54.549Z</time>
      </trkpt>
      <trkpt lat="44.1604" lon="3.80852">
        <ele>274.834121</ele>
        <time>2020-03-09T14:20:57.953Z</time>
      </trkpt>
      <trkpt lat="44.16058" lon="3.80842">
        <ele>274.924977</ele>
        <time>2020-03-09T14:21:01.298Z</time>
      </trkpt>
      <trkpt lat="44.16072" lon="3.80822">
        <ele>275.02227</ele>
        <time>2020-03-09T14:21:03.991Z</time>
      </trkpt>
      <trkpt lat="44.16082" lon="3.80784">
        <ele>275.129611</ele>
        <time>2020-03-09T14:21:07.556Z</time>
      </trkpt>
      <trkpt lat="44.16086" lon="3.80753">
        <ele>275.122069</ele>
        <time>2020-03-09T14:21:10.882Z</time>
      </trkpt>
      <trkpt lat="44.16086" lon="3.80744">
        <ele>275.119865</ele>
        <time>2020-03-09T14:21:11.592Z</time>
      </trkpt>
      <trkpt lat="44.16093" lon="3.80667">
        <ele>275.101385</ele>
        <time>2020-03-09T14:21:19.182Z</time>
      </trkpt>
      <trkpt lat="44.161" lon="3.80648">
        <ele>275.096161</ele>
        <time>2020-03-09T14:21:21.262Z</time>
      </trkpt>
      <trkpt lat="44.16114" lon="3.80622">
        <ele>275.088273</ele>
        <time>2020-03-09T14:21:24.851Z</time>
      </trkpt>
      <trkpt lat="44.16128" lon="3.80599">
        <ele>275.081177</ele>
        <time>2020-03-09T14:21:27.583Z</time>
      </trkpt>
      <trkpt lat="44.16146" lon="3.80565">
        <ele>275.120176</ele>
        <time>2020-03-09T14:21:32.407Z</time>
      </trkpt>
      <trkpt lat="44.16245" lon="3.8041">
        <ele>277.921034</ele>
        <time>2020-03-09T14:22:07.306Z</time>
      </trkpt>
      <trkpt lat="44.16272" lon="3.80382">
        <ele>278.482298</ele>
        <time>2020-03-09T14:22:15.722Z</time>
      </trkpt>
      <trkpt lat="44.16287" lon="3.80375">
        <ele>278.530235</ele>
        <time>2020-03-09T14:22:20.312Z</time>
      </trkpt>
      <trkpt lat="44.16332" lon="3.80355">
        <ele>278.67411</ele>
        <time>2020-03-09T14:22:29.816Z</time>
      </trkpt>
      <trkpt lat="44.16348" lon="3.80346">
        <ele>278.726077</ele>
        <time>2020-03-09T14:22:33.034Z</time>
      </trkpt>
      <trkpt lat="44.16376" lon="3.80313">
        <ele>278.835461</ele>
        <time>2020-03-09T14:22:38.729Z</time>
      </trkpt>
      <trkpt lat="44.16416" lon="3.80242">
        <ele>278.919187</ele>
        <time>2020-03-09T14:22:46.394Z</time>
      </trkpt>
      <trkpt lat="44.16434" lon="3.80207">
        <ele>278.481136</ele>
        <time>2020-03-09T14:22:49.567Z</time>
      </trkpt>
      <trkpt lat="44.16451" lon="3.80138">
        <ele>277.741891</ele>
        <time>2020-03-09T14:22:55.142Z</time>
      </trkpt>
      <trkpt lat="44.16458" lon="3.8">
        <ele>276.647965</ele>
        <time>2020-03-09T14:23:07.340Z</time>
      </trkpt>
      <trkpt lat="44.16457" lon="3.79984">
        <ele>276.876488</ele>
        <time>2020-03-09T14:23:08.943Z</time>
      </trkpt>
      <trkpt lat="44.16457" lon="3.79977">
        <ele>276.972706</ele>
        <time>2020-03-09T14:23:09.615Z</time>
      </trkpt>
      <trkpt lat="44.16454" lon="3.7997">
        <ele>277.083671</ele>
        <time>2020-03-09T14:23:11.463Z</time>
      </trkpt>
      <trkpt lat="44.16419" lon="3.79893">
        <ele>278.330408</ele>
        <time>2020-03-09T14:23:23.874Z</time>
      </trkpt>
      <trkpt lat="44.16255" lon="3.79605">
        <ele>286.304788</ele>
        <time>2020-03-09T14:24:41.349Z</time>
      </trkpt>
      <trkpt lat="44.16245" lon="3.7958">
        <ele>286.733596</ele>
        <time>2020-03-09T14:24:47.020Z</time>
      </trkpt>
      <trkpt lat="44.16242" lon="3.79552">
        <ele>287.154729</ele>
        <time>2020-03-09T14:24:52.259Z</time>
      </trkpt>
      <trkpt lat="44.16249" lon="3.7951">
        <ele>287.799193</ele>
        <time>2020-03-09T14:24:59.613Z</time>
      </trkpt>
      <trkpt lat="44.16251" lon="3.79501">
        <ele>287.941625</ele>
        <time>2020-03-09T14:25:01.591Z</time>
      </trkpt>
      <trkpt lat="44.16258" lon="3.7949">
        <ele>288.163305</ele>
        <time>2020-03-09T14:25:03.995Z</time>
      </trkpt>
      <trkpt lat="44.16294" lon="3.79432">
        <ele>289.318217</ele>
        <time>2020-03-09T14:25:15.931Z</time>
      </trkpt>
      <trkpt lat="44.16343" lon="3.79385">
        <ele>290.09571</ele>
        <time>2020-03-09T14:25:27.575Z</time>
      </trkpt>
      <trkpt lat="44.16465" lon="3.7923">
        <ele>290.407348</ele>
        <time>2020-03-09T14:25:52.475Z</time>
      </trkpt>
      <trkpt lat="44.16541" lon="3.7916">
        <ele>289.868904</ele>
        <time>2020-03-09T14:26:04.260Z</time>
      </trkpt>
      <trkpt lat="44.16577" lon="3.79112">
        <ele>289.578126</ele>
        <time>2020-03-09T14:26:10.410Z</time>
      </trkpt>
      <trkpt lat="44.16578" lon="3.79093">
        <ele>289.49417</ele>
        <time>2020-03-09T14:26:12.235Z</time>
      </trkpt>
      <trkpt lat="44.16558" lon="3.78999">
        <ele>289.064719</ele>
        <time>2020-03-09T14:26:21.223Z</time>
      </trkpt>
      <trkpt lat="44.1653" lon="3.78944">
        <ele>288.768015</ele>
        <time>2020-03-09T14:26:27.651Z</time>
      </trkpt>
      <trkpt lat="44.16525" lon="3.78921">
        <ele>288.663043</ele>
        <time>2020-03-09T14:26:29.710Z</time>
      </trkpt>
      <trkpt lat="44.16522" lon="3.78896">
        <ele>288.550375</ele>
        <time>2020-03-09T14:26:32.172Z</time>
      </trkpt>
      <trkpt lat="44.16519" lon="3.78888">
        <ele>288.509428</ele>
        <time>2020-03-09T14:26:32.972Z</time>
      </trkpt>
      <trkpt lat="44.16502" lon="3.78866">
        <ele>288.365607</ele>
        <time>2020-03-09T14:26:36.040Z</time>
      </trkpt>
      <trkpt lat="44.16467" lon="3.78766">
        <ele>288.302173</ele>
        <time>2020-03-09T14:26:46.818Z</time>
      </trkpt>
      <trkpt lat="44.16453" lon="3.78727">
        <ele>288.304304</ele>
        <time>2020-03-09T14:26:51.330Z</time>
      </trkpt>
      <trkpt lat="44.16396" lon="3.78567">
        <ele>289.114133</ele>
        <time>2020-03-09T14:27:12.621Z</time>
      </trkpt>
      <trkpt lat="44.16383" lon="3.7855">
        <ele>289.40757</ele>
        <time>2020-03-09T14:27:15.628Z</time>
      </trkpt>
      <trkpt lat="44.16329" lon="3.78517">
        <ele>290.391832</ele>
        <time>2020-03-09T14:27:29.922Z</time>
      </trkpt>
      <trkpt lat="44.16318" lon="3.785">
        <ele>290.668664</ele>
        <time>2020-03-09T14:27:33.345Z</time>
      </trkpt>
      <trkpt lat="44.16317" lon="3.78494">
        <ele>290.74016</ele>
        <time>2020-03-09T14:27:34.197Z</time>
      </trkpt>
      <trkpt lat="44.16318" lon="3.78488">
        <ele>290.808425</ele>
        <time>2020-03-09T14:27:36.382Z</time>
      </trkpt>
      <trkpt lat="44.16363" lon="3.78437">
        <ele>291.954534</ele>
        <time>2020-03-09T14:27:50.488Z</time>
      </trkpt>
      <trkpt lat="44.1646" lon="3.78299">
        <ele>295.086745</ele>
        <time>2020-03-09T14:28:24.603Z</time>
      </trkpt>
      <trkpt lat="44.16516" lon="3.78251">
        <ele>295.896344</ele>
        <time>2020-03-09T14:28:37.852Z</time>
      </trkpt>
      <trkpt lat="44.16522" lon="3.78237">
        <ele>296.011164</ele>
        <time>2020-03-09T14:28:40.174Z</time>
      </trkpt>
      <trkpt lat="44.16526" lon="3.78165">
        <ele>296.515091</ele>
        <time>2020-03-09T14:28:49.731Z</time>
      </trkpt>
      <trkpt lat="44.16539" lon="3.78135">
        <ele>296.763596</ele>
        <time>2020-03-09T14:28:53.958Z</time>
      </trkpt>
      <trkpt lat="44.16572" lon="3.78058">
        <ele>297.337685</ele>
        <time>2020-03-09T14:29:04.506Z</time>
      </trkpt>
      <trkpt lat="44.16574" lon="3.78037">
        <ele>297.452425</ele>
        <time>2020-03-09T14:29:06.426Z</time>
      </trkpt>
      <trkpt lat="44.16569" lon="3.77999">
        <ele>297.666908</ele>
        <time>2020-03-09T14:29:11.631Z</time>
      </trkpt>
      <trkpt lat="44.16542" lon="3.77907">
        <ele>298.213806</ele>
        <time>2020-03-09T14:29:25.051Z</time>
      </trkpt>
      <trkpt lat="44.16533" lon="3.77889">
        <ele>298.336023</ele>
        <time>2020-03-09T14:29:27.082Z</time>
      </trkpt>
      <trkpt lat="44.16524" lon="3.77875">
        <ele>298.439082</ele>
        <time>2020-03-09T14:29:30.822Z</time>
      </trkpt>
      <trkpt lat="44.16415" lon="3.77748">
        <ele>299.899856</ele>
        <time>2020-03-09T14:29:57.161Z</time>
      </trkpt>
      <trkpt lat="44.1639" lon="3.7773">
        <ele>300.190621</ele>
        <time>2020-03-09T14:30:02.798Z</time>
      </trkpt>
      <trkpt lat="44.16388" lon="3.77716">
        <ele>300.301756</ele>
        <time>2020-03-09T14:30:04.936Z</time>
      </trkpt>
      <trkpt lat="44.16389" lon="3.77698">
        <ele>300.448325</ele>
        <time>2020-03-09T14:30:07.409Z</time>
      </trkpt>
      <trkpt lat="44.16419" lon="3.77437">
        <ele>302.95967</ele>
        <time>2020-03-09T14:30:45.170Z</time>
      </trkpt>
      <trkpt lat="44.16438" lon="3.7728">
        <ele>304.974551</ele>
        <time>2020-03-09T14:31:10.205Z</time>
      </trkpt>
      <trkpt lat="44.16491" lon="3.77105">
        <ele>307.204608</ele>
        <time>2020-03-09T14:31:41.187Z</time>
      </trkpt>
      <trkpt lat="44.16519" lon="3.77047">
        <ele>307.986805</ele>
        <time>2020-03-09T14:31:51.767Z</time>
      </trkpt>
      <trkpt lat="44.16557" lon="3.76928">
        <ele>308.859157</ele>
        <time>2020-03-09T14:32:09.371Z</time>
      </trkpt>
      <trkpt lat="44.16558" lon="3.76909">
        <ele>308.901169</ele>
        <time>2020-03-09T14:32:11.829Z</time>
      </trkpt>
      <trkpt lat="44.16559" lon="3.76893">
        <ele>308.938316</ele>
        <time>2020-03-09T14:32:13.753Z</time>
      </trkpt>
      <trkpt lat="44.16558" lon="3.7688">
        <ele>308.968413</ele>
        <time>2020-03-09T14:32:15.827Z</time>
      </trkpt>
      <trkpt lat="44.16542" lon="3.76808">
        <ele>309.139713</ele>
        <time>2020-03-09T14:32:27.636Z</time>
      </trkpt>
      <trkpt lat="44.16546" lon="3.76768">
        <ele>309.233974</ele>
        <time>2020-03-09T14:32:33.258Z</time>
      </trkpt>
      <trkpt lat="44.16594" lon="3.76689">
        <ele>309.001176</ele>
        <time>2020-03-09T14:32:46.124Z</time>
      </trkpt>
      <trkpt lat="44.16601" lon="3.76664">
        <ele>308.908567</ele>
        <time>2020-03-09T14:32:49.623Z</time>
      </trkpt>
      <trkpt lat="44.16603" lon="3.76623">
        <ele>308.768276</ele>
        <time>2020-03-09T14:32:53.452Z</time>
      </trkpt>
      <trkpt lat="44.16601" lon="3.76551">
        <ele>308.515131</ele>
        <time>2020-03-09T14:33:00.509Z</time>
      </trkpt>
      <trkpt lat="44.16596" lon="3.76466">
        <ele>308.932083</ele>
        <time>2020-03-09T14:33:09.586Z</time>
      </trkpt>
      <trkpt lat="44.16597" lon="3.7645">
        <ele>309.088859</ele>
        <time>2020-03-09T14:33:11.178Z</time>
      </trkpt>
      <trkpt lat="44.166" lon="3.76441">
        <ele>309.18047</ele>
        <time>2020-03-09T14:33:12.157Z</time>
      </trkpt>
      <trkpt lat="44.16608" lon="3.76432">
        <ele>309.316595</ele>
        <time>2020-03-09T14:33:13.965Z</time>
      </trkpt>
      <trkpt lat="44.16674" lon="3.76412">
        <ele>310.1962</ele>
        <time>2020-03-09T14:33:28.103Z</time>
      </trkpt>
      <trkpt lat="44.16749" lon="3.76401">
        <ele>311.883104</ele>
        <time>2020-03-09T14:33:47.813Z</time>
      </trkpt>
      <trkpt lat="44.16766" lon="3.76403">
        <ele>312.484989</ele>
        <time>2020-03-09T14:33:52.961Z</time>
      </trkpt>
      <trkpt lat="44.16822" lon="3.76433">
        <ele>314.583385</ele>
        <time>2020-03-09T14:34:10.193Z</time>
      </trkpt>
      <trkpt lat="44.16847" lon="3.7644">
        <ele>315.473361</ele>
        <time>2020-03-09T14:34:18.036Z</time>
      </trkpt>
      <trkpt lat="44.16888" lon="3.76441">
        <ele>316.899644</ele>
        <time>2020-03-09T14:34:31.179Z</time>
      </trkpt>
      <trkpt lat="44.16987" lon="3.76434">
        <ele>319.324389</ele>
        <time>2020-03-09T14:35:00.174Z</time>
      </trkpt>
      <trkpt lat="44.16997" lon="3.76412">
        <ele>319.770005</ele>
        <time>2020-03-09T14:35:03.432Z</time>
      </trkpt>
      <trkpt lat="44.16995" lon="3.76365">
        <ele>320.592833</ele>
        <time>2020-03-09T14:35:09.936Z</time>
      </trkpt>
      <trkpt lat="44.17005" lon="3.76317">
        <ele>321.373348</ele>
        <time>2020-03-09T14:35:16.606Z</time>
      </trkpt>
      <trkpt lat="44.17011" lon="3.76315">
        <ele>321.379347</ele>
        <time>2020-03-09T14:35:19.247Z</time>
      </trkpt>
      <trkpt lat="44.17045" lon="3.76316">
        <ele>321.41289</ele>
        <time>2020-03-09T14:35:23.848Z</time>
      </trkpt>
      <trkpt lat="44.17088" lon="3.76317">
        <ele>321.456675</ele>
        <time>2020-03-09T14:35:30.649Z</time>
      </trkpt>
      <trkpt lat="44.17099" lon="3.76311">
        <ele>321.468503</ele>
        <time>2020-03-09T14:35:32.055Z</time>
      </trkpt>
      <trkpt lat="44.17109" lon="3.76286">
        <ele>321.489069</ele>
        <time>2020-03-09T14:35:35.526Z</time>
      </trkpt>
      <trkpt lat="44.17083" lon="3.76197">
        <ele>321.701112</ele>
        <time>2020-03-09T14:35:43.694Z</time>
      </trkpt>
      <trkpt lat="44.17062" lon="3.76032">
        <ele>323.910948</ele>
        <time>2020-03-09T14:36:10.363Z</time>
      </trkpt>
      <trkpt lat="44.17054" lon="3.76006">
        <ele>324.293162</ele>
        <time>2020-03-09T14:36:15.634Z</time>
      </trkpt>
      <trkpt lat="44.17057" lon="3.75976">
        <ele>324.692225</ele>
        <time>2020-03-09T14:36:21.456Z</time>
      </trkpt>
      <trkpt lat="44.1708" lon="3.7592">
        <ele>326.450888</ele>
        <time>2020-03-09T14:36:34.905Z</time>
      </trkpt>
      <trkpt lat="44.17088" lon="3.75853">
        <ele>328.542709</ele>
        <time>2020-03-09T14:36:50.305Z</time>
      </trkpt>
      <trkpt lat="44.17107" lon="3.75812">
        <ele>330.032007</ele>
        <time>2020-03-09T14:37:02.052Z</time>
      </trkpt>
      <trkpt lat="44.17134" lon="3.75786">
        <ele>331.427569</ele>
        <time>2020-03-09T14:37:13.384Z</time>
      </trkpt>
      <trkpt lat="44.17157" lon="3.75755">
        <ele>332.75558</ele>
        <time>2020-03-09T14:37:24.493Z</time>
      </trkpt>
      <trkpt lat="44.1719" lon="3.75693">
        <ele>334.877666</ele>
        <time>2020-03-09T14:37:43.907Z</time>
      </trkpt>
      <trkpt lat="44.1721" lon="3.7567">
        <ele>335.867406</ele>
        <time>2020-03-09T14:37:52.810Z</time>
      </trkpt>
      <trkpt lat="44.17228" lon="3.75667">
        <ele>336.570835</ele>
        <time>2020-03-09T14:37:58.916Z</time>
      </trkpt>
      <trkpt lat="44.17343" lon="3.75698">
        <ele>339.08238</ele>
        <time>2020-03-09T14:38:28.232Z</time>
      </trkpt>
      <trkpt lat="44.17355" lon="3.75696">
        <ele>338.987399</ele>
        <time>2020-03-09T14:38:30.087Z</time>
      </trkpt>
      <trkpt lat="44.17426" lon="3.75674">
        <ele>338.418443</ele>
        <time>2020-03-09T14:38:38.615Z</time>
      </trkpt>
      <trkpt lat="44.17477" lon="3.75624">
        <ele>337.70398</ele>
        <time>2020-03-09T14:38:44.994Z</time>
      </trkpt>
      <trkpt lat="44.17496" lon="3.7559">
        <ele>336.745537</ele>
        <time>2020-03-09T14:38:47.985Z</time>
      </trkpt>
      <trkpt lat="44.17547" lon="3.75402">
        <ele>332.361187</ele>
        <time>2020-03-09T14:39:02.470Z</time>
      </trkpt>
      <trkpt lat="44.17555" lon="3.75349">
        <ele>332.188143</ele>
        <time>2020-03-09T14:39:07.090Z</time>
      </trkpt>
      <trkpt lat="44.1755" lon="3.75229">
        <ele>331.807707</ele>
        <time>2020-03-09T14:39:19.892Z</time>
      </trkpt>
      <trkpt lat="44.17556" lon="3.7519">
        <ele>331.681869</ele>
        <time>2020-03-09T14:39:24.976Z</time>
      </trkpt>
      <trkpt lat="44.17616" lon="3.75087">
        <ele>332.035579</ele>
        <time>2020-03-09T14:39:41.914Z</time>
      </trkpt>
      <trkpt lat="44.17652" lon="3.7503">
        <ele>332.367009</ele>
        <time>2020-03-09T14:39:49.871Z</time>
      </trkpt>
      <trkpt lat="44.17684" lon="3.74989">
        <ele>332.633209</ele>
        <time>2020-03-09T14:39:57.312Z</time>
      </trkpt>
      <trkpt lat="44.17713" lon="3.74958">
        <ele>333.257839</ele>
        <time>2020-03-09T14:40:04.588Z</time>
      </trkpt>
      <trkpt lat="44.17777" lon="3.74911">
        <ele>334.767273</ele>
        <time>2020-03-09T14:40:20.698Z</time>
      </trkpt>
      <trkpt lat="44.17791" lon="3.74898">
        <ele>335.104759</ele>
        <time>2020-03-09T14:40:25.553Z</time>
      </trkpt>
      <trkpt lat="44.17799" lon="3.74886">
        <ele>335.350644</ele>
        <time>2020-03-09T14:40:27.563Z</time>
      </trkpt>
      <trkpt lat="44.17811" lon="3.74861">
        <ele>335.79337</ele>
        <time>2020-03-09T14:40:33.737Z</time>
      </trkpt>
      <trkpt lat="44.17849" lon="3.74758">
        <ele>337.477773</ele>
        <time>2020-03-09T14:40:55.173Z</time>
      </trkpt>
      <trkpt lat="44.17859" lon="3.74732">
        <ele>337.913021</ele>
        <time>2020-03-09T14:41:01.755Z</time>
      </trkpt>
      <trkpt lat="44.17869" lon="3.74708">
        <ele>338.310672</ele>
        <time>2020-03-09T14:41:06.457Z</time>
      </trkpt>
      <trkpt lat="44.17881" lon="3.74674">
        <ele>338.866686</ele>
        <time>2020-03-09T14:41:13.341Z</time>
      </trkpt>
      <trkpt lat="44.17893" lon="3.74628">
        <ele>339.566799</ele>
        <time>2020-03-09T14:41:20.100Z</time>
      </trkpt>
      <trkpt lat="44.17896" lon="3.74588">
        <ele>340.022126</ele>
        <time>2020-03-09T14:41:25.097Z</time>
      </trkpt>
      <trkpt lat="44.17901" lon="3.74459">
        <ele>340.093585</ele>
        <time>2020-03-09T14:41:37.398Z</time>
      </trkpt>
      <trkpt lat="44.17915" lon="3.74402">
        <ele>340.126918</ele>
        <time>2020-03-09T14:41:43.532Z</time>
      </trkpt>
      <trkpt lat="44.17939" lon="3.74315">
        <ele>340.426384</ele>
        <time>2020-03-09T14:41:54.999Z</time>
      </trkpt>
      <trkpt lat="44.17944" lon="3.74305">
        <ele>340.500752</ele>
        <time>2020-03-09T14:41:57.074Z</time>
      </trkpt>
      <trkpt lat="44.17991" lon="3.74262">
        <ele>341.012917</ele>
        <time>2020-03-09T14:42:07.287Z</time>
      </trkpt>
      <trkpt lat="44.18027" lon="3.74237">
        <ele>341.378576</ele>
        <time>2020-03-09T14:42:15.080Z</time>
      </trkpt>
      <trkpt lat="44.1804" lon="3.74223">
        <ele>341.524745</ele>
        <time>2020-03-09T14:42:18.901Z</time>
      </trkpt>
      <trkpt lat="44.18065" lon="3.74207">
        <ele>341.77844</ele>
        <time>2020-03-09T14:42:23.881Z</time>
      </trkpt>
      <trkpt lat="44.18103" lon="3.74202">
        <ele>341.815206</ele>
        <time>2020-03-09T14:42:30.812Z</time>
      </trkpt>
      <trkpt lat="44.18159" lon="3.74168">
        <ele>341.857381</ele>
        <time>2020-03-09T14:42:40.765Z</time>
      </trkpt>
      <trkpt lat="44.18183" lon="3.74132">
        <ele>341.881914</ele>
        <time>2020-03-09T14:42:45.472Z</time>
      </trkpt>
      <trkpt lat="44.1819" lon="3.74119">
        <ele>341.88976</ele>
        <time>2020-03-09T14:42:46.689Z</time>
      </trkpt>
      <trkpt lat="44.18201" lon="3.74098">
        <ele>341.90323</ele>
        <time>2020-03-09T14:42:49.546Z</time>
      </trkpt>
      <trkpt lat="44.18209" lon="3.74083">
        <ele>341.91225</ele>
        <time>2020-03-09T14:42:51.108Z</time>
      </trkpt>
      <trkpt lat="44.18205" lon="3.74086">
        <ele>341.927968</ele>
        <time>2020-03-09T14:42:51.606Z</time>
      </trkpt>
      <trkpt lat="44.18196" lon="3.74084">
        <ele>341.990371</ele>
        <time>2020-03-09T14:42:53.051Z</time>
      </trkpt>
      <trkpt lat="44.18187" lon="3.7408">
        <ele>342.049014</ele>
        <time>2020-03-09T14:42:54.440Z</time>
      </trkpt>
      <trkpt lat="44.18165" lon="3.74066">
        <ele>342.211413</ele>
        <time>2020-03-09T14:42:57.431Z</time>
      </trkpt>
      <trkpt lat="44.18146" lon="3.74054">
        <ele>342.347585</ele>
        <time>2020-03-09T14:43:01.079Z</time>
      </trkpt>
      <trkpt lat="44.18133" lon="3.74052">
        <ele>342.433989</ele>
        <time>2020-03-09T14:43:02.552Z</time>
      </trkpt>
      <trkpt lat="44.18121" lon="3.74056">
        <ele>342.517868</ele>
        <time>2020-03-09T14:43:04.629Z</time>
      </trkpt>
      <trkpt lat="44.18099" lon="3.74074">
        <ele>342.685354</ele>
        <time>2020-03-09T14:43:08.551Z</time>
      </trkpt>
      <trkpt lat="44.18091" lon="3.74081">
        <ele>342.750172</ele>
        <time>2020-03-09T14:43:10.782Z</time>
      </trkpt>
      <trkpt lat="44.18061" lon="3.74091">
        <ele>342.95429</ele>
        <time>2020-03-09T14:43:17.299Z</time>
      </trkpt>
      <trkpt lat="44.18017" lon="3.74075">
        <ele>344.029606</ele>
        <time>2020-03-09T14:43:28.215Z</time>
      </trkpt>
      <trkpt lat="44.1801" lon="3.74074">
        <ele>344.284836</ele>
        <time>2020-03-09T14:43:30.476Z</time>
      </trkpt>
      <trkpt lat="44.18006" lon="3.74076">
        <ele>344.452889</ele>
        <time>2020-03-09T14:43:31.720Z</time>
      </trkpt>
      <trkpt lat="44.17974" lon="3.7409">
        <ele>345.814431</ele>
        <time>2020-03-09T14:43:42.071Z</time>
      </trkpt>
      <trkpt lat="44.17948" lon="3.74107">
        <ele>346.997331</ele>
        <time>2020-03-09T14:43:50.904Z</time>
      </trkpt>
      <trkpt lat="44.17884" lon="3.74156">
        <ele>349.948857</ele>
        <time>2020-03-09T14:44:15.839Z</time>
      </trkpt>
      <trkpt lat="44.17877" lon="3.7417">
        <ele>350.440772</ele>
        <time>2020-03-09T14:44:21.656Z</time>
      </trkpt>
      <trkpt lat="44.17869" lon="3.74198">
        <ele>351.304421</ele>
        <time>2020-03-09T14:44:27.328Z</time>
      </trkpt>
      <trkpt lat="44.17864" lon="3.74212">
        <ele>351.759956</ele>
        <time>2020-03-09T14:44:32.715Z</time>
      </trkpt>
      <trkpt lat="44.17829" lon="3.74286">
        <ele>354.316804</ele>
        <time>2020-03-09T14:44:53.430Z</time>
      </trkpt>
      <trkpt lat="44.1782" lon="3.74392">
        <ele>357.411441</ele>
        <time>2020-03-09T14:45:16.879Z</time>
      </trkpt>
      <trkpt lat="44.17816" lon="3.7441">
        <ele>357.645336</ele>
        <time>2020-03-09T14:45:20.542Z</time>
      </trkpt>
      <trkpt lat="44.17813" lon="3.7443">
        <ele>357.66812</ele>
        <time>2020-03-09T14:45:23.493Z</time>
      </trkpt>
      <trkpt lat="44.17808" lon="3.74546">
        <ele>357.797258</ele>
        <time>2020-03-09T14:45:36.518Z</time>
      </trkpt>
      <trkpt lat="44.17795" lon="3.74593">
        <ele>357.854172</ele>
        <time>2020-03-09T14:45:41.265Z</time>
      </trkpt>
      <trkpt lat="44.17783" lon="3.74629">
        <ele>357.897693</ele>
        <time>2020-03-09T14:45:44.647Z</time>
      </trkpt>
      <trkpt lat="44.17755" lon="3.74697">
        <ele>356.942217</ele>
        <time>2020-03-09T14:45:50.710Z</time>
      </trkpt>
      <trkpt lat="44.17737" lon="3.74724">
        <ele>356.38506</ele>
        <time>2020-03-09T14:45:53.571Z</time>
      </trkpt>
      <trkpt lat="44.17713" lon="3.74734">
        <ele>355.859283</ele>
        <time>2020-03-09T14:45:56.245Z</time>
      </trkpt>
      <trkpt lat="44.17665" lon="3.74773">
        <ele>354.709485</ele>
        <time>2020-03-09T14:46:02.022Z</time>
      </trkpt>
      <trkpt lat="44.17626" lon="3.74788">
        <ele>354.193589</ele>
        <time>2020-03-09T14:46:06.542Z</time>
      </trkpt>
      <trkpt lat="44.17608" lon="3.74803">
        <ele>354.23431</ele>
        <time>2020-03-09T14:46:09.138Z</time>
      </trkpt>
      <trkpt lat="44.17571" lon="3.74858">
        <ele>354.33809</ele>
        <time>2020-03-09T14:46:15.955Z</time>
      </trkpt>
      <trkpt lat="44.17527" lon="3.74885">
        <ele>354.430446</ele>
        <time>2020-03-09T14:46:22.944Z</time>
      </trkpt>
      <trkpt lat="44.17513" lon="3.74902">
        <ele>354.464942</ele>
        <time>2020-03-09T14:46:25.795Z</time>
      </trkpt>
      <trkpt lat="44.175" lon="3.74934">
        <ele>354.67903</ele>
        <time>2020-03-09T14:46:32.976Z</time>
      </trkpt>
      <trkpt lat="44.17489" lon="3.74941">
        <ele>355.394062</ele>
        <time>2020-03-09T14:46:36.954Z</time>
      </trkpt>
      <trkpt lat="44.17428" lon="3.74933">
        <ele>358.872646</ele>
        <time>2020-03-09T14:46:58.963Z</time>
      </trkpt>
      <trkpt lat="44.17393" lon="3.74912">
        <ele>361.054003</ele>
        <time>2020-03-09T14:47:15.517Z</time>
      </trkpt>
      <trkpt lat="44.17372" lon="3.74909">
        <ele>362.209683</ele>
        <time>2020-03-09T14:47:22.176Z</time>
      </trkpt>
      <trkpt lat="44.17362" lon="3.74903">
        <ele>362.834917</ele>
        <time>2020-03-09T14:47:29.125Z</time>
      </trkpt>
      <trkpt lat="44.17353" lon="3.74903">
        <ele>363.336656</ele>
        <time>2020-03-09T14:47:33.548Z</time>
      </trkpt>
      <trkpt lat="44.17346" lon="3.7491">
        <ele>363.871642</ele>
        <time>2020-03-09T14:47:36.364Z</time>
      </trkpt>
      <trkpt lat="44.17342" lon="3.74922">
        <ele>364.410474</ele>
        <time>2020-03-09T14:47:39.561Z</time>
      </trkpt>
      <trkpt lat="44.17346" lon="3.74971">
        <ele>366.506582</ele>
        <time>2020-03-09T14:47:55.053Z</time>
      </trkpt>
      <trkpt lat="44.1735" lon="3.7498">
        <ele>366.971941</ele>
        <time>2020-03-09T14:48:00.352Z</time>
      </trkpt>
      <trkpt lat="44.17366" lon="3.75004">
        <ele>368.369674</ele>
        <time>2020-03-09T14:48:09.041Z</time>
      </trkpt>
      <trkpt lat="44.17427" lon="3.75046">
        <ele>372.436782</ele>
        <time>2020-03-09T14:48:38.485Z</time>
      </trkpt>
      <trkpt lat="44.17435" lon="3.75062">
        <ele>373.277209</ele>
        <time>2020-03-09T14:48:43.065Z</time>
      </trkpt>
      <trkpt lat="44.17406" lon="3.75181">
        <ele>377.768665</ele>
        <time>2020-03-09T14:49:08.447Z</time>
      </trkpt>
      <trkpt lat="44.17396" lon="3.7524">
        <ele>379.606573</ele>
        <time>2020-03-09T14:49:19.469Z</time>
      </trkpt>
      <trkpt lat="44.17379" lon="3.75285">
        <ele>381.133776</ele>
        <time>2020-03-09T14:49:29.941Z</time>
      </trkpt>
      <trkpt lat="44.17359" lon="3.75302">
        <ele>382.127316</ele>
        <time>2020-03-09T14:49:37.729Z</time>
      </trkpt>
      <trkpt lat="44.173" lon="3.75327">
        <ele>387.135362</ele>
        <time>2020-03-09T14:50:04.257Z</time>
      </trkpt>
      <trkpt lat="44.17286" lon="3.75325">
        <ele>388.536811</ele>
        <time>2020-03-09T14:50:10.858Z</time>
      </trkpt>
      <trkpt lat="44.17295" lon="3.75311">
        <ele>389.922456</ele>
        <time>2020-03-09T14:50:18.048Z</time>
      </trkpt>
      <trkpt lat="44.17314" lon="3.75302">
        <ele>392.01573</ele>
        <time>2020-03-09T14:50:28.969Z</time>
      </trkpt>
      <trkpt lat="44.17342" lon="3.75274">
        <ele>395.639071</ele>
        <time>2020-03-09T14:50:49.831Z</time>
      </trkpt>
      <trkpt lat="44.17351" lon="3.75259">
        <ele>397.118458</ele>
        <time>2020-03-09T14:50:59.229Z</time>
      </trkpt>
      <trkpt lat="44.17354" lon="3.75225">
        <ele>399.677514</ele>
        <time>2020-03-09T14:51:15.592Z</time>
      </trkpt>
      <trkpt lat="44.17351" lon="3.75134">
        <ele>407.917206</ele>
        <time>2020-03-09T14:52:02.806Z</time>
      </trkpt>
      <trkpt lat="44.17343" lon="3.75124">
        <ele>409.339391</ele>
        <time>2020-03-09T14:52:10.597Z</time>
      </trkpt>
      <trkpt lat="44.17259" lon="3.751">
        <ele>420.955315</ele>
        <time>2020-03-09T14:53:12.651Z</time>
      </trkpt>
      <trkpt lat="44.17221" lon="3.75107">
        <ele>426.196319</ele>
        <time>2020-03-09T14:53:38.062Z</time>
      </trkpt>
      <trkpt lat="44.17163" lon="3.75103">
        <ele>431.116771</ele>
        <time>2020-03-09T14:54:12.601Z</time>
      </trkpt>
      <trkpt lat="44.1712" lon="3.75111">
        <ele>434.769693</ele>
        <time>2020-03-09T14:54:34.645Z</time>
      </trkpt>
      <trkpt lat="44.17038" lon="3.75097">
        <ele>441.475552</ele>
        <time>2020-03-09T14:55:06.258Z</time>
      </trkpt>
      <trkpt lat="44.17038" lon="3.75108">
        <ele>441.804481</ele>
        <time>2020-03-09T14:55:08.759Z</time>
      </trkpt>
      <trkpt lat="44.17043" lon="3.75112">
        <ele>442.057387</ele>
        <time>2020-03-09T14:55:10.481Z</time>
      </trkpt>
      <trkpt lat="44.17106" lon="3.75146">
        <ele>444.935623</ele>
        <time>2020-03-09T14:55:30.838Z</time>
      </trkpt>
      <trkpt lat="44.17172" lon="3.75166">
        <ele>447.765997</ele>
        <time>2020-03-09T14:55:50.445Z</time>
      </trkpt>
      <trkpt lat="44.17186" lon="3.75177">
        <ele>448.456679</ele>
        <time>2020-03-09T14:55:54.885Z</time>
      </trkpt>
      <trkpt lat="44.17185" lon="3.75182">
        <ele>448.630056</ele>
        <time>2020-03-09T14:55:55.280Z</time>
      </trkpt>
      <trkpt lat="44.17182" lon="3.75185">
        <ele>448.776019</ele>
        <time>2020-03-09T14:55:58.067Z</time>
      </trkpt>
      <trkpt lat="44.1704" lon="3.75181">
        <ele>457.327813</ele>
        <time>2020-03-09T14:56:49.587Z</time>
      </trkpt>
      <trkpt lat="44.16961" lon="3.7516">
        <ele>463.604876</ele>
        <time>2020-03-09T14:57:28.816Z</time>
      </trkpt>
      <trkpt lat="44.16893" lon="3.75177">
        <ele>470.458298</ele>
        <time>2020-03-09T14:58:05.169Z</time>
      </trkpt>
      <trkpt lat="44.16853" lon="3.75174">
        <ele>474.328998</ele>
        <time>2020-03-09T14:58:26.891Z</time>
      </trkpt>
      <trkpt lat="44.16717" lon="3.75127">
        <ele>491.762462</ele>
        <time>2020-03-09T14:59:56.628Z</time>
      </trkpt>
      <trkpt lat="44.16665" lon="3.75096">
        <ele>499.242947</ele>
        <time>2020-03-09T15:00:39.109Z</time>
      </trkpt>
      <trkpt lat="44.16624" lon="3.75098">
        <ele>504.912802</ele>
        <time>2020-03-09T15:01:09.702Z</time>
      </trkpt>
      <trkpt lat="44.166" lon="3.751">
        <ele>508.144338</ele>
        <time>2020-03-09T15:01:26.031Z</time>
      </trkpt>
      <trkpt lat="44.16584" lon="3.75096">
        <ele>510.366273</ele>
        <time>2020-03-09T15:01:40.374Z</time>
      </trkpt>
      <trkpt lat="44.16518" lon="3.75057">
        <ele>520.3975</ele>
        <time>2020-03-09T15:02:32.527Z</time>
      </trkpt>
      <trkpt lat="44.16465" lon="3.7501">
        <ele>528.270887</ele>
        <time>2020-03-09T15:03:10.977Z</time>
      </trkpt>
      <trkpt lat="44.1646" lon="3.75011">
        <ele>528.834143</ele>
        <time>2020-03-09T15:03:16.413Z</time>
      </trkpt>
      <trkpt lat="44.16455" lon="3.75015">
        <ele>529.362624</ele>
        <time>2020-03-09T15:03:19.477Z</time>
      </trkpt>
      <trkpt lat="44.16456" lon="3.75031">
        <ele>530.507861</ele>
        <time>2020-03-09T15:03:23.671Z</time>
      </trkpt>
      <trkpt lat="44.16499" lon="3.75078">
        <ele>535.954826</ele>
        <time>2020-03-09T15:03:52.875Z</time>
      </trkpt>
      <trkpt lat="44.165" lon="3.75098">
        <ele>537.359462</ele>
        <time>2020-03-09T15:03:59.657Z</time>
      </trkpt>
      <trkpt lat="44.16491" lon="3.75105">
        <ele>538.382489</ele>
        <time>2020-03-09T15:04:04.741Z</time>
      </trkpt>
      <trkpt lat="44.16453" lon="3.75075">
        <ele>542.742867</ele>
        <time>2020-03-09T15:04:28.383Z</time>
      </trkpt>
      <trkpt lat="44.16432" lon="3.75065">
        <ele>545.027961</ele>
        <time>2020-03-09T15:04:40.115Z</time>
      </trkpt>
      <trkpt lat="44.16408" lon="3.75054">
        <ele>547.805667</ele>
        <time>2020-03-09T15:04:52.021Z</time>
      </trkpt>
      <trkpt lat="44.16387" lon="3.75042">
        <ele>550.380715</ele>
        <time>2020-03-09T15:05:04.669Z</time>
      </trkpt>
      <trkpt lat="44.16332" lon="3.74991">
        <ele>557.680531</ele>
        <time>2020-03-09T15:05:45.309Z</time>
      </trkpt>
      <trkpt lat="44.16317" lon="3.74982">
        <ele>559.412107</ele>
        <time>2020-03-09T15:05:55.215Z</time>
      </trkpt>
      <trkpt lat="44.16305" lon="3.74974">
        <ele>560.876786</ele>
        <time>2020-03-09T15:06:03.532Z</time>
      </trkpt>
      <trkpt lat="44.16276" lon="3.74935">
        <ele>565.379518</ele>
        <time>2020-03-09T15:06:30.538Z</time>
      </trkpt>
      <trkpt lat="44.16261" lon="3.74916">
        <ele>567.712007</ele>
        <time>2020-03-09T15:06:43.218Z</time>
      </trkpt>
      <trkpt lat="44.16245" lon="3.74899">
        <ele>569.970009</ele>
        <time>2020-03-09T15:06:54.956Z</time>
      </trkpt>
      <trkpt lat="44.16239" lon="3.74888">
        <ele>571.102889</ele>
        <time>2020-03-09T15:07:00.565Z</time>
      </trkpt>
      <trkpt lat="44.16203" lon="3.74738">
        <ele>583.930866</ele>
        <time>2020-03-09T15:08:08.927Z</time>
      </trkpt>
      <trkpt lat="44.16173" lon="3.74664">
        <ele>590.36083</ele>
        <time>2020-03-09T15:08:43.274Z</time>
      </trkpt>
      <trkpt lat="44.16168" lon="3.7466">
        <ele>590.983452</ele>
        <time>2020-03-09T15:08:46.574Z</time>
      </trkpt>
      <trkpt lat="44.16124" lon="3.74834">
        <ele>604.592648</ele>
        <time>2020-03-09T15:10:00.322Z</time>
      </trkpt>
      <trkpt lat="44.16103" lon="3.74853">
        <ele>606.937236</ele>
        <time>2020-03-09T15:10:14.428Z</time>
      </trkpt>
      <trkpt lat="44.1606" lon="3.74867">
        <ele>611.184375</ele>
        <time>2020-03-09T15:10:39.551Z</time>
      </trkpt>
      <trkpt lat="44.15977" lon="3.74963">
        <ele>621.004896</ele>
        <time>2020-03-09T15:11:34.902Z</time>
      </trkpt>
      <trkpt lat="44.15976" lon="3.74981">
        <ele>621.860283</ele>
        <time>2020-03-09T15:11:40.623Z</time>
      </trkpt>
      <trkpt lat="44.15981" lon="3.75014">
        <ele>623.45484</ele>
        <time>2020-03-09T15:11:50.988Z</time>
      </trkpt>
      <trkpt lat="44.15961" lon="3.75105">
        <ele>627.91017</ele>
        <time>2020-03-09T15:12:17.705Z</time>
      </trkpt>
      <trkpt lat="44.15946" lon="3.75134">
        <ele>629.56662</ele>
        <time>2020-03-09T15:12:26.998Z</time>
      </trkpt>
      <trkpt lat="44.15893" lon="3.75164">
        <ele>633.515465</ele>
        <time>2020-03-09T15:12:46.831Z</time>
      </trkpt>
      <trkpt lat="44.15713" lon="3.75204">
        <ele>648.497822</ele>
        <time>2020-03-09T15:14:09.081Z</time>
      </trkpt>
      <trkpt lat="44.15673" lon="3.75195">
        <ele>653.854553</ele>
        <time>2020-03-09T15:14:35.643Z</time>
      </trkpt>
      <trkpt lat="44.15643" lon="3.75146">
        <ele>660.037372</ele>
        <time>2020-03-09T15:15:09.427Z</time>
      </trkpt>
      <trkpt lat="44.15591" lon="3.7513">
        <ele>667.131221</ele>
        <time>2020-03-09T15:15:50.870Z</time>
      </trkpt>
      <trkpt lat="44.15566" lon="3.7511">
        <ele>671.01206</ele>
        <time>2020-03-09T15:16:14.508Z</time>
      </trkpt>
      <trkpt lat="44.15532" lon="3.75122">
        <ele>675.719939</ele>
        <time>2020-03-09T15:16:41.883Z</time>
      </trkpt>
      <trkpt lat="44.15478" lon="3.75199">
        <ele>686.018192</ele>
        <time>2020-03-09T15:17:36.450Z</time>
      </trkpt>
      <trkpt lat="44.15432" lon="3.75228">
        <ele>692.682745</ele>
        <time>2020-03-09T15:18:07.079Z</time>
      </trkpt>
      <trkpt lat="44.15409" lon="3.75262">
        <ele>695.259876</ele>
        <time>2020-03-09T15:18:25.027Z</time>
      </trkpt>
      <trkpt lat="44.15373" lon="3.75317">
        <ele>698.706294</ele>
        <time>2020-03-09T15:18:49.441Z</time>
      </trkpt>
      <trkpt lat="44.15383" lon="3.75266">
        <ele>701.138289</ele>
        <time>2020-03-09T15:19:03.244Z</time>
      </trkpt>
      <trkpt lat="44.15397" lon="3.75232">
        <ele>702.945183</ele>
        <time>2020-03-09T15:19:12.255Z</time>
      </trkpt>
      <trkpt lat="44.15437" lon="3.75187">
        <ele>705.59234</ele>
        <time>2020-03-09T15:19:27.025Z</time>
      </trkpt>
      <trkpt lat="44.15494" lon="3.75069">
        <ele>708.396368</ele>
        <time>2020-03-09T15:19:51.501Z</time>
      </trkpt>
      <trkpt lat="44.15521" lon="3.75035">
        <ele>709.404273</ele>
        <time>2020-03-09T15:20:00.336Z</time>
      </trkpt>
      <trkpt lat="44.15543" lon="3.75018">
        <ele>710.181703</ele>
        <time>2020-03-09T15:20:06.694Z</time>
      </trkpt>
      <trkpt lat="44.15593" lon="3.75031">
        <ele>713.121895</ele>
        <time>2020-03-09T15:20:21.224Z</time>
      </trkpt>
      <trkpt lat="44.1562" lon="3.75028">
        <ele>714.676338</ele>
        <time>2020-03-09T15:20:30.439Z</time>
      </trkpt>
      <trkpt lat="44.1566" lon="3.75009">
        <ele>717.106949</ele>
        <time>2020-03-09T15:20:47.112Z</time>
      </trkpt>
      <trkpt lat="44.15676" lon="3.74988">
        <ele>718.391079</ele>
        <time>2020-03-09T15:20:57.309Z</time>
      </trkpt>
      <trkpt lat="44.1569" lon="3.74958">
        <ele>719.856404</ele>
        <time>2020-03-09T15:21:09.496Z</time>
      </trkpt>
      <trkpt lat="44.15694" lon="3.74928">
        <ele>721.530525</ele>
        <time>2020-03-09T15:21:20.180Z</time>
      </trkpt>
      <trkpt lat="44.15689" lon="3.74875">
        <ele>725.155302</ele>
        <time>2020-03-09T15:21:40.241Z</time>
      </trkpt>
      <trkpt lat="44.15695" lon="3.74782">
        <ele>731.41975</ele>
        <time>2020-03-09T15:22:15.832Z</time>
      </trkpt>
      <trkpt lat="44.15684" lon="3.74673">
        <ele>738.769276</ele>
        <time>2020-03-09T15:22:58.935Z</time>
      </trkpt>
      <trkpt lat="44.15704" lon="3.74575">
        <ele>745.287556</ele>
        <time>2020-03-09T15:23:36.911Z</time>
      </trkpt>
      <trkpt lat="44.15703" lon="3.74507">
        <ele>749.633061</ele>
        <time>2020-03-09T15:24:01.030Z</time>
      </trkpt>
      <trkpt lat="44.15695" lon="3.74433">
        <ele>754.288718</ele>
        <time>2020-03-09T15:24:26.768Z</time>
      </trkpt>
      <trkpt lat="44.15705" lon="3.74343">
        <ele>759.299009</ele>
        <time>2020-03-09T15:24:57.286Z</time>
      </trkpt>
      <trkpt lat="44.15694" lon="3.74155">
        <ele>769.352065</ele>
        <time>2020-03-09T15:25:58.101Z</time>
      </trkpt>
      <trkpt lat="44.15698" lon="3.74088">
        <ele>772.473337</ele>
        <time>2020-03-09T15:26:18.074Z</time>
      </trkpt>
      <trkpt lat="44.15683" lon="3.74012">
        <ele>776.067061</ele>
        <time>2020-03-09T15:26:40.448Z</time>
      </trkpt>
      <trkpt lat="44.15662" lon="3.73938">
        <ele>779.468309</ele>
        <time>2020-03-09T15:27:02.440Z</time>
      </trkpt>
      <trkpt lat="44.15655" lon="3.7382">
        <ele>783.257043</ele>
        <time>2020-03-09T15:27:32.240Z</time>
      </trkpt>
      <trkpt lat="44.15661" lon="3.73747">
        <ele>785.588934</ele>
        <time>2020-03-09T15:27:48.381Z</time>
      </trkpt>
      <trkpt lat="44.15687" lon="3.73649">
        <ele>787.64052</ele>
        <time>2020-03-09T15:28:08.230Z</time>
      </trkpt>
      <trkpt lat="44.1571" lon="3.73517">
        <ele>789.324585</ele>
        <time>2020-03-09T15:28:28.294Z</time>
      </trkpt>
      <trkpt lat="44.15724" lon="3.73484">
        <ele>789.799638</ele>
        <time>2020-03-09T15:28:33.222Z</time>
      </trkpt>
      <trkpt lat="44.15752" lon="3.73446">
        <ele>790.198544</ele>
        <time>2020-03-09T15:28:40.047Z</time>
      </trkpt>
      <trkpt lat="44.15772" lon="3.73428">
        <ele>790.391536</ele>
        <time>2020-03-09T15:28:43.928Z</time>
      </trkpt>
      <trkpt lat="44.15854" lon="3.73378">
        <ele>791.134586</ele>
        <time>2020-03-09T15:28:59.272Z</time>
      </trkpt>
      <trkpt lat="44.15901" lon="3.73331">
        <ele>791.834863</ele>
        <time>2020-03-09T15:29:10.846Z</time>
      </trkpt>
      <trkpt lat="44.15946" lon="3.73272">
        <ele>792.966332</ele>
        <time>2020-03-09T15:29:24.764Z</time>
      </trkpt>
      <trkpt lat="44.15982" lon="3.73244">
        <ele>793.715983</ele>
        <time>2020-03-09T15:29:34.345Z</time>
      </trkpt>
      <trkpt lat="44.16029" lon="3.73218">
        <ele>794.645587</ele>
        <time>2020-03-09T15:29:47.176Z</time>
      </trkpt>
      <trkpt lat="44.16053" lon="3.73192">
        <ele>794.515757</ele>
        <time>2020-03-09T15:29:54.222Z</time>
      </trkpt>
      <trkpt lat="44.16067" lon="3.73156">
        <ele>794.315627</ele>
        <time>2020-03-09T15:29:58.890Z</time>
      </trkpt>
      <trkpt lat="44.16079" lon="3.73067">
        <ele>793.874466</ele>
        <time>2020-03-09T15:30:06.716Z</time>
      </trkpt>
      <trkpt lat="44.16094" lon="3.73017">
        <ele>793.611288</ele>
        <time>2020-03-09T15:30:10.998Z</time>
      </trkpt>
      <trkpt lat="44.16118" lon="3.72988">
        <ele>793.271706</ele>
        <time>2020-03-09T15:30:14.319Z</time>
      </trkpt>
      <trkpt lat="44.16165" lon="3.72951">
        <ele>792.407843</ele>
        <time>2020-03-09T15:30:19.863Z</time>
      </trkpt>
      <trkpt lat="44.16197" lon="3.72935">
        <ele>791.846326</ele>
        <time>2020-03-09T15:30:23.544Z</time>
      </trkpt>
      <trkpt lat="44.16266" lon="3.72932">
        <ele>790.731042</ele>
        <time>2020-03-09T15:30:31.122Z</time>
      </trkpt>
      <trkpt lat="44.16292" lon="3.72924">
        <ele>791.124847</ele>
        <time>2020-03-09T15:30:36.130Z</time>
      </trkpt>
      <trkpt lat="44.16315" lon="3.72899">
        <ele>792.204272</ele>
        <time>2020-03-09T15:30:43.213Z</time>
      </trkpt>
      <trkpt lat="44.16371" lon="3.72777">
        <ele>795.99295</ele>
        <time>2020-03-09T15:31:17.304Z</time>
      </trkpt>
      <trkpt lat="44.16409" lon="3.72733">
        <ele>798.085632</ele>
        <time>2020-03-09T15:31:35.574Z</time>
      </trkpt>
      <trkpt lat="44.16461" lon="3.72692">
        <ele>801.250123</ele>
        <time>2020-03-09T15:31:59.135Z</time>
      </trkpt>
      <trkpt lat="44.16486" lon="3.72662">
        <ele>802.986224</ele>
        <time>2020-03-09T15:32:12.020Z</time>
      </trkpt>
      <trkpt lat="44.16508" lon="3.72622">
        <ele>804.882597</ele>
        <time>2020-03-09T15:32:25.079Z</time>
      </trkpt>
      <trkpt lat="44.16523" lon="3.72551">
        <ele>807.198802</ele>
        <time>2020-03-09T15:32:40.941Z</time>
      </trkpt>
      <trkpt lat="44.16522" lon="3.7253">
        <ele>807.661589</ele>
        <time>2020-03-09T15:32:46.493Z</time>
      </trkpt>
      <trkpt lat="44.16508" lon="3.72292">
        <ele>812.775518</ele>
        <time>2020-03-09T15:33:29.149Z</time>
      </trkpt>
      <trkpt lat="44.16506" lon="3.72191">
        <ele>814.868683</ele>
        <time>2020-03-09T15:33:46.401Z</time>
      </trkpt>
      <trkpt lat="44.16517" lon="3.7214">
        <ele>815.985216</ele>
        <time>2020-03-09T15:33:56.903Z</time>
      </trkpt>
      <trkpt lat="44.16565" lon="3.72042">
        <ele>818.967983</ele>
        <time>2020-03-09T15:34:22.973Z</time>
      </trkpt>
      <trkpt lat="44.16576" lon="3.72011">
        <ele>819.963257</ele>
        <time>2020-03-09T15:34:30.750Z</time>
      </trkpt>
      <trkpt lat="44.16586" lon="3.71981">
        <ele>820.946287</ele>
        <time>2020-03-09T15:34:38.528Z</time>
      </trkpt>
      <trkpt lat="44.16592" lon="3.71913">
        <ele>822.943111</ele>
        <time>2020-03-09T15:34:54.348Z</time>
      </trkpt>
      <trkpt lat="44.16571" lon="3.7169">
        <ele>829.261874</ele>
        <time>2020-03-09T15:35:43.971Z</time>
      </trkpt>
      <trkpt lat="44.16574" lon="3.71638">
        <ele>830.71115</ele>
        <time>2020-03-09T15:35:55.042Z</time>
      </trkpt>
      <trkpt lat="44.1659" lon="3.71544">
        <ele>833.038618</ele>
        <time>2020-03-09T15:36:15.264Z</time>
      </trkpt>
      <trkpt lat="44.16584" lon="3.71492">
        <ele>834.221073</ele>
        <time>2020-03-09T15:36:26.047Z</time>
      </trkpt>
      <trkpt lat="44.16491" lon="3.71249">
        <ele>839.273382</ele>
        <time>2020-03-09T15:37:16.945Z</time>
      </trkpt>
      <trkpt lat="44.16473" lon="3.71192">
        <ele>840.179947</ele>
        <time>2020-03-09T15:37:26.152Z</time>
      </trkpt>
      <trkpt lat="44.16469" lon="3.71136">
        <ele>840.849565</ele>
        <time>2020-03-09T15:37:33.907Z</time>
      </trkpt>
      <trkpt lat="44.16475" lon="3.71055">
        <ele>841.161959</ele>
        <time>2020-03-09T15:37:44.050Z</time>
      </trkpt>
      <trkpt lat="44.16493" lon="3.70958">
        <ele>841.545202</ele>
        <time>2020-03-09T15:37:55.506Z</time>
      </trkpt>
      <trkpt lat="44.16518" lon="3.70879">
        <ele>841.825715</ele>
        <time>2020-03-09T15:38:05.466Z</time>
      </trkpt>
      <trkpt lat="44.16529" lon="3.70773">
        <ele>842.066373</ele>
        <time>2020-03-09T15:38:18.363Z</time>
      </trkpt>
      <trkpt lat="44.16541" lon="3.70721">
        <ele>842.190629</ele>
        <time>2020-03-09T15:38:24.720Z</time>
      </trkpt>
      <trkpt lat="44.16591" lon="3.70592">
        <ele>842.134135</ele>
        <time>2020-03-09T15:38:40.575Z</time>
      </trkpt>
      <trkpt lat="44.16621" lon="3.70532">
        <ele>841.98355</ele>
        <time>2020-03-09T15:38:47.766Z</time>
      </trkpt>
      <trkpt lat="44.16713" lon="3.70411">
        <ele>841.583023</ele>
        <time>2020-03-09T15:39:04.180Z</time>
      </trkpt>
      <trkpt lat="44.16792" lon="3.70263">
        <ele>841.328593</ele>
        <time>2020-03-09T15:39:22.462Z</time>
      </trkpt>
      <trkpt lat="44.16877" lon="3.70178">
        <ele>842.338795</ele>
        <time>2020-03-09T15:39:40.435Z</time>
      </trkpt>
      <trkpt lat="44.16965" lon="3.70058">
        <ele>844.284356</ele>
        <time>2020-03-09T15:40:08.974Z</time>
      </trkpt>
      <trkpt lat="44.16995" lon="3.69996">
        <ele>845.449471</ele>
        <time>2020-03-09T15:40:22.635Z</time>
      </trkpt>
      <trkpt lat="44.17031" lon="3.69867">
        <ele>847.064912</ele>
        <time>2020-03-09T15:40:46.284Z</time>
      </trkpt>
      <trkpt lat="44.17042" lon="3.69494">
        <ele>847.767083</ele>
        <time>2020-03-09T15:41:27.523Z</time>
      </trkpt>
      <trkpt lat="44.17044" lon="3.69473">
        <ele>847.736502</ele>
        <time>2020-03-09T15:41:29.280Z</time>
      </trkpt>
      <trkpt lat="44.17047" lon="3.69434">
        <ele>847.680949</ele>
        <time>2020-03-09T15:41:32.964Z</time>
      </trkpt>
      <trkpt lat="44.17065" lon="3.69389">
        <ele>847.544269</ele>
        <time>2020-03-09T15:41:37.582Z</time>
      </trkpt>
      <trkpt lat="44.17113" lon="3.69279">
        <ele>847.113954</ele>
        <time>2020-03-09T15:41:49.130Z</time>
      </trkpt>
      <trkpt lat="44.17161" lon="3.69221">
        <ele>846.823913</ele>
        <time>2020-03-09T15:41:58.717Z</time>
      </trkpt>
      <trkpt lat="44.17173" lon="3.69211">
        <ele>846.933097</ele>
        <time>2020-03-09T15:42:00.745Z</time>
      </trkpt>
      <trkpt lat="44.17275" lon="3.69123">
        <ele>847.828414</ele>
        <time>2020-03-09T15:42:21.689Z</time>
      </trkpt>
      <trkpt lat="44.17333" lon="3.6904">
        <ele>848.522147</ele>
        <time>2020-03-09T15:42:38.680Z</time>
      </trkpt>
      <trkpt lat="44.17447" lon="3.68911">
        <ele>849.860337</ele>
        <time>2020-03-09T15:43:06.639Z</time>
      </trkpt>
      <trkpt lat="44.17599" lon="3.68758">
        <ele>849.353655</ele>
        <time>2020-03-09T15:43:32.147Z</time>
      </trkpt>
      <trkpt lat="44.17701" lon="3.68724">
        <ele>848.525691</ele>
        <time>2020-03-09T15:43:45.143Z</time>
      </trkpt>
      <trkpt lat="44.1788" lon="3.68562">
        <ele>846.553277</ele>
        <time>2020-03-09T15:44:12.060Z</time>
      </trkpt>
      <trkpt lat="44.18038" lon="3.68432">
        <ele>843.947817</ele>
        <time>2020-03-09T15:44:32.552Z</time>
      </trkpt>
      <trkpt lat="44.18062" lon="3.68423">
        <ele>843.561982</ele>
        <time>2020-03-09T15:44:35.435Z</time>
      </trkpt>
      <trkpt lat="44.18087" lon="3.68423">
        <ele>844.108933</ele>
        <time>2020-03-09T15:44:38.409Z</time>
      </trkpt>
      <trkpt lat="44.18161" lon="3.68447">
        <ele>845.853453</ele>
        <time>2020-03-09T15:44:53.052Z</time>
      </trkpt>
      <trkpt lat="44.18191" lon="3.6846">
        <ele>846.566459</ele>
        <time>2020-03-09T15:45:03.392Z</time>
      </trkpt>
      <trkpt lat="44.18229" lon="3.68455">
        <ele>847.443329</ele>
        <time>2020-03-09T15:45:15.475Z</time>
      </trkpt>
      <trkpt lat="44.18242" lon="3.68444">
        <ele>847.977821</ele>
        <time>2020-03-09T15:45:21.452Z</time>
      </trkpt>
      <trkpt lat="44.18257" lon="3.68417">
        <ele>849.344291</ele>
        <time>2020-03-09T15:45:29.406Z</time>
      </trkpt>
      <trkpt lat="44.1826" lon="3.68407">
        <ele>849.781542</ele>
        <time>2020-03-09T15:45:34.000Z</time>
      </trkpt>
      <trkpt lat="44.18262" lon="3.68399">
        <ele>850.131524</ele>
        <time>2020-03-09T15:45:36.151Z</time>
      </trkpt>
      <trkpt lat="44.18263" lon="3.68387">
        <ele>850.608271</ele>
        <time>2020-03-09T15:45:40.693Z</time>
      </trkpt>
      <trkpt lat="44.18271" lon="3.68202">
        <ele>857.924909</ele>
        <time>2020-03-09T15:46:34.818Z</time>
      </trkpt>
      <trkpt lat="44.183" lon="3.67962">
        <ele>860.191847</ele>
        <time>2020-03-09T15:47:07.074Z</time>
      </trkpt>
      <trkpt lat="44.18294" lon="3.67831">
        <ele>857.849346</ele>
        <time>2020-03-09T15:47:17.281Z</time>
      </trkpt>
      <trkpt lat="44.18302" lon="3.67775">
        <ele>856.835442</ele>
        <time>2020-03-09T15:47:21.417Z</time>
      </trkpt>
      <trkpt lat="44.18347" lon="3.67626">
        <ele>853.353274</ele>
        <time>2020-03-09T15:47:32.821Z</time>
      </trkpt>
      <trkpt lat="44.18407" lon="3.67539">
        <ele>850.466385</ele>
        <time>2020-03-09T15:47:41.481Z</time>
      </trkpt>
      <trkpt lat="44.18496" lon="3.67354">
        <ele>846.487196</ele>
        <time>2020-03-09T15:47:58.964Z</time>
      </trkpt>
      <trkpt lat="44.18556" lon="3.67248">
        <ele>843.420881</ele>
        <time>2020-03-09T15:48:09.083Z</time>
      </trkpt>
      <trkpt lat="44.18591" lon="3.67178">
        <ele>841.08942</ele>
        <time>2020-03-09T15:48:15.175Z</time>
      </trkpt>
      <trkpt lat="44.18627" lon="3.67091">
        <ele>838.155153</ele>
        <time>2020-03-09T15:48:22.068Z</time>
      </trkpt>
      <trkpt lat="44.18648" lon="3.67016">
        <ele>834.718308</ele>
        <time>2020-03-09T15:48:27.359Z</time>
      </trkpt>
      <trkpt lat="44.18653" lon="3.67004">
        <ele>834.128924</ele>
        <time>2020-03-09T15:48:28.255Z</time>
      </trkpt>
      <trkpt lat="44.18665" lon="3.6698">
        <ele>832.851551</ele>
        <time>2020-03-09T15:48:30.235Z</time>
      </trkpt>
      <trkpt lat="44.18692" lon="3.66947">
        <ele>830.729139</ele>
        <time>2020-03-09T15:48:33.495Z</time>
      </trkpt>
      <trkpt lat="44.18757" lon="3.66917">
        <ele>826.670648</ele>
        <time>2020-03-09T15:48:39.671Z</time>
      </trkpt>
      <trkpt lat="44.18781" lon="3.66911">
        <ele>825.196994</ele>
        <time>2020-03-09T15:48:41.919Z</time>
      </trkpt>
      <trkpt lat="44.1886" lon="3.66928">
        <ele>820.449727</ele>
        <time>2020-03-09T15:48:49.217Z</time>
      </trkpt>
      <trkpt lat="44.19102" lon="3.66846">
        <ele>809.044939</ele>
        <time>2020-03-09T15:49:12.741Z</time>
      </trkpt>
      <trkpt lat="44.19221" lon="3.66779">
        <ele>808.060106</ele>
        <time>2020-03-09T15:49:29.311Z</time>
      </trkpt>
      <trkpt lat="44.19249" lon="3.66757">
        <ele>807.816036</ele>
        <time>2020-03-09T15:49:35.718Z</time>
      </trkpt>
      <trkpt lat="44.19283" lon="3.66709">
        <ele>808.391923</ele>
        <time>2020-03-09T15:49:46.765Z</time>
      </trkpt>
      <trkpt lat="44.19314" lon="3.66657">
        <ele>809.081909</ele>
        <time>2020-03-09T15:49:57.690Z</time>
      </trkpt>
      <trkpt lat="44.1933" lon="3.66611">
        <ele>809.602995</ele>
        <time>2020-03-09T15:50:05.966Z</time>
      </trkpt>
      <trkpt lat="44.19338" lon="3.66547">
        <ele>810.27311</ele>
        <time>2020-03-09T15:50:15.919Z</time>
      </trkpt>
      <trkpt lat="44.19345" lon="3.66434">
        <ele>809.068686</ele>
        <time>2020-03-09T15:50:27.464Z</time>
      </trkpt>
      <trkpt lat="44.19338" lon="3.66323">
        <ele>807.741001</ele>
        <time>2020-03-09T15:50:36.004Z</time>
      </trkpt>
      <trkpt lat="44.19343" lon="3.66254">
        <ele>805.87494</ele>
        <time>2020-03-09T15:50:40.839Z</time>
      </trkpt>
      <trkpt lat="44.19368" lon="3.66084">
        <ele>798.814751</ele>
        <time>2020-03-09T15:50:52.381Z</time>
      </trkpt>
      <trkpt lat="44.19379" lon="3.66041">
        <ele>796.897406</ele>
        <time>2020-03-09T15:50:55.325Z</time>
      </trkpt>
      <trkpt lat="44.1947" lon="3.65846">
        <ele>783.759894</ele>
        <time>2020-03-09T15:51:10.078Z</time>
      </trkpt>
      <trkpt lat="44.19477" lon="3.65829">
        <ele>782.66051</ele>
        <time>2020-03-09T15:51:11.299Z</time>
      </trkpt>
      <trkpt lat="44.19481" lon="3.65811">
        <ele>781.667196</ele>
        <time>2020-03-09T15:51:12.446Z</time>
      </trkpt>
      <trkpt lat="44.19482" lon="3.65805">
        <ele>781.291022</ele>
        <time>2020-03-09T15:51:12.893Z</time>
      </trkpt>
      <trkpt lat="44.19485" lon="3.65794">
        <ele>780.653167</ele>
        <time>2020-03-09T15:51:13.626Z</time>
      </trkpt>
      <trkpt lat="44.19491" lon="3.65763">
        <ele>778.890124</ele>
        <time>2020-03-09T15:51:15.642Z</time>
      </trkpt>
      <trkpt lat="44.19495" lon="3.65716">
        <ele>776.275224</ele>
        <time>2020-03-09T15:51:18.672Z</time>
      </trkpt>
      <trkpt lat="44.19499" lon="3.65662">
        <ele>773.299481</ele>
        <time>2020-03-09T15:51:22.175Z</time>
      </trkpt>
      <trkpt lat="44.19502" lon="3.65632">
        <ele>771.640623</ele>
        <time>2020-03-09T15:51:24.040Z</time>
      </trkpt>
      <trkpt lat="44.19505" lon="3.65607">
        <ele>770.217055</ele>
        <time>2020-03-09T15:51:25.753Z</time>
      </trkpt>
      <trkpt lat="44.19506" lon="3.65602">
        <ele>769.938942</ele>
        <time>2020-03-09T15:51:26.053Z</time>
      </trkpt>
      <trkpt lat="44.19514" lon="3.65534">
        <ele>767.920357</ele>
        <time>2020-03-09T15:51:30.515Z</time>
      </trkpt>
      <trkpt lat="44.19519" lon="3.65487">
        <ele>766.840549</ele>
        <time>2020-03-09T15:51:33.632Z</time>
      </trkpt>
      <trkpt lat="44.19519" lon="3.65461">
        <ele>766.248627</ele>
        <time>2020-03-09T15:51:36.738Z</time>
      </trkpt>
      <trkpt lat="44.19512" lon="3.6546">
        <ele>766.012153</ele>
        <time>2020-03-09T15:51:37.374Z</time>
      </trkpt>
      <trkpt lat="44.19489" lon="3.65437">
        <ele>765.128224</ele>
        <time>2020-03-09T15:51:42.456Z</time>
      </trkpt>
      <trkpt lat="44.19483" lon="3.65406">
        <ele>764.385875</ele>
        <time>2020-03-09T15:51:44.829Z</time>
      </trkpt>
      <trkpt lat="44.19483" lon="3.65358">
        <ele>763.610828</ele>
        <time>2020-03-09T15:51:50.763Z</time>
      </trkpt>
      <trkpt lat="44.19483" lon="3.65312">
        <ele>764.473793</ele>
        <time>2020-03-09T15:51:57.830Z</time>
      </trkpt>
      <trkpt lat="44.19482" lon="3.65298">
        <ele>764.733007</ele>
        <time>2020-03-09T15:52:00.269Z</time>
      </trkpt>
      <trkpt lat="44.19481" lon="3.65292">
        <ele>764.841029</ele>
        <time>2020-03-09T15:52:03.496Z</time>
      </trkpt>
      <trkpt lat="44.19474" lon="3.65258">
        <ele>765.494751</ele>
        <time>2020-03-09T15:52:06.802Z</time>
      </trkpt>
      <trkpt lat="44.19452" lon="3.6521">
        <ele>766.545992</ele>
        <time>2020-03-09T15:52:18.861Z</time>
      </trkpt>
      <trkpt lat="44.19439" lon="3.65187">
        <ele>767.1017</ele>
        <time>2020-03-09T15:52:26.574Z</time>
      </trkpt>
      <trkpt lat="44.19396" lon="3.65138">
        <ele>767.93954</ele>
        <time>2020-03-09T15:52:46.514Z</time>
      </trkpt>
      <trkpt lat="44.19381" lon="3.6511">
        <ele>767.624183</ele>
        <time>2020-03-09T15:52:51.094Z</time>
      </trkpt>
      <trkpt lat="44.19373" lon="3.65105">
        <ele>767.513447</ele>
        <time>2020-03-09T15:52:52.599Z</time>
      </trkpt>
      <trkpt lat="44.19359" lon="3.65117">
        <ele>767.31841</ele>
        <time>2020-03-09T15:52:54.187Z</time>
      </trkpt>
      <trkpt lat="44.19338" lon="3.65239">
        <ele>766.196846</ele>
        <time>2020-03-09T15:53:03.681Z</time>
      </trkpt>
      <trkpt lat="44.19329" lon="3.65261">
        <ele>765.973577</ele>
        <time>2020-03-09T15:53:05.377Z</time>
      </trkpt>
      <trkpt lat="44.19313" lon="3.65287">
        <ele>765.081534</ele>
        <time>2020-03-09T15:53:07.849Z</time>
      </trkpt>
      <trkpt lat="44.19296" lon="3.65315">
        <ele>763.919132</ele>
        <time>2020-03-09T15:53:10.435Z</time>
      </trkpt>
      <trkpt lat="44.1927" lon="3.65344">
        <ele>762.497575</ele>
        <time>2020-03-09T15:53:13.525Z</time>
      </trkpt>
      <trkpt lat="44.1925" lon="3.65341">
        <ele>761.587225</ele>
        <time>2020-03-09T15:53:15.466Z</time>
      </trkpt>
      <trkpt lat="44.19229" lon="3.65324">
        <ele>760.544579</ele>
        <time>2020-03-09T15:53:17.772Z</time>
      </trkpt>
      <trkpt lat="44.1921" lon="3.65301">
        <ele>759.474297</ele>
        <time>2020-03-09T15:53:20.041Z</time>
      </trkpt>
      <trkpt lat="44.19214" lon="3.6524">
        <ele>757.389441</ele>
        <time>2020-03-09T15:53:24.507Z</time>
      </trkpt>
      <trkpt lat="44.19206" lon="3.6523">
        <ele>756.80861</ele>
        <time>2020-03-09T15:53:25.576Z</time>
      </trkpt>
      <trkpt lat="44.19198" lon="3.65229">
        <ele>756.299315</ele>
        <time>2020-03-09T15:53:26.507Z</time>
      </trkpt>
      <trkpt lat="44.19183" lon="3.65239">
        <ele>755.366713</ele>
        <time>2020-03-09T15:53:28.142Z</time>
      </trkpt>
      <trkpt lat="44.19149" lon="3.65297">
        <ele>752.26447</ele>
        <time>2020-03-09T15:53:33.263Z</time>
      </trkpt>
      <trkpt lat="44.19121" lon="3.65368">
        <ele>748.928439</ele>
        <time>2020-03-09T15:53:38.493Z</time>
      </trkpt>
      <trkpt lat="44.19081" lon="3.6543">
        <ele>744.361406</ele>
        <time>2020-03-09T15:53:43.741Z</time>
      </trkpt>
      <trkpt lat="44.19059" lon="3.65454">
        <ele>741.972645</ele>
        <time>2020-03-09T15:53:46.145Z</time>
      </trkpt>
      <trkpt lat="44.18964" lon="3.65517">
        <ele>732.950169</ele>
        <time>2020-03-09T15:53:55.280Z</time>
      </trkpt>
      <trkpt lat="44.18924" lon="3.65554">
        <ele>729.642437</ele>
        <time>2020-03-09T15:53:59.571Z</time>
      </trkpt>
      <trkpt lat="44.18911" lon="3.65551">
        <ele>728.768956</ele>
        <time>2020-03-09T15:54:00.780Z</time>
      </trkpt>
      <trkpt lat="44.18907" lon="3.65541">
        <ele>728.264584</ele>
        <time>2020-03-09T15:54:01.485Z</time>
      </trkpt>
      <trkpt lat="44.18921" lon="3.65461">
        <ele>724.406578</ele>
        <time>2020-03-09T15:54:06.965Z</time>
      </trkpt>
      <trkpt lat="44.18919" lon="3.65451">
        <ele>723.94927</ele>
        <time>2020-03-09T15:54:07.622Z</time>
      </trkpt>
      <trkpt lat="44.18907" lon="3.65441">
        <ele>723.0223</ele>
        <time>2020-03-09T15:54:08.963Z</time>
      </trkpt>
      <trkpt lat="44.18869" lon="3.65445">
        <ele>720.525524</ele>
        <time>2020-03-09T15:54:12.566Z</time>
      </trkpt>
      <trkpt lat="44.18838" lon="3.65425">
        <ele>718.085855</ele>
        <time>2020-03-09T15:54:15.786Z</time>
      </trkpt>
      <trkpt lat="44.18828" lon="3.65436">
        <ele>717.208999</ele>
        <time>2020-03-09T15:54:16.932Z</time>
      </trkpt>
      <trkpt lat="44.18824" lon="3.65475">
        <ele>715.187246</ele>
        <time>2020-03-09T15:54:19.515Z</time>
      </trkpt>
      <trkpt lat="44.18806" lon="3.65516">
        <ele>712.751665</ele>
        <time>2020-03-09T15:54:22.579Z</time>
      </trkpt>
      <trkpt lat="44.18795" lon="3.65534">
        <ele>711.568549</ele>
        <time>2020-03-09T15:54:24.047Z</time>
      </trkpt>
      <trkpt lat="44.18771" lon="3.65557">
        <ele>709.506124</ele>
        <time>2020-03-09T15:54:26.610Z</time>
      </trkpt>
      <trkpt lat="44.18739" lon="3.65567">
        <ele>706.962149</ele>
        <time>2020-03-09T15:54:29.526Z</time>
      </trkpt>
      <trkpt lat="44.18704" lon="3.65553">
        <ele>703.706452</ele>
        <time>2020-03-09T15:54:32.689Z</time>
      </trkpt>
      <trkpt lat="44.18688" lon="3.65556">
        <ele>702.230345</ele>
        <time>2020-03-09T15:54:34.117Z</time>
      </trkpt>
      <trkpt lat="44.18645" lon="3.65597">
        <ele>697.558268</ele>
        <time>2020-03-09T15:54:38.605Z</time>
      </trkpt>
      <trkpt lat="44.18605" lon="3.6561">
        <ele>693.813113</ele>
        <time>2020-03-09T15:54:42.189Z</time>
      </trkpt>
      <trkpt lat="44.186" lon="3.65648">
        <ele>691.362154</ele>
        <time>2020-03-09T15:54:44.560Z</time>
      </trkpt>
      <trkpt lat="44.1858" lon="3.65667">
        <ele>689.404618</ele>
        <time>2020-03-09T15:54:46.631Z</time>
      </trkpt>
      <trkpt lat="44.18506" lon="3.6568">
        <ele>683.322786</ele>
        <time>2020-03-09T15:54:53.138Z</time>
      </trkpt>
      <trkpt lat="44.18462" lon="3.65663">
        <ele>679.552172</ele>
        <time>2020-03-09T15:54:57.224Z</time>
      </trkpt>
      <trkpt lat="44.18435" lon="3.65665">
        <ele>677.371555</ele>
        <time>2020-03-09T15:54:59.592Z</time>
      </trkpt>
      <trkpt lat="44.18391" lon="3.65691">
        <ele>674.459527</ele>
        <time>2020-03-09T15:55:03.977Z</time>
      </trkpt>
      <trkpt lat="44.18381" lon="3.65693">
        <ele>673.876769</ele>
        <time>2020-03-09T15:55:04.856Z</time>
      </trkpt>
      <trkpt lat="44.18363" lon="3.65691">
        <ele>672.845835</ele>
        <time>2020-03-09T15:55:06.560Z</time>
      </trkpt>
      <trkpt lat="44.18332" lon="3.65675">
        <ele>670.896432</ele>
        <time>2020-03-09T15:55:09.726Z</time>
      </trkpt>
      <trkpt lat="44.18319" lon="3.65676">
        <ele>670.196028</ele>
        <time>2020-03-09T15:55:10.891Z</time>
      </trkpt>
      <trkpt lat="44.18282" lon="3.65707">
        <ele>667.707906</ele>
        <time>2020-03-09T15:55:14.901Z</time>
      </trkpt>
      <trkpt lat="44.18256" lon="3.65719">
        <ele>666.088023</ele>
        <time>2020-03-09T15:55:17.510Z</time>
      </trkpt>
      <trkpt lat="44.18197" lon="3.65676">
        <ele>661.743932</ele>
        <time>2020-03-09T15:55:23.731Z</time>
      </trkpt>
      <trkpt lat="44.18175" lon="3.65667">
        <ele>660.270186</ele>
        <time>2020-03-09T15:55:25.822Z</time>
      </trkpt>
      <trkpt lat="44.18103" lon="3.65661">
        <ele>655.592946</ele>
        <time>2020-03-09T15:55:32.297Z</time>
      </trkpt>
      <trkpt lat="44.18076" lon="3.65673">
        <ele>653.229287</ele>
        <time>2020-03-09T15:55:34.833Z</time>
      </trkpt>
      <trkpt lat="44.18038" lon="3.65671">
        <ele>649.785666</ele>
        <time>2020-03-09T15:55:38.059Z</time>
      </trkpt>
      <trkpt lat="44.17988" lon="3.65679">
        <ele>645.119943</ele>
        <time>2020-03-09T15:55:42.413Z</time>
      </trkpt>
      <trkpt lat="44.17953" lon="3.65664">
        <ele>641.70419</ele>
        <time>2020-03-09T15:55:45.601Z</time>
      </trkpt>
      <trkpt lat="44.1791" lon="3.65603">
        <ele>636.027306</ele>
        <time>2020-03-09T15:55:50.912Z</time>
      </trkpt>
      <trkpt lat="44.17897" lon="3.65591">
        <ele>634.590774</ele>
        <time>2020-03-09T15:55:52.248Z</time>
      </trkpt>
      <trkpt lat="44.1788" lon="3.65588">
        <ele>633.03946</ele>
        <time>2020-03-09T15:55:53.684Z</time>
      </trkpt>
      <trkpt lat="44.17838" lon="3.65611">
        <ele>628.83102</ele>
        <time>2020-03-09T15:55:57.587Z</time>
      </trkpt>
      <trkpt lat="44.17822" lon="3.6561">
        <ele>627.421757</ele>
        <time>2020-03-09T15:55:58.905Z</time>
      </trkpt>
      <trkpt lat="44.17785" lon="3.65592">
        <ele>623.728658</ele>
        <time>2020-03-09T15:56:02.361Z</time>
      </trkpt>
      <trkpt lat="44.17765" lon="3.65559">
        <ele>621.079465</ele>
        <time>2020-03-09T15:56:05.097Z</time>
      </trkpt>
      <trkpt lat="44.17752" lon="3.65548">
        <ele>620.172711</ele>
        <time>2020-03-09T15:56:06.440Z</time>
      </trkpt>
      <trkpt lat="44.17711" lon="3.65552">
        <ele>617.661287</ele>
        <time>2020-03-09T15:56:10.235Z</time>
      </trkpt>
      <trkpt lat="44.17667" lon="3.65532">
        <ele>614.838364</ele>
        <time>2020-03-09T15:56:14.547Z</time>
      </trkpt>
      <trkpt lat="44.17621" lon="3.65508">
        <ele>611.864185</ele>
        <time>2020-03-09T15:56:19.042Z</time>
      </trkpt>
      <trkpt lat="44.17607" lon="3.65497">
        <ele>610.874248</ele>
        <time>2020-03-09T15:56:20.683Z</time>
      </trkpt>
      <trkpt lat="44.17587" lon="3.65458">
        <ele>608.436834</ele>
        <time>2020-03-09T15:56:23.913Z</time>
      </trkpt>
      <trkpt lat="44.17571" lon="3.65448">
        <ele>607.178997</ele>
        <time>2020-03-09T15:56:25.496Z</time>
      </trkpt>
      <trkpt lat="44.17543" lon="3.65458">
        <ele>605.095542</ele>
        <time>2020-03-09T15:56:28.182Z</time>
      </trkpt>
      <trkpt lat="44.17506" lon="3.65494">
        <ele>601.878992</ele>
        <time>2020-03-09T15:56:32.193Z</time>
      </trkpt>
      <trkpt lat="44.17446" lon="3.65528">
        <ele>597.088888</ele>
        <time>2020-03-09T15:56:37.906Z</time>
      </trkpt>
      <trkpt lat="44.1741" lon="3.6554">
        <ele>593.765695</ele>
        <time>2020-03-09T15:56:41.029Z</time>
      </trkpt>
      <trkpt lat="44.17381" lon="3.65541">
        <ele>591.125884</ele>
        <time>2020-03-09T15:56:43.510Z</time>
      </trkpt>
      <trkpt lat="44.17317" lon="3.65514">
        <ele>584.964657</ele>
        <time>2020-03-09T15:56:49.342Z</time>
      </trkpt>
      <trkpt lat="44.17286" lon="3.65455">
        <ele>580.365174</ele>
        <time>2020-03-09T15:56:54.024Z</time>
      </trkpt>
      <trkpt lat="44.17277" lon="3.65449">
        <ele>579.641383</ele>
        <time>2020-03-09T15:56:54.881Z</time>
      </trkpt>
      <trkpt lat="44.1724" lon="3.65447">
        <ele>576.901664</ele>
        <time>2020-03-09T15:56:58.121Z</time>
      </trkpt>
      <trkpt lat="44.17176" lon="3.65416">
        <ele>571.824742</ele>
        <time>2020-03-09T15:57:04.139Z</time>
      </trkpt>
      <trkpt lat="44.1714" lon="3.65405">
        <ele>569.123648</ele>
        <time>2020-03-09T15:57:07.396Z</time>
      </trkpt>
      <trkpt lat="44.17126" lon="3.65406">
        <ele>568.032711</ele>
        <time>2020-03-09T15:57:08.717Z</time>
      </trkpt>
      <trkpt lat="44.17076" lon="3.65416">
        <ele>565.158411</ele>
        <time>2020-03-09T15:57:13.436Z</time>
      </trkpt>
      <trkpt lat="44.17065" lon="3.65417">
        <ele>564.534284</ele>
        <time>2020-03-09T15:57:14.488Z</time>
      </trkpt>
      <trkpt lat="44.17056" lon="3.65409">
        <ele>563.9443</ele>
        <time>2020-03-09T15:57:15.447Z</time>
      </trkpt>
      <trkpt lat="44.17053" lon="3.65389">
        <ele>563.132218</ele>
        <time>2020-03-09T15:57:16.796Z</time>
      </trkpt>
      <trkpt lat="44.17079" lon="3.65332">
        <ele>560.424732</ele>
        <time>2020-03-09T15:57:21.285Z</time>
      </trkpt>
      <trkpt lat="44.17087" lon="3.65292">
        <ele>558.725879</ele>
        <time>2020-03-09T15:57:24.086Z</time>
      </trkpt>
      <trkpt lat="44.171" lon="3.65182">
        <ele>555.153867</ele>
        <time>2020-03-09T15:57:31.716Z</time>
      </trkpt>
      <trkpt lat="44.17098" lon="3.65098">
        <ele>552.638503</ele>
        <time>2020-03-09T15:57:37.779Z</time>
      </trkpt>
      <trkpt lat="44.17097" lon="3.6509">
        <ele>552.420437</ele>
        <time>2020-03-09T15:57:38.247Z</time>
      </trkpt>
      <trkpt lat="44.17085" lon="3.65029">
        <ele>550.526908</ele>
        <time>2020-03-09T15:57:42.636Z</time>
      </trkpt>
      <trkpt lat="44.17086" lon="3.64973">
        <ele>549.953649</ele>
        <time>2020-03-09T15:57:46.684Z</time>
      </trkpt>
      <trkpt lat="44.17061" lon="3.64874">
        <ele>549.214125</ele>
        <time>2020-03-09T15:57:54.805Z</time>
      </trkpt>
      <trkpt lat="44.17061" lon="3.64835">
        <ele>548.940003</ele>
        <time>2020-03-09T15:57:59.914Z</time>
      </trkpt>
      <trkpt lat="44.17076" lon="3.64792">
        <ele>548.604531</ele>
        <time>2020-03-09T15:58:08.379Z</time>
      </trkpt>
      <trkpt lat="44.17121" lon="3.64735">
        <ele>549.498102</ele>
        <time>2020-03-09T15:58:23.200Z</time>
      </trkpt>
      <trkpt lat="44.17133" lon="3.64728">
        <ele>549.729636</ele>
        <time>2020-03-09T15:58:26.776Z</time>
      </trkpt>
      <trkpt lat="44.17167" lon="3.64704">
        <ele>550.423746</ele>
        <time>2020-03-09T15:58:35.958Z</time>
      </trkpt>
      <trkpt lat="44.17188" lon="3.64695">
        <ele>550.827691</ele>
        <time>2020-03-09T15:58:40.944Z</time>
      </trkpt>
      <trkpt lat="44.17203" lon="3.64675">
        <ele>551.207912</ele>
        <time>2020-03-09T15:58:45.401Z</time>
      </trkpt>
      <trkpt lat="44.17268" lon="3.6461">
        <ele>550.696032</ele>
        <time>2020-03-09T15:59:00.626Z</time>
      </trkpt>
      <trkpt lat="44.17368" lon="3.64565">
        <ele>548.203085</ele>
        <time>2020-03-09T15:59:11.351Z</time>
      </trkpt>
      <trkpt lat="44.17375" lon="3.64558">
        <ele>548.000454</ele>
        <time>2020-03-09T15:59:12.167Z</time>
      </trkpt>
      <trkpt lat="44.17377" lon="3.64544">
        <ele>547.764085</ele>
        <time>2020-03-09T15:59:13.096Z</time>
      </trkpt>
      <trkpt lat="44.17374" lon="3.64529">
        <ele>547.408878</ele>
        <time>2020-03-09T15:59:14.184Z</time>
      </trkpt>
      <trkpt lat="44.17366" lon="3.64522">
        <ele>546.806113</ele>
        <time>2020-03-09T15:59:15.063Z</time>
      </trkpt>
      <trkpt lat="44.17307" lon="3.64516">
        <ele>542.988476</ele>
        <time>2020-03-09T15:59:20.503Z</time>
      </trkpt>
      <trkpt lat="44.17257" lon="3.6454">
        <ele>539.650365</ele>
        <time>2020-03-09T15:59:25.195Z</time>
      </trkpt>
      <trkpt lat="44.17194" lon="3.64554">
        <ele>535.688384</ele>
        <time>2020-03-09T15:59:31.003Z</time>
      </trkpt>
      <trkpt lat="44.1718" lon="3.64562">
        <ele>535.017618</ele>
        <time>2020-03-09T15:59:32.368Z</time>
      </trkpt>
      <trkpt lat="44.17148" lon="3.64605">
        <ele>533.073759</ele>
        <time>2020-03-09T15:59:36.357Z</time>
      </trkpt>
      <trkpt lat="44.17128" lon="3.64619">
        <ele>532.101319</ele>
        <time>2020-03-09T15:59:38.381Z</time>
      </trkpt>
      <trkpt lat="44.17084" lon="3.64614">
        <ele>530.134898</ele>
        <time>2020-03-09T15:59:42.680Z</time>
      </trkpt>
      <trkpt lat="44.17022" lon="3.64643">
        <ele>528.612845</ele>
        <time>2020-03-09T15:59:50.193Z</time>
      </trkpt>
      <trkpt lat="44.17008" lon="3.64638">
        <ele>528.978135</ele>
        <time>2020-03-09T15:59:52.907Z</time>
      </trkpt>
      <trkpt lat="44.1698" lon="3.64592">
        <ele>530.099401</ele>
        <time>2020-03-09T16:00:01.664Z</time>
      </trkpt>
      <trkpt lat="44.16965" lon="3.64581">
        <ele>530.5587</ele>
        <time>2020-03-09T16:00:06.282Z</time>
      </trkpt>
      <trkpt lat="44.16962" lon="3.64572">
        <ele>530.744917</ele>
        <time>2020-03-09T16:00:08.891Z</time>
      </trkpt>
      <trkpt lat="44.16933" lon="3.64553">
        <ele>531.574868</ele>
        <time>2020-03-09T16:00:18.081Z</time>
      </trkpt>
      <trkpt lat="44.16924" lon="3.64534">
        <ele>531.980598</ele>
        <time>2020-03-09T16:00:22.857Z</time>
      </trkpt>
      <trkpt lat="44.16924" lon="3.64522">
        <ele>532.208166</ele>
        <time>2020-03-09T16:00:25.999Z</time>
      </trkpt>
      <trkpt lat="44.16943" lon="3.64407">
        <ele>536.614799</ele>
        <time>2020-03-09T16:01:00.399Z</time>
      </trkpt>
      <trkpt lat="44.16964" lon="3.64325">
        <ele>540.445645</ele>
        <time>2020-03-09T16:01:25.765Z</time>
      </trkpt>
      <trkpt lat="44.16984" lon="3.64282">
        <ele>542.699011</ele>
        <time>2020-03-09T16:01:40.630Z</time>
      </trkpt>
      <trkpt lat="44.16973" lon="3.64196">
        <ele>545.893512</ele>
        <time>2020-03-09T16:02:04.465Z</time>
      </trkpt>
      <trkpt lat="44.16982" lon="3.6417">
        <ele>546.856606</ele>
        <time>2020-03-09T16:02:11.810Z</time>
      </trkpt>
      <trkpt lat="44.16985" lon="3.64113">
        <ele>548.794384</ele>
        <time>2020-03-09T16:02:25.703Z</time>
      </trkpt>
      <trkpt lat="44.1698" lon="3.64043">
        <ele>551.164462</ele>
        <time>2020-03-09T16:02:41.319Z</time>
      </trkpt>
      <trkpt lat="44.16996" lon="3.63999">
        <ele>552.687782</ele>
        <time>2020-03-09T16:02:51.755Z</time>
      </trkpt>
      <trkpt lat="44.17002" lon="3.63963">
        <ele>553.626154</ele>
        <time>2020-03-09T16:02:59.264Z</time>
      </trkpt>
      <trkpt lat="44.17031" lon="3.63918">
        <ele>555.149791</ele>
        <time>2020-03-09T16:03:10.718Z</time>
      </trkpt>
      <trkpt lat="44.17087" lon="3.638">
        <ele>558.741861</ele>
        <time>2020-03-09T16:03:40.491Z</time>
      </trkpt>
      <trkpt lat="44.17088" lon="3.63787">
        <ele>559.114137</ele>
        <time>2020-03-09T16:03:43.272Z</time>
      </trkpt>
      <trkpt lat="44.17082" lon="3.63769">
        <ele>559.683012</ele>
        <time>2020-03-09T16:03:47.763Z</time>
      </trkpt>
      <trkpt lat="44.17081" lon="3.63675">
        <ele>562.401254</ele>
        <time>2020-03-09T16:04:08.552Z</time>
      </trkpt>
      <trkpt lat="44.17075" lon="3.63647">
        <ele>563.250475</ele>
        <time>2020-03-09T16:04:15.313Z</time>
      </trkpt>
      <trkpt lat="44.17075" lon="3.63636">
        <ele>563.568154</ele>
        <time>2020-03-09T16:04:17.496Z</time>
      </trkpt>
      <trkpt lat="44.17078" lon="3.63628">
        <ele>563.828844</ele>
        <time>2020-03-09T16:04:19.383Z</time>
      </trkpt>
      <trkpt lat="44.17083" lon="3.6362">
        <ele>564.140088</ele>
        <time>2020-03-09T16:04:22.173Z</time>
      </trkpt>
      <trkpt lat="44.17117" lon="3.63592">
        <ele>565.693916</ele>
        <time>2020-03-09T16:04:33.909Z</time>
      </trkpt>
      <trkpt lat="44.17145" lon="3.63532">
        <ele>567.987261</ele>
        <time>2020-03-09T16:04:50.566Z</time>
      </trkpt>
      <trkpt lat="44.17166" lon="3.63508">
        <ele>569.206657</ele>
        <time>2020-03-09T16:05:00.127Z</time>
      </trkpt>
      <trkpt lat="44.17164" lon="3.6349">
        <ele>569.793053</ele>
        <time>2020-03-09T16:05:04.419Z</time>
      </trkpt>
      <trkpt lat="44.17135" lon="3.6347">
        <ele>571.235045</ele>
        <time>2020-03-09T16:05:14.624Z</time>
      </trkpt>
      <trkpt lat="44.17129" lon="3.63457">
        <ele>571.729896</ele>
        <time>2020-03-09T16:05:17.910Z</time>
      </trkpt>
      <trkpt lat="44.17114" lon="3.63397">
        <ele>573.754639</ele>
        <time>2020-03-09T16:05:32.895Z</time>
      </trkpt>
      <trkpt lat="44.17116" lon="3.63382">
        <ele>574.32861</ele>
        <time>2020-03-09T16:05:36.603Z</time>
      </trkpt>
      <trkpt lat="44.17136" lon="3.63335">
        <ele>576.433199</ele>
        <time>2020-03-09T16:05:50.427Z</time>
      </trkpt>
      <trkpt lat="44.17145" lon="3.63285">
        <ele>578.457328</ele>
        <time>2020-03-09T16:06:04.349Z</time>
      </trkpt>
      <trkpt lat="44.17153" lon="3.63267">
        <ele>579.26925</ele>
        <time>2020-03-09T16:06:10.058Z</time>
      </trkpt>
      <trkpt lat="44.17163" lon="3.63261">
        <ele>579.840432</ele>
        <time>2020-03-09T16:06:14.254Z</time>
      </trkpt>
      <trkpt lat="44.17197" lon="3.63262">
        <ele>581.648211</ele>
        <time>2020-03-09T16:06:27.301Z</time>
      </trkpt>
      <trkpt lat="44.17205" lon="3.63256">
        <ele>582.151119</ele>
        <time>2020-03-09T16:06:30.868Z</time>
      </trkpt>
      <trkpt lat="44.17239" lon="3.63222">
        <ele>584.221119</ele>
        <time>2020-03-09T16:06:46.138Z</time>
      </trkpt>
      <trkpt lat="44.17264" lon="3.63182">
        <ele>585.922779</ele>
        <time>2020-03-09T16:06:59.364Z</time>
      </trkpt>
      <trkpt lat="44.17251" lon="3.63102">
        <ele>588.504052</ele>
        <time>2020-03-09T16:07:18.593Z</time>
      </trkpt>
      <trkpt lat="44.17252" lon="3.63062">
        <ele>589.798364</ele>
        <time>2020-03-09T16:07:27.674Z</time>
      </trkpt>
      <trkpt lat="44.17284" lon="3.63013">
        <ele>591.827099</ele>
        <time>2020-03-09T16:07:41.921Z</time>
      </trkpt>
      <trkpt lat="44.17376" lon="3.62929">
        <ele>595.767375</ele>
        <time>2020-03-09T16:08:10.537Z</time>
      </trkpt>
      <trkpt lat="44.17404" lon="3.62881">
        <ele>597.348018</ele>
        <time>2020-03-09T16:08:23.763Z</time>
      </trkpt>
      <trkpt lat="44.17425" lon="3.6286">
        <ele>598.568729</ele>
        <time>2020-03-09T16:08:33.555Z</time>
      </trkpt>
      <trkpt lat="44.17428" lon="3.62852">
        <ele>598.944372</ele>
        <time>2020-03-09T16:08:35.331Z</time>
      </trkpt>
      <trkpt lat="44.17423" lon="3.62807">
        <ele>600.872684</ele>
        <time>2020-03-09T16:08:47.474Z</time>
      </trkpt>
      <trkpt lat="44.17439" lon="3.62747">
        <ele>603.632391</ele>
        <time>2020-03-09T16:09:04.684Z</time>
      </trkpt>
      <trkpt lat="44.17441" lon="3.62743">
        <ele>603.821144</ele>
        <time>2020-03-09T16:09:05.601Z</time>
      </trkpt>
      <trkpt lat="44.17442" lon="3.62742">
        <ele>603.911844</ele>
        <time>2020-03-09T16:09:06.073Z</time>
      </trkpt>
      <trkpt lat="44.17447" lon="3.62733">
        <ele>604.411281</ele>
        <time>2020-03-09T16:09:11.506Z</time>
      </trkpt>
      <trkpt lat="44.17471" lon="3.62713">
        <ele>606.097924</ele>
        <time>2020-03-09T16:09:21.366Z</time>
      </trkpt>
      <trkpt lat="44.17542" lon="3.62703">
        <ele>610.341</ele>
        <time>2020-03-09T16:09:52.561Z</time>
      </trkpt>
      <trkpt lat="44.1761" lon="3.62701">
        <ele>614.300237</ele>
        <time>2020-03-09T16:10:21.022Z</time>
      </trkpt>
      <trkpt lat="44.17641" lon="3.62685">
        <ele>616.241713</ele>
        <time>2020-03-09T16:10:32.562Z</time>
      </trkpt>
      <trkpt lat="44.1766" lon="3.62654">
        <ele>617.933864</ele>
        <time>2020-03-09T16:10:42.558Z</time>
      </trkpt>
      <trkpt lat="44.17685" lon="3.62644">
        <ele>619.377585</ele>
        <time>2020-03-09T16:10:51.606Z</time>
      </trkpt>
      <trkpt lat="44.17689" lon="3.62637">
        <ele>619.619374</ele>
        <time>2020-03-09T16:10:53.324Z</time>
      </trkpt>
      <trkpt lat="44.17689" lon="3.62615">
        <ele>620.259</ele>
        <time>2020-03-09T16:10:58.243Z</time>
      </trkpt>
      <trkpt lat="44.17689" lon="3.62606">
        <ele>620.486099</ele>
        <time>2020-03-09T16:11:00.840Z</time>
      </trkpt>
      <trkpt lat="44.1768" lon="3.62605">
        <ele>620.828592</ele>
        <time>2020-03-09T16:11:02.988Z</time>
      </trkpt>
      <trkpt lat="44.17629" lon="3.62633">
        <ele>622.970035</ele>
        <time>2020-03-09T16:11:18.139Z</time>
      </trkpt>
      <trkpt lat="44.17604" lon="3.62623">
        <ele>623.986903</ele>
        <time>2020-03-09T16:11:25.224Z</time>
      </trkpt>
      <trkpt lat="44.17595" lon="3.62605">
        <ele>624.622275</ele>
        <time>2020-03-09T16:11:30.217Z</time>
      </trkpt>
      <trkpt lat="44.17593" lon="3.62582">
        <ele>625.284507</ele>
        <time>2020-03-09T16:11:34.681Z</time>
      </trkpt>
      <trkpt lat="44.17599" lon="3.6249">
        <ele>628.637945</ele>
        <time>2020-03-09T16:11:57.529Z</time>
      </trkpt>
      <trkpt lat="44.17588" lon="3.62472">
        <ele>629.59402</ele>
        <time>2020-03-09T16:12:03.664Z</time>
      </trkpt>
      <trkpt lat="44.17566" lon="3.6247">
        <ele>630.89817</ele>
        <time>2020-03-09T16:12:11.470Z</time>
      </trkpt>
      <trkpt lat="44.17554" lon="3.62476">
        <ele>631.60067</ele>
        <time>2020-03-09T16:12:15.644Z</time>
      </trkpt>
      <trkpt lat="44.17547" lon="3.62487">
        <ele>632.200457</ele>
        <time>2020-03-09T16:12:18.978Z</time>
      </trkpt>
      <trkpt lat="44.1754" lon="3.62535">
        <ele>634.224516</ele>
        <time>2020-03-09T16:12:29.714Z</time>
      </trkpt>
      <trkpt lat="44.1753" lon="3.62551">
        <ele>635.075326</ele>
        <time>2020-03-09T16:12:34.064Z</time>
      </trkpt>
      <trkpt lat="44.17518" lon="3.62557">
        <ele>635.806994</ele>
        <time>2020-03-09T16:12:41.521Z</time>
      </trkpt>
      <trkpt lat="44.17488" lon="3.62556">
        <ele>638.84142</ele>
        <time>2020-03-09T16:12:56.663Z</time>
      </trkpt>
      <trkpt lat="44.17462" lon="3.62539">
        <ele>642.71015</ele>
        <time>2020-03-09T16:13:14.163Z</time>
      </trkpt>
      <trkpt lat="44.17437" lon="3.62501">
        <ele>647.700044</ele>
        <time>2020-03-09T16:13:40.294Z</time>
      </trkpt>
      <trkpt lat="44.17409" lon="3.62472">
        <ele>652.396237</ele>
        <time>2020-03-09T16:14:05.651Z</time>
      </trkpt>
      <trkpt lat="44.17399" lon="3.62464">
        <ele>653.913677</ele>
        <time>2020-03-09T16:14:15.682Z</time>
      </trkpt>
      <trkpt lat="44.17344" lon="3.62422">
        <ele>662.354791</ele>
        <time>2020-03-09T16:15:03.158Z</time>
      </trkpt>
      <trkpt lat="44.17321" lon="3.62403">
        <ele>666.225003</ele>
        <time>2020-03-09T16:15:25.960Z</time>
      </trkpt>
      <trkpt lat="44.17308" lon="3.62401">
        <ele>668.088865</ele>
        <time>2020-03-09T16:15:37.275Z</time>
      </trkpt>
      <trkpt lat="44.17267" lon="3.62413">
        <ele>673.964195</ele>
        <time>2020-03-09T16:16:13.250Z</time>
      </trkpt>
      <trkpt lat="44.17222" lon="3.62405">
        <ele>680.396104</ele>
        <time>2020-03-09T16:16:46.650Z</time>
      </trkpt>
      <trkpt lat="44.17215" lon="3.62409">
        <ele>681.54392</ele>
        <time>2020-03-09T16:16:51.925Z</time>
      </trkpt>
      <trkpt lat="44.1721" lon="3.62427">
        <ele>683.452423</ele>
        <time>2020-03-09T16:16:59.485Z</time>
      </trkpt>
      <trkpt lat="44.17213" lon="3.62443">
        <ele>685.112696</ele>
        <time>2020-03-09T16:17:05.249Z</time>
      </trkpt>
      <trkpt lat="44.1722" lon="3.62462">
        <ele>686.445136</ele>
        <time>2020-03-09T16:17:12.485Z</time>
      </trkpt>
      <trkpt lat="44.17237" lon="3.62485">
        <ele>687.45421</ele>
        <time>2020-03-09T16:17:21.990Z</time>
      </trkpt>
      <trkpt lat="44.1724" lon="3.62502">
        <ele>687.991424</ele>
        <time>2020-03-09T16:17:26.798Z</time>
      </trkpt>
      <trkpt lat="44.17247" lon="3.62556">
        <ele>689.665097</ele>
        <time>2020-03-09T16:17:39.010Z</time>
      </trkpt>
      <trkpt lat="44.17242" lon="3.62598">
        <ele>690.959808</ele>
        <time>2020-03-09T16:17:46.606Z</time>
      </trkpt>
      <trkpt lat="44.17215" lon="3.62636">
        <ele>692.633255</ele>
        <time>2020-03-09T16:17:54.131Z</time>
      </trkpt>
      <trkpt lat="44.17158" lon="3.62686">
        <ele>696.317899</ele>
        <time>2020-03-09T16:18:08.530Z</time>
      </trkpt>
      <trkpt lat="44.1705" lon="3.62714">
        <ele>703.205659</ele>
        <time>2020-03-09T16:18:51.737Z</time>
      </trkpt>
      <trkpt lat="44.17049" lon="3.6271">
        <ele>703.379715</ele>
        <time>2020-03-09T16:18:53.962Z</time>
      </trkpt>
      <trkpt lat="44.17051" lon="3.62706">
        <ele>703.584669</ele>
        <time>2020-03-09T16:18:57.427Z</time>
      </trkpt>
      <trkpt lat="44.17096" lon="3.62685">
        <ele>707.873254</ele>
        <time>2020-03-09T16:19:24.574Z</time>
      </trkpt>
      <trkpt lat="44.17131" lon="3.62646">
        <ele>713.117443</ele>
        <time>2020-03-09T16:19:53.656Z</time>
      </trkpt>
      <trkpt lat="44.1715" lon="3.62615">
        <ele>716.569846</ele>
        <time>2020-03-09T16:20:14.998Z</time>
      </trkpt>
      <trkpt lat="44.17163" lon="3.62573">
        <ele>720.390892</ele>
        <time>2020-03-09T16:20:38.640Z</time>
      </trkpt>
      <trkpt lat="44.17164" lon="3.62545">
        <ele>722.726828</ele>
        <time>2020-03-09T16:20:50.930Z</time>
      </trkpt>
      <trkpt lat="44.17147" lon="3.62486">
        <ele>726.680432</ele>
        <time>2020-03-09T16:21:15.583Z</time>
      </trkpt>
      <trkpt lat="44.17123" lon="3.62428">
        <ele>728.5143</ele>
        <time>2020-03-09T16:21:36.341Z</time>
      </trkpt>
      <trkpt lat="44.17118" lon="3.6243">
        <ele>728.700458</ele>
        <time>2020-03-09T16:21:38.166Z</time>
      </trkpt>
      <trkpt lat="44.17118" lon="3.62438">
        <ele>728.934619</ele>
        <time>2020-03-09T16:21:40.356Z</time>
      </trkpt>
      <trkpt lat="44.17132" lon="3.62482">
        <ele>730.24494</ele>
        <time>2020-03-09T16:21:49.705Z</time>
      </trkpt>
      <trkpt lat="44.17134" lon="3.62509">
        <ele>730.971747</ele>
        <time>2020-03-09T16:21:53.174Z</time>
      </trkpt>
      <trkpt lat="44.17128" lon="3.62561">
        <ele>732.421771</ele>
        <time>2020-03-09T16:21:57.931Z</time>
      </trkpt>
      <trkpt lat="44.1712" lon="3.6258">
        <ele>732.931076</ele>
        <time>2020-03-09T16:21:59.590Z</time>
      </trkpt>
      <trkpt lat="44.17062" lon="3.62623">
        <ele>733.949463</ele>
        <time>2020-03-09T16:22:07.304Z</time>
      </trkpt>
      <trkpt lat="44.1705" lon="3.62627">
        <ele>734.136998</ele>
        <time>2020-03-09T16:22:08.628Z</time>
      </trkpt>
      <trkpt lat="44.16989" lon="3.62617">
        <ele>735.071836</ele>
        <time>2020-03-09T16:22:21.119Z</time>
      </trkpt>
      <trkpt lat="44.16978" lon="3.62612">
        <ele>735.260186</ele>
        <time>2020-03-09T16:22:23.919Z</time>
      </trkpt>
      <trkpt lat="44.16943" lon="3.62586">
        <ele>737.465445</ele>
        <time>2020-03-09T16:22:41.191Z</time>
      </trkpt>
      <trkpt lat="44.16893" lon="3.62543">
        <ele>744.531952</ele>
        <time>2020-03-09T16:23:11.619Z</time>
      </trkpt>
      <trkpt lat="44.1683" lon="3.62519">
        <ele>752.457429</ele>
        <time>2020-03-09T16:23:59.242Z</time>
      </trkpt>
      <trkpt lat="44.16817" lon="3.62503">
        <ele>754.535567</ele>
        <time>2020-03-09T16:24:12.670Z</time>
      </trkpt>
      <trkpt lat="44.16816" lon="3.625">
        <ele>754.867398</ele>
        <time>2020-03-09T16:24:15.665Z</time>
      </trkpt>
      <trkpt lat="44.16793" lon="3.62428">
        <ele>762.031495</ele>
        <time>2020-03-09T16:24:58.687Z</time>
      </trkpt>
      <trkpt lat="44.16786" lon="3.62393">
        <ele>765.470819</ele>
        <time>2020-03-09T16:25:20.270Z</time>
      </trkpt>
      <trkpt lat="44.16769" lon="3.62371">
        <ele>768.536111</ele>
        <time>2020-03-09T16:25:37.902Z</time>
      </trkpt>
      <trkpt lat="44.16761" lon="3.6237">
        <ele>769.528957</ele>
        <time>2020-03-09T16:25:43.944Z</time>
      </trkpt>
      <trkpt lat="44.1672" lon="3.62394">
        <ele>775.352114</ele>
        <time>2020-03-09T16:26:12.499Z</time>
      </trkpt>
      <trkpt lat="44.16712" lon="3.62421">
        <ele>778.088497</ele>
        <time>2020-03-09T16:26:23.640Z</time>
      </trkpt>
      <trkpt lat="44.16696" lon="3.62453">
        <ele>781.313852</ele>
        <time>2020-03-09T16:26:37.664Z</time>
      </trkpt>
      <trkpt lat="44.16664" lon="3.62493">
        <ele>783.99111</ele>
        <time>2020-03-09T16:26:56.977Z</time>
      </trkpt>
      <trkpt lat="44.16649" lon="3.62511">
        <ele>785.287569</ele>
        <time>2020-03-09T16:27:05.095Z</time>
      </trkpt>
      <trkpt lat="44.16642" lon="3.6252">
        <ele>785.884587</ele>
        <time>2020-03-09T16:27:08.445Z</time>
      </trkpt>
      <trkpt lat="44.16633" lon="3.62531">
        <ele>786.648265</ele>
        <time>2020-03-09T16:27:12.650Z</time>
      </trkpt>
      <trkpt lat="44.16567" lon="3.6256">
        <ele>790.98326</ele>
        <time>2020-03-09T16:27:36.876Z</time>
      </trkpt>
      <trkpt lat="44.16501" lon="3.62567">
        <ele>795.727055</ele>
        <time>2020-03-09T16:28:00.072Z</time>
      </trkpt>
      <trkpt lat="44.16478" lon="3.62583">
        <ele>797.687373</ele>
        <time>2020-03-09T16:28:10.857Z</time>
      </trkpt>
      <trkpt lat="44.16469" lon="3.62581">
        <ele>798.309567</ele>
        <time>2020-03-09T16:28:13.826Z</time>
      </trkpt>
      <trkpt lat="44.16467" lon="3.62571">
        <ele>798.905096</ele>
        <time>2020-03-09T16:28:17.974Z</time>
      </trkpt>
      <trkpt lat="44.16475" lon="3.62571">
        <ele>799.500106</ele>
        <time>2020-03-09T16:28:22.221Z</time>
      </trkpt>
      <trkpt lat="44.16588" lon="3.62497">
        <ele>808.91638</ele>
        <time>2020-03-09T16:29:25.521Z</time>
      </trkpt>
      <trkpt lat="44.16608" lon="3.62476">
        <ele>810.82875</ele>
        <time>2020-03-09T16:29:40.774Z</time>
      </trkpt>
      <trkpt lat="44.16653" lon="3.62375">
        <ele>817.297339</ele>
        <time>2020-03-09T16:30:19.012Z</time>
      </trkpt>
      <trkpt lat="44.16663" lon="3.62305">
        <ele>820.168243</ele>
        <time>2020-03-09T16:30:36.900Z</time>
      </trkpt>
      <trkpt lat="44.167" lon="3.62293">
        <ele>821.332101</ele>
        <time>2020-03-09T16:30:46.608Z</time>
      </trkpt>
      <trkpt lat="44.1675" lon="3.62225">
        <ele>823.522091</ele>
        <time>2020-03-09T16:30:58.649Z</time>
      </trkpt>
      <trkpt lat="44.16768" lon="3.62223">
        <ele>824.08378</ele>
        <time>2020-03-09T16:31:06.448Z</time>
      </trkpt>
      <trkpt lat="44.168" lon="3.62269">
        <ele>826.050846</ele>
        <time>2020-03-09T16:31:18.467Z</time>
      </trkpt>
      <trkpt lat="44.16842" lon="3.62296">
        <ele>829.388902</ele>
        <time>2020-03-09T16:31:33.023Z</time>
      </trkpt>
      <trkpt lat="44.16862" lon="3.62296">
        <ele>830.804983</ele>
        <time>2020-03-09T16:31:42.962Z</time>
      </trkpt>
      <trkpt lat="44.16871" lon="3.62283">
        <ele>831.73405</ele>
        <time>2020-03-09T16:31:46.298Z</time>
      </trkpt>
      <trkpt lat="44.16877" lon="3.62269">
        <ele>832.587918</ele>
        <time>2020-03-09T16:31:51.387Z</time>
      </trkpt>
      <trkpt lat="44.16878" lon="3.62266">
        <ele>832.731415</ele>
        <time>2020-03-09T16:31:53.672Z</time>
      </trkpt>
      <trkpt lat="44.16898" lon="3.62133">
        <ele>839.95723</ele>
        <time>2020-03-09T16:32:42.192Z</time>
      </trkpt>
      <trkpt lat="44.16907" lon="3.62098">
        <ele>842.089524</ele>
        <time>2020-03-09T16:32:59.300Z</time>
      </trkpt>
      <trkpt lat="44.16919" lon="3.62076">
        <ele>843.641505</ele>
        <time>2020-03-09T16:33:14.331Z</time>
      </trkpt>
      <trkpt lat="44.16954" lon="3.62046">
        <ele>846.99165</ele>
        <time>2020-03-09T16:33:33.687Z</time>
      </trkpt>
      <trkpt lat="44.17009" lon="3.61913">
        <ele>853.272686</ele>
        <time>2020-03-09T16:34:11.921Z</time>
      </trkpt>
      <trkpt lat="44.17045" lon="3.61886">
        <ele>854.110104</ele>
        <time>2020-03-09T16:34:20.421Z</time>
      </trkpt>
      <trkpt lat="44.17084" lon="3.6182">
        <ele>855.352823</ele>
        <time>2020-03-09T16:34:30.659Z</time>
      </trkpt>
      <trkpt lat="44.17101" lon="3.61821">
        <ele>855.710496</ele>
        <time>2020-03-09T16:34:33.314Z</time>
      </trkpt>
      <trkpt lat="44.17146" lon="3.61866">
        <ele>857.778699</ele>
        <time>2020-03-09T16:34:43.091Z</time>
      </trkpt>
      <trkpt lat="44.17202" lon="3.61888">
        <ele>860.405783</ele>
        <time>2020-03-09T16:34:58.847Z</time>
      </trkpt>
      <trkpt lat="44.17215" lon="3.61911">
        <ele>861.344949</ele>
        <time>2020-03-09T16:35:06.200Z</time>
      </trkpt>
      <trkpt lat="44.17231" lon="3.61922">
        <ele>862.141025</ele>
        <time>2020-03-09T16:35:12.957Z</time>
      </trkpt>
      <trkpt lat="44.17241" lon="3.6192">
        <ele>862.610623</ele>
        <time>2020-03-09T16:35:17.264Z</time>
      </trkpt>
      <trkpt lat="44.17288" lon="3.61886">
        <ele>865.894837</ele>
        <time>2020-03-09T16:35:43.559Z</time>
      </trkpt>
      <trkpt lat="44.17298" lon="3.61853">
        <ele>868.34218</ele>
        <time>2020-03-09T16:35:58.401Z</time>
      </trkpt>
      <trkpt lat="44.17311" lon="3.61722">
        <ele>877.237704</ele>
        <time>2020-03-09T16:36:53.837Z</time>
      </trkpt>
      <trkpt lat="44.17312" lon="3.61689">
        <ele>879.463335</ele>
        <time>2020-03-09T16:37:06.274Z</time>
      </trkpt>
      <trkpt lat="44.17303" lon="3.61638">
        <ele>881.54873</ele>
        <time>2020-03-09T16:37:23.668Z</time>
      </trkpt>
      <trkpt lat="44.17313" lon="3.61618">
        <ele>881.900504</ele>
        <time>2020-03-09T16:37:30.162Z</time>
      </trkpt>
      <trkpt lat="44.17356" lon="3.61598">
        <ele>882.819404</ele>
        <time>2020-03-09T16:37:43.299Z</time>
      </trkpt>
      <trkpt lat="44.17375" lon="3.61578">
        <ele>883.311548</ele>
        <time>2020-03-09T16:37:48.356Z</time>
      </trkpt>
      <trkpt lat="44.1738" lon="3.61556">
        <ele>883.649196</ele>
        <time>2020-03-09T16:37:51.041Z</time>
      </trkpt>
      <trkpt lat="44.17378" lon="3.61518">
        <ele>884.196929</ele>
        <time>2020-03-09T16:37:54.453Z</time>
      </trkpt>
      <trkpt lat="44.17383" lon="3.615">
        <ele>884.490107</ele>
        <time>2020-03-09T16:37:56.011Z</time>
      </trkpt>
      <trkpt lat="44.17389" lon="3.61492">
        <ele>884.657114</ele>
        <time>2020-03-09T16:37:56.862Z</time>
      </trkpt>
      <trkpt lat="44.1741" lon="3.61487">
        <ele>884.753182</ele>
        <time>2020-03-09T16:37:58.940Z</time>
      </trkpt>
      <trkpt lat="44.17449" lon="3.61496">
        <ele>884.607995</ele>
        <time>2020-03-09T16:38:02.577Z</time>
      </trkpt>
      <trkpt lat="44.17472" lon="3.61508">
        <ele>884.513998</ele>
        <time>2020-03-09T16:38:05.006Z</time>
      </trkpt>
      <trkpt lat="44.17495" lon="3.61508">
        <ele>884.428618</ele>
        <time>2020-03-09T16:38:07.864Z</time>
      </trkpt>
      <trkpt lat="44.17521" lon="3.61532">
        <ele>884.312587</ele>
        <time>2020-03-09T16:38:13.638Z</time>
      </trkpt>
      <trkpt lat="44.17559" lon="3.61547">
        <ele>884.164406</ele>
        <time>2020-03-09T16:38:22.966Z</time>
      </trkpt>
      <trkpt lat="44.17585" lon="3.6158">
        <ele>886.357567</ele>
        <time>2020-03-09T16:38:35.514Z</time>
      </trkpt>
      <trkpt lat="44.17595" lon="3.61584">
        <ele>887.164434</ele>
        <time>2020-03-09T16:38:37.590Z</time>
      </trkpt>
      <trkpt lat="44.17609" lon="3.61587">
        <ele>888.337738</ele>
        <time>2020-03-09T16:38:47.239Z</time>
      </trkpt>
      <trkpt lat="44.17633" lon="3.61576">
        <ele>890.493117</ele>
        <time>2020-03-09T16:38:57.416Z</time>
      </trkpt>
      <trkpt lat="44.17701" lon="3.61477">
        <ele>898.637524</ele>
        <time>2020-03-09T16:39:53.708Z</time>
      </trkpt>
      <trkpt lat="44.17716" lon="3.61406">
        <ele>901.916967</ele>
        <time>2020-03-09T16:40:24.866Z</time>
      </trkpt>
      <trkpt lat="44.17766" lon="3.61373">
        <ele>905.170849</ele>
        <time>2020-03-09T16:40:45.843Z</time>
      </trkpt>
      <trkpt lat="44.17815" lon="3.61309">
        <ele>909.163521</ele>
        <time>2020-03-09T16:41:04.838Z</time>
      </trkpt>
      <trkpt lat="44.17824" lon="3.61305">
        <ele>909.679646</ele>
        <time>2020-03-09T16:41:06.780Z</time>
      </trkpt>
      <trkpt lat="44.17842" lon="3.61314">
        <ele>910.22202</ele>
        <time>2020-03-09T16:41:10.780Z</time>
      </trkpt>
      <trkpt lat="44.17889" lon="3.61362">
        <ele>911.82681</ele>
        <time>2020-03-09T16:41:22.090Z</time>
      </trkpt>
      <trkpt lat="44.17937" lon="3.61443">
        <ele>913.937202</ele>
        <time>2020-03-09T16:41:41.308Z</time>
      </trkpt>
      <trkpt lat="44.1795" lon="3.61451">
        <ele>914.337025</ele>
        <time>2020-03-09T16:41:45.840Z</time>
      </trkpt>
      <trkpt lat="44.17972" lon="3.61451">
        <ele>915.313261</ele>
        <time>2020-03-09T16:41:53.307Z</time>
      </trkpt>
      <trkpt lat="44.18007" lon="3.61424">
        <ele>917.835538</ele>
        <time>2020-03-09T16:42:08.215Z</time>
      </trkpt>
      <trkpt lat="44.1806" lon="3.61349">
        <ele>922.640842</ele>
        <time>2020-03-09T16:42:39.947Z</time>
      </trkpt>
      <trkpt lat="44.18086" lon="3.613">
        <ele>925.44825</ele>
        <time>2020-03-09T16:42:59.308Z</time>
      </trkpt>
      <trkpt lat="44.18135" lon="3.61256">
        <ele>930.11842</ele>
        <time>2020-03-09T16:43:25.532Z</time>
      </trkpt>
      <trkpt lat="44.18155" lon="3.61259">
        <ele>931.750677</ele>
        <time>2020-03-09T16:43:34.097Z</time>
      </trkpt>
      <trkpt lat="44.18197" lon="3.61288">
        <ele>935.707249</ele>
        <time>2020-03-09T16:43:55.507Z</time>
      </trkpt>
      <trkpt lat="44.18209" lon="3.6129">
        <ele>936.710613</ele>
        <time>2020-03-09T16:44:01.210Z</time>
      </trkpt>
      <trkpt lat="44.18307" lon="3.61253">
        <ele>946.998127</ele>
        <time>2020-03-09T16:44:56.113Z</time>
      </trkpt>
      <trkpt lat="44.18335" lon="3.61205">
        <ele>952.458393</ele>
        <time>2020-03-09T16:45:27.886Z</time>
      </trkpt>
      <trkpt lat="44.18371" lon="3.61109">
        <ele>961.870113</ele>
        <time>2020-03-09T16:46:21.113Z</time>
      </trkpt>
      <trkpt lat="44.18401" lon="3.61055">
        <ele>966.167018</ele>
        <time>2020-03-09T16:46:50.392Z</time>
      </trkpt>
      <trkpt lat="44.18402" lon="3.6105">
        <ele>966.503929</ele>
        <time>2020-03-09T16:46:54.936Z</time>
      </trkpt>
      <trkpt lat="44.18406" lon="3.6103">
        <ele>967.642369</ele>
        <time>2020-03-09T16:47:02.870Z</time>
      </trkpt>
      <trkpt lat="44.18429" lon="3.60893">
        <ele>975.650003</ele>
        <time>2020-03-09T16:47:51.726Z</time>
      </trkpt>
      <trkpt lat="44.18469" lon="3.60632">
        <ele>974.901662</ele>
        <time>2020-03-09T16:48:14.806Z</time>
      </trkpt>
      <trkpt lat="44.18475" lon="3.606">
        <ele>973.454516</ele>
        <time>2020-03-09T16:48:17.018Z</time>
      </trkpt>
      <trkpt lat="44.18477" lon="3.60577">
        <ele>971.796717</ele>
        <time>2020-03-09T16:48:18.532Z</time>
      </trkpt>
      <trkpt lat="44.18477" lon="3.60555">
        <ele>970.274215</ele>
        <time>2020-03-09T16:48:19.890Z</time>
      </trkpt>
      <trkpt lat="44.18472" lon="3.60533">
        <ele>968.725333</ele>
        <time>2020-03-09T16:48:21.288Z</time>
      </trkpt>
      <trkpt lat="44.18451" lon="3.60442">
        <ele>962.068395</ele>
        <time>2020-03-09T16:48:27.180Z</time>
      </trkpt>
      <trkpt lat="44.18453" lon="3.60393">
        <ele>958.66549</ele>
        <time>2020-03-09T16:48:30.158Z</time>
      </trkpt>
      <trkpt lat="44.18457" lon="3.60377">
        <ele>957.48288</ele>
        <time>2020-03-09T16:48:31.184Z</time>
      </trkpt>
      <trkpt lat="44.18459" lon="3.60367">
        <ele>956.775301</ele>
        <time>2020-03-09T16:48:31.803Z</time>
      </trkpt>
      <trkpt lat="44.18506" lon="3.60183">
        <ele>943.425637</ele>
        <time>2020-03-09T16:48:43.875Z</time>
      </trkpt>
      <trkpt lat="44.18571" lon="3.60008">
        <ele>935.530675</ele>
        <time>2020-03-09T16:48:57.113Z</time>
      </trkpt>
      <trkpt lat="44.18594" lon="3.59984">
        <ele>934.269667</ele>
        <time>2020-03-09T16:49:00.067Z</time>
      </trkpt>
      <trkpt lat="44.18649" lon="3.59956">
        <ele>931.821062</ele>
        <time>2020-03-09T16:49:06.283Z</time>
      </trkpt>
      <trkpt lat="44.18698" lon="3.59901">
        <ele>929.662928</ele>
        <time>2020-03-09T16:49:12.763Z</time>
      </trkpt>
      <trkpt lat="44.18734" lon="3.59845">
        <ele>927.779558</ele>
        <time>2020-03-09T16:49:18.270Z</time>
      </trkpt>
      <trkpt lat="44.18772" lon="3.59819">
        <ele>926.325934</ele>
        <time>2020-03-09T16:49:22.355Z</time>
      </trkpt>
      <trkpt lat="44.18802" lon="3.59777">
        <ele>924.038462</ele>
        <time>2020-03-09T16:49:26.355Z</time>
      </trkpt>
      <trkpt lat="44.18838" lon="3.59755">
        <ele>921.782167</ele>
        <time>2020-03-09T16:49:30.007Z</time>
      </trkpt>
      <trkpt lat="44.18917" lon="3.59532">
        <ele>911.92661</ele>
        <time>2020-03-09T16:49:46.324Z</time>
      </trkpt>
      <trkpt lat="44.18955" lon="3.59487">
        <ele>909.340071</ele>
        <time>2020-03-09T16:49:51.069Z</time>
      </trkpt>
      <trkpt lat="44.18983" lon="3.5943">
        <ele>906.704306</ele>
        <time>2020-03-09T16:49:55.886Z</time>
      </trkpt>
      <trkpt lat="44.19003" lon="3.59403">
        <ele>905.357352</ele>
        <time>2020-03-09T16:49:58.450Z</time>
      </trkpt>
      <trkpt lat="44.19056" lon="3.5935">
        <ele>902.274025</ele>
        <time>2020-03-09T16:50:04.569Z</time>
      </trkpt>
      <trkpt lat="44.19076" lon="3.59341">
        <ele>901.242531</ele>
        <time>2020-03-09T16:50:06.786Z</time>
      </trkpt>
      <trkpt lat="44.19092" lon="3.59335">
        <ele>900.458553</ele>
        <time>2020-03-09T16:50:08.256Z</time>
      </trkpt>
      <trkpt lat="44.1911" lon="3.59327">
        <ele>899.588192</ele>
        <time>2020-03-09T16:50:10.174Z</time>
      </trkpt>
      <trkpt lat="44.19124" lon="3.59311">
        <ele>898.73208</ele>
        <time>2020-03-09T16:50:11.796Z</time>
      </trkpt>
      <trkpt lat="44.1913" lon="3.5923">
        <ele>897.13929</ele>
        <time>2020-03-09T16:50:17.460Z</time>
      </trkpt>
      <trkpt lat="44.19166" lon="3.59175">
        <ele>896.179414</ele>
        <time>2020-03-09T16:50:22.606Z</time>
      </trkpt>
      <trkpt lat="44.19261" lon="3.59085">
        <ele>895.736672</ele>
        <time>2020-03-09T16:50:43.533Z</time>
      </trkpt>
      <trkpt lat="44.19341" lon="3.59043">
        <ele>899.144734</ele>
        <time>2020-03-09T16:51:11.695Z</time>
      </trkpt>
      <trkpt lat="44.19362" lon="3.59051">
        <ele>899.989242</ele>
        <time>2020-03-09T16:51:19.181Z</time>
      </trkpt>
      <trkpt lat="44.1937" lon="3.59062">
        <ele>900.442126</ele>
        <time>2020-03-09T16:51:23.769Z</time>
      </trkpt>
      <trkpt lat="44.19386" lon="3.59117">
        <ele>901.880363</ele>
        <time>2020-03-09T16:51:39.946Z</time>
      </trkpt>
      <trkpt lat="44.19415" lon="3.59151">
        <ele>902.345908</ele>
        <time>2020-03-09T16:51:52.477Z</time>
      </trkpt>
      <trkpt lat="44.19441" lon="3.59196">
        <ele>902.856972</ele>
        <time>2020-03-09T16:52:02.816Z</time>
      </trkpt>
      <trkpt lat="44.19456" lon="3.59245">
        <ele>903.333901</ele>
        <time>2020-03-09T16:52:09.314Z</time>
      </trkpt>
      <trkpt lat="44.19472" lon="3.59256">
        <ele>903.553793</ele>
        <time>2020-03-09T16:52:11.503Z</time>
      </trkpt>
      <trkpt lat="44.19495" lon="3.59261">
        <ele>903.839621</ele>
        <time>2020-03-09T16:52:14.061Z</time>
      </trkpt>
      <trkpt lat="44.19529" lon="3.59325">
        <ele>900.682959</ele>
        <time>2020-03-09T16:52:19.797Z</time>
      </trkpt>
      <trkpt lat="44.19555" lon="3.5939">
        <ele>896.790742</ele>
        <time>2020-03-09T16:52:24.672Z</time>
      </trkpt>
      <trkpt lat="44.19585" lon="3.59409">
        <ele>894.388591</ele>
        <time>2020-03-09T16:52:27.535Z</time>
      </trkpt>
      <trkpt lat="44.19615" lon="3.59444">
        <ele>891.559025</ele>
        <time>2020-03-09T16:52:30.855Z</time>
      </trkpt>
      <trkpt lat="44.19649" lon="3.5953">
        <ele>883.042122</ele>
        <time>2020-03-09T16:52:36.840Z</time>
      </trkpt>
      <trkpt lat="44.19653" lon="3.59573">
        <ele>879.069735</ele>
        <time>2020-03-09T16:52:39.455Z</time>
      </trkpt>
      <trkpt lat="44.19665" lon="3.5959">
        <ele>876.86942</ele>
        <time>2020-03-09T16:52:40.904Z</time>
      </trkpt>
      <trkpt lat="44.19685" lon="3.59585">
        <ele>874.265507</ele>
        <time>2020-03-09T16:52:42.606Z</time>
      </trkpt>
      <trkpt lat="44.19736" lon="3.59524">
        <ele>866.060417</ele>
        <time>2020-03-09T16:52:48.207Z</time>
      </trkpt>
      <trkpt lat="44.19774" lon="3.59509">
        <ele>861.787813</ele>
        <time>2020-03-09T16:52:51.560Z</time>
      </trkpt>
      <trkpt lat="44.19789" lon="3.59474">
        <ele>858.687438</ele>
        <time>2020-03-09T16:52:54.019Z</time>
      </trkpt>
      <trkpt lat="44.198" lon="3.59463">
        <ele>857.235894</ele>
        <time>2020-03-09T16:52:55.176Z</time>
      </trkpt>
      <trkpt lat="44.19829" lon="3.59463">
        <ele>854.168702</ele>
        <time>2020-03-09T16:52:57.655Z</time>
      </trkpt>
      <trkpt lat="44.1984" lon="3.59473">
        <ele>852.825725</ele>
        <time>2020-03-09T16:52:58.747Z</time>
      </trkpt>
      <trkpt lat="44.19846" lon="3.59487">
        <ele>851.523883</ele>
        <time>2020-03-09T16:52:59.821Z</time>
      </trkpt>
      <trkpt lat="44.19839" lon="3.59536">
        <ele>847.771947</ele>
        <time>2020-03-09T16:53:03.022Z</time>
      </trkpt>
      <trkpt lat="44.19843" lon="3.59549">
        <ele>846.861343</ele>
        <time>2020-03-09T16:53:03.895Z</time>
      </trkpt>
      <trkpt lat="44.19854" lon="3.59557">
        <ele>845.720165</ele>
        <time>2020-03-09T16:53:04.986Z</time>
      </trkpt>
      <trkpt lat="44.19939" lon="3.59535">
        <ele>837.752677</ele>
        <time>2020-03-09T16:53:12.559Z</time>
      </trkpt>
      <trkpt lat="44.20019" lon="3.59505">
        <ele>829.578487</ele>
        <time>2020-03-09T16:53:19.697Z</time>
      </trkpt>
      <trkpt lat="44.20026" lon="3.5949">
        <ele>828.13388</ele>
        <time>2020-03-09T16:53:20.766Z</time>
      </trkpt>
      <trkpt lat="44.20024" lon="3.59471">
        <ele>826.597876</ele>
        <time>2020-03-09T16:53:21.900Z</time>
      </trkpt>
      <trkpt lat="44.2001" lon="3.59453">
        <ele>824.401727</ele>
        <time>2020-03-09T16:53:23.513Z</time>
      </trkpt>
      <trkpt lat="44.1995" lon="3.59413">
        <ele>816.724383</ele>
        <time>2020-03-09T16:53:29.123Z</time>
      </trkpt>
      <trkpt lat="44.19905" lon="3.59283">
        <ele>808.998905</ele>
        <time>2020-03-09T16:53:38.016Z</time>
      </trkpt>
      <trkpt lat="44.199" lon="3.59254">
        <ele>808.106883</ele>
        <time>2020-03-09T16:53:40.030Z</time>
      </trkpt>
      <trkpt lat="44.1991" lon="3.59185">
        <ele>806.038575</ele>
        <time>2020-03-09T16:53:45.299Z</time>
      </trkpt>
      <trkpt lat="44.19921" lon="3.59162">
        <ele>805.216389</ele>
        <time>2020-03-09T16:53:48.235Z</time>
      </trkpt>
      <trkpt lat="44.1994" lon="3.59149">
        <ele>804.335574</ele>
        <time>2020-03-09T16:53:52.155Z</time>
      </trkpt>
      <trkpt lat="44.20003" lon="3.59136">
        <ele>805.392472</ele>
        <time>2020-03-09T16:54:09.321Z</time>
      </trkpt>
      <trkpt lat="44.20029" lon="3.59143">
        <ele>806.136113</ele>
        <time>2020-03-09T16:54:17.610Z</time>
      </trkpt>
      <trkpt lat="44.20049" lon="3.59161">
        <ele>806.816043</ele>
        <time>2020-03-09T16:54:25.316Z</time>
      </trkpt>
      <trkpt lat="44.20103" lon="3.59231">
        <ele>808.920804</ele>
        <time>2020-03-09T16:54:47.263Z</time>
      </trkpt>
      <trkpt lat="44.20121" lon="3.59247">
        <ele>808.881212</ele>
        <time>2020-03-09T16:54:51.848Z</time>
      </trkpt>
      <trkpt lat="44.20236" lon="3.59198">
        <ele>807.994484</ele>
        <time>2020-03-09T16:55:06.577Z</time>
      </trkpt>
      <trkpt lat="44.2025" lon="3.59203">
        <ele>807.884762</ele>
        <time>2020-03-09T16:55:08.130Z</time>
      </trkpt>
      <trkpt lat="44.20291" lon="3.59252">
        <ele>806.414628</ele>
        <time>2020-03-09T16:55:13.714Z</time>
      </trkpt>
      <trkpt lat="44.20369" lon="3.59314">
        <ele>802.077381</ele>
        <time>2020-03-09T16:55:22.929Z</time>
      </trkpt>
      <trkpt lat="44.2047" lon="3.59399">
        <ele>792.815439</ele>
        <time>2020-03-09T16:55:33.319Z</time>
      </trkpt>
      <trkpt lat="44.2051" lon="3.59429">
        <ele>787.657629</ele>
        <time>2020-03-09T16:55:37.117Z</time>
      </trkpt>
      <trkpt lat="44.20527" lon="3.59419">
        <ele>785.539378</ele>
        <time>2020-03-09T16:55:38.689Z</time>
      </trkpt>
      <trkpt lat="44.20537" lon="3.59386">
        <ele>782.557495</ele>
        <time>2020-03-09T16:55:40.880Z</time>
      </trkpt>
      <trkpt lat="44.20546" lon="3.59342">
        <ele>778.852866</ele>
        <time>2020-03-09T16:55:43.591Z</time>
      </trkpt>
      <trkpt lat="44.20554" lon="3.59302">
        <ele>775.218517</ele>
        <time>2020-03-09T16:55:46.097Z</time>
      </trkpt>
      <trkpt lat="44.20576" lon="3.59254">
        <ele>770.223912</ele>
        <time>2020-03-09T16:55:49.514Z</time>
      </trkpt>
      <trkpt lat="44.2061" lon="3.59182">
        <ele>762.68967</ele>
        <time>2020-03-09T16:55:54.699Z</time>
      </trkpt>
      <trkpt lat="44.20629" lon="3.59142">
        <ele>758.425574</ele>
        <time>2020-03-09T16:55:57.678Z</time>
      </trkpt>
      <trkpt lat="44.20638" lon="3.59106">
        <ele>755.632721</ele>
        <time>2020-03-09T16:56:00.039Z</time>
      </trkpt>
      <trkpt lat="44.2064" lon="3.59085">
        <ele>754.418196</ele>
        <time>2020-03-09T16:56:01.388Z</time>
      </trkpt>
      <trkpt lat="44.20638" lon="3.59064">
        <ele>753.236124</ele>
        <time>2020-03-09T16:56:02.752Z</time>
      </trkpt>
      <trkpt lat="44.20634" lon="3.59051">
        <ele>752.430645</ele>
        <time>2020-03-09T16:56:03.659Z</time>
      </trkpt>
      <trkpt lat="44.20626" lon="3.59025">
        <ele>750.830881</ele>
        <time>2020-03-09T16:56:05.488Z</time>
      </trkpt>
      <trkpt lat="44.20604" lon="3.58974">
        <ele>747.532898</ele>
        <time>2020-03-09T16:56:09.274Z</time>
      </trkpt>
      <trkpt lat="44.20596" lon="3.58949">
        <ele>745.946201</ele>
        <time>2020-03-09T16:56:11.062Z</time>
      </trkpt>
      <trkpt lat="44.20591" lon="3.58867">
        <ele>741.687523</ele>
        <time>2020-03-09T16:56:16.361Z</time>
      </trkpt>
      <trkpt lat="44.20607" lon="3.58781">
        <ele>738.364143</ele>
        <time>2020-03-09T16:56:22.157Z</time>
      </trkpt>
      <trkpt lat="44.20607" lon="3.58758">
        <ele>737.461808</ele>
        <time>2020-03-09T16:56:23.745Z</time>
      </trkpt>
      <trkpt lat="44.20598" lon="3.58705">
        <ele>735.436588</ele>
        <time>2020-03-09T16:56:27.470Z</time>
      </trkpt>
      <trkpt lat="44.20584" lon="3.58645">
        <ele>733.049408</ele>
        <time>2020-03-09T16:56:31.930Z</time>
      </trkpt>
      <trkpt lat="44.20574" lon="3.58621">
        <ele>732.458086</ele>
        <time>2020-03-09T16:56:33.917Z</time>
      </trkpt>
      <trkpt lat="44.20534" lon="3.58519">
        <ele>730.217861</ele>
        <time>2020-03-09T16:56:42.297Z</time>
      </trkpt>
      <trkpt lat="44.20498" lon="3.58409">
        <ele>728.281057</ele>
        <time>2020-03-09T16:56:51.720Z</time>
      </trkpt>
      <trkpt lat="44.20483" lon="3.58315">
        <ele>729.674941</ele>
        <time>2020-03-09T16:57:01.905Z</time>
      </trkpt>
      <trkpt lat="44.20483" lon="3.58285">
        <ele>730.104374</ele>
        <time>2020-03-09T16:57:08.260Z</time>
      </trkpt>
      <trkpt lat="44.20481" lon="3.58229">
        <ele>730.920739</ele>
        <time>2020-03-09T16:57:19.955Z</time>
      </trkpt>
      <trkpt lat="44.20488" lon="3.58201">
        <ele>731.348703</ele>
        <time>2020-03-09T16:57:27.540Z</time>
      </trkpt>
      <trkpt lat="44.20496" lon="3.5819">
        <ele>731.584594</ele>
        <time>2020-03-09T16:57:30.870Z</time>
      </trkpt>
      <trkpt lat="44.20506" lon="3.58183">
        <ele>731.896069</ele>
        <time>2020-03-09T16:57:34.238Z</time>
      </trkpt>
      <trkpt lat="44.20536" lon="3.58182">
        <ele>733.264962</ele>
        <time>2020-03-09T16:57:44.185Z</time>
      </trkpt>
      <trkpt lat="44.20547" lon="3.58185">
        <ele>733.817888</ele>
        <time>2020-03-09T16:57:48.462Z</time>
      </trkpt>
      <trkpt lat="44.20559" lon="3.58189">
        <ele>734.385365</ele>
        <time>2020-03-09T16:57:54.047Z</time>
      </trkpt>
      <trkpt lat="44.20619" lon="3.58211">
        <ele>737.269456</ele>
        <time>2020-03-09T16:58:15.721Z</time>
      </trkpt>
      <trkpt lat="44.20671" lon="3.58207">
        <ele>739.668588</ele>
        <time>2020-03-09T16:58:33.644Z</time>
      </trkpt>
      <trkpt lat="44.20701" lon="3.58214">
        <ele>739.94452</ele>
        <time>2020-03-09T16:58:43.970Z</time>
      </trkpt>
      <trkpt lat="44.20754" lon="3.58214">
        <ele>739.531587</ele>
        <time>2020-03-09T16:58:52.447Z</time>
      </trkpt>
      <trkpt lat="44.2078" lon="3.58208">
        <ele>739.334179</ele>
        <time>2020-03-09T16:58:55.397Z</time>
      </trkpt>
      <trkpt lat="44.2082" lon="3.58228">
        <ele>739.005273</ele>
        <time>2020-03-09T16:58:59.840Z</time>
      </trkpt>
      <trkpt lat="44.20844" lon="3.58248">
        <ele>738.784877</ele>
        <time>2020-03-09T16:59:02.697Z</time>
      </trkpt>
      <trkpt lat="44.20871" lon="3.58285">
        <ele>737.395</ele>
        <time>2020-03-09T16:59:06.350Z</time>
      </trkpt>
      <trkpt lat="44.20883" lon="3.58309">
        <ele>736.449436</ele>
        <time>2020-03-09T16:59:08.261Z</time>
      </trkpt>
      <trkpt lat="44.20891" lon="3.58334">
        <ele>735.542803</ele>
        <time>2020-03-09T16:59:10.169Z</time>
      </trkpt>
      <trkpt lat="44.20931" lon="3.58578">
        <ele>728.830053</ele>
        <time>2020-03-09T16:59:27.285Z</time>
      </trkpt>
      <trkpt lat="44.20977" lon="3.58713">
        <ele>726.210116</ele>
        <time>2020-03-09T16:59:40.033Z</time>
      </trkpt>
      <trkpt lat="44.21001" lon="3.58759">
        <ele>725.649701</ele>
        <time>2020-03-09T16:59:45.938Z</time>
      </trkpt>
      <trkpt lat="44.21027" lon="3.58786">
        <ele>725.237051</ele>
        <time>2020-03-09T16:59:50.593Z</time>
      </trkpt>
      <trkpt lat="44.21044" lon="3.58786">
        <ele>725.016598</ele>
        <time>2020-03-09T16:59:52.839Z</time>
      </trkpt>
      <trkpt lat="44.21057" lon="3.58773">
        <ele>724.811169</ele>
        <time>2020-03-09T16:59:54.869Z</time>
      </trkpt>
      <trkpt lat="44.21126" lon="3.58755">
        <ele>723.916713</ele>
        <time>2020-03-09T17:00:02.831Z</time>
      </trkpt>
      <trkpt lat="44.2125" lon="3.58746">
        <ele>718.942995</ele>
        <time>2020-03-09T17:00:15.178Z</time>
      </trkpt>
      <trkpt lat="44.21387" lon="3.58779">
        <ele>712.044187</ele>
        <time>2020-03-09T17:00:28.029Z</time>
      </trkpt>
      <trkpt lat="44.21498" lon="3.58745">
        <ele>705.887291</ele>
        <time>2020-03-09T17:00:38.442Z</time>
      </trkpt>
      <trkpt lat="44.21512" lon="3.58735">
        <ele>705.375076</ele>
        <time>2020-03-09T17:00:39.931Z</time>
      </trkpt>
      <trkpt lat="44.21536" lon="3.58703">
        <ele>704.293633</ele>
        <time>2020-03-09T17:00:43.149Z</time>
      </trkpt>
      <trkpt lat="44.21556" lon="3.58653">
        <ele>702.987351</ele>
        <time>2020-03-09T17:00:47.150Z</time>
      </trkpt>
      <trkpt lat="44.21583" lon="3.58577">
        <ele>701.005231</ele>
        <time>2020-03-09T17:00:53.758Z</time>
      </trkpt>
      <trkpt lat="44.21587" lon="3.58492">
        <ele>700.923027</ele>
        <time>2020-03-09T17:01:01.445Z</time>
      </trkpt>
      <trkpt lat="44.21624" lon="3.58402">
        <ele>701.873375</ele>
        <time>2020-03-09T17:01:16.794Z</time>
      </trkpt>
      <trkpt lat="44.21638" lon="3.58383">
        <ele>702.11562</ele>
        <time>2020-03-09T17:01:21.508Z</time>
      </trkpt>
      <trkpt lat="44.21718" lon="3.58333">
        <ele>704.246029</ele>
        <time>2020-03-09T17:01:45.165Z</time>
      </trkpt>
      <trkpt lat="44.21787" lon="3.58322">
        <ele>706.783946</ele>
        <time>2020-03-09T17:02:06.659Z</time>
      </trkpt>
      <trkpt lat="44.21809" lon="3.58336">
        <ele>707.689582</ele>
        <time>2020-03-09T17:02:15.065Z</time>
      </trkpt>
      <trkpt lat="44.21825" lon="3.58355">
        <ele>708.429279</ele>
        <time>2020-03-09T17:02:22.098Z</time>
      </trkpt>
      <trkpt lat="44.21859" lon="3.5844">
        <ele>709.16657</ele>
        <time>2020-03-09T17:02:41.318Z</time>
      </trkpt>
      <trkpt lat="44.21918" lon="3.58528">
        <ele>709.044427</ele>
        <time>2020-03-09T17:02:54.521Z</time>
      </trkpt>
      <trkpt lat="44.21927" lon="3.58537">
        <ele>709.027926</ele>
        <time>2020-03-09T17:02:55.670Z</time>
      </trkpt>
      <trkpt lat="44.21942" lon="3.58546">
        <ele>709.004621</ele>
        <time>2020-03-09T17:02:57.441Z</time>
      </trkpt>
      <trkpt lat="44.21969" lon="3.58551">
        <ele>708.335264</ele>
        <time>2020-03-09T17:03:00.091Z</time>
      </trkpt>
      <trkpt lat="44.21991" lon="3.58542">
        <ele>706.826899</ele>
        <time>2020-03-09T17:03:02.230Z</time>
      </trkpt>
      <trkpt lat="44.22007" lon="3.58525">
        <ele>705.494695</ele>
        <time>2020-03-09T17:03:04.074Z</time>
      </trkpt>
      <trkpt lat="44.22023" lon="3.585">
        <ele>703.917855</ele>
        <time>2020-03-09T17:03:06.191Z</time>
      </trkpt>
      <trkpt lat="44.22032" lon="3.5847">
        <ele>702.352588</ele>
        <time>2020-03-09T17:03:08.285Z</time>
      </trkpt>
      <trkpt lat="44.2204" lon="3.58423">
        <ele>700.067456</ele>
        <time>2020-03-09T17:03:11.289Z</time>
      </trkpt>
      <trkpt lat="44.2204" lon="3.58367">
        <ele>697.416581</ele>
        <time>2020-03-09T17:03:14.837Z</time>
      </trkpt>
      <trkpt lat="44.22017" lon="3.58281">
        <ele>694.432538</ele>
        <time>2020-03-09T17:03:20.908Z</time>
      </trkpt>
      <trkpt lat="44.22004" lon="3.58259">
        <ele>693.56077</ele>
        <time>2020-03-09T17:03:22.827Z</time>
      </trkpt>
      <trkpt lat="44.21976" lon="3.58233">
        <ele>692.12378</ele>
        <time>2020-03-09T17:03:26.081Z</time>
      </trkpt>
      <trkpt lat="44.21937" lon="3.58219">
        <ele>690.388511</ele>
        <time>2020-03-09T17:03:30.261Z</time>
      </trkpt>
      <trkpt lat="44.21903" lon="3.58196">
        <ele>689.339469</ele>
        <time>2020-03-09T17:03:34.714Z</time>
      </trkpt>
      <trkpt lat="44.21891" lon="3.58181">
        <ele>689.361127</ele>
        <time>2020-03-09T17:03:36.729Z</time>
      </trkpt>
      <trkpt lat="44.21879" lon="3.58137">
        <ele>689.408698</ele>
        <time>2020-03-09T17:03:42.066Z</time>
      </trkpt>
      <trkpt lat="44.21885" lon="3.58107">
        <ele>689.439816</ele>
        <time>2020-03-09T17:03:45.822Z</time>
      </trkpt>
      <trkpt lat="44.21967" lon="3.57974">
        <ele>689.671409</ele>
        <time>2020-03-09T17:04:08.722Z</time>
      </trkpt>
      <trkpt lat="44.22061" lon="3.57789">
        <ele>689.943658</ele>
        <time>2020-03-09T17:04:34.866Z</time>
      </trkpt>
      <trkpt lat="44.22064" lon="3.57738">
        <ele>689.431209</ele>
        <time>2020-03-09T17:04:39.392Z</time>
      </trkpt>
      <trkpt lat="44.22052" lon="3.5767">
        <ele>688.720909</ele>
        <time>2020-03-09T17:04:45.229Z</time>
      </trkpt>
      <trkpt lat="44.22048" lon="3.57626">
        <ele>688.2668</ele>
        <time>2020-03-09T17:04:48.774Z</time>
      </trkpt>
      <trkpt lat="44.2205" lon="3.57593">
        <ele>687.938448</ele>
        <time>2020-03-09T17:04:51.297Z</time>
      </trkpt>
      <trkpt lat="44.22077" lon="3.57534">
        <ele>687.483206</ele>
        <time>2020-03-09T17:04:56.639Z</time>
      </trkpt>
      <trkpt lat="44.22109" lon="3.57502">
        <ele>687.307261</ele>
        <time>2020-03-09T17:05:00.854Z</time>
      </trkpt>
      <trkpt lat="44.22129" lon="3.5749">
        <ele>687.207871</ele>
        <time>2020-03-09T17:05:03.309Z</time>
      </trkpt>
      <trkpt lat="44.22223" lon="3.57472">
        <ele>686.921113</ele>
        <time>2020-03-09T17:05:18.813Z</time>
      </trkpt>
      <trkpt lat="44.22248" lon="3.57472">
        <ele>688.352392</ele>
        <time>2020-03-09T17:05:25.423Z</time>
      </trkpt>
      <trkpt lat="44.22272" lon="3.5748">
        <ele>689.770019</ele>
        <time>2020-03-09T17:05:32.939Z</time>
      </trkpt>
      <trkpt lat="44.22284" lon="3.57498">
        <ele>690.77859</ele>
        <time>2020-03-09T17:05:39.177Z</time>
      </trkpt>
      <trkpt lat="44.22286" lon="3.57515">
        <ele>691.504182</ele>
        <time>2020-03-09T17:05:43.940Z</time>
      </trkpt>
      <trkpt lat="44.22247" lon="3.57587">
        <ele>695.212192</ele>
        <time>2020-03-09T17:06:12.038Z</time>
      </trkpt>
      <trkpt lat="44.22214" lon="3.5773">
        <ele>701.591003</ele>
        <time>2020-03-09T17:07:06.452Z</time>
      </trkpt>
      <trkpt lat="44.22214" lon="3.57751">
        <ele>702.475033</ele>
        <time>2020-03-09T17:07:13.306Z</time>
      </trkpt>
      <trkpt lat="44.22234" lon="3.57823">
        <ele>705.788148</ele>
        <time>2020-03-09T17:07:34.920Z</time>
      </trkpt>
      <trkpt lat="44.22269" lon="3.57882">
        <ele>707.014921</ele>
        <time>2020-03-09T17:07:48.314Z</time>
      </trkpt>
      <trkpt lat="44.22337" lon="3.57947">
        <ele>703.086242</ele>
        <time>2020-03-09T17:07:56.838Z</time>
      </trkpt>
      <trkpt lat="44.2241" lon="3.57982">
        <ele>699.439978</ele>
        <time>2020-03-09T17:08:03.530Z</time>
      </trkpt>
      <trkpt lat="44.22422" lon="3.57973">
        <ele>697.965343</ele>
        <time>2020-03-09T17:08:04.684Z</time>
      </trkpt>
      <trkpt lat="44.22488" lon="3.57877">
        <ele>686.930058</ele>
        <time>2020-03-09T17:08:12.726Z</time>
      </trkpt>
      <trkpt lat="44.22529" lon="3.57789">
        <ele>678.404413</ele>
        <time>2020-03-09T17:08:19.148Z</time>
      </trkpt>
      <trkpt lat="44.22551" lon="3.57753">
        <ele>676.512053</ele>
        <time>2020-03-09T17:08:21.993Z</time>
      </trkpt>
      <trkpt lat="44.22582" lon="3.57716">
        <ele>674.170126</ele>
        <time>2020-03-09T17:08:25.591Z</time>
      </trkpt>
      <trkpt lat="44.22624" lon="3.57684">
        <ele>671.401382</ele>
        <time>2020-03-09T17:08:30.172Z</time>
      </trkpt>
      <trkpt lat="44.22673" lon="3.57664">
        <ele>668.518933</ele>
        <time>2020-03-09T17:08:36.429Z</time>
      </trkpt>
      <trkpt lat="44.22728" lon="3.57643">
        <ele>667.488407</ele>
        <time>2020-03-09T17:08:43.898Z</time>
      </trkpt>
      <trkpt lat="44.22734" lon="3.57641">
        <ele>667.39946</ele>
        <time>2020-03-09T17:08:44.585Z</time>
      </trkpt>
      <trkpt lat="44.22793" lon="3.57628">
        <ele>666.502714</ele>
        <time>2020-03-09T17:08:54.077Z</time>
      </trkpt>
      <trkpt lat="44.22838" lon="3.57617">
        <ele>665.814718</ele>
        <time>2020-03-09T17:08:59.200Z</time>
      </trkpt>
      <trkpt lat="44.22839" lon="3.57645">
        <ele>665.454728</ele>
        <time>2020-03-09T17:09:01.671Z</time>
      </trkpt>
      <trkpt lat="44.22851" lon="3.57678">
        <ele>664.763989</ele>
        <time>2020-03-09T17:09:04.638Z</time>
      </trkpt>
      <trkpt lat="44.2286" lon="3.5769">
        <ele>664.430609</ele>
        <time>2020-03-09T17:09:06.156Z</time>
      </trkpt>
      <trkpt lat="44.22873" lon="3.57699">
        <ele>664.047938</ele>
        <time>2020-03-09T17:09:07.612Z</time>
      </trkpt>
      <trkpt lat="44.22927" lon="3.57717">
        <ele>662.593126</ele>
        <time>2020-03-09T17:09:13.118Z</time>
      </trkpt>
      <trkpt lat="44.22984" lon="3.57692">
        <ele>661.011548</ele>
        <time>2020-03-09T17:09:19.204Z</time>
      </trkpt>
      <trkpt lat="44.22994" lon="3.57688">
        <ele>660.779795</ele>
        <time>2020-03-09T17:09:20.272Z</time>
      </trkpt>
      <trkpt lat="44.2307" lon="3.57665">
        <ele>659.226568</ele>
        <time>2020-03-09T17:09:28.978Z</time>
      </trkpt>
      <trkpt lat="44.2312" lon="3.57664">
        <ele>658.21877</ele>
        <time>2020-03-09T17:09:34.718Z</time>
      </trkpt>
      <trkpt lat="44.23189" lon="3.57686">
        <ele>657.201267</ele>
        <time>2020-03-09T17:09:42.344Z</time>
      </trkpt>
      <trkpt lat="44.23221" lon="3.57708">
        <ele>657.098197</ele>
        <time>2020-03-09T17:09:46.343Z</time>
      </trkpt>
      <trkpt lat="44.23247" lon="3.57745">
        <ele>656.993716</ele>
        <time>2020-03-09T17:09:50.601Z</time>
      </trkpt>
      <trkpt lat="44.23285" lon="3.57843">
        <ele>656.763896</ele>
        <time>2020-03-09T17:10:03.421Z</time>
      </trkpt>
      <trkpt lat="44.23297" lon="3.57868">
        <ele>657.410387</ele>
        <time>2020-03-09T17:10:10.394Z</time>
      </trkpt>
      <trkpt lat="44.23321" lon="3.57892">
        <ele>658.547801</ele>
        <time>2020-03-09T17:10:19.134Z</time>
      </trkpt>
      <trkpt lat="44.23343" lon="3.57892">
        <ele>659.395045</ele>
        <time>2020-03-09T17:10:25.848Z</time>
      </trkpt>
      <trkpt lat="44.23353" lon="3.57882">
        <ele>659.863323</ele>
        <time>2020-03-09T17:10:29.996Z</time>
      </trkpt>
      <trkpt lat="44.2337" lon="3.57852">
        <ele>660.938521</ele>
        <time>2020-03-09T17:10:39.027Z</time>
      </trkpt>
      <trkpt lat="44.23376" lon="3.57822">
        <ele>661.804441</ele>
        <time>2020-03-09T17:10:47.714Z</time>
      </trkpt>
      <trkpt lat="44.23381" lon="3.57766">
        <ele>663.37209</ele>
        <time>2020-03-09T17:11:01.857Z</time>
      </trkpt>
      <trkpt lat="44.23395" lon="3.57714">
        <ele>663.538673</ele>
        <time>2020-03-09T17:11:13.067Z</time>
      </trkpt>
      <trkpt lat="44.23415" lon="3.57671">
        <ele>663.330449</ele>
        <time>2020-03-09T17:11:21.648Z</time>
      </trkpt>
      <trkpt lat="44.23446" lon="3.5763">
        <ele>663.094282</ele>
        <time>2020-03-09T17:11:28.368Z</time>
      </trkpt>
      <trkpt lat="44.23505" lon="3.57586">
        <ele>662.722545</ele>
        <time>2020-03-09T17:11:34.893Z</time>
      </trkpt>
      <trkpt lat="44.23569" lon="3.57561">
        <ele>659.703437</ele>
        <time>2020-03-09T17:11:40.940Z</time>
      </trkpt>
      <trkpt lat="44.23592" lon="3.57557">
        <ele>658.600829</ele>
        <time>2020-03-09T17:11:43.045Z</time>
      </trkpt>
      <trkpt lat="44.23649" lon="3.57573">
        <ele>655.822376</ele>
        <time>2020-03-09T17:11:48.587Z</time>
      </trkpt>
      <trkpt lat="44.23679" lon="3.57575">
        <ele>654.389998</ele>
        <time>2020-03-09T17:11:51.686Z</time>
      </trkpt>
      <trkpt lat="44.23688" lon="3.57572">
        <ele>654.159042</ele>
        <time>2020-03-09T17:11:52.479Z</time>
      </trkpt>
      <trkpt lat="44.23698" lon="3.57567">
        <ele>654.103457</ele>
        <time>2020-03-09T17:11:53.698Z</time>
      </trkpt>
      <trkpt lat="44.23713" lon="3.57572">
        <ele>654.019457</ele>
        <time>2020-03-09T17:11:55.628Z</time>
      </trkpt>
      <trkpt lat="44.23719" lon="3.57589">
        <ele>653.948131</ele>
        <time>2020-03-09T17:11:56.936Z</time>
      </trkpt>
      <trkpt lat="44.23719" lon="3.57594">
        <ele>653.928783</ele>
        <time>2020-03-09T17:11:57.413Z</time>
      </trkpt>
      <trkpt lat="44.23718" lon="3.57609">
        <ele>653.870151</ele>
        <time>2020-03-09T17:11:59.567Z</time>
      </trkpt>
      <trkpt lat="44.23742" lon="3.5768">
        <ele>653.567512</ele>
        <time>2020-03-09T17:12:07.540Z</time>
      </trkpt>
      <trkpt lat="44.23806" lon="3.57751">
        <ele>653.176357</ele>
        <time>2020-03-09T17:12:23.538Z</time>
      </trkpt>
      <trkpt lat="44.23818" lon="3.5777">
        <ele>653.136911</ele>
        <time>2020-03-09T17:12:25.834Z</time>
      </trkpt>
      <trkpt lat="44.23828" lon="3.57811">
        <ele>653.070172</ele>
        <time>2020-03-09T17:12:30.628Z</time>
      </trkpt>
      <trkpt lat="44.23833" lon="3.5785">
        <ele>653.006995</ele>
        <time>2020-03-09T17:12:35.327Z</time>
      </trkpt>
      <trkpt lat="44.23835" lon="3.57865">
        <ele>652.984251</ele>
        <time>2020-03-09T17:12:36.301Z</time>
      </trkpt>
      <trkpt lat="44.23845" lon="3.57915">
        <ele>652.901669</ele>
        <time>2020-03-09T17:12:41.352Z</time>
      </trkpt>
      <trkpt lat="44.23871" lon="3.57947">
        <ele>652.826928</ele>
        <time>2020-03-09T17:12:46.532Z</time>
      </trkpt>
      <trkpt lat="44.23892" lon="3.57956">
        <ele>652.57218</ele>
        <time>2020-03-09T17:12:50.689Z</time>
      </trkpt>
      <trkpt lat="44.23913" lon="3.57956">
        <ele>652.282911</ele>
        <time>2020-03-09T17:12:52.982Z</time>
      </trkpt>
      <trkpt lat="44.23929" lon="3.57945">
        <ele>652.030155</ele>
        <time>2020-03-09T17:12:55.775Z</time>
      </trkpt>
      <trkpt lat="44.23939" lon="3.57928">
        <ele>651.818469</ele>
        <time>2020-03-09T17:12:57.249Z</time>
      </trkpt>
      <trkpt lat="44.23941" lon="3.57916">
        <ele>651.699886</ele>
        <time>2020-03-09T17:12:58.176Z</time>
      </trkpt>
      <trkpt lat="44.23942" lon="3.57904">
        <ele>651.578308</ele>
        <time>2020-03-09T17:12:59.525Z</time>
      </trkpt>
      <trkpt lat="44.23942" lon="3.5789">
        <ele>651.441791</ele>
        <time>2020-03-09T17:13:00.655Z</time>
      </trkpt>
      <trkpt lat="44.23943" lon="3.57876">
        <ele>651.308856</ele>
        <time>2020-03-09T17:13:01.899Z</time>
      </trkpt>
      <trkpt lat="44.23947" lon="3.57868">
        <ele>651.208062</ele>
        <time>2020-03-09T17:13:02.665Z</time>
      </trkpt>
      <trkpt lat="44.23951" lon="3.57861">
        <ele>651.125543</ele>
        <time>2020-03-09T17:13:03.389Z</time>
      </trkpt>
      <trkpt lat="44.23956" lon="3.57856">
        <ele>651.038877</ele>
        <time>2020-03-09T17:13:04.487Z</time>
      </trkpt>
      <trkpt lat="44.23965" lon="3.57848">
        <ele>650.894004</ele>
        <time>2020-03-09T17:13:05.642Z</time>
      </trkpt>
      <trkpt lat="44.23972" lon="3.57842">
        <ele>650.77592</ele>
        <time>2020-03-09T17:13:06.551Z</time>
      </trkpt>
      <trkpt lat="44.23979" lon="3.57838">
        <ele>650.668766</ele>
        <time>2020-03-09T17:13:07.326Z</time>
      </trkpt>
      <trkpt lat="44.24" lon="3.57832">
        <ele>650.374512</ele>
        <time>2020-03-09T17:13:10.043Z</time>
      </trkpt>
      <trkpt lat="44.24019" lon="3.5783">
        <ele>649.91395</ele>
        <time>2020-03-09T17:13:12.088Z</time>
      </trkpt>
      <trkpt lat="44.24038" lon="3.57829">
        <ele>649.423378</ele>
        <time>2020-03-09T17:13:14.261Z</time>
      </trkpt>
      <trkpt lat="44.24057" lon="3.57829">
        <ele>648.963914</ele>
        <time>2020-03-09T17:13:16.334Z</time>
      </trkpt>
      <trkpt lat="44.24078" lon="3.57831">
        <ele>648.426682</ele>
        <time>2020-03-09T17:13:18.695Z</time>
      </trkpt>
      <trkpt lat="44.24081" lon="3.57832">
        <ele>648.338088</ele>
        <time>2020-03-09T17:13:19.042Z</time>
      </trkpt>
      <trkpt lat="44.24093" lon="3.57837">
        <ele>648.017245</ele>
        <time>2020-03-09T17:13:20.427Z</time>
      </trkpt>
      <trkpt lat="44.24102" lon="3.57849">
        <ele>647.711849</ele>
        <time>2020-03-09T17:13:21.689Z</time>
      </trkpt>
      <trkpt lat="44.24109" lon="3.57864">
        <ele>647.387301</ele>
        <time>2020-03-09T17:13:22.901Z</time>
      </trkpt>
      <trkpt lat="44.24138" lon="3.57908">
        <ele>646.298088</ele>
        <time>2020-03-09T17:13:27.239Z</time>
      </trkpt>
      <trkpt lat="44.24156" lon="3.57933">
        <ele>645.650142</ele>
        <time>2020-03-09T17:13:29.786Z</time>
      </trkpt>
      <trkpt lat="44.24169" lon="3.57948">
        <ele>645.206672</ele>
        <time>2020-03-09T17:13:31.621Z</time>
      </trkpt>
      <trkpt lat="44.24234" lon="3.58007">
        <ele>643.161165</ele>
        <time>2020-03-09T17:13:39.561Z</time>
      </trkpt>
      <trkpt lat="44.2427" lon="3.5803">
        <ele>642.118586</ele>
        <time>2020-03-09T17:13:43.755Z</time>
      </trkpt>
      <trkpt lat="44.24279" lon="3.5806">
        <ele>641.506485</ele>
        <time>2020-03-09T17:13:46.338Z</time>
      </trkpt>
      <trkpt lat="44.24271" lon="3.58104">
        <ele>640.803571</ele>
        <time>2020-03-09T17:13:49.936Z</time>
      </trkpt>
      <trkpt lat="44.24261" lon="3.58146">
        <ele>640.261109</ele>
        <time>2020-03-09T17:13:53.532Z</time>
      </trkpt>
      <trkpt lat="44.24262" lon="3.5816">
        <ele>640.093843</ele>
        <time>2020-03-09T17:13:54.614Z</time>
      </trkpt>
      <trkpt lat="44.24265" lon="3.58168">
        <ele>639.984764</ele>
        <time>2020-03-09T17:13:55.343Z</time>
      </trkpt>
      <trkpt lat="44.24269" lon="3.58173">
        <ele>639.89481</ele>
        <time>2020-03-09T17:13:55.898Z</time>
      </trkpt>
      <trkpt lat="44.24277" lon="3.5818">
        <ele>639.735656</ele>
        <time>2020-03-09T17:13:57.046Z</time>
      </trkpt>
      <trkpt lat="44.24389" lon="3.58239">
        <ele>638.03845</ele>
        <time>2020-03-09T17:14:10.530Z</time>
      </trkpt>
      <trkpt lat="44.24403" lon="3.58256">
        <ele>638.056656</ele>
        <time>2020-03-09T17:14:12.798Z</time>
      </trkpt>
      <trkpt lat="44.24456" lon="3.58292">
        <ele>638.116748</ele>
        <time>2020-03-09T17:14:21.229Z</time>
      </trkpt>
      <trkpt lat="44.24474" lon="3.58311">
        <ele>638.140112</ele>
        <time>2020-03-09T17:14:25.078Z</time>
      </trkpt>
      <trkpt lat="44.24493" lon="3.58343">
        <ele>638.170143</ele>
        <time>2020-03-09T17:14:30.337Z</time>
      </trkpt>
      <trkpt lat="44.2455" lon="3.58388">
        <ele>638.909918</ele>
        <time>2020-03-09T17:14:43.746Z</time>
      </trkpt>
      <trkpt lat="44.24572" lon="3.58389">
        <ele>639.3666</ele>
        <time>2020-03-09T17:14:48.818Z</time>
      </trkpt>
      <trkpt lat="44.24597" lon="3.58358">
        <ele>640.061036</ele>
        <time>2020-03-09T17:14:57.238Z</time>
      </trkpt>
      <trkpt lat="44.2471" lon="3.58095">
        <ele>643.053643</ele>
        <time>2020-03-09T17:15:50.210Z</time>
      </trkpt>
      <trkpt lat="44.24764" lon="3.58028">
        <ele>642.577223</ele>
        <time>2020-03-09T17:15:58.058Z</time>
      </trkpt>
      <trkpt lat="44.24789" lon="3.57999">
        <ele>641.1943</ele>
        <time>2020-03-09T17:16:01.355Z</time>
      </trkpt>
      <trkpt lat="44.24808" lon="3.57983">
        <ele>640.266851</ele>
        <time>2020-03-09T17:16:03.565Z</time>
      </trkpt>
      <trkpt lat="44.24827" lon="3.57979">
        <ele>639.459402</ele>
        <time>2020-03-09T17:16:05.313Z</time>
      </trkpt>
      <trkpt lat="44.24913" lon="3.57978">
        <ele>635.816678</ele>
        <time>2020-03-09T17:16:13.336Z</time>
      </trkpt>
      <trkpt lat="44.2494" lon="3.57968">
        <ele>634.568074</ele>
        <time>2020-03-09T17:16:15.955Z</time>
      </trkpt>
      <trkpt lat="44.24987" lon="3.57937">
        <ele>632.306314</ele>
        <time>2020-03-09T17:16:20.916Z</time>
      </trkpt>
      <trkpt lat="44.2501" lon="3.57936">
        <ele>631.323413</ele>
        <time>2020-03-09T17:16:23.160Z</time>
      </trkpt>
      <trkpt lat="44.25031" lon="3.57942">
        <ele>630.397728</ele>
        <time>2020-03-09T17:16:25.278Z</time>
      </trkpt>
      <trkpt lat="44.25045" lon="3.57953">
        <ele>629.697088</ele>
        <time>2020-03-09T17:16:26.855Z</time>
      </trkpt>
      <trkpt lat="44.25056" lon="3.57967">
        <ele>629.040449</ele>
        <time>2020-03-09T17:16:28.339Z</time>
      </trkpt>
      <trkpt lat="44.25076" lon="3.58014">
        <ele>627.446824</ele>
        <time>2020-03-09T17:16:32.174Z</time>
      </trkpt>
      <trkpt lat="44.25102" lon="3.58048">
        <ele>626.146408</ele>
        <time>2020-03-09T17:16:35.695Z</time>
      </trkpt>
      <trkpt lat="44.25147" lon="3.58088">
        <ele>624.208206</ele>
        <time>2020-03-09T17:16:40.995Z</time>
      </trkpt>
      <trkpt lat="44.25193" lon="3.58136">
        <ele>622.112974</ele>
        <time>2020-03-09T17:16:46.722Z</time>
      </trkpt>
      <trkpt lat="44.25289" lon="3.58261">
        <ele>618.934477</ele>
        <time>2020-03-09T17:16:59.912Z</time>
      </trkpt>
      <trkpt lat="44.25328" lon="3.5832">
        <ele>617.640939</ele>
        <time>2020-03-09T17:17:06.789Z</time>
      </trkpt>
      <trkpt lat="44.2538" lon="3.58361">
        <ele>618.881024</ele>
        <time>2020-03-09T17:17:17.136Z</time>
      </trkpt>
      <trkpt lat="44.25384" lon="3.58362">
        <ele>618.973768</ele>
        <time>2020-03-09T17:17:17.690Z</time>
      </trkpt>
      <trkpt lat="44.25403" lon="3.58366">
        <ele>619.515264</ele>
        <time>2020-03-09T17:17:22.011Z</time>
      </trkpt>
      <trkpt lat="44.25479" lon="3.58382">
        <ele>621.638729</ele>
        <time>2020-03-09T17:17:43.754Z</time>
      </trkpt>
      <trkpt lat="44.25493" lon="3.58381">
        <ele>622.024238</ele>
        <time>2020-03-09T17:17:48.343Z</time>
      </trkpt>
      <trkpt lat="44.25528" lon="3.58351">
        <ele>624.051632</ele>
        <time>2020-03-09T17:18:05.978Z</time>
      </trkpt>
      <trkpt lat="44.25544" lon="3.58359">
        <ele>625.103432</ele>
        <time>2020-03-09T17:18:11.739Z</time>
      </trkpt>
      <trkpt lat="44.25554" lon="3.58372">
        <ele>625.963741</ele>
        <time>2020-03-09T17:18:20.014Z</time>
      </trkpt>
      <trkpt lat="44.2558" lon="3.58369">
        <ele>627.543923</ele>
        <time>2020-03-09T17:18:29.045Z</time>
      </trkpt>
      <trkpt lat="44.25585" lon="3.58354">
        <ele>628.25663</ele>
        <time>2020-03-09T17:18:36.202Z</time>
      </trkpt>
      <trkpt lat="44.25585" lon="3.58266">
        <ele>632.182355</ele>
        <time>2020-03-09T17:18:59.530Z</time>
      </trkpt>
      <trkpt lat="44.25587" lon="3.58262">
        <ele>632.406316</ele>
        <time>2020-03-09T17:19:03.450Z</time>
      </trkpt>
      <trkpt lat="44.25591" lon="3.58255">
        <ele>632.818016</ele>
        <time>2020-03-09T17:19:05.754Z</time>
      </trkpt>
      <trkpt lat="44.25602" lon="3.58248">
        <ele>633.532147</ele>
        <time>2020-03-09T17:19:08.561Z</time>
      </trkpt>
      <trkpt lat="44.25612" lon="3.58252">
        <ele>633.77285</ele>
        <time>2020-03-09T17:19:11.600Z</time>
      </trkpt>
      <trkpt lat="44.25644" lon="3.58293">
        <ele>634.745997</ele>
        <time>2020-03-09T17:19:28.100Z</time>
      </trkpt>
      <trkpt lat="44.25683" lon="3.58304">
        <ele>635.630358</ele>
        <time>2020-03-09T17:19:39.455Z</time>
      </trkpt>
      <trkpt lat="44.25798" lon="3.58274">
        <ele>636.729037</ele>
        <time>2020-03-09T17:19:55.668Z</time>
      </trkpt>
      <trkpt lat="44.25834" lon="3.58258">
        <ele>635.701485</ele>
        <time>2020-03-09T17:19:59.711Z</time>
      </trkpt>
      <trkpt lat="44.2585" lon="3.58259">
        <ele>635.262808</ele>
        <time>2020-03-09T17:20:01.380Z</time>
      </trkpt>
      <trkpt lat="44.25867" lon="3.5826">
        <ele>634.80724</ele>
        <time>2020-03-09T17:20:03.113Z</time>
      </trkpt>
      <trkpt lat="44.25889" lon="3.58258">
        <ele>634.210618</ele>
        <time>2020-03-09T17:20:05.307Z</time>
      </trkpt>
      <trkpt lat="44.25934" lon="3.58265">
        <ele>632.972269</ele>
        <time>2020-03-09T17:20:09.827Z</time>
      </trkpt>
      <trkpt lat="44.25967" lon="3.5825">
        <ele>631.695706</ele>
        <time>2020-03-09T17:20:13.101Z</time>
      </trkpt>
      <trkpt lat="44.2602" lon="3.58258">
        <ele>629.441805</ele>
        <time>2020-03-09T17:20:18.164Z</time>
      </trkpt>
      <trkpt lat="44.2608" lon="3.58241">
        <ele>626.867989</ele>
        <time>2020-03-09T17:20:24.067Z</time>
      </trkpt>
      <trkpt lat="44.26127" lon="3.58243">
        <ele>625.016858</ele>
        <time>2020-03-09T17:20:28.704Z</time>
      </trkpt>
      <trkpt lat="44.26191" lon="3.58234">
        <ele>623.6705</ele>
        <time>2020-03-09T17:20:35.219Z</time>
      </trkpt>
      <trkpt lat="44.26236" lon="3.58234">
        <ele>622.698535</ele>
        <time>2020-03-09T17:20:40.257Z</time>
      </trkpt>
      <trkpt lat="44.26336" lon="3.58259">
        <ele>621.055133</ele>
        <time>2020-03-09T17:20:52.678Z</time>
      </trkpt>
      <trkpt lat="44.26362" lon="3.58256">
        <ele>620.858238</ele>
        <time>2020-03-09T17:20:56.307Z</time>
      </trkpt>
      <trkpt lat="44.26389" lon="3.58239">
        <ele>620.625467</ele>
        <time>2020-03-09T17:21:00.670Z</time>
      </trkpt>
      <trkpt lat="44.2648" lon="3.58123">
        <ele>619.193161</ele>
        <time>2020-03-09T17:21:16.066Z</time>
      </trkpt>
      <trkpt lat="44.26496" lon="3.58116">
        <ele>618.828209</ele>
        <time>2020-03-09T17:21:17.927Z</time>
      </trkpt>
      <trkpt lat="44.26544" lon="3.58115">
        <ele>617.807999</ele>
        <time>2020-03-09T17:21:22.947Z</time>
      </trkpt>
      <trkpt lat="44.26621" lon="3.58052">
        <ele>616.024435</ele>
        <time>2020-03-09T17:21:32.184Z</time>
      </trkpt>
      <trkpt lat="44.26643" lon="3.58045">
        <ele>615.810358</ele>
        <time>2020-03-09T17:21:34.569Z</time>
      </trkpt>
      <trkpt lat="44.26662" lon="3.58053">
        <ele>615.624711</ele>
        <time>2020-03-09T17:21:36.626Z</time>
      </trkpt>
      <trkpt lat="44.2671" lon="3.58113">
        <ele>615.012774</ele>
        <time>2020-03-09T17:21:43.975Z</time>
      </trkpt>
      <trkpt lat="44.26818" lon="3.58229">
        <ele>615.110982</ele>
        <time>2020-03-09T17:22:10.495Z</time>
      </trkpt>
      <trkpt lat="44.26821" lon="3.58232">
        <ele>615.148644</ele>
        <time>2020-03-09T17:22:12.471Z</time>
      </trkpt>
      <trkpt lat="44.26851" lon="3.58266">
        <ele>615.511903</ele>
        <time>2020-03-09T17:22:20.077Z</time>
      </trkpt>
      <trkpt lat="44.26884" lon="3.5832">
        <ele>615.994539</ele>
        <time>2020-03-09T17:22:28.178Z</time>
      </trkpt>
      <trkpt lat="44.26895" lon="3.58345">
        <ele>616.019098</ele>
        <time>2020-03-09T17:22:32.542Z</time>
      </trkpt>
      <trkpt lat="44.26934" lon="3.58429">
        <ele>615.061848</ele>
        <time>2020-03-09T17:22:42.249Z</time>
      </trkpt>
      <trkpt lat="44.26977" lon="3.58512">
        <ele>614.085493</ele>
        <time>2020-03-09T17:22:50.186Z</time>
      </trkpt>
      <trkpt lat="44.27047" lon="3.58661">
        <ele>611.713783</ele>
        <time>2020-03-09T17:23:03.529Z</time>
      </trkpt>
      <trkpt lat="44.27096" lon="3.58732">
        <ele>610.296306</ele>
        <time>2020-03-09T17:23:11.695Z</time>
      </trkpt>
      <trkpt lat="44.27131" lon="3.58777">
        <ele>610.112726</ele>
        <time>2020-03-09T17:23:17.666Z</time>
      </trkpt>
      <trkpt lat="44.27148" lon="3.58804">
        <ele>610.103841</ele>
        <time>2020-03-09T17:23:21.213Z</time>
      </trkpt>
      <trkpt lat="44.27198" lon="3.58859">
        <ele>610.08165</ele>
        <time>2020-03-09T17:23:31.110Z</time>
      </trkpt>
      <trkpt lat="44.27212" lon="3.58882">
        <ele>610.074492</ele>
        <time>2020-03-09T17:23:34.428Z</time>
      </trkpt>
      <trkpt lat="44.27251" lon="3.58981">
        <ele>610.745304</ele>
        <time>2020-03-09T17:23:49.350Z</time>
      </trkpt>
      <trkpt lat="44.27277" lon="3.59084">
        <ele>611.787884</ele>
        <time>2020-03-09T17:24:05.087Z</time>
      </trkpt>
      <trkpt lat="44.27292" lon="3.59112">
        <ele>612.124101</ele>
        <time>2020-03-09T17:24:10.348Z</time>
      </trkpt>
      <trkpt lat="44.27317" lon="3.59133">
        <ele>612.592572</ele>
        <time>2020-03-09T17:24:16.901Z</time>
      </trkpt>
      <trkpt lat="44.27351" lon="3.59146">
        <ele>613.825493</ele>
        <time>2020-03-09T17:24:25.175Z</time>
      </trkpt>
      <trkpt lat="44.27395" lon="3.59149">
        <ele>615.32234</ele>
        <time>2020-03-09T17:24:36.130Z</time>
      </trkpt>
      <trkpt lat="44.27416" lon="3.59144">
        <ele>616.068616</ele>
        <time>2020-03-09T17:24:42.120Z</time>
      </trkpt>
      <trkpt lat="44.27429" lon="3.59135">
        <ele>616.577084</ele>
        <time>2020-03-09T17:24:46.864Z</time>
      </trkpt>
      <trkpt lat="44.27455" lon="3.59103">
        <ele>617.741076</ele>
        <time>2020-03-09T17:24:59.068Z</time>
      </trkpt>
      <trkpt lat="44.27474" lon="3.59066">
        <ele>618.921969</ele>
        <time>2020-03-09T17:25:10.528Z</time>
      </trkpt>
      <trkpt lat="44.27495" lon="3.58983">
        <ele>621.552433</ele>
        <time>2020-03-09T17:25:31.833Z</time>
      </trkpt>
      <trkpt lat="44.27508" lon="3.58918">
        <ele>623.576211</ele>
        <time>2020-03-09T17:25:47.985Z</time>
      </trkpt>
      <trkpt lat="44.27512" lon="3.58904">
        <ele>624.014841</ele>
        <time>2020-03-09T17:25:50.941Z</time>
      </trkpt>
      <trkpt lat="44.27524" lon="3.58877">
        <ele>624.964527</ele>
        <time>2020-03-09T17:25:57.878Z</time>
      </trkpt>
      <trkpt lat="44.27556" lon="3.58834">
        <ele>626.141475</ele>
        <time>2020-03-09T17:26:10.296Z</time>
      </trkpt>
      <trkpt lat="44.27569" lon="3.58781">
        <ele>626.077413</ele>
        <time>2020-03-09T17:26:20.063Z</time>
      </trkpt>
      <trkpt lat="44.27587" lon="3.58745">
        <ele>626.026615</ele>
        <time>2020-03-09T17:26:25.628Z</time>
      </trkpt>
      <trkpt lat="44.27659" lon="3.58633">
        <ele>625.172296</ele>
        <time>2020-03-09T17:26:37.502Z</time>
      </trkpt>
      <trkpt lat="44.27747" lon="3.58523">
        <ele>619.55062</ele>
        <time>2020-03-09T17:26:48.783Z</time>
      </trkpt>
      <trkpt lat="44.27763" lon="3.58514">
        <ele>618.724951</ele>
        <time>2020-03-09T17:26:50.356Z</time>
      </trkpt>
      <trkpt lat="44.27876" lon="3.58552">
        <ele>612.111387</ele>
        <time>2020-03-09T17:27:00.823Z</time>
      </trkpt>
      <trkpt lat="44.27925" lon="3.58608">
        <ele>608.287139</ele>
        <time>2020-03-09T17:27:06.672Z</time>
      </trkpt>
      <trkpt lat="44.27951" lon="3.58627">
        <ele>606.495038</ele>
        <time>2020-03-09T17:27:09.439Z</time>
      </trkpt>
      <trkpt lat="44.27986" lon="3.58698">
        <ele>605.597734</ele>
        <time>2020-03-09T17:27:15.454Z</time>
      </trkpt>
      <trkpt lat="44.28019" lon="3.58742">
        <ele>604.927672</ele>
        <time>2020-03-09T17:27:21.009Z</time>
      </trkpt>
      <trkpt lat="44.28027" lon="3.58752">
        <ele>604.774314</ele>
        <time>2020-03-09T17:27:22.321Z</time>
      </trkpt>
      <trkpt lat="44.28034" lon="3.58761">
        <ele>604.631671</ele>
        <time>2020-03-09T17:27:23.297Z</time>
      </trkpt>
      <trkpt lat="44.28054" lon="3.58799">
        <ele>604.142329</ele>
        <time>2020-03-09T17:27:30.410Z</time>
      </trkpt>
      <trkpt lat="44.28054" lon="3.58799">
        <ele>604.136266</ele>
        <time>2020-03-09T17:27:30.448Z</time>
      </trkpt>
      <trkpt lat="44.28062" lon="3.58808">
        <ele>603.994423</ele>
        <time>2020-03-09T17:27:34.384Z</time>
      </trkpt>
      <trkpt lat="44.28079" lon="3.5881">
        <ele>604.012057</ele>
        <time>2020-03-09T17:27:37.908Z</time>
      </trkpt>
      <trkpt lat="44.28089" lon="3.58803">
        <ele>604.199213</ele>
        <time>2020-03-09T17:27:39.226Z</time>
      </trkpt>
      <trkpt lat="44.28095" lon="3.58796">
        <ele>604.322368</ele>
        <time>2020-03-09T17:27:42.845Z</time>
      </trkpt>
      <trkpt lat="44.28179" lon="3.5869">
        <ele>606.199637</ele>
        <time>2020-03-09T17:28:09.781Z</time>
      </trkpt>
      <trkpt lat="44.28199" lon="3.58684">
        <ele>606.529623</ele>
        <time>2020-03-09T17:28:13.501Z</time>
      </trkpt>
      <trkpt lat="44.2821" lon="3.5869">
        <ele>606.735997</ele>
        <time>2020-03-09T17:28:16.801Z</time>
      </trkpt>
      <trkpt lat="44.28299" lon="3.58752">
        <ele>605.776794</ele>
        <time>2020-03-09T17:28:29.672Z</time>
      </trkpt>
      <trkpt lat="44.28335" lon="3.58748">
        <ele>605.355226</ele>
        <time>2020-03-09T17:28:33.732Z</time>
      </trkpt>
      <trkpt lat="44.28347" lon="3.58756">
        <ele>605.193721</ele>
        <time>2020-03-09T17:28:35.237Z</time>
      </trkpt>
      <trkpt lat="44.28347" lon="3.58779">
        <ele>604.999921</ele>
        <time>2020-03-09T17:28:36.996Z</time>
      </trkpt>
      <trkpt lat="44.28307" lon="3.58881">
        <ele>603.544076</ele>
        <time>2020-03-09T17:28:45.717Z</time>
      </trkpt>
      <trkpt lat="44.28281" lon="3.58916">
        <ele>602.848262</ele>
        <time>2020-03-09T17:28:49.523Z</time>
      </trkpt>
      <trkpt lat="44.28275" lon="3.58933">
        <ele>602.590867</ele>
        <time>2020-03-09T17:28:51.012Z</time>
      </trkpt>
      <trkpt lat="44.28276" lon="3.58957">
        <ele>602.258984</ele>
        <time>2020-03-09T17:28:52.938Z</time>
      </trkpt>
      <trkpt lat="44.28308" lon="3.59049">
        <ele>601.176986</ele>
        <time>2020-03-09T17:29:01.916Z</time>
      </trkpt>
      <trkpt lat="44.28375" lon="3.59172">
        <ele>600.676278</ele>
        <time>2020-03-09T17:29:16.180Z</time>
      </trkpt>
      <trkpt lat="44.28463" lon="3.59427">
        <ele>601.815482</ele>
        <time>2020-03-09T17:29:49.707Z</time>
      </trkpt>
      <trkpt lat="44.2848" lon="3.59496">
        <ele>603.326197</ele>
        <time>2020-03-09T17:30:02.267Z</time>
      </trkpt>
      <trkpt lat="44.28483" lon="3.59528">
        <ele>604.399277</ele>
        <time>2020-03-09T17:30:08.650Z</time>
      </trkpt>
      <trkpt lat="44.2849" lon="3.5965">
        <ele>608.4513</ele>
        <time>2020-03-09T17:30:38.562Z</time>
      </trkpt>
      <trkpt lat="44.28503" lon="3.59669">
        <ele>609.294237</ele>
        <time>2020-03-09T17:30:46.137Z</time>
      </trkpt>
      <trkpt lat="44.28518" lon="3.59677">
        <ele>610.051003</ele>
        <time>2020-03-09T17:30:53.087Z</time>
      </trkpt>
      <trkpt lat="44.28527" lon="3.59677">
        <ele>610.550222</ele>
        <time>2020-03-09T17:30:57.043Z</time>
      </trkpt>
      <trkpt lat="44.28577" lon="3.59645">
        <ele>614.659473</ele>
        <time>2020-03-09T17:31:21.803Z</time>
      </trkpt>
      <trkpt lat="44.28664" lon="3.59629">
        <ele>621.296036</ele>
        <time>2020-03-09T17:32:04.873Z</time>
      </trkpt>
      <trkpt lat="44.28685" lon="3.59611">
        <ele>623.11458</ele>
        <time>2020-03-09T17:32:13.424Z</time>
      </trkpt>
      <trkpt lat="44.28705" lon="3.59559">
        <ele>625.095478</ele>
        <time>2020-03-09T17:32:31.375Z</time>
      </trkpt>
      <trkpt lat="44.2871" lon="3.59551">
        <ele>625.389724</ele>
        <time>2020-03-09T17:32:37.435Z</time>
      </trkpt>
      <trkpt lat="44.28717" lon="3.59549">
        <ele>625.689052</ele>
        <time>2020-03-09T17:32:39.209Z</time>
      </trkpt>
      <trkpt lat="44.28722" lon="3.59555">
        <ele>625.925557</ele>
        <time>2020-03-09T17:32:41.348Z</time>
      </trkpt>
      <trkpt lat="44.28726" lon="3.5956">
        <ele>626.139137</ele>
        <time>2020-03-09T17:32:42.238Z</time>
      </trkpt>
      <trkpt lat="44.28734" lon="3.59553">
        <ele>626.471249</ele>
        <time>2020-03-09T17:32:45.613Z</time>
      </trkpt>
      <trkpt lat="44.28783" lon="3.59524">
        <ele>628.547715</ele>
        <time>2020-03-09T17:33:07.036Z</time>
      </trkpt>
      <trkpt lat="44.28893" lon="3.59411">
        <ele>628.229876</ele>
        <time>2020-03-09T17:33:23.421Z</time>
      </trkpt>
      <trkpt lat="44.28903" lon="3.5941">
        <ele>627.879975</ele>
        <time>2020-03-09T17:33:25.539Z</time>
      </trkpt>
      <trkpt lat="44.28911" lon="3.59412">
        <ele>627.590434</ele>
        <time>2020-03-09T17:33:26.266Z</time>
      </trkpt>
      <trkpt lat="44.28923" lon="3.59427">
        <ele>627.077289</ele>
        <time>2020-03-09T17:33:27.826Z</time>
      </trkpt>
      <trkpt lat="44.28925" lon="3.59442">
        <ele>626.715596</ele>
        <time>2020-03-09T17:33:29.304Z</time>
      </trkpt>
      <trkpt lat="44.2891" lon="3.59533">
        <ele>624.386669</ele>
        <time>2020-03-09T17:33:35.443Z</time>
      </trkpt>
      <trkpt lat="44.2891" lon="3.59567">
        <ele>623.360903</ele>
        <time>2020-03-09T17:33:37.626Z</time>
      </trkpt>
      <trkpt lat="44.28919" lon="3.59594">
        <ele>622.482834</ele>
        <time>2020-03-09T17:33:39.575Z</time>
      </trkpt>
      <trkpt lat="44.28929" lon="3.59605">
        <ele>621.954915</ele>
        <time>2020-03-09T17:33:40.678Z</time>
      </trkpt>
      <trkpt lat="44.28989" lon="3.59632">
        <ele>619.346633</ele>
        <time>2020-03-09T17:33:46.608Z</time>
      </trkpt>
      <trkpt lat="44.29003" lon="3.59645">
        <ele>618.632801</ele>
        <time>2020-03-09T17:33:48.299Z</time>
      </trkpt>
      <trkpt lat="44.29042" lon="3.59713">
        <ele>618.880612</ele>
        <time>2020-03-09T17:33:57.726Z</time>
      </trkpt>
      <trkpt lat="44.29073" lon="3.59811">
        <ele>622.849117</ele>
        <time>2020-03-09T17:34:24.835Z</time>
      </trkpt>
      <trkpt lat="44.29083" lon="3.59825">
        <ele>623.560055</ele>
        <time>2020-03-09T17:34:33.511Z</time>
      </trkpt>
      <trkpt lat="44.29102" lon="3.59835">
        <ele>624.614643</ele>
        <time>2020-03-09T17:34:40.126Z</time>
      </trkpt>
      <trkpt lat="44.29109" lon="3.59835">
        <ele>624.981641</ele>
        <time>2020-03-09T17:34:43.869Z</time>
      </trkpt>
      <trkpt lat="44.29119" lon="3.59831">
        <ele>625.517213</ele>
        <time>2020-03-09T17:34:51.609Z</time>
      </trkpt>
      <trkpt lat="44.29156" lon="3.59785">
        <ele>628.587853</ele>
        <time>2020-03-09T17:35:14.074Z</time>
      </trkpt>
      <trkpt lat="44.29209" lon="3.597">
        <ele>634.128665</ele>
        <time>2020-03-09T17:35:54.222Z</time>
      </trkpt>
      <trkpt lat="44.29254" lon="3.59659">
        <ele>637.742788</ele>
        <time>2020-03-09T17:36:15.256Z</time>
      </trkpt>
      <trkpt lat="44.29283" lon="3.59645">
        <ele>639.110681</ele>
        <time>2020-03-09T17:36:22.964Z</time>
      </trkpt>
      <trkpt lat="44.29324" lon="3.59645">
        <ele>639.620316</ele>
        <time>2020-03-09T17:36:31.976Z</time>
      </trkpt>
      <trkpt lat="44.29354" lon="3.59638">
        <ele>639.990956</ele>
        <time>2020-03-09T17:36:38.204Z</time>
      </trkpt>
      <trkpt lat="44.2938" lon="3.59621">
        <ele>640.348332</ele>
        <time>2020-03-09T17:36:43.511Z</time>
      </trkpt>
      <trkpt lat="44.29419" lon="3.59576">
        <ele>640.97008</ele>
        <time>2020-03-09T17:36:51.068Z</time>
      </trkpt>
      <trkpt lat="44.29439" lon="3.59567">
        <ele>640.984528</ele>
        <time>2020-03-09T17:36:53.988Z</time>
      </trkpt>
      <trkpt lat="44.29458" lon="3.59569">
        <ele>640.344383</ele>
        <time>2020-03-09T17:36:56.371Z</time>
      </trkpt>
      <trkpt lat="44.29472" lon="3.59575">
        <ele>639.87293</ele>
        <time>2020-03-09T17:36:58.321Z</time>
      </trkpt>
      <trkpt lat="44.29487" lon="3.59586">
        <ele>639.306186</ele>
        <time>2020-03-09T17:37:00.340Z</time>
      </trkpt>
      <trkpt lat="44.2953" lon="3.59609">
        <ele>637.773669</ele>
        <time>2020-03-09T17:37:05.090Z</time>
      </trkpt>
      <trkpt lat="44.29583" lon="3.59605">
        <ele>636.032705</ele>
        <time>2020-03-09T17:37:10.176Z</time>
      </trkpt>
      <trkpt lat="44.29606" lon="3.59613">
        <ele>635.227266</ele>
        <time>2020-03-09T17:37:12.364Z</time>
      </trkpt>
      <trkpt lat="44.2962" lon="3.59631">
        <ele>633.930485</ele>
        <time>2020-03-09T17:37:14.032Z</time>
      </trkpt>
      <trkpt lat="44.29628" lon="3.59657">
        <ele>632.471954</ele>
        <time>2020-03-09T17:37:15.941Z</time>
      </trkpt>
      <trkpt lat="44.29629" lon="3.59668">
        <ele>631.926543</ele>
        <time>2020-03-09T17:37:16.648Z</time>
      </trkpt>
      <trkpt lat="44.29629" lon="3.59684">
        <ele>631.126849</ele>
        <time>2020-03-09T17:37:17.611Z</time>
      </trkpt>
      <trkpt lat="44.29613" lon="3.5982">
        <ele>624.220858</ele>
        <time>2020-03-09T17:37:26.398Z</time>
      </trkpt>
      <trkpt lat="44.29616" lon="3.59867">
        <ele>622.255996</ele>
        <time>2020-03-09T17:37:29.446Z</time>
      </trkpt>
      <trkpt lat="44.29639" lon="3.59972">
        <ele>619.910812</ele>
        <time>2020-03-09T17:37:36.995Z</time>
      </trkpt>
      <trkpt lat="44.29656" lon="3.59994">
        <ele>619.228294</ele>
        <time>2020-03-09T17:37:39.736Z</time>
      </trkpt>
      <trkpt lat="44.29668" lon="3.6">
        <ele>618.849936</ele>
        <time>2020-03-09T17:37:41.418Z</time>
      </trkpt>
      <trkpt lat="44.29695" lon="3.59998">
        <ele>618.044677</ele>
        <time>2020-03-09T17:37:45.317Z</time>
      </trkpt>
      <trkpt lat="44.29823" lon="3.59959">
        <ele>615.373327</ele>
        <time>2020-03-09T17:38:02.567Z</time>
      </trkpt>
      <trkpt lat="44.29977" lon="3.59942">
        <ele>611.368399</ele>
        <time>2020-03-09T17:38:18.038Z</time>
      </trkpt>
      <trkpt lat="44.29989" lon="3.59943">
        <ele>610.976161</ele>
        <time>2020-03-09T17:38:19.139Z</time>
      </trkpt>
      <trkpt lat="44.3001" lon="3.59958">
        <ele>610.178457</ele>
        <time>2020-03-09T17:38:21.401Z</time>
      </trkpt>
      <trkpt lat="44.30047" lon="3.6001">
        <ele>608.382361</ele>
        <time>2020-03-09T17:38:26.718Z</time>
      </trkpt>
      <trkpt lat="44.30062" lon="3.60022">
        <ele>607.917839</ele>
        <time>2020-03-09T17:38:28.551Z</time>
      </trkpt>
      <trkpt lat="44.30091" lon="3.6003">
        <ele>607.734038</ele>
        <time>2020-03-09T17:38:31.916Z</time>
      </trkpt>
      <trkpt lat="44.30104" lon="3.60028">
        <ele>607.64838</ele>
        <time>2020-03-09T17:38:33.765Z</time>
      </trkpt>
      <trkpt lat="44.30129" lon="3.60014">
        <ele>607.473559</ele>
        <time>2020-03-09T17:38:37.998Z</time>
      </trkpt>
      <trkpt lat="44.30153" lon="3.59985">
        <ele>607.275106</ele>
        <time>2020-03-09T17:38:44.017Z</time>
      </trkpt>
      <trkpt lat="44.30238" lon="3.59836">
        <ele>604.534297</ele>
        <time>2020-03-09T17:39:01.829Z</time>
      </trkpt>
      <trkpt lat="44.30251" lon="3.59811">
        <ele>603.711027</ele>
        <time>2020-03-09T17:39:04.158Z</time>
      </trkpt>
      <trkpt lat="44.30276" lon="3.59763">
        <ele>602.148394</ele>
        <time>2020-03-09T17:39:08.299Z</time>
      </trkpt>
      <trkpt lat="44.30324" lon="3.59687">
        <ele>598.380348</ele>
        <time>2020-03-09T17:39:14.873Z</time>
      </trkpt>
      <trkpt lat="44.30351" lon="3.59667">
        <ele>595.451602</ele>
        <time>2020-03-09T17:39:17.545Z</time>
      </trkpt>
      <trkpt lat="44.30374" lon="3.59656">
        <ele>593.094121</ele>
        <time>2020-03-09T17:39:19.660Z</time>
      </trkpt>
      <trkpt lat="44.30506" lon="3.59623">
        <ele>580.626754</ele>
        <time>2020-03-09T17:39:31.104Z</time>
      </trkpt>
      <trkpt lat="44.30528" lon="3.5962">
        <ele>578.815514</ele>
        <time>2020-03-09T17:39:32.993Z</time>
      </trkpt>
      <trkpt lat="44.30543" lon="3.59622">
        <ele>577.560034</ele>
        <time>2020-03-09T17:39:34.309Z</time>
      </trkpt>
      <trkpt lat="44.30585" lon="3.59642">
        <ele>573.890819</ele>
        <time>2020-03-09T17:39:38.194Z</time>
      </trkpt>
      <trkpt lat="44.30622" lon="3.59674">
        <ele>570.260682</ele>
        <time>2020-03-09T17:39:42.124Z</time>
      </trkpt>
      <trkpt lat="44.30643" lon="3.59689">
        <ele>568.290204</ele>
        <time>2020-03-09T17:39:44.274Z</time>
      </trkpt>
      <trkpt lat="44.30663" lon="3.59701">
        <ele>567.367699</ele>
        <time>2020-03-09T17:39:46.256Z</time>
      </trkpt>
      <trkpt lat="44.30704" lon="3.59717">
        <ele>565.811358</ele>
        <time>2020-03-09T17:39:50.363Z</time>
      </trkpt>
      <trkpt lat="44.30769" lon="3.59745">
        <ele>563.311219</ele>
        <time>2020-03-09T17:39:57.336Z</time>
      </trkpt>
      <trkpt lat="44.30795" lon="3.59757">
        <ele>562.322619</ele>
        <time>2020-03-09T17:40:00.227Z</time>
      </trkpt>
      <trkpt lat="44.30899" lon="3.59802">
        <ele>559.615441</ele>
        <time>2020-03-09T17:40:11.826Z</time>
      </trkpt>
      <trkpt lat="44.30954" lon="3.59825">
        <ele>558.382841</ele>
        <time>2020-03-09T17:40:17.939Z</time>
      </trkpt>
      <trkpt lat="44.30966" lon="3.5983">
        <ele>558.10446</ele>
        <time>2020-03-09T17:40:19.394Z</time>
      </trkpt>
      <trkpt lat="44.3101" lon="3.59848">
        <ele>557.505956</ele>
        <time>2020-03-09T17:40:24.635Z</time>
      </trkpt>
      <trkpt lat="44.31026" lon="3.59854">
        <ele>557.448772</ele>
        <time>2020-03-09T17:40:26.676Z</time>
      </trkpt>
      <trkpt lat="44.31065" lon="3.59855">
        <ele>557.31973</ele>
        <time>2020-03-09T17:40:31.432Z</time>
      </trkpt>
      <trkpt lat="44.31231" lon="3.59829">
        <ele>557.225185</ele>
        <time>2020-03-09T17:40:58.688Z</time>
      </trkpt>
      <trkpt lat="44.31265" lon="3.5982">
        <ele>557.361375</ele>
        <time>2020-03-09T17:41:04.590Z</time>
      </trkpt>
      <trkpt lat="44.31282" lon="3.59814">
        <ele>557.427822</ele>
        <time>2020-03-09T17:41:07.266Z</time>
      </trkpt>
      <trkpt lat="44.31373" lon="3.59777">
        <ele>557.344654</ele>
        <time>2020-03-09T17:41:23.483Z</time>
      </trkpt>
      <trkpt lat="44.3141" lon="3.59775">
        <ele>556.947362</ele>
        <time>2020-03-09T17:41:28.249Z</time>
      </trkpt>
      <trkpt lat="44.31418" lon="3.59775">
        <ele>556.854785</ele>
        <time>2020-03-09T17:41:29.365Z</time>
      </trkpt>
      <trkpt lat="44.31461" lon="3.59773">
        <ele>556.392783</ele>
        <time>2020-03-09T17:41:34.289Z</time>
      </trkpt>
      <trkpt lat="44.31502" lon="3.59768">
        <ele>555.947243</ele>
        <time>2020-03-09T17:41:38.908Z</time>
      </trkpt>
      <trkpt lat="44.31526" lon="3.5977">
        <ele>555.619205</ele>
        <time>2020-03-09T17:41:41.644Z</time>
      </trkpt>
      <trkpt lat="44.31535" lon="3.59774">
        <ele>555.367039</ele>
        <time>2020-03-09T17:41:42.578Z</time>
      </trkpt>
      <trkpt lat="44.31581" lon="3.59798">
        <ele>554.077714</ele>
        <time>2020-03-09T17:41:47.825Z</time>
      </trkpt>
      <trkpt lat="44.31611" lon="3.59804">
        <ele>553.288912</ele>
        <time>2020-03-09T17:41:50.901Z</time>
      </trkpt>
      <trkpt lat="44.31658" lon="3.59808">
        <ele>552.06471</ele>
        <time>2020-03-09T17:41:55.711Z</time>
      </trkpt>
      <trkpt lat="44.31665" lon="3.59808">
        <ele>551.87885</ele>
        <time>2020-03-09T17:41:56.444Z</time>
      </trkpt>
      <trkpt lat="44.31688" lon="3.59807">
        <ele>551.287286</ele>
        <time>2020-03-09T17:41:58.719Z</time>
      </trkpt>
      <trkpt lat="44.31707" lon="3.59807">
        <ele>550.901182</ele>
        <time>2020-03-09T17:42:00.716Z</time>
      </trkpt>
      <trkpt lat="44.31771" lon="3.59803">
        <ele>549.993174</ele>
        <time>2020-03-09T17:42:07.769Z</time>
      </trkpt>
      <trkpt lat="44.31868" lon="3.59781">
        <ele>548.610505</ele>
        <time>2020-03-09T17:42:19.795Z</time>
      </trkpt>
      <trkpt lat="44.31869" lon="3.59781">
        <ele>548.590343</ele>
        <time>2020-03-09T17:42:20.078Z</time>
      </trkpt>
      <trkpt lat="44.31876" lon="3.59785">
        <ele>548.496781</ele>
        <time>2020-03-09T17:42:21.028Z</time>
      </trkpt>
      <trkpt lat="44.31883" lon="3.59792">
        <ele>548.502179</ele>
        <time>2020-03-09T17:42:22.376Z</time>
      </trkpt>
      <trkpt lat="44.31885" lon="3.59796">
        <ele>548.504062</ele>
        <time>2020-03-09T17:42:22.883Z</time>
      </trkpt>
      <trkpt lat="44.31888" lon="3.598">
        <ele>548.506584</ele>
        <time>2020-03-09T17:42:23.552Z</time>
      </trkpt>
      <trkpt lat="44.31892" lon="3.59801">
        <ele>548.509086</ele>
        <time>2020-03-09T17:42:24.180Z</time>
      </trkpt>
      <trkpt lat="44.31897" lon="3.59799">
        <ele>548.511634</ele>
        <time>2020-03-09T17:42:24.795Z</time>
      </trkpt>
      <trkpt lat="44.319" lon="3.59795">
        <ele>548.514446</ele>
        <time>2020-03-09T17:42:25.565Z</time>
      </trkpt>
      <trkpt lat="44.31901" lon="3.59789">
        <ele>548.516832</ele>
        <time>2020-03-09T17:42:26.115Z</time>
      </trkpt>
      <trkpt lat="44.31906" lon="3.59782">
        <ele>548.520813</ele>
        <time>2020-03-09T17:42:27.135Z</time>
      </trkpt>
      <trkpt lat="44.31914" lon="3.5977">
        <ele>548.527759</ele>
        <time>2020-03-09T17:42:29.009Z</time>
      </trkpt>
      <trkpt lat="44.31919" lon="3.59768">
        <ele>548.53104</ele>
        <time>2020-03-09T17:42:29.819Z</time>
      </trkpt>
      <trkpt lat="44.31959" lon="3.59754">
        <ele>548.5551</ele>
        <time>2020-03-09T17:42:36.296Z</time>
      </trkpt>
      <trkpt lat="44.31965" lon="3.59752">
        <ele>548.558504</ele>
        <time>2020-03-09T17:42:37.181Z</time>
      </trkpt>
      <trkpt lat="44.31982" lon="3.59747">
        <ele>548.568994</ele>
        <time>2020-03-09T17:42:40.149Z</time>
      </trkpt>
      <trkpt lat="44.31986" lon="3.59745">
        <ele>548.571153</ele>
        <time>2020-03-09T17:42:40.727Z</time>
      </trkpt>
      <trkpt lat="44.31991" lon="3.59741">
        <ele>548.574711</ele>
        <time>2020-03-09T17:42:41.601Z</time>
      </trkpt>
      <trkpt lat="44.32024" lon="3.59722">
        <ele>548.595526</ele>
        <time>2020-03-09T17:42:47.242Z</time>
      </trkpt>
      <trkpt lat="44.32075" lon="3.59688">
        <ele>548.577747</ele>
        <time>2020-03-09T17:42:55.882Z</time>
      </trkpt>
      <trkpt lat="44.32079" lon="3.59685">
        <ele>548.574985</ele>
        <time>2020-03-09T17:42:56.827Z</time>
      </trkpt>
      <trkpt lat="44.32084" lon="3.59682">
        <ele>548.572174</ele>
        <time>2020-03-09T17:42:57.617Z</time>
      </trkpt>
      <trkpt lat="44.32113" lon="3.59664">
        <ele>548.555191</ele>
        <time>2020-03-09T17:43:02.452Z</time>
      </trkpt>
      <trkpt lat="44.32117" lon="3.59662">
        <ele>548.553007</ele>
        <time>2020-03-09T17:43:03.063Z</time>
      </trkpt>
      <trkpt lat="44.32122" lon="3.59661">
        <ele>548.550497</ele>
        <time>2020-03-09T17:43:03.726Z</time>
      </trkpt>
      <trkpt lat="44.32132" lon="3.59659">
        <ele>548.545313</ele>
        <time>2020-03-09T17:43:05.120Z</time>
      </trkpt>
      <trkpt lat="44.32211" lon="3.59645">
        <ele>548.492213</ele>
        <time>2020-03-09T17:43:16.237Z</time>
      </trkpt>
      <trkpt lat="44.32256" lon="3.59634">
        <ele>548.392105</ele>
        <time>2020-03-09T17:43:22.533Z</time>
      </trkpt>
      <trkpt lat="44.32286" lon="3.59627">
        <ele>548.325599</ele>
        <time>2020-03-09T17:43:26.637Z</time>
      </trkpt>
      <trkpt lat="44.32326" lon="3.5962">
        <ele>548.238004</ele>
        <time>2020-03-09T17:43:32.042Z</time>
      </trkpt>
      <trkpt lat="44.32339" lon="3.59609">
        <ele>548.204673</ele>
        <time>2020-03-09T17:43:34.094Z</time>
      </trkpt>
      <trkpt lat="44.32352" lon="3.596">
        <ele>548.173086</ele>
        <time>2020-03-09T17:43:36.064Z</time>
      </trkpt>
      <trkpt lat="44.32378" lon="3.59581">
        <ele>548.134539</ele>
        <time>2020-03-09T17:43:40.572Z</time>
      </trkpt>
      <trkpt lat="44.32404" lon="3.5956">
        <ele>548.387476</ele>
        <time>2020-03-09T17:43:45.501Z</time>
      </trkpt>
      <trkpt lat="44.3241" lon="3.59556">
        <ele>548.445546</ele>
        <time>2020-03-09T17:43:46.525Z</time>
      </trkpt>
      <trkpt lat="44.32454" lon="3.59522">
        <ele>548.871622</ele>
        <time>2020-03-09T17:43:55.122Z</time>
      </trkpt>
      <trkpt lat="44.32456" lon="3.5952">
        <ele>548.889939</ele>
        <time>2020-03-09T17:43:55.457Z</time>
      </trkpt>
      <trkpt lat="44.32466" lon="3.59512">
        <ele>548.988813</ele>
        <time>2020-03-09T17:43:57.595Z</time>
      </trkpt>
      <trkpt lat="44.32481" lon="3.595">
        <ele>549.142456</ele>
        <time>2020-03-09T17:44:00.535Z</time>
      </trkpt>
      <trkpt lat="44.3248" lon="3.59497">
        <ele>549.163023</ele>
        <time>2020-03-09T17:44:01.289Z</time>
      </trkpt>
      <trkpt lat="44.32463" lon="3.59443">
        <ele>549.527005</ele>
        <time>2020-03-09T17:44:09.615Z</time>
      </trkpt>
      <trkpt lat="44.3246" lon="3.59436">
        <ele>549.573921</ele>
        <time>2020-03-09T17:44:11.088Z</time>
      </trkpt>
      <trkpt lat="44.32457" lon="3.59426">
        <ele>549.640078</ele>
        <time>2020-03-09T17:44:12.676Z</time>
      </trkpt>
      <trkpt lat="44.3246" lon="3.59425">
        <ele>549.715321</ele>
        <time>2020-03-09T17:44:13.216Z</time>
      </trkpt>
      <trkpt lat="44.32469" lon="3.59419">
        <ele>550.024725</ele>
        <time>2020-03-09T17:44:15.011Z</time>
      </trkpt>
      <trkpt lat="44.32469" lon="3.59416">
        <ele>550.094721</ele>
        <time>2020-03-09T17:44:15.676Z</time>
      </trkpt>
      <trkpt lat="44.32476" lon="3.59415">
        <ele>550.323582</ele>
        <time>2020-03-09T17:44:17.426Z</time>
      </trkpt>
      <trkpt lat="44.32482" lon="3.59408">
        <ele>550.567371</ele>
        <time>2020-03-09T17:44:19.585Z</time>
      </trkpt>
      <trkpt lat="44.32496" lon="3.59389">
        <ele>551.198109</ele>
        <time>2020-03-09T17:44:23.644Z</time>
      </trkpt>
      <trkpt lat="44.3253" lon="3.59344">
        <ele>552.705819</ele>
        <time>2020-03-09T17:44:35.696Z</time>
      </trkpt>
      <trkpt lat="44.32547" lon="3.59319">
        <ele>553.523015</ele>
        <time>2020-03-09T17:44:42.877Z</time>
      </trkpt>
      <trkpt lat="44.32544" lon="3.59305">
        <ele>553.869493</ele>
        <time>2020-03-09T17:44:45.761Z</time>
      </trkpt>
      <trkpt lat="44.32544" lon="3.59304">
        <ele>553.897539</ele>
        <time>2020-03-09T17:44:46.279Z</time>
      </trkpt>
      <trkpt lat="44.32545" lon="3.59295">
        <ele>554.100447</ele>
        <time>2020-03-09T17:44:47.995Z</time>
      </trkpt>
      <trkpt lat="44.32548" lon="3.59266">
        <ele>554.779352</ele>
        <time>2020-03-09T17:44:54.692Z</time>
      </trkpt>
      <trkpt lat="44.32549" lon="3.59254">
        <ele>555.060641</ele>
        <time>2020-03-09T17:44:57.432Z</time>
      </trkpt>
      <trkpt lat="44.32549" lon="3.5924">
        <ele>555.393013</ele>
        <time>2020-03-09T17:45:00.648Z</time>
      </trkpt>
      <trkpt lat="44.32549" lon="3.59221">
        <ele>556.117476</ele>
        <time>2020-03-09T17:45:05.297Z</time>
      </trkpt>
      <trkpt lat="44.32578" lon="3.59195">
        <ele>558.27961</ele>
        <time>2020-03-09T17:45:19.144Z</time>
      </trkpt>
      <trkpt lat="44.32583" lon="3.59188">
        <ele>558.708145</ele>
        <time>2020-03-09T17:45:22.105Z</time>
      </trkpt>
      <trkpt lat="44.32591" lon="3.59176">
        <ele>559.42025</ele>
        <time>2020-03-09T17:45:26.672Z</time>
      </trkpt>
      <trkpt lat="44.32595" lon="3.59168">
        <ele>559.851585</ele>
        <time>2020-03-09T17:45:29.872Z</time>
      </trkpt>
      <trkpt lat="44.32596" lon="3.59163">
        <ele>560.060014</ele>
        <time>2020-03-09T17:45:31.753Z</time>
      </trkpt>
      <trkpt lat="44.32597" lon="3.5916">
        <ele>560.23352</ele>
        <time>2020-03-09T17:45:33.797Z</time>
      </trkpt>
      <trkpt lat="44.32595" lon="3.59127">
        <ele>561.661616</ele>
        <time>2020-03-09T17:45:43.357Z</time>
      </trkpt>
      <trkpt lat="44.32589" lon="3.59119">
        <ele>562.151387</ele>
        <time>2020-03-09T17:45:47.160Z</time>
      </trkpt>
      <trkpt lat="44.32524" lon="3.59088">
        <ele>566.346361</ele>
        <time>2020-03-09T17:46:11.881Z</time>
      </trkpt>
      <trkpt lat="44.32509" lon="3.59081">
        <ele>567.696453</ele>
        <time>2020-03-09T17:46:18.453Z</time>
      </trkpt>
      <trkpt lat="44.32482" lon="3.59066">
        <ele>570.397939</ele>
        <time>2020-03-09T17:46:30.638Z</time>
      </trkpt>
      <trkpt lat="44.32458" lon="3.59067">
        <ele>572.520927</ele>
        <time>2020-03-09T17:46:40.539Z</time>
      </trkpt>
      <trkpt lat="44.32448" lon="3.59073">
        <ele>573.595083</ele>
        <time>2020-03-09T17:46:48.666Z</time>
      </trkpt>
      <trkpt lat="44.32437" lon="3.59084">
        <ele>574.761799</ele>
        <time>2020-03-09T17:46:53.517Z</time>
      </trkpt>
      <trkpt lat="44.3242" lon="3.59112">
        <ele>577.18166</ele>
        <time>2020-03-09T17:47:10.509Z</time>
      </trkpt>
      <trkpt lat="44.32408" lon="3.59126">
        <ele>578.629899</ele>
        <time>2020-03-09T17:47:17.476Z</time>
      </trkpt>
      <trkpt lat="44.32406" lon="3.59126">
        <ele>578.767285</ele>
        <time>2020-03-09T17:47:18.824Z</time>
      </trkpt>
      <trkpt lat="44.32387" lon="3.59126">
        <ele>580.551326</ele>
        <time>2020-03-09T17:47:31.937Z</time>
      </trkpt>
      <trkpt lat="44.32378" lon="3.59118">
        <ele>581.469989</ele>
        <time>2020-03-09T17:47:35.496Z</time>
      </trkpt>
      <trkpt lat="44.32377" lon="3.59112">
        <ele>581.873642</ele>
        <time>2020-03-09T17:47:38.689Z</time>
      </trkpt>
      <trkpt lat="44.3238" lon="3.59102">
        <ele>582.618053</ele>
        <time>2020-03-09T17:47:44.697Z</time>
      </trkpt>
      <trkpt lat="44.32392" lon="3.59073">
        <ele>585.627824</ele>
        <time>2020-03-09T17:47:56.413Z</time>
      </trkpt>
      <trkpt lat="44.32393" lon="3.59067">
        <ele>586.27673</ele>
        <time>2020-03-09T17:47:59.998Z</time>
      </trkpt>
      <trkpt lat="44.32396" lon="3.5905">
        <ele>587.894314</ele>
        <time>2020-03-09T17:48:07.584Z</time>
      </trkpt>
      <trkpt lat="44.32397" lon="3.59042">
        <ele>588.738814</ele>
        <time>2020-03-09T17:48:13.022Z</time>
      </trkpt>
      <trkpt lat="44.32398" lon="3.58994">
        <ele>593.408036</ele>
        <time>2020-03-09T17:48:34.696Z</time>
      </trkpt>
      <trkpt lat="44.32434" lon="3.58936">
        <ele>600.846087</ele>
        <time>2020-03-09T17:49:14.861Z</time>
      </trkpt>
      <trkpt lat="44.32442" lon="3.58905">
        <ele>604.022827</ele>
        <time>2020-03-09T17:49:37.049Z</time>
      </trkpt>
      <trkpt lat="44.32436" lon="3.58832">
        <ele>610.543241</ele>
        <time>2020-03-09T17:50:14.728Z</time>
      </trkpt>
      <trkpt lat="44.32409" lon="3.58741">
        <ele>618.464121</ele>
        <time>2020-03-09T17:50:56.098Z</time>
      </trkpt>
      <trkpt lat="44.32409" lon="3.5873">
        <ele>619.370698</ele>
        <time>2020-03-09T17:51:04.188Z</time>
      </trkpt>
      <trkpt lat="44.32416" lon="3.58721">
        <ele>620.450957</ele>
        <time>2020-03-09T17:51:10.304Z</time>
      </trkpt>
      <trkpt lat="44.32429" lon="3.58707">
        <ele>622.248553</ele>
        <time>2020-03-09T17:51:15.802Z</time>
      </trkpt>
      <trkpt lat="44.32459" lon="3.58668">
        <ele>626.911792</ele>
        <time>2020-03-09T17:51:37.979Z</time>
      </trkpt>
      <trkpt lat="44.32473" lon="3.58643">
        <ele>628.507162</ele>
        <time>2020-03-09T17:51:49.411Z</time>
      </trkpt>
      <trkpt lat="44.32473" lon="3.58623">
        <ele>629.294173</ele>
        <time>2020-03-09T17:51:55.151Z</time>
      </trkpt>
      <trkpt lat="44.32468" lon="3.58622">
        <ele>629.522964</ele>
        <time>2020-03-09T17:51:58.659Z</time>
      </trkpt>
      <trkpt lat="44.32463" lon="3.58625">
        <ele>629.838545</ele>
        <time>2020-03-09T17:52:02.618Z</time>
      </trkpt>
      <trkpt lat="44.32445" lon="3.58651">
        <ele>631.269567</ele>
        <time>2020-03-09T17:52:09.612Z</time>
      </trkpt>
      <trkpt lat="44.32395" lon="3.58668">
        <ele>634.105518</ele>
        <time>2020-03-09T17:52:26.513Z</time>
      </trkpt>
      <trkpt lat="44.32382" lon="3.58678">
        <ele>634.90681</ele>
        <time>2020-03-09T17:52:28.521Z</time>
      </trkpt>
      <trkpt lat="44.32367" lon="3.58732">
        <ele>637.188336</ele>
        <time>2020-03-09T17:52:40.757Z</time>
      </trkpt>
      <trkpt lat="44.32363" lon="3.58775">
        <ele>639.720548</ele>
        <time>2020-03-09T17:52:55.971Z</time>
      </trkpt>
      <trkpt lat="44.32333" lon="3.58824">
        <ele>643.844065</ele>
        <time>2020-03-09T17:53:09.665Z</time>
      </trkpt>
      <trkpt lat="44.32314" lon="3.58842">
        <ele>645.824401</ele>
        <time>2020-03-09T17:53:21.680Z</time>
      </trkpt>
      <trkpt lat="44.32307" lon="3.58846">
        <ele>646.489085</ele>
        <time>2020-03-09T17:53:23.004Z</time>
      </trkpt>
      <trkpt lat="44.32301" lon="3.58849">
        <ele>647.087514</ele>
        <time>2020-03-09T17:53:27.663Z</time>
      </trkpt>
      <trkpt lat="44.32296" lon="3.5885">
        <ele>647.497642</ele>
        <time>2020-03-09T17:53:32.704Z</time>
      </trkpt>
      <trkpt lat="44.32281" lon="3.5885">
        <ele>648.782191</ele>
        <time>2020-03-09T17:53:40.447Z</time>
      </trkpt>
      <trkpt lat="44.32226" lon="3.58823">
        <ele>654.264551</ele>
        <time>2020-03-09T17:54:19.043Z</time>
      </trkpt>
      <trkpt lat="44.32191" lon="3.58826">
        <ele>658.727058</ele>
        <time>2020-03-09T17:54:42.629Z</time>
      </trkpt>
      <trkpt lat="44.32172" lon="3.58836">
        <ele>661.28361</ele>
        <time>2020-03-09T17:54:53.175Z</time>
      </trkpt>
      <trkpt lat="44.32164" lon="3.58844">
        <ele>662.609047</ele>
        <time>2020-03-09T17:55:00.210Z</time>
      </trkpt>
      <trkpt lat="44.32145" lon="3.58861">
        <ele>665.421337</ele>
        <time>2020-03-09T17:55:19.016Z</time>
      </trkpt>
      <trkpt lat="44.32125" lon="3.58878">
        <ele>668.358853</ele>
        <time>2020-03-09T17:55:35.483Z</time>
      </trkpt>
      <trkpt lat="44.32077" lon="3.58898">
        <ele>674.842816</ele>
        <time>2020-03-09T17:56:07.146Z</time>
      </trkpt>
      <trkpt lat="44.32057" lon="3.5893">
        <ele>677.757532</ele>
        <time>2020-03-09T17:56:26.185Z</time>
      </trkpt>
      <trkpt lat="44.32051" lon="3.58926">
        <ele>678.298046</ele>
        <time>2020-03-09T17:56:29.137Z</time>
      </trkpt>
      <trkpt lat="44.32052" lon="3.58918">
        <ele>678.767819</ele>
        <time>2020-03-09T17:56:33.464Z</time>
      </trkpt>
      <trkpt lat="44.32073" lon="3.58881">
        <ele>681.431272</ele>
        <time>2020-03-09T17:56:51.255Z</time>
      </trkpt>
      <trkpt lat="44.32085" lon="3.5887">
        <ele>682.603215</ele>
        <time>2020-03-09T17:56:56.697Z</time>
      </trkpt>
      <trkpt lat="44.32089" lon="3.58867">
        <ele>682.987277</ele>
        <time>2020-03-09T17:56:59.095Z</time>
      </trkpt>
      <trkpt lat="44.32101" lon="3.58858">
        <ele>684.05775</ele>
        <time>2020-03-09T17:57:03.516Z</time>
      </trkpt>
      <trkpt lat="44.32156" lon="3.58775">
        <ele>690.489762</ele>
        <time>2020-03-09T17:57:35.096Z</time>
      </trkpt>
      <trkpt lat="44.32214" lon="3.5874">
        <ele>696.142336</ele>
        <time>2020-03-09T17:58:02.014Z</time>
      </trkpt>
      <trkpt lat="44.32228" lon="3.58723">
        <ele>697.755773</ele>
        <time>2020-03-09T17:58:12.388Z</time>
      </trkpt>
      <trkpt lat="44.32255" lon="3.58663">
        <ele>702.372347</ele>
        <time>2020-03-09T17:58:38.237Z</time>
      </trkpt>
      <trkpt lat="44.32254" lon="3.58566">
        <ele>709.231697</ele>
        <time>2020-03-09T17:59:19.376Z</time>
      </trkpt>
      <trkpt lat="44.32252" lon="3.58546">
        <ele>710.878289</ele>
        <time>2020-03-09T17:59:29.357Z</time>
      </trkpt>
      <trkpt lat="44.32254" lon="3.58533">
        <ele>711.948986</ele>
        <time>2020-03-09T17:59:35.171Z</time>
      </trkpt>
      <trkpt lat="44.32258" lon="3.5852">
        <ele>713.167671</ele>
        <time>2020-03-09T17:59:42.361Z</time>
      </trkpt>
      <trkpt lat="44.32303" lon="3.5846">
        <ele>720.456092</ele>
        <time>2020-03-09T18:00:22.930Z</time>
      </trkpt>
      <trkpt lat="44.32308" lon="3.58431">
        <ele>722.957499</ele>
        <time>2020-03-09T18:00:37.464Z</time>
      </trkpt>
      <trkpt lat="44.32307" lon="3.58419">
        <ele>723.946417</ele>
        <time>2020-03-09T18:00:41.735Z</time>
      </trkpt>
      <trkpt lat="44.32303" lon="3.58398">
        <ele>725.79125</ele>
        <time>2020-03-09T18:00:52.822Z</time>
      </trkpt>
      <trkpt lat="44.3231" lon="3.58324">
        <ele>730.879604</ele>
        <time>2020-03-09T18:01:19.593Z</time>
      </trkpt>
      <trkpt lat="44.32323" lon="3.58286">
        <ele>733.419221</ele>
        <time>2020-03-09T18:01:35.370Z</time>
      </trkpt>
      <trkpt lat="44.32336" lon="3.58268">
        <ele>735.011389</ele>
        <time>2020-03-09T18:01:44.258Z</time>
      </trkpt>
      <trkpt lat="44.32349" lon="3.58258">
        <ele>736.294366</ele>
        <time>2020-03-09T18:01:53.265Z</time>
      </trkpt>
      <trkpt lat="44.32355" lon="3.58255">
        <ele>736.820727</ele>
        <time>2020-03-09T18:01:53.989Z</time>
      </trkpt>
      <trkpt lat="44.32429" lon="3.58233">
        <ele>743.306192</ele>
        <time>2020-03-09T18:02:28.266Z</time>
      </trkpt>
      <trkpt lat="44.32448" lon="3.58216">
        <ele>745.195672</ele>
        <time>2020-03-09T18:02:39.522Z</time>
      </trkpt>
      <trkpt lat="44.32478" lon="3.5815">
        <ele>749.789894</ele>
        <time>2020-03-09T18:03:03.501Z</time>
      </trkpt>
      <trkpt lat="44.32519" lon="3.58108">
        <ele>753.890554</ele>
        <time>2020-03-09T18:03:27.404Z</time>
      </trkpt>
      <trkpt lat="44.32559" lon="3.58044">
        <ele>759.026997</ele>
        <time>2020-03-09T18:03:59.355Z</time>
      </trkpt>
      <trkpt lat="44.32583" lon="3.58021">
        <ele>761.65675</ele>
        <time>2020-03-09T18:04:14.847Z</time>
      </trkpt>
      <trkpt lat="44.32609" lon="3.57982">
        <ele>765.131642</ele>
        <time>2020-03-09T18:04:35.590Z</time>
      </trkpt>
      <trkpt lat="44.32625" lon="3.57948">
        <ele>767.772369</ele>
        <time>2020-03-09T18:04:51.238Z</time>
      </trkpt>
      <trkpt lat="44.32634" lon="3.57899">
        <ele>771.07879</ele>
        <time>2020-03-09T18:05:10.134Z</time>
      </trkpt>
      <trkpt lat="44.3264" lon="3.57889">
        <ele>771.922562</ele>
        <time>2020-03-09T18:05:14.765Z</time>
      </trkpt>
      <trkpt lat="44.32689" lon="3.57833">
        <ele>777.05949</ele>
        <time>2020-03-09T18:05:43.997Z</time>
      </trkpt>
      <trkpt lat="44.32729" lon="3.57806">
        <ele>780.348955</ele>
        <time>2020-03-09T18:06:02.895Z</time>
      </trkpt>
      <trkpt lat="44.32776" lon="3.57739">
        <ele>785.239586</ele>
        <time>2020-03-09T18:06:31.477Z</time>
      </trkpt>
      <trkpt lat="44.32807" lon="3.57716">
        <ele>787.841377</ele>
        <time>2020-03-09T18:06:47.406Z</time>
      </trkpt>
      <trkpt lat="44.32866" lon="3.5765">
        <ele>793.42643</ele>
        <time>2020-03-09T18:07:20.441Z</time>
      </trkpt>
      <trkpt lat="44.32885" lon="3.57637">
        <ele>794.988882</ele>
        <time>2020-03-09T18:07:30.060Z</time>
      </trkpt>
      <trkpt lat="44.3291" lon="3.57619">
        <ele>797.061466</ele>
        <time>2020-03-09T18:07:42.171Z</time>
      </trkpt>
      <trkpt lat="44.33054" lon="3.57522">
        <ele>809.402747</ele>
        <time>2020-03-09T18:08:54.730Z</time>
      </trkpt>
      <trkpt lat="44.3306" lon="3.57516">
        <ele>809.986216</ele>
        <time>2020-03-09T18:08:57.912Z</time>
      </trkpt>
      <trkpt lat="44.33056" lon="3.57504">
        <ele>810.697336</ele>
        <time>2020-03-09T18:09:02.161Z</time>
      </trkpt>
      <trkpt lat="44.33026" lon="3.57521">
        <ele>813.273332</ele>
        <time>2020-03-09T18:09:17.154Z</time>
      </trkpt>
      <trkpt lat="44.32925" lon="3.57554">
        <ele>822.886692</ele>
        <time>2020-03-09T18:10:09.659Z</time>
      </trkpt>
      <trkpt lat="44.3282" lon="3.57579">
        <ele>833.222915</ele>
        <time>2020-03-09T18:11:07.120Z</time>
      </trkpt>
      <trkpt lat="44.32768" lon="3.57623">
        <ele>840.137153</ele>
        <time>2020-03-09T18:11:46.429Z</time>
      </trkpt>
      <trkpt lat="44.32728" lon="3.57621">
        <ele>844.791534</ele>
        <time>2020-03-09T18:12:11.116Z</time>
      </trkpt>
      <trkpt lat="44.32717" lon="3.57627">
        <ele>846.173603</ele>
        <time>2020-03-09T18:12:16.292Z</time>
      </trkpt>
      <trkpt lat="44.32707" lon="3.57636">
        <ele>847.493339</ele>
        <time>2020-03-09T18:12:26.242Z</time>
      </trkpt>
      <trkpt lat="44.32686" lon="3.57668">
        <ele>851.040102</ele>
        <time>2020-03-09T18:12:42.930Z</time>
      </trkpt>
      <trkpt lat="44.32676" lon="3.57677">
        <ele>852.383195</ele>
        <time>2020-03-09T18:12:53.202Z</time>
      </trkpt>
      <trkpt lat="44.32666" lon="3.57685">
        <ele>853.684283</ele>
        <time>2020-03-09T18:12:58.053Z</time>
      </trkpt>
      <trkpt lat="44.3263" lon="3.57688">
        <ele>857.560148</ele>
        <time>2020-03-09T18:13:20.285Z</time>
      </trkpt>
      <trkpt lat="44.32615" lon="3.57695">
        <ele>859.210719</ele>
        <time>2020-03-09T18:13:30.799Z</time>
      </trkpt>
      <trkpt lat="44.32531" lon="3.5776">
        <ele>869.589301</ele>
        <time>2020-03-09T18:14:27.989Z</time>
      </trkpt>
      <trkpt lat="44.32524" lon="3.57754">
        <ele>870.467456</ele>
        <time>2020-03-09T18:14:32.499Z</time>
      </trkpt>
      <trkpt lat="44.32529" lon="3.5774">
        <ele>871.740652</ele>
        <time>2020-03-09T18:14:38.266Z</time>
      </trkpt>
      <trkpt lat="44.32575" lon="3.57705">
        <ele>875.344201</ele>
        <time>2020-03-09T18:15:02.066Z</time>
      </trkpt>
      <trkpt lat="44.32605" lon="3.57667">
        <ele>878.07275</ele>
        <time>2020-03-09T18:15:19.065Z</time>
      </trkpt>
      <trkpt lat="44.3264" lon="3.57644">
        <ele>880.632458</ele>
        <time>2020-03-09T18:15:34.028Z</time>
      </trkpt>
      <trkpt lat="44.32683" lon="3.57569">
        <ele>884.969935</ele>
        <time>2020-03-09T18:15:58.982Z</time>
      </trkpt>
      <trkpt lat="44.3274" lon="3.57531">
        <ele>888.127492</ele>
        <time>2020-03-09T18:16:19.170Z</time>
      </trkpt>
      <trkpt lat="44.32784" lon="3.57467">
        <ele>891.351062</ele>
        <time>2020-03-09T18:16:40.522Z</time>
      </trkpt>
      <trkpt lat="44.3286" lon="3.57432">
        <ele>896.801539</ele>
        <time>2020-03-09T18:17:10.852Z</time>
      </trkpt>
      <trkpt lat="44.32914" lon="3.57389">
        <ele>901.922777</ele>
        <time>2020-03-09T18:17:39.398Z</time>
      </trkpt>
      <trkpt lat="44.32952" lon="3.57343">
        <ele>906.07153</ele>
        <time>2020-03-09T18:18:04.470Z</time>
      </trkpt>
      <trkpt lat="44.33024" lon="3.57296">
        <ele>915.358626</ele>
        <time>2020-03-09T18:18:53.854Z</time>
      </trkpt>
      <trkpt lat="44.33058" lon="3.57253">
        <ele>921.447724</ele>
        <time>2020-03-09T18:19:30.961Z</time>
      </trkpt>
      <trkpt lat="44.33093" lon="3.57182">
        <ele>929.580585</ele>
        <time>2020-03-09T18:20:15.514Z</time>
      </trkpt>
      <trkpt lat="44.33099" lon="3.57161">
        <ele>931.686011</ele>
        <time>2020-03-09T18:20:25.724Z</time>
      </trkpt>
      <trkpt lat="44.33106" lon="3.57131">
        <ele>933.720534</ele>
        <time>2020-03-09T18:20:39.058Z</time>
      </trkpt>
      <trkpt lat="44.33109" lon="3.5711">
        <ele>935.109118</ele>
        <time>2020-03-09T18:20:47.130Z</time>
      </trkpt>
      <trkpt lat="44.33111" lon="3.57085">
        <ele>936.758881</ele>
        <time>2020-03-09T18:20:57.731Z</time>
      </trkpt>
      <trkpt lat="44.33115" lon="3.57066">
        <ele>938.068572</ele>
        <time>2020-03-09T18:21:05.382Z</time>
      </trkpt>
      <trkpt lat="44.3314" lon="3.57001">
        <ele>942.866561</ele>
        <time>2020-03-09T18:21:34.009Z</time>
      </trkpt>
      <trkpt lat="44.33178" lon="3.56948">
        <ele>947.751309</ele>
        <time>2020-03-09T18:21:57.569Z</time>
      </trkpt>
      <trkpt lat="44.3323" lon="3.56884">
        <ele>952.50031</ele>
        <time>2020-03-09T18:22:17.500Z</time>
      </trkpt>
      <trkpt lat="44.33272" lon="3.56825">
        <ele>956.451928</ele>
        <time>2020-03-09T18:22:40.872Z</time>
      </trkpt>
      <trkpt lat="44.33275" lon="3.56809">
        <ele>957.222497</ele>
        <time>2020-03-09T18:22:45.180Z</time>
      </trkpt>
      <trkpt lat="44.33269" lon="3.56808">
        <ele>957.647143</ele>
        <time>2020-03-09T18:22:49.083Z</time>
      </trkpt>
      <trkpt lat="44.33242" lon="3.5684">
        <ele>960.041896</ele>
        <time>2020-03-09T18:23:09.271Z</time>
      </trkpt>
      <trkpt lat="44.33216" lon="3.56859">
        <ele>962.740779</ele>
        <time>2020-03-09T18:23:24.778Z</time>
      </trkpt>
      <trkpt lat="44.3318" lon="3.56885">
        <ele>966.48687</ele>
        <time>2020-03-09T18:23:45.792Z</time>
      </trkpt>
      <trkpt lat="44.33173" lon="3.56889">
        <ele>967.172452</ele>
        <time>2020-03-09T18:23:53.013Z</time>
      </trkpt>
      <trkpt lat="44.331" lon="3.56935">
        <ele>974.551954</ele>
        <time>2020-03-09T18:24:33.741Z</time>
      </trkpt>
      <trkpt lat="44.33084" lon="3.56952">
        <ele>976.412456</ele>
        <time>2020-03-09T18:24:41.748Z</time>
      </trkpt>
      <trkpt lat="44.33029" lon="3.57101">
        <ele>985.542321</ele>
        <time>2020-03-09T18:25:37.737Z</time>
      </trkpt>
      <trkpt lat="44.33009" lon="3.57142">
        <ele>988.25294</ele>
        <time>2020-03-09T18:25:51.706Z</time>
      </trkpt>
      <trkpt lat="44.32977" lon="3.57178">
        <ele>991.639755</ele>
        <time>2020-03-09T18:26:09.297Z</time>
      </trkpt>
      <trkpt lat="44.32962" lon="3.57183">
        <ele>993.11162</ele>
        <time>2020-03-09T18:26:16.368Z</time>
      </trkpt>
      <trkpt lat="44.32962" lon="3.57168">
        <ele>994.15891</ele>
        <time>2020-03-09T18:26:22.098Z</time>
      </trkpt>
      <trkpt lat="44.32984" lon="3.57154">
        <ele>996.450382</ele>
        <time>2020-03-09T18:26:34.093Z</time>
      </trkpt>
      <trkpt lat="44.32994" lon="3.57139">
        <ele>997.799385</ele>
        <time>2020-03-09T18:26:41.974Z</time>
      </trkpt>
      <trkpt lat="44.33003" lon="3.57114">
        <ele>999.656073</ele>
        <time>2020-03-09T18:26:52.312Z</time>
      </trkpt>
      <trkpt lat="44.33018" lon="3.57033">
        <ele>1005.303316</ele>
        <time>2020-03-09T18:27:26.510Z</time>
      </trkpt>
      <trkpt lat="44.3302" lon="3.56982">
        <ele>1008.567887</ele>
        <time>2020-03-09T18:27:48.315Z</time>
      </trkpt>
      <trkpt lat="44.33017" lon="3.56936">
        <ele>1011.45253</ele>
        <time>2020-03-09T18:28:07.729Z</time>
      </trkpt>
      <trkpt lat="44.33008" lon="3.56887">
        <ele>1014.570576</ele>
        <time>2020-03-09T18:28:27.828Z</time>
      </trkpt>
      <trkpt lat="44.32992" lon="3.56843">
        <ele>1017.576702</ele>
        <time>2020-03-09T18:28:45.707Z</time>
      </trkpt>
      <trkpt lat="44.32984" lon="3.56832">
        <ele>1018.541528</ele>
        <time>2020-03-09T18:28:51.544Z</time>
      </trkpt>
      <trkpt lat="44.32977" lon="3.56824">
        <ele>1019.366415</ele>
        <time>2020-03-09T18:28:55.422Z</time>
      </trkpt>
      <trkpt lat="44.32975" lon="3.56823">
        <ele>1019.501594</ele>
        <time>2020-03-09T18:28:56.181Z</time>
      </trkpt>
      <trkpt lat="44.32967" lon="3.56818">
        <ele>1020.286174</ele>
        <time>2020-03-09T18:29:00.331Z</time>
      </trkpt>
      <trkpt lat="44.32861" lon="3.56789">
        <ele>1024.166369</ele>
        <time>2020-03-09T18:29:34.691Z</time>
      </trkpt>
      <trkpt lat="44.32842" lon="3.56784">
        <ele>1024.539136</ele>
        <time>2020-03-09T18:29:38.813Z</time>
      </trkpt>
      <trkpt lat="44.32819" lon="3.56773">
        <ele>1024.988351</ele>
        <time>2020-03-09T18:29:42.817Z</time>
      </trkpt>
      <trkpt lat="44.32795" lon="3.56743">
        <ele>1025.588931</ele>
        <time>2020-03-09T18:29:46.798Z</time>
      </trkpt>
      <trkpt lat="44.32784" lon="3.56693">
        <ele>1025.660001</ele>
        <time>2020-03-09T18:29:51.157Z</time>
      </trkpt>
      <trkpt lat="44.32779" lon="3.56677">
        <ele>1025.303669</ele>
        <time>2020-03-09T18:29:52.585Z</time>
      </trkpt>
      <trkpt lat="44.32772" lon="3.56662">
        <ele>1024.955031</ele>
        <time>2020-03-09T18:29:54.003Z</time>
      </trkpt>
      <trkpt lat="44.32756" lon="3.56641">
        <ele>1024.344435</ele>
        <time>2020-03-09T18:29:56.378Z</time>
      </trkpt>
      <trkpt lat="44.32641" lon="3.56539">
        <ele>1020.432322</ele>
        <time>2020-03-09T18:30:10.057Z</time>
      </trkpt>
      <trkpt lat="44.32623" lon="3.56512">
        <ele>1019.460227</ele>
        <time>2020-03-09T18:30:12.652Z</time>
      </trkpt>
      <trkpt lat="44.32605" lon="3.56453">
        <ele>1017.82154</ele>
        <time>2020-03-09T18:30:17.169Z</time>
      </trkpt>
      <trkpt lat="44.32596" lon="3.56438">
        <ele>1017.305261</ele>
        <time>2020-03-09T18:30:18.513Z</time>
      </trkpt>
      <trkpt lat="44.32587" lon="3.56428">
        <ele>1016.892916</ele>
        <time>2020-03-09T18:30:19.677Z</time>
      </trkpt>
      <trkpt lat="44.32575" lon="3.56418">
        <ele>1016.398253</ele>
        <time>2020-03-09T18:30:21.092Z</time>
      </trkpt>
      <trkpt lat="44.32562" lon="3.56412">
        <ele>1015.886083</ele>
        <time>2020-03-09T18:30:22.416Z</time>
      </trkpt>
      <trkpt lat="44.32521" lon="3.56399">
        <ele>1014.479547</ele>
        <time>2020-03-09T18:30:26.641Z</time>
      </trkpt>
      <trkpt lat="44.32496" lon="3.56397">
        <ele>1014.184447</ele>
        <time>2020-03-09T18:30:29.100Z</time>
      </trkpt>
      <trkpt lat="44.32419" lon="3.56435">
        <ele>1013.200921</ele>
        <time>2020-03-09T18:30:38.446Z</time>
      </trkpt>
      <trkpt lat="44.32384" lon="3.56442">
        <ele>1012.771496</ele>
        <time>2020-03-09T18:30:44.402Z</time>
      </trkpt>
      <trkpt lat="44.32362" lon="3.56435">
        <ele>1012.503024</ele>
        <time>2020-03-09T18:30:48.107Z</time>
      </trkpt>
      <trkpt lat="44.32326" lon="3.5642">
        <ele>1012.492118</ele>
        <time>2020-03-09T18:30:54.421Z</time>
      </trkpt>
      <trkpt lat="44.32295" lon="3.56404">
        <ele>1012.636996</ele>
        <time>2020-03-09T18:31:00.040Z</time>
      </trkpt>
      <trkpt lat="44.32263" lon="3.56378">
        <ele>1012.798548</ele>
        <time>2020-03-09T18:31:06.526Z</time>
      </trkpt>
      <trkpt lat="44.3224" lon="3.56357">
        <ele>1012.916483</ele>
        <time>2020-03-09T18:31:11.269Z</time>
      </trkpt>
      <trkpt lat="44.32164" lon="3.56271">
        <ele>1012.876835</ele>
        <time>2020-03-09T18:31:26.895Z</time>
      </trkpt>
      <trkpt lat="44.32147" lon="3.56258">
        <ele>1012.748035</ele>
        <time>2020-03-09T18:31:29.511Z</time>
      </trkpt>
      <trkpt lat="44.31991" lon="3.56205">
        <ele>1011.130885</ele>
        <time>2020-03-09T18:31:48.838Z</time>
      </trkpt>
      <trkpt lat="44.31901" lon="3.56189">
        <ele>1009.329024</ele>
        <time>2020-03-09T18:31:59.579Z</time>
      </trkpt>
      <trkpt lat="44.31762" lon="3.56126">
        <ele>1003.676812</ele>
        <time>2020-03-09T18:32:13.899Z</time>
      </trkpt>
      <trkpt lat="44.31726" lon="3.561">
        <ele>1001.743694</ele>
        <time>2020-03-09T18:32:17.636Z</time>
      </trkpt>
      <trkpt lat="44.31724" lon="3.56098">
        <ele>1001.596547</ele>
        <time>2020-03-09T18:32:17.892Z</time>
      </trkpt>
      <trkpt lat="44.31713" lon="3.56088">
        <ele>1000.988375</ele>
        <time>2020-03-09T18:32:19.071Z</time>
      </trkpt>
      <trkpt lat="44.31685" lon="3.56059">
        <ele>999.193211</ele>
        <time>2020-03-09T18:32:22.321Z</time>
      </trkpt>
      <trkpt lat="44.31664" lon="3.56042">
        <ele>997.844457</ele>
        <time>2020-03-09T18:32:24.491Z</time>
      </trkpt>
      <trkpt lat="44.3159" lon="3.56011">
        <ele>993.535058</ele>
        <time>2020-03-09T18:32:31.459Z</time>
      </trkpt>
      <trkpt lat="44.3156" lon="3.5599">
        <ele>991.63005</ele>
        <time>2020-03-09T18:32:34.578Z</time>
      </trkpt>
      <trkpt lat="44.31539" lon="3.55968">
        <ele>990.135145</ele>
        <time>2020-03-09T18:32:37.138Z</time>
      </trkpt>
      <trkpt lat="44.31495" lon="3.55902">
        <ele>988.318191</ele>
        <time>2020-03-09T18:32:43.678Z</time>
      </trkpt>
      <trkpt lat="44.31477" lon="3.55863">
        <ele>987.508546</ele>
        <time>2020-03-09T18:32:47.192Z</time>
      </trkpt>
      <trkpt lat="44.31466" lon="3.55843">
        <ele>987.066785</ele>
        <time>2020-03-09T18:32:49.118Z</time>
      </trkpt>
      <trkpt lat="44.31424" lon="3.55779">
        <ele>985.558906</ele>
        <time>2020-03-09T18:32:56.239Z</time>
      </trkpt>
      <trkpt lat="44.31346" lon="3.55708">
        <ele>985.123424</ele>
        <time>2020-03-09T18:33:08.201Z</time>
      </trkpt>
      <trkpt lat="44.31304" lon="3.55614">
        <ele>984.934668</ele>
        <time>2020-03-09T18:33:21.440Z</time>
      </trkpt>
      <trkpt lat="44.3129" lon="3.55596">
        <ele>984.886235</ele>
        <time>2020-03-09T18:33:23.983Z</time>
      </trkpt>
      <trkpt lat="44.31282" lon="3.55585">
        <ele>984.792502</ele>
        <time>2020-03-09T18:33:26.018Z</time>
      </trkpt>
      <trkpt lat="44.31275" lon="3.55573">
        <ele>984.704905</ele>
        <time>2020-03-09T18:33:27.735Z</time>
      </trkpt>
      <trkpt lat="44.31265" lon="3.55557">
        <ele>984.587707</ele>
        <time>2020-03-09T18:33:29.659Z</time>
      </trkpt>
      <trkpt lat="44.3126" lon="3.55548">
        <ele>984.52324</ele>
        <time>2020-03-09T18:33:31.032Z</time>
      </trkpt>
      <trkpt lat="44.31256" lon="3.55541">
        <ele>984.472147</ele>
        <time>2020-03-09T18:33:32.035Z</time>
      </trkpt>
      <trkpt lat="44.3125" lon="3.5552">
        <ele>984.343834</ele>
        <time>2020-03-09T18:33:34.086Z</time>
      </trkpt>
      <trkpt lat="44.31249" lon="3.55509">
        <ele>984.281658</ele>
        <time>2020-03-09T18:33:35.252Z</time>
      </trkpt>
      <trkpt lat="44.31246" lon="3.55474">
        <ele>984.078554</ele>
        <time>2020-03-09T18:33:38.581Z</time>
      </trkpt>
      <trkpt lat="44.31244" lon="3.55442">
        <ele>983.896646</ele>
        <time>2020-03-09T18:33:41.618Z</time>
      </trkpt>
      <trkpt lat="44.31255" lon="3.55372">
        <ele>983.495531</ele>
        <time>2020-03-09T18:33:47.496Z</time>
      </trkpt>
      <trkpt lat="44.31255" lon="3.55344">
        <ele>982.89642</ele>
        <time>2020-03-09T18:33:49.736Z</time>
      </trkpt>
      <trkpt lat="44.31232" lon="3.55259">
        <ele>980.686085</ele>
        <time>2020-03-09T18:33:56.325Z</time>
      </trkpt>
      <trkpt lat="44.31227" lon="3.55213">
        <ele>979.547337</ele>
        <time>2020-03-09T18:33:59.626Z</time>
      </trkpt>
      <trkpt lat="44.31216" lon="3.55194">
        <ele>978.955975</ele>
        <time>2020-03-09T18:34:01.326Z</time>
      </trkpt>
      <trkpt lat="44.31186" lon="3.5517">
        <ele>977.763643</ele>
        <time>2020-03-09T18:34:04.725Z</time>
      </trkpt>
      <trkpt lat="44.31141" lon="3.55152">
        <ele>975.990248</ele>
        <time>2020-03-09T18:34:09.225Z</time>
      </trkpt>
      <trkpt lat="44.31135" lon="3.55136">
        <ele>975.461628</ele>
        <time>2020-03-09T18:34:10.519Z</time>
      </trkpt>
      <trkpt lat="44.31143" lon="3.55113">
        <ele>974.74662</ele>
        <time>2020-03-09T18:34:12.252Z</time>
      </trkpt>
      <trkpt lat="44.3117" lon="3.55097">
        <ele>973.564342</ele>
        <time>2020-03-09T18:34:15.143Z</time>
      </trkpt>
      <trkpt lat="44.31177" lon="3.5508">
        <ele>973.006327</ele>
        <time>2020-03-09T18:34:16.515Z</time>
      </trkpt>
      <trkpt lat="44.31172" lon="3.55052">
        <ele>972.209178</ele>
        <time>2020-03-09T18:34:18.488Z</time>
      </trkpt>
      <trkpt lat="44.31131" lon="3.55">
        <ele>970.149385</ele>
        <time>2020-03-09T18:34:24.045Z</time>
      </trkpt>
      <trkpt lat="44.31126" lon="3.54968">
        <ele>969.769944</ele>
        <time>2020-03-09T18:34:26.427Z</time>
      </trkpt>
      <trkpt lat="44.31146" lon="3.54822">
        <ele>968.042649</ele>
        <time>2020-03-09T18:34:38.452Z</time>
      </trkpt>
      <trkpt lat="44.31154" lon="3.54805">
        <ele>967.812464</ele>
        <time>2020-03-09T18:34:40.370Z</time>
      </trkpt>
      <trkpt lat="44.3118" lon="3.54772">
        <ele>967.395795</ele>
        <time>2020-03-09T18:34:45.581Z</time>
      </trkpt>
      <trkpt lat="44.31184" lon="3.54751">
        <ele>967.53014</ele>
        <time>2020-03-09T18:34:48.146Z</time>
      </trkpt>
      <trkpt lat="44.31178" lon="3.54732">
        <ele>967.665621</ele>
        <time>2020-03-09T18:34:50.774Z</time>
      </trkpt>
      <trkpt lat="44.31146" lon="3.54692">
        <ele>968.042608</ele>
        <time>2020-03-09T18:34:58.690Z</time>
      </trkpt>
      <trkpt lat="44.31138" lon="3.54676">
        <ele>968.164516</ele>
        <time>2020-03-09T18:35:01.416Z</time>
      </trkpt>
      <trkpt lat="44.31097" lon="3.54546">
        <ele>969.015302</ele>
        <time>2020-03-09T18:35:22.178Z</time>
      </trkpt>
      <trkpt lat="44.31092" lon="3.54525">
        <ele>969.104193</ele>
        <time>2020-03-09T18:35:25.356Z</time>
      </trkpt>
      <trkpt lat="44.31089" lon="3.54439">
        <ele>969.453011</ele>
        <time>2020-03-09T18:35:36.310Z</time>
      </trkpt>
      <trkpt lat="44.31081" lon="3.544">
        <ele>969.616065</ele>
        <time>2020-03-09T18:35:40.974Z</time>
      </trkpt>
      <trkpt lat="44.31069" lon="3.54375">
        <ele>969.73989</ele>
        <time>2020-03-09T18:35:44.454Z</time>
      </trkpt>
      <trkpt lat="44.31063" lon="3.54366">
        <ele>969.789662</ele>
        <time>2020-03-09T18:35:45.736Z</time>
      </trkpt>
      <trkpt lat="44.31059" lon="3.5436">
        <ele>969.823171</ele>
        <time>2020-03-09T18:35:46.574Z</time>
      </trkpt>
      <trkpt lat="44.31056" lon="3.54339">
        <ele>969.910098</ele>
        <time>2020-03-09T18:35:48.901Z</time>
      </trkpt>
      <trkpt lat="44.31061" lon="3.54307">
        <ele>969.929302</ele>
        <time>2020-03-09T18:35:52.132Z</time>
      </trkpt>
      <trkpt lat="44.31057" lon="3.54279">
        <ele>969.906671</ele>
        <time>2020-03-09T18:35:55.081Z</time>
      </trkpt>
      <trkpt lat="44.30996" lon="3.5417">
        <ele>969.797583</ele>
        <time>2020-03-09T18:36:09.314Z</time>
      </trkpt>
      <trkpt lat="44.30996" lon="3.54144">
        <ele>969.77773</ele>
        <time>2020-03-09T18:36:11.896Z</time>
      </trkpt>
      <trkpt lat="44.31008" lon="3.54109">
        <ele>969.733883</ele>
        <time>2020-03-09T18:36:15.966Z</time>
      </trkpt>
      <trkpt lat="44.31007" lon="3.54092">
        <ele>969.668614</ele>
        <time>2020-03-09T18:36:17.797Z</time>
      </trkpt>
      <trkpt lat="44.31" lon="3.54055">
        <ele>969.515634</ele>
        <time>2020-03-09T18:36:22.180Z</time>
      </trkpt>
      <trkpt lat="44.3099" lon="3.54028">
        <ele>969.397984</ele>
        <time>2020-03-09T18:36:24.993Z</time>
      </trkpt>
      <trkpt lat="44.30978" lon="3.53932">
        <ele>969.011535</ele>
        <time>2020-03-09T18:36:33.957Z</time>
      </trkpt>
      <trkpt lat="44.30959" lon="3.53884">
        <ele>968.795684</ele>
        <time>2020-03-09T18:36:38.912Z</time>
      </trkpt>
      <trkpt lat="44.30959" lon="3.53875">
        <ele>968.762176</ele>
        <time>2020-03-09T18:36:40.141Z</time>
      </trkpt>
      <trkpt lat="44.30962" lon="3.53856">
        <ele>968.558556</ele>
        <time>2020-03-09T18:36:41.672Z</time>
      </trkpt>
      <trkpt lat="44.30966" lon="3.53801">
        <ele>967.970233</ele>
        <time>2020-03-09T18:36:46.469Z</time>
      </trkpt>
      <trkpt lat="44.30966" lon="3.53775">
        <ele>967.69171</ele>
        <time>2020-03-09T18:36:48.811Z</time>
      </trkpt>
      <trkpt lat="44.30964" lon="3.53756">
        <ele>967.487765</ele>
        <time>2020-03-09T18:36:50.261Z</time>
      </trkpt>
      <trkpt lat="44.30962" lon="3.53738">
        <ele>967.301454</ele>
        <time>2020-03-09T18:36:51.695Z</time>
      </trkpt>
      <trkpt lat="44.30969" lon="3.53704">
        <ele>966.921816</ele>
        <time>2020-03-09T18:36:54.561Z</time>
      </trkpt>
      <trkpt lat="44.31009" lon="3.53593">
        <ele>965.746267</ele>
        <time>2020-03-09T18:37:04.400Z</time>
      </trkpt>
      <trkpt lat="44.31009" lon="3.53571">
        <ele>965.580379</ele>
        <time>2020-03-09T18:37:06.284Z</time>
      </trkpt>
      <trkpt lat="44.31002" lon="3.53545">
        <ele>965.374287</ele>
        <time>2020-03-09T18:37:08.787Z</time>
      </trkpt>
      <trkpt lat="44.31007" lon="3.53509">
        <ele>965.098906</ele>
        <time>2020-03-09T18:37:12.023Z</time>
      </trkpt>
      <trkpt lat="44.31022" lon="3.53489">
        <ele>964.885262</ele>
        <time>2020-03-09T18:37:14.461Z</time>
      </trkpt>
      <trkpt lat="44.31101" lon="3.5344">
        <ele>964.239207</ele>
        <time>2020-03-09T18:37:25.470Z</time>
      </trkpt>
      <trkpt lat="44.31151" lon="3.53355">
        <ele>964.377532</ele>
        <time>2020-03-09T18:37:38.636Z</time>
      </trkpt>
      <trkpt lat="44.31156" lon="3.53321">
        <ele>964.420616</ele>
        <time>2020-03-09T18:37:43.313Z</time>
      </trkpt>
      <trkpt lat="44.31145" lon="3.53279">
        <ele>964.476206</ele>
        <time>2020-03-09T18:37:48.756Z</time>
      </trkpt>
      <trkpt lat="44.31143" lon="3.53245">
        <ele>964.502489</ele>
        <time>2020-03-09T18:37:52.377Z</time>
      </trkpt>
      <trkpt lat="44.31161" lon="3.53175">
        <ele>964.078293</ele>
        <time>2020-03-09T18:37:59.790Z</time>
      </trkpt>
      <trkpt lat="44.3116" lon="3.53125">
        <ele>963.79422</ele>
        <time>2020-03-09T18:38:04.476Z</time>
      </trkpt>
      <trkpt lat="44.31156" lon="3.53098">
        <ele>963.642459</ele>
        <time>2020-03-09T18:38:06.804Z</time>
      </trkpt>
      <trkpt lat="44.31154" lon="3.53088">
        <ele>963.57843</ele>
        <time>2020-03-09T18:38:07.846Z</time>
      </trkpt>
      <trkpt lat="44.3115" lon="3.53077">
        <ele>963.510628</ele>
        <time>2020-03-09T18:38:08.980Z</time>
      </trkpt>
      <trkpt lat="44.31123" lon="3.53037">
        <ele>963.199197</ele>
        <time>2020-03-09T18:38:13.575Z</time>
      </trkpt>
      <trkpt lat="44.31113" lon="3.5301">
        <ele>962.967898</ele>
        <time>2020-03-09T18:38:16.016Z</time>
      </trkpt>
      <trkpt lat="44.31104" lon="3.52944">
        <ele>962.215551</ele>
        <time>2020-03-09T18:38:21.324Z</time>
      </trkpt>
      <trkpt lat="44.31071" lon="3.52866">
        <ele>961.206513</ele>
        <time>2020-03-09T18:38:28.381Z</time>
      </trkpt>
      <trkpt lat="44.31064" lon="3.52839">
        <ele>960.887278</ele>
        <time>2020-03-09T18:38:30.797Z</time>
      </trkpt>
      <trkpt lat="44.31064" lon="3.52806">
        <ele>960.529001</ele>
        <time>2020-03-09T18:38:33.660Z</time>
      </trkpt>
      <trkpt lat="44.31053" lon="3.52786">
        <ele>960.296459</ele>
        <time>2020-03-09T18:38:35.945Z</time>
      </trkpt>
      <trkpt lat="44.31044" lon="3.52778">
        <ele>960.319929</ele>
        <time>2020-03-09T18:38:37.317Z</time>
      </trkpt>
      <trkpt lat="44.31017" lon="3.52768">
        <ele>960.383094</ele>
        <time>2020-03-09T18:38:41.095Z</time>
      </trkpt>
      <trkpt lat="44.309" lon="3.5275">
        <ele>960.64324</ele>
        <time>2020-03-09T18:39:00.404Z</time>
      </trkpt>
      <trkpt lat="44.3082" lon="3.52689">
        <ele>961.422727</ele>
        <time>2020-03-09T18:39:17.856Z</time>
      </trkpt>
      <trkpt lat="44.30812" lon="3.52681">
        <ele>961.51779</ele>
        <time>2020-03-09T18:39:19.738Z</time>
      </trkpt>
      <trkpt lat="44.30809" lon="3.52677">
        <ele>961.566265</ele>
        <time>2020-03-09T18:39:21.035Z</time>
      </trkpt>
      <trkpt lat="44.30788" lon="3.52616">
        <ele>962.06726</ele>
        <time>2020-03-09T18:39:30.259Z</time>
      </trkpt>
      <trkpt lat="44.3077" lon="3.52587">
        <ele>962.348828</ele>
        <time>2020-03-09T18:39:35.703Z</time>
      </trkpt>
      <trkpt lat="44.30719" lon="3.52551">
        <ele>962.670222</ele>
        <time>2020-03-09T18:39:46.062Z</time>
      </trkpt>
      <trkpt lat="44.30684" lon="3.52516">
        <ele>962.806327</ele>
        <time>2020-03-09T18:39:53.465Z</time>
      </trkpt>
      <trkpt lat="44.30635" lon="3.52488">
        <ele>962.973755</ele>
        <time>2020-03-09T18:40:01.413Z</time>
      </trkpt>
      <trkpt lat="44.30623" lon="3.52478">
        <ele>963.016658</ele>
        <time>2020-03-09T18:40:03.414Z</time>
      </trkpt>
      <trkpt lat="44.30613" lon="3.52464">
        <ele>963.063696</ele>
        <time>2020-03-09T18:40:05.552Z</time>
      </trkpt>
      <trkpt lat="44.30602" lon="3.52442">
        <ele>963.116877</ele>
        <time>2020-03-09T18:40:08.207Z</time>
      </trkpt>
      <trkpt lat="44.30599" lon="3.52429">
        <ele>963.093377</ele>
        <time>2020-03-09T18:40:09.621Z</time>
      </trkpt>
      <trkpt lat="44.30595" lon="3.52406">
        <ele>963.052338</ele>
        <time>2020-03-09T18:40:12.016Z</time>
      </trkpt>
      <trkpt lat="44.30585" lon="3.52362">
        <ele>962.97456</ele>
        <time>2020-03-09T18:40:16.544Z</time>
      </trkpt>
      <trkpt lat="44.30549" lon="3.52265">
        <ele>962.789186</ele>
        <time>2020-03-09T18:40:27.259Z</time>
      </trkpt>
      <trkpt lat="44.30503" lon="3.52167">
        <ele>962.793401</ele>
        <time>2020-03-09T18:40:39.366Z</time>
      </trkpt>
      <trkpt lat="44.30431" lon="3.52046">
        <ele>963.057089</ele>
        <time>2020-03-09T18:40:57.025Z</time>
      </trkpt>
      <trkpt lat="44.30366" lon="3.51908">
        <ele>964.032608</ele>
        <time>2020-03-09T18:41:17.742Z</time>
      </trkpt>
      <trkpt lat="44.30327" lon="3.51775">
        <ele>965.186929</ele>
        <time>2020-03-09T18:41:38.508Z</time>
      </trkpt>
      <trkpt lat="44.30283" lon="3.51601">
        <ele>967.55676</ele>
        <time>2020-03-09T18:42:08.161Z</time>
      </trkpt>
      <trkpt lat="44.30189" lon="3.51388">
        <ele>970.634541</ele>
        <time>2020-03-09T18:42:48.443Z</time>
      </trkpt>
      <trkpt lat="44.30168" lon="3.51306">
        <ele>971.236172</ele>
        <time>2020-03-09T18:43:00.295Z</time>
      </trkpt>
      <trkpt lat="44.30149" lon="3.51251">
        <ele>971.31583</ele>
        <time>2020-03-09T18:43:07.928Z</time>
      </trkpt>
      <trkpt lat="44.30112" lon="3.51158">
        <ele>971.453146</ele>
        <time>2020-03-09T18:43:19.049Z</time>
      </trkpt>
      <trkpt lat="44.30111" lon="3.51157">
        <ele>971.454931</ele>
        <time>2020-03-09T18:43:19.163Z</time>
      </trkpt>
      <trkpt lat="44.3008" lon="3.51097">
        <ele>971.205593</ele>
        <time>2020-03-09T18:43:25.939Z</time>
      </trkpt>
      <trkpt lat="44.30031" lon="3.50952">
        <ele>969.800141</ele>
        <time>2020-03-09T18:43:39.541Z</time>
      </trkpt>
      <trkpt lat="44.29945" lon="3.50779">
        <ele>967.475173</ele>
        <time>2020-03-09T18:43:56.628Z</time>
      </trkpt>
      <trkpt lat="44.29896" lon="3.50705">
        <ele>966.267239</ele>
        <time>2020-03-09T18:44:04.945Z</time>
      </trkpt>
      <trkpt lat="44.29824" lon="3.50616">
        <ele>964.426617</ele>
        <time>2020-03-09T18:44:15.616Z</time>
      </trkpt>
      <trkpt lat="44.29795" lon="3.50581">
        <ele>963.679055</ele>
        <time>2020-03-09T18:44:19.903Z</time>
      </trkpt>
      <trkpt lat="44.29761" lon="3.50539">
        <ele>962.796115</ele>
        <time>2020-03-09T18:44:24.787Z</time>
      </trkpt>
      <trkpt lat="44.29723" lon="3.50478">
        <ele>961.304752</ele>
        <time>2020-03-09T18:44:31.058Z</time>
      </trkpt>
      <trkpt lat="44.29607" lon="3.50327">
        <ele>957.166734</ele>
        <time>2020-03-09T18:44:47.616Z</time>
      </trkpt>
      <trkpt lat="44.29526" lon="3.5018">
        <ele>953.481758</ele>
        <time>2020-03-09T18:45:01.339Z</time>
      </trkpt>
      <trkpt lat="44.29518" lon="3.50142">
        <ele>952.714324</ele>
        <time>2020-03-09T18:45:04.331Z</time>
      </trkpt>
      <trkpt lat="44.29534" lon="3.5008">
        <ele>951.491196</ele>
        <time>2020-03-09T18:45:09.212Z</time>
      </trkpt>
      <trkpt lat="44.29531" lon="3.50066">
        <ele>951.224236</ele>
        <time>2020-03-09T18:45:10.277Z</time>
      </trkpt>
      <trkpt lat="44.29508" lon="3.50012">
        <ele>950.059657</ele>
        <time>2020-03-09T18:45:14.962Z</time>
      </trkpt>
      <trkpt lat="44.29506" lon="3.49954">
        <ele>948.961749</ele>
        <time>2020-03-09T18:45:19.421Z</time>
      </trkpt>
      <trkpt lat="44.29501" lon="3.49924">
        <ele>948.475611</ele>
        <time>2020-03-09T18:45:21.779Z</time>
      </trkpt>
      <trkpt lat="44.29434" lon="3.49762">
        <ele>946.535861</ele>
        <time>2020-03-09T18:45:36.907Z</time>
      </trkpt>
      <trkpt lat="44.29419" lon="3.49749">
        <ele>946.27505</ele>
        <time>2020-03-09T18:45:39.192Z</time>
      </trkpt>
      <trkpt lat="44.29365" lon="3.49728">
        <ele>946.067307</ele>
        <time>2020-03-09T18:45:46.883Z</time>
      </trkpt>
      <trkpt lat="44.29335" lon="3.49709">
        <ele>946.155986</ele>
        <time>2020-03-09T18:45:51.798Z</time>
      </trkpt>
      <trkpt lat="44.2922" lon="3.49613">
        <ele>946.560559</ele>
        <time>2020-03-09T18:46:15.250Z</time>
      </trkpt>
      <trkpt lat="44.29195" lon="3.496">
        <ele>946.675692</ele>
        <time>2020-03-09T18:46:19.962Z</time>
      </trkpt>
      <trkpt lat="44.29172" lon="3.49594">
        <ele>946.78145</ele>
        <time>2020-03-09T18:46:24.187Z</time>
      </trkpt>
      <trkpt lat="44.29131" lon="3.49602">
        <ele>946.962747</ele>
        <time>2020-03-09T18:46:31.123Z</time>
      </trkpt>
      <trkpt lat="44.29118" lon="3.49598">
        <ele>947.020575</ele>
        <time>2020-03-09T18:46:33.252Z</time>
      </trkpt>
      <trkpt lat="44.29079" lon="3.49545">
        <ele>947.253455</ele>
        <time>2020-03-09T18:46:41.787Z</time>
      </trkpt>
      <trkpt lat="44.2904" lon="3.4952">
        <ele>947.241683</ele>
        <time>2020-03-09T18:46:48.095Z</time>
      </trkpt>
      <trkpt lat="44.29026" lon="3.49493">
        <ele>947.235039</ele>
        <time>2020-03-09T18:46:51.555Z</time>
      </trkpt>
      <trkpt lat="44.28987" lon="3.4945">
        <ele>947.221467</ele>
        <time>2020-03-09T18:46:58.576Z</time>
      </trkpt>
      <trkpt lat="44.28976" lon="3.49428">
        <ele>947.216106</ele>
        <time>2020-03-09T18:47:01.337Z</time>
      </trkpt>
      <trkpt lat="44.28919" lon="3.49257">
        <ele>947.305617</ele>
        <time>2020-03-09T18:47:21.275Z</time>
      </trkpt>
      <trkpt lat="44.28831" lon="3.48851">
        <ele>947.948497</ele>
        <time>2020-03-09T18:48:09.496Z</time>
      </trkpt>
      <trkpt lat="44.2875" lon="3.48641">
        <ele>948.57968</ele>
        <time>2020-03-09T18:48:36.978Z</time>
      </trkpt>
      <trkpt lat="44.28746" lon="3.48611">
        <ele>948.69829</ele>
        <time>2020-03-09T18:48:40.808Z</time>
      </trkpt>
      <trkpt lat="44.28754" lon="3.48543">
        <ele>948.963608</ele>
        <time>2020-03-09T18:48:49.563Z</time>
      </trkpt>
      <trkpt lat="44.28753" lon="3.48517">
        <ele>949.067526</ele>
        <time>2020-03-09T18:48:52.938Z</time>
      </trkpt>
      <trkpt lat="44.28746" lon="3.4845">
        <ele>949.32827</ele>
        <time>2020-03-09T18:49:01.176Z</time>
      </trkpt>
      <trkpt lat="44.28744" lon="3.48428">
        <ele>949.403207</ele>
        <time>2020-03-09T18:49:03.943Z</time>
      </trkpt>
      <trkpt lat="44.28738" lon="3.4838">
        <ele>949.383704</ele>
        <time>2020-03-09T18:49:09.585Z</time>
      </trkpt>
      <trkpt lat="44.28726" lon="3.48266">
        <ele>949.337194</ele>
        <time>2020-03-09T18:49:22.210Z</time>
      </trkpt>
      <trkpt lat="44.28695" lon="3.47978">
        <ele>948.490204</ele>
        <time>2020-03-09T18:49:49.395Z</time>
      </trkpt>
      <trkpt lat="44.28705" lon="3.4788">
        <ele>948.29795</ele>
        <time>2020-03-09T18:49:58.992Z</time>
      </trkpt>
      <trkpt lat="44.28702" lon="3.47783">
        <ele>948.27057</ele>
        <time>2020-03-09T18:50:09.216Z</time>
      </trkpt>
      <trkpt lat="44.28705" lon="3.47731">
        <ele>948.256011</ele>
        <time>2020-03-09T18:50:15.036Z</time>
      </trkpt>
      <trkpt lat="44.28703" lon="3.47714">
        <ele>948.250901</ele>
        <time>2020-03-09T18:50:17.115Z</time>
      </trkpt>
      <trkpt lat="44.28682" lon="3.47667">
        <ele>948.146652</ele>
        <time>2020-03-09T18:50:23.459Z</time>
      </trkpt>
      <trkpt lat="44.28681" lon="3.47652">
        <ele>948.08773</ele>
        <time>2020-03-09T18:50:25.203Z</time>
      </trkpt>
      <trkpt lat="44.28695" lon="3.47538">
        <ele>947.637357</ele>
        <time>2020-03-09T18:50:36.905Z</time>
      </trkpt>
      <trkpt lat="44.28694" lon="3.47457">
        <ele>947.321867</ele>
        <time>2020-03-09T18:50:44.195Z</time>
      </trkpt>
      <trkpt lat="44.28684" lon="3.47363">
        <ele>945.616991</ele>
        <time>2020-03-09T18:50:51.749Z</time>
      </trkpt>
      <trkpt lat="44.28658" lon="3.47262">
        <ele>943.400359</ele>
        <time>2020-03-09T18:50:59.550Z</time>
      </trkpt>
      <trkpt lat="44.28655" lon="3.47235">
        <ele>942.827307</ele>
        <time>2020-03-09T18:51:01.510Z</time>
      </trkpt>
      <trkpt lat="44.28656" lon="3.47187">
        <ele>941.779359</ele>
        <time>2020-03-09T18:51:04.915Z</time>
      </trkpt>
      <trkpt lat="44.28657" lon="3.47182">
        <ele>941.653609</ele>
        <time>2020-03-09T18:51:05.210Z</time>
      </trkpt>
      <trkpt lat="44.28663" lon="3.47135">
        <ele>940.427239</ele>
        <time>2020-03-09T18:51:08.604Z</time>
      </trkpt>
      <trkpt lat="44.28679" lon="3.46999">
        <ele>936.856456</ele>
        <time>2020-03-09T18:51:18.397Z</time>
      </trkpt>
      <trkpt lat="44.28694" lon="3.46876">
        <ele>934.480832</ele>
        <time>2020-03-09T18:51:27.567Z</time>
      </trkpt>
      <trkpt lat="44.28707" lon="3.46753">
        <ele>932.640058</ele>
        <time>2020-03-09T18:51:37.548Z</time>
      </trkpt>
      <trkpt lat="44.28667" lon="3.4673">
        <ele>931.816296</ele>
        <time>2020-03-09T18:51:42.546Z</time>
      </trkpt>
      <trkpt lat="44.28479" lon="3.46637">
        <ele>929.606723</ele>
        <time>2020-03-09T18:52:06.750Z</time>
      </trkpt>
      <trkpt lat="44.28424" lon="3.46602">
        <ele>928.955775</ele>
        <time>2020-03-09T18:52:14.219Z</time>
      </trkpt>
      <trkpt lat="44.28215" lon="3.46455">
        <ele>926.554916</ele>
        <time>2020-03-09T18:52:42.533Z</time>
      </trkpt>
      <trkpt lat="44.28102" lon="3.46359">
        <ele>925.796857</ele>
        <time>2020-03-09T18:52:59.420Z</time>
      </trkpt>
      <trkpt lat="44.28008" lon="3.46318">
        <ele>925.509992</ele>
        <time>2020-03-09T18:53:13.240Z</time>
      </trkpt>
      <trkpt lat="44.27476" lon="3.46011">
        <ele>929.139047</ele>
        <time>2020-03-09T18:54:51.275Z</time>
      </trkpt>
      <trkpt lat="44.27408" lon="3.45979">
        <ele>930.415135</ele>
        <time>2020-03-09T18:55:07.045Z</time>
      </trkpt>
      <trkpt lat="44.2734" lon="3.4596">
        <ele>931.807439</ele>
        <time>2020-03-09T18:55:24.123Z</time>
      </trkpt>
      <trkpt lat="44.27268" lon="3.45958">
        <ele>934.337256</ele>
        <time>2020-03-09T18:55:44.694Z</time>
      </trkpt>
      <trkpt lat="44.27215" lon="3.45949">
        <ele>936.219019</ele>
        <time>2020-03-09T18:56:01.228Z</time>
      </trkpt>
      <trkpt lat="44.27152" lon="3.45921">
        <ele>938.493879</ele>
        <time>2020-03-09T18:56:21.482Z</time>
      </trkpt>
      <trkpt lat="44.27108" lon="3.45909">
        <ele>939.918186</ele>
        <time>2020-03-09T18:56:34.618Z</time>
      </trkpt>
      <trkpt lat="44.27077" lon="3.45897">
        <ele>940.930283</ele>
        <time>2020-03-09T18:56:43.759Z</time>
      </trkpt>
      <trkpt lat="44.27003" lon="3.45885">
        <ele>943.294758</ele>
        <time>2020-03-09T18:57:03.708Z</time>
      </trkpt>
      <trkpt lat="44.26873" lon="3.45897">
        <ele>945.867007</ele>
        <time>2020-03-09T18:57:32.288Z</time>
      </trkpt>
      <trkpt lat="44.2684" lon="3.45884">
        <ele>946.518243</ele>
        <time>2020-03-09T18:57:39.492Z</time>
      </trkpt>
      <trkpt lat="44.26794" lon="3.4588">
        <ele>947.485272</ele>
        <time>2020-03-09T18:57:49.349Z</time>
      </trkpt>
      <trkpt lat="44.26697" lon="3.45883">
        <ele>949.674768</ele>
        <time>2020-03-09T18:58:12.073Z</time>
      </trkpt>
      <trkpt lat="44.26653" lon="3.45902">
        <ele>950.712459</ele>
        <time>2020-03-09T18:58:23.693Z</time>
      </trkpt>
      <trkpt lat="44.26626" lon="3.4592">
        <ele>951.60463</ele>
        <time>2020-03-09T18:58:31.520Z</time>
      </trkpt>
      <trkpt lat="44.26593" lon="3.4595">
        <ele>953.010478</ele>
        <time>2020-03-09T18:58:42.147Z</time>
      </trkpt>
      <trkpt lat="44.26526" lon="3.45988">
        <ele>955.592101</ele>
        <time>2020-03-09T18:59:04.342Z</time>
      </trkpt>
      <trkpt lat="44.26434" lon="3.46057">
        <ele>958.157074</ele>
        <time>2020-03-09T18:59:36.531Z</time>
      </trkpt>
      <trkpt lat="44.26416" lon="3.4607">
        <ele>958.438411</ele>
        <time>2020-03-09T18:59:41.813Z</time>
      </trkpt>
      <trkpt lat="44.26393" lon="3.46082">
        <ele>958.786144</ele>
        <time>2020-03-09T18:59:46.325Z</time>
      </trkpt>
      <trkpt lat="44.26368" lon="3.46086">
        <ele>959.130157</ele>
        <time>2020-03-09T18:59:50.282Z</time>
      </trkpt>
      <trkpt lat="44.26326" lon="3.46084">
        <ele>959.710768</ele>
        <time>2020-03-09T18:59:56.136Z</time>
      </trkpt>
      <trkpt lat="44.26313" lon="3.46079">
        <ele>959.906546</ele>
        <time>2020-03-09T18:59:58.548Z</time>
      </trkpt>
      <trkpt lat="44.26284" lon="3.46057">
        <ele>959.116994</ele>
        <time>2020-03-09T19:00:02.244Z</time>
      </trkpt>
      <trkpt lat="44.26276" lon="3.46036">
        <ele>958.675448</ele>
        <time>2020-03-09T19:00:04.030Z</time>
      </trkpt>
      <trkpt lat="44.26265" lon="3.45893">
        <ele>955.963362</ele>
        <time>2020-03-09T19:00:14.285Z</time>
      </trkpt>
      <trkpt lat="44.26252" lon="3.45881">
        <ele>955.551149</ele>
        <time>2020-03-09T19:00:15.792Z</time>
      </trkpt>
      <trkpt lat="44.262" lon="3.45874">
        <ele>955.227809</ele>
        <time>2020-03-09T19:00:21.482Z</time>
      </trkpt>
      <trkpt lat="44.26187" lon="3.45863">
        <ele>955.239578</ele>
        <time>2020-03-09T19:00:23.310Z</time>
      </trkpt>
      <trkpt lat="44.26154" lon="3.45795">
        <ele>955.285283</ele>
        <time>2020-03-09T19:00:32.313Z</time>
      </trkpt>
      <trkpt lat="44.26134" lon="3.45766">
        <ele>955.307431</ele>
        <time>2020-03-09T19:00:38.181Z</time>
      </trkpt>
      <trkpt lat="44.2611" lon="3.45732">
        <ele>955.333641</ele>
        <time>2020-03-09T19:00:46.104Z</time>
      </trkpt>
      <trkpt lat="44.261" lon="3.45724">
        <ele>955.631363</ele>
        <time>2020-03-09T19:00:48.982Z</time>
      </trkpt>
      <trkpt lat="44.26075" lon="3.45714">
        <ele>956.691837</ele>
        <time>2020-03-09T19:00:56.099Z</time>
      </trkpt>
      <trkpt lat="44.26062" lon="3.45718">
        <ele>957.197911</ele>
        <time>2020-03-09T19:00:59.667Z</time>
      </trkpt>
      <trkpt lat="44.26042" lon="3.45733">
        <ele>958.103585</ele>
        <time>2020-03-09T19:01:06.405Z</time>
      </trkpt>
      <trkpt lat="44.26015" lon="3.45746">
        <ele>959.220644</ele>
        <time>2020-03-09T19:01:15.167Z</time>
      </trkpt>
      <trkpt lat="44.25932" lon="3.45765">
        <ele>962.592948</ele>
        <time>2020-03-09T19:01:43.298Z</time>
      </trkpt>
      <trkpt lat="44.2583" lon="3.45796">
        <ele>968.720926</ele>
        <time>2020-03-09T19:02:22.091Z</time>
      </trkpt>
      <trkpt lat="44.25727" lon="3.45769">
        <ele>975.379186</ele>
        <time>2020-03-09T19:03:04.449Z</time>
      </trkpt>
      <trkpt lat="44.25711" lon="3.45764">
        <ele>976.638061</ele>
        <time>2020-03-09T19:03:12.225Z</time>
      </trkpt>
      <trkpt lat="44.25619" lon="3.45706">
        <ele>984.216928</ele>
        <time>2020-03-09T19:03:57.463Z</time>
      </trkpt>
      <trkpt lat="44.25511" lon="3.45665">
        <ele>993.974999</ele>
        <time>2020-03-09T19:04:52.521Z</time>
      </trkpt>
      <trkpt lat="44.25506" lon="3.45657">
        <ele>994.659899</ele>
        <time>2020-03-09T19:04:56.406Z</time>
      </trkpt>
      <trkpt lat="44.25508" lon="3.4564">
        <ele>995.812944</ele>
        <time>2020-03-09T19:05:03.068Z</time>
      </trkpt>
      <trkpt lat="44.25548" lon="3.4561">
        <ele>999.968904</ele>
        <time>2020-03-09T19:05:27.582Z</time>
      </trkpt>
      <trkpt lat="44.25557" lon="3.45574">
        <ele>1002.432865</ele>
        <time>2020-03-09T19:05:42.484Z</time>
      </trkpt>
      <trkpt lat="44.25549" lon="3.45444">
        <ele>1010.887524</ele>
        <time>2020-03-09T19:06:33.373Z</time>
      </trkpt>
      <trkpt lat="44.25526" lon="3.45364">
        <ele>1016.440119</ele>
        <time>2020-03-09T19:07:05.017Z</time>
      </trkpt>
      <trkpt lat="44.25489" lon="3.45208">
        <ele>1023.195715</ele>
        <time>2020-03-09T19:07:55.766Z</time>
      </trkpt>
      <trkpt lat="44.25473" lon="3.45086">
        <ele>1027.296597</ele>
        <time>2020-03-09T19:08:19.009Z</time>
      </trkpt>
      <trkpt lat="44.25473" lon="3.45035">
        <ele>1026.806341</ele>
        <time>2020-03-09T19:08:25.006Z</time>
      </trkpt>
      <trkpt lat="44.25475" lon="3.45002">
        <ele>1026.320734</ele>
        <time>2020-03-09T19:08:28.137Z</time>
      </trkpt>
      <trkpt lat="44.25479" lon="3.44971">
        <ele>1025.865566</ele>
        <time>2020-03-09T19:08:30.581Z</time>
      </trkpt>
      <trkpt lat="44.25493" lon="3.44942">
        <ele>1025.363905</ele>
        <time>2020-03-09T19:08:33.265Z</time>
      </trkpt>
      <trkpt lat="44.25527" lon="3.44899">
        <ele>1024.442861</ele>
        <time>2020-03-09T19:08:37.814Z</time>
      </trkpt>
      <trkpt lat="44.25531" lon="3.44861">
        <ele>1023.882261</ele>
        <time>2020-03-09T19:08:40.501Z</time>
      </trkpt>
      <trkpt lat="44.25527" lon="3.44837">
        <ele>1023.13844</ele>
        <time>2020-03-09T19:08:42.186Z</time>
      </trkpt>
      <trkpt lat="44.25514" lon="3.44807">
        <ele>1022.014393</ele>
        <time>2020-03-09T19:08:44.495Z</time>
      </trkpt>
      <trkpt lat="44.25448" lon="3.44732">
        <ele>1018.151342</ele>
        <time>2020-03-09T19:08:52.575Z</time>
      </trkpt>
      <trkpt lat="44.25386" lon="3.44685">
        <ele>1015.144078</ele>
        <time>2020-03-09T19:08:59.395Z</time>
      </trkpt>
      <trkpt lat="44.25362" lon="3.44654">
        <ele>1014.087148</ele>
        <time>2020-03-09T19:09:02.583Z</time>
      </trkpt>
      <trkpt lat="44.25343" lon="3.44559">
        <ele>1011.765179</ele>
        <time>2020-03-09T19:09:09.755Z</time>
      </trkpt>
      <trkpt lat="44.25367" lon="3.44435">
        <ele>1009.127002</ele>
        <time>2020-03-09T19:09:19.424Z</time>
      </trkpt>
      <trkpt lat="44.25363" lon="3.44399">
        <ele>1008.583123</ele>
        <time>2020-03-09T19:09:22.250Z</time>
      </trkpt>
      <trkpt lat="44.25312" lon="3.44247">
        <ele>1006.10892</ele>
        <time>2020-03-09T19:09:35.514Z</time>
      </trkpt>
      <trkpt lat="44.25307" lon="3.44236">
        <ele>1005.993997</ele>
        <time>2020-03-09T19:09:36.631Z</time>
      </trkpt>
      <trkpt lat="44.25268" lon="3.44212">
        <ele>1005.627619</ele>
        <time>2020-03-09T19:09:41.510Z</time>
      </trkpt>
      <trkpt lat="44.25246" lon="3.44168">
        <ele>1005.286416</ele>
        <time>2020-03-09T19:09:46.258Z</time>
      </trkpt>
      <trkpt lat="44.2523" lon="3.44114">
        <ele>1004.922906</ele>
        <time>2020-03-09T19:09:51.613Z</time>
      </trkpt>
      <trkpt lat="44.2522" lon="3.44055">
        <ele>1004.540378</ele>
        <time>2020-03-09T19:09:57.665Z</time>
      </trkpt>
      <trkpt lat="44.2519" lon="3.44014">
        <ele>1004.669599</ele>
        <time>2020-03-09T19:10:03.856Z</time>
      </trkpt>
      <trkpt lat="44.25147" lon="3.43916">
        <ele>1005.0869</ele>
        <time>2020-03-09T19:10:17.006Z</time>
      </trkpt>
      <trkpt lat="44.25109" lon="3.43871">
        <ele>1005.338615</ele>
        <time>2020-03-09T19:10:26.667Z</time>
      </trkpt>
      <trkpt lat="44.25043" lon="3.43822">
        <ele>1006.15046</ele>
        <time>2020-03-09T19:10:41.804Z</time>
      </trkpt>
      <trkpt lat="44.25032" lon="3.43811">
        <ele>1006.31832</ele>
        <time>2020-03-09T19:10:44.391Z</time>
      </trkpt>
      <trkpt lat="44.25025" lon="3.43799">
        <ele>1006.443032</ele>
        <time>2020-03-09T19:10:47.091Z</time>
      </trkpt>
      <trkpt lat="44.25013" lon="3.43768">
        <ele>1006.744982</ele>
        <time>2020-03-09T19:10:51.611Z</time>
      </trkpt>
      <trkpt lat="44.25009" lon="3.4373">
        <ele>1007.073289</ele>
        <time>2020-03-09T19:10:57.325Z</time>
      </trkpt>
      <trkpt lat="44.25004" lon="3.43677">
        <ele>1007.52889</ele>
        <time>2020-03-09T19:11:04.763Z</time>
      </trkpt>
      <trkpt lat="44.25007" lon="3.43616">
        <ele>1007.434152</ele>
        <time>2020-03-09T19:11:12.993Z</time>
      </trkpt>
      <trkpt lat="44.25022" lon="3.43515">
        <ele>1007.240326</ele>
        <time>2020-03-09T19:11:24.172Z</time>
      </trkpt>
      <trkpt lat="44.25054" lon="3.434">
        <ele>1006.570712</ele>
        <time>2020-03-09T19:11:34.294Z</time>
      </trkpt>
      <trkpt lat="44.25059" lon="3.43324">
        <ele>1005.45938</ele>
        <time>2020-03-09T19:11:40.379Z</time>
      </trkpt>
      <trkpt lat="44.25057" lon="3.4328">
        <ele>1004.818275</ele>
        <time>2020-03-09T19:11:43.826Z</time>
      </trkpt>
      <trkpt lat="44.25058" lon="3.43246">
        <ele>1004.325858</ele>
        <time>2020-03-09T19:11:46.475Z</time>
      </trkpt>
      <trkpt lat="44.25062" lon="3.43166">
        <ele>1003.22972</ele>
        <time>2020-03-09T19:11:52.527Z</time>
      </trkpt>
      <trkpt lat="44.25057" lon="3.43082">
        <ele>1002.277884</ele>
        <time>2020-03-09T19:11:59.081Z</time>
      </trkpt>
      <trkpt lat="44.25063" lon="3.43049">
        <ele>1001.904276</ele>
        <time>2020-03-09T19:12:01.989Z</time>
      </trkpt>
      <trkpt lat="44.25069" lon="3.43036">
        <ele>1001.730174</ele>
        <time>2020-03-09T19:12:03.184Z</time>
      </trkpt>
      <trkpt lat="44.25111" lon="3.42944">
        <ele>1000.578327</ele>
        <time>2020-03-09T19:12:12.867Z</time>
      </trkpt>
      <trkpt lat="44.25139" lon="3.42851">
        <ele>1000.174435</ele>
        <time>2020-03-09T19:12:22.259Z</time>
      </trkpt>
      <trkpt lat="44.25161" lon="3.42802">
        <ele>999.93987</ele>
        <time>2020-03-09T19:12:27.977Z</time>
      </trkpt>
      <trkpt lat="44.25184" lon="3.42737">
        <ele>999.648588</ele>
        <time>2020-03-09T19:12:35.206Z</time>
      </trkpt>
      <trkpt lat="44.25186" lon="3.42733">
        <ele>999.633038</ele>
        <time>2020-03-09T19:12:35.665Z</time>
      </trkpt>
      <trkpt lat="44.25183" lon="3.42704">
        <ele>999.50168</ele>
        <time>2020-03-09T19:12:38.301Z</time>
      </trkpt>
      <trkpt lat="44.25173" lon="3.42674">
        <ele>999.351772</ele>
        <time>2020-03-09T19:12:41.450Z</time>
      </trkpt>
      <trkpt lat="44.24993" lon="3.42424">
        <ele>998.76523</ele>
        <time>2020-03-09T19:13:14.065Z</time>
      </trkpt>
      <trkpt lat="44.2498" lon="3.42406">
        <ele>998.812596</ele>
        <time>2020-03-09T19:13:17.498Z</time>
      </trkpt>
      <trkpt lat="44.24647" lon="3.41945">
        <ele>1006.628405</ele>
        <time>2020-03-09T19:15:05.558Z</time>
      </trkpt>
      <trkpt lat="44.2464" lon="3.41924">
        <ele>1006.745078</ele>
        <time>2020-03-09T19:15:08.218Z</time>
      </trkpt>
      <trkpt lat="44.24632" lon="3.41862">
        <ele>1007.064315</ele>
        <time>2020-03-09T19:15:15.646Z</time>
      </trkpt>
      <trkpt lat="44.2463" lon="3.41849">
        <ele>1007.132511</ele>
        <time>2020-03-09T19:15:16.969Z</time>
      </trkpt>
      <trkpt lat="44.24625" lon="3.41812">
        <ele>1007.321746</ele>
        <time>2020-03-09T19:15:21.028Z</time>
      </trkpt>
      <trkpt lat="44.24606" lon="3.41658">
        <ele>1006.775654</ele>
        <time>2020-03-09T19:15:35.438Z</time>
      </trkpt>
      <trkpt lat="44.24611" lon="3.41608">
        <ele>1006.51379</ele>
        <time>2020-03-09T19:15:39.951Z</time>
      </trkpt>
      <trkpt lat="44.24617" lon="3.41589">
        <ele>1006.404128</ele>
        <time>2020-03-09T19:15:42.102Z</time>
      </trkpt>
      <trkpt lat="44.24623" lon="3.41571">
        <ele>1006.301975</ele>
        <time>2020-03-09T19:15:43.747Z</time>
      </trkpt>
      <trkpt lat="44.24644" lon="3.41506">
        <ele>1005.90964</ele>
        <time>2020-03-09T19:15:50.074Z</time>
      </trkpt>
      <trkpt lat="44.24661" lon="3.41379">
        <ele>1005.169095</ele>
        <time>2020-03-09T19:16:01.050Z</time>
      </trkpt>
      <trkpt lat="44.24721" lon="3.41195">
        <ele>1005.795445</ele>
        <time>2020-03-09T19:16:21.505Z</time>
      </trkpt>
      <trkpt lat="44.24729" lon="3.40957">
        <ele>1009.523216</ele>
        <time>2020-03-09T19:17:04.722Z</time>
      </trkpt>
      <trkpt lat="44.2479" lon="3.40721">
        <ele>1014.896569</ele>
        <time>2020-03-09T19:17:59.316Z</time>
      </trkpt>
      <trkpt lat="44.24808" lon="3.40582">
        <ele>1017.47169</ele>
        <time>2020-03-09T19:18:22.131Z</time>
      </trkpt>
      <trkpt lat="44.2482" lon="3.4052">
        <ele>1017.88516</ele>
        <time>2020-03-09T19:18:29.531Z</time>
      </trkpt>
      <trkpt lat="44.24849" lon="3.40409">
        <ele>1018.61701</ele>
        <time>2020-03-09T19:18:43.941Z</time>
      </trkpt>
      <trkpt lat="44.24853" lon="3.40396">
        <ele>1018.709265</ele>
        <time>2020-03-09T19:18:45.676Z</time>
      </trkpt>
      <trkpt lat="44.24865" lon="3.40331">
        <ele>1019.188202</ele>
        <time>2020-03-09T19:18:54.056Z</time>
      </trkpt>
      <trkpt lat="44.24879" lon="3.40294">
        <ele>1019.71719</ele>
        <time>2020-03-09T19:19:00.933Z</time>
      </trkpt>
      <trkpt lat="44.249" lon="3.40258">
        <ele>1020.313692</ele>
        <time>2020-03-09T19:19:09.122Z</time>
      </trkpt>
      <trkpt lat="44.24932" lon="3.40228">
        <ele>1020.977347</ele>
        <time>2020-03-09T19:19:18.096Z</time>
      </trkpt>
      <trkpt lat="44.24988" lon="3.40191">
        <ele>1022.074795</ele>
        <time>2020-03-09T19:19:31.708Z</time>
      </trkpt>
      <trkpt lat="44.24998" lon="3.40183">
        <ele>1022.226168</ele>
        <time>2020-03-09T19:19:35.024Z</time>
      </trkpt>
      <trkpt lat="44.25007" lon="3.40175">
        <ele>1022.243909</ele>
        <time>2020-03-09T19:19:36.926Z</time>
      </trkpt>
      <trkpt lat="44.25014" lon="3.40168">
        <ele>1022.257207</ele>
        <time>2020-03-09T19:19:38.279Z</time>
      </trkpt>
      <trkpt lat="44.25021" lon="3.40155">
        <ele>1022.275066</ele>
        <time>2020-03-09T19:19:40.798Z</time>
      </trkpt>
      <trkpt lat="44.25024" lon="3.40143">
        <ele>1022.289227</ele>
        <time>2020-03-09T19:19:42.570Z</time>
      </trkpt>
      <trkpt lat="44.25025" lon="3.40126">
        <ele>1022.308375</ele>
        <time>2020-03-09T19:19:44.406Z</time>
      </trkpt>
      <trkpt lat="44.25019" lon="3.40084">
        <ele>1022.356763</ele>
        <time>2020-03-09T19:19:49.351Z</time>
      </trkpt>
      <trkpt lat="44.25004" lon="3.39999">
        <ele>1022.455123</ele>
        <time>2020-03-09T19:19:58.850Z</time>
      </trkpt>
      <trkpt lat="44.24971" lon="3.39928">
        <ele>1022.249658</ele>
        <time>2020-03-09T19:20:05.902Z</time>
      </trkpt>
      <trkpt lat="44.24959" lon="3.39903">
        <ele>1022.061405</ele>
        <time>2020-03-09T19:20:08.276Z</time>
      </trkpt>
      <trkpt lat="44.24948" lon="3.39889">
        <ele>1021.937142</ele>
        <time>2020-03-09T19:20:10.141Z</time>
      </trkpt>
      <trkpt lat="44.24889" lon="3.39827">
        <ele>1021.293076</ele>
        <time>2020-03-09T19:20:19.587Z</time>
      </trkpt>
      <trkpt lat="44.24809" lon="3.39723">
        <ele>1020.466076</ele>
        <time>2020-03-09T19:20:33.888Z</time>
      </trkpt>
      <trkpt lat="44.24772" lon="3.39708">
        <ele>1020.199784</ele>
        <time>2020-03-09T19:20:38.728Z</time>
      </trkpt>
      <trkpt lat="44.2475" lon="3.39707">
        <ele>1020.04781</ele>
        <time>2020-03-09T19:20:41.397Z</time>
      </trkpt>
      <trkpt lat="44.24737" lon="3.39706">
        <ele>1019.952394</ele>
        <time>2020-03-09T19:20:43.186Z</time>
      </trkpt>
      <trkpt lat="44.24726" lon="3.39704">
        <ele>1019.882149</ele>
        <time>2020-03-09T19:20:44.379Z</time>
      </trkpt>
      <trkpt lat="44.24678" lon="3.39667">
        <ele>1019.695049</ele>
        <time>2020-03-09T19:20:51.659Z</time>
      </trkpt>
      <trkpt lat="44.24631" lon="3.39607">
        <ele>1019.684661</ele>
        <time>2020-03-09T19:21:00.334Z</time>
      </trkpt>
      <trkpt lat="44.24534" lon="3.39472">
        <ele>1020.016651</ele>
        <time>2020-03-09T19:21:23.261Z</time>
      </trkpt>
      <trkpt lat="44.24506" lon="3.39438">
        <ele>1020.275619</ele>
        <time>2020-03-09T19:21:30.594Z</time>
      </trkpt>
      <trkpt lat="44.24447" lon="3.39403">
        <ele>1020.7154</ele>
        <time>2020-03-09T19:21:42.657Z</time>
      </trkpt>
      <trkpt lat="44.24344" lon="3.39395">
        <ele>1020.412803</ele>
        <time>2020-03-09T19:21:58.369Z</time>
      </trkpt>
      <trkpt lat="44.24298" lon="3.39391">
        <ele>1020.101261</ele>
        <time>2020-03-09T19:22:04.042Z</time>
      </trkpt>
      <trkpt lat="44.24281" lon="3.39387">
        <ele>1019.990993</ele>
        <time>2020-03-09T19:22:06.171Z</time>
      </trkpt>
      <trkpt lat="44.24272" lon="3.39383">
        <ele>1019.923149</ele>
        <time>2020-03-09T19:22:07.400Z</time>
      </trkpt>
      <trkpt lat="44.24263" lon="3.39377">
        <ele>1019.857315</ele>
        <time>2020-03-09T19:22:08.444Z</time>
      </trkpt>
      <trkpt lat="44.24241" lon="3.39351">
        <ele>1019.573089</ele>
        <time>2020-03-09T19:22:11.879Z</time>
      </trkpt>
      <trkpt lat="44.24189" lon="3.39202">
        <ele>1017.03928</ele>
        <time>2020-03-09T19:22:24.701Z</time>
      </trkpt>
      <trkpt lat="44.2417" lon="3.39172">
        <ele>1016.425852</ele>
        <time>2020-03-09T19:22:27.805Z</time>
      </trkpt>
      <trkpt lat="44.24126" lon="3.39134">
        <ele>1015.27563</ele>
        <time>2020-03-09T19:22:33.236Z</time>
      </trkpt>
      <trkpt lat="44.23995" lon="3.39052">
        <ele>1011.839332</ele>
        <time>2020-03-09T19:22:48.455Z</time>
      </trkpt>
      <trkpt lat="44.23969" lon="3.39031">
        <ele>1011.147038</ele>
        <time>2020-03-09T19:22:51.763Z</time>
      </trkpt>
      <trkpt lat="44.2396" lon="3.39022">
        <ele>1010.879549</ele>
        <time>2020-03-09T19:22:52.956Z</time>
      </trkpt>
      <trkpt lat="44.2395" lon="3.39012">
        <ele>1010.596203</ele>
        <time>2020-03-09T19:22:54.385Z</time>
      </trkpt>
      <trkpt lat="44.23944" lon="3.39003">
        <ele>1010.386734</ele>
        <time>2020-03-09T19:22:55.436Z</time>
      </trkpt>
      <trkpt lat="44.23938" lon="3.38994">
        <ele>1010.17379</ele>
        <time>2020-03-09T19:22:56.418Z</time>
      </trkpt>
      <trkpt lat="44.23935" lon="3.38983">
        <ele>1009.984775</ele>
        <time>2020-03-09T19:22:57.341Z</time>
      </trkpt>
      <trkpt lat="44.2391" lon="3.38877">
        <ele>1008.108059</ele>
        <time>2020-03-09T19:23:05.920Z</time>
      </trkpt>
      <trkpt lat="44.23901" lon="3.38857">
        <ele>1007.719145</ele>
        <time>2020-03-09T19:23:07.707Z</time>
      </trkpt>
      <trkpt lat="44.23856" lon="3.38794">
        <ele>1005.315766</ele>
        <time>2020-03-09T19:23:14.232Z</time>
      </trkpt>
      <trkpt lat="44.23845" lon="3.38779">
        <ele>1004.639544</ele>
        <time>2020-03-09T19:23:15.866Z</time>
      </trkpt>
      <trkpt lat="44.23835" lon="3.38766">
        <ele>1004.041041</ele>
        <time>2020-03-09T19:23:17.234Z</time>
      </trkpt>
      <trkpt lat="44.23783" lon="3.3871">
        <ele>1001.270564</ele>
        <time>2020-03-09T19:23:23.612Z</time>
      </trkpt>
      <trkpt lat="44.23624" lon="3.3857">
        <ele>989.353953</ele>
        <time>2020-03-09T19:23:40.578Z</time>
      </trkpt>
      <trkpt lat="44.23619" lon="3.38567">
        <ele>988.96455</ele>
        <time>2020-03-09T19:23:41.067Z</time>
      </trkpt>
      <trkpt lat="44.23596" lon="3.3855">
        <ele>987.182758</ele>
        <time>2020-03-09T19:23:43.397Z</time>
      </trkpt>
      <trkpt lat="44.23531" lon="3.38527">
        <ele>982.470434</ele>
        <time>2020-03-09T19:23:49.325Z</time>
      </trkpt>
      <trkpt lat="44.2344" lon="3.38494">
        <ele>975.859136</ele>
        <time>2020-03-09T19:23:57.692Z</time>
      </trkpt>
      <trkpt lat="44.23316" lon="3.38364">
        <ele>969.22699</ele>
        <time>2020-03-09T19:24:12.406Z</time>
      </trkpt>
      <trkpt lat="44.23207" lon="3.38246">
        <ele>968.058123</ele>
        <time>2020-03-09T19:24:29.693Z</time>
      </trkpt>
      <trkpt lat="44.2318" lon="3.38218">
        <ele>968.20881</ele>
        <time>2020-03-09T19:24:36.859Z</time>
      </trkpt>
      <trkpt lat="44.23156" lon="3.38193">
        <ele>968.347285</ele>
        <time>2020-03-09T19:24:44.171Z</time>
      </trkpt>
      <trkpt lat="44.23138" lon="3.38164">
        <ele>968.633711</ele>
        <time>2020-03-09T19:24:51.124Z</time>
      </trkpt>
      <trkpt lat="44.23105" lon="3.38009">
        <ele>971.125484</ele>
        <time>2020-03-09T19:25:22.417Z</time>
      </trkpt>
      <trkpt lat="44.23057" lon="3.37921">
        <ele>971.962365</ele>
        <time>2020-03-09T19:25:37.243Z</time>
      </trkpt>
      <trkpt lat="44.23037" lon="3.37861">
        <ele>971.273679</ele>
        <time>2020-03-09T19:25:43.304Z</time>
      </trkpt>
      <trkpt lat="44.23027" lon="3.37818">
        <ele>970.789695</ele>
        <time>2020-03-09T19:25:47.073Z</time>
      </trkpt>
      <trkpt lat="44.23013" lon="3.3777">
        <ele>970.250724</ele>
        <time>2020-03-09T19:25:51.014Z</time>
      </trkpt>
      <trkpt lat="44.22938" lon="3.37575">
        <ele>965.906679</ele>
        <time>2020-03-09T19:26:06.981Z</time>
      </trkpt>
      <trkpt lat="44.22741" lon="3.37115">
        <ele>955.495182</ele>
        <time>2020-03-09T19:26:47.160Z</time>
      </trkpt>
      <trkpt lat="44.22739" lon="3.37111">
        <ele>955.400066</ele>
        <time>2020-03-09T19:26:47.518Z</time>
      </trkpt>
      <trkpt lat="44.22613" lon="3.37225">
        <ele>952.316672</ele>
        <time>2020-03-09T19:27:03.754Z</time>
      </trkpt>
      <trkpt lat="44.22502" lon="3.37327">
        <ele>950.515346</ele>
        <time>2020-03-09T19:27:19.432Z</time>
      </trkpt>
      <trkpt lat="44.2239" lon="3.37431">
        <ele>949.573913</ele>
        <time>2020-03-09T19:27:36.668Z</time>
      </trkpt>
      <trkpt lat="44.22122" lon="3.37681">
        <ele>950.355558</ele>
        <time>2020-03-09T19:28:26.856Z</time>
      </trkpt>
      <trkpt lat="44.22069" lon="3.37745">
        <ele>951.620388</ele>
        <time>2020-03-09T19:28:42.439Z</time>
      </trkpt>
      <trkpt lat="44.22065" lon="3.3775">
        <ele>951.736658</ele>
        <time>2020-03-09T19:28:43.707Z</time>
      </trkpt>
      <trkpt lat="44.22015" lon="3.37812">
        <ele>953.129127</ele>
        <time>2020-03-09T19:29:00.222Z</time>
      </trkpt>
      <trkpt lat="44.2192" lon="3.37928">
        <ele>955.695607</ele>
        <time>2020-03-09T19:29:31.726Z</time>
      </trkpt>
      <trkpt lat="44.21785" lon="3.38093">
        <ele>959.001842</ele>
        <time>2020-03-09T19:30:10.091Z</time>
      </trkpt>
      <trkpt lat="44.2177" lon="3.38114">
        <ele>959.34491</ele>
        <time>2020-03-09T19:30:14.451Z</time>
      </trkpt>
      <trkpt lat="44.21733" lon="3.38174">
        <ele>960.261378</ele>
        <time>2020-03-09T19:30:26.338Z</time>
      </trkpt>
      <trkpt lat="44.21723" lon="3.38196">
        <ele>960.5623</ele>
        <time>2020-03-09T19:30:30.236Z</time>
      </trkpt>
      <trkpt lat="44.21706" lon="3.38227">
        <ele>961.07511</ele>
        <time>2020-03-09T19:30:36.203Z</time>
      </trkpt>
      <trkpt lat="44.21636" lon="3.38375">
        <ele>963.522055</ele>
        <time>2020-03-09T19:31:05.005Z</time>
      </trkpt>
      <trkpt lat="44.21594" lon="3.3844">
        <ele>964.693682</ele>
        <time>2020-03-09T19:31:19.862Z</time>
      </trkpt>
      <trkpt lat="44.21551" lon="3.38479">
        <ele>965.635338</ele>
        <time>2020-03-09T19:31:31.706Z</time>
      </trkpt>
      <trkpt lat="44.21477" lon="3.38522">
        <ele>967.084706</ele>
        <time>2020-03-09T19:31:49.059Z</time>
      </trkpt>
      <trkpt lat="44.21435" lon="3.38523">
        <ele>967.599974</ele>
        <time>2020-03-09T19:31:57.770Z</time>
      </trkpt>
      <trkpt lat="44.21067" lon="3.38411">
        <ele>969.585233</ele>
        <time>2020-03-09T19:33:03.180Z</time>
      </trkpt>
      <trkpt lat="44.21034" lon="3.38408">
        <ele>969.35401</ele>
        <time>2020-03-09T19:33:07.590Z</time>
      </trkpt>
      <trkpt lat="44.21012" lon="3.38415">
        <ele>969.196786</ele>
        <time>2020-03-09T19:33:10.484Z</time>
      </trkpt>
      <trkpt lat="44.20849" lon="3.38535">
        <ele>965.698374</ele>
        <time>2020-03-09T19:33:31.446Z</time>
      </trkpt>
      <trkpt lat="44.20822" lon="3.38549">
        <ele>964.875631</ele>
        <time>2020-03-09T19:33:34.465Z</time>
      </trkpt>
      <trkpt lat="44.20677" lon="3.38572">
        <ele>957.140762</ele>
        <time>2020-03-09T19:33:48.070Z</time>
      </trkpt>
      <trkpt lat="44.20623" lon="3.38589">
        <ele>953.491224</ele>
        <time>2020-03-09T19:33:52.986Z</time>
      </trkpt>
      <trkpt lat="44.20574" lon="3.38616">
        <ele>950.21831</ele>
        <time>2020-03-09T19:33:57.586Z</time>
      </trkpt>
      <trkpt lat="44.20548" lon="3.38638">
        <ele>948.432064</ele>
        <time>2020-03-09T19:34:00.235Z</time>
      </trkpt>
      <trkpt lat="44.20523" lon="3.38673">
        <ele>946.354785</ele>
        <time>2020-03-09T19:34:03.356Z</time>
      </trkpt>
      <trkpt lat="44.20503" lon="3.38735">
        <ele>943.437008</ele>
        <time>2020-03-09T19:34:07.864Z</time>
      </trkpt>
      <trkpt lat="44.20499" lon="3.38798">
        <ele>941.102435</ele>
        <time>2020-03-09T19:34:12.345Z</time>
      </trkpt>
      <trkpt lat="44.20525" lon="3.38936">
        <ele>941.959439</ele>
        <time>2020-03-09T19:34:31.587Z</time>
      </trkpt>
      <trkpt lat="44.20532" lon="3.39015">
        <ele>942.439714</ele>
        <time>2020-03-09T19:34:46.300Z</time>
      </trkpt>
      <trkpt lat="44.20527" lon="3.39049">
        <ele>942.432738</ele>
        <time>2020-03-09T19:34:53.391Z</time>
      </trkpt>
      <trkpt lat="44.20517" lon="3.39068">
        <ele>942.190629</ele>
        <time>2020-03-09T19:34:56.647Z</time>
      </trkpt>
      <trkpt lat="44.20501" lon="3.39084">
        <ele>941.913277</ele>
        <time>2020-03-09T19:35:01.279Z</time>
      </trkpt>
      <trkpt lat="44.20482" lon="3.39091">
        <ele>941.642458</ele>
        <time>2020-03-09T19:35:03.948Z</time>
      </trkpt>
      <trkpt lat="44.20474" lon="3.39092">
        <ele>941.527488</ele>
        <time>2020-03-09T19:35:06.733Z</time>
      </trkpt>
      <trkpt lat="44.20459" lon="3.39095">
        <ele>941.316432</ele>
        <time>2020-03-09T19:35:08.267Z</time>
      </trkpt>
      <trkpt lat="44.20374" lon="3.3909">
        <ele>940.118045</ele>
        <time>2020-03-09T19:35:16.977Z</time>
      </trkpt>
      <trkpt lat="44.20291" lon="3.39134">
        <ele>936.000276</ele>
        <time>2020-03-09T19:35:25.059Z</time>
      </trkpt>
      <trkpt lat="44.20272" lon="3.39152">
        <ele>934.89805</ele>
        <time>2020-03-09T19:35:27.148Z</time>
      </trkpt>
      <trkpt lat="44.2026" lon="3.39175">
        <ele>933.877358</ele>
        <time>2020-03-09T19:35:29.094Z</time>
      </trkpt>
      <trkpt lat="44.20251" lon="3.39213">
        <ele>932.505376</ele>
        <time>2020-03-09T19:35:31.790Z</time>
      </trkpt>
      <trkpt lat="44.20252" lon="3.39277">
        <ele>931.534451</ele>
        <time>2020-03-09T19:35:36.453Z</time>
      </trkpt>
      <trkpt lat="44.20258" lon="3.39306">
        <ele>931.773629</ele>
        <time>2020-03-09T19:35:39.182Z</time>
      </trkpt>
      <trkpt lat="44.20309" lon="3.39456">
        <ele>933.053109</ele>
        <time>2020-03-09T19:36:08.272Z</time>
      </trkpt>
      <trkpt lat="44.20314" lon="3.39514">
        <ele>933.184002</ele>
        <time>2020-03-09T19:36:20.582Z</time>
      </trkpt>
      <trkpt lat="44.20309" lon="3.39528">
        <ele>933.153254</ele>
        <time>2020-03-09T19:36:24.058Z</time>
      </trkpt>
      <trkpt lat="44.20294" lon="3.39536">
        <ele>933.112786</ele>
        <time>2020-03-09T19:36:27.750Z</time>
      </trkpt>
      <trkpt lat="44.20231" lon="3.39536">
        <ele>932.949451</ele>
        <time>2020-03-09T19:36:39.048Z</time>
      </trkpt>
      <trkpt lat="44.20164" lon="3.39552">
        <ele>932.638473</ele>
        <time>2020-03-09T19:36:46.199Z</time>
      </trkpt>
      <trkpt lat="44.20079" lon="3.39562">
        <ele>926.786587</ele>
        <time>2020-03-09T19:36:53.925Z</time>
      </trkpt>
      <trkpt lat="44.20052" lon="3.39577">
        <ele>924.838046</ele>
        <time>2020-03-09T19:36:56.416Z</time>
      </trkpt>
      <trkpt lat="44.20031" lon="3.39604">
        <ele>922.857985</ele>
        <time>2020-03-09T19:36:58.955Z</time>
      </trkpt>
      <trkpt lat="44.20011" lon="3.39653">
        <ele>920.139822</ele>
        <time>2020-03-09T19:37:02.507Z</time>
      </trkpt>
      <trkpt lat="44.19966" lon="3.39814">
        <ele>912.81174</ele>
        <time>2020-03-09T19:37:13.791Z</time>
      </trkpt>
      <trkpt lat="44.19933" lon="3.39999">
        <ele>907.419435</ele>
        <time>2020-03-09T19:37:27.310Z</time>
      </trkpt>
      <trkpt lat="44.19924" lon="3.40071">
        <ele>905.933004</ele>
        <time>2020-03-09T19:37:33.144Z</time>
      </trkpt>
      <trkpt lat="44.19905" lon="3.40095">
        <ele>905.219163</ele>
        <time>2020-03-09T19:37:36.008Z</time>
      </trkpt>
      <trkpt lat="44.19857" lon="3.40121">
        <ele>904.130945</ele>
        <time>2020-03-09T19:37:41.830Z</time>
      </trkpt>
      <trkpt lat="44.19843" lon="3.40142">
        <ele>903.766364</ele>
        <time>2020-03-09T19:37:44.188Z</time>
      </trkpt>
      <trkpt lat="44.19841" lon="3.40159">
        <ele>903.545927</ele>
        <time>2020-03-09T19:37:45.591Z</time>
      </trkpt>
      <trkpt lat="44.19856" lon="3.40251">
        <ele>902.346943</ele>
        <time>2020-03-09T19:37:53.476Z</time>
      </trkpt>
      <trkpt lat="44.19856" lon="3.40309">
        <ele>901.604477</ele>
        <time>2020-03-09T19:37:58.293Z</time>
      </trkpt>
      <trkpt lat="44.19851" lon="3.40328">
        <ele>901.030879</ele>
        <time>2020-03-09T19:37:59.811Z</time>
      </trkpt>
      <trkpt lat="44.19834" lon="3.40344">
        <ele>900.16793</ele>
        <time>2020-03-09T19:38:01.912Z</time>
      </trkpt>
      <trkpt lat="44.19738" lon="3.40401">
        <ele>895.686302</ele>
        <time>2020-03-09T19:38:11.892Z</time>
      </trkpt>
      <trkpt lat="44.19701" lon="3.4043">
        <ele>893.844267</ele>
        <time>2020-03-09T19:38:15.851Z</time>
      </trkpt>
      <trkpt lat="44.19678" lon="3.40455">
        <ele>892.449842</ele>
        <time>2020-03-09T19:38:18.537Z</time>
      </trkpt>
      <trkpt lat="44.19659" lon="3.40496">
        <ele>890.793252</ele>
        <time>2020-03-09T19:38:21.721Z</time>
      </trkpt>
      <trkpt lat="44.19653" lon="3.40555">
        <ele>888.769104</ele>
        <time>2020-03-09T19:38:25.659Z</time>
      </trkpt>
      <trkpt lat="44.19669" lon="3.40686">
        <ele>885.31177</ele>
        <time>2020-03-09T19:38:35.051Z</time>
      </trkpt>
      <trkpt lat="44.19669" lon="3.40728">
        <ele>885.346835</ele>
        <time>2020-03-09T19:38:38.775Z</time>
      </trkpt>
      <trkpt lat="44.19639" lon="3.40863">
        <ele>885.463112</ele>
        <time>2020-03-09T19:38:58.683Z</time>
      </trkpt>
      <trkpt lat="44.19604" lon="3.40956">
        <ele>885.26377</ele>
        <time>2020-03-09T19:39:16.423Z</time>
      </trkpt>
      <trkpt lat="44.1957" lon="3.41031">
        <ele>884.963359</ele>
        <time>2020-03-09T19:39:27.548Z</time>
      </trkpt>
      <trkpt lat="44.19524" lon="3.41087">
        <ele>884.675967</ele>
        <time>2020-03-09T19:39:34.298Z</time>
      </trkpt>
      <trkpt lat="44.19502" lon="3.41106">
        <ele>883.440144</ele>
        <time>2020-03-09T19:39:36.743Z</time>
      </trkpt>
      <trkpt lat="44.19429" lon="3.41128">
        <ele>878.867059</ele>
        <time>2020-03-09T19:39:43.539Z</time>
      </trkpt>
      <trkpt lat="44.194" lon="3.41153">
        <ele>876.801839</ele>
        <time>2020-03-09T19:39:46.517Z</time>
      </trkpt>
      <trkpt lat="44.19375" lon="3.41197">
        <ele>874.32341</ele>
        <time>2020-03-09T19:39:50.124Z</time>
      </trkpt>
      <trkpt lat="44.19323" lon="3.41324">
        <ele>870.770537</ele>
        <time>2020-03-09T19:39:59.897Z</time>
      </trkpt>
      <trkpt lat="44.19311" lon="3.41367">
        <ele>869.734894</ele>
        <time>2020-03-09T19:40:03.612Z</time>
      </trkpt>
      <trkpt lat="44.1931" lon="3.41387">
        <ele>869.2855</ele>
        <time>2020-03-09T19:40:05.644Z</time>
      </trkpt>
      <trkpt lat="44.19339" lon="3.41577">
        <ele>866.814632</ele>
        <time>2020-03-09T19:40:30.882Z</time>
      </trkpt>
      <trkpt lat="44.19345" lon="3.41626">
        <ele>866.36125</ele>
        <time>2020-03-09T19:40:35.061Z</time>
      </trkpt>
      <trkpt lat="44.19343" lon="3.41659">
        <ele>866.059631</ele>
        <time>2020-03-09T19:40:37.471Z</time>
      </trkpt>
      <trkpt lat="44.19329" lon="3.41669">
        <ele>865.869472</ele>
        <time>2020-03-09T19:40:38.955Z</time>
      </trkpt>
      <trkpt lat="44.19318" lon="3.41663">
        <ele>865.251668</ele>
        <time>2020-03-09T19:40:40.068Z</time>
      </trkpt>
      <trkpt lat="44.19269" lon="3.416">
        <ele>859.974219</ele>
        <time>2020-03-09T19:40:46.038Z</time>
      </trkpt>
      <trkpt lat="44.19226" lon="3.41568">
        <ele>856.074976</ele>
        <time>2020-03-09T19:40:50.274Z</time>
      </trkpt>
      <trkpt lat="44.19203" lon="3.4156">
        <ele>854.180868</ele>
        <time>2020-03-09T19:40:52.324Z</time>
      </trkpt>
      <trkpt lat="44.19187" lon="3.41568">
        <ele>852.859635</ele>
        <time>2020-03-09T19:40:53.757Z</time>
      </trkpt>
      <trkpt lat="44.19179" lon="3.41583">
        <ele>851.789146</ele>
        <time>2020-03-09T19:40:54.937Z</time>
      </trkpt>
      <trkpt lat="44.19165" lon="3.41667">
        <ele>850.315735</ele>
        <time>2020-03-09T19:41:00.467Z</time>
      </trkpt>
      <trkpt lat="44.19178" lon="3.41712">
        <ele>849.562186</ele>
        <time>2020-03-09T19:41:03.905Z</time>
      </trkpt>
      <trkpt lat="44.19177" lon="3.41743">
        <ele>849.096764</ele>
        <time>2020-03-09T19:41:06.730Z</time>
      </trkpt>
      <trkpt lat="44.19169" lon="3.41764">
        <ele>848.731897</ele>
        <time>2020-03-09T19:41:12.230Z</time>
      </trkpt>
      <trkpt lat="44.19137" lon="3.41813">
        <ele>847.750997</ele>
        <time>2020-03-09T19:41:24.747Z</time>
      </trkpt>
      <trkpt lat="44.19122" lon="3.41888">
        <ele>849.163573</ele>
        <time>2020-03-09T19:41:44.968Z</time>
      </trkpt>
      <trkpt lat="44.19116" lon="3.41896">
        <ele>849.377092</ele>
        <time>2020-03-09T19:41:48.625Z</time>
      </trkpt>
      <trkpt lat="44.19108" lon="3.41902">
        <ele>849.601881</ele>
        <time>2020-03-09T19:41:50.753Z</time>
      </trkpt>
      <trkpt lat="44.19101" lon="3.41908">
        <ele>849.809766</ele>
        <time>2020-03-09T19:41:52.749Z</time>
      </trkpt>
      <trkpt lat="44.19098" lon="3.41914">
        <ele>849.93903</ele>
        <time>2020-03-09T19:41:57.575Z</time>
      </trkpt>
      <trkpt lat="44.19091" lon="3.41962">
        <ele>850.813851</ele>
        <time>2020-03-09T19:42:09.799Z</time>
      </trkpt>
      <trkpt lat="44.19078" lon="3.41978">
        <ele>851.260595</ele>
        <time>2020-03-09T19:42:15.617Z</time>
      </trkpt>
      <trkpt lat="44.19016" lon="3.41975">
        <ele>849.889948</ele>
        <time>2020-03-09T19:42:22.179Z</time>
      </trkpt>
      <trkpt lat="44.18967" lon="3.41964">
        <ele>844.447011</ele>
        <time>2020-03-09T19:42:26.496Z</time>
      </trkpt>
      <trkpt lat="44.18916" lon="3.41967">
        <ele>838.906041</ele>
        <time>2020-03-09T19:42:30.801Z</time>
      </trkpt>
      <trkpt lat="44.18907" lon="3.41963">
        <ele>837.911758</ele>
        <time>2020-03-09T19:42:31.546Z</time>
      </trkpt>
      <trkpt lat="44.18895" lon="3.41955">
        <ele>836.471071</ele>
        <time>2020-03-09T19:42:32.629Z</time>
      </trkpt>
      <trkpt lat="44.18848" lon="3.41926">
        <ele>830.458887</ele>
        <time>2020-03-09T19:42:36.939Z</time>
      </trkpt>
      <trkpt lat="44.18832" lon="3.41928">
        <ele>828.348518</ele>
        <time>2020-03-09T19:42:38.245Z</time>
      </trkpt>
      <trkpt lat="44.18819" lon="3.41937">
        <ele>826.486965</ele>
        <time>2020-03-09T19:42:39.426Z</time>
      </trkpt>
      <trkpt lat="44.18798" lon="3.41971">
        <ele>822.287623</ele>
        <time>2020-03-09T19:42:42.048Z</time>
      </trkpt>
      <trkpt lat="44.18753" lon="3.42084">
        <ele>810.036331</ele>
        <time>2020-03-09T19:42:49.943Z</time>
      </trkpt>
      <trkpt lat="44.1875" lon="3.42106">
        <ele>808.522926</ele>
        <time>2020-03-09T19:42:51.373Z</time>
      </trkpt>
      <trkpt lat="44.18756" lon="3.42168">
        <ele>805.853202</ele>
        <time>2020-03-09T19:42:55.461Z</time>
      </trkpt>
      <trkpt lat="44.18751" lon="3.42181">
        <ele>805.219331</ele>
        <time>2020-03-09T19:42:56.443Z</time>
      </trkpt>
      <trkpt lat="44.18693" lon="3.42216">
        <ele>801.47075</ele>
        <time>2020-03-09T19:43:02.323Z</time>
      </trkpt>
      <trkpt lat="44.18671" lon="3.42238">
        <ele>799.820654</ele>
        <time>2020-03-09T19:43:04.984Z</time>
      </trkpt>
      <trkpt lat="44.18652" lon="3.42276">
        <ele>797.952209</ele>
        <time>2020-03-09T19:43:08.202Z</time>
      </trkpt>
      <trkpt lat="44.18625" lon="3.4235">
        <ele>795.081778</ele>
        <time>2020-03-09T19:43:14.056Z</time>
      </trkpt>
      <trkpt lat="44.18601" lon="3.42383">
        <ele>793.446429</ele>
        <time>2020-03-09T19:43:17.318Z</time>
      </trkpt>
      <trkpt lat="44.18545" lon="3.42424">
        <ele>790.429951</ele>
        <time>2020-03-09T19:43:23.176Z</time>
      </trkpt>
      <trkpt lat="44.18506" lon="3.42485">
        <ele>786.384611</ele>
        <time>2020-03-09T19:43:28.624Z</time>
      </trkpt>
      <trkpt lat="44.18466" lon="3.42504">
        <ele>783.235765</ele>
        <time>2020-03-09T19:43:32.358Z</time>
      </trkpt>
      <trkpt lat="44.18416" lon="3.42562">
        <ele>778.2864</ele>
        <time>2020-03-09T19:43:38.123Z</time>
      </trkpt>
      <trkpt lat="44.18359" lon="3.42613">
        <ele>771.981516</ele>
        <time>2020-03-09T19:43:43.982Z</time>
      </trkpt>
      <trkpt lat="44.18346" lon="3.42629">
        <ele>770.103149</ele>
        <time>2020-03-09T19:43:45.484Z</time>
      </trkpt>
      <trkpt lat="44.18326" lon="3.42669">
        <ele>766.307773</ele>
        <time>2020-03-09T19:43:48.531Z</time>
      </trkpt>
      <trkpt lat="44.18266" lon="3.42709">
        <ele>759.275309</ele>
        <time>2020-03-09T19:43:54.091Z</time>
      </trkpt>
      <trkpt lat="44.18226" lon="3.42779">
        <ele>752.721524</ele>
        <time>2020-03-09T19:43:59.564Z</time>
      </trkpt>
      <trkpt lat="44.18209" lon="3.4284">
        <ele>748.064001</ele>
        <time>2020-03-09T19:44:03.607Z</time>
      </trkpt>
      <trkpt lat="44.18204" lon="3.42858">
        <ele>746.735159</ele>
        <time>2020-03-09T19:44:04.741Z</time>
      </trkpt>
      <trkpt lat="44.18202" lon="3.42868">
        <ele>745.989211</ele>
        <time>2020-03-09T19:44:05.398Z</time>
      </trkpt>
      <trkpt lat="44.18205" lon="3.42891">
        <ele>744.336227</ele>
        <time>2020-03-09T19:44:06.875Z</time>
      </trkpt>
      <trkpt lat="44.18232" lon="3.42923">
        <ele>740.806942</ele>
        <time>2020-03-09T19:44:09.995Z</time>
      </trkpt>
      <trkpt lat="44.18238" lon="3.42937">
        <ele>739.653905</ele>
        <time>2020-03-09T19:44:10.995Z</time>
      </trkpt>
      <trkpt lat="44.18235" lon="3.42952">
        <ele>738.751616</ele>
        <time>2020-03-09T19:44:11.980Z</time>
      </trkpt>
      <trkpt lat="44.18222" lon="3.42973">
        <ele>737.775224</ele>
        <time>2020-03-09T19:44:13.783Z</time>
      </trkpt>
      <trkpt lat="44.18213" lon="3.42985">
        <ele>737.15452</ele>
        <time>2020-03-09T19:44:14.889Z</time>
      </trkpt>
      <trkpt lat="44.1821" lon="3.42993">
        <ele>736.832104</ele>
        <time>2020-03-09T19:44:15.475Z</time>
      </trkpt>
      <trkpt lat="44.18205" lon="3.4303">
        <ele>735.510673</ele>
        <time>2020-03-09T19:44:17.931Z</time>
      </trkpt>
      <trkpt lat="44.18207" lon="3.43078">
        <ele>733.791998</ele>
        <time>2020-03-09T19:44:21.439Z</time>
      </trkpt>
      <trkpt lat="44.18212" lon="3.4311">
        <ele>732.629574</ele>
        <time>2020-03-09T19:44:23.801Z</time>
      </trkpt>
      <trkpt lat="44.18221" lon="3.43131">
        <ele>731.778854</ele>
        <time>2020-03-09T19:44:25.496Z</time>
      </trkpt>
      <trkpt lat="44.18231" lon="3.43148">
        <ele>730.989843</ele>
        <time>2020-03-09T19:44:27.096Z</time>
      </trkpt>
      <trkpt lat="44.18246" lon="3.43175">
        <ele>729.855298</ele>
        <time>2020-03-09T19:44:29.521Z</time>
      </trkpt>
      <trkpt lat="44.18361" lon="3.43431">
        <ele>722.11866</ele>
        <time>2020-03-09T19:44:51.585Z</time>
      </trkpt>
      <trkpt lat="44.18371" lon="3.43449">
        <ele>721.332357</ele>
        <time>2020-03-09T19:44:53.120Z</time>
      </trkpt>
      <trkpt lat="44.1838" lon="3.43469">
        <ele>720.486832</ele>
        <time>2020-03-09T19:44:54.720Z</time>
      </trkpt>
      <trkpt lat="44.18383" lon="3.43488">
        <ele>719.814018</ele>
        <time>2020-03-09T19:44:56.081Z</time>
      </trkpt>
      <trkpt lat="44.1838" lon="3.43496">
        <ele>719.50143</ele>
        <time>2020-03-09T19:44:56.650Z</time>
      </trkpt>
      <trkpt lat="44.18377" lon="3.435">
        <ele>719.302974</ele>
        <time>2020-03-09T19:44:57.020Z</time>
      </trkpt>
      <trkpt lat="44.18375" lon="3.43505">
        <ele>719.102293</ele>
        <time>2020-03-09T19:44:57.391Z</time>
      </trkpt>
      <trkpt lat="44.18371" lon="3.43507">
        <ele>718.900364</ele>
        <time>2020-03-09T19:44:57.772Z</time>
      </trkpt>
      <trkpt lat="44.1835" lon="3.43496">
        <ele>717.81331</ele>
        <time>2020-03-09T19:44:59.874Z</time>
      </trkpt>
      <trkpt lat="44.18335" lon="3.43486">
        <ele>716.967924</ele>
        <time>2020-03-09T19:45:01.450Z</time>
      </trkpt>
      <trkpt lat="44.18251" lon="3.43425">
        <ele>712.701734</ele>
        <time>2020-03-09T19:45:10.199Z</time>
      </trkpt>
      <trkpt lat="44.18214" lon="3.43392">
        <ele>710.825049</ele>
        <time>2020-03-09T19:45:14.331Z</time>
      </trkpt>
      <trkpt lat="44.18142" lon="3.43291">
        <ele>707.074322</ele>
        <time>2020-03-09T19:45:24.782Z</time>
      </trkpt>
      <trkpt lat="44.18137" lon="3.43283">
        <ele>706.92507</ele>
        <time>2020-03-09T19:45:25.534Z</time>
      </trkpt>
      <trkpt lat="44.18135" lon="3.43277">
        <ele>706.822217</ele>
        <time>2020-03-09T19:45:26.170Z</time>
      </trkpt>
      <trkpt lat="44.18109" lon="3.43146">
        <ele>704.918264</ele>
        <time>2020-03-09T19:45:36.808Z</time>
      </trkpt>
      <trkpt lat="44.18106" lon="3.43138">
        <ele>704.776249</ele>
        <time>2020-03-09T19:45:37.620Z</time>
      </trkpt>
      <trkpt lat="44.18101" lon="3.43131">
        <ele>704.64594</ele>
        <time>2020-03-09T19:45:38.436Z</time>
      </trkpt>
      <trkpt lat="44.18095" lon="3.43125">
        <ele>704.501329</ele>
        <time>2020-03-09T19:45:39.377Z</time>
      </trkpt>
      <trkpt lat="44.18074" lon="3.43112">
        <ele>704.072707</ele>
        <time>2020-03-09T19:45:42.197Z</time>
      </trkpt>
      <trkpt lat="44.18014" lon="3.43076">
        <ele>703.839442</ele>
        <time>2020-03-09T19:45:50.777Z</time>
      </trkpt>
      <trkpt lat="44.17988" lon="3.43061">
        <ele>703.737628</ele>
        <time>2020-03-09T19:45:54.616Z</time>
      </trkpt>
      <trkpt lat="44.17956" lon="3.43042">
        <ele>703.615974</ele>
        <time>2020-03-09T19:45:59.347Z</time>
      </trkpt>
      <trkpt lat="44.17955" lon="3.43042">
        <ele>703.611206</ele>
        <time>2020-03-09T19:45:59.529Z</time>
      </trkpt>
      <trkpt lat="44.17938" lon="3.4303">
        <ele>703.541755</ele>
        <time>2020-03-09T19:46:02.260Z</time>
      </trkpt>
      <trkpt lat="44.17934" lon="3.43026">
        <ele>703.525465</ele>
        <time>2020-03-09T19:46:02.891Z</time>
      </trkpt>
      <trkpt lat="44.17933" lon="3.43019">
        <ele>703.507369</ele>
        <time>2020-03-09T19:46:03.582Z</time>
      </trkpt>
      <trkpt lat="44.17936" lon="3.43005">
        <ele>703.470351</ele>
        <time>2020-03-09T19:46:05.040Z</time>
      </trkpt>
      <trkpt lat="44.17939" lon="3.42989">
        <ele>703.4684</ele>
        <time>2020-03-09T19:46:06.906Z</time>
      </trkpt>
      <trkpt lat="44.17942" lon="3.42976">
        <ele>703.592243</ele>
        <time>2020-03-09T19:46:08.479Z</time>
      </trkpt>
      <trkpt lat="44.17944" lon="3.42966">
        <ele>703.685563</ele>
        <time>2020-03-09T19:46:09.637Z</time>
      </trkpt>
      <trkpt lat="44.1794" lon="3.42963">
        <ele>703.740558</ele>
        <time>2020-03-09T19:46:10.424Z</time>
      </trkpt>
      <trkpt lat="44.17929" lon="3.42955">
        <ele>703.908821</ele>
        <time>2020-03-09T19:46:12.742Z</time>
      </trkpt>
      <trkpt lat="44.17896" lon="3.42929">
        <ele>704.387474</ele>
        <time>2020-03-09T19:46:20.382Z</time>
      </trkpt>
      <trkpt lat="44.1789" lon="3.42924">
        <ele>704.479249</ele>
        <time>2020-03-09T19:46:21.709Z</time>
      </trkpt>
      <trkpt lat="44.17888" lon="3.42922">
        <ele>704.510142</ele>
        <time>2020-03-09T19:46:22.189Z</time>
      </trkpt>
      <trkpt lat="44.17873" lon="3.42911">
        <ele>704.725932</ele>
        <time>2020-03-09T19:46:25.794Z</time>
      </trkpt>
      <trkpt lat="44.17861" lon="3.42902">
        <ele>704.893072</ele>
        <time>2020-03-09T19:46:28.689Z</time>
      </trkpt>
      <trkpt lat="44.17859" lon="3.429">
        <ele>704.924639</ele>
        <time>2020-03-09T19:46:29.142Z</time>
      </trkpt>
      <trkpt lat="44.1783" lon="3.42877">
        <ele>705.355968</ele>
        <time>2020-03-09T19:46:36.231Z</time>
      </trkpt>
      <trkpt lat="44.17811" lon="3.42864">
        <ele>705.619938</ele>
        <time>2020-03-09T19:46:40.701Z</time>
      </trkpt>
      <trkpt lat="44.17793" lon="3.42851">
        <ele>706.036926</ele>
        <time>2020-03-09T19:46:45.401Z</time>
      </trkpt>
      <trkpt lat="44.1779" lon="3.42848">
        <ele>706.14453</ele>
        <time>2020-03-09T19:46:46.429Z</time>
      </trkpt>
      <trkpt lat="44.17777" lon="3.42838">
        <ele>706.519857</ele>
        <time>2020-03-09T19:46:49.713Z</time>
      </trkpt>
      <trkpt lat="44.17773" lon="3.42836">
        <ele>706.634545</ele>
        <time>2020-03-09T19:46:50.784Z</time>
      </trkpt>
      <trkpt lat="44.17744" lon="3.42838">
        <ele>707.372408</ele>
        <time>2020-03-09T19:46:57.556Z</time>
      </trkpt>
      <trkpt lat="44.17734" lon="3.4284">
        <ele>707.640259</ele>
        <time>2020-03-09T19:47:00.152Z</time>
      </trkpt>
      <trkpt lat="44.17734" lon="3.4284">
        <ele>707.650805</ele>
        <time>2020-03-09T19:47:00.476Z</time>
      </trkpt>
      <trkpt lat="44.17684" lon="3.42868">
        <ele>709.037393</ele>
        <time>2020-03-09T19:47:14.643Z</time>
      </trkpt>
      <trkpt lat="44.17663" lon="3.42885">
        <ele>709.671018</ele>
        <time>2020-03-09T19:47:21.290Z</time>
      </trkpt>
      <trkpt lat="44.17654" lon="3.42892">
        <ele>709.943311</ele>
        <time>2020-03-09T19:47:24.277Z</time>
      </trkpt>
      <trkpt lat="44.17635" lon="3.42902">
        <ele>710.504206</ele>
        <time>2020-03-09T19:47:29.828Z</time>
      </trkpt>
      <trkpt lat="44.17621" lon="3.42905">
        <ele>710.950094</ele>
        <time>2020-03-09T19:47:33.293Z</time>
      </trkpt>
      <trkpt lat="44.17596" lon="3.42912">
        <ele>711.771764</ele>
        <time>2020-03-09T19:47:39.467Z</time>
      </trkpt>
      <trkpt lat="44.17581" lon="3.42916">
        <ele>712.268607</ele>
        <time>2020-03-09T19:47:43.379Z</time>
      </trkpt>
      <trkpt lat="44.17542" lon="3.42925">
        <ele>713.575062</ele>
        <time>2020-03-09T19:47:52.879Z</time>
      </trkpt>
      <trkpt lat="44.17514" lon="3.42931">
        <ele>714.499723</ele>
        <time>2020-03-09T19:48:01.210Z</time>
      </trkpt>
      <trkpt lat="44.17468" lon="3.42942">
        <ele>715.99296</ele>
        <time>2020-03-09T19:48:15.872Z</time>
      </trkpt>
      <trkpt lat="44.17401" lon="3.42961">
        <ele>718.884015</ele>
        <time>2020-03-09T19:48:37.888Z</time>
      </trkpt>
      <trkpt lat="44.17397" lon="3.42965">
        <ele>719.086867</ele>
        <time>2020-03-09T19:48:39.399Z</time>
      </trkpt>
      <trkpt lat="44.17396" lon="3.42962">
        <ele>719.187241</ele>
        <time>2020-03-09T19:48:40.375Z</time>
      </trkpt>
      <trkpt lat="44.17392" lon="3.42958">
        <ele>719.385654</ele>
        <time>2020-03-09T19:48:41.729Z</time>
      </trkpt>
      <trkpt lat="44.1739" lon="3.42958">
        <ele>719.490035</ele>
        <time>2020-03-09T19:48:42.554Z</time>
      </trkpt>
      <trkpt lat="44.17388" lon="3.42959">
        <ele>719.582444</ele>
        <time>2020-03-09T19:48:43.052Z</time>
      </trkpt>
      <trkpt lat="44.17385" lon="3.42964">
        <ele>719.770646</ele>
        <time>2020-03-09T19:48:44.137Z</time>
      </trkpt>
      <trkpt lat="44.17385" lon="3.42967">
        <ele>719.862767</ele>
        <time>2020-03-09T19:48:44.578Z</time>
      </trkpt>
      <trkpt lat="44.17381" lon="3.42967">
        <ele>720.010936</ele>
        <time>2020-03-09T19:48:46.469Z</time>
      </trkpt>
      <trkpt lat="44.17368" lon="3.42968">
        <ele>720.583446</ele>
        <time>2020-03-09T19:48:49.826Z</time>
      </trkpt>
      <trkpt lat="44.17354" lon="3.42974">
        <ele>721.247257</ele>
        <time>2020-03-09T19:48:54.470Z</time>
      </trkpt>
      <trkpt lat="44.1734" lon="3.4298">
        <ele>721.862304</ele>
        <time>2020-03-09T19:48:58.735Z</time>
      </trkpt>
      <trkpt lat="44.17329" lon="3.42988">
        <ele>722.40791</ele>
        <time>2020-03-09T19:49:02.668Z</time>
      </trkpt>
      <trkpt lat="44.17316" lon="3.42996">
        <ele>723.028614</ele>
        <time>2020-03-09T19:49:06.431Z</time>
      </trkpt>
      <trkpt lat="44.17299" lon="3.4301">
        <ele>723.891077</ele>
        <time>2020-03-09T19:49:13.832Z</time>
      </trkpt>
      <trkpt lat="44.17258" lon="3.43066">
        <ele>726.885987</ele>
        <time>2020-03-09T19:49:35.700Z</time>
      </trkpt>
      <trkpt lat="44.17195" lon="3.43093">
        <ele>730.358754</ele>
        <time>2020-03-09T19:49:59.297Z</time>
      </trkpt>
      <trkpt lat="44.1718" lon="3.43098">
        <ele>731.165741</ele>
        <time>2020-03-09T19:50:04.152Z</time>
      </trkpt>
      <trkpt lat="44.17166" lon="3.431">
        <ele>731.877909</ele>
        <time>2020-03-09T19:50:09.178Z</time>
      </trkpt>
      <trkpt lat="44.17118" lon="3.43109">
        <ele>734.669143</ele>
        <time>2020-03-09T19:50:26.623Z</time>
      </trkpt>
      <trkpt lat="44.17092" lon="3.43135">
        <ele>736.727909</ele>
        <time>2020-03-09T19:50:38.873Z</time>
      </trkpt>
      <trkpt lat="44.17054" lon="3.43159">
        <ele>739.466228</ele>
        <time>2020-03-09T19:50:56.362Z</time>
      </trkpt>
      <trkpt lat="44.1704" lon="3.43159">
        <ele>740.364645</ele>
        <time>2020-03-09T19:51:02.635Z</time>
      </trkpt>
      <trkpt lat="44.17018" lon="3.43138">
        <ele>742.104887</ele>
        <time>2020-03-09T19:51:14.727Z</time>
      </trkpt>
      <trkpt lat="44.17003" lon="3.43133">
        <ele>743.112308</ele>
        <time>2020-03-09T19:51:21.116Z</time>
      </trkpt>
      <trkpt lat="44.16991" lon="3.43147">
        <ele>744.130945</ele>
        <time>2020-03-09T19:51:27.776Z</time>
      </trkpt>
      <trkpt lat="44.16972" lon="3.43185">
        <ele>746.349534</ele>
        <time>2020-03-09T19:51:41.522Z</time>
      </trkpt>
      <trkpt lat="44.16949" lon="3.43208">
        <ele>748.267054</ele>
        <time>2020-03-09T19:51:53.147Z</time>
      </trkpt>
      <trkpt lat="44.16905" lon="3.4324">
        <ele>751.602104</ele>
        <time>2020-03-09T19:52:13.839Z</time>
      </trkpt>
      <trkpt lat="44.16849" lon="3.43283">
        <ele>755.945184</ele>
        <time>2020-03-09T19:52:40.294Z</time>
      </trkpt>
      <trkpt lat="44.16789" lon="3.43323">
        <ele>760.547677</ele>
        <time>2020-03-09T19:53:08.757Z</time>
      </trkpt>
      <trkpt lat="44.16692" lon="3.43357">
        <ele>767.63641</ele>
        <time>2020-03-09T19:53:51.722Z</time>
      </trkpt>
      <trkpt lat="44.16664" lon="3.43375">
        <ele>769.793171</ele>
        <time>2020-03-09T19:54:05.265Z</time>
      </trkpt>
      <trkpt lat="44.16576" lon="3.43451">
        <ele>777.210196</ele>
        <time>2020-03-09T19:54:51.642Z</time>
      </trkpt>
      <trkpt lat="44.16562" lon="3.43454">
        <ele>778.171371</ele>
        <time>2020-03-09T19:54:57.532Z</time>
      </trkpt>
      <trkpt lat="44.16531" lon="3.43449">
        <ele>780.395605</ele>
        <time>2020-03-09T19:55:11.028Z</time>
      </trkpt>
      <trkpt lat="44.16498" lon="3.43508">
        <ele>783.746756</ele>
        <time>2020-03-09T19:55:33.436Z</time>
      </trkpt>
      <trkpt lat="44.16471" lon="3.43533">
        <ele>785.22558</ele>
        <time>2020-03-09T19:55:47.153Z</time>
      </trkpt>
      <trkpt lat="44.16373" lon="3.43565">
        <ele>789.732541</ele>
        <time>2020-03-09T19:56:18.620Z</time>
      </trkpt>
      <trkpt lat="44.16341" lon="3.43578">
        <ele>791.135442</ele>
        <time>2020-03-09T19:56:26.985Z</time>
      </trkpt>
      <trkpt lat="44.16298" lon="3.43599">
        <ele>792.075542</ele>
        <time>2020-03-09T19:56:37.151Z</time>
      </trkpt>
      <trkpt lat="44.16262" lon="3.43606">
        <ele>792.830186</ele>
        <time>2020-03-09T19:56:45.020Z</time>
      </trkpt>
      <trkpt lat="44.16253" lon="3.43604">
        <ele>793.010268</ele>
        <time>2020-03-09T19:56:46.013Z</time>
      </trkpt>
      <trkpt lat="44.16246" lon="3.436">
        <ele>793.173151</ele>
        <time>2020-03-09T19:56:48.504Z</time>
      </trkpt>
      <trkpt lat="44.16231" lon="3.43582">
        <ele>793.578627</ele>
        <time>2020-03-09T19:56:53.176Z</time>
      </trkpt>
      <trkpt lat="44.16208" lon="3.43497">
        <ele>795.171047</ele>
        <time>2020-03-09T19:57:06.935Z</time>
      </trkpt>
      <trkpt lat="44.16177" lon="3.43441">
        <ele>797.881533</ele>
        <time>2020-03-09T19:57:20.053Z</time>
      </trkpt>
      <trkpt lat="44.16156" lon="3.43361">
        <ele>801.167585</ele>
        <time>2020-03-09T19:57:43.764Z</time>
      </trkpt>
      <trkpt lat="44.16114" lon="3.43261">
        <ele>806.600827</ele>
        <time>2020-03-09T19:58:20.628Z</time>
      </trkpt>
      <trkpt lat="44.16077" lon="3.43192">
        <ele>812.720802</ele>
        <time>2020-03-09T19:58:52.864Z</time>
      </trkpt>
      <trkpt lat="44.16057" lon="3.43137">
        <ele>817.126619</ele>
        <time>2020-03-09T19:59:17.715Z</time>
      </trkpt>
      <trkpt lat="44.15942" lon="3.42971">
        <ele>836.338138</ele>
        <time>2020-03-09T20:01:01.072Z</time>
      </trkpt>
      <trkpt lat="44.15927" lon="3.42937">
        <ele>839.795963</ele>
        <time>2020-03-09T20:01:20.001Z</time>
      </trkpt>
      <trkpt lat="44.15915" lon="3.42931">
        <ele>841.40531</ele>
        <time>2020-03-09T20:01:28.830Z</time>
      </trkpt>
      <trkpt lat="44.15871" lon="3.42942">
        <ele>847.084139</ele>
        <time>2020-03-09T20:01:59.062Z</time>
      </trkpt>
      <trkpt lat="44.1569" lon="3.42927">
        <ele>870.799761</ele>
        <time>2020-03-09T20:04:03.630Z</time>
      </trkpt>
      <trkpt lat="44.15669" lon="3.4294">
        <ele>873.429382</ele>
        <time>2020-03-09T20:04:18.794Z</time>
      </trkpt>
      <trkpt lat="44.15662" lon="3.42964">
        <ele>875.492625</ele>
        <time>2020-03-09T20:04:30.494Z</time>
      </trkpt>
      <trkpt lat="44.15669" lon="3.42982">
        <ele>877.173406</ele>
        <time>2020-03-09T20:04:39.787Z</time>
      </trkpt>
      <trkpt lat="44.15694" lon="3.43011">
        <ele>880.841859</ele>
        <time>2020-03-09T20:04:59.546Z</time>
      </trkpt>
      <trkpt lat="44.15704" lon="3.43035">
        <ele>883.09893</ele>
        <time>2020-03-09T20:05:11.297Z</time>
      </trkpt>
      <trkpt lat="44.15729" lon="3.43145">
        <ele>890.445898</ele>
        <time>2020-03-09T20:05:55.305Z</time>
      </trkpt>
      <trkpt lat="44.15721" lon="3.43188">
        <ele>892.129233</ele>
        <time>2020-03-09T20:06:09.522Z</time>
      </trkpt>
      <trkpt lat="44.15722" lon="3.43218">
        <ele>893.253601</ele>
        <time>2020-03-09T20:06:17.679Z</time>
      </trkpt>
      <trkpt lat="44.15768" lon="3.4332">
        <ele>897.737981</ele>
        <time>2020-03-09T20:06:42.574Z</time>
      </trkpt>
      <trkpt lat="44.1579" lon="3.43475">
        <ele>897.394073</ele>
        <time>2020-03-09T20:06:58.496Z</time>
      </trkpt>
      <trkpt lat="44.15797" lon="3.43629">
        <ele>897.19481</ele>
        <time>2020-03-09T20:07:10.359Z</time>
      </trkpt>
      <trkpt lat="44.1579" lon="3.43642">
        <ele>897.273701</ele>
        <time>2020-03-09T20:07:11.649Z</time>
      </trkpt>
      <trkpt lat="44.15778" lon="3.43646">
        <ele>897.362047</ele>
        <time>2020-03-09T20:07:13.140Z</time>
      </trkpt>
      <trkpt lat="44.15712" lon="3.43624">
        <ele>897.853059</ele>
        <time>2020-03-09T20:07:24.158Z</time>
      </trkpt>
      <trkpt lat="44.15668" lon="3.43626">
        <ele>898.164757</ele>
        <time>2020-03-09T20:07:35.827Z</time>
      </trkpt>
      <trkpt lat="44.15628" lon="3.43642">
        <ele>900.782115</ele>
        <time>2020-03-09T20:07:51.624Z</time>
      </trkpt>
      <trkpt lat="44.15591" lon="3.43679">
        <ele>904.003212</ele>
        <time>2020-03-09T20:08:10.575Z</time>
      </trkpt>
      <trkpt lat="44.15574" lon="3.43689">
        <ele>905.367128</ele>
        <time>2020-03-09T20:08:19.072Z</time>
      </trkpt>
      <trkpt lat="44.15551" lon="3.43693">
        <ele>907.036432</ele>
        <time>2020-03-09T20:08:30.266Z</time>
      </trkpt>
      <trkpt lat="44.15503" lon="3.43702">
        <ele>910.454108</ele>
        <time>2020-03-09T20:08:53.860Z</time>
      </trkpt>
      <trkpt lat="44.15417" lon="3.4372">
        <ele>917.316836</ele>
        <time>2020-03-09T20:09:40.107Z</time>
      </trkpt>
      <trkpt lat="44.15393" lon="3.43731">
        <ele>919.293777</ele>
        <time>2020-03-09T20:09:51.316Z</time>
      </trkpt>
      <trkpt lat="44.15369" lon="3.4375">
        <ele>921.500737</ele>
        <time>2020-03-09T20:10:04.404Z</time>
      </trkpt>
      <trkpt lat="44.15345" lon="3.4379">
        <ele>924.488493</ele>
        <time>2020-03-09T20:10:19.276Z</time>
      </trkpt>
      <trkpt lat="44.15337" lon="3.43794">
        <ele>925.180457</ele>
        <time>2020-03-09T20:10:22.106Z</time>
      </trkpt>
      <trkpt lat="44.15332" lon="3.43793">
        <ele>925.504198</ele>
        <time>2020-03-09T20:10:24.388Z</time>
      </trkpt>
      <trkpt lat="44.1533" lon="3.43789">
        <ele>925.741459</ele>
        <time>2020-03-09T20:10:26.890Z</time>
      </trkpt>
      <trkpt lat="44.15334" lon="3.43771">
        <ele>926.640967</ele>
        <time>2020-03-09T20:10:31.454Z</time>
      </trkpt>
      <trkpt lat="44.15401" lon="3.43688">
        <ele>932.304228</ele>
        <time>2020-03-09T20:11:05.865Z</time>
      </trkpt>
      <trkpt lat="44.15458" lon="3.43653">
        <ele>936.212186</ele>
        <time>2020-03-09T20:11:30.571Z</time>
      </trkpt>
      <trkpt lat="44.15577" lon="3.43534">
        <ele>948.450024</ele>
        <time>2020-03-09T20:12:36.002Z</time>
      </trkpt>
      <trkpt lat="44.15586" lon="3.43503">
        <ele>950.505565</ele>
        <time>2020-03-09T20:12:51.142Z</time>
      </trkpt>
      <trkpt lat="44.15583" lon="3.43476">
        <ele>952.179049</ele>
        <time>2020-03-09T20:13:02.911Z</time>
      </trkpt>
      <trkpt lat="44.15575" lon="3.4346">
        <ele>953.86098</ele>
        <time>2020-03-09T20:13:11.863Z</time>
      </trkpt>
      <trkpt lat="44.15544" lon="3.43428">
        <ele>958.436803</ele>
        <time>2020-03-09T20:13:35.542Z</time>
      </trkpt>
      <trkpt lat="44.15525" lon="3.43394">
        <ele>962.071693</ele>
        <time>2020-03-09T20:13:54.625Z</time>
      </trkpt>
      <trkpt lat="44.15508" lon="3.43369">
        <ele>964.962255</ele>
        <time>2020-03-09T20:14:09.809Z</time>
      </trkpt>
      <trkpt lat="44.15504" lon="3.43364">
        <ele>965.618072</ele>
        <time>2020-03-09T20:14:14.314Z</time>
      </trkpt>
      <trkpt lat="44.15431" lon="3.43269">
        <ele>977.036651</ele>
        <time>2020-03-09T20:15:17.802Z</time>
      </trkpt>
      <trkpt lat="44.1535" lon="3.43213">
        <ele>986.825904</ele>
        <time>2020-03-09T20:16:12.194Z</time>
      </trkpt>
      <trkpt lat="44.15281" lon="3.4319">
        <ele>993.926633</ele>
        <time>2020-03-09T20:16:48.570Z</time>
      </trkpt>
      <trkpt lat="44.15252" lon="3.4317">
        <ele>996.379719</ele>
        <time>2020-03-09T20:17:04.802Z</time>
      </trkpt>
      <trkpt lat="44.1522" lon="3.43138">
        <ele>999.335848</ele>
        <time>2020-03-09T20:17:23.355Z</time>
      </trkpt>
      <trkpt lat="44.15168" lon="3.43071">
        <ele>1004.745338</ele>
        <time>2020-03-09T20:17:53.897Z</time>
      </trkpt>
      <trkpt lat="44.15167" lon="3.43055">
        <ele>1005.586304</ele>
        <time>2020-03-09T20:17:58.159Z</time>
      </trkpt>
      <trkpt lat="44.15184" lon="3.43026">
        <ele>1007.181982</ele>
        <time>2020-03-09T20:18:08.226Z</time>
      </trkpt>
      <trkpt lat="44.15195" lon="3.42987">
        <ele>1008.689822</ele>
        <time>2020-03-09T20:18:19.108Z</time>
      </trkpt>
      <trkpt lat="44.15197" lon="3.42957">
        <ele>1009.798885</ele>
        <time>2020-03-09T20:18:27.033Z</time>
      </trkpt>
      <trkpt lat="44.15191" lon="3.42926">
        <ele>1010.964061</ele>
        <time>2020-03-09T20:18:35.312Z</time>
      </trkpt>
      <trkpt lat="44.15175" lon="3.42883">
        <ele>1012.732376</ele>
        <time>2020-03-09T20:18:47.738Z</time>
      </trkpt>
      <trkpt lat="44.15127" lon="3.42798">
        <ele>1015.970539</ele>
        <time>2020-03-09T20:19:12.963Z</time>
      </trkpt>
      <trkpt lat="44.15094" lon="3.42719">
        <ele>1017.363784</ele>
        <time>2020-03-09T20:19:30.441Z</time>
      </trkpt>
      <trkpt lat="44.15067" lon="3.42682">
        <ele>1018.162629</ele>
        <time>2020-03-09T20:19:38.837Z</time>
      </trkpt>
      <trkpt lat="44.15062" lon="3.42657">
        <ele>1018.576195</ele>
        <time>2020-03-09T20:19:42.480Z</time>
      </trkpt>
      <trkpt lat="44.15068" lon="3.42637">
        <ele>1018.904155</ele>
        <time>2020-03-09T20:19:45.211Z</time>
      </trkpt>
      <trkpt lat="44.15098" lon="3.4259">
        <ele>1018.3978</ele>
        <time>2020-03-09T20:19:51.609Z</time>
      </trkpt>
      <trkpt lat="44.15116" lon="3.42536">
        <ele>1017.018439</ele>
        <time>2020-03-09T20:19:56.500Z</time>
      </trkpt>
      <trkpt lat="44.15158" lon="3.42445">
        <ele>1014.519888</ele>
        <time>2020-03-09T20:20:03.961Z</time>
      </trkpt>
      <trkpt lat="44.1517" lon="3.42399">
        <ele>1013.300068</ele>
        <time>2020-03-09T20:20:07.223Z</time>
      </trkpt>
      <trkpt lat="44.15173" lon="3.42385">
        <ele>1012.640467</ele>
        <time>2020-03-09T20:20:08.190Z</time>
      </trkpt>
      <trkpt lat="44.15174" lon="3.42378">
        <ele>1012.333874</ele>
        <time>2020-03-09T20:20:08.671Z</time>
      </trkpt>
      <trkpt lat="44.15178" lon="3.42351">
        <ele>1011.115889</ele>
        <time>2020-03-09T20:20:10.464Z</time>
      </trkpt>
      <trkpt lat="44.15182" lon="3.42319">
        <ele>1009.673546</ele>
        <time>2020-03-09T20:20:12.606Z</time>
      </trkpt>
      <trkpt lat="44.15186" lon="3.42292">
        <ele>1008.413431</ele>
        <time>2020-03-09T20:20:14.427Z</time>
      </trkpt>
      <trkpt lat="44.15191" lon="3.42253">
        <ele>1006.653869</ele>
        <time>2020-03-09T20:20:17.017Z</time>
      </trkpt>
      <trkpt lat="44.15238" lon="3.42039">
        <ele>997.066634</ele>
        <time>2020-03-09T20:20:31.625Z</time>
      </trkpt>
      <trkpt lat="44.15259" lon="3.41939">
        <ele>992.73698</ele>
        <time>2020-03-09T20:20:38.608Z</time>
      </trkpt>
      <trkpt lat="44.15267" lon="3.41903">
        <ele>991.367214</ele>
        <time>2020-03-09T20:20:41.152Z</time>
      </trkpt>
      <trkpt lat="44.15285" lon="3.41817">
        <ele>988.655522</ele>
        <time>2020-03-09T20:20:47.373Z</time>
      </trkpt>
      <trkpt lat="44.15294" lon="3.41775">
        <ele>987.3356</ele>
        <time>2020-03-09T20:20:50.446Z</time>
      </trkpt>
      <trkpt lat="44.15332" lon="3.41614">
        <ele>982.604517</ele>
        <time>2020-03-09T20:21:02.541Z</time>
      </trkpt>
      <trkpt lat="44.15329" lon="3.41574">
        <ele>981.592492</ele>
        <time>2020-03-09T20:21:05.527Z</time>
      </trkpt>
      <trkpt lat="44.15312" lon="3.41539">
        <ele>980.531325</ele>
        <time>2020-03-09T20:21:08.626Z</time>
      </trkpt>
      <trkpt lat="44.15255" lon="3.41479">
        <ele>978.022052</ele>
        <time>2020-03-09T20:21:15.800Z</time>
      </trkpt>
      <trkpt lat="44.15211" lon="3.41433">
        <ele>975.913282</ele>
        <time>2020-03-09T20:21:21.107Z</time>
      </trkpt>
      <trkpt lat="44.15194" lon="3.41414">
        <ele>975.054978</ele>
        <time>2020-03-09T20:21:23.238Z</time>
      </trkpt>
      <trkpt lat="44.14894" lon="3.41193">
        <ele>961.933207</ele>
        <time>2020-03-09T20:21:56.487Z</time>
      </trkpt>
      <trkpt lat="44.14864" lon="3.41166">
        <ele>960.662521</ele>
        <time>2020-03-09T20:22:00.055Z</time>
      </trkpt>
      <trkpt lat="44.14805" lon="3.41064">
        <ele>957.36222</ele>
        <time>2020-03-09T20:22:09.560Z</time>
      </trkpt>
      <trkpt lat="44.14739" lon="3.40984">
        <ele>954.804459</ele>
        <time>2020-03-09T20:22:18.437Z</time>
      </trkpt>
      <trkpt lat="44.14677" lon="3.40827">
        <ele>951.640651</ele>
        <time>2020-03-09T20:22:31.872Z</time>
      </trkpt>
      <trkpt lat="44.14629" lon="3.40748">
        <ele>950.533574</ele>
        <time>2020-03-09T20:22:39.727Z</time>
      </trkpt>
      <trkpt lat="44.14585" lon="3.40646">
        <ele>950.295476</ele>
        <time>2020-03-09T20:22:53.361Z</time>
      </trkpt>
      <trkpt lat="44.1457" lon="3.40627">
        <ele>950.906455</ele>
        <time>2020-03-09T20:22:56.629Z</time>
      </trkpt>
      <trkpt lat="44.14567" lon="3.40623">
        <ele>951.033822</ele>
        <time>2020-03-09T20:22:57.824Z</time>
      </trkpt>
      <trkpt lat="44.14556" lon="3.40613">
        <ele>951.424985</ele>
        <time>2020-03-09T20:23:01.318Z</time>
      </trkpt>
      <trkpt lat="44.14537" lon="3.40607">
        <ele>952.005282</ele>
        <time>2020-03-09T20:23:05.114Z</time>
      </trkpt>
      <trkpt lat="44.14526" lon="3.40606">
        <ele>952.336643</ele>
        <time>2020-03-09T20:23:09.030Z</time>
      </trkpt>
      <trkpt lat="44.14396" lon="3.40616">
        <ele>957.263199</ele>
        <time>2020-03-09T20:23:51.928Z</time>
      </trkpt>
      <trkpt lat="44.14282" lon="3.4054">
        <ele>964.111604</ele>
        <time>2020-03-09T20:24:40.819Z</time>
      </trkpt>
      <trkpt lat="44.14251" lon="3.40535">
        <ele>965.680143</ele>
        <time>2020-03-09T20:24:52.126Z</time>
      </trkpt>
      <trkpt lat="44.1417" lon="3.40538">
        <ele>969.53258</ele>
        <time>2020-03-09T20:25:19.738Z</time>
      </trkpt>
      <trkpt lat="44.14042" lon="3.40502">
        <ele>975.700247</ele>
        <time>2020-03-09T20:26:02.278Z</time>
      </trkpt>
      <trkpt lat="44.14017" lon="3.40512">
        <ele>976.838506</ele>
        <time>2020-03-09T20:26:10.308Z</time>
      </trkpt>
      <trkpt lat="44.14006" lon="3.40527">
        <ele>977.551602</ele>
        <time>2020-03-09T20:26:15.335Z</time>
      </trkpt>
      <trkpt lat="44.13999" lon="3.40547">
        <ele>978.276737</ele>
        <time>2020-03-09T20:26:20.473Z</time>
      </trkpt>
      <trkpt lat="44.13993" lon="3.40579">
        <ele>979.344324</ele>
        <time>2020-03-09T20:26:28.086Z</time>
      </trkpt>
      <trkpt lat="44.13992" lon="3.40587">
        <ele>979.618918</ele>
        <time>2020-03-09T20:26:30.409Z</time>
      </trkpt>
      <trkpt lat="44.13978" lon="3.40611">
        <ele>980.618629</ele>
        <time>2020-03-09T20:26:37.587Z</time>
      </trkpt>
      <trkpt lat="44.13958" lon="3.40613">
        <ele>981.574965</ele>
        <time>2020-03-09T20:26:44.710Z</time>
      </trkpt>
      <trkpt lat="44.13938" lon="3.40591">
        <ele>982.937755</ele>
        <time>2020-03-09T20:26:53.464Z</time>
      </trkpt>
      <trkpt lat="44.13903" lon="3.40529">
        <ele>986.045436</ele>
        <time>2020-03-09T20:27:14.183Z</time>
      </trkpt>
      <trkpt lat="44.13891" lon="3.40519">
        <ele>986.778794</ele>
        <time>2020-03-09T20:27:19.384Z</time>
      </trkpt>
      <trkpt lat="44.13878" lon="3.40518">
        <ele>987.50488</ele>
        <time>2020-03-09T20:27:24.607Z</time>
      </trkpt>
      <trkpt lat="44.13855" lon="3.40537">
        <ele>988.938352</ele>
        <time>2020-03-09T20:27:33.974Z</time>
      </trkpt>
      <trkpt lat="44.1381" lon="3.40599">
        <ele>992.418821</ele>
        <time>2020-03-09T20:27:58.131Z</time>
      </trkpt>
      <trkpt lat="44.13773" lon="3.40649">
        <ele>995.169634</ele>
        <time>2020-03-09T20:28:17.928Z</time>
      </trkpt>
      <trkpt lat="44.13757" lon="3.40659">
        <ele>996.149801</ele>
        <time>2020-03-09T20:28:24.837Z</time>
      </trkpt>
      <trkpt lat="44.1374" lon="3.40657">
        <ele>997.063778</ele>
        <time>2020-03-09T20:28:31.189Z</time>
      </trkpt>
      <trkpt lat="44.13718" lon="3.40639">
        <ele>998.408563</ele>
        <time>2020-03-09T20:28:40.161Z</time>
      </trkpt>
      <trkpt lat="44.13664" lon="3.40534">
        <ele>1002.691312</ele>
        <time>2020-03-09T20:29:11.632Z</time>
      </trkpt>
      <trkpt lat="44.13639" lon="3.40495">
        <ele>1004.080241</ele>
        <time>2020-03-09T20:29:22.972Z</time>
      </trkpt>
      <trkpt lat="44.13621" lon="3.40483">
        <ele>1004.82114</ele>
        <time>2020-03-09T20:29:28.740Z</time>
      </trkpt>
      <trkpt lat="44.13459" lon="3.40429">
        <ele>1010.493795</ele>
        <time>2020-03-09T20:30:13.668Z</time>
      </trkpt>
      <trkpt lat="44.13445" lon="3.40412">
        <ele>1011.074613</ele>
        <time>2020-03-09T20:30:18.848Z</time>
      </trkpt>
      <trkpt lat="44.13404" lon="3.40329">
        <ele>1013.332819</ele>
        <time>2020-03-09T20:30:38.942Z</time>
      </trkpt>
      <trkpt lat="44.13378" lon="3.4031">
        <ele>1014.061155</ele>
        <time>2020-03-09T20:30:46.838Z</time>
      </trkpt>
      <trkpt lat="44.13365" lon="3.40307">
        <ele>1014.398671</ele>
        <time>2020-03-09T20:30:50.472Z</time>
      </trkpt>
      <trkpt lat="44.1332" lon="3.40299">
        <ele>1015.513325</ele>
        <time>2020-03-09T20:31:02.639Z</time>
      </trkpt>
      <trkpt lat="44.13215" lon="3.40275">
        <ele>1017.875659</ele>
        <time>2020-03-09T20:31:27.698Z</time>
      </trkpt>
      <trkpt lat="44.13177" lon="3.40269">
        <ele>1018.04196</ele>
        <time>2020-03-09T20:31:35.238Z</time>
      </trkpt>
      <trkpt lat="44.13171" lon="3.40268">
        <ele>1018.068628</ele>
        <time>2020-03-09T20:31:36.073Z</time>
      </trkpt>
      <trkpt lat="44.13127" lon="3.40268">
        <ele>1018.256011</ele>
        <time>2020-03-09T20:31:42.803Z</time>
      </trkpt>
      <trkpt lat="44.12979" lon="3.40324">
        <ele>1018.474727</ele>
        <time>2020-03-09T20:32:03.591Z</time>
      </trkpt>
      <trkpt lat="44.12948" lon="3.40353">
        <ele>1018.416011</ele>
        <time>2020-03-09T20:32:09.309Z</time>
      </trkpt>
      <trkpt lat="44.12938" lon="3.40374">
        <ele>1018.386987</ele>
        <time>2020-03-09T20:32:11.916Z</time>
      </trkpt>
      <trkpt lat="44.12921" lon="3.4041">
        <ele>1018.337873</ele>
        <time>2020-03-09T20:32:16.880Z</time>
      </trkpt>
      <trkpt lat="44.12891" lon="3.40473">
        <ele>1017.658077</ele>
        <time>2020-03-09T20:32:25.023Z</time>
      </trkpt>
      <trkpt lat="44.12852" lon="3.40549">
        <ele>1016.479002</ele>
        <time>2020-03-09T20:32:33.441Z</time>
      </trkpt>
      <trkpt lat="44.12767" lon="3.40667">
        <ele>1012.885424</ele>
        <time>2020-03-09T20:32:45.548Z</time>
      </trkpt>
      <trkpt lat="44.12732" lon="3.40724">
        <ele>1010.159002</ele>
        <time>2020-03-09T20:32:50.481Z</time>
      </trkpt>
      <trkpt lat="44.12724" lon="3.40745">
        <ele>1009.300726</ele>
        <time>2020-03-09T20:32:52.033Z</time>
      </trkpt>
      <trkpt lat="44.12718" lon="3.40782">
        <ele>1007.940472</ele>
        <time>2020-03-09T20:32:54.484Z</time>
      </trkpt>
      <trkpt lat="44.12723" lon="3.40858">
        <ele>1005.560485</ele>
        <time>2020-03-09T20:32:59.533Z</time>
      </trkpt>
      <trkpt lat="44.12763" lon="3.41041">
        <ele>1002.031627</ele>
        <time>2020-03-09T20:33:13.837Z</time>
      </trkpt>
      <trkpt lat="44.12789" lon="3.41101">
        <ele>1001.838396</ele>
        <time>2020-03-09T20:33:23.411Z</time>
      </trkpt>
      <trkpt lat="44.12823" lon="3.41145">
        <ele>1002.703482</ele>
        <time>2020-03-09T20:33:32.968Z</time>
      </trkpt>
      <trkpt lat="44.12865" lon="3.41196">
        <ele>1003.759818</ele>
        <time>2020-03-09T20:33:47.095Z</time>
      </trkpt>
      <trkpt lat="44.1288" lon="3.41219">
        <ele>1004.188737</ele>
        <time>2020-03-09T20:33:52.953Z</time>
      </trkpt>
      <trkpt lat="44.12917" lon="3.41292">
        <ele>1005.566945</ele>
        <time>2020-03-09T20:34:09.914Z</time>
      </trkpt>
      <trkpt lat="44.1292" lon="3.41389">
        <ele>1007.226362</ele>
        <time>2020-03-09T20:34:26.495Z</time>
      </trkpt>
      <trkpt lat="44.12938" lon="3.41566">
        <ele>1010.640661</ele>
        <time>2020-03-09T20:34:56.984Z</time>
      </trkpt>
      <trkpt lat="44.12938" lon="3.41608">
        <ele>1011.56013</ele>
        <time>2020-03-09T20:35:04.995Z</time>
      </trkpt>
      <trkpt lat="44.12916" lon="3.41723">
        <ele>1014.155981</ele>
        <time>2020-03-09T20:35:29.429Z</time>
      </trkpt>
      <trkpt lat="44.12917" lon="3.41757">
        <ele>1014.913382</ele>
        <time>2020-03-09T20:35:36.718Z</time>
      </trkpt>
      <trkpt lat="44.12933" lon="3.41786">
        <ele>1015.766107</ele>
        <time>2020-03-09T20:35:44.786Z</time>
      </trkpt>
      <trkpt lat="44.12996" lon="3.41835">
        <ele>1018.077716</ele>
        <time>2020-03-09T20:36:06.401Z</time>
      </trkpt>
      <trkpt lat="44.13022" lon="3.41881">
        <ele>1019.446703</ele>
        <time>2020-03-09T20:36:18.372Z</time>
      </trkpt>
      <trkpt lat="44.13053" lon="3.42008">
        <ele>1021.048715</ele>
        <time>2020-03-09T20:36:38.636Z</time>
      </trkpt>
      <trkpt lat="44.13052" lon="3.42035">
        <ele>1021.250784</ele>
        <time>2020-03-09T20:36:42.471Z</time>
      </trkpt>
      <trkpt lat="44.13043" lon="3.42071">
        <ele>1021.534734</ele>
        <time>2020-03-09T20:36:47.644Z</time>
      </trkpt>
      <trkpt lat="44.13026" lon="3.42119">
        <ele>1021.935566</ele>
        <time>2020-03-09T20:36:54.090Z</time>
      </trkpt>
      <trkpt lat="44.13016" lon="3.42146">
        <ele>1022.164411</ele>
        <time>2020-03-09T20:36:57.261Z</time>
      </trkpt>
      <trkpt lat="44.13015" lon="3.42159">
        <ele>1022.201635</ele>
        <time>2020-03-09T20:36:58.915Z</time>
      </trkpt>
      <trkpt lat="44.13022" lon="3.42181">
        <ele>1022.148261</ele>
        <time>2020-03-09T20:37:01.413Z</time>
      </trkpt>
      <trkpt lat="44.13071" lon="3.42225">
        <ele>1021.972521</ele>
        <time>2020-03-09T20:37:09.519Z</time>
      </trkpt>
      <trkpt lat="44.13097" lon="3.42237">
        <ele>1021.887357</ele>
        <time>2020-03-09T20:37:13.038Z</time>
      </trkpt>
      <trkpt lat="44.13179" lon="3.42249">
        <ele>1021.630575</ele>
        <time>2020-03-09T20:37:24.720Z</time>
      </trkpt>
      <trkpt lat="44.13202" lon="3.42273">
        <ele>1021.516514</ele>
        <time>2020-03-09T20:37:28.340Z</time>
      </trkpt>
      <trkpt lat="44.13227" lon="3.42335">
        <ele>1021.317921</ele>
        <time>2020-03-09T20:37:34.347Z</time>
      </trkpt>
      <trkpt lat="44.13241" lon="3.42429">
        <ele>1021.045389</ele>
        <time>2020-03-09T20:37:43.306Z</time>
      </trkpt>
      <trkpt lat="44.13258" lon="3.42482">
        <ele>1021.565759</ele>
        <time>2020-03-09T20:37:50.065Z</time>
      </trkpt>
      <trkpt lat="44.13269" lon="3.42505">
        <ele>1022.142094</ele>
        <time>2020-03-09T20:37:53.937Z</time>
      </trkpt>
      <trkpt lat="44.13346" lon="3.4261">
        <ele>1025.30904</ele>
        <time>2020-03-09T20:38:24.673Z</time>
      </trkpt>
      <trkpt lat="44.13362" lon="3.42644">
        <ele>1026.182546</ele>
        <time>2020-03-09T20:38:35.290Z</time>
      </trkpt>
      <trkpt lat="44.13395" lon="3.42803">
        <ele>1029.889174</ele>
        <time>2020-03-09T20:39:14.642Z</time>
      </trkpt>
      <trkpt lat="44.13384" lon="3.42834">
        <ele>1030.660214</ele>
        <time>2020-03-09T20:39:20.915Z</time>
      </trkpt>
      <trkpt lat="44.13339" lon="3.42868">
        <ele>1031.846871</ele>
        <time>2020-03-09T20:39:29.656Z</time>
      </trkpt>
      <trkpt lat="44.13255" lon="3.42883">
        <ele>1031.622176</ele>
        <time>2020-03-09T20:39:39.454Z</time>
      </trkpt>
      <trkpt lat="44.13235" lon="3.42903">
        <ele>1031.559158</ele>
        <time>2020-03-09T20:39:42.191Z</time>
      </trkpt>
      <trkpt lat="44.13233" lon="3.42993">
        <ele>1031.725571</ele>
        <time>2020-03-09T20:39:51.932Z</time>
      </trkpt>
      <trkpt lat="44.1323" lon="3.43004">
        <ele>1032.158837</ele>
        <time>2020-03-09T20:39:53.617Z</time>
      </trkpt>
      <trkpt lat="44.13202" lon="3.43045">
        <ele>1034.228428</ele>
        <time>2020-03-09T20:40:03.904Z</time>
      </trkpt>
      <trkpt lat="44.13198" lon="3.43075">
        <ele>1035.318429</ele>
        <time>2020-03-09T20:40:10.726Z</time>
      </trkpt>
      <trkpt lat="44.13215" lon="3.43217">
        <ele>1040.566114</ele>
        <time>2020-03-09T20:40:56.297Z</time>
      </trkpt>
      <trkpt lat="44.13209" lon="3.43243">
        <ele>1041.803663</ele>
        <time>2020-03-09T20:41:05.818Z</time>
      </trkpt>
      <trkpt lat="44.13185" lon="3.43264">
        <ele>1043.548563</ele>
        <time>2020-03-09T20:41:18.952Z</time>
      </trkpt>
      <trkpt lat="44.13131" lon="3.43263">
        <ele>1046.957005</ele>
        <time>2020-03-09T20:41:41.830Z</time>
      </trkpt>
      <trkpt lat="44.13109" lon="3.43272">
        <ele>1048.444488</ele>
        <time>2020-03-09T20:41:50.908Z</time>
      </trkpt>
      <trkpt lat="44.13022" lon="3.43376">
        <ele>1052.225659</ele>
        <time>2020-03-09T20:42:29.020Z</time>
      </trkpt>
      <trkpt lat="44.12993" lon="3.43404">
        <ele>1052.442824</ele>
        <time>2020-03-09T20:42:37.976Z</time>
      </trkpt>
      <trkpt lat="44.12982" lon="3.43411">
        <ele>1052.513009</ele>
        <time>2020-03-09T20:42:40.751Z</time>
      </trkpt>
      <trkpt lat="44.12949" lon="3.43435">
        <ele>1052.739672</ele>
        <time>2020-03-09T20:42:44.853Z</time>
      </trkpt>
      <trkpt lat="44.12865" lon="3.43514">
        <ele>1046.402344</ele>
        <time>2020-03-09T20:42:54.316Z</time>
      </trkpt>
      <trkpt lat="44.12847" lon="3.43525">
        <ele>1044.456615</ele>
        <time>2020-03-09T20:42:56.087Z</time>
      </trkpt>
      <trkpt lat="44.12839" lon="3.43528">
        <ele>1043.701597</ele>
        <time>2020-03-09T20:42:56.795Z</time>
      </trkpt>
      <trkpt lat="44.12831" lon="3.43515">
        <ele>1042.515664</ele>
        <time>2020-03-09T20:42:57.793Z</time>
      </trkpt>
      <trkpt lat="44.12798" lon="3.43515">
        <ele>1039.264593</ele>
        <time>2020-03-09T20:43:00.590Z</time>
      </trkpt>
      <trkpt lat="44.12788" lon="3.43507">
        <ele>1038.130378</ele>
        <time>2020-03-09T20:43:01.560Z</time>
      </trkpt>
      <trkpt lat="44.12765" lon="3.4344">
        <ele>1031.486385</ele>
        <time>2020-03-09T20:43:05.992Z</time>
      </trkpt>
      <trkpt lat="44.12672" lon="3.43388">
        <ele>1015.718361</ele>
        <time>2020-03-09T20:43:14.285Z</time>
      </trkpt>
      <trkpt lat="44.12655" lon="3.43373">
        <ele>1012.626853</ele>
        <time>2020-03-09T20:43:15.927Z</time>
      </trkpt>
      <trkpt lat="44.12605" lon="3.43303">
        <ele>1003.295439</ele>
        <time>2020-03-09T20:43:21.842Z</time>
      </trkpt>
      <trkpt lat="44.12542" lon="3.43242">
        <ele>994.96007</ele>
        <time>2020-03-09T20:43:28.408Z</time>
      </trkpt>
      <trkpt lat="44.12529" lon="3.43225">
        <ele>993.080123</ele>
        <time>2020-03-09T20:43:29.917Z</time>
      </trkpt>
      <trkpt lat="44.12501" lon="3.43188">
        <ele>988.91679</ele>
        <time>2020-03-09T20:43:33.307Z</time>
      </trkpt>
      <trkpt lat="44.12442" lon="3.43159">
        <ele>984.019199</ele>
        <time>2020-03-09T20:43:38.955Z</time>
      </trkpt>
      <trkpt lat="44.1243" lon="3.43147">
        <ele>982.98014</ele>
        <time>2020-03-09T20:43:40.292Z</time>
      </trkpt>
      <trkpt lat="44.12417" lon="3.43151">
        <ele>982.018136</ele>
        <time>2020-03-09T20:43:41.520Z</time>
      </trkpt>
      <trkpt lat="44.12417" lon="3.4316">
        <ele>981.563692</ele>
        <time>2020-03-09T20:43:42.090Z</time>
      </trkpt>
      <trkpt lat="44.12471" lon="3.43202">
        <ele>977.149511</ele>
        <time>2020-03-09T20:43:47.718Z</time>
      </trkpt>
      <trkpt lat="44.1248" lon="3.43219">
        <ele>976.074623</ele>
        <time>2020-03-09T20:43:49.072Z</time>
      </trkpt>
      <trkpt lat="44.12505" lon="3.43305">
        <ele>970.411877</ele>
        <time>2020-03-09T20:43:55.014Z</time>
      </trkpt>
      <trkpt lat="44.12514" lon="3.43384">
        <ele>965.231066</ele>
        <time>2020-03-09T20:44:00.028Z</time>
      </trkpt>
      <trkpt lat="44.12502" lon="3.43407">
        <ele>963.433591</ele>
        <time>2020-03-09T20:44:01.792Z</time>
      </trkpt>
      <trkpt lat="44.12452" lon="3.43416">
        <ele>958.873308</ele>
        <time>2020-03-09T20:44:06.113Z</time>
      </trkpt>
      <trkpt lat="44.12412" lon="3.43461">
        <ele>953.662599</ele>
        <time>2020-03-09T20:44:10.569Z</time>
      </trkpt>
      <trkpt lat="44.12404" lon="3.43459">
        <ele>952.78176</ele>
        <time>2020-03-09T20:44:11.334Z</time>
      </trkpt>
      <trkpt lat="44.124" lon="3.43451">
        <ele>952.073011</ele>
        <time>2020-03-09T20:44:11.908Z</time>
      </trkpt>
      <trkpt lat="44.12399" lon="3.43442">
        <ele>951.443616</ele>
        <time>2020-03-09T20:44:12.967Z</time>
      </trkpt>
      <trkpt lat="44.12436" lon="3.43369">
        <ele>944.844563</ele>
        <time>2020-03-09T20:44:18.508Z</time>
      </trkpt>
      <trkpt lat="44.12437" lon="3.43347">
        <ele>943.237267</ele>
        <time>2020-03-09T20:44:19.956Z</time>
      </trkpt>
      <trkpt lat="44.12424" lon="3.43323">
        <ele>941.059497</ele>
        <time>2020-03-09T20:44:21.736Z</time>
      </trkpt>
      <trkpt lat="44.12401" lon="3.43301">
        <ele>938.09422</ele>
        <time>2020-03-09T20:44:24.280Z</time>
      </trkpt>
      <trkpt lat="44.12352" lon="3.43278">
        <ele>932.655662</ele>
        <time>2020-03-09T20:44:28.679Z</time>
      </trkpt>
      <trkpt lat="44.12261" lon="3.43268">
        <ele>923.020514</ele>
        <time>2020-03-09T20:44:36.450Z</time>
      </trkpt>
      <trkpt lat="44.12238" lon="3.43259">
        <ele>920.602224</ele>
        <time>2020-03-09T20:44:38.478Z</time>
      </trkpt>
      <trkpt lat="44.12191" lon="3.43198">
        <ele>914.619354</ele>
        <time>2020-03-09T20:44:43.952Z</time>
      </trkpt>
      <trkpt lat="44.12147" lon="3.43181">
        <ele>910.292973</ele>
        <time>2020-03-09T20:44:47.943Z</time>
      </trkpt>
      <trkpt lat="44.1208" lon="3.43131">
        <ele>903.872755</ele>
        <time>2020-03-09T20:44:54.677Z</time>
      </trkpt>
      <trkpt lat="44.12071" lon="3.43133">
        <ele>903.458262</ele>
        <time>2020-03-09T20:44:55.468Z</time>
      </trkpt>
      <trkpt lat="44.1207" lon="3.43143">
        <ele>903.119633</ele>
        <time>2020-03-09T20:44:56.115Z</time>
      </trkpt>
      <trkpt lat="44.12074" lon="3.43149">
        <ele>902.819294</ele>
        <time>2020-03-09T20:44:56.694Z</time>
      </trkpt>
      <trkpt lat="44.12093" lon="3.43162">
        <ele>901.83583</ele>
        <time>2020-03-09T20:44:58.606Z</time>
      </trkpt>
      <trkpt lat="44.12174" lon="3.43255">
        <ele>896.882763</ele>
        <time>2020-03-09T20:45:08.729Z</time>
      </trkpt>
      <trkpt lat="44.12201" lon="3.43317">
        <ele>896.459878</ele>
        <time>2020-03-09T20:45:14.252Z</time>
      </trkpt>
      <trkpt lat="44.12208" lon="3.43385">
        <ele>897.016302</ele>
        <time>2020-03-09T20:45:24.182Z</time>
      </trkpt>
      <trkpt lat="44.12243" lon="3.4341">
        <ele>897.46309</ele>
        <time>2020-03-09T20:45:32.810Z</time>
      </trkpt>
      <trkpt lat="44.12248" lon="3.43485">
        <ele>898.079688</ele>
        <time>2020-03-09T20:45:46.917Z</time>
      </trkpt>
      <trkpt lat="44.12245" lon="3.43494">
        <ele>898.314307</ele>
        <time>2020-03-09T20:45:49.532Z</time>
      </trkpt>
      <trkpt lat="44.12244" lon="3.43499">
        <ele>898.507708</ele>
        <time>2020-03-09T20:45:52.072Z</time>
      </trkpt>
      <trkpt lat="44.12225" lon="3.43522">
        <ele>899.616609</ele>
        <time>2020-03-09T20:45:58.582Z</time>
      </trkpt>
      <trkpt lat="44.1222" lon="3.43535">
        <ele>900.072631</ele>
        <time>2020-03-09T20:46:03.668Z</time>
      </trkpt>
      <trkpt lat="44.12223" lon="3.43579">
        <ele>901.490885</ele>
        <time>2020-03-09T20:46:13.739Z</time>
      </trkpt>
      <trkpt lat="44.12241" lon="3.43635">
        <ele>903.458093</ele>
        <time>2020-03-09T20:46:30.690Z</time>
      </trkpt>
      <trkpt lat="44.12243" lon="3.43701">
        <ele>905.56391</ele>
        <time>2020-03-09T20:46:47.387Z</time>
      </trkpt>
      <trkpt lat="44.12237" lon="3.43709">
        <ele>905.936313</ele>
        <time>2020-03-09T20:46:49.749Z</time>
      </trkpt>
      <trkpt lat="44.12222" lon="3.43705">
        <ele>906.196274</ele>
        <time>2020-03-09T20:46:54.238Z</time>
      </trkpt>
      <trkpt lat="44.12167" lon="3.43563">
        <ele>907.03757</ele>
        <time>2020-03-09T20:47:19.136Z</time>
      </trkpt>
      <trkpt lat="44.12138" lon="3.43516">
        <ele>907.364292</ele>
        <time>2020-03-09T20:47:24.705Z</time>
      </trkpt>
      <trkpt lat="44.12082" lon="3.43441">
        <ele>902.118513</ele>
        <time>2020-03-09T20:47:32.089Z</time>
      </trkpt>
      <trkpt lat="44.11994" lon="3.43354">
        <ele>893.926008</ele>
        <time>2020-03-09T20:47:41.416Z</time>
      </trkpt>
      <trkpt lat="44.11989" lon="3.43349">
        <ele>893.255153</ele>
        <time>2020-03-09T20:47:41.960Z</time>
      </trkpt>
      <trkpt lat="44.11979" lon="3.43339">
        <ele>891.874627</ele>
        <time>2020-03-09T20:47:42.953Z</time>
      </trkpt>
      <trkpt lat="44.1196" lon="3.43323">
        <ele>889.302211</ele>
        <time>2020-03-09T20:47:44.872Z</time>
      </trkpt>
      <trkpt lat="44.11862" lon="3.43295">
        <ele>877.726056</ele>
        <time>2020-03-09T20:47:53.265Z</time>
      </trkpt>
      <trkpt lat="44.11825" lon="3.43291">
        <ele>873.334924</ele>
        <time>2020-03-09T20:47:56.451Z</time>
      </trkpt>
      <trkpt lat="44.118" lon="3.43277">
        <ele>871.095639</ele>
        <time>2020-03-09T20:47:58.751Z</time>
      </trkpt>
      <trkpt lat="44.11774" lon="3.43273">
        <ele>868.93837</ele>
        <time>2020-03-09T20:48:01.115Z</time>
      </trkpt>
      <trkpt lat="44.11681" lon="3.43289">
        <ele>861.44915</ele>
        <time>2020-03-09T20:48:09.517Z</time>
      </trkpt>
      <trkpt lat="44.11601" lon="3.43315">
        <ele>854.374417</ele>
        <time>2020-03-09T20:48:16.789Z</time>
      </trkpt>
      <trkpt lat="44.11504" lon="3.43359">
        <ele>845.104972</ele>
        <time>2020-03-09T20:48:25.765Z</time>
      </trkpt>
      <trkpt lat="44.11497" lon="3.43361">
        <ele>844.422401</ele>
        <time>2020-03-09T20:48:26.379Z</time>
      </trkpt>
      <trkpt lat="44.11344" lon="3.43411">
        <ele>826.319295</ele>
        <time>2020-03-09T20:48:39.557Z</time>
      </trkpt>
      <trkpt lat="44.11337" lon="3.43413">
        <ele>825.389043</ele>
        <time>2020-03-09T20:48:40.186Z</time>
      </trkpt>
      <trkpt lat="44.11329" lon="3.43412">
        <ele>824.439452</ele>
        <time>2020-03-09T20:48:40.856Z</time>
      </trkpt>
      <trkpt lat="44.11306" lon="3.43398">
        <ele>821.426873</ele>
        <time>2020-03-09T20:48:43.049Z</time>
      </trkpt>
      <trkpt lat="44.11281" lon="3.43362">
        <ele>818.49467</ele>
        <time>2020-03-09T20:48:46.181Z</time>
      </trkpt>
      <trkpt lat="44.11248" lon="3.4334">
        <ele>815.956055</ele>
        <time>2020-03-09T20:48:49.367Z</time>
      </trkpt>
      <trkpt lat="44.11234" lon="3.43324">
        <ele>814.663907</ele>
        <time>2020-03-09T20:48:50.989Z</time>
      </trkpt>
      <trkpt lat="44.11205" lon="3.4328">
        <ele>811.693535</ele>
        <time>2020-03-09T20:48:54.825Z</time>
      </trkpt>
      <trkpt lat="44.11186" lon="3.43227">
        <ele>808.749456</ele>
        <time>2020-03-09T20:48:59.063Z</time>
      </trkpt>
      <trkpt lat="44.1115" lon="3.43186">
        <ele>806.91379</ele>
        <time>2020-03-09T20:49:03.810Z</time>
      </trkpt>
      <trkpt lat="44.1114" lon="3.43156">
        <ele>806.23695</ele>
        <time>2020-03-09T20:49:06.223Z</time>
      </trkpt>
      <trkpt lat="44.11142" lon="3.43092">
        <ele>804.929253</ele>
        <time>2020-03-09T20:49:11.065Z</time>
      </trkpt>
      <trkpt lat="44.11133" lon="3.43074">
        <ele>804.490077</ele>
        <time>2020-03-09T20:49:12.707Z</time>
      </trkpt>
      <trkpt lat="44.11117" lon="3.43065">
        <ele>803.994137</ele>
        <time>2020-03-09T20:49:14.533Z</time>
      </trkpt>
      <trkpt lat="44.11012" lon="3.43033">
        <ele>800.905499</ele>
        <time>2020-03-09T20:49:25.794Z</time>
      </trkpt>
      <trkpt lat="44.11" lon="3.43022">
        <ele>800.46715</ele>
        <time>2020-03-09T20:49:27.412Z</time>
      </trkpt>
      <trkpt lat="44.10996" lon="3.43005">
        <ele>800.107693</ele>
        <time>2020-03-09T20:49:28.677Z</time>
      </trkpt>
      <trkpt lat="44.11004" lon="3.42989">
        <ele>799.709867</ele>
        <time>2020-03-09T20:49:30.112Z</time>
      </trkpt>
      <trkpt lat="44.11036" lon="3.42966">
        <ele>798.655231</ele>
        <time>2020-03-09T20:49:33.849Z</time>
      </trkpt>
      <trkpt lat="44.11107" lon="3.42943">
        <ele>796.376086</ele>
        <time>2020-03-09T20:49:41.121Z</time>
      </trkpt>
      <trkpt lat="44.11125" lon="3.4292">
        <ele>795.557626</ele>
        <time>2020-03-09T20:49:43.506Z</time>
      </trkpt>
      <trkpt lat="44.11138" lon="3.42881">
        <ele>794.522242</ele>
        <time>2020-03-09T20:49:46.554Z</time>
      </trkpt>
      <trkpt lat="44.11183" lon="3.42866">
        <ele>792.994213</ele>
        <time>2020-03-09T20:49:51.175Z</time>
      </trkpt>
      <trkpt lat="44.11189" lon="3.42853">
        <ele>792.622834</ele>
        <time>2020-03-09T20:49:52.304Z</time>
      </trkpt>
      <trkpt lat="44.11188" lon="3.42836">
        <ele>792.200966</ele>
        <time>2020-03-09T20:49:53.565Z</time>
      </trkpt>
      <trkpt lat="44.11153" lon="3.42764">
        <ele>790.545859</ele>
        <time>2020-03-09T20:50:00.042Z</time>
      </trkpt>
      <trkpt lat="44.11153" lon="3.4275">
        <ele>790.317771</ele>
        <time>2020-03-09T20:50:01.087Z</time>
      </trkpt>
      <trkpt lat="44.11159" lon="3.4274">
        <ele>790.101427</ele>
        <time>2020-03-09T20:50:02.153Z</time>
      </trkpt>
      <trkpt lat="44.1121" lon="3.42715">
        <ele>788.850443</ele>
        <time>2020-03-09T20:50:08.284Z</time>
      </trkpt>
      <trkpt lat="44.11306" lon="3.42696">
        <ele>785.612776</ele>
        <time>2020-03-09T20:50:18.867Z</time>
      </trkpt>
      <trkpt lat="44.11355" lon="3.42656">
        <ele>782.495263</ele>
        <time>2020-03-09T20:50:24.329Z</time>
      </trkpt>
      <trkpt lat="44.11399" lon="3.42608">
        <ele>779.488152</ele>
        <time>2020-03-09T20:50:29.353Z</time>
      </trkpt>
      <trkpt lat="44.11426" lon="3.42562">
        <ele>777.023005</ele>
        <time>2020-03-09T20:50:33.150Z</time>
      </trkpt>
      <trkpt lat="44.11437" lon="3.42514">
        <ele>774.441432</ele>
        <time>2020-03-09T20:50:36.326Z</time>
      </trkpt>
      <trkpt lat="44.11437" lon="3.42443">
        <ele>770.779245</ele>
        <time>2020-03-09T20:50:40.829Z</time>
      </trkpt>
      <trkpt lat="44.11418" lon="3.42348">
        <ele>765.714973</ele>
        <time>2020-03-09T20:50:47.198Z</time>
      </trkpt>
      <trkpt lat="44.11403" lon="3.42146">
        <ele>758.105824</ele>
        <time>2020-03-09T20:51:01.011Z</time>
      </trkpt>
      <trkpt lat="44.11402" lon="3.42095">
        <ele>756.256301</ele>
        <time>2020-03-09T20:51:04.610Z</time>
      </trkpt>
      <trkpt lat="44.11399" lon="3.41995">
        <ele>753.55762</ele>
        <time>2020-03-09T20:51:11.424Z</time>
      </trkpt>
      <trkpt lat="44.11404" lon="3.41899">
        <ele>751.114286</ele>
        <time>2020-03-09T20:51:18.009Z</time>
      </trkpt>
      <trkpt lat="44.1142" lon="3.41851">
        <ele>749.757834</ele>
        <time>2020-03-09T20:51:22.065Z</time>
      </trkpt>
      <trkpt lat="44.11439" lon="3.41821">
        <ele>749.789432</ele>
        <time>2020-03-09T20:51:25.509Z</time>
      </trkpt>
      <trkpt lat="44.11469" lon="3.41752">
        <ele>751.512984</ele>
        <time>2020-03-09T20:51:36.623Z</time>
      </trkpt>
      <trkpt lat="44.11472" lon="3.4173">
        <ele>751.99387</ele>
        <time>2020-03-09T20:51:40.880Z</time>
      </trkpt>
      <trkpt lat="44.11469" lon="3.41688">
        <ele>752.898794</ele>
        <time>2020-03-09T20:51:50.526Z</time>
      </trkpt>
      <trkpt lat="44.11479" lon="3.41662">
        <ele>753.523671</ele>
        <time>2020-03-09T20:51:58.486Z</time>
      </trkpt>
      <trkpt lat="44.11499" lon="3.41653">
        <ele>754.147012</ele>
        <time>2020-03-09T20:52:07.311Z</time>
      </trkpt>
      <trkpt lat="44.11527" lon="3.41658">
        <ele>754.810858</ele>
        <time>2020-03-09T20:52:21.383Z</time>
      </trkpt>
      <trkpt lat="44.11571" lon="3.41713">
        <ele>755.574994</ele>
        <time>2020-03-09T20:52:42.182Z</time>
      </trkpt>
      <trkpt lat="44.11603" lon="3.41762">
        <ele>756.189574</ele>
        <time>2020-03-09T20:52:47.796Z</time>
      </trkpt>
      <trkpt lat="44.11616" lon="3.41773">
        <ele>756.382776</ele>
        <time>2020-03-09T20:52:51.801Z</time>
      </trkpt>
      <trkpt lat="44.11622" lon="3.41773">
        <ele>756.469592</ele>
        <time>2020-03-09T20:52:57.256Z</time>
      </trkpt>
      <trkpt lat="44.11628" lon="3.41771">
        <ele>756.539349</ele>
        <time>2020-03-09T20:52:57.691Z</time>
      </trkpt>
      <trkpt lat="44.11638" lon="3.41757">
        <ele>756.728545</ele>
        <time>2020-03-09T20:52:59.057Z</time>
      </trkpt>
      <trkpt lat="44.11643" lon="3.41739">
        <ele>756.913382</ele>
        <time>2020-03-09T20:53:04.958Z</time>
      </trkpt>
      <trkpt lat="44.11643" lon="3.41729">
        <ele>756.915027</ele>
        <time>2020-03-09T20:53:05.539Z</time>
      </trkpt>
      <trkpt lat="44.11641" lon="3.41718">
        <ele>756.323881</ele>
        <time>2020-03-09T20:53:06.239Z</time>
      </trkpt>
      <trkpt lat="44.11602" lon="3.41663">
        <ele>752.362956</ele>
        <time>2020-03-09T20:53:11.785Z</time>
      </trkpt>
      <trkpt lat="44.11579" lon="3.41611">
        <ele>749.22885</ele>
        <time>2020-03-09T20:53:15.569Z</time>
      </trkpt>
      <trkpt lat="44.11575" lon="3.41584">
        <ele>747.798852</ele>
        <time>2020-03-09T20:53:17.255Z</time>
      </trkpt>
      <trkpt lat="44.116" lon="3.41429">
        <ele>740.087467</ele>
        <time>2020-03-09T20:53:27.302Z</time>
      </trkpt>
      <trkpt lat="44.11582" lon="3.41301">
        <ele>734.055305</ele>
        <time>2020-03-09T20:53:36.018Z</time>
      </trkpt>
      <trkpt lat="44.11552" lon="3.41212">
        <ele>730.687931</ele>
        <time>2020-03-09T20:53:42.769Z</time>
      </trkpt>
      <trkpt lat="44.11546" lon="3.41169">
        <ele>729.45711</ele>
        <time>2020-03-09T20:53:45.826Z</time>
      </trkpt>
      <trkpt lat="44.11546" lon="3.41138">
        <ele>728.591136</ele>
        <time>2020-03-09T20:53:48.001Z</time>
      </trkpt>
      <trkpt lat="44.11557" lon="3.41083">
        <ele>726.986646</ele>
        <time>2020-03-09T20:53:52.081Z</time>
      </trkpt>
      <trkpt lat="44.11561" lon="3.40983">
        <ele>724.780989</ele>
        <time>2020-03-09T20:53:59.500Z</time>
      </trkpt>
      <trkpt lat="44.11554" lon="3.40902">
        <ele>723.566912</ele>
        <time>2020-03-09T20:54:05.760Z</time>
      </trkpt>
      <trkpt lat="44.11557" lon="3.408">
        <ele>722.041434</ele>
        <time>2020-03-09T20:54:14.070Z</time>
      </trkpt>
      <trkpt lat="44.11549" lon="3.40743">
        <ele>721.449611</ele>
        <time>2020-03-09T20:54:19.092Z</time>
      </trkpt>
      <trkpt lat="44.11532" lon="3.40712">
        <ele>721.144406</ele>
        <time>2020-03-09T20:54:22.597Z</time>
      </trkpt>
      <trkpt lat="44.11426" lon="3.40655">
        <ele>719.948324</ele>
        <time>2020-03-09T20:54:36.497Z</time>
      </trkpt>
      <trkpt lat="44.11418" lon="3.40604">
        <ele>719.504411</ele>
        <time>2020-03-09T20:54:41.067Z</time>
      </trkpt>
      <trkpt lat="44.11392" lon="3.40585">
        <ele>719.140667</ele>
        <time>2020-03-09T20:54:44.659Z</time>
      </trkpt>
      <trkpt lat="44.11352" lon="3.40593">
        <ele>718.640197</ele>
        <time>2020-03-09T20:54:49.554Z</time>
      </trkpt>
      <trkpt lat="44.11329" lon="3.40547">
        <ele>718.147182</ele>
        <time>2020-03-09T20:54:54.286Z</time>
      </trkpt>
      <trkpt lat="44.11301" lon="3.40416">
        <ele>716.779232</ele>
        <time>2020-03-09T20:55:05.542Z</time>
      </trkpt>
      <trkpt lat="44.11261" lon="3.40337">
        <ele>715.708003</ele>
        <time>2020-03-09T20:55:13.428Z</time>
      </trkpt>
      <trkpt lat="44.11174" lon="3.40249">
        <ele>714.297304</ele>
        <time>2020-03-09T20:55:25.796Z</time>
      </trkpt>
      <trkpt lat="44.11096" lon="3.40222">
        <ele>713.439485</ele>
        <time>2020-03-09T20:55:35.853Z</time>
      </trkpt>
      <trkpt lat="44.11047" lon="3.40222">
        <ele>712.918876</ele>
        <time>2020-03-09T20:55:42.110Z</time>
      </trkpt>
      <trkpt lat="44.10998" lon="3.40213">
        <ele>712.23999</ele>
        <time>2020-03-09T20:55:48.195Z</time>
      </trkpt>
      <trkpt lat="44.10975" lon="3.40205">
        <ele>711.911992</ele>
        <time>2020-03-09T20:55:51.169Z</time>
      </trkpt>
      <trkpt lat="44.10914" lon="3.40164">
        <ele>710.988071</ele>
        <time>2020-03-09T20:55:58.977Z</time>
      </trkpt>
      <trkpt lat="44.10836" lon="3.40084">
        <ele>709.440113</ele>
        <time>2020-03-09T20:56:09.606Z</time>
      </trkpt>
      <trkpt lat="44.10789" lon="3.4002">
        <ele>708.305212</ele>
        <time>2020-03-09T20:56:16.565Z</time>
      </trkpt>
      <trkpt lat="44.10655" lon="3.39929">
        <ele>707.778417</ele>
        <time>2020-03-09T20:56:35.442Z</time>
      </trkpt>
      <trkpt lat="44.10603" lon="3.39905">
        <ele>708.023425</ele>
        <time>2020-03-09T20:56:46.654Z</time>
      </trkpt>
      <trkpt lat="44.10582" lon="3.39905">
        <ele>708.118171</ele>
        <time>2020-03-09T20:56:51.411Z</time>
      </trkpt>
      <trkpt lat="44.10498" lon="3.39929">
        <ele>710.025479</ele>
        <time>2020-03-09T20:57:13.147Z</time>
      </trkpt>
      <trkpt lat="44.10476" lon="3.39944">
        <ele>710.605587</ele>
        <time>2020-03-09T20:57:19.805Z</time>
      </trkpt>
      <trkpt lat="44.10441" lon="3.39996">
        <ele>711.857764</ele>
        <time>2020-03-09T20:57:32.989Z</time>
      </trkpt>
      <trkpt lat="44.10381" lon="3.40057">
        <ele>712.777265</ele>
        <time>2020-03-09T20:57:49.112Z</time>
      </trkpt>
      <trkpt lat="44.10354" lon="3.40072">
        <ele>712.92835</ele>
        <time>2020-03-09T20:57:55.023Z</time>
      </trkpt>
      <trkpt lat="44.10295" lon="3.40075">
        <ele>713.224695</ele>
        <time>2020-03-09T20:58:04.350Z</time>
      </trkpt>
      <trkpt lat="44.102" lon="3.4007">
        <ele>712.597498</ele>
        <time>2020-03-09T20:58:16.121Z</time>
      </trkpt>
      <trkpt lat="44.10086" lon="3.40094">
        <ele>710.640583</ele>
        <time>2020-03-09T20:58:28.582Z</time>
      </trkpt>
      <trkpt lat="44.10037" lon="3.40059">
        <ele>709.938363</ele>
        <time>2020-03-09T20:58:34.476Z</time>
      </trkpt>
      <trkpt lat="44.09946" lon="3.39973">
        <ele>708.70436</ele>
        <time>2020-03-09T20:58:47.640Z</time>
      </trkpt>
      <trkpt lat="44.09923" lon="3.39965">
        <ele>708.439865</ele>
        <time>2020-03-09T20:58:50.979Z</time>
      </trkpt>
      <trkpt lat="44.0989" lon="3.39944">
        <ele>708.552229</ele>
        <time>2020-03-09T20:58:57.068Z</time>
      </trkpt>
      <trkpt lat="44.09852" lon="3.39932">
        <ele>708.779645</ele>
        <time>2020-03-09T20:59:04.928Z</time>
      </trkpt>
      <trkpt lat="44.09803" lon="3.39933">
        <ele>709.067804</ele>
        <time>2020-03-09T20:59:14.872Z</time>
      </trkpt>
      <trkpt lat="44.09771" lon="3.39946">
        <ele>709.260733</ele>
        <time>2020-03-09T20:59:21.179Z</time>
      </trkpt>
      <trkpt lat="44.09755" lon="3.39959">
        <ele>709.37124</ele>
        <time>2020-03-09T20:59:24.455Z</time>
      </trkpt>
      <trkpt lat="44.09716" lon="3.40004">
        <ele>707.855344</ele>
        <time>2020-03-09T20:59:32.021Z</time>
      </trkpt>
      <trkpt lat="44.09638" lon="3.40156">
        <ele>702.656863</ele>
        <time>2020-03-09T20:59:45.059Z</time>
      </trkpt>
      <trkpt lat="44.09589" lon="3.40308">
        <ele>690.839263</ele>
        <time>2020-03-09T20:59:55.361Z</time>
      </trkpt>
      <trkpt lat="44.09566" lon="3.40337">
        <ele>687.715554</ele>
        <time>2020-03-09T20:59:57.980Z</time>
      </trkpt>
      <trkpt lat="44.09537" lon="3.40357">
        <ele>684.445187</ele>
        <time>2020-03-09T21:00:00.714Z</time>
      </trkpt>
      <trkpt lat="44.09488" lon="3.40363">
        <ele>679.299767</ele>
        <time>2020-03-09T21:00:04.902Z</time>
      </trkpt>
      <trkpt lat="44.0947" lon="3.4036">
        <ele>677.402386</ele>
        <time>2020-03-09T21:00:06.456Z</time>
      </trkpt>
      <trkpt lat="44.09332" lon="3.40248">
        <ele>660.817297</ele>
        <time>2020-03-09T21:00:20.193Z</time>
      </trkpt>
      <trkpt lat="44.0925" lon="3.4022">
        <ele>652.130643</ele>
        <time>2020-03-09T21:00:27.452Z</time>
      </trkpt>
      <trkpt lat="44.09139" lon="3.40239">
        <ele>641.417892</ele>
        <time>2020-03-09T21:00:37.004Z</time>
      </trkpt>
      <trkpt lat="44.09097" lon="3.40238">
        <ele>637.591283</ele>
        <time>2020-03-09T21:00:40.681Z</time>
      </trkpt>
      <trkpt lat="44.09082" lon="3.4023">
        <ele>636.151332</ele>
        <time>2020-03-09T21:00:42.079Z</time>
      </trkpt>
      <trkpt lat="44.09061" lon="3.40198">
        <ele>633.34869</ele>
        <time>2020-03-09T21:00:44.822Z</time>
      </trkpt>
      <trkpt lat="44.09047" lon="3.40054">
        <ele>626.741711</ele>
        <time>2020-03-09T21:00:54.413Z</time>
      </trkpt>
      <trkpt lat="44.09011" lon="3.39882">
        <ele>619.958357</ele>
        <time>2020-03-09T21:01:06.830Z</time>
      </trkpt>
      <trkpt lat="44.08914" lon="3.39673">
        <ele>611.171298</ele>
        <time>2020-03-09T21:01:23.553Z</time>
      </trkpt>
      <trkpt lat="44.08861" lon="3.39583">
        <ele>607.583222</ele>
        <time>2020-03-09T21:01:31.523Z</time>
      </trkpt>
      <trkpt lat="44.08854" lon="3.39556">
        <ele>606.69655</ele>
        <time>2020-03-09T21:01:33.564Z</time>
      </trkpt>
      <trkpt lat="44.08817" lon="3.39513">
        <ele>604.619544</ele>
        <time>2020-03-09T21:01:38.404Z</time>
      </trkpt>
      <trkpt lat="44.08801" lon="3.39477">
        <ele>603.740235</ele>
        <time>2020-03-09T21:01:41.553Z</time>
      </trkpt>
      <trkpt lat="44.08792" lon="3.39471">
        <ele>603.487086</ele>
        <time>2020-03-09T21:01:42.516Z</time>
      </trkpt>
      <trkpt lat="44.08769" lon="3.39479">
        <ele>602.831936</ele>
        <time>2020-03-09T21:01:45.093Z</time>
      </trkpt>
      <trkpt lat="44.08748" lon="3.39474">
        <ele>602.26603</ele>
        <time>2020-03-09T21:01:47.331Z</time>
      </trkpt>
      <trkpt lat="44.08709" lon="3.39444">
        <ele>601.081056</ele>
        <time>2020-03-09T21:01:52.050Z</time>
      </trkpt>
      <trkpt lat="44.08695" lon="3.3944">
        <ele>600.696882</ele>
        <time>2020-03-09T21:01:53.541Z</time>
      </trkpt>
      <trkpt lat="44.08602" lon="3.39431">
        <ele>597.674108</ele>
        <time>2020-03-09T21:02:03.326Z</time>
      </trkpt>
      <trkpt lat="44.0849" lon="3.39382">
        <ele>593.381133</ele>
        <time>2020-03-09T21:02:14.888Z</time>
      </trkpt>
      <trkpt lat="44.08421" lon="3.39382">
        <ele>590.105932</ele>
        <time>2020-03-09T21:02:21.341Z</time>
      </trkpt>
      <trkpt lat="44.08383" lon="3.39375">
        <ele>588.212838</ele>
        <time>2020-03-09T21:02:24.925Z</time>
      </trkpt>
      <trkpt lat="44.0833" lon="3.39379">
        <ele>585.567549</ele>
        <time>2020-03-09T21:02:29.939Z</time>
      </trkpt>
      <trkpt lat="44.08299" lon="3.39372">
        <ele>584.086112</ele>
        <time>2020-03-09T21:02:32.844Z</time>
      </trkpt>
      <trkpt lat="44.0825" lon="3.3935">
        <ele>582.143271</ele>
        <time>2020-03-09T21:02:37.811Z</time>
      </trkpt>
      <trkpt lat="44.08205" lon="3.39341">
        <ele>580.429886</ele>
        <time>2020-03-09T21:02:42.285Z</time>
      </trkpt>
      <trkpt lat="44.08161" lon="3.39321">
        <ele>578.678862</ele>
        <time>2020-03-09T21:02:46.976Z</time>
      </trkpt>
      <trkpt lat="44.08091" lon="3.39262">
        <ele>576.124046</ele>
        <time>2020-03-09T21:02:55.466Z</time>
      </trkpt>
      <trkpt lat="44.08014" lon="3.39158">
        <ele>573.225062</ele>
        <time>2020-03-09T21:03:06.749Z</time>
      </trkpt>
      <trkpt lat="44.0796" lon="3.39107">
        <ele>571.658921</ele>
        <time>2020-03-09T21:03:13.524Z</time>
      </trkpt>
      <trkpt lat="44.07937" lon="3.39078">
        <ele>570.94778</ele>
        <time>2020-03-09T21:03:16.856Z</time>
      </trkpt>
      <trkpt lat="44.07914" lon="3.39044">
        <ele>570.211627</ele>
        <time>2020-03-09T21:03:20.415Z</time>
      </trkpt>
      <trkpt lat="44.07889" lon="3.38988">
        <ele>569.133478</ele>
        <time>2020-03-09T21:03:25.625Z</time>
      </trkpt>
      <trkpt lat="44.07866" lon="3.38915">
        <ele>568.05876</ele>
        <time>2020-03-09T21:03:32.003Z</time>
      </trkpt>
      <trkpt lat="44.07854" lon="3.38888">
        <ele>567.705743</ele>
        <time>2020-03-09T21:03:34.570Z</time>
      </trkpt>
      <trkpt lat="44.07841" lon="3.38864">
        <ele>567.36205</ele>
        <time>2020-03-09T21:03:37.174Z</time>
      </trkpt>
      <trkpt lat="44.07842" lon="3.38833">
        <ele>567.013218</ele>
        <time>2020-03-09T21:03:39.704Z</time>
      </trkpt>
      <trkpt lat="44.07843" lon="3.38711">
        <ele>565.740757</ele>
        <time>2020-03-09T21:03:49.910Z</time>
      </trkpt>
      <trkpt lat="44.07848" lon="3.38666">
        <ele>565.7827</ele>
        <time>2020-03-09T21:03:53.806Z</time>
      </trkpt>
      <trkpt lat="44.07868" lon="3.38586">
        <ele>565.859898</ele>
        <time>2020-03-09T21:04:01.452Z</time>
      </trkpt>
      <trkpt lat="44.07865" lon="3.38518">
        <ele>565.922156</ele>
        <time>2020-03-09T21:04:09.945Z</time>
      </trkpt>
      <trkpt lat="44.07868" lon="3.38504">
        <ele>565.936057</ele>
        <time>2020-03-09T21:04:12.112Z</time>
      </trkpt>
      <trkpt lat="44.07889" lon="3.38469">
        <ele>566.396425</ele>
        <time>2020-03-09T21:04:19.651Z</time>
      </trkpt>
      <trkpt lat="44.07889" lon="3.3845">
        <ele>566.9289</ele>
        <time>2020-03-09T21:04:23.168Z</time>
      </trkpt>
      <trkpt lat="44.07879" lon="3.38413">
        <ele>568.014573</ele>
        <time>2020-03-09T21:04:30.881Z</time>
      </trkpt>
      <trkpt lat="44.07893" lon="3.38366">
        <ele>569.412287</ele>
        <time>2020-03-09T21:04:42.146Z</time>
      </trkpt>
      <trkpt lat="44.07893" lon="3.38282">
        <ele>571.75276</ele>
        <time>2020-03-09T21:05:02.948Z</time>
      </trkpt>
      <trkpt lat="44.07903" lon="3.38162">
        <ele>573.912347</ele>
        <time>2020-03-09T21:05:33.046Z</time>
      </trkpt>
      <trkpt lat="44.07889" lon="3.38041">
        <ele>575.472468</ele>
        <time>2020-03-09T21:05:52.334Z</time>
      </trkpt>
      <trkpt lat="44.07895" lon="3.38024">
        <ele>575.724735</ele>
        <time>2020-03-09T21:05:53.973Z</time>
      </trkpt>
      <trkpt lat="44.07956" lon="3.37949">
        <ele>573.677736</ele>
        <time>2020-03-09T21:06:02.402Z</time>
      </trkpt>
      <trkpt lat="44.07975" lon="3.37917">
        <ele>572.469347</ele>
        <time>2020-03-09T21:06:05.260Z</time>
      </trkpt>
      <trkpt lat="44.07971" lon="3.37872">
        <ele>571.174692</ele>
        <time>2020-03-09T21:06:08.260Z</time>
      </trkpt>
      <trkpt lat="44.07969" lon="3.37834">
        <ele>570.05241</ele>
        <time>2020-03-09T21:06:10.844Z</time>
      </trkpt>
      <trkpt lat="44.07953" lon="3.37753">
        <ele>568.140386</ele>
        <time>2020-03-09T21:06:16.517Z</time>
      </trkpt>
      <trkpt lat="44.07931" lon="3.37703">
        <ele>567.169803</ele>
        <time>2020-03-09T21:06:20.611Z</time>
      </trkpt>
      <trkpt lat="44.07896" lon="3.37643">
        <ele>565.909824</ele>
        <time>2020-03-09T21:06:26.828Z</time>
      </trkpt>
      <trkpt lat="44.0779" lon="3.37596">
        <ele>565.307132</ele>
        <time>2020-03-09T21:06:44.869Z</time>
      </trkpt>
      <trkpt lat="44.0778" lon="3.37588">
        <ele>565.431112</ele>
        <time>2020-03-09T21:06:47.512Z</time>
      </trkpt>
      <trkpt lat="44.07764" lon="3.37558">
        <ele>565.703473</ele>
        <time>2020-03-09T21:06:53.365Z</time>
      </trkpt>
      <trkpt lat="44.07763" lon="3.37458">
        <ele>566.443806</ele>
        <time>2020-03-09T21:07:08.815Z</time>
      </trkpt>
      <trkpt lat="44.07753" lon="3.3739">
        <ele>566.174173</ele>
        <time>2020-03-09T21:07:17.935Z</time>
      </trkpt>
      <trkpt lat="44.07743" lon="3.37353">
        <ele>565.900364</ele>
        <time>2020-03-09T21:07:22.347Z</time>
      </trkpt>
      <trkpt lat="44.07688" lon="3.37218">
        <ele>564.814723</ele>
        <time>2020-03-09T21:07:34.989Z</time>
      </trkpt>
      <trkpt lat="44.07692" lon="3.37118">
        <ele>562.076312</ele>
        <time>2020-03-09T21:07:42.162Z</time>
      </trkpt>
      <trkpt lat="44.0769" lon="3.37102">
        <ele>561.609384</ele>
        <time>2020-03-09T21:07:43.325Z</time>
      </trkpt>
      <trkpt lat="44.07689" lon="3.37098">
        <ele>561.494303</ele>
        <time>2020-03-09T21:07:43.583Z</time>
      </trkpt>
      <trkpt lat="44.07672" lon="3.37064">
        <ele>560.337671</ele>
        <time>2020-03-09T21:07:46.542Z</time>
      </trkpt>
      <trkpt lat="44.07648" lon="3.36983">
        <ele>557.903955</ele>
        <time>2020-03-09T21:07:52.564Z</time>
      </trkpt>
      <trkpt lat="44.07589" lon="3.36912">
        <ele>554.952708</ele>
        <time>2020-03-09T21:08:00.030Z</time>
      </trkpt>
      <trkpt lat="44.07564" lon="3.36872">
        <ele>553.522659</ele>
        <time>2020-03-09T21:08:03.779Z</time>
      </trkpt>
      <trkpt lat="44.07542" lon="3.36803">
        <ele>551.448076</ele>
        <time>2020-03-09T21:08:09.290Z</time>
      </trkpt>
      <trkpt lat="44.07541" lon="3.36768">
        <ele>550.809252</ele>
        <time>2020-03-09T21:08:11.849Z</time>
      </trkpt>
      <trkpt lat="44.07547" lon="3.36658">
        <ele>549.515129</ele>
        <time>2020-03-09T21:08:20.534Z</time>
      </trkpt>
      <trkpt lat="44.07559" lon="3.3658">
        <ele>548.578367</ele>
        <time>2020-03-09T21:08:27.483Z</time>
      </trkpt>
      <trkpt lat="44.07548" lon="3.36455">
        <ele>547.832669</ele>
        <time>2020-03-09T21:08:39.522Z</time>
      </trkpt>
      <trkpt lat="44.07586" lon="3.36252">
        <ele>547.060156</ele>
        <time>2020-03-09T21:09:00.584Z</time>
      </trkpt>
      <trkpt lat="44.07611" lon="3.36181">
        <ele>546.575055</ele>
        <time>2020-03-09T21:09:07.788Z</time>
      </trkpt>
      <trkpt lat="44.0764" lon="3.36054">
        <ele>545.750719</ele>
        <time>2020-03-09T21:09:19.404Z</time>
      </trkpt>
      <trkpt lat="44.07636" lon="3.3592">
        <ele>544.573719</ele>
        <time>2020-03-09T21:09:30.727Z</time>
      </trkpt>
      <trkpt lat="44.07637" lon="3.35769">
        <ele>544.11075</ele>
        <time>2020-03-09T21:09:43.361Z</time>
      </trkpt>
      <trkpt lat="44.07658" lon="3.357">
        <ele>545.024243</ele>
        <time>2020-03-09T21:09:51.887Z</time>
      </trkpt>
      <trkpt lat="44.07692" lon="3.3563">
        <ele>546.046557</ele>
        <time>2020-03-09T21:10:07.607Z</time>
      </trkpt>
      <trkpt lat="44.07706" lon="3.35587">
        <ele>546.606945</ele>
        <time>2020-03-09T21:10:17.867Z</time>
      </trkpt>
      <trkpt lat="44.07699" lon="3.35572">
        <ele>547.440179</ele>
        <time>2020-03-09T21:10:21.769Z</time>
      </trkpt>
      <trkpt lat="44.07684" lon="3.35547">
        <ele>549.184286</ele>
        <time>2020-03-09T21:10:30.700Z</time>
      </trkpt>
      <trkpt lat="44.07679" lon="3.35537">
        <ele>549.818909</ele>
        <time>2020-03-09T21:10:34.058Z</time>
      </trkpt>
      <trkpt lat="44.0768" lon="3.35524">
        <ele>550.513244</ele>
        <time>2020-03-09T21:10:37.454Z</time>
      </trkpt>
      <trkpt lat="44.07705" lon="3.35494">
        <ele>552.903261</ele>
        <time>2020-03-09T21:10:50.944Z</time>
      </trkpt>
      <trkpt lat="44.07719" lon="3.35462">
        <ele>554.889178</ele>
        <time>2020-03-09T21:11:03.810Z</time>
      </trkpt>
      <trkpt lat="44.07718" lon="3.35336">
        <ele>561.624309</ele>
        <time>2020-03-09T21:11:52.429Z</time>
      </trkpt>
      <trkpt lat="44.07712" lon="3.35281">
        <ele>564.637315</ele>
        <time>2020-03-09T21:12:12.898Z</time>
      </trkpt>
      <trkpt lat="44.07681" lon="3.3521">
        <ele>569.182066</ele>
        <time>2020-03-09T21:12:41.286Z</time>
      </trkpt>
      <trkpt lat="44.07663" lon="3.35186">
        <ele>571.004455</ele>
        <time>2020-03-09T21:12:51.397Z</time>
      </trkpt>
      <trkpt lat="44.07622" lon="3.35127">
        <ele>573.857323</ele>
        <time>2020-03-09T21:13:11.982Z</time>
      </trkpt>
      <trkpt lat="44.07617" lon="3.35119">
        <ele>573.969774</ele>
        <time>2020-03-09T21:13:14.776Z</time>
      </trkpt>
      <trkpt lat="44.07617" lon="3.35119">
        <ele>573.969774</ele>
        <time>2020-03-09T21:13:14.780Z</time>
      </trkpt>
      <trkpt lat="44.07591" lon="3.3508">
        <ele>574.493723</ele>
        <time>2020-03-09T21:13:24.601Z</time>
      </trkpt>
      <trkpt lat="44.07572" lon="3.35035">
        <ele>575.012368</ele>
        <time>2020-03-09T21:13:31.982Z</time>
      </trkpt>
      <trkpt lat="44.07558" lon="3.34976">
        <ele>575.631668</ele>
        <time>2020-03-09T21:13:38.105Z</time>
      </trkpt>
      <trkpt lat="44.07552" lon="3.34952">
        <ele>575.885168</ele>
        <time>2020-03-09T21:13:40.029Z</time>
      </trkpt>
      <trkpt lat="44.07548" lon="3.34938">
        <ele>575.927367</ele>
        <time>2020-03-09T21:13:41.368Z</time>
      </trkpt>
      <trkpt lat="44.07537" lon="3.34897">
        <ele>575.396958</ele>
        <time>2020-03-09T21:13:44.589Z</time>
      </trkpt>
      <trkpt lat="44.07534" lon="3.34856">
        <ele>574.897461</ele>
        <time>2020-03-09T21:13:47.606Z</time>
      </trkpt>
      <trkpt lat="44.0754" lon="3.34778">
        <ele>573.93838</ele>
        <time>2020-03-09T21:13:53.714Z</time>
      </trkpt>
      <trkpt lat="44.07546" lon="3.34756">
        <ele>573.656234</ele>
        <time>2020-03-09T21:13:55.397Z</time>
      </trkpt>
      <trkpt lat="44.07634" lon="3.34592">
        <ele>573.870767</ele>
        <time>2020-03-09T21:14:18.103Z</time>
      </trkpt>
      <trkpt lat="44.07649" lon="3.34523">
        <ele>574.337557</ele>
        <time>2020-03-09T21:14:30.644Z</time>
      </trkpt>
      <trkpt lat="44.07653" lon="3.34477">
        <ele>574.687186</ele>
        <time>2020-03-09T21:14:38.862Z</time>
      </trkpt>
      <trkpt lat="44.07625" lon="3.34302">
        <ele>576.477143</ele>
        <time>2020-03-09T21:15:06.337Z</time>
      </trkpt>
      <trkpt lat="44.0765" lon="3.34136">
        <ele>577.962006</ele>
        <time>2020-03-09T21:15:26.039Z</time>
      </trkpt>
      <trkpt lat="44.07664" lon="3.34075">
        <ele>578.480726</ele>
        <time>2020-03-09T21:15:34.376Z</time>
      </trkpt>
      <trkpt lat="44.07668" lon="3.3402">
        <ele>578.927137</ele>
        <time>2020-03-09T21:15:43.028Z</time>
      </trkpt>
      <trkpt lat="44.07659" lon="3.33994">
        <ele>579.207316</ele>
        <time>2020-03-09T21:15:48.165Z</time>
      </trkpt>
      <trkpt lat="44.07626" lon="3.33957">
        <ele>579.930643</ele>
        <time>2020-03-09T21:15:59.656Z</time>
      </trkpt>
      <trkpt lat="44.07547" lon="3.33928">
        <ele>581.312122</ele>
        <time>2020-03-09T21:16:21.144Z</time>
      </trkpt>
      <trkpt lat="44.07503" lon="3.33852">
        <ele>581.317348</ele>
        <time>2020-03-09T21:16:31.731Z</time>
      </trkpt>
      <trkpt lat="44.07494" lon="3.33819">
        <ele>580.290865</ele>
        <time>2020-03-09T21:16:34.474Z</time>
      </trkpt>
      <trkpt lat="44.07493" lon="3.33743">
        <ele>578.131791</ele>
        <time>2020-03-09T21:16:39.734Z</time>
      </trkpt>
      <trkpt lat="44.07497" lon="3.33711">
        <ele>577.2057</ele>
        <time>2020-03-09T21:16:41.905Z</time>
      </trkpt>
      <trkpt lat="44.07537" lon="3.33592">
        <ele>573.719779</ele>
        <time>2020-03-09T21:16:50.596Z</time>
      </trkpt>
      <trkpt lat="44.07543" lon="3.33556">
        <ele>572.853582</ele>
        <time>2020-03-09T21:16:53.087Z</time>
      </trkpt>
      <trkpt lat="44.07543" lon="3.33522">
        <ele>572.068383</ele>
        <time>2020-03-09T21:16:55.394Z</time>
      </trkpt>
      <trkpt lat="44.07533" lon="3.33501">
        <ele>571.464912</ele>
        <time>2020-03-09T21:16:57.225Z</time>
      </trkpt>
      <trkpt lat="44.07523" lon="3.33493">
        <ele>571.088195</ele>
        <time>2020-03-09T21:16:58.446Z</time>
      </trkpt>
      <trkpt lat="44.07506" lon="3.3349">
        <ele>570.529421</ele>
        <time>2020-03-09T21:17:00.336Z</time>
      </trkpt>
      <trkpt lat="44.07446" lon="3.33506">
        <ele>569.133897</ele>
        <time>2020-03-09T21:17:09.426Z</time>
      </trkpt>
      <trkpt lat="44.07393" lon="3.33497">
        <ele>569.118262</ele>
        <time>2020-03-09T21:17:21.865Z</time>
      </trkpt>
      <trkpt lat="44.07378" lon="3.33486">
        <ele>569.113234</ele>
        <time>2020-03-09T21:17:26.088Z</time>
      </trkpt>
      <trkpt lat="44.07364" lon="3.33461">
        <ele>569.106588</ele>
        <time>2020-03-09T21:17:31.853Z</time>
      </trkpt>
      <trkpt lat="44.07317" lon="3.33365">
        <ele>568.304376</ele>
        <time>2020-03-09T21:17:41.111Z</time>
      </trkpt>
      <trkpt lat="44.07296" lon="3.33343">
        <ele>566.944083</ele>
        <time>2020-03-09T21:17:43.742Z</time>
      </trkpt>
      <trkpt lat="44.07264" lon="3.33338">
        <ele>565.293488</ele>
        <time>2020-03-09T21:17:46.623Z</time>
      </trkpt>
      <trkpt lat="44.07261" lon="3.33332">
        <ele>565.029723</ele>
        <time>2020-03-09T21:17:47.183Z</time>
      </trkpt>
      <trkpt lat="44.07256" lon="3.33297">
        <ele>563.701365</ele>
        <time>2020-03-09T21:17:49.444Z</time>
      </trkpt>
      <trkpt lat="44.0726" lon="3.33286">
        <ele>563.240373</ele>
        <time>2020-03-09T21:17:50.410Z</time>
      </trkpt>
      <trkpt lat="44.07268" lon="3.33278">
        <ele>562.720828</ele>
        <time>2020-03-09T21:17:51.275Z</time>
      </trkpt>
      <trkpt lat="44.07278" lon="3.33268">
        <ele>562.078244</ele>
        <time>2020-03-09T21:17:52.384Z</time>
      </trkpt>
      <trkpt lat="44.07293" lon="3.33226">
        <ele>560.338344</ele>
        <time>2020-03-09T21:17:55.451Z</time>
      </trkpt>
      <trkpt lat="44.073" lon="3.33213">
        <ele>559.812816</ele>
        <time>2020-03-09T21:17:56.685Z</time>
      </trkpt>
      <trkpt lat="44.07309" lon="3.33212">
        <ele>559.981545</ele>
        <time>2020-03-09T21:17:57.640Z</time>
      </trkpt>
      <trkpt lat="44.07311" lon="3.33212">
        <ele>560.014271</ele>
        <time>2020-03-09T21:17:57.787Z</time>
      </trkpt>
      <trkpt lat="44.07323" lon="3.33214">
        <ele>560.227577</ele>
        <time>2020-03-09T21:17:58.851Z</time>
      </trkpt>
      <trkpt lat="44.07344" lon="3.33221">
        <ele>560.610364</ele>
        <time>2020-03-09T21:18:01.420Z</time>
      </trkpt>
      <trkpt lat="44.0735" lon="3.33213">
        <ele>560.765826</ele>
        <time>2020-03-09T21:18:02.167Z</time>
      </trkpt>
      <trkpt lat="44.07382" lon="3.3313">
        <ele>561.996062</ele>
        <time>2020-03-09T21:18:15.448Z</time>
      </trkpt>
      <trkpt lat="44.07392" lon="3.33086">
        <ele>562.586627</ele>
        <time>2020-03-09T21:18:29.823Z</time>
      </trkpt>
      <trkpt lat="44.07383" lon="3.3306">
        <ele>562.965758</ele>
        <time>2020-03-09T21:18:39.364Z</time>
      </trkpt>
      <trkpt lat="44.0735" lon="3.33016">
        <ele>567.403604</ele>
        <time>2020-03-09T21:19:07.473Z</time>
      </trkpt>
      <trkpt lat="44.07323" lon="3.33002">
        <ele>570.412052</ele>
        <time>2020-03-09T21:19:25.603Z</time>
      </trkpt>
      <trkpt lat="44.07305" lon="3.32963">
        <ele>573.909293</ele>
        <time>2020-03-09T21:19:46.548Z</time>
      </trkpt>
      <trkpt lat="44.07259" lon="3.32915">
        <ele>579.927343</ele>
        <time>2020-03-09T21:20:21.196Z</time>
      </trkpt>
      <trkpt lat="44.07242" lon="3.32884">
        <ele>582.29661</ele>
        <time>2020-03-09T21:20:36.029Z</time>
      </trkpt>
      <trkpt lat="44.07232" lon="3.32853">
        <ele>583.317208</ele>
        <time>2020-03-09T21:20:47.678Z</time>
      </trkpt>
      <trkpt lat="44.07232" lon="3.32822">
        <ele>584.283106</ele>
        <time>2020-03-09T21:20:56.783Z</time>
      </trkpt>
      <trkpt lat="44.07226" lon="3.32801">
        <ele>584.946132</ele>
        <time>2020-03-09T21:21:02.688Z</time>
      </trkpt>
      <trkpt lat="44.07205" lon="3.32765">
        <ele>586.350819</ele>
        <time>2020-03-09T21:21:13.066Z</time>
      </trkpt>
      <trkpt lat="44.07232" lon="3.32697">
        <ele>588.722889</ele>
        <time>2020-03-09T21:21:24.753Z</time>
      </trkpt>
      <trkpt lat="44.07231" lon="3.32678">
        <ele>589.309086</ele>
        <time>2020-03-09T21:21:27.146Z</time>
      </trkpt>
      <trkpt lat="44.07217" lon="3.3263">
        <ele>588.802263</ele>
        <time>2020-03-09T21:21:31.941Z</time>
      </trkpt>
      <trkpt lat="44.07177" lon="3.32546">
        <ele>587.272393</ele>
        <time>2020-03-09T21:21:39.812Z</time>
      </trkpt>
      <trkpt lat="44.07167" lon="3.32387">
        <ele>584.482398</ele>
        <time>2020-03-09T21:21:51.376Z</time>
      </trkpt>
      <trkpt lat="44.0717" lon="3.32358">
        <ele>583.854352</ele>
        <time>2020-03-09T21:21:53.465Z</time>
      </trkpt>
      <trkpt lat="44.07202" lon="3.32254">
        <ele>581.429307</ele>
        <time>2020-03-09T21:22:01.765Z</time>
      </trkpt>
      <trkpt lat="44.07201" lon="3.32223">
        <ele>580.758995</ele>
        <time>2020-03-09T21:22:04.084Z</time>
      </trkpt>
      <trkpt lat="44.07194" lon="3.32207">
        <ele>580.364251</ele>
        <time>2020-03-09T21:22:05.633Z</time>
      </trkpt>
      <trkpt lat="44.07188" lon="3.32196">
        <ele>580.240362</ele>
        <time>2020-03-09T21:22:06.555Z</time>
      </trkpt>
      <trkpt lat="44.07148" lon="3.32127">
        <ele>579.621968</ele>
        <time>2020-03-09T21:22:14.158Z</time>
      </trkpt>
      <trkpt lat="44.07121" lon="3.321">
        <ele>579.298135</ele>
        <time>2020-03-09T21:22:18.378Z</time>
      </trkpt>
      <trkpt lat="44.07077" lon="3.32094">
        <ele>578.860494</ele>
        <time>2020-03-09T21:22:24.009Z</time>
      </trkpt>
      <trkpt lat="44.07011" lon="3.32032">
        <ele>578.223515</ele>
        <time>2020-03-09T21:22:37.150Z</time>
      </trkpt>
      <trkpt lat="44.06917" lon="3.31958">
        <ele>577.460583</ele>
        <time>2020-03-09T21:22:51.154Z</time>
      </trkpt>
      <trkpt lat="44.06906" lon="3.31941">
        <ele>577.346184</ele>
        <time>2020-03-09T21:22:53.007Z</time>
      </trkpt>
      <trkpt lat="44.0684" lon="3.31782">
        <ele>573.864347</ele>
        <time>2020-03-09T21:23:06.946Z</time>
      </trkpt>
      <trkpt lat="44.06771" lon="3.31694">
        <ele>571.323042</ele>
        <time>2020-03-09T21:23:16.251Z</time>
      </trkpt>
      <trkpt lat="44.06749" lon="3.31676">
        <ele>570.652454</ele>
        <time>2020-03-09T21:23:18.716Z</time>
      </trkpt>
      <trkpt lat="44.06696" lon="3.31645">
        <ele>569.09943</ele>
        <time>2020-03-09T21:23:24.526Z</time>
      </trkpt>
      <trkpt lat="44.06674" lon="3.31617">
        <ele>568.297044</ele>
        <time>2020-03-09T21:23:27.698Z</time>
      </trkpt>
      <trkpt lat="44.06661" lon="3.31612">
        <ele>567.946176</ele>
        <time>2020-03-09T21:23:29.135Z</time>
      </trkpt>
      <trkpt lat="44.06645" lon="3.31617">
        <ele>567.637891</ele>
        <time>2020-03-09T21:23:31.189Z</time>
      </trkpt>
      <trkpt lat="44.06601" lon="3.31684">
        <ele>569.621411</ele>
        <time>2020-03-09T21:23:43.668Z</time>
      </trkpt>
      <trkpt lat="44.06555" lon="3.31729">
        <ele>571.30363</ele>
        <time>2020-03-09T21:23:59.684Z</time>
      </trkpt>
      <trkpt lat="44.06551" lon="3.31739">
        <ele>571.554761</ele>
        <time>2020-03-09T21:24:02.398Z</time>
      </trkpt>
      <trkpt lat="44.06573" lon="3.31853">
        <ele>574.66462</ele>
        <time>2020-03-09T21:24:36.594Z</time>
      </trkpt>
      <trkpt lat="44.06566" lon="3.3189">
        <ele>575.907372</ele>
        <time>2020-03-09T21:24:47.278Z</time>
      </trkpt>
      <trkpt lat="44.06558" lon="3.31905">
        <ele>576.530967</ele>
        <time>2020-03-09T21:24:52.213Z</time>
      </trkpt>
      <trkpt lat="44.06542" lon="3.31919">
        <ele>577.386885</ele>
        <time>2020-03-09T21:24:59.322Z</time>
      </trkpt>
      <trkpt lat="44.06516" lon="3.31928">
        <ele>578.587416</ele>
        <time>2020-03-09T21:25:08.264Z</time>
      </trkpt>
      <trkpt lat="44.06503" lon="3.31927">
        <ele>579.198362</ele>
        <time>2020-03-09T21:25:12.003Z</time>
      </trkpt>
      <trkpt lat="44.06489" lon="3.31921">
        <ele>579.88401</ele>
        <time>2020-03-09T21:25:16.361Z</time>
      </trkpt>
      <trkpt lat="44.06462" lon="3.31883">
        <ele>581.164498</ele>
        <time>2020-03-09T21:25:25.683Z</time>
      </trkpt>
      <trkpt lat="44.06456" lon="3.31867">
        <ele>581.133412</ele>
        <time>2020-03-09T21:25:28.895Z</time>
      </trkpt>
      <trkpt lat="44.0645" lon="3.31854">
        <ele>581.106577</ele>
        <time>2020-03-09T21:25:30.109Z</time>
      </trkpt>
      <trkpt lat="44.06446" lon="3.31837">
        <ele>581.075484</ele>
        <time>2020-03-09T21:25:33.226Z</time>
      </trkpt>
      <trkpt lat="44.06446" lon="3.31786">
        <ele>580.986625</ele>
        <time>2020-03-09T21:25:38.861Z</time>
      </trkpt>
      <trkpt lat="44.0644" lon="3.3177">
        <ele>580.956037</ele>
        <time>2020-03-09T21:25:40.955Z</time>
      </trkpt>
      <trkpt lat="44.06393" lon="3.31706">
        <ele>580.796456</ele>
        <time>2020-03-09T21:25:48.460Z</time>
      </trkpt>
      <trkpt lat="44.06342" lon="3.31658">
        <ele>579.75771</ele>
        <time>2020-03-09T21:25:54.998Z</time>
      </trkpt>
      <trkpt lat="44.06333" lon="3.31637">
        <ele>579.354068</ele>
        <time>2020-03-09T21:25:56.974Z</time>
      </trkpt>
      <trkpt lat="44.06325" lon="3.31592">
        <ele>578.575879</ele>
        <time>2020-03-09T21:26:00.620Z</time>
      </trkpt>
      <trkpt lat="44.06318" lon="3.31579">
        <ele>578.305666</ele>
        <time>2020-03-09T21:26:01.859Z</time>
      </trkpt>
      <trkpt lat="44.06263" lon="3.31543">
        <ele>576.908536</ele>
        <time>2020-03-09T21:26:08.255Z</time>
      </trkpt>
      <trkpt lat="44.06232" lon="3.31506">
        <ele>576.240076</ele>
        <time>2020-03-09T21:26:12.515Z</time>
      </trkpt>
      <trkpt lat="44.06215" lon="3.31427">
        <ele>575.493775</ele>
        <time>2020-03-09T21:26:18.794Z</time>
      </trkpt>
      <trkpt lat="44.06209" lon="3.31417">
        <ele>575.371622</ele>
        <time>2020-03-09T21:26:19.863Z</time>
      </trkpt>
      <trkpt lat="44.06133" lon="3.31395">
        <ele>574.381031</ele>
        <time>2020-03-09T21:26:30.079Z</time>
      </trkpt>
      <trkpt lat="44.06049" lon="3.31333">
        <ele>575.766311</ele>
        <time>2020-03-09T21:26:51.173Z</time>
      </trkpt>
      <trkpt lat="44.05976" lon="3.31302">
        <ele>577.005983</ele>
        <time>2020-03-09T21:27:10.122Z</time>
      </trkpt>
      <trkpt lat="44.05916" lon="3.3126">
        <ele>576.226791</ele>
        <time>2020-03-09T21:27:22.898Z</time>
      </trkpt>
      <trkpt lat="44.05898" lon="3.31242">
        <ele>575.78697</ele>
        <time>2020-03-09T21:27:25.756Z</time>
      </trkpt>
      <trkpt lat="44.05886" lon="3.31218">
        <ele>575.387235</ele>
        <time>2020-03-09T21:27:28.147Z</time>
      </trkpt>
      <trkpt lat="44.05872" lon="3.31174">
        <ele>574.71729</ele>
        <time>2020-03-09T21:27:31.554Z</time>
      </trkpt>
      <trkpt lat="44.05871" lon="3.31158">
        <ele>574.488379</ele>
        <time>2020-03-09T21:27:32.715Z</time>
      </trkpt>
      <trkpt lat="44.05878" lon="3.31126">
        <ele>574.025177</ele>
        <time>2020-03-09T21:27:34.961Z</time>
      </trkpt>
      <trkpt lat="44.05874" lon="3.31089">
        <ele>572.901364</ele>
        <time>2020-03-09T21:27:37.482Z</time>
      </trkpt>
      <trkpt lat="44.05827" lon="3.31042">
        <ele>569.240889</ele>
        <time>2020-03-09T21:27:42.933Z</time>
      </trkpt>
      <trkpt lat="44.05813" lon="3.31041">
        <ele>568.314133</ele>
        <time>2020-03-09T21:27:44.203Z</time>
      </trkpt>
      <trkpt lat="44.05812" lon="3.31041">
        <ele>568.249271</ele>
        <time>2020-03-09T21:27:45.044Z</time>
      </trkpt>
      <trkpt lat="44.05793" lon="3.31039">
        <ele>567.025957</ele>
        <time>2020-03-09T21:27:46.888Z</time>
      </trkpt>
      <trkpt lat="44.05743" lon="3.30943">
        <ele>560.97266</ele>
        <time>2020-03-09T21:27:54.480Z</time>
      </trkpt>
      <trkpt lat="44.0572" lon="3.30845">
        <ele>552.13105</ele>
        <time>2020-03-09T21:28:00.746Z</time>
      </trkpt>
      <trkpt lat="44.05715" lon="3.30799">
        <ele>548.105457</ele>
        <time>2020-03-09T21:28:03.544Z</time>
      </trkpt>
      <trkpt lat="44.05719" lon="3.3077">
        <ele>545.533377</ele>
        <time>2020-03-09T21:28:05.332Z</time>
      </trkpt>
      <trkpt lat="44.05721" lon="3.30761">
        <ele>544.714334</ele>
        <time>2020-03-09T21:28:05.894Z</time>
      </trkpt>
      <trkpt lat="44.05737" lon="3.30713">
        <ele>540.251323</ele>
        <time>2020-03-09T21:28:09.091Z</time>
      </trkpt>
      <trkpt lat="44.05742" lon="3.30693">
        <ele>538.902995</ele>
        <time>2020-03-09T21:28:10.416Z</time>
      </trkpt>
      <trkpt lat="44.05743" lon="3.30683">
        <ele>538.318529</ele>
        <time>2020-03-09T21:28:10.980Z</time>
      </trkpt>
      <trkpt lat="44.05746" lon="3.30644">
        <ele>535.878212</ele>
        <time>2020-03-09T21:28:13.390Z</time>
      </trkpt>
      <trkpt lat="44.05746" lon="3.3064">
        <ele>535.605362</ele>
        <time>2020-03-09T21:28:13.651Z</time>
      </trkpt>
      <trkpt lat="44.05746" lon="3.3063">
        <ele>535.01619</ele>
        <time>2020-03-09T21:28:14.235Z</time>
      </trkpt>
      <trkpt lat="44.05742" lon="3.30623">
        <ele>534.457226</ele>
        <time>2020-03-09T21:28:14.784Z</time>
      </trkpt>
      <trkpt lat="44.05738" lon="3.30619">
        <ele>533.967955</ele>
        <time>2020-03-09T21:28:15.257Z</time>
      </trkpt>
      <trkpt lat="44.05734" lon="3.30619">
        <ele>533.674308</ele>
        <time>2020-03-09T21:28:15.568Z</time>
      </trkpt>
      <trkpt lat="44.05716" lon="3.30623">
        <ele>532.048328</ele>
        <time>2020-03-09T21:28:17.159Z</time>
      </trkpt>
      <trkpt lat="44.05702" lon="3.30634">
        <ele>530.694049</ele>
        <time>2020-03-09T21:28:18.507Z</time>
      </trkpt>
      <trkpt lat="44.05661" lon="3.3069">
        <ele>525.723579</ele>
        <time>2020-03-09T21:28:23.818Z</time>
      </trkpt>
      <trkpt lat="44.05569" lon="3.30788">
        <ele>526.696769</ele>
        <time>2020-03-09T21:28:54.621Z</time>
      </trkpt>
      <trkpt lat="44.05517" lon="3.30814">
        <ele>527.542629</ele>
        <time>2020-03-09T21:29:07.756Z</time>
      </trkpt>
      <trkpt lat="44.05479" lon="3.30856">
        <ele>526.893582</ele>
        <time>2020-03-09T21:29:18.837Z</time>
      </trkpt>
      <trkpt lat="44.05473" lon="3.30863">
        <ele>526.650156</ele>
        <time>2020-03-09T21:29:22.289Z</time>
      </trkpt>
      <trkpt lat="44.0546" lon="3.30873">
        <ele>526.242684</ele>
        <time>2020-03-09T21:29:23.562Z</time>
      </trkpt>
      <trkpt lat="44.05442" lon="3.30851">
        <ele>525.543365</ele>
        <time>2020-03-09T21:29:29.163Z</time>
      </trkpt>
      <trkpt lat="44.0544" lon="3.30844">
        <ele>525.392193</ele>
        <time>2020-03-09T21:29:29.596Z</time>
      </trkpt>
      <trkpt lat="44.0544" lon="3.30831">
        <ele>525.119327</ele>
        <time>2020-03-09T21:29:30.514Z</time>
      </trkpt>
      <trkpt lat="44.05445" lon="3.30818">
        <ele>524.7939</ele>
        <time>2020-03-09T21:29:31.885Z</time>
      </trkpt>
      <trkpt lat="44.05463" lon="3.30802">
        <ele>524.182895</ele>
        <time>2020-03-09T21:29:33.839Z</time>
      </trkpt>
      <trkpt lat="44.05498" lon="3.30743">
        <ele>522.575354</ele>
        <time>2020-03-09T21:29:39.000Z</time>
      </trkpt>
      <trkpt lat="44.05527" lon="3.30707">
        <ele>519.016905</ele>
        <time>2020-03-09T21:29:42.378Z</time>
      </trkpt>
      <trkpt lat="44.05546" lon="3.3067">
        <ele>515.996429</ele>
        <time>2020-03-09T21:29:45.135Z</time>
      </trkpt>
      <trkpt lat="44.05589" lon="3.30578">
        <ele>508.632744</ele>
        <time>2020-03-09T21:29:51.929Z</time>
      </trkpt>
      <trkpt lat="44.05621" lon="3.30475">
        <ele>502.605321</ele>
        <time>2020-03-09T21:29:59.004Z</time>
      </trkpt>
      <trkpt lat="44.05622" lon="3.30458">
        <ele>501.815382</ele>
        <time>2020-03-09T21:30:00.150Z</time>
      </trkpt>
      <trkpt lat="44.05617" lon="3.3045">
        <ele>501.359731</ele>
        <time>2020-03-09T21:30:00.799Z</time>
      </trkpt>
      <trkpt lat="44.0561" lon="3.30449">
        <ele>500.895548</ele>
        <time>2020-03-09T21:30:01.462Z</time>
      </trkpt>
      <trkpt lat="44.05519" lon="3.30485">
        <ele>494.912177</ele>
        <time>2020-03-09T21:30:10.581Z</time>
      </trkpt>
      <trkpt lat="44.05496" lon="3.30486">
        <ele>493.093789</ele>
        <time>2020-03-09T21:30:12.896Z</time>
      </trkpt>
      <trkpt lat="44.05476" lon="3.30484">
        <ele>491.283684</ele>
        <time>2020-03-09T21:30:14.759Z</time>
      </trkpt>
      <trkpt lat="44.05432" lon="3.30482">
        <ele>487.501705</ele>
        <time>2020-03-09T21:30:18.486Z</time>
      </trkpt>
      <trkpt lat="44.05374" lon="3.30484">
        <ele>482.44752</ele>
        <time>2020-03-09T21:30:23.444Z</time>
      </trkpt>
      <trkpt lat="44.05362" lon="3.30477">
        <ele>481.243596</ele>
        <time>2020-03-09T21:30:24.636Z</time>
      </trkpt>
      <trkpt lat="44.05357" lon="3.30468">
        <ele>480.581452</ele>
        <time>2020-03-09T21:30:25.315Z</time>
      </trkpt>
      <trkpt lat="44.05357" lon="3.30457">
        <ele>479.872196</ele>
        <time>2020-03-09T21:30:26.005Z</time>
      </trkpt>
      <trkpt lat="44.05375" lon="3.3039">
        <ele>476.518792</ele>
        <time>2020-03-09T21:30:30.424Z</time>
      </trkpt>
      <trkpt lat="44.05383" lon="3.30355">
        <ele>474.988432</ele>
        <time>2020-03-09T21:30:32.766Z</time>
      </trkpt>
      <trkpt lat="44.05394" lon="3.3034">
        <ele>474.121057</ele>
        <time>2020-03-09T21:30:34.157Z</time>
      </trkpt>
      <trkpt lat="44.05449" lon="3.30303">
        <ele>470.612445</ele>
        <time>2020-03-09T21:30:39.663Z</time>
      </trkpt>
      <trkpt lat="44.05469" lon="3.30283">
        <ele>469.166492</ele>
        <time>2020-03-09T21:30:42.365Z</time>
      </trkpt>
      <trkpt lat="44.05481" lon="3.3025">
        <ele>468.616849</ele>
        <time>2020-03-09T21:30:46.235Z</time>
      </trkpt>
      <trkpt lat="44.05482" lon="3.30238">
        <ele>468.821538</ele>
        <time>2020-03-09T21:30:49.088Z</time>
      </trkpt>
      <trkpt lat="44.0549" lon="3.30236">
        <ele>469.022791</ele>
        <time>2020-03-09T21:30:50.785Z</time>
      </trkpt>
      <trkpt lat="44.05499" lon="3.30233">
        <ele>469.232397</ele>
        <time>2020-03-09T21:30:52.891Z</time>
      </trkpt>
      <trkpt lat="44.05505" lon="3.30229">
        <ele>469.386087</ele>
        <time>2020-03-09T21:30:56.553Z</time>
      </trkpt>
      <trkpt lat="44.05546" lon="3.30188">
        <ele>470.570576</ele>
        <time>2020-03-09T21:31:12.826Z</time>
      </trkpt>
      <trkpt lat="44.05602" lon="3.30097">
        <ele>472.477129</ele>
        <time>2020-03-09T21:31:36.915Z</time>
      </trkpt>
      <trkpt lat="44.05664" lon="3.30032">
        <ele>470.878883</ele>
        <time>2020-03-09T21:31:47.749Z</time>
      </trkpt>
      <trkpt lat="44.05705" lon="3.30002">
        <ele>469.931048</ele>
        <time>2020-03-09T21:31:52.387Z</time>
      </trkpt>
      <trkpt lat="44.05779" lon="3.29977">
        <ele>467.814453</ele>
        <time>2020-03-09T21:31:59.571Z</time>
      </trkpt>
      <trkpt lat="44.05831" lon="3.29972">
        <ele>465.451692</ele>
        <time>2020-03-09T21:32:04.362Z</time>
      </trkpt>
      <trkpt lat="44.05858" lon="3.29977">
        <ele>464.182362</ele>
        <time>2020-03-09T21:32:06.950Z</time>
      </trkpt>
      <trkpt lat="44.05931" lon="3.30003">
        <ele>460.770602</ele>
        <time>2020-03-09T21:32:14.125Z</time>
      </trkpt>
      <trkpt lat="44.0601" lon="3.30045">
        <ele>459.861796</ele>
        <time>2020-03-09T21:32:23.370Z</time>
      </trkpt>
      <trkpt lat="44.06045" lon="3.30052">
        <ele>459.532994</ele>
        <time>2020-03-09T21:32:28.169Z</time>
      </trkpt>
      <trkpt lat="44.06074" lon="3.30051">
        <ele>459.266292</ele>
        <time>2020-03-09T21:32:32.757Z</time>
      </trkpt>
      <trkpt lat="44.06329" lon="3.30014">
        <ele>462.625026</ele>
        <time>2020-03-09T21:33:26.263Z</time>
      </trkpt>
      <trkpt lat="44.06487" lon="3.29928">
        <ele>467.6911</ele>
        <time>2020-03-09T21:34:08.381Z</time>
      </trkpt>
      <trkpt lat="44.06504" lon="3.29906">
        <ele>468.975607</ele>
        <time>2020-03-09T21:34:15.576Z</time>
      </trkpt>
      <trkpt lat="44.06594" lon="3.29755">
        <ele>477.016537</ele>
        <time>2020-03-09T21:35:13.634Z</time>
      </trkpt>
      <trkpt lat="44.06609" lon="3.2971">
        <ele>479.506733</ele>
        <time>2020-03-09T21:35:31.443Z</time>
      </trkpt>
      <trkpt lat="44.0664" lon="3.29551">
        <ele>487.644142</ele>
        <time>2020-03-09T21:36:25.671Z</time>
      </trkpt>
      <trkpt lat="44.06687" lon="3.2938">
        <ele>489.018655</ele>
        <time>2020-03-09T21:36:59.015Z</time>
      </trkpt>
      <trkpt lat="44.06715" lon="3.29316">
        <ele>489.326389</ele>
        <time>2020-03-09T21:37:04.374Z</time>
      </trkpt>
      <trkpt lat="44.06741" lon="3.29282">
        <ele>486.932725</ele>
        <time>2020-03-09T21:37:07.646Z</time>
      </trkpt>
      <trkpt lat="44.06762" lon="3.29263">
        <ele>485.012157</ele>
        <time>2020-03-09T21:37:09.866Z</time>
      </trkpt>
      <trkpt lat="44.06814" lon="3.29266">
        <ele>481.018218</ele>
        <time>2020-03-09T21:37:14.401Z</time>
      </trkpt>
      <trkpt lat="44.0686" lon="3.29242">
        <ele>477.265289</ele>
        <time>2020-03-09T21:37:18.624Z</time>
      </trkpt>
      <trkpt lat="44.06903" lon="3.2924">
        <ele>474.885523</ele>
        <time>2020-03-09T21:37:22.369Z</time>
      </trkpt>
      <trkpt lat="44.07021" lon="3.29281">
        <ele>471.054723</ele>
        <time>2020-03-09T21:37:34.006Z</time>
      </trkpt>
      <trkpt lat="44.07077" lon="3.29331">
        <ele>472.0451</ele>
        <time>2020-03-09T21:37:52.830Z</time>
      </trkpt>
      <trkpt lat="44.07094" lon="3.29334">
        <ele>473.371264</ele>
        <time>2020-03-09T21:38:02.372Z</time>
      </trkpt>
      <trkpt lat="44.07106" lon="3.29328">
        <ele>474.27993</ele>
        <time>2020-03-09T21:38:05.793Z</time>
      </trkpt>
      <trkpt lat="44.0711" lon="3.29323">
        <ele>474.707659</ele>
        <time>2020-03-09T21:38:08.598Z</time>
      </trkpt>
      <trkpt lat="44.07115" lon="3.29315">
        <ele>475.257973</ele>
        <time>2020-03-09T21:38:16.208Z</time>
      </trkpt>
      <trkpt lat="44.07128" lon="3.29274">
        <ele>477.682553</ele>
        <time>2020-03-09T21:38:31.781Z</time>
      </trkpt>
      <trkpt lat="44.0713" lon="3.29231">
        <ele>479.999517</ele>
        <time>2020-03-09T21:38:47.427Z</time>
      </trkpt>
      <trkpt lat="44.07103" lon="3.29063">
        <ele>484.90268</ele>
        <time>2020-03-09T21:39:50.206Z</time>
      </trkpt>
      <trkpt lat="44.07106" lon="3.28979">
        <ele>486.110882</ele>
        <time>2020-03-09T21:39:58.396Z</time>
      </trkpt>
      <trkpt lat="44.07148" lon="3.28889">
        <ele>484.061602</ele>
        <time>2020-03-09T21:40:05.368Z</time>
      </trkpt>
      <trkpt lat="44.07177" lon="3.28847">
        <ele>480.824763</ele>
        <time>2020-03-09T21:40:09.079Z</time>
      </trkpt>
      <trkpt lat="44.07206" lon="3.28817">
        <ele>478.052381</ele>
        <time>2020-03-09T21:40:12.223Z</time>
      </trkpt>
      <trkpt lat="44.07217" lon="3.28808">
        <ele>477.017437</ele>
        <time>2020-03-09T21:40:13.342Z</time>
      </trkpt>
      <trkpt lat="44.07229" lon="3.28796">
        <ele>475.920574</ele>
        <time>2020-03-09T21:40:14.695Z</time>
      </trkpt>
      <trkpt lat="44.07252" lon="3.28768">
        <ele>473.591726</ele>
        <time>2020-03-09T21:40:17.346Z</time>
      </trkpt>
      <trkpt lat="44.0729" lon="3.28712">
        <ele>470.495898</ele>
        <time>2020-03-09T21:40:22.396Z</time>
      </trkpt>
      <trkpt lat="44.07307" lon="3.28688">
        <ele>469.237837</ele>
        <time>2020-03-09T21:40:24.634Z</time>
      </trkpt>
      <trkpt lat="44.07371" lon="3.28565">
        <ele>463.615874</ele>
        <time>2020-03-09T21:40:35.253Z</time>
      </trkpt>
      <trkpt lat="44.07384" lon="3.28539">
        <ele>463.10093</ele>
        <time>2020-03-09T21:40:37.486Z</time>
      </trkpt>
      <trkpt lat="44.0739" lon="3.28531">
        <ele>462.907368</ele>
        <time>2020-03-09T21:40:38.280Z</time>
      </trkpt>
      <trkpt lat="44.07402" lon="3.28518">
        <ele>462.548866</ele>
        <time>2020-03-09T21:40:39.924Z</time>
      </trkpt>
      <trkpt lat="44.07409" lon="3.28513">
        <ele>462.365242</ele>
        <time>2020-03-09T21:40:40.764Z</time>
      </trkpt>
      <trkpt lat="44.0742" lon="3.28508">
        <ele>462.107375</ele>
        <time>2020-03-09T21:40:41.815Z</time>
      </trkpt>
      <trkpt lat="44.07441" lon="3.28505">
        <ele>461.624494</ele>
        <time>2020-03-09T21:40:44.097Z</time>
      </trkpt>
      <trkpt lat="44.07488" lon="3.2852">
        <ele>460.52259</ele>
        <time>2020-03-09T21:40:49.048Z</time>
      </trkpt>
      <trkpt lat="44.07505" lon="3.28517">
        <ele>460.115997</ele>
        <time>2020-03-09T21:40:51.153Z</time>
      </trkpt>
      <trkpt lat="44.07594" lon="3.28443">
        <ele>460.950038</ele>
        <time>2020-03-09T21:41:09.389Z</time>
      </trkpt>
      <trkpt lat="44.07631" lon="3.28401">
        <ele>461.825511</ele>
        <time>2020-03-09T21:41:22.288Z</time>
      </trkpt>
      <trkpt lat="44.07662" lon="3.28343">
        <ele>462.764577</ele>
        <time>2020-03-09T21:41:37.754Z</time>
      </trkpt>
      <trkpt lat="44.07713" lon="3.28143">
        <ele>464.390416</ele>
        <time>2020-03-09T21:42:12.231Z</time>
      </trkpt>
      <trkpt lat="44.07749" lon="3.28083">
        <ele>463.599263</ele>
        <time>2020-03-09T21:42:18.124Z</time>
      </trkpt>
      <trkpt lat="44.07792" lon="3.28035">
        <ele>461.31507</ele>
        <time>2020-03-09T21:42:23.444Z</time>
      </trkpt>
      <trkpt lat="44.07817" lon="3.28021">
        <ele>460.204364</ele>
        <time>2020-03-09T21:42:25.944Z</time>
      </trkpt>
      <trkpt lat="44.07862" lon="3.28015">
        <ele>458.332007</ele>
        <time>2020-03-09T21:42:30.104Z</time>
      </trkpt>
      <trkpt lat="44.07953" lon="3.27981">
        <ele>455.525289</ele>
        <time>2020-03-09T21:42:39.155Z</time>
      </trkpt>
      <trkpt lat="44.08055" lon="3.27919">
        <ele>452.731288</ele>
        <time>2020-03-09T21:42:52.208Z</time>
      </trkpt>
      <trkpt lat="44.08072" lon="3.27904">
        <ele>452.64588</ele>
        <time>2020-03-09T21:42:55.303Z</time>
      </trkpt>
      <trkpt lat="44.08086" lon="3.27891">
        <ele>452.57309</ele>
        <time>2020-03-09T21:42:57.607Z</time>
      </trkpt>
      <trkpt lat="44.08151" lon="3.27815">
        <ele>452.200332</ele>
        <time>2020-03-09T21:43:11.143Z</time>
      </trkpt>
      <trkpt lat="44.08167" lon="3.27788">
        <ele>452.088972</ele>
        <time>2020-03-09T21:43:14.740Z</time>
      </trkpt>
      <trkpt lat="44.08198" lon="3.27688">
        <ele>450.975593</ele>
        <time>2020-03-09T21:43:23.930Z</time>
      </trkpt>
      <trkpt lat="44.0823" lon="3.27609">
        <ele>449.593143</ele>
        <time>2020-03-09T21:43:30.794Z</time>
      </trkpt>
      <trkpt lat="44.08245" lon="3.27582">
        <ele>449.060494</ele>
        <time>2020-03-09T21:43:33.390Z</time>
      </trkpt>
      <trkpt lat="44.08311" lon="3.27522">
        <ele>447.323088</ele>
        <time>2020-03-09T21:43:41.618Z</time>
      </trkpt>
      <trkpt lat="44.08347" lon="3.27501">
        <ele>446.409219</ele>
        <time>2020-03-09T21:43:45.803Z</time>
      </trkpt>
      <trkpt lat="44.08414" lon="3.27474">
        <ele>444.814415</ele>
        <time>2020-03-09T21:43:53.174Z</time>
      </trkpt>
      <trkpt lat="44.08454" lon="3.27472">
        <ele>443.961881</ele>
        <time>2020-03-09T21:43:57.628Z</time>
      </trkpt>
      <trkpt lat="44.08486" lon="3.27477">
        <ele>443.990433</ele>
        <time>2020-03-09T21:44:01.339Z</time>
      </trkpt>
      <trkpt lat="44.08524" lon="3.27497">
        <ele>444.026748</ele>
        <time>2020-03-09T21:44:06.304Z</time>
      </trkpt>
      <trkpt lat="44.08568" lon="3.27531">
        <ele>444.071416</ele>
        <time>2020-03-09T21:44:12.859Z</time>
      </trkpt>
      <trkpt lat="44.08666" lon="3.27651">
        <ele>447.831844</ele>
        <time>2020-03-09T21:44:46.417Z</time>
      </trkpt>
      <trkpt lat="44.08679" lon="3.27656">
        <ele>448.501283</ele>
        <time>2020-03-09T21:44:50.701Z</time>
      </trkpt>
      <trkpt lat="44.08691" lon="3.27652">
        <ele>449.132231</ele>
        <time>2020-03-09T21:44:56.333Z</time>
      </trkpt>
      <trkpt lat="44.08709" lon="3.27625">
        <ele>450.41676</ele>
        <time>2020-03-09T21:45:06.741Z</time>
      </trkpt>
      <trkpt lat="44.08724" lon="3.27588">
        <ele>451.911121</ele>
        <time>2020-03-09T21:45:20.011Z</time>
      </trkpt>
      <trkpt lat="44.08733" lon="3.27557">
        <ele>453.073303</ele>
        <time>2020-03-09T21:45:31.088Z</time>
      </trkpt>
      <trkpt lat="44.08752" lon="3.27476">
        <ele>456.124802</ele>
        <time>2020-03-09T21:45:56.858Z</time>
      </trkpt>
      <trkpt lat="44.08755" lon="3.27394">
        <ele>459.05721</ele>
        <time>2020-03-09T21:46:21.330Z</time>
      </trkpt>
      <trkpt lat="44.08724" lon="3.27074">
        <ele>463.152363</ele>
        <time>2020-03-09T21:47:06.493Z</time>
      </trkpt>
      <trkpt lat="44.08749" lon="3.26893">
        <ele>460.383885</ele>
        <time>2020-03-09T21:47:20.559Z</time>
      </trkpt>
      <trkpt lat="44.08805" lon="3.26753">
        <ele>457.361272</ele>
        <time>2020-03-09T21:47:32.422Z</time>
      </trkpt>
      <trkpt lat="44.08865" lon="3.26643">
        <ele>454.417496</ele>
        <time>2020-03-09T21:47:42.692Z</time>
      </trkpt>
      <trkpt lat="44.08927" lon="3.26568">
        <ele>451.139947</ele>
        <time>2020-03-09T21:47:50.911Z</time>
      </trkpt>
      <trkpt lat="44.09048" lon="3.26444">
        <ele>444.903094</ele>
        <time>2020-03-09T21:48:05.205Z</time>
      </trkpt>
      <trkpt lat="44.09061" lon="3.26431">
        <ele>444.282048</ele>
        <time>2020-03-09T21:48:06.722Z</time>
      </trkpt>
      <trkpt lat="44.0907" lon="3.26421">
        <ele>443.87276</ele>
        <time>2020-03-09T21:48:07.832Z</time>
      </trkpt>
      <trkpt lat="44.09105" lon="3.2637">
        <ele>441.960561</ele>
        <time>2020-03-09T21:48:12.846Z</time>
      </trkpt>
      <trkpt lat="44.09111" lon="3.2636">
        <ele>441.596214</ele>
        <time>2020-03-09T21:48:13.750Z</time>
      </trkpt>
      <trkpt lat="44.09117" lon="3.26353">
        <ele>441.305329</ele>
        <time>2020-03-09T21:48:14.559Z</time>
      </trkpt>
      <trkpt lat="44.09158" lon="3.2632">
        <ele>439.517685</ele>
        <time>2020-03-09T21:48:19.443Z</time>
      </trkpt>
      <trkpt lat="44.09186" lon="3.26273">
        <ele>438.664978</ele>
        <time>2020-03-09T21:48:24.102Z</time>
      </trkpt>
      <trkpt lat="44.0931" lon="3.26145">
        <ele>435.942947</ele>
        <time>2020-03-09T21:48:41.791Z</time>
      </trkpt>
      <trkpt lat="44.09344" lon="3.26135">
        <ele>435.621844</ele>
        <time>2020-03-09T21:48:45.793Z</time>
      </trkpt>
      <trkpt lat="44.09375" lon="3.26147">
        <ele>435.320381</ele>
        <time>2020-03-09T21:48:49.651Z</time>
      </trkpt>
      <trkpt lat="44.09393" lon="3.26162">
        <ele>435.123636</ele>
        <time>2020-03-09T21:48:52.266Z</time>
      </trkpt>
      <trkpt lat="44.09437" lon="3.26211">
        <ele>434.603091</ele>
        <time>2020-03-09T21:48:59.513Z</time>
      </trkpt>
      <trkpt lat="44.0947" lon="3.26318">
        <ele>434.292876</ele>
        <time>2020-03-09T21:49:11.216Z</time>
      </trkpt>
      <trkpt lat="44.09487" lon="3.26399">
        <ele>434.166364</ele>
        <time>2020-03-09T21:49:20.089Z</time>
      </trkpt>
      <trkpt lat="44.09512" lon="3.26567">
        <ele>433.680334</ele>
        <time>2020-03-09T21:49:37.476Z</time>
      </trkpt>
      <trkpt lat="44.09535" lon="3.2668">
        <ele>433.224829</ele>
        <time>2020-03-09T21:49:48.305Z</time>
      </trkpt>
      <trkpt lat="44.09543" lon="3.2677">
        <ele>432.796938</ele>
        <time>2020-03-09T21:49:56.559Z</time>
      </trkpt>
      <trkpt lat="44.0956" lon="3.26828">
        <ele>432.472041</ele>
        <time>2020-03-09T21:50:02.131Z</time>
      </trkpt>
      <trkpt lat="44.0958" lon="3.26861">
        <ele>432.244741</ele>
        <time>2020-03-09T21:50:05.961Z</time>
      </trkpt>
      <trkpt lat="44.09617" lon="3.26895">
        <ele>431.922007</ele>
        <time>2020-03-09T21:50:11.339Z</time>
      </trkpt>
      <trkpt lat="44.09687" lon="3.26928">
        <ele>432.125975</ele>
        <time>2020-03-09T21:50:21.844Z</time>
      </trkpt>
      <trkpt lat="44.09727" lon="3.26925">
        <ele>432.403469</ele>
        <time>2020-03-09T21:50:28.878Z</time>
      </trkpt>
      <trkpt lat="44.09742" lon="3.26917">
        <ele>432.51316</ele>
        <time>2020-03-09T21:50:31.467Z</time>
      </trkpt>
      <trkpt lat="44.09768" lon="3.26902">
        <ele>432.706723</ele>
        <time>2020-03-09T21:50:37.218Z</time>
      </trkpt>
      <trkpt lat="44.09834" lon="3.2686">
        <ele>433.552242</ele>
        <time>2020-03-09T21:50:52.805Z</time>
      </trkpt>
      <trkpt lat="44.09861" lon="3.26827">
        <ele>434.215487</ele>
        <time>2020-03-09T21:51:01.308Z</time>
      </trkpt>
      <trkpt lat="44.09956" lon="3.26644">
        <ele>436.349468</ele>
        <time>2020-03-09T21:51:37.760Z</time>
      </trkpt>
      <trkpt lat="44.09973" lon="3.26591">
        <ele>436.368679</ele>
        <time>2020-03-09T21:51:44.864Z</time>
      </trkpt>
      <trkpt lat="44.10018" lon="3.26374">
        <ele>434.930128</ele>
        <time>2020-03-09T21:52:04.022Z</time>
      </trkpt>
      <trkpt lat="44.10023" lon="3.26363">
        <ele>434.736387</ele>
        <time>2020-03-09T21:52:05.012Z</time>
      </trkpt>
      <trkpt lat="44.10031" lon="3.26343">
        <ele>434.403339</ele>
        <time>2020-03-09T21:52:06.693Z</time>
      </trkpt>
      <trkpt lat="44.10069" lon="3.2626">
        <ele>432.939523</ele>
        <time>2020-03-09T21:52:14.197Z</time>
      </trkpt>
      <trkpt lat="44.10096" lon="3.26228">
        <ele>432.164348</ele>
        <time>2020-03-09T21:52:17.918Z</time>
      </trkpt>
      <trkpt lat="44.10146" lon="3.26189">
        <ele>430.869898</ele>
        <time>2020-03-09T21:52:24.009Z</time>
      </trkpt>
      <trkpt lat="44.10221" lon="3.26171">
        <ele>429.16813</ele>
        <time>2020-03-09T21:52:32.328Z</time>
      </trkpt>
      <trkpt lat="44.10308" lon="3.26175">
        <ele>427.783203</ele>
        <time>2020-03-09T21:52:42.061Z</time>
      </trkpt>
      <trkpt lat="44.10396" lon="3.26201">
        <ele>426.543137</ele>
        <time>2020-03-09T21:52:52.545Z</time>
      </trkpt>
      <trkpt lat="44.10434" lon="3.26232">
        <ele>426.285613</ele>
        <time>2020-03-09T21:52:57.723Z</time>
      </trkpt>
      <trkpt lat="44.10507" lon="3.26322">
        <ele>426.78709</ele>
        <time>2020-03-09T21:53:12.249Z</time>
      </trkpt>
      <trkpt lat="44.1053" lon="3.26326">
        <ele>426.904052</ele>
        <time>2020-03-09T21:53:16.474Z</time>
      </trkpt>
      <trkpt lat="44.10549" lon="3.26311">
        <ele>427.01855</ele>
        <time>2020-03-09T21:53:22.084Z</time>
      </trkpt>
      <trkpt lat="44.10564" lon="3.2629">
        <ele>427.188464</ele>
        <time>2020-03-09T21:53:26.086Z</time>
      </trkpt>
      <trkpt lat="44.10577" lon="3.2627">
        <ele>427.791298</ele>
        <time>2020-03-09T21:53:32.115Z</time>
      </trkpt>
      <trkpt lat="44.10611" lon="3.26223">
        <ele>429.273398</ele>
        <time>2020-03-09T21:53:44.341Z</time>
      </trkpt>
      <trkpt lat="44.10633" lon="3.2617">
        <ele>430.628846</ele>
        <time>2020-03-09T21:53:56.774Z</time>
      </trkpt>
      <trkpt lat="44.10638" lon="3.2616">
        <ele>430.906996</ele>
        <time>2020-03-09T21:54:00.459Z</time>
      </trkpt>
      <trkpt lat="44.10652" lon="3.2614">
        <ele>431.509381</ele>
        <time>2020-03-09T21:54:05.630Z</time>
      </trkpt>
      <trkpt lat="44.10686" lon="3.26062">
        <ele>433.008604</ele>
        <time>2020-03-09T21:54:24.887Z</time>
      </trkpt>
      <trkpt lat="44.10719" lon="3.26008">
        <ele>433.625408</ele>
        <time>2020-03-09T21:54:37.097Z</time>
      </trkpt>
      <trkpt lat="44.10743" lon="3.25955">
        <ele>434.173263</ele>
        <time>2020-03-09T21:54:46.052Z</time>
      </trkpt>
      <trkpt lat="44.10775" lon="3.25906">
        <ele>434.753719</ele>
        <time>2020-03-09T21:54:52.338Z</time>
      </trkpt>
      <trkpt lat="44.10802" lon="3.25876">
        <ele>434.388684</ele>
        <time>2020-03-09T21:54:56.234Z</time>
      </trkpt>
      <trkpt lat="44.10827" lon="3.25857">
        <ele>433.88781</ele>
        <time>2020-03-09T21:54:59.285Z</time>
      </trkpt>
      <trkpt lat="44.10888" lon="3.25826">
        <ele>432.736942</ele>
        <time>2020-03-09T21:55:06.169Z</time>
      </trkpt>
      <trkpt lat="44.10974" lon="3.25793">
        <ele>431.956696</ele>
        <time>2020-03-09T21:55:16.125Z</time>
      </trkpt>
      <trkpt lat="44.11048" lon="3.25757">
        <ele>432.72691</ele>
        <time>2020-03-09T21:55:29.382Z</time>
      </trkpt>
      <trkpt lat="44.11067" lon="3.25741">
        <ele>432.94627</ele>
        <time>2020-03-09T21:55:34.481Z</time>
      </trkpt>
      <trkpt lat="44.11083" lon="3.25717">
        <ele>433.178691</ele>
        <time>2020-03-09T21:55:40.426Z</time>
      </trkpt>
      <trkpt lat="44.11095" lon="3.25692">
        <ele>433.388347</ele>
        <time>2020-03-09T21:55:46.087Z</time>
      </trkpt>
      <trkpt lat="44.11102" lon="3.2566">
        <ele>434.093901</ele>
        <time>2020-03-09T21:55:53.280Z</time>
      </trkpt>
      <trkpt lat="44.1112" lon="3.25506">
        <ele>437.993411</ele>
        <time>2020-03-09T21:56:27.498Z</time>
      </trkpt>
      <trkpt lat="44.11178" lon="3.25404">
        <ele>440.659096</ele>
        <time>2020-03-09T21:56:51.882Z</time>
      </trkpt>
      <trkpt lat="44.11195" lon="3.25349">
        <ele>441.607668</ele>
        <time>2020-03-09T21:57:05.677Z</time>
      </trkpt>
      <trkpt lat="44.11202" lon="3.25282">
        <ele>442.661757</ele>
        <time>2020-03-09T21:57:19.738Z</time>
      </trkpt>
      <trkpt lat="44.11201" lon="3.2526">
        <ele>443.013758</ele>
        <time>2020-03-09T21:57:23.529Z</time>
      </trkpt>
      <trkpt lat="44.11187" lon="3.25228">
        <ele>443.594089</ele>
        <time>2020-03-09T21:57:26.502Z</time>
      </trkpt>
      <trkpt lat="44.11166" lon="3.25201">
        <ele>442.789852</ele>
        <time>2020-03-09T21:57:29.810Z</time>
      </trkpt>
      <trkpt lat="44.1116" lon="3.25193">
        <ele>442.537194</ele>
        <time>2020-03-09T21:57:30.674Z</time>
      </trkpt>
      <trkpt lat="44.11151" lon="3.25178">
        <ele>442.093545</ele>
        <time>2020-03-09T21:57:32.039Z</time>
      </trkpt>
      <trkpt lat="44.1114" lon="3.25153">
        <ele>441.442661</ele>
        <time>2020-03-09T21:57:34.159Z</time>
      </trkpt>
      <trkpt lat="44.11137" lon="3.25131">
        <ele>440.940543</ele>
        <time>2020-03-09T21:57:35.707Z</time>
      </trkpt>
      <trkpt lat="44.11139" lon="3.25127">
        <ele>440.823717</ele>
        <time>2020-03-09T21:57:36.857Z</time>
      </trkpt>
      <trkpt lat="44.11173" lon="3.25085">
        <ele>439.4219</ele>
        <time>2020-03-09T21:57:41.182Z</time>
      </trkpt>
      <trkpt lat="44.11177" lon="3.25079">
        <ele>439.239762</ele>
        <time>2020-03-09T21:57:41.769Z</time>
      </trkpt>
      <trkpt lat="44.11184" lon="3.2503">
        <ele>438.109114</ele>
        <time>2020-03-09T21:57:45.393Z</time>
      </trkpt>
      <trkpt lat="44.11186" lon="3.2502">
        <ele>437.976284</ele>
        <time>2020-03-09T21:57:46.046Z</time>
      </trkpt>
      <trkpt lat="44.11189" lon="3.25012">
        <ele>437.879299</ele>
        <time>2020-03-09T21:57:46.723Z</time>
      </trkpt>
      <trkpt lat="44.11199" lon="3.24992">
        <ele>437.642014</ele>
        <time>2020-03-09T21:57:48.503Z</time>
      </trkpt>
      <trkpt lat="44.11212" lon="3.2498">
        <ele>437.416566</ele>
        <time>2020-03-09T21:57:49.964Z</time>
      </trkpt>
      <trkpt lat="44.11263" lon="3.24967">
        <ele>436.694817</ele>
        <time>2020-03-09T21:57:55.212Z</time>
      </trkpt>
      <trkpt lat="44.11317" lon="3.24965">
        <ele>435.935371</ele>
        <time>2020-03-09T21:58:03.897Z</time>
      </trkpt>
      <trkpt lat="44.11351" lon="3.24964">
        <ele>435.560348</ele>
        <time>2020-03-09T21:58:12.220Z</time>
      </trkpt>
      <trkpt lat="44.11392" lon="3.24964">
        <ele>435.828497</ele>
        <time>2020-03-09T21:58:22.665Z</time>
      </trkpt>
      <trkpt lat="44.11435" lon="3.24962">
        <ele>436.111825</ele>
        <time>2020-03-09T21:58:32.709Z</time>
      </trkpt>
      <trkpt lat="44.11466" lon="3.24958">
        <ele>436.314815</ele>
        <time>2020-03-09T21:58:38.791Z</time>
      </trkpt>
      <trkpt lat="44.11491" lon="3.24941">
        <ele>436.495414</ele>
        <time>2020-03-09T21:58:43.204Z</time>
      </trkpt>
      <trkpt lat="44.11544" lon="3.24858">
        <ele>435.198389</ele>
        <time>2020-03-09T21:58:51.715Z</time>
      </trkpt>
      <trkpt lat="44.11677" lon="3.24695">
        <ele>430.282791</ele>
        <time>2020-03-09T21:59:09.236Z</time>
      </trkpt>
      <trkpt lat="44.11758" lon="3.24632">
        <ele>428.804527</ele>
        <time>2020-03-09T21:59:20.927Z</time>
      </trkpt>
      <trkpt lat="44.11805" lon="3.24619">
        <ele>428.055646</ele>
        <time>2020-03-09T21:59:27.686Z</time>
      </trkpt>
      <trkpt lat="44.11839" lon="3.24615">
        <ele>427.543658</ele>
        <time>2020-03-09T21:59:31.611Z</time>
      </trkpt>
      <trkpt lat="44.11859" lon="3.24612">
        <ele>427.238169</ele>
        <time>2020-03-09T21:59:33.847Z</time>
      </trkpt>
      <trkpt lat="44.11937" lon="3.24581">
        <ele>426.017355</ele>
        <time>2020-03-09T21:59:43.431Z</time>
      </trkpt>
      <trkpt lat="44.11945" lon="3.24573">
        <ele>425.865121</ele>
        <time>2020-03-09T21:59:44.703Z</time>
      </trkpt>
      <trkpt lat="44.11951" lon="3.24567">
        <ele>425.754069</ele>
        <time>2020-03-09T21:59:45.517Z</time>
      </trkpt>
      <trkpt lat="44.11956" lon="3.24559">
        <ele>425.643008</ele>
        <time>2020-03-09T21:59:46.307Z</time>
      </trkpt>
      <trkpt lat="44.11961" lon="3.24551">
        <ele>425.535941</ele>
        <time>2020-03-09T21:59:47.065Z</time>
      </trkpt>
      <trkpt lat="44.11965" lon="3.24541">
        <ele>425.399273</ele>
        <time>2020-03-09T21:59:48.118Z</time>
      </trkpt>
      <trkpt lat="44.11995" lon="3.2443">
        <ele>423.295546</ele>
        <time>2020-03-09T21:59:56.841Z</time>
      </trkpt>
      <trkpt lat="44.11996" lon="3.24374">
        <ele>422.323342</ele>
        <time>2020-03-09T22:00:00.847Z</time>
      </trkpt>
      <trkpt lat="44.11995" lon="3.24361">
        <ele>422.091107</ele>
        <time>2020-03-09T22:00:01.775Z</time>
      </trkpt>
      <trkpt lat="44.11991" lon="3.24334">
        <ele>421.603283</ele>
        <time>2020-03-09T22:00:04.186Z</time>
      </trkpt>
      <trkpt lat="44.11988" lon="3.24311">
        <ele>421.192298</ele>
        <time>2020-03-09T22:00:06.305Z</time>
      </trkpt>
      <trkpt lat="44.1198" lon="3.24271">
        <ele>420.882371</ele>
        <time>2020-03-09T22:00:09.952Z</time>
      </trkpt>
      <trkpt lat="44.11958" lon="3.24203">
        <ele>420.550916</ele>
        <time>2020-03-09T22:00:16.420Z</time>
      </trkpt>
      <trkpt lat="44.11885" lon="3.24093">
        <ele>419.911488</ele>
        <time>2020-03-09T22:00:31.547Z</time>
      </trkpt>
      <trkpt lat="44.11878" lon="3.24083">
        <ele>419.920678</ele>
        <time>2020-03-09T22:00:32.762Z</time>
      </trkpt>
      <trkpt lat="44.11848" lon="3.24043">
        <ele>419.960893</ele>
        <time>2020-03-09T22:00:39.348Z</time>
      </trkpt>
      <trkpt lat="44.11822" lon="3.23995">
        <ele>420.002581</ele>
        <time>2020-03-09T22:00:46.338Z</time>
      </trkpt>
      <trkpt lat="44.11793" lon="3.23928">
        <ele>420.056471</ele>
        <time>2020-03-09T22:00:54.933Z</time>
      </trkpt>
      <trkpt lat="44.1179" lon="3.23904">
        <ele>420.073757</ele>
        <time>2020-03-09T22:00:58.064Z</time>
      </trkpt>
      <trkpt lat="44.11792" lon="3.23877">
        <ele>420.007853</ele>
        <time>2020-03-09T22:01:01.051Z</time>
      </trkpt>
      <trkpt lat="44.11814" lon="3.23822">
        <ele>419.733939</ele>
        <time>2020-03-09T22:01:07.353Z</time>
      </trkpt>
      <trkpt lat="44.11888" lon="3.2371">
        <ele>419.078405</ele>
        <time>2020-03-09T22:01:20.889Z</time>
      </trkpt>
      <trkpt lat="44.11936" lon="3.23579">
        <ele>418.219413</ele>
        <time>2020-03-09T22:01:34.194Z</time>
      </trkpt>
      <trkpt lat="44.11955" lon="3.23489">
        <ele>417.657613</ele>
        <time>2020-03-09T22:01:42.351Z</time>
      </trkpt>
      <trkpt lat="44.11981" lon="3.23309">
        <ele>417.277719</ele>
        <time>2020-03-09T22:02:00.022Z</time>
      </trkpt>
      <trkpt lat="44.11992" lon="3.23267">
        <ele>417.217509</ele>
        <time>2020-03-09T22:02:04.669Z</time>
      </trkpt>
      <trkpt lat="44.12011" lon="3.23219">
        <ele>417.186176</ele>
        <time>2020-03-09T22:02:10.791Z</time>
      </trkpt>
      <trkpt lat="44.12042" lon="3.23175">
        <ele>417.734891</ele>
        <time>2020-03-09T22:02:18.715Z</time>
      </trkpt>
      <trkpt lat="44.12109" lon="3.23102">
        <ele>418.780334</ele>
        <time>2020-03-09T22:02:36.359Z</time>
      </trkpt>
      <trkpt lat="44.12158" lon="3.23066">
        <ele>419.427748</ele>
        <time>2020-03-09T22:02:48.658Z</time>
      </trkpt>
      <trkpt lat="44.12278" lon="3.23001">
        <ele>420.445577</ele>
        <time>2020-03-09T22:03:14.044Z</time>
      </trkpt>
      <trkpt lat="44.12368" lon="3.22941">
        <ele>419.379765</ele>
        <time>2020-03-09T22:03:27.275Z</time>
      </trkpt>
      <trkpt lat="44.12471" lon="3.22828">
        <ele>416.014446</ele>
        <time>2020-03-09T22:03:40.460Z</time>
      </trkpt>
      <trkpt lat="44.12495" lon="3.2277">
        <ele>414.141511</ele>
        <time>2020-03-09T22:03:45.120Z</time>
      </trkpt>
      <trkpt lat="44.12501" lon="3.22751">
        <ele>413.559192</ele>
        <time>2020-03-09T22:03:46.578Z</time>
      </trkpt>
      <trkpt lat="44.12508" lon="3.22727">
        <ele>412.846565</ele>
        <time>2020-03-09T22:03:48.336Z</time>
      </trkpt>
      <trkpt lat="44.1252" lon="3.22659">
        <ele>410.881679</ele>
        <time>2020-03-09T22:03:53.331Z</time>
      </trkpt>
      <trkpt lat="44.1252" lon="3.22646">
        <ele>410.524085</ele>
        <time>2020-03-09T22:03:54.180Z</time>
      </trkpt>
      <trkpt lat="44.1252" lon="3.22626">
        <ele>409.9674</ele>
        <time>2020-03-09T22:03:55.631Z</time>
      </trkpt>
      <trkpt lat="44.12517" lon="3.22569">
        <ele>408.958472</ele>
        <time>2020-03-09T22:03:59.765Z</time>
      </trkpt>
      <trkpt lat="44.12515" lon="3.22537">
        <ele>408.623462</ele>
        <time>2020-03-09T22:04:01.976Z</time>
      </trkpt>
      <trkpt lat="44.12514" lon="3.22506">
        <ele>408.284176</ele>
        <time>2020-03-09T22:04:04.509Z</time>
      </trkpt>
      <trkpt lat="44.12511" lon="3.22451">
        <ele>407.69997</ele>
        <time>2020-03-09T22:04:08.934Z</time>
      </trkpt>
      <trkpt lat="44.1251" lon="3.22434">
        <ele>407.516645</ele>
        <time>2020-03-09T22:04:10.391Z</time>
      </trkpt>
      <trkpt lat="44.12508" lon="3.22421">
        <ele>407.368749</ele>
        <time>2020-03-09T22:04:11.696Z</time>
      </trkpt>
      <trkpt lat="44.12495" lon="3.22381">
        <ele>406.897778</ele>
        <time>2020-03-09T22:04:16.460Z</time>
      </trkpt>
      <trkpt lat="44.12452" lon="3.22318">
        <ele>408.125377</ele>
        <time>2020-03-09T22:04:28.407Z</time>
      </trkpt>
      <trkpt lat="44.12446" lon="3.22307">
        <ele>408.440104</ele>
        <time>2020-03-09T22:04:30.255Z</time>
      </trkpt>
      <trkpt lat="44.12442" lon="3.22296">
        <ele>408.735597</ele>
        <time>2020-03-09T22:04:32.398Z</time>
      </trkpt>
      <trkpt lat="44.12439" lon="3.22286">
        <ele>408.986387</ele>
        <time>2020-03-09T22:04:35.732Z</time>
      </trkpt>
      <trkpt lat="44.12436" lon="3.22277">
        <ele>409.225272</ele>
        <time>2020-03-09T22:04:38.008Z</time>
      </trkpt>
      <trkpt lat="44.12433" lon="3.22272">
        <ele>409.377201</ele>
        <time>2020-03-09T22:04:39.574Z</time>
      </trkpt>
      <trkpt lat="44.12439" lon="3.22259">
        <ele>409.715397</ele>
        <time>2020-03-09T22:04:41.987Z</time>
      </trkpt>
      <trkpt lat="44.12452" lon="3.22233">
        <ele>410.45296</ele>
        <time>2020-03-09T22:04:50.250Z</time>
      </trkpt>
      <trkpt lat="44.12462" lon="3.22216">
        <ele>410.97883</ele>
        <time>2020-03-09T22:04:54.679Z</time>
      </trkpt>
      <trkpt lat="44.12467" lon="3.22211">
        <ele>411.177583</ele>
        <time>2020-03-09T22:04:57.259Z</time>
      </trkpt>
      <trkpt lat="44.12488" lon="3.22209">
        <ele>411.881547</ele>
        <time>2020-03-09T22:05:04.771Z</time>
      </trkpt>
      <trkpt lat="44.12499" lon="3.22218">
        <ele>412.29231</ele>
        <time>2020-03-09T22:05:08.375Z</time>
      </trkpt>
      <trkpt lat="44.12502" lon="3.22224">
        <ele>412.464878</ele>
        <time>2020-03-09T22:05:10.930Z</time>
      </trkpt>
      <trkpt lat="44.1252" lon="3.22255">
        <ele>413.427779</ele>
        <time>2020-03-09T22:05:19.659Z</time>
      </trkpt>
      <trkpt lat="44.12534" lon="3.22278">
        <ele>414.158853</ele>
        <time>2020-03-09T22:05:28.249Z</time>
      </trkpt>
      <trkpt lat="44.12551" lon="3.22296">
        <ele>414.874233</ele>
        <time>2020-03-09T22:05:34.967Z</time>
      </trkpt>
      <trkpt lat="44.12568" lon="3.22298">
        <ele>415.454935</ele>
        <time>2020-03-09T22:05:40.595Z</time>
      </trkpt>
      <trkpt lat="44.12594" lon="3.22292">
        <ele>416.356861</ele>
        <time>2020-03-09T22:05:48.900Z</time>
      </trkpt>
      <trkpt lat="44.12626" lon="3.22274">
        <ele>417.526237</ele>
        <time>2020-03-09T22:05:56.919Z</time>
      </trkpt>
      <trkpt lat="44.12634" lon="3.22286">
        <ele>417.915812</ele>
        <time>2020-03-09T22:05:58.590Z</time>
      </trkpt>
      <trkpt lat="44.12628" lon="3.22298">
        <ele>418.26653</ele>
        <time>2020-03-09T22:06:00.573Z</time>
      </trkpt>
      <trkpt lat="44.1259" lon="3.22325">
        <ele>418.993527</ele>
        <time>2020-03-09T22:06:09.732Z</time>
      </trkpt>
      <trkpt lat="44.12547" lon="3.22347">
        <ele>419.564044</ele>
        <time>2020-03-09T22:06:16.450Z</time>
      </trkpt>
      <trkpt lat="44.12547" lon="3.22352">
        <ele>419.60934</ele>
        <time>2020-03-09T22:06:16.745Z</time>
      </trkpt>
      <trkpt lat="44.12546" lon="3.22356">
        <ele>419.644703</ele>
        <time>2020-03-09T22:06:18.650Z</time>
      </trkpt>
      <trkpt lat="44.12571" lon="3.22446">
        <ele>420.517833</ele>
        <time>2020-03-09T22:06:30.439Z</time>
      </trkpt>
      <trkpt lat="44.1258" lon="3.22558">
        <ele>425.699632</ele>
        <time>2020-03-09T22:06:54.921Z</time>
      </trkpt>
      <trkpt lat="44.12574" lon="3.22588">
        <ele>427.622538</ele>
        <time>2020-03-09T22:07:07.008Z</time>
      </trkpt>
      <trkpt lat="44.12579" lon="3.22606">
        <ele>428.866979</ele>
        <time>2020-03-09T22:07:13.686Z</time>
      </trkpt>
      <trkpt lat="44.12584" lon="3.22609">
        <ele>429.36158</ele>
        <time>2020-03-09T22:07:16.692Z</time>
      </trkpt>
      <trkpt lat="44.12589" lon="3.22609">
        <ele>429.763023</ele>
        <time>2020-03-09T22:07:20.941Z</time>
      </trkpt>
      <trkpt lat="44.12598" lon="3.22598">
        <ele>430.778142</ele>
        <time>2020-03-09T22:07:26.820Z</time>
      </trkpt>
      <trkpt lat="44.12592" lon="3.22567">
        <ele>432.793005</ele>
        <time>2020-03-09T22:07:40.575Z</time>
      </trkpt>
      <trkpt lat="44.12596" lon="3.22517">
        <ele>435.921822</ele>
        <time>2020-03-09T22:08:03.169Z</time>
      </trkpt>
      <trkpt lat="44.12597" lon="3.22494">
        <ele>438.004917</ele>
        <time>2020-03-09T22:08:13.589Z</time>
      </trkpt>
      <trkpt lat="44.12599" lon="3.22462">
        <ele>441.603523</ele>
        <time>2020-03-09T22:08:31.009Z</time>
      </trkpt>
      <trkpt lat="44.12605" lon="3.22403">
        <ele>448.356543</ele>
        <time>2020-03-09T22:09:02.933Z</time>
      </trkpt>
      <trkpt lat="44.1267" lon="3.22367">
        <ele>459.250538</ele>
        <time>2020-03-09T22:09:59.735Z</time>
      </trkpt>
      <trkpt lat="44.12743" lon="3.22313">
        <ele>472.479813</ele>
        <time>2020-03-09T22:11:10.282Z</time>
      </trkpt>
      <trkpt lat="44.12808" lon="3.22218">
        <ele>488.047891</ele>
        <time>2020-03-09T22:12:27.820Z</time>
      </trkpt>
      <trkpt lat="44.12818" lon="3.22214">
        <ele>489.687739</ele>
        <time>2020-03-09T22:12:35.619Z</time>
      </trkpt>
      <trkpt lat="44.12838" lon="3.22219">
        <ele>493.049191</ele>
        <time>2020-03-09T22:12:51.553Z</time>
      </trkpt>
      <trkpt lat="44.12916" lon="3.22246">
        <ele>501.54218</ele>
        <time>2020-03-09T22:13:48.311Z</time>
      </trkpt>
      <trkpt lat="44.13015" lon="3.22236">
        <ele>511.518144</ele>
        <time>2020-03-09T22:14:34.299Z</time>
      </trkpt>
      <trkpt lat="44.13037" lon="3.22217">
        <ele>512.949406</ele>
        <time>2020-03-09T22:14:42.617Z</time>
      </trkpt>
      <trkpt lat="44.13071" lon="3.22134">
        <ele>515.817294</ele>
        <time>2020-03-09T22:15:01.938Z</time>
      </trkpt>
      <trkpt lat="44.13105" lon="3.22081">
        <ele>517.97623</ele>
        <time>2020-03-09T22:15:16.640Z</time>
      </trkpt>
      <trkpt lat="44.13164" lon="3.2204">
        <ele>521.339881</ele>
        <time>2020-03-09T22:15:36.473Z</time>
      </trkpt>
      <trkpt lat="44.13209" lon="3.21994">
        <ele>525.157438</ele>
        <time>2020-03-09T22:15:57.813Z</time>
      </trkpt>
      <trkpt lat="44.13253" lon="3.21973">
        <ele>528.2826</ele>
        <time>2020-03-09T22:16:18.176Z</time>
      </trkpt>
      <trkpt lat="44.13336" lon="3.21963">
        <ele>534.933242</ele>
        <time>2020-03-09T22:17:00.731Z</time>
      </trkpt>
      <trkpt lat="44.13376" lon="3.21898">
        <ele>541.229609</ele>
        <time>2020-03-09T22:17:31.682Z</time>
      </trkpt>
      <trkpt lat="44.13394" lon="3.21885">
        <ele>543.255523</ele>
        <time>2020-03-09T22:17:42.675Z</time>
      </trkpt>
      <trkpt lat="44.13431" lon="3.21862">
        <ele>547.423978</ele>
        <time>2020-03-09T22:18:08.516Z</time>
      </trkpt>
      <trkpt lat="44.13464" lon="3.21832">
        <ele>551.273402</ele>
        <time>2020-03-09T22:18:33.589Z</time>
      </trkpt>
      <trkpt lat="44.13488" lon="3.21824">
        <ele>553.546612</ele>
        <time>2020-03-09T22:18:48.757Z</time>
      </trkpt>
      <trkpt lat="44.13518" lon="3.21823">
        <ele>556.204263</ele>
        <time>2020-03-09T22:19:07.423Z</time>
      </trkpt>
      <trkpt lat="44.13544" lon="3.21829">
        <ele>558.605183</ele>
        <time>2020-03-09T22:19:21.931Z</time>
      </trkpt>
      <trkpt lat="44.13574" lon="3.21835">
        <ele>561.400429</ele>
        <time>2020-03-09T22:19:36.438Z</time>
      </trkpt>
      <trkpt lat="44.13618" lon="3.21832">
        <ele>565.396106</ele>
        <time>2020-03-09T22:19:53.484Z</time>
      </trkpt>
      <trkpt lat="44.13654" lon="3.21842">
        <ele>567.45637</ele>
        <time>2020-03-09T22:20:07.471Z</time>
      </trkpt>
      <trkpt lat="44.13668" lon="3.21835">
        <ele>568.055802</ele>
        <time>2020-03-09T22:20:14.579Z</time>
      </trkpt>
      <trkpt lat="44.1367" lon="3.21831">
        <ele>568.168982</ele>
        <time>2020-03-09T22:20:15.652Z</time>
      </trkpt>
      <trkpt lat="44.13672" lon="3.21823">
        <ele>568.413811</ele>
        <time>2020-03-09T22:20:17.946Z</time>
      </trkpt>
      <trkpt lat="44.13673" lon="3.21804">
        <ele>568.951809</ele>
        <time>2020-03-09T22:20:22.036Z</time>
      </trkpt>
      <trkpt lat="44.13671" lon="3.21796">
        <ele>569.189615</ele>
        <time>2020-03-09T22:20:24.363Z</time>
      </trkpt>
      <trkpt lat="44.13669" lon="3.21792">
        <ele>569.348989</ele>
        <time>2020-03-09T22:20:25.827Z</time>
      </trkpt>
      <trkpt lat="44.13618" lon="3.2176">
        <ele>571.566949</ele>
        <time>2020-03-09T22:20:42.745Z</time>
      </trkpt>
      <trkpt lat="44.13614" lon="3.21746">
        <ele>572.00247</ele>
        <time>2020-03-09T22:20:47.290Z</time>
      </trkpt>
      <trkpt lat="44.1362" lon="3.21737">
        <ele>572.361237</ele>
        <time>2020-03-09T22:20:51.043Z</time>
      </trkpt>
      <trkpt lat="44.13626" lon="3.21736">
        <ele>572.590995</ele>
        <time>2020-03-09T22:20:51.974Z</time>
      </trkpt>
      <trkpt lat="44.1367" lon="3.21773">
        <ele>575.366093</ele>
        <time>2020-03-09T22:21:06.886Z</time>
      </trkpt>
      <trkpt lat="44.13697" lon="3.21781">
        <ele>577.175504</ele>
        <time>2020-03-09T22:21:15.937Z</time>
      </trkpt>
      <trkpt lat="44.13703" lon="3.21779">
        <ele>577.63368</ele>
        <time>2020-03-09T22:21:19.854Z</time>
      </trkpt>
      <trkpt lat="44.13715" lon="3.21775">
        <ele>578.42488</ele>
        <time>2020-03-09T22:21:26.511Z</time>
      </trkpt>
      <trkpt lat="44.13746" lon="3.2172">
        <ele>581.855227</ele>
        <time>2020-03-09T22:21:51.025Z</time>
      </trkpt>
      <trkpt lat="44.13772" lon="3.21701">
        <ele>583.804345</ele>
        <time>2020-03-09T22:22:07.722Z</time>
      </trkpt>
      <trkpt lat="44.13788" lon="3.21704">
        <ele>584.883387</ele>
        <time>2020-03-09T22:22:16.557Z</time>
      </trkpt>
      <trkpt lat="44.13839" lon="3.21746">
        <ele>590.26644</ele>
        <time>2020-03-09T22:22:53.244Z</time>
      </trkpt>
      <trkpt lat="44.13855" lon="3.21753">
        <ele>591.865213</ele>
        <time>2020-03-09T22:23:02.245Z</time>
      </trkpt>
      <trkpt lat="44.1387" lon="3.21737">
        <ele>593.715612</ele>
        <time>2020-03-09T22:23:13.196Z</time>
      </trkpt>
      <trkpt lat="44.13907" lon="3.21678">
        <ele>599.208948</ele>
        <time>2020-03-09T22:23:46.571Z</time>
      </trkpt>
      <trkpt lat="44.13934" lon="3.2166">
        <ele>602.076539</ele>
        <time>2020-03-09T22:24:04.595Z</time>
      </trkpt>
      <trkpt lat="44.14012" lon="3.21672">
        <ele>610.178901</ele>
        <time>2020-03-09T22:24:52.451Z</time>
      </trkpt>
      <trkpt lat="44.14034" lon="3.21667">
        <ele>612.44935</ele>
        <time>2020-03-09T22:25:05.838Z</time>
      </trkpt>
      <trkpt lat="44.14195" lon="3.21611">
        <ele>629.881878</ele>
        <time>2020-03-09T22:26:49.780Z</time>
      </trkpt>
      <trkpt lat="44.14214" lon="3.21607">
        <ele>632.004661</ele>
        <time>2020-03-09T22:27:02.520Z</time>
      </trkpt>
      <trkpt lat="44.14247" lon="3.21614">
        <ele>635.532989</ele>
        <time>2020-03-09T22:27:23.815Z</time>
      </trkpt>
      <trkpt lat="44.14288" lon="3.21579">
        <ele>640.730263</ele>
        <time>2020-03-09T22:27:55.009Z</time>
      </trkpt>
      <trkpt lat="44.14302" lon="3.21578">
        <ele>641.955231</ele>
        <time>2020-03-09T22:28:03.578Z</time>
      </trkpt>
      <trkpt lat="44.14318" lon="3.21588">
        <ele>643.375457</ele>
        <time>2020-03-09T22:28:14.274Z</time>
      </trkpt>
      <trkpt lat="44.14377" lon="3.21658">
        <ele>649.830774</ele>
        <time>2020-03-09T22:28:59.782Z</time>
      </trkpt>
      <trkpt lat="44.14439" lon="3.21685">
        <ele>655.257263</ele>
        <time>2020-03-09T22:29:31.457Z</time>
      </trkpt>
      <trkpt lat="44.14486" lon="3.21697">
        <ele>656.99073</ele>
        <time>2020-03-09T22:29:49.661Z</time>
      </trkpt>
      <trkpt lat="44.14545" lon="3.21686">
        <ele>658.464681</ele>
        <time>2020-03-09T22:30:07.205Z</time>
      </trkpt>
      <trkpt lat="44.14569" lon="3.21686">
        <ele>659.078059</ele>
        <time>2020-03-09T22:30:13.547Z</time>
      </trkpt>
      <trkpt lat="44.14591" lon="3.21693">
        <ele>659.636957</ele>
        <time>2020-03-09T22:30:18.261Z</time>
      </trkpt>
      <trkpt lat="44.14615" lon="3.21687">
        <ele>660.241986</ele>
        <time>2020-03-09T22:30:24.575Z</time>
      </trkpt>
      <trkpt lat="44.14675" lon="3.21625">
        <ele>661.591154</ele>
        <time>2020-03-09T22:30:41.654Z</time>
      </trkpt>
      <trkpt lat="44.14685" lon="3.21619">
        <ele>661.778802</ele>
        <time>2020-03-09T22:30:43.567Z</time>
      </trkpt>
      <trkpt lat="44.14691" lon="3.21618">
        <ele>661.880365</ele>
        <time>2020-03-09T22:30:46.151Z</time>
      </trkpt>
      <trkpt lat="44.14751" lon="3.21632">
        <ele>662.899487</ele>
        <time>2020-03-09T22:31:01.873Z</time>
      </trkpt>
      <trkpt lat="44.14786" lon="3.21632">
        <ele>663.484198</ele>
        <time>2020-03-09T22:31:12.662Z</time>
      </trkpt>
      <trkpt lat="44.14843" lon="3.21643">
        <ele>666.2287</ele>
        <time>2020-03-09T22:31:32.458Z</time>
      </trkpt>
      <trkpt lat="44.14934" lon="3.2159">
        <ele>671.214974</ele>
        <time>2020-03-09T22:32:15.793Z</time>
      </trkpt>
      <trkpt lat="44.14976" lon="3.21586">
        <ele>673.369675</ele>
        <time>2020-03-09T22:32:34.993Z</time>
      </trkpt>
      <trkpt lat="44.14984" lon="3.21589">
        <ele>673.826341</ele>
        <time>2020-03-09T22:32:38.164Z</time>
      </trkpt>
      <trkpt lat="44.14998" lon="3.21604">
        <ele>674.742533</ele>
        <time>2020-03-09T22:32:44.790Z</time>
      </trkpt>
      <trkpt lat="44.15005" lon="3.21617">
        <ele>675.38321</ele>
        <time>2020-03-09T22:32:51.527Z</time>
      </trkpt>
      <trkpt lat="44.15032" lon="3.2168">
        <ele>678.249765</ele>
        <time>2020-03-09T22:33:13.453Z</time>
      </trkpt>
      <trkpt lat="44.15071" lon="3.21708">
        <ele>680.588393</ele>
        <time>2020-03-09T22:33:31.308Z</time>
      </trkpt>
      <trkpt lat="44.15104" lon="3.2171">
        <ele>682.3694</ele>
        <time>2020-03-09T22:33:45.128Z</time>
      </trkpt>
      <trkpt lat="44.15158" lon="3.21702">
        <ele>684.368573</ele>
        <time>2020-03-09T22:34:05.111Z</time>
      </trkpt>
      <trkpt lat="44.1517" lon="3.2171">
        <ele>684.847193</ele>
        <time>2020-03-09T22:34:09.084Z</time>
      </trkpt>
      <trkpt lat="44.15208" lon="3.21799">
        <ele>687.639581</ele>
        <time>2020-03-09T22:34:33.742Z</time>
      </trkpt>
      <trkpt lat="44.15217" lon="3.21803">
        <ele>687.997401</ele>
        <time>2020-03-09T22:34:37.050Z</time>
      </trkpt>
      <trkpt lat="44.15245" lon="3.21787">
        <ele>689.131201</ele>
        <time>2020-03-09T22:34:46.993Z</time>
      </trkpt>
      <trkpt lat="44.15272" lon="3.21763">
        <ele>690.538589</ele>
        <time>2020-03-09T22:34:58.112Z</time>
      </trkpt>
      <trkpt lat="44.15309" lon="3.21713">
        <ele>692.795016</ele>
        <time>2020-03-09T22:35:17.192Z</time>
      </trkpt>
      <trkpt lat="44.15339" lon="3.21689">
        <ele>694.268168</ele>
        <time>2020-03-09T22:35:30.337Z</time>
      </trkpt>
      <trkpt lat="44.15356" lon="3.21687">
        <ele>695.030732</ele>
        <time>2020-03-09T22:35:37.270Z</time>
      </trkpt>
      <trkpt lat="44.15399" lon="3.2171">
        <ele>697.094966</ele>
        <time>2020-03-09T22:35:55.788Z</time>
      </trkpt>
      <trkpt lat="44.15449" lon="3.21694">
        <ele>700.041859</ele>
        <time>2020-03-09T22:36:16.962Z</time>
      </trkpt>
      <trkpt lat="44.15467" lon="3.21696">
        <ele>701.034571</ele>
        <time>2020-03-09T22:36:24.148Z</time>
      </trkpt>
      <trkpt lat="44.15536" lon="3.2176">
        <ele>705.7513</ele>
        <time>2020-03-09T22:37:00.573Z</time>
      </trkpt>
      <trkpt lat="44.15579" lon="3.21765">
        <ele>708.529158</ele>
        <time>2020-03-09T22:37:20.345Z</time>
      </trkpt>
      <trkpt lat="44.15636" lon="3.21767">
        <ele>712.671855</ele>
        <time>2020-03-09T22:37:46.797Z</time>
      </trkpt>
      <trkpt lat="44.15644" lon="3.21764">
        <ele>713.266608</ele>
        <time>2020-03-09T22:37:51.448Z</time>
      </trkpt>
      <trkpt lat="44.15727" lon="3.21732">
        <ele>719.537882</ele>
        <time>2020-03-09T22:38:35.382Z</time>
      </trkpt>
      <trkpt lat="44.15729" lon="3.21712">
        <ele>720.569568</ele>
        <time>2020-03-09T22:38:42.936Z</time>
      </trkpt>
      <trkpt lat="44.15717" lon="3.21637">
        <ele>724.410495</ele>
        <time>2020-03-09T22:39:12.990Z</time>
      </trkpt>
      <trkpt lat="44.15722" lon="3.21597">
        <ele>726.427479</ele>
        <time>2020-03-09T22:39:27.575Z</time>
      </trkpt>
      <trkpt lat="44.15736" lon="3.21546">
        <ele>729.177479</ele>
        <time>2020-03-09T22:39:46.284Z</time>
      </trkpt>
      <trkpt lat="44.15751" lon="3.21513">
        <ele>731.135306</ele>
        <time>2020-03-09T22:39:58.782Z</time>
      </trkpt>
      <trkpt lat="44.1579" lon="3.21463">
        <ele>734.018505</ele>
        <time>2020-03-09T22:40:20.227Z</time>
      </trkpt>
      <trkpt lat="44.15795" lon="3.21451">
        <ele>734.446597</ele>
        <time>2020-03-09T22:40:23.947Z</time>
      </trkpt>
      <trkpt lat="44.15815" lon="3.21316">
        <ele>738.782209</ele>
        <time>2020-03-09T22:41:01.110Z</time>
      </trkpt>
      <trkpt lat="44.15831" lon="3.21282">
        <ele>740.050358</ele>
        <time>2020-03-09T22:41:11.052Z</time>
      </trkpt>
      <trkpt lat="44.15844" lon="3.21269">
        <ele>740.749911</ele>
        <time>2020-03-09T22:41:15.880Z</time>
      </trkpt>
      <trkpt lat="44.15846" lon="3.21268">
        <ele>740.855244</ele>
        <time>2020-03-09T22:41:16.495Z</time>
      </trkpt>
      <trkpt lat="44.15857" lon="3.21263">
        <ele>741.391485</ele>
        <time>2020-03-09T22:41:21.015Z</time>
      </trkpt>
      <trkpt lat="44.1595" lon="3.2124">
        <ele>745.608236</ele>
        <time>2020-03-09T22:41:56.213Z</time>
      </trkpt>
      <trkpt lat="44.16018" lon="3.21255">
        <ele>748.712071</ele>
        <time>2020-03-09T22:42:24.728Z</time>
      </trkpt>
      <trkpt lat="44.16034" lon="3.21256">
        <ele>749.401608</ele>
        <time>2020-03-09T22:42:31.533Z</time>
      </trkpt>
      <trkpt lat="44.16035" lon="3.21261">
        <ele>749.563497</ele>
        <time>2020-03-09T22:42:33.271Z</time>
      </trkpt>
      <trkpt lat="44.16049" lon="3.21268">
        <ele>750.203265</ele>
        <time>2020-03-09T22:42:37.450Z</time>
      </trkpt>
      <trkpt lat="44.16176" lon="3.21268">
        <ele>755.660423</ele>
        <time>2020-03-09T22:43:19.484Z</time>
      </trkpt>
      <trkpt lat="44.16211" lon="3.21283">
        <ele>756.733461</ele>
        <time>2020-03-09T22:43:28.868Z</time>
      </trkpt>
      <trkpt lat="44.16382" lon="3.21327">
        <ele>759.750422</ele>
        <time>2020-03-09T22:44:07.222Z</time>
      </trkpt>
      <trkpt lat="44.16386" lon="3.21333">
        <ele>759.694214</ele>
        <time>2020-03-09T22:44:08.567Z</time>
      </trkpt>
      <trkpt lat="44.16429" lon="3.21301">
        <ele>759.205761</ele>
        <time>2020-03-09T22:44:15.666Z</time>
      </trkpt>
      <trkpt lat="44.1653" lon="3.21263">
        <ele>758.174469</ele>
        <time>2020-03-09T22:44:27.462Z</time>
      </trkpt>
      <trkpt lat="44.16549" lon="3.21242">
        <ele>757.340576</ele>
        <time>2020-03-09T22:44:29.910Z</time>
      </trkpt>
      <trkpt lat="44.16554" lon="3.21193">
        <ele>755.857496</ele>
        <time>2020-03-09T22:44:33.403Z</time>
      </trkpt>
      <trkpt lat="44.16562" lon="3.21167">
        <ele>755.009991</ele>
        <time>2020-03-09T22:44:35.369Z</time>
      </trkpt>
      <trkpt lat="44.16603" lon="3.21095">
        <ele>752.243336</ele>
        <time>2020-03-09T22:44:41.667Z</time>
      </trkpt>
      <trkpt lat="44.1663" lon="3.21069">
        <ele>750.85623</ele>
        <time>2020-03-09T22:44:44.765Z</time>
      </trkpt>
      <trkpt lat="44.16642" lon="3.21048">
        <ele>749.973482</ele>
        <time>2020-03-09T22:44:46.594Z</time>
      </trkpt>
      <trkpt lat="44.16659" lon="3.20983">
        <ele>747.668931</ele>
        <time>2020-03-09T22:44:51.235Z</time>
      </trkpt>
      <trkpt lat="44.16674" lon="3.2096">
        <ele>746.617643</ele>
        <time>2020-03-09T22:44:53.353Z</time>
      </trkpt>
      <trkpt lat="44.16708" lon="3.20946">
        <ele>744.970197</ele>
        <time>2020-03-09T22:44:56.691Z</time>
      </trkpt>
      <trkpt lat="44.16746" lon="3.20946">
        <ele>743.199419</ele>
        <time>2020-03-09T22:45:00.288Z</time>
      </trkpt>
      <trkpt lat="44.16876" lon="3.21057">
        <ele>738.742095</ele>
        <time>2020-03-09T22:45:15.728Z</time>
      </trkpt>
      <trkpt lat="44.16911" lon="3.21058">
        <ele>737.823817</ele>
        <time>2020-03-09T22:45:19.744Z</time>
      </trkpt>
      <trkpt lat="44.17147" lon="3.20959">
        <ele>736.701025</ele>
        <time>2020-03-09T22:45:54.322Z</time>
      </trkpt>
      <trkpt lat="44.17174" lon="3.20941">
        <ele>736.634635</ele>
        <time>2020-03-09T22:45:58.876Z</time>
      </trkpt>
      <trkpt lat="44.17206" lon="3.20912">
        <ele>736.552162</ele>
        <time>2020-03-09T22:46:04.391Z</time>
      </trkpt>
      <trkpt lat="44.17294" lon="3.20802">
        <ele>735.567754</ele>
        <time>2020-03-09T22:46:20.605Z</time>
      </trkpt>
      <trkpt lat="44.17316" lon="3.20784">
        <ele>735.189172</ele>
        <time>2020-03-09T22:46:23.790Z</time>
      </trkpt>
      <trkpt lat="44.1733" lon="3.2078">
        <ele>734.979678</ele>
        <time>2020-03-09T22:46:25.427Z</time>
      </trkpt>
      <trkpt lat="44.17344" lon="3.20782">
        <ele>734.766323</ele>
        <time>2020-03-09T22:46:27.200Z</time>
      </trkpt>
      <trkpt lat="44.17378" lon="3.20811">
        <ele>734.189969</ele>
        <time>2020-03-09T22:46:31.496Z</time>
      </trkpt>
      <trkpt lat="44.17477" lon="3.20817">
        <ele>730.381765</ele>
        <time>2020-03-09T22:46:41.434Z</time>
      </trkpt>
      <trkpt lat="44.17534" lon="3.2084">
        <ele>727.530081</ele>
        <time>2020-03-09T22:46:47.033Z</time>
      </trkpt>
      <trkpt lat="44.17557" lon="3.20856">
        <ele>726.308915</ele>
        <time>2020-03-09T22:46:49.364Z</time>
      </trkpt>
      <trkpt lat="44.17599" lon="3.20865">
        <ele>723.744102</ele>
        <time>2020-03-09T22:46:53.230Z</time>
      </trkpt>
      <trkpt lat="44.17656" lon="3.20915">
        <ele>718.785638</ele>
        <time>2020-03-09T22:46:59.280Z</time>
      </trkpt>
      <trkpt lat="44.17667" lon="3.20923">
        <ele>717.896828</ele>
        <time>2020-03-09T22:47:00.328Z</time>
      </trkpt>
      <trkpt lat="44.17676" lon="3.20921">
        <ele>717.22779</ele>
        <time>2020-03-09T22:47:01.172Z</time>
      </trkpt>
      <trkpt lat="44.17692" lon="3.20907">
        <ele>715.765217</ele>
        <time>2020-03-09T22:47:02.919Z</time>
      </trkpt>
      <trkpt lat="44.17741" lon="3.20854">
        <ele>711.230952</ele>
        <time>2020-03-09T22:47:08.379Z</time>
      </trkpt>
      <trkpt lat="44.17764" lon="3.20837">
        <ele>709.304611</ele>
        <time>2020-03-09T22:47:10.664Z</time>
      </trkpt>
      <trkpt lat="44.17801" lon="3.20779">
        <ele>705.18713</ele>
        <time>2020-03-09T22:47:15.554Z</time>
      </trkpt>
      <trkpt lat="44.17852" lon="3.20751">
        <ele>701.138174</ele>
        <time>2020-03-09T22:47:20.473Z</time>
      </trkpt>
      <trkpt lat="44.17859" lon="3.20741">
        <ele>700.378957</ele>
        <time>2020-03-09T22:47:21.393Z</time>
      </trkpt>
      <trkpt lat="44.1786" lon="3.20726">
        <ele>699.595641</ele>
        <time>2020-03-09T22:47:22.343Z</time>
      </trkpt>
      <trkpt lat="44.17846" lon="3.207">
        <ele>698.230747</ele>
        <time>2020-03-09T22:47:24.455Z</time>
      </trkpt>
      <trkpt lat="44.17844" lon="3.20681">
        <ele>697.719292</ele>
        <time>2020-03-09T22:47:25.740Z</time>
      </trkpt>
      <trkpt lat="44.17856" lon="3.20646">
        <ele>696.711135</ele>
        <time>2020-03-09T22:47:28.312Z</time>
      </trkpt>
      <trkpt lat="44.17926" lon="3.20556">
        <ele>693.230554</ele>
        <time>2020-03-09T22:47:37.957Z</time>
      </trkpt>
      <trkpt lat="44.17956" lon="3.2053">
        <ele>692.003183</ele>
        <time>2020-03-09T22:47:42.140Z</time>
      </trkpt>
      <trkpt lat="44.17987" lon="3.20514">
        <ele>691.673254</ele>
        <time>2020-03-09T22:47:46.500Z</time>
      </trkpt>
      <trkpt lat="44.18013" lon="3.20483">
        <ele>691.339269</ele>
        <time>2020-03-09T22:47:51.460Z</time>
      </trkpt>
      <trkpt lat="44.18041" lon="3.20524">
        <ele>690.931063</ele>
        <time>2020-03-09T22:47:58.220Z</time>
      </trkpt>
      <trkpt lat="44.18184" lon="3.20599">
        <ele>686.086786</ele>
        <time>2020-03-09T22:48:15.045Z</time>
      </trkpt>
      <trkpt lat="44.1831" lon="3.20617">
        <ele>678.331606</ele>
        <time>2020-03-09T22:48:26.321Z</time>
      </trkpt>
      <trkpt lat="44.18336" lon="3.20632">
        <ele>675.544887</ele>
        <time>2020-03-09T22:48:28.773Z</time>
      </trkpt>
      <trkpt lat="44.18436" lon="3.20742">
        <ele>663.169316</ele>
        <time>2020-03-09T22:48:39.693Z</time>
      </trkpt>
      <trkpt lat="44.18439" lon="3.20763">
        <ele>662.032479</ele>
        <time>2020-03-09T22:48:40.967Z</time>
      </trkpt>
      <trkpt lat="44.18425" lon="3.208">
        <ele>659.803849</ele>
        <time>2020-03-09T22:48:43.625Z</time>
      </trkpt>
      <trkpt lat="44.18427" lon="3.20809">
        <ele>659.279195</ele>
        <time>2020-03-09T22:48:44.202Z</time>
      </trkpt>
      <trkpt lat="44.18431" lon="3.20809">
        <ele>658.932184</ele>
        <time>2020-03-09T22:48:44.615Z</time>
      </trkpt>
      <trkpt lat="44.18439" lon="3.20801">
        <ele>658.18033</ele>
        <time>2020-03-09T22:48:45.532Z</time>
      </trkpt>
      <trkpt lat="44.1845" lon="3.20771">
        <ele>656.335358</ele>
        <time>2020-03-09T22:48:47.676Z</time>
      </trkpt>
      <trkpt lat="44.1845" lon="3.20741">
        <ele>654.744935</ele>
        <time>2020-03-09T22:48:49.665Z</time>
      </trkpt>
      <trkpt lat="44.18435" lon="3.20702">
        <ele>652.335362</ele>
        <time>2020-03-09T22:48:52.570Z</time>
      </trkpt>
      <trkpt lat="44.18421" lon="3.20686">
        <ele>650.976827</ele>
        <time>2020-03-09T22:48:54.168Z</time>
      </trkpt>
      <trkpt lat="44.18364" lon="3.20586">
        <ele>646.838984</ele>
        <time>2020-03-09T22:49:03.136Z</time>
      </trkpt>
      <trkpt lat="44.18349" lon="3.20568">
        <ele>646.011072</ele>
        <time>2020-03-09T22:49:05.179Z</time>
      </trkpt>
      <trkpt lat="44.18329" lon="3.20554">
        <ele>645.108119</ele>
        <time>2020-03-09T22:49:07.375Z</time>
      </trkpt>
      <trkpt lat="44.18239" lon="3.20512">
        <ele>640.947782</ele>
        <time>2020-03-09T22:49:16.724Z</time>
      </trkpt>
      <trkpt lat="44.18195" lon="3.20501">
        <ele>638.777385</ele>
        <time>2020-03-09T22:49:21.089Z</time>
      </trkpt>
      <trkpt lat="44.18135" lon="3.20461">
        <ele>635.507462</ele>
        <time>2020-03-09T22:49:27.363Z</time>
      </trkpt>
      <trkpt lat="44.18118" lon="3.20433">
        <ele>634.24017</ele>
        <time>2020-03-09T22:49:29.730Z</time>
      </trkpt>
      <trkpt lat="44.18104" lon="3.20396">
        <ele>631.984812</ele>
        <time>2020-03-09T22:49:32.478Z</time>
      </trkpt>
      <trkpt lat="44.18083" lon="3.20377">
        <ele>629.975324</ele>
        <time>2020-03-09T22:49:34.701Z</time>
      </trkpt>
      <trkpt lat="44.18082" lon="3.20365">
        <ele>629.25955</ele>
        <time>2020-03-09T22:49:35.491Z</time>
      </trkpt>
      <trkpt lat="44.18093" lon="3.20362">
        <ele>628.371803</ele>
        <time>2020-03-09T22:49:36.465Z</time>
      </trkpt>
      <trkpt lat="44.18137" lon="3.20435">
        <ele>622.822312</ele>
        <time>2020-03-09T22:49:42.522Z</time>
      </trkpt>
      <trkpt lat="44.18153" lon="3.20449">
        <ele>621.285138</ele>
        <time>2020-03-09T22:49:44.180Z</time>
      </trkpt>
      <trkpt lat="44.18181" lon="3.20459">
        <ele>618.950273</ele>
        <time>2020-03-09T22:49:46.622Z</time>
      </trkpt>
      <trkpt lat="44.18215" lon="3.20461">
        <ele>615.85494</ele>
        <time>2020-03-09T22:49:49.566Z</time>
      </trkpt>
      <trkpt lat="44.18249" lon="3.20456">
        <ele>612.796586</ele>
        <time>2020-03-09T22:49:52.489Z</time>
      </trkpt>
      <trkpt lat="44.18304" lon="3.20472">
        <ele>607.727619</ele>
        <time>2020-03-09T22:49:57.375Z</time>
      </trkpt>
      <trkpt lat="44.18361" lon="3.20475">
        <ele>602.51143</ele>
        <time>2020-03-09T22:50:02.418Z</time>
      </trkpt>
      <trkpt lat="44.18404" lon="3.20498">
        <ele>598.262964</ele>
        <time>2020-03-09T22:50:06.459Z</time>
      </trkpt>
      <trkpt lat="44.18432" lon="3.20527">
        <ele>595.042473</ele>
        <time>2020-03-09T22:50:09.517Z</time>
      </trkpt>
      <trkpt lat="44.18503" lon="3.20631">
        <ele>585.306881</ele>
        <time>2020-03-09T22:50:18.384Z</time>
      </trkpt>
      <trkpt lat="44.18541" lon="3.20652">
        <ele>580.4465</ele>
        <time>2020-03-09T22:50:21.884Z</time>
      </trkpt>
      <trkpt lat="44.18547" lon="3.20663">
        <ele>579.284868</ele>
        <time>2020-03-09T22:50:22.723Z</time>
      </trkpt>
      <trkpt lat="44.18549" lon="3.20818">
        <ele>566.203338</ele>
        <time>2020-03-09T22:50:32.102Z</time>
      </trkpt>
      <trkpt lat="44.18516" lon="3.20959">
        <ele>555.828817</ele>
        <time>2020-03-09T22:50:41.152Z</time>
      </trkpt>
      <trkpt lat="44.18499" lon="3.20998">
        <ele>552.686179</ele>
        <time>2020-03-09T22:50:44.025Z</time>
      </trkpt>
      <trkpt lat="44.1848" lon="3.21034">
        <ele>549.607364</ele>
        <time>2020-03-09T22:50:46.923Z</time>
      </trkpt>
      <trkpt lat="44.18468" lon="3.21047">
        <ele>548.142289</ele>
        <time>2020-03-09T22:50:48.346Z</time>
      </trkpt>
      <trkpt lat="44.18388" lon="3.2108">
        <ele>541.650841</ele>
        <time>2020-03-09T22:50:55.846Z</time>
      </trkpt>
      <trkpt lat="44.18344" lon="3.21128">
        <ele>537.364546</ele>
        <time>2020-03-09T22:51:00.810Z</time>
      </trkpt>
      <trkpt lat="44.18342" lon="3.21138">
        <ele>536.793339</ele>
        <time>2020-03-09T22:51:01.502Z</time>
      </trkpt>
      <trkpt lat="44.18344" lon="3.21146">
        <ele>536.332522</ele>
        <time>2020-03-09T22:51:02.204Z</time>
      </trkpt>
      <trkpt lat="44.18349" lon="3.21147">
        <ele>535.999126</ele>
        <time>2020-03-09T22:51:02.559Z</time>
      </trkpt>
      <trkpt lat="44.18364" lon="3.21121">
        <ele>534.146894</ele>
        <time>2020-03-09T22:51:04.735Z</time>
      </trkpt>
      <trkpt lat="44.1839" lon="3.21092">
        <ele>531.226147</ele>
        <time>2020-03-09T22:51:07.645Z</time>
      </trkpt>
      <trkpt lat="44.18501" lon="3.2107">
        <ele>521.466954</ele>
        <time>2020-03-09T22:51:17.277Z</time>
      </trkpt>
      <trkpt lat="44.18515" lon="3.21063">
        <ele>520.157431</ele>
        <time>2020-03-09T22:51:18.608Z</time>
      </trkpt>
      <trkpt lat="44.18532" lon="3.21038">
        <ele>518.224596</ele>
        <time>2020-03-09T22:51:20.794Z</time>
      </trkpt>
      <trkpt lat="44.1856" lon="3.21011">
        <ele>516.56324</ele>
        <time>2020-03-09T22:51:23.993Z</time>
      </trkpt>
      <trkpt lat="44.18584" lon="3.20969">
        <ele>514.727391</ele>
        <time>2020-03-09T22:51:27.631Z</time>
      </trkpt>
      <trkpt lat="44.18597" lon="3.20911">
        <ele>512.639573</ele>
        <time>2020-03-09T22:51:31.983Z</time>
      </trkpt>
      <trkpt lat="44.18633" lon="3.20828">
        <ele>509.359758</ele>
        <time>2020-03-09T22:51:38.796Z</time>
      </trkpt>
      <trkpt lat="44.18645" lon="3.20721">
        <ele>505.975891</ele>
        <time>2020-03-09T22:51:46.569Z</time>
      </trkpt>
      <trkpt lat="44.18663" lon="3.20683">
        <ele>504.533063</ele>
        <time>2020-03-09T22:51:49.750Z</time>
      </trkpt>
      <trkpt lat="44.18685" lon="3.20637">
        <ele>502.821469</ele>
        <time>2020-03-09T22:51:53.434Z</time>
      </trkpt>
      <trkpt lat="44.18688" lon="3.20616">
        <ele>502.145521</ele>
        <time>2020-03-09T22:51:54.866Z</time>
      </trkpt>
      <trkpt lat="44.18685" lon="3.20596">
        <ele>501.145533</ele>
        <time>2020-03-09T22:51:56.226Z</time>
      </trkpt>
      <trkpt lat="44.18661" lon="3.20567">
        <ele>498.702704</ele>
        <time>2020-03-09T22:51:59.144Z</time>
      </trkpt>
      <trkpt lat="44.18629" lon="3.20544">
        <ele>495.940489</ele>
        <time>2020-03-09T22:52:02.406Z</time>
      </trkpt>
      <trkpt lat="44.18611" lon="3.20516">
        <ele>493.857548</ele>
        <time>2020-03-09T22:52:04.742Z</time>
      </trkpt>
      <trkpt lat="44.18591" lon="3.20457">
        <ele>490.246435</ele>
        <time>2020-03-09T22:52:08.861Z</time>
      </trkpt>
      <trkpt lat="44.18587" lon="3.20413">
        <ele>487.660273</ele>
        <time>2020-03-09T22:52:11.641Z</time>
      </trkpt>
      <trkpt lat="44.18581" lon="3.20395">
        <ele>486.13397</ele>
        <time>2020-03-09T22:52:12.975Z</time>
      </trkpt>
      <trkpt lat="44.18566" lon="3.20373">
        <ele>483.896917</ele>
        <time>2020-03-09T22:52:14.801Z</time>
      </trkpt>
      <trkpt lat="44.18566" lon="3.20359">
        <ele>482.861208</ele>
        <time>2020-03-09T22:52:15.702Z</time>
      </trkpt>
      <trkpt lat="44.18571" lon="3.20349">
        <ele>481.915194</ele>
        <time>2020-03-09T22:52:16.527Z</time>
      </trkpt>
      <trkpt lat="44.18578" lon="3.20347">
        <ele>481.236582</ele>
        <time>2020-03-09T22:52:17.056Z</time>
      </trkpt>
      <trkpt lat="44.18588" lon="3.20351">
        <ele>480.097346</ele>
        <time>2020-03-09T22:52:18.010Z</time>
      </trkpt>
      <trkpt lat="44.18634" lon="3.20409">
        <ele>473.709324</ele>
        <time>2020-03-09T22:52:23.273Z</time>
      </trkpt>
      <trkpt lat="44.18674" lon="3.20478">
        <ele>466.901376</ele>
        <time>2020-03-09T22:52:28.776Z</time>
      </trkpt>
      <trkpt lat="44.18716" lon="3.20506">
        <ele>461.742303</ele>
        <time>2020-03-09T22:52:32.672Z</time>
      </trkpt>
      <trkpt lat="44.18767" lon="3.20519">
        <ele>455.977859</ele>
        <time>2020-03-09T22:52:37.107Z</time>
      </trkpt>
      <trkpt lat="44.18806" lon="3.20548">
        <ele>451.133898</ele>
        <time>2020-03-09T22:52:40.795Z</time>
      </trkpt>
      <trkpt lat="44.18829" lon="3.20583">
        <ele>447.676576</ele>
        <time>2020-03-09T22:52:43.802Z</time>
      </trkpt>
      <trkpt lat="44.18839" lon="3.20602">
        <ele>446.162586</ele>
        <time>2020-03-09T22:52:45.280Z</time>
      </trkpt>
      <trkpt lat="44.18848" lon="3.20623">
        <ele>444.603669</ele>
        <time>2020-03-09T22:52:46.796Z</time>
      </trkpt>
      <trkpt lat="44.18853" lon="3.20665">
        <ele>441.897502</ele>
        <time>2020-03-09T22:52:49.470Z</time>
      </trkpt>
      <trkpt lat="44.18854" lon="3.20672">
        <ele>441.413705</ele>
        <time>2020-03-09T22:52:49.916Z</time>
      </trkpt>
      <trkpt lat="44.18854" lon="3.20682">
        <ele>440.793829</ele>
        <time>2020-03-09T22:52:50.520Z</time>
      </trkpt>
      <trkpt lat="44.18847" lon="3.20716">
        <ele>438.496183</ele>
        <time>2020-03-09T22:52:52.773Z</time>
      </trkpt>
      <trkpt lat="44.18846" lon="3.20718">
        <ele>438.359364</ele>
        <time>2020-03-09T22:52:52.901Z</time>
      </trkpt>
      <trkpt lat="44.18843" lon="3.20722">
        <ele>437.972625</ele>
        <time>2020-03-09T22:52:53.268Z</time>
      </trkpt>
      <trkpt lat="44.18836" lon="3.20731">
        <ele>437.126178</ele>
        <time>2020-03-09T22:52:54.083Z</time>
      </trkpt>
      <trkpt lat="44.18833" lon="3.20735">
        <ele>436.764846</ele>
        <time>2020-03-09T22:52:54.428Z</time>
      </trkpt>
      <trkpt lat="44.18821" lon="3.20745">
        <ele>435.518456</ele>
        <time>2020-03-09T22:52:55.689Z</time>
      </trkpt>
      <trkpt lat="44.18808" lon="3.20759">
        <ele>433.999375</ele>
        <time>2020-03-09T22:52:57.151Z</time>
      </trkpt>
      <trkpt lat="44.18799" lon="3.20776">
        <ele>432.771308</ele>
        <time>2020-03-09T22:52:58.471Z</time>
      </trkpt>
      <trkpt lat="44.18797" lon="3.20781">
        <ele>432.450353</ele>
        <time>2020-03-09T22:52:58.905Z</time>
      </trkpt>
      <trkpt lat="44.18796" lon="3.20791">
        <ele>431.965977</ele>
        <time>2020-03-09T22:52:59.478Z</time>
      </trkpt>
      <trkpt lat="44.18799" lon="3.20805">
        <ele>431.179542</ele>
        <time>2020-03-09T22:53:00.500Z</time>
      </trkpt>
      <trkpt lat="44.188" lon="3.20811">
        <ele>430.868182</ele>
        <time>2020-03-09T22:53:00.888Z</time>
      </trkpt>
      <trkpt lat="44.18814" lon="3.20872">
        <ele>427.512112</ele>
        <time>2020-03-09T22:53:05.078Z</time>
      </trkpt>
      <trkpt lat="44.18821" lon="3.20901">
        <ele>425.916958</ele>
        <time>2020-03-09T22:53:07.156Z</time>
      </trkpt>
      <trkpt lat="44.18822" lon="3.20905">
        <ele>425.695774</ele>
        <time>2020-03-09T22:53:07.424Z</time>
      </trkpt>
      <trkpt lat="44.18825" lon="3.20922">
        <ele>424.811447</ele>
        <time>2020-03-09T22:53:08.500Z</time>
      </trkpt>
      <trkpt lat="44.18828" lon="3.20945">
        <ele>423.582838</ele>
        <time>2020-03-09T22:53:10.057Z</time>
      </trkpt>
      <trkpt lat="44.1883" lon="3.20954">
        <ele>423.112213</ele>
        <time>2020-03-09T22:53:10.630Z</time>
      </trkpt>
      <trkpt lat="44.18833" lon="3.2096">
        <ele>422.693398</ele>
        <time>2020-03-09T22:53:11.114Z</time>
      </trkpt>
      <trkpt lat="44.18857" lon="3.20979">
        <ele>420.717909</ele>
        <time>2020-03-09T22:53:13.574Z</time>
      </trkpt>
      <trkpt lat="44.18893" lon="3.21026">
        <ele>417.152397</ele>
        <time>2020-03-09T22:53:17.917Z</time>
      </trkpt>
      <trkpt lat="44.18909" lon="3.21037">
        <ele>415.874939</ele>
        <time>2020-03-09T22:53:19.586Z</time>
      </trkpt>
      <trkpt lat="44.18928" lon="3.21051">
        <ele>414.354535</ele>
        <time>2020-03-09T22:53:21.419Z</time>
      </trkpt>
      <trkpt lat="44.18939" lon="3.2106">
        <ele>413.405561</ele>
        <time>2020-03-09T22:53:22.648Z</time>
      </trkpt>
      <trkpt lat="44.18959" lon="3.21058">
        <ele>412.018748</ele>
        <time>2020-03-09T22:53:24.326Z</time>
      </trkpt>
      <trkpt lat="44.18975" lon="3.21036">
        <ele>410.370251</ele>
        <time>2020-03-09T22:53:26.467Z</time>
      </trkpt>
      <trkpt lat="44.18979" lon="3.21028">
        <ele>409.892293</ele>
        <time>2020-03-09T22:53:27.049Z</time>
      </trkpt>
      <trkpt lat="44.18991" lon="3.20969">
        <ele>407.074596</ele>
        <time>2020-03-09T22:53:31.104Z</time>
      </trkpt>
      <trkpt lat="44.18995" lon="3.20953">
        <ele>406.693162</ele>
        <time>2020-03-09T22:53:32.285Z</time>
      </trkpt>
      <trkpt lat="44.18999" lon="3.20951">
        <ele>406.562523</ele>
        <time>2020-03-09T22:53:32.702Z</time>
      </trkpt>
      <trkpt lat="44.19031" lon="3.20955">
        <ele>405.604761</ele>
        <time>2020-03-09T22:53:35.593Z</time>
      </trkpt>
      <trkpt lat="44.19047" lon="3.20958">
        <ele>405.094581</ele>
        <time>2020-03-09T22:53:37.172Z</time>
      </trkpt>
      <trkpt lat="44.19053" lon="3.20903">
        <ele>403.880208</ele>
        <time>2020-03-09T22:53:41.306Z</time>
      </trkpt>
      <trkpt lat="44.19056" lon="3.20859">
        <ele>402.902211</ele>
        <time>2020-03-09T22:53:44.814Z</time>
      </trkpt>
      <trkpt lat="44.19062" lon="3.20808">
        <ele>401.894139</ele>
        <time>2020-03-09T22:53:49.590Z</time>
      </trkpt>
      <trkpt lat="44.19064" lon="3.20782">
        <ele>402.801857</ele>
        <time>2020-03-09T22:53:52.263Z</time>
      </trkpt>
      <trkpt lat="44.19066" lon="3.20765">
        <ele>403.370512</ele>
        <time>2020-03-09T22:53:54.427Z</time>
      </trkpt>
      <trkpt lat="44.19069" lon="3.20762">
        <ele>403.526863</ele>
        <time>2020-03-09T22:53:55.125Z</time>
      </trkpt>
      <trkpt lat="44.19075" lon="3.2076">
        <ele>403.832267</ele>
        <time>2020-03-09T22:53:57.579Z</time>
      </trkpt>
      <trkpt lat="44.19132" lon="3.20729">
        <ele>406.727255</ele>
        <time>2020-03-09T22:54:16.236Z</time>
      </trkpt>
      <trkpt lat="44.19142" lon="3.20723">
        <ele>407.253105</ele>
        <time>2020-03-09T22:54:23.249Z</time>
      </trkpt>
      <trkpt lat="44.19146" lon="3.2072">
        <ele>407.453735</ele>
        <time>2020-03-09T22:54:25.810Z</time>
      </trkpt>
      <trkpt lat="44.19167" lon="3.20711">
        <ele>408.493192</ele>
        <time>2020-03-09T22:54:33.908Z</time>
      </trkpt>
      <trkpt lat="44.19209" lon="3.20711">
        <ele>410.384688</ele>
        <time>2020-03-09T22:54:55.517Z</time>
      </trkpt>
      <trkpt lat="44.19217" lon="3.20713">
        <ele>410.465594</ele>
        <time>2020-03-09T22:55:01.434Z</time>
      </trkpt>
      <trkpt lat="44.19222" lon="3.20716">
        <ele>410.528504</ele>
        <time>2020-03-09T22:55:04.693Z</time>
      </trkpt>
      <trkpt lat="44.19234" lon="3.20721">
        <ele>410.662886</ele>
        <time>2020-03-09T22:55:09.225Z</time>
      </trkpt>
      <trkpt lat="44.19237" lon="3.20722">
        <ele>410.692245</ele>
        <time>2020-03-09T22:55:09.569Z</time>
      </trkpt>
      <trkpt lat="44.19245" lon="3.2073">
        <ele>410.800179</ele>
        <time>2020-03-09T22:55:14.195Z</time>
      </trkpt>
      <trkpt lat="44.19271" lon="3.20758">
        <ele>411.15265</ele>
        <time>2020-03-09T22:55:22.788Z</time>
      </trkpt>
      <trkpt lat="44.19276" lon="3.20763">
        <ele>411.226691</ele>
        <time>2020-03-09T22:55:26.044Z</time>
      </trkpt>
      <trkpt lat="44.19286" lon="3.20775">
        <ele>411.364327</ele>
        <time>2020-03-09T22:55:29.568Z</time>
      </trkpt>
      <trkpt lat="44.19324" lon="3.20848">
        <ele>412.05643</ele>
        <time>2020-03-09T22:55:35.979Z</time>
      </trkpt>
      <trkpt lat="44.19329" lon="3.2085">
        <ele>412.110725</ele>
        <time>2020-03-09T22:55:37.669Z</time>
      </trkpt>
      <trkpt lat="44.19336" lon="3.20851">
        <ele>412.191355</ele>
        <time>2020-03-09T22:55:38.316Z</time>
      </trkpt>
      <trkpt lat="44.19342" lon="3.20849">
        <ele>412.254472</ele>
        <time>2020-03-09T22:55:38.830Z</time>
      </trkpt>
      <trkpt lat="44.19416" lon="3.2081">
        <ele>407.506846</ele>
        <time>2020-03-09T22:55:46.140Z</time>
      </trkpt>
      <trkpt lat="44.19428" lon="3.20804">
        <ele>406.747439</ele>
        <time>2020-03-09T22:55:47.251Z</time>
      </trkpt>
      <trkpt lat="44.1944" lon="3.20804">
        <ele>405.996264</ele>
        <time>2020-03-09T22:55:48.314Z</time>
      </trkpt>
      <trkpt lat="44.1945" lon="3.20806">
        <ele>405.350848</ele>
        <time>2020-03-09T22:55:49.210Z</time>
      </trkpt>
      <trkpt lat="44.19462" lon="3.20806">
        <ele>404.587459</ele>
        <time>2020-03-09T22:55:50.307Z</time>
      </trkpt>
      <trkpt lat="44.19473" lon="3.20871">
        <ele>401.594883</ele>
        <time>2020-03-09T22:55:54.552Z</time>
      </trkpt>
      <trkpt lat="44.19484" lon="3.20936">
        <ele>400.999881</ele>
        <time>2020-03-09T22:55:59.167Z</time>
      </trkpt>
      <trkpt lat="44.19487" lon="3.20943">
        <ele>400.982467</ele>
        <time>2020-03-09T22:56:00.455Z</time>
      </trkpt>
      <trkpt lat="44.19505" lon="3.20995">
        <ele>400.861133</ele>
        <time>2020-03-09T22:56:07.402Z</time>
      </trkpt>
      <trkpt lat="44.19538" lon="3.21084">
        <ele>400.65254</ele>
        <time>2020-03-09T22:56:25.378Z</time>
      </trkpt>
      <trkpt lat="44.19594" lon="3.21156">
        <ele>401.396586</ele>
        <time>2020-03-09T22:56:41.589Z</time>
      </trkpt>
      <trkpt lat="44.19607" lon="3.21168">
        <ele>401.620158</ele>
        <time>2020-03-09T22:56:44.488Z</time>
      </trkpt>
      <trkpt lat="44.19655" lon="3.21185">
        <ele>402.344031</ele>
        <time>2020-03-09T22:56:53.758Z</time>
      </trkpt>
      <trkpt lat="44.19684" lon="3.21204">
        <ele>402.815057</ele>
        <time>2020-03-09T22:57:00.447Z</time>
      </trkpt>
      <trkpt lat="44.19779" lon="3.21292">
        <ele>404.35276</ele>
        <time>2020-03-09T22:57:24.707Z</time>
      </trkpt>
      <trkpt lat="44.19805" lon="3.21311">
        <ele>404.739711</ele>
        <time>2020-03-09T22:57:30.611Z</time>
      </trkpt>
      <trkpt lat="44.19832" lon="3.2133">
        <ele>405.151855</ele>
        <time>2020-03-09T22:57:36.549Z</time>
      </trkpt>
      <trkpt lat="44.19838" lon="3.21334">
        <ele>405.237325</ele>
        <time>2020-03-09T22:57:37.689Z</time>
      </trkpt>
      <trkpt lat="44.19867" lon="3.21351">
        <ele>405.595904</ele>
        <time>2020-03-09T22:57:43.377Z</time>
      </trkpt>
      <trkpt lat="44.19942" lon="3.21394">
        <ele>405.688535</ele>
        <time>2020-03-09T22:57:57.934Z</time>
      </trkpt>
      <trkpt lat="44.20032" lon="3.21412">
        <ele>405.79305</ele>
        <time>2020-03-09T22:58:10.205Z</time>
      </trkpt>
      <trkpt lat="44.20046" lon="3.21414">
        <ele>405.755987</ele>
        <time>2020-03-09T22:58:11.721Z</time>
      </trkpt>
      <trkpt lat="44.20063" lon="3.21415">
        <ele>405.690714</ele>
        <time>2020-03-09T22:58:14.588Z</time>
      </trkpt>
      <trkpt lat="44.20077" lon="3.21414">
        <ele>405.637813</ele>
        <time>2020-03-09T22:58:16.174Z</time>
      </trkpt>
      <trkpt lat="44.20115" lon="3.21423">
        <ele>405.493825</ele>
        <time>2020-03-09T22:58:21.410Z</time>
      </trkpt>
      <trkpt lat="44.20136" lon="3.21437">
        <ele>405.408933</ele>
        <time>2020-03-09T22:58:25.133Z</time>
      </trkpt>
      <trkpt lat="44.20168" lon="3.21447">
        <ele>405.286186</ele>
        <time>2020-03-09T22:58:30.005Z</time>
      </trkpt>
      <trkpt lat="44.20179" lon="3.21455">
        <ele>405.238597</ele>
        <time>2020-03-09T22:58:31.484Z</time>
      </trkpt>
      <trkpt lat="44.20195" lon="3.21467">
        <ele>405.16926</ele>
        <time>2020-03-09T22:58:34.667Z</time>
      </trkpt>
      <trkpt lat="44.20207" lon="3.21476">
        <ele>405.109366</ele>
        <time>2020-03-09T22:58:36.438Z</time>
      </trkpt>
      <trkpt lat="44.20236" lon="3.21502">
        <ele>404.727231</ele>
        <time>2020-03-09T22:58:40.849Z</time>
      </trkpt>
      <trkpt lat="44.20295" lon="3.2157">
        <ele>403.871418</ele>
        <time>2020-03-09T22:58:50.241Z</time>
      </trkpt>
      <trkpt lat="44.20307" lon="3.21586">
        <ele>403.689908</ele>
        <time>2020-03-09T22:58:52.393Z</time>
      </trkpt>
      <trkpt lat="44.2032" lon="3.21606">
        <ele>403.479764</ele>
        <time>2020-03-09T22:58:54.925Z</time>
      </trkpt>
      <trkpt lat="44.20358" lon="3.21686">
        <ele>402.35176</ele>
        <time>2020-03-09T22:59:02.298Z</time>
      </trkpt>
      <trkpt lat="44.2041" lon="3.21765">
        <ele>400.772985</ele>
        <time>2020-03-09T22:59:10.381Z</time>
      </trkpt>
      <trkpt lat="44.2043" lon="3.21784">
        <ele>400.259578</ele>
        <time>2020-03-09T22:59:13.161Z</time>
      </trkpt>
      <trkpt lat="44.20436" lon="3.21789">
        <ele>400.113182</ele>
        <time>2020-03-09T22:59:13.868Z</time>
      </trkpt>
      <trkpt lat="44.20442" lon="3.21794">
        <ele>399.979506</ele>
        <time>2020-03-09T22:59:14.568Z</time>
      </trkpt>
      <trkpt lat="44.20463" lon="3.21814">
        <ele>399.444892</ele>
        <time>2020-03-09T22:59:17.523Z</time>
      </trkpt>
      <trkpt lat="44.20469" lon="3.2182">
        <ele>399.381071</ele>
        <time>2020-03-09T22:59:18.266Z</time>
      </trkpt>
      <trkpt lat="44.2049" lon="3.21842">
        <ele>399.304229</ele>
        <time>2020-03-09T22:59:21.491Z</time>
      </trkpt>
      <trkpt lat="44.2051" lon="3.21873">
        <ele>399.216305</ele>
        <time>2020-03-09T22:59:25.050Z</time>
      </trkpt>
      <trkpt lat="44.20515" lon="3.21881">
        <ele>399.193116</ele>
        <time>2020-03-09T22:59:26.073Z</time>
      </trkpt>
      <trkpt lat="44.20526" lon="3.21891">
        <ele>399.155292</ele>
        <time>2020-03-09T22:59:27.600Z</time>
      </trkpt>
      <trkpt lat="44.20568" lon="3.21916">
        <ele>399.023888</ele>
        <time>2020-03-09T22:59:33.727Z</time>
      </trkpt>
      <trkpt lat="44.206" lon="3.21912">
        <ele>398.929988</ele>
        <time>2020-03-09T22:59:40.294Z</time>
      </trkpt>
      <trkpt lat="44.20619" lon="3.21918">
        <ele>398.875515</ele>
        <time>2020-03-09T22:59:44.334Z</time>
      </trkpt>
      <trkpt lat="44.20665" lon="3.21962">
        <ele>399.811587</ele>
        <time>2020-03-09T22:59:55.757Z</time>
      </trkpt>
      <trkpt lat="44.20707" lon="3.21978">
        <ele>400.544785</ele>
        <time>2020-03-09T23:00:04.885Z</time>
      </trkpt>
      <trkpt lat="44.20769" lon="3.22011">
        <ele>401.680641</ele>
        <time>2020-03-09T23:00:19.762Z</time>
      </trkpt>
      <trkpt lat="44.20801" lon="3.22061">
        <ele>402.704258</ele>
        <time>2020-03-09T23:00:31.346Z</time>
      </trkpt>
      <trkpt lat="44.20873" lon="3.22098">
        <ele>404.456698</ele>
        <time>2020-03-09T23:00:50.107Z</time>
      </trkpt>
      <trkpt lat="44.20965" lon="3.22189">
        <ele>406.804327</ele>
        <time>2020-03-09T23:01:17.183Z</time>
      </trkpt>
      <trkpt lat="44.21008" lon="3.22215">
        <ele>407.585439</ele>
        <time>2020-03-09T23:01:27.404Z</time>
      </trkpt>
      <trkpt lat="44.21047" lon="3.22249">
        <ele>408.363773</ele>
        <time>2020-03-09T23:01:37.223Z</time>
      </trkpt>
      <trkpt lat="44.21093" lon="3.22273">
        <ele>409.1588</ele>
        <time>2020-03-09T23:01:47.110Z</time>
      </trkpt>
      <trkpt lat="44.2116" lon="3.22325">
        <ele>409.652964</ele>
        <time>2020-03-09T23:02:00.994Z</time>
      </trkpt>
      <trkpt lat="44.21201" lon="3.22345">
        <ele>409.929239</ele>
        <time>2020-03-09T23:02:08.196Z</time>
      </trkpt>
      <trkpt lat="44.2124" lon="3.22382">
        <ele>410.231206</ele>
        <time>2020-03-09T23:02:15.806Z</time>
      </trkpt>
      <trkpt lat="44.21296" lon="3.22419">
        <ele>410.716877</ele>
        <time>2020-03-09T23:02:25.797Z</time>
      </trkpt>
      <trkpt lat="44.21408" lon="3.22431">
        <ele>411.607185</ele>
        <time>2020-03-09T23:02:45.780Z</time>
      </trkpt>
      <trkpt lat="44.21458" lon="3.22427">
        <ele>412.485075</ele>
        <time>2020-03-09T23:02:56.330Z</time>
      </trkpt>
      <trkpt lat="44.21636" lon="3.22343">
        <ele>415.792577</ele>
        <time>2020-03-09T23:03:42.630Z</time>
      </trkpt>
      <trkpt lat="44.21686" lon="3.22337">
        <ele>416.087085</ele>
        <time>2020-03-09T23:03:52.088Z</time>
      </trkpt>
      <trkpt lat="44.21691" lon="3.22334">
        <ele>416.120449</ele>
        <time>2020-03-09T23:03:53.424Z</time>
      </trkpt>
      <trkpt lat="44.2171" lon="3.22326">
        <ele>416.2334</ele>
        <time>2020-03-09T23:03:56.393Z</time>
      </trkpt>
      <trkpt lat="44.21723" lon="3.22318">
        <ele>416.318541</ele>
        <time>2020-03-09T23:03:58.483Z</time>
      </trkpt>
      <trkpt lat="44.21735" lon="3.2231">
        <ele>416.395843</ele>
        <time>2020-03-09T23:04:00.665Z</time>
      </trkpt>
      <trkpt lat="44.21747" lon="3.22301">
        <ele>416.475534</ele>
        <time>2020-03-09T23:04:02.163Z</time>
      </trkpt>
      <trkpt lat="44.21774" lon="3.22282">
        <ele>416.243231</ele>
        <time>2020-03-09T23:04:05.822Z</time>
      </trkpt>
      <trkpt lat="44.21817" lon="3.22266">
        <ele>414.840072</ele>
        <time>2020-03-09T23:04:10.580Z</time>
      </trkpt>
      <trkpt lat="44.21877" lon="3.22254">
        <ele>412.910108</ele>
        <time>2020-03-09T23:04:16.737Z</time>
      </trkpt>
      <trkpt lat="44.22" lon="3.22205">
        <ele>408.968419</ele>
        <time>2020-03-09T23:04:29.033Z</time>
      </trkpt>
      <trkpt lat="44.22025" lon="3.22209">
        <ele>408.233406</ele>
        <time>2020-03-09T23:04:31.391Z</time>
      </trkpt>
      <trkpt lat="44.22046" lon="3.22227">
        <ele>407.462637</ele>
        <time>2020-03-09T23:04:33.986Z</time>
      </trkpt>
      <trkpt lat="44.2207" lon="3.22244">
        <ele>406.657848</ele>
        <time>2020-03-09T23:04:36.800Z</time>
      </trkpt>
      <trkpt lat="44.22087" lon="3.22253">
        <ele>406.125709</ele>
        <time>2020-03-09T23:04:38.910Z</time>
      </trkpt>
      <trkpt lat="44.22102" lon="3.2226">
        <ele>405.653708</ele>
        <time>2020-03-09T23:04:40.686Z</time>
      </trkpt>
      <trkpt lat="44.22116" lon="3.22265">
        <ele>405.570792</ele>
        <time>2020-03-09T23:04:42.581Z</time>
      </trkpt>
      <trkpt lat="44.2213" lon="3.2227">
        <ele>405.695727</ele>
        <time>2020-03-09T23:04:44.578Z</time>
      </trkpt>
      <trkpt lat="44.22159" lon="3.22286">
        <ele>405.959385</ele>
        <time>2020-03-09T23:04:49.535Z</time>
      </trkpt>
      <trkpt lat="44.22173" lon="3.22296">
        <ele>406.097021</ele>
        <time>2020-03-09T23:04:51.854Z</time>
      </trkpt>
      <trkpt lat="44.22189" lon="3.22309">
        <ele>406.248257</ele>
        <time>2020-03-09T23:04:55.626Z</time>
      </trkpt>
      <trkpt lat="44.22222" lon="3.22334">
        <ele>406.564492</ele>
        <time>2020-03-09T23:05:03.078Z</time>
      </trkpt>
      <trkpt lat="44.22236" lon="3.22354">
        <ele>406.737498</ele>
        <time>2020-03-09T23:05:07.412Z</time>
      </trkpt>
      <trkpt lat="44.22256" lon="3.22397">
        <ele>407.085573</ele>
        <time>2020-03-09T23:05:16.578Z</time>
      </trkpt>
      <trkpt lat="44.22344" lon="3.22545">
        <ele>409.539141</ele>
        <time>2020-03-09T23:05:49.612Z</time>
      </trkpt>
      <trkpt lat="44.22376" lon="3.22623">
        <ele>410.270504</ele>
        <time>2020-03-09T23:06:00.480Z</time>
      </trkpt>
      <trkpt lat="44.22404" lon="3.22723">
        <ele>410.410699</ele>
        <time>2020-03-09T23:06:12.760Z</time>
      </trkpt>
      <trkpt lat="44.2242" lon="3.22755">
        <ele>410.460806</ele>
        <time>2020-03-09T23:06:16.550Z</time>
      </trkpt>
      <trkpt lat="44.22447" lon="3.22788">
        <ele>410.526378</ele>
        <time>2020-03-09T23:06:21.542Z</time>
      </trkpt>
      <trkpt lat="44.22483" lon="3.22818">
        <ele>410.536345</ele>
        <time>2020-03-09T23:06:27.515Z</time>
      </trkpt>
      <trkpt lat="44.22527" lon="3.22871">
        <ele>410.508169</ele>
        <time>2020-03-09T23:06:35.635Z</time>
      </trkpt>
      <trkpt lat="44.22572" lon="3.22899">
        <ele>410.484045</ele>
        <time>2020-03-09T23:06:43.197Z</time>
      </trkpt>
      <trkpt lat="44.22622" lon="3.22917">
        <ele>410.487148</ele>
        <time>2020-03-09T23:06:51.249Z</time>
      </trkpt>
      <trkpt lat="44.22657" lon="3.22922">
        <ele>410.586745</ele>
        <time>2020-03-09T23:06:56.525Z</time>
      </trkpt>
      <trkpt lat="44.22771" lon="3.22924">
        <ele>410.914813</ele>
        <time>2020-03-09T23:07:14.730Z</time>
      </trkpt>
      <trkpt lat="44.22895" lon="3.22987">
        <ele>411.677986</ele>
        <time>2020-03-09T23:07:37.372Z</time>
      </trkpt>
      <trkpt lat="44.23014" lon="3.22995">
        <ele>412.430473</ele>
        <time>2020-03-09T23:07:58.437Z</time>
      </trkpt>
      <trkpt lat="44.23034" lon="3.22991">
        <ele>412.559652</ele>
        <time>2020-03-09T23:08:02.117Z</time>
      </trkpt>
      <trkpt lat="44.23057" lon="3.22988">
        <ele>412.702252</ele>
        <time>2020-03-09T23:08:06.061Z</time>
      </trkpt>
      <trkpt lat="44.23308" lon="3.23012">
        <ele>414.139486</ele>
        <time>2020-03-09T23:08:48.833Z</time>
      </trkpt>
      <trkpt lat="44.2333" lon="3.23019">
        <ele>414.261059</ele>
        <time>2020-03-09T23:08:52.716Z</time>
      </trkpt>
      <trkpt lat="44.23363" lon="3.23041">
        <ele>414.446823</ele>
        <time>2020-03-09T23:08:58.938Z</time>
      </trkpt>
      <trkpt lat="44.23407" lon="3.23052">
        <ele>414.671075</ele>
        <time>2020-03-09T23:09:06.407Z</time>
      </trkpt>
      <trkpt lat="44.23446" lon="3.23048">
        <ele>414.869758</ele>
        <time>2020-03-09T23:09:12.971Z</time>
      </trkpt>
      <trkpt lat="44.23485" lon="3.23027">
        <ele>415.083058</ele>
        <time>2020-03-09T23:09:20.081Z</time>
      </trkpt>
      <trkpt lat="44.23576" lon="3.23015">
        <ele>415.549149</ele>
        <time>2020-03-09T23:09:35.033Z</time>
      </trkpt>
      <trkpt lat="44.23626" lon="3.23036">
        <ele>415.816067</ele>
        <time>2020-03-09T23:09:43.245Z</time>
      </trkpt>
      <trkpt lat="44.23691" lon="3.23044">
        <ele>416.253508</ele>
        <time>2020-03-09T23:09:54.872Z</time>
      </trkpt>
      <trkpt lat="44.23733" lon="3.23044">
        <ele>416.706174</ele>
        <time>2020-03-09T23:10:03.017Z</time>
      </trkpt>
      <trkpt lat="44.23768" lon="3.23036">
        <ele>417.090374</ele>
        <time>2020-03-09T23:10:10.203Z</time>
      </trkpt>
      <trkpt lat="44.23798" lon="3.23058">
        <ele>417.459434</ele>
        <time>2020-03-09T23:10:17.083Z</time>
      </trkpt>
      <trkpt lat="44.23817" lon="3.23063">
        <ele>417.66305</ele>
        <time>2020-03-09T23:10:20.809Z</time>
      </trkpt>
      <trkpt lat="44.23864" lon="3.2307">
        <ele>418.007728</ele>
        <time>2020-03-09T23:10:30.033Z</time>
      </trkpt>
      <trkpt lat="44.23913" lon="3.23064">
        <ele>418.001183</ele>
        <time>2020-03-09T23:10:38.713Z</time>
      </trkpt>
      <trkpt lat="44.23955" lon="3.23071">
        <ele>417.995528</ele>
        <time>2020-03-09T23:10:45.347Z</time>
      </trkpt>
      <trkpt lat="44.24014" lon="3.23069">
        <ele>417.987528</ele>
        <time>2020-03-09T23:10:53.165Z</time>
      </trkpt>
      <trkpt lat="44.24041" lon="3.23078">
        <ele>417.804934</ele>
        <time>2020-03-09T23:10:56.474Z</time>
      </trkpt>
      <trkpt lat="44.24091" lon="3.23083">
        <ele>417.158246</ele>
        <time>2020-03-09T23:11:01.911Z</time>
      </trkpt>
      <trkpt lat="44.24162" lon="3.23107">
        <ele>416.218846</ele>
        <time>2020-03-09T23:11:10.203Z</time>
      </trkpt>
      <trkpt lat="44.24215" lon="3.23117">
        <ele>415.732556</ele>
        <time>2020-03-09T23:11:17.247Z</time>
      </trkpt>
      <trkpt lat="44.24222" lon="3.23121">
        <ele>415.774091</ele>
        <time>2020-03-09T23:11:17.993Z</time>
      </trkpt>
      <trkpt lat="44.24237" lon="3.23128">
        <ele>415.865823</ele>
        <time>2020-03-09T23:11:20.144Z</time>
      </trkpt>
      <trkpt lat="44.24245" lon="3.2313">
        <ele>415.912986</ele>
        <time>2020-03-09T23:11:22.318Z</time>
      </trkpt>
      <trkpt lat="44.24308" lon="3.23137">
        <ele>416.265191</ele>
        <time>2020-03-09T23:11:31.912Z</time>
      </trkpt>
      <trkpt lat="44.24433" lon="3.23223">
        <ele>417.541706</ele>
        <time>2020-03-09T23:12:01.353Z</time>
      </trkpt>
      <trkpt lat="44.24495" lon="3.23239">
        <ele>418.371875</ele>
        <time>2020-03-09T23:12:14.049Z</time>
      </trkpt>
      <trkpt lat="44.24536" lon="3.23234">
        <ele>418.92945</ele>
        <time>2020-03-09T23:12:22.060Z</time>
      </trkpt>
      <trkpt lat="44.247" lon="3.23193">
        <ele>420.522861</ele>
        <time>2020-03-09T23:12:52.573Z</time>
      </trkpt>
      <trkpt lat="44.24725" lon="3.23187">
        <ele>420.762593</ele>
        <time>2020-03-09T23:12:57.683Z</time>
      </trkpt>
      <trkpt lat="44.24804" lon="3.23181">
        <ele>421.218401</ele>
        <time>2020-03-09T23:13:12.227Z</time>
      </trkpt>
      <trkpt lat="44.2484" lon="3.23195">
        <ele>421.435179</ele>
        <time>2020-03-09T23:13:18.848Z</time>
      </trkpt>
      <trkpt lat="44.24882" lon="3.23202">
        <ele>421.675516</ele>
        <time>2020-03-09T23:13:25.946Z</time>
      </trkpt>
      <trkpt lat="44.25175" lon="3.23227">
        <ele>421.091321</ele>
        <time>2020-03-09T23:14:05.466Z</time>
      </trkpt>
      <trkpt lat="44.25218" lon="3.2322">
        <ele>421.048387</ele>
        <time>2020-03-09T23:14:11.843Z</time>
      </trkpt>
      <trkpt lat="44.25261" lon="3.23192">
        <ele>421.041331</ele>
        <time>2020-03-09T23:14:19.049Z</time>
      </trkpt>
      <trkpt lat="44.25288" lon="3.23188">
        <ele>421.237538</ele>
        <time>2020-03-09T23:14:24.257Z</time>
      </trkpt>
      <trkpt lat="44.25296" lon="3.23188">
        <ele>421.295066</ele>
        <time>2020-03-09T23:14:25.169Z</time>
      </trkpt>
      <trkpt lat="44.2531" lon="3.23187">
        <ele>421.401667</ele>
        <time>2020-03-09T23:14:28.806Z</time>
      </trkpt>
      <trkpt lat="44.25359" lon="3.23174">
        <ele>421.765094</ele>
        <time>2020-03-09T23:14:37.323Z</time>
      </trkpt>
      <trkpt lat="44.25396" lon="3.23151">
        <ele>422.060858</ele>
        <time>2020-03-09T23:14:44.697Z</time>
      </trkpt>
      <trkpt lat="44.25527" lon="3.23088">
        <ele>422.901969</ele>
        <time>2020-03-09T23:15:09.979Z</time>
      </trkpt>
      <trkpt lat="44.25633" lon="3.23048">
        <ele>423.404379</ele>
        <time>2020-03-09T23:15:27.113Z</time>
      </trkpt>
      <trkpt lat="44.25939" lon="3.22824">
        <ele>423.709805</ele>
        <time>2020-03-09T23:16:21.080Z</time>
      </trkpt>
      <trkpt lat="44.25949" lon="3.22817">
        <ele>423.609227</ele>
        <time>2020-03-09T23:16:22.473Z</time>
      </trkpt>
      <trkpt lat="44.25964" lon="3.22811">
        <ele>423.470477</ele>
        <time>2020-03-09T23:16:24.307Z</time>
      </trkpt>
      <trkpt lat="44.2605" lon="3.22755">
        <ele>422.639161</ele>
        <time>2020-03-09T23:16:35.600Z</time>
      </trkpt>
      <trkpt lat="44.26088" lon="3.22744">
        <ele>422.292463</ele>
        <time>2020-03-09T23:16:40.176Z</time>
      </trkpt>
      <trkpt lat="44.26153" lon="3.22705">
        <ele>422.005441</ele>
        <time>2020-03-09T23:16:49.208Z</time>
      </trkpt>
      <trkpt lat="44.26222" lon="3.22685">
        <ele>421.714938</ele>
        <time>2020-03-09T23:16:59.324Z</time>
      </trkpt>
      <trkpt lat="44.26336" lon="3.22615">
        <ele>421.302731</ele>
        <time>2020-03-09T23:17:17.913Z</time>
      </trkpt>
      <trkpt lat="44.26406" lon="3.22589">
        <ele>421.089057</ele>
        <time>2020-03-09T23:17:27.599Z</time>
      </trkpt>
      <trkpt lat="44.26481" lon="3.22572">
        <ele>420.508733</ele>
        <time>2020-03-09T23:17:37.149Z</time>
      </trkpt>
      <trkpt lat="44.26565" lon="3.22563">
        <ele>419.71111</ele>
        <time>2020-03-09T23:17:47.153Z</time>
      </trkpt>
      <trkpt lat="44.26723" lon="3.22596">
        <ele>418.883279</ele>
        <time>2020-03-09T23:18:07.303Z</time>
      </trkpt>
      <trkpt lat="44.26741" lon="3.22597">
        <ele>418.819157</ele>
        <time>2020-03-09T23:18:09.853Z</time>
      </trkpt>
      <trkpt lat="44.26784" lon="3.226">
        <ele>418.659374</ele>
        <time>2020-03-09T23:18:16.850Z</time>
      </trkpt>
      <trkpt lat="44.26861" lon="3.22607">
        <ele>419.23856</ele>
        <time>2020-03-09T23:18:30.515Z</time>
      </trkpt>
      <trkpt lat="44.26883" lon="3.22609">
        <ele>419.404176</ele>
        <time>2020-03-09T23:18:34.514Z</time>
      </trkpt>
      <trkpt lat="44.26917" lon="3.22612">
        <ele>419.663618</ele>
        <time>2020-03-09T23:18:40.987Z</time>
      </trkpt>
      <trkpt lat="44.26931" lon="3.22613">
        <ele>419.776459</ele>
        <time>2020-03-09T23:18:43.792Z</time>
      </trkpt>
      <trkpt lat="44.26953" lon="3.22613">
        <ele>419.943252</ele>
        <time>2020-03-09T23:18:47.897Z</time>
      </trkpt>
      <trkpt lat="44.27051" lon="3.22598">
        <ele>420.32578</ele>
        <time>2020-03-09T23:19:05.251Z</time>
      </trkpt>
      <trkpt lat="44.27083" lon="3.22593">
        <ele>420.43482</ele>
        <time>2020-03-09T23:19:10.348Z</time>
      </trkpt>
      <trkpt lat="44.27105" lon="3.2259">
        <ele>420.513049</ele>
        <time>2020-03-09T23:19:13.884Z</time>
      </trkpt>
      <trkpt lat="44.27168" lon="3.22586">
        <ele>420.445004</ele>
        <time>2020-03-09T23:19:22.622Z</time>
      </trkpt>
      <trkpt lat="44.27184" lon="3.22578">
        <ele>420.314335</ele>
        <time>2020-03-09T23:19:24.851Z</time>
      </trkpt>
      <trkpt lat="44.27208" lon="3.22552">
        <ele>420.074772</ele>
        <time>2020-03-09T23:19:28.921Z</time>
      </trkpt>
      <trkpt lat="44.27222" lon="3.22549">
        <ele>419.961269</ele>
        <time>2020-03-09T23:19:30.746Z</time>
      </trkpt>
      <trkpt lat="44.27265" lon="3.22576">
        <ele>419.586123</ele>
        <time>2020-03-09T23:19:36.748Z</time>
      </trkpt>
      <trkpt lat="44.2743" lon="3.2257">
        <ele>417.104496</ele>
        <time>2020-03-09T23:19:55.587Z</time>
      </trkpt>
      <trkpt lat="44.27452" lon="3.22573">
        <ele>416.711371</ele>
        <time>2020-03-09T23:19:57.979Z</time>
      </trkpt>
      <trkpt lat="44.27466" lon="3.22576">
        <ele>416.454092</ele>
        <time>2020-03-09T23:19:59.422Z</time>
      </trkpt>
      <trkpt lat="44.27504" lon="3.22569">
        <ele>415.846501</ele>
        <time>2020-03-09T23:20:03.517Z</time>
      </trkpt>
      <trkpt lat="44.27522" lon="3.22574">
        <ele>415.611803</ele>
        <time>2020-03-09T23:20:05.750Z</time>
      </trkpt>
      <trkpt lat="44.27543" lon="3.22589">
        <ele>415.309581</ele>
        <time>2020-03-09T23:20:08.226Z</time>
      </trkpt>
      <trkpt lat="44.27553" lon="3.22593">
        <ele>415.176115</ele>
        <time>2020-03-09T23:20:09.639Z</time>
      </trkpt>
      <trkpt lat="44.27589" lon="3.226">
        <ele>414.71733</ele>
        <time>2020-03-09T23:20:13.823Z</time>
      </trkpt>
      <trkpt lat="44.27616" lon="3.22612">
        <ele>414.356086</ele>
        <time>2020-03-09T23:20:16.995Z</time>
      </trkpt>
      <trkpt lat="44.27624" lon="3.22615">
        <ele>414.246716</ele>
        <time>2020-03-09T23:20:18.520Z</time>
      </trkpt>
      <trkpt lat="44.27638" lon="3.22615">
        <ele>414.069769</ele>
        <time>2020-03-09T23:20:20.100Z</time>
      </trkpt>
      <trkpt lat="44.27655" lon="3.22595">
        <ele>413.787943</ele>
        <time>2020-03-09T23:20:23.468Z</time>
      </trkpt>
      <trkpt lat="44.27667" lon="3.22591">
        <ele>413.795005</ele>
        <time>2020-03-09T23:20:25.104Z</time>
      </trkpt>
      <trkpt lat="44.27681" lon="3.22599">
        <ele>413.933146</ele>
        <time>2020-03-09T23:20:27.099Z</time>
      </trkpt>
      <trkpt lat="44.27686" lon="3.22615">
        <ele>414.046767</ele>
        <time>2020-03-09T23:20:29.456Z</time>
      </trkpt>
      <trkpt lat="44.27689" lon="3.22633">
        <ele>414.165227</ele>
        <time>2020-03-09T23:20:31.187Z</time>
      </trkpt>
      <trkpt lat="44.2769" lon="3.22639">
        <ele>414.206829</ele>
        <time>2020-03-09T23:20:32.303Z</time>
      </trkpt>
      <trkpt lat="44.27697" lon="3.22656">
        <ele>414.338277</ele>
        <time>2020-03-09T23:20:35.362Z</time>
      </trkpt>
      <trkpt lat="44.27747" lon="3.22725">
        <ele>414.977662</ele>
        <time>2020-03-09T23:20:49.666Z</time>
      </trkpt>
      <trkpt lat="44.27754" lon="3.22728">
        <ele>415.046356</ele>
        <time>2020-03-09T23:20:51.572Z</time>
      </trkpt>
      <trkpt lat="44.27767" lon="3.22741">
        <ele>415.193685</ele>
        <time>2020-03-09T23:20:55.210Z</time>
      </trkpt>
      <trkpt lat="44.27782" lon="3.22756">
        <ele>415.358233</ele>
        <time>2020-03-09T23:20:58.402Z</time>
      </trkpt>
      <trkpt lat="44.27782" lon="3.22756">
        <ele>415.363141</ele>
        <time>2020-03-09T23:20:58.465Z</time>
      </trkpt>
      <trkpt lat="44.27788" lon="3.22761">
        <ele>415.423018</ele>
        <time>2020-03-09T23:20:59.646Z</time>
      </trkpt>
      <trkpt lat="44.27808" lon="3.22779">
        <ele>415.667236</ele>
        <time>2020-03-09T23:21:04.489Z</time>
      </trkpt>
      <trkpt lat="44.27816" lon="3.22786">
        <ele>415.758968</ele>
        <time>2020-03-09T23:21:06.466Z</time>
      </trkpt>
      <trkpt lat="44.27851" lon="3.22825">
        <ele>416.199909</ele>
        <time>2020-03-09T23:21:14.573Z</time>
      </trkpt>
      <trkpt lat="44.27881" lon="3.2284">
        <ele>416.51244</ele>
        <time>2020-03-09T23:21:20.470Z</time>
      </trkpt>
      <trkpt lat="44.27894" lon="3.22848">
        <ele>416.64921</ele>
        <time>2020-03-09T23:21:23.487Z</time>
      </trkpt>
      <trkpt lat="44.279" lon="3.22852">
        <ele>416.715156</ele>
        <time>2020-03-09T23:21:24.412Z</time>
      </trkpt>
      <trkpt lat="44.27903" lon="3.22854">
        <ele>416.750686</ele>
        <time>2020-03-09T23:21:24.804Z</time>
      </trkpt>
      <trkpt lat="44.27966" lon="3.22893">
        <ele>417.186055</ele>
        <time>2020-03-09T23:21:37.890Z</time>
      </trkpt>
      <trkpt lat="44.28003" lon="3.22896">
        <ele>417.239097</ele>
        <time>2020-03-09T23:21:44.023Z</time>
      </trkpt>
      <trkpt lat="44.28014" lon="3.22894">
        <ele>417.255384</ele>
        <time>2020-03-09T23:21:45.655Z</time>
      </trkpt>
      <trkpt lat="44.28025" lon="3.2289">
        <ele>417.271664</ele>
        <time>2020-03-09T23:21:47.594Z</time>
      </trkpt>
      <trkpt lat="44.28048" lon="3.22885">
        <ele>417.305721</ele>
        <time>2020-03-09T23:21:50.807Z</time>
      </trkpt>
      <trkpt lat="44.28075" lon="3.2289">
        <ele>417.343743</ele>
        <time>2020-03-09T23:21:54.404Z</time>
      </trkpt>
      <trkpt lat="44.28141" lon="3.22954">
        <ele>417.133737</ele>
        <time>2020-03-09T23:22:05.730Z</time>
      </trkpt>
      <trkpt lat="44.28146" lon="3.22958">
        <ele>417.092462</ele>
        <time>2020-03-09T23:22:06.481Z</time>
      </trkpt>
      <trkpt lat="44.28148" lon="3.2296">
        <ele>417.076103</ele>
        <time>2020-03-09T23:22:06.885Z</time>
      </trkpt>
      <trkpt lat="44.28154" lon="3.22964">
        <ele>417.030361</ele>
        <time>2020-03-09T23:22:07.763Z</time>
      </trkpt>
      <trkpt lat="44.28171" lon="3.22972">
        <ele>416.905726</ele>
        <time>2020-03-09T23:22:10.241Z</time>
      </trkpt>
      <trkpt lat="44.28203" lon="3.22986">
        <ele>416.675783</ele>
        <time>2020-03-09T23:22:14.397Z</time>
      </trkpt>
      <trkpt lat="44.28225" lon="3.22996">
        <ele>416.522804</ele>
        <time>2020-03-09T23:22:16.963Z</time>
      </trkpt>
      <trkpt lat="44.28233" lon="3.22997">
        <ele>416.467525</ele>
        <time>2020-03-09T23:22:18.100Z</time>
      </trkpt>
      <trkpt lat="44.28242" lon="3.22999">
        <ele>416.402673</ele>
        <time>2020-03-09T23:22:19.268Z</time>
      </trkpt>
      <trkpt lat="44.28266" lon="3.23002">
        <ele>416.234789</ele>
        <time>2020-03-09T23:22:22.209Z</time>
      </trkpt>
      <trkpt lat="44.28273" lon="3.23004">
        <ele>416.186045</ele>
        <time>2020-03-09T23:22:23.250Z</time>
      </trkpt>
      <trkpt lat="44.28279" lon="3.23006">
        <ele>416.16601</ele>
        <time>2020-03-09T23:22:23.867Z</time>
      </trkpt>
      <trkpt lat="44.28302" lon="3.2303">
        <ele>416.125152</ele>
        <time>2020-03-09T23:22:27.539Z</time>
      </trkpt>
      <trkpt lat="44.28332" lon="3.231">
        <ele>416.044618</ele>
        <time>2020-03-09T23:22:35.418Z</time>
      </trkpt>
      <trkpt lat="44.28352" lon="3.23126">
        <ele>416.00606</ele>
        <time>2020-03-09T23:22:39.566Z</time>
      </trkpt>
      <trkpt lat="44.28414" lon="3.23167">
        <ele>415.977483</ele>
        <time>2020-03-09T23:22:50.683Z</time>
      </trkpt>
      <trkpt lat="44.28491" lon="3.23235">
        <ele>416.717848</ele>
        <time>2020-03-09T23:23:07.569Z</time>
      </trkpt>
      <trkpt lat="44.28581" lon="3.233">
        <ele>417.713221</ele>
        <time>2020-03-09T23:23:26.187Z</time>
      </trkpt>
      <trkpt lat="44.2863" lon="3.23328">
        <ele>418.605659</ele>
        <time>2020-03-09T23:23:35.469Z</time>
      </trkpt>
      <trkpt lat="44.28639" lon="3.23335">
        <ele>418.774227</ele>
        <time>2020-03-09T23:23:37.054Z</time>
      </trkpt>
      <trkpt lat="44.28657" lon="3.23358">
        <ele>419.191031</ele>
        <time>2020-03-09T23:23:42.737Z</time>
      </trkpt>
      <trkpt lat="44.28661" lon="3.23366">
        <ele>419.307303</ele>
        <time>2020-03-09T23:23:43.863Z</time>
      </trkpt>
      <trkpt lat="44.28678" lon="3.23399">
        <ele>419.788984</ele>
        <time>2020-03-09T23:23:50.732Z</time>
      </trkpt>
      <trkpt lat="44.28687" lon="3.23416">
        <ele>420.046133</ele>
        <time>2020-03-09T23:23:54.051Z</time>
      </trkpt>
      <trkpt lat="44.28702" lon="3.23443">
        <ele>420.527907</ele>
        <time>2020-03-09T23:24:01.696Z</time>
      </trkpt>
      <trkpt lat="44.28705" lon="3.23448">
        <ele>420.733507</ele>
        <time>2020-03-09T23:24:02.574Z</time>
      </trkpt>
      <trkpt lat="44.28725" lon="3.23489">
        <ele>422.317453</ele>
        <time>2020-03-09T23:24:12.793Z</time>
      </trkpt>
      <trkpt lat="44.28732" lon="3.23502">
        <ele>422.826119</ele>
        <time>2020-03-09T23:24:15.849Z</time>
      </trkpt>
      <trkpt lat="44.2874" lon="3.23515">
        <ele>423.356745</ele>
        <time>2020-03-09T23:24:20.146Z</time>
      </trkpt>
      <trkpt lat="44.28763" lon="3.23551">
        <ele>424.884632</ele>
        <time>2020-03-09T23:24:30.860Z</time>
      </trkpt>
      <trkpt lat="44.28778" lon="3.23572">
        <ele>425.805924</ele>
        <time>2020-03-09T23:24:37.445Z</time>
      </trkpt>
      <trkpt lat="44.28792" lon="3.23593">
        <ele>426.712178</ele>
        <time>2020-03-09T23:24:45.569Z</time>
      </trkpt>
      <trkpt lat="44.28813" lon="3.2363">
        <ele>428.216834</ele>
        <time>2020-03-09T23:24:58.595Z</time>
      </trkpt>
      <trkpt lat="44.28854" lon="3.23648">
        <ele>430.499769</ele>
        <time>2020-03-09T23:25:14.849Z</time>
      </trkpt>
      <trkpt lat="44.28904" lon="3.23683">
        <ele>433.541301</ele>
        <time>2020-03-09T23:25:35.634Z</time>
      </trkpt>
      <trkpt lat="44.28989" lon="3.23763">
        <ele>438.965376</ele>
        <time>2020-03-09T23:26:11.121Z</time>
      </trkpt>
      <trkpt lat="44.28998" lon="3.23772">
        <ele>439.49436</ele>
        <time>2020-03-09T23:26:16.377Z</time>
      </trkpt>
      <trkpt lat="44.29002" lon="3.23775">
        <ele>439.693132</ele>
        <time>2020-03-09T23:26:16.940Z</time>
      </trkpt>
      <trkpt lat="44.29028" lon="3.23781">
        <ele>440.942155</ele>
        <time>2020-03-09T23:26:28.479Z</time>
      </trkpt>
      <trkpt lat="44.29037" lon="3.23781">
        <ele>441.32886</ele>
        <time>2020-03-09T23:26:30.305Z</time>
      </trkpt>
      <trkpt lat="44.29047" lon="3.23781">
        <ele>441.804064</ele>
        <time>2020-03-09T23:26:35.887Z</time>
      </trkpt>
      <trkpt lat="44.29134" lon="3.23747">
        <ele>446.034076</ele>
        <time>2020-03-09T23:27:04.018Z</time>
      </trkpt>
      <trkpt lat="44.29145" lon="3.23748">
        <ele>446.490679</ele>
        <time>2020-03-09T23:27:07.459Z</time>
      </trkpt>
      <trkpt lat="44.29165" lon="3.2375">
        <ele>446.499906</ele>
        <time>2020-03-09T23:27:12.371Z</time>
      </trkpt>
      <trkpt lat="44.29191" lon="3.23752">
        <ele>446.511865</ele>
        <time>2020-03-09T23:27:20.348Z</time>
      </trkpt>
      <trkpt lat="44.29266" lon="3.23733">
        <ele>446.547161</ele>
        <time>2020-03-09T23:27:31.899Z</time>
      </trkpt>
      <trkpt lat="44.29334" lon="3.23672">
        <ele>445.715199</ele>
        <time>2020-03-09T23:27:40.243Z</time>
      </trkpt>
      <trkpt lat="44.29339" lon="3.23669">
        <ele>445.528766</ele>
        <time>2020-03-09T23:27:41.065Z</time>
      </trkpt>
      <trkpt lat="44.29345" lon="3.23665">
        <ele>445.285748</ele>
        <time>2020-03-09T23:27:41.655Z</time>
      </trkpt>
      <trkpt lat="44.29366" lon="3.23664">
        <ele>444.535296</ele>
        <time>2020-03-09T23:27:43.840Z</time>
      </trkpt>
      <trkpt lat="44.2939" lon="3.23671">
        <ele>443.67661</ele>
        <time>2020-03-09T23:27:46.135Z</time>
      </trkpt>
      <trkpt lat="44.2944" lon="3.23729">
        <ele>441.395512</ele>
        <time>2020-03-09T23:27:52.372Z</time>
      </trkpt>
      <trkpt lat="44.29479" lon="3.23749">
        <ele>440.13875</ele>
        <time>2020-03-09T23:27:56.616Z</time>
      </trkpt>
      <trkpt lat="44.29506" lon="3.23781">
        <ele>439.812887</ele>
        <time>2020-03-09T23:28:00.655Z</time>
      </trkpt>
      <trkpt lat="44.29533" lon="3.23799">
        <ele>439.53995</ele>
        <time>2020-03-09T23:28:04.202Z</time>
      </trkpt>
      <trkpt lat="44.29559" lon="3.23815">
        <ele>439.278835</ele>
        <time>2020-03-09T23:28:07.792Z</time>
      </trkpt>
      <trkpt lat="44.29573" lon="3.23822">
        <ele>439.145398</ele>
        <time>2020-03-09T23:28:09.801Z</time>
      </trkpt>
      <trkpt lat="44.29584" lon="3.23827">
        <ele>439.039094</ele>
        <time>2020-03-09T23:28:11.427Z</time>
      </trkpt>
      <trkpt lat="44.29593" lon="3.2383">
        <ele>438.955358</ele>
        <time>2020-03-09T23:28:12.672Z</time>
      </trkpt>
      <trkpt lat="44.29602" lon="3.23833">
        <ele>438.87079</ele>
        <time>2020-03-09T23:28:14.090Z</time>
      </trkpt>
      <trkpt lat="44.29625" lon="3.23837">
        <ele>438.656896</ele>
        <time>2020-03-09T23:28:17.835Z</time>
      </trkpt>
      <trkpt lat="44.29668" lon="3.23859">
        <ele>438.961688</ele>
        <time>2020-03-09T23:28:25.916Z</time>
      </trkpt>
      <trkpt lat="44.29703" lon="3.23866">
        <ele>439.348037</ele>
        <time>2020-03-09T23:28:33.139Z</time>
      </trkpt>
      <trkpt lat="44.29758" lon="3.23861">
        <ele>439.934925</ele>
        <time>2020-03-09T23:28:43.665Z</time>
      </trkpt>
      <trkpt lat="44.29818" lon="3.23869">
        <ele>440.654286</ele>
        <time>2020-03-09T23:28:55.043Z</time>
      </trkpt>
      <trkpt lat="44.29923" lon="3.23867">
        <ele>442.778724</ele>
        <time>2020-03-09T23:29:19.052Z</time>
      </trkpt>
      <trkpt lat="44.29976" lon="3.23861">
        <ele>443.858723</ele>
        <time>2020-03-09T23:29:32.276Z</time>
      </trkpt>
      <trkpt lat="44.30013" lon="3.23848">
        <ele>444.36024</ele>
        <time>2020-03-09T23:29:41.923Z</time>
      </trkpt>
      <trkpt lat="44.30067" lon="3.23846">
        <ele>444.804419</ele>
        <time>2020-03-09T23:29:54.666Z</time>
      </trkpt>
      <trkpt lat="44.301" lon="3.2383">
        <ele>445.086722</ele>
        <time>2020-03-09T23:30:00.702Z</time>
      </trkpt>
      <trkpt lat="44.30142" lon="3.23799">
        <ele>445.475143</ele>
        <time>2020-03-09T23:30:07.824Z</time>
      </trkpt>
      <trkpt lat="44.30189" lon="3.23812">
        <ele>445.027289</ele>
        <time>2020-03-09T23:30:13.433Z</time>
      </trkpt>
      <trkpt lat="44.30219" lon="3.23809">
        <ele>444.36036</ele>
        <time>2020-03-09T23:30:16.809Z</time>
      </trkpt>
      <trkpt lat="44.30228" lon="3.23806">
        <ele>444.157491</ele>
        <time>2020-03-09T23:30:17.726Z</time>
      </trkpt>
      <trkpt lat="44.30238" lon="3.23803">
        <ele>443.934954</ele>
        <time>2020-03-09T23:30:18.669Z</time>
      </trkpt>
      <trkpt lat="44.30271" lon="3.23803">
        <ele>443.207676</ele>
        <time>2020-03-09T23:30:22.054Z</time>
      </trkpt>
      <trkpt lat="44.30306" lon="3.23815">
        <ele>442.411673</ele>
        <time>2020-03-09T23:30:25.708Z</time>
      </trkpt>
      <trkpt lat="44.30324" lon="3.23827">
        <ele>441.967983</ele>
        <time>2020-03-09T23:30:28.103Z</time>
      </trkpt>
      <trkpt lat="44.30361" lon="3.23868">
        <ele>441.743634</ele>
        <time>2020-03-09T23:30:33.114Z</time>
      </trkpt>
      <trkpt lat="44.30372" lon="3.23881">
        <ele>441.773555</ele>
        <time>2020-03-09T23:30:34.713Z</time>
      </trkpt>
      <trkpt lat="44.30383" lon="3.23893">
        <ele>441.801102</ele>
        <time>2020-03-09T23:30:38.299Z</time>
      </trkpt>
      <trkpt lat="44.30402" lon="3.23924">
        <ele>441.86022</ele>
        <time>2020-03-09T23:30:43.739Z</time>
      </trkpt>
      <trkpt lat="44.30414" lon="3.23956">
        <ele>441.911155</ele>
        <time>2020-03-09T23:30:47.344Z</time>
      </trkpt>
      <trkpt lat="44.30417" lon="3.23968">
        <ele>441.929458</ele>
        <time>2020-03-09T23:30:50.157Z</time>
      </trkpt>
      <trkpt lat="44.3042" lon="3.23977">
        <ele>441.943751</ele>
        <time>2020-03-09T23:30:52.318Z</time>
      </trkpt>
      <trkpt lat="44.30423" lon="3.24042">
        <ele>442.037975</ele>
        <time>2020-03-09T23:31:00.494Z</time>
      </trkpt>
      <trkpt lat="44.30422" lon="3.24053">
        <ele>442.061132</ele>
        <time>2020-03-09T23:31:01.395Z</time>
      </trkpt>
      <trkpt lat="44.30422" lon="3.24063">
        <ele>442.082717</ele>
        <time>2020-03-09T23:31:03.667Z</time>
      </trkpt>
      <trkpt lat="44.30423" lon="3.24102">
        <ele>442.167321</ele>
        <time>2020-03-09T23:31:09.442Z</time>
      </trkpt>
      <trkpt lat="44.30425" lon="3.24129">
        <ele>442.226523</ele>
        <time>2020-03-09T23:31:14.894Z</time>
      </trkpt>
      <trkpt lat="44.30426" lon="3.24177">
        <ele>442.328323</ele>
        <time>2020-03-09T23:31:21.474Z</time>
      </trkpt>
      <trkpt lat="44.30433" lon="3.24251">
        <ele>442.489955</ele>
        <time>2020-03-09T23:31:28.609Z</time>
      </trkpt>
      <trkpt lat="44.30453" lon="3.24342">
        <ele>442.331038</ele>
        <time>2020-03-09T23:31:36.359Z</time>
      </trkpt>
      <trkpt lat="44.30464" lon="3.24369">
        <ele>442.186128</ele>
        <time>2020-03-09T23:31:38.582Z</time>
      </trkpt>
      <trkpt lat="44.3049" lon="3.24399">
        <ele>441.966907</ele>
        <time>2020-03-09T23:31:42.240Z</time>
      </trkpt>
      <trkpt lat="44.3059" lon="3.24466">
        <ele>441.752177</ele>
        <time>2020-03-09T23:32:01.988Z</time>
      </trkpt>
      <trkpt lat="44.30611" lon="3.2448">
        <ele>442.070946</ele>
        <time>2020-03-09T23:32:05.827Z</time>
      </trkpt>
      <trkpt lat="44.30631" lon="3.24494">
        <ele>442.383841</ele>
        <time>2020-03-09T23:32:12.319Z</time>
      </trkpt>
      <trkpt lat="44.3067" lon="3.24527">
        <ele>443.003229</ele>
        <time>2020-03-09T23:32:20.476Z</time>
      </trkpt>
      <trkpt lat="44.30685" lon="3.2454">
        <ele>443.255706</ele>
        <time>2020-03-09T23:32:27.151Z</time>
      </trkpt>
      <trkpt lat="44.30694" lon="3.24549">
        <ele>443.406206</ele>
        <time>2020-03-09T23:32:28.911Z</time>
      </trkpt>
      <trkpt lat="44.307" lon="3.24556">
        <ele>443.505151</ele>
        <time>2020-03-09T23:32:29.555Z</time>
      </trkpt>
      <trkpt lat="44.30736" lon="3.24611">
        <ele>443.72784</ele>
        <time>2020-03-09T23:32:43.761Z</time>
      </trkpt>
      <trkpt lat="44.30748" lon="3.24629">
        <ele>443.632656</ele>
        <time>2020-03-09T23:32:45.586Z</time>
      </trkpt>
      <trkpt lat="44.30759" lon="3.24647">
        <ele>443.536636</ele>
        <time>2020-03-09T23:32:50.171Z</time>
      </trkpt>
      <trkpt lat="44.30763" lon="3.24654">
        <ele>443.498834</ele>
        <time>2020-03-09T23:32:50.975Z</time>
      </trkpt>
      <trkpt lat="44.30766" lon="3.24661">
        <ele>443.465443</ele>
        <time>2020-03-09T23:32:51.618Z</time>
      </trkpt>
      <trkpt lat="44.30768" lon="3.24671">
        <ele>443.42441</ele>
        <time>2020-03-09T23:32:52.264Z</time>
      </trkpt>
      <trkpt lat="44.3078" lon="3.24765">
        <ele>443.036431</ele>
        <time>2020-03-09T23:33:00.267Z</time>
      </trkpt>
      <trkpt lat="44.30808" lon="3.24827">
        <ele>443.087905</ele>
        <time>2020-03-09T23:33:06.359Z</time>
      </trkpt>
      <trkpt lat="44.30819" lon="3.24849">
        <ele>443.292948</ele>
        <time>2020-03-09T23:33:08.690Z</time>
      </trkpt>
      <trkpt lat="44.30826" lon="3.24862">
        <ele>443.412992</ele>
        <time>2020-03-09T23:33:09.951Z</time>
      </trkpt>
      <trkpt lat="44.30832" lon="3.24899">
        <ele>443.698266</ele>
        <time>2020-03-09T23:33:14.225Z</time>
      </trkpt>
      <trkpt lat="44.30832" lon="3.24913">
        <ele>443.803656</ele>
        <time>2020-03-09T23:33:15.872Z</time>
      </trkpt>
      <trkpt lat="44.30827" lon="3.24972">
        <ele>444.25375</ele>
        <time>2020-03-09T23:33:24.010Z</time>
      </trkpt>
      <trkpt lat="44.30819" lon="3.25088">
        <ele>446.318006</ele>
        <time>2020-03-09T23:33:48.187Z</time>
      </trkpt>
      <trkpt lat="44.30797" lon="3.25149">
        <ele>448.491271</ele>
        <time>2020-03-09T23:34:09.607Z</time>
      </trkpt>
      <trkpt lat="44.30787" lon="3.252">
        <ele>450.179483</ele>
        <time>2020-03-09T23:34:23.944Z</time>
      </trkpt>
      <trkpt lat="44.30784" lon="3.2522">
        <ele>450.831989</ele>
        <time>2020-03-09T23:34:28.995Z</time>
      </trkpt>
      <trkpt lat="44.30783" lon="3.25232">
        <ele>451.216508</ele>
        <time>2020-03-09T23:34:32.084Z</time>
      </trkpt>
      <trkpt lat="44.30781" lon="3.25244">
        <ele>451.6086</ele>
        <time>2020-03-09T23:34:33.756Z</time>
      </trkpt>
      <trkpt lat="44.30773" lon="3.25273">
        <ele>452.585378</ele>
        <time>2020-03-09T23:34:40.319Z</time>
      </trkpt>
      <trkpt lat="44.30766" lon="3.25309">
        <ele>452.849822</ele>
        <time>2020-03-09T23:34:46.000Z</time>
      </trkpt>
      <trkpt lat="44.30764" lon="3.25319">
        <ele>452.882242</ele>
        <time>2020-03-09T23:34:47.684Z</time>
      </trkpt>
      <trkpt lat="44.30761" lon="3.2533">
        <ele>452.916236</ele>
        <time>2020-03-09T23:34:48.851Z</time>
      </trkpt>
      <trkpt lat="44.30757" lon="3.25338">
        <ele>452.944996</ele>
        <time>2020-03-09T23:34:49.545Z</time>
      </trkpt>
      <trkpt lat="44.30751" lon="3.25346">
        <ele>452.980079</ele>
        <time>2020-03-09T23:34:51.928Z</time>
      </trkpt>
      <trkpt lat="44.30735" lon="3.25361">
        <ele>453.062079</ele>
        <time>2020-03-09T23:34:54.244Z</time>
      </trkpt>
      <trkpt lat="44.307" lon="3.25393">
        <ele>453.237007</ele>
        <time>2020-03-09T23:34:59.980Z</time>
      </trkpt>
      <trkpt lat="44.30684" lon="3.25408">
        <ele>453.31569</ele>
        <time>2020-03-09T23:35:06.186Z</time>
      </trkpt>
      <trkpt lat="44.30671" lon="3.25417">
        <ele>453.378376</ele>
        <time>2020-03-09T23:35:07.583Z</time>
      </trkpt>
      <trkpt lat="44.30633" lon="3.25465">
        <ele>453.723789</ele>
        <time>2020-03-09T23:35:14.331Z</time>
      </trkpt>
      <trkpt lat="44.30616" lon="3.2549">
        <ele>453.989092</ele>
        <time>2020-03-09T23:35:16.865Z</time>
      </trkpt>
      <trkpt lat="44.30607" lon="3.25509">
        <ele>454.161513</ele>
        <time>2020-03-09T23:35:22.354Z</time>
      </trkpt>
      <trkpt lat="44.30587" lon="3.25568">
        <ele>454.663947</ele>
        <time>2020-03-09T23:35:30.474Z</time>
      </trkpt>
      <trkpt lat="44.3057" lon="3.25642">
        <ele>455.262853</ele>
        <time>2020-03-09T23:35:43.062Z</time>
      </trkpt>
      <trkpt lat="44.30566" lon="3.25668">
        <ele>455.467886</ele>
        <time>2020-03-09T23:35:48.372Z</time>
      </trkpt>
      <trkpt lat="44.30563" lon="3.2569">
        <ele>455.656584</ele>
        <time>2020-03-09T23:35:52.266Z</time>
      </trkpt>
      <trkpt lat="44.3056" lon="3.25765">
        <ele>456.268696</ele>
        <time>2020-03-09T23:36:07.690Z</time>
      </trkpt>
      <trkpt lat="44.30562" lon="3.25788">
        <ele>456.462399</ele>
        <time>2020-03-09T23:36:10.124Z</time>
      </trkpt>
      <trkpt lat="44.30569" lon="3.2583">
        <ele>456.820244</ele>
        <time>2020-03-09T23:36:16.588Z</time>
      </trkpt>
      <trkpt lat="44.30573" lon="3.25879">
        <ele>457.226269</ele>
        <time>2020-03-09T23:36:22.660Z</time>
      </trkpt>
      <trkpt lat="44.30568" lon="3.2599">
        <ele>456.397882</ele>
        <time>2020-03-09T23:36:31.562Z</time>
      </trkpt>
      <trkpt lat="44.3055" lon="3.26228">
        <ele>452.464326</ele>
        <time>2020-03-09T23:36:49.989Z</time>
      </trkpt>
      <trkpt lat="44.3055" lon="3.26241">
        <ele>452.197317</ele>
        <time>2020-03-09T23:36:50.912Z</time>
      </trkpt>
      <trkpt lat="44.30548" lon="3.26266">
        <ele>451.633041</ele>
        <time>2020-03-09T23:36:52.725Z</time>
      </trkpt>
      <trkpt lat="44.30548" lon="3.2634">
        <ele>450.01507</ele>
        <time>2020-03-09T23:36:57.945Z</time>
      </trkpt>
      <trkpt lat="44.3056" lon="3.26427">
        <ele>448.373926</ele>
        <time>2020-03-09T23:37:04.287Z</time>
      </trkpt>
      <trkpt lat="44.30558" lon="3.26455">
        <ele>448.3328</ele>
        <time>2020-03-09T23:37:06.467Z</time>
      </trkpt>
      <trkpt lat="44.30544" lon="3.26506">
        <ele>448.249892</ele>
        <time>2020-03-09T23:37:11.655Z</time>
      </trkpt>
      <trkpt lat="44.30539" lon="3.26523">
        <ele>448.222624</ele>
        <time>2020-03-09T23:37:13.029Z</time>
      </trkpt>
      <trkpt lat="44.30537" lon="3.2653">
        <ele>448.211606</ele>
        <time>2020-03-09T23:37:13.684Z</time>
      </trkpt>
      <trkpt lat="44.30537" lon="3.26562">
        <ele>448.164249</ele>
        <time>2020-03-09T23:37:18.395Z</time>
      </trkpt>
      <trkpt lat="44.30546" lon="3.26589">
        <ele>448.119203</ele>
        <time>2020-03-09T23:37:21.288Z</time>
      </trkpt>
      <trkpt lat="44.30546" lon="3.26591">
        <ele>448.116496</ele>
        <time>2020-03-09T23:37:21.423Z</time>
      </trkpt>
      <trkpt lat="44.3055" lon="3.266">
        <ele>448.100805</ele>
        <time>2020-03-09T23:37:24.778Z</time>
      </trkpt>
      <trkpt lat="44.30553" lon="3.26634">
        <ele>448.049653</ele>
        <time>2020-03-09T23:37:28.467Z</time>
      </trkpt>
      <trkpt lat="44.30547" lon="3.26686">
        <ele>448.3315</ele>
        <time>2020-03-09T23:37:37.419Z</time>
      </trkpt>
      <trkpt lat="44.30523" lon="3.26756">
        <ele>449.074445</ele>
        <time>2020-03-09T23:37:52.268Z</time>
      </trkpt>
      <trkpt lat="44.30484" lon="3.26807">
        <ele>449.794917</ele>
        <time>2020-03-09T23:38:04.199Z</time>
      </trkpt>
      <trkpt lat="44.30425" lon="3.2686">
        <ele>450.201281</ele>
        <time>2020-03-09T23:38:13.713Z</time>
      </trkpt>
      <trkpt lat="44.30412" lon="3.2687">
        <ele>450.04554</ele>
        <time>2020-03-09T23:38:15.478Z</time>
      </trkpt>
      <trkpt lat="44.30403" lon="3.26879">
        <ele>449.931605</ele>
        <time>2020-03-09T23:38:16.649Z</time>
      </trkpt>
      <trkpt lat="44.30344" lon="3.26944">
        <ele>449.155685</ele>
        <time>2020-03-09T23:38:25.150Z</time>
      </trkpt>
      <trkpt lat="44.30304" lon="3.27011">
        <ele>448.680861</ele>
        <time>2020-03-09T23:38:32.456Z</time>
      </trkpt>
      <trkpt lat="44.30293" lon="3.27066">
        <ele>449.504458</ele>
        <time>2020-03-09T23:38:38.995Z</time>
      </trkpt>
      <trkpt lat="44.30297" lon="3.2712">
        <ele>450.29039</ele>
        <time>2020-03-09T23:38:47.625Z</time>
      </trkpt>
      <trkpt lat="44.30269" lon="3.27154">
        <ele>451.038643</ele>
        <time>2020-03-09T23:38:57.263Z</time>
      </trkpt>
      <trkpt lat="44.30256" lon="3.27187">
        <ele>451.574404</ele>
        <time>2020-03-09T23:39:04.934Z</time>
      </trkpt>
      <trkpt lat="44.30254" lon="3.27209">
        <ele>451.885198</ele>
        <time>2020-03-09T23:39:09.736Z</time>
      </trkpt>
      <trkpt lat="44.30262" lon="3.27256">
        <ele>452.844294</ele>
        <time>2020-03-09T23:39:21.013Z</time>
      </trkpt>
      <trkpt lat="44.30253" lon="3.27301">
        <ele>453.948579</ele>
        <time>2020-03-09T23:39:31.516Z</time>
      </trkpt>
      <trkpt lat="44.30163" lon="3.27381">
        <ele>457.409996</ele>
        <time>2020-03-09T23:40:01.176Z</time>
      </trkpt>
      <trkpt lat="44.30159" lon="3.27384">
        <ele>457.553177</ele>
        <time>2020-03-09T23:40:02.286Z</time>
      </trkpt>
      <trkpt lat="44.30152" lon="3.27393">
        <ele>457.864494</ele>
        <time>2020-03-09T23:40:04.451Z</time>
      </trkpt>
      <trkpt lat="44.30144" lon="3.27405">
        <ele>458.144761</ele>
        <time>2020-03-09T23:40:07.200Z</time>
      </trkpt>
      <trkpt lat="44.30117" lon="3.2744">
        <ele>458.792793</ele>
        <time>2020-03-09T23:40:15.361Z</time>
      </trkpt>
      <trkpt lat="44.30088" lon="3.27496">
        <ele>459.678372</ele>
        <time>2020-03-09T23:40:25.884Z</time>
      </trkpt>
      <trkpt lat="44.30073" lon="3.27543">
        <ele>460.327161</ele>
        <time>2020-03-09T23:40:32.989Z</time>
      </trkpt>
      <trkpt lat="44.30037" lon="3.27624">
        <ele>461.725042</ele>
        <time>2020-03-09T23:40:47.658Z</time>
      </trkpt>
      <trkpt lat="44.2998" lon="3.27691">
        <ele>463.729024</ele>
        <time>2020-03-09T23:41:05.677Z</time>
      </trkpt>
      <trkpt lat="44.29975" lon="3.27716">
        <ele>464.229469</ele>
        <time>2020-03-09T23:41:10.747Z</time>
      </trkpt>
      <trkpt lat="44.29988" lon="3.27767">
        <ele>465.269213</ele>
        <time>2020-03-09T23:41:21.482Z</time>
      </trkpt>
      <trkpt lat="44.29986" lon="3.27787">
        <ele>465.669047</ele>
        <time>2020-03-09T23:41:25.405Z</time>
      </trkpt>
      <trkpt lat="44.29978" lon="3.27804">
        <ele>466.060699</ele>
        <time>2020-03-09T23:41:29.971Z</time>
      </trkpt>
      <trkpt lat="44.29945" lon="3.27839">
        <ele>467.407535</ele>
        <time>2020-03-09T23:41:42.476Z</time>
      </trkpt>
      <trkpt lat="44.29938" lon="3.2786">
        <ele>467.923799</ele>
        <time>2020-03-09T23:41:46.916Z</time>
      </trkpt>
      <trkpt lat="44.29933" lon="3.27913">
        <ele>469.167013</ele>
        <time>2020-03-09T23:41:58.333Z</time>
      </trkpt>
      <trkpt lat="44.29926" lon="3.27935">
        <ele>469.696842</ele>
        <time>2020-03-09T23:42:03.129Z</time>
      </trkpt>
      <trkpt lat="44.29891" lon="3.27984">
        <ele>471.300187</ele>
        <time>2020-03-09T23:42:15.816Z</time>
      </trkpt>
      <trkpt lat="44.29862" lon="3.28034">
        <ele>472.273556</ele>
        <time>2020-03-09T23:42:27.733Z</time>
      </trkpt>
      <trkpt lat="44.2985" lon="3.28076">
        <ele>472.746654</ele>
        <time>2020-03-09T23:42:35.747Z</time>
      </trkpt>
      <trkpt lat="44.29849" lon="3.28113">
        <ele>473.13103</ele>
        <time>2020-03-09T23:42:41.628Z</time>
      </trkpt>
      <trkpt lat="44.29843" lon="3.28128">
        <ele>473.302024</ele>
        <time>2020-03-09T23:42:44.295Z</time>
      </trkpt>
      <trkpt lat="44.2983" lon="3.28141">
        <ele>473.546287</ele>
        <time>2020-03-09T23:42:47.113Z</time>
      </trkpt>
      <trkpt lat="44.29793" lon="3.28145">
        <ele>474.078365</ele>
        <time>2020-03-09T23:42:53.391Z</time>
      </trkpt>
      <trkpt lat="44.29776" lon="3.28157">
        <ele>474.363664</ele>
        <time>2020-03-09T23:42:56.880Z</time>
      </trkpt>
      <trkpt lat="44.29742" lon="3.28232">
        <ele>474.021184</ele>
        <time>2020-03-09T23:43:06.037Z</time>
      </trkpt>
      <trkpt lat="44.29738" lon="3.2825">
        <ele>473.914897</ele>
        <time>2020-03-09T23:43:07.820Z</time>
      </trkpt>
      <trkpt lat="44.29748" lon="3.28293">
        <ele>473.651021</ele>
        <time>2020-03-09T23:43:12.095Z</time>
      </trkpt>
      <trkpt lat="44.29771" lon="3.28342">
        <ele>473.313946</ele>
        <time>2020-03-09T23:43:17.232Z</time>
      </trkpt>
      <trkpt lat="44.29773" lon="3.28355">
        <ele>473.241356</ele>
        <time>2020-03-09T23:43:18.266Z</time>
      </trkpt>
      <trkpt lat="44.29771" lon="3.28386">
        <ele>473.057509</ele>
        <time>2020-03-09T23:43:20.808Z</time>
      </trkpt>
      <trkpt lat="44.29748" lon="3.28448">
        <ele>471.467747</ele>
        <time>2020-03-09T23:43:26.224Z</time>
      </trkpt>
      <trkpt lat="44.29769" lon="3.28536">
        <ele>469.205346</ele>
        <time>2020-03-09T23:43:33.035Z</time>
      </trkpt>
      <trkpt lat="44.29752" lon="3.28612">
        <ele>467.275718</ele>
        <time>2020-03-09T23:43:38.535Z</time>
      </trkpt>
      <trkpt lat="44.29765" lon="3.28662">
        <ele>465.535363</ele>
        <time>2020-03-09T23:43:42.106Z</time>
      </trkpt>
      <trkpt lat="44.29765" lon="3.28741">
        <ele>462.681005</ele>
        <time>2020-03-09T23:43:47.414Z</time>
      </trkpt>
      <trkpt lat="44.29782" lon="3.28788">
        <ele>460.770744</ele>
        <time>2020-03-09T23:43:50.953Z</time>
      </trkpt>
      <trkpt lat="44.29777" lon="3.28856">
        <ele>458.302507</ele>
        <time>2020-03-09T23:43:55.554Z</time>
      </trkpt>
      <trkpt lat="44.29799" lon="3.28928">
        <ele>456.661818</ele>
        <time>2020-03-09T23:44:00.921Z</time>
      </trkpt>
      <trkpt lat="44.29818" lon="3.28945">
        <ele>456.071653</ele>
        <time>2020-03-09T23:44:03.221Z</time>
      </trkpt>
      <trkpt lat="44.29855" lon="3.28946">
        <ele>455.117087</ele>
        <time>2020-03-09T23:44:07.110Z</time>
      </trkpt>
      <trkpt lat="44.29907" lon="3.28966">
        <ele>453.733609</ele>
        <time>2020-03-09T23:44:13.284Z</time>
      </trkpt>
      <trkpt lat="44.30043" lon="3.29107">
        <ele>452.667129</ele>
        <time>2020-03-09T23:44:36.947Z</time>
      </trkpt>
      <trkpt lat="44.30069" lon="3.29192">
        <ele>452.110994</ele>
        <time>2020-03-09T23:44:46.308Z</time>
      </trkpt>
      <trkpt lat="44.30112" lon="3.29297">
        <ele>451.065991</ele>
        <time>2020-03-09T23:44:57.016Z</time>
      </trkpt>
      <trkpt lat="44.30138" lon="3.29394">
        <ele>450.032683</ele>
        <time>2020-03-09T23:45:05.022Z</time>
      </trkpt>
      <trkpt lat="44.30178" lon="3.29458">
        <ele>448.838583</ele>
        <time>2020-03-09T23:45:11.540Z</time>
      </trkpt>
      <trkpt lat="44.30181" lon="3.29494">
        <ele>448.317273</ele>
        <time>2020-03-09T23:45:14.462Z</time>
      </trkpt>
      <trkpt lat="44.30179" lon="3.29515">
        <ele>448.013097</ele>
        <time>2020-03-09T23:45:16.044Z</time>
      </trkpt>
      <trkpt lat="44.30179" lon="3.29526">
        <ele>447.855779</ele>
        <time>2020-03-09T23:45:16.930Z</time>
      </trkpt>
      <trkpt lat="44.30184" lon="3.29545">
        <ele>447.580214</ele>
        <time>2020-03-09T23:45:18.570Z</time>
      </trkpt>
      <trkpt lat="44.30221" lon="3.29584">
        <ele>446.780415</ele>
        <time>2020-03-09T23:45:23.774Z</time>
      </trkpt>
      <trkpt lat="44.30295" lon="3.29588">
        <ele>446.467102</ele>
        <time>2020-03-09T23:45:32.693Z</time>
      </trkpt>
      <trkpt lat="44.30336" lon="3.29626">
        <ele>446.260563</ele>
        <time>2020-03-09T23:45:40.062Z</time>
      </trkpt>
      <trkpt lat="44.30416" lon="3.29661">
        <ele>446.213037</ele>
        <time>2020-03-09T23:45:54.770Z</time>
      </trkpt>
      <trkpt lat="44.30457" lon="3.29694">
        <ele>446.416258</ele>
        <time>2020-03-09T23:46:02.645Z</time>
      </trkpt>
      <trkpt lat="44.30488" lon="3.29743">
        <ele>446.623135</ele>
        <time>2020-03-09T23:46:10.617Z</time>
      </trkpt>
      <trkpt lat="44.3053" lon="3.29779">
        <ele>446.839001</ele>
        <time>2020-03-09T23:46:18.389Z</time>
      </trkpt>
      <trkpt lat="44.30613" lon="3.2994">
        <ele>447.337895</ele>
        <time>2020-03-09T23:46:40.565Z</time>
      </trkpt>
      <trkpt lat="44.3062" lon="3.30009">
        <ele>447.722672</ele>
        <time>2020-03-09T23:46:48.805Z</time>
      </trkpt>
      <trkpt lat="44.30638" lon="3.30058">
        <ele>448.618059</ele>
        <time>2020-03-09T23:46:56.129Z</time>
      </trkpt>
      <trkpt lat="44.30648" lon="3.30109">
        <ele>449.477877</ele>
        <time>2020-03-09T23:47:05.711Z</time>
      </trkpt>
      <trkpt lat="44.30651" lon="3.30173">
        <ele>450.518806</ele>
        <time>2020-03-09T23:47:17.513Z</time>
      </trkpt>
      <trkpt lat="44.30635" lon="3.30233">
        <ele>451.553603</ele>
        <time>2020-03-09T23:47:30.170Z</time>
      </trkpt>
      <trkpt lat="44.30643" lon="3.30271">
        <ele>452.565706</ele>
        <time>2020-03-09T23:47:38.548Z</time>
      </trkpt>
      <trkpt lat="44.30649" lon="3.30287">
        <ele>453.025865</ele>
        <time>2020-03-09T23:47:42.472Z</time>
      </trkpt>
      <trkpt lat="44.30652" lon="3.30296">
        <ele>453.265168</ele>
        <time>2020-03-09T23:47:45.392Z</time>
      </trkpt>
      <trkpt lat="44.30651" lon="3.30328">
        <ele>454.077153</ele>
        <time>2020-03-09T23:47:51.449Z</time>
      </trkpt>
      <trkpt lat="44.30624" lon="3.30361">
        <ele>455.348046</ele>
        <time>2020-03-09T23:48:02.277Z</time>
      </trkpt>
      <trkpt lat="44.30612" lon="3.30385">
        <ele>456.085884</ele>
        <time>2020-03-09T23:48:09.017Z</time>
      </trkpt>
      <trkpt lat="44.30584" lon="3.30466">
        <ele>458.173657</ele>
        <time>2020-03-09T23:48:28.014Z</time>
      </trkpt>
      <trkpt lat="44.30564" lon="3.30509">
        <ele>458.881246</ele>
        <time>2020-03-09T23:48:36.165Z</time>
      </trkpt>
      <trkpt lat="44.30542" lon="3.3059">
        <ele>460.060855</ele>
        <time>2020-03-09T23:48:49.447Z</time>
      </trkpt>
      <trkpt lat="44.30486" lon="3.30677">
        <ele>461.709104</ele>
        <time>2020-03-09T23:49:06.485Z</time>
      </trkpt>
      <trkpt lat="44.30471" lon="3.30716">
        <ele>462.384036</ele>
        <time>2020-03-09T23:49:12.862Z</time>
      </trkpt>
      <trkpt lat="44.30416" lon="3.30826">
        <ele>464.478783</ele>
        <time>2020-03-09T23:49:35.569Z</time>
      </trkpt>
      <trkpt lat="44.30399" lon="3.30883">
        <ele>465.487492</ele>
        <time>2020-03-09T23:49:47.219Z</time>
      </trkpt>
      <trkpt lat="44.30356" lon="3.3097">
        <ele>467.609013</ele>
        <time>2020-03-09T23:50:08.443Z</time>
      </trkpt>
      <trkpt lat="44.30317" lon="3.31027">
        <ele>469.201924</ele>
        <time>2020-03-09T23:50:24.750Z</time>
      </trkpt>
      <trkpt lat="44.30256" lon="3.31089">
        <ele>469.844492</ele>
        <time>2020-03-09T23:50:42.178Z</time>
      </trkpt>
      <trkpt lat="44.30179" lon="3.31145">
        <ele>468.674277</ele>
        <time>2020-03-09T23:50:53.309Z</time>
      </trkpt>
      <trkpt lat="44.30173" lon="3.31153">
        <ele>468.565961</ele>
        <time>2020-03-09T23:50:54.326Z</time>
      </trkpt>
      <trkpt lat="44.30165" lon="3.31163">
        <ele>468.421372</ele>
        <time>2020-03-09T23:50:55.346Z</time>
      </trkpt>
      <trkpt lat="44.30135" lon="3.31189">
        <ele>467.934494</ele>
        <time>2020-03-09T23:50:58.803Z</time>
      </trkpt>
      <trkpt lat="44.30091" lon="3.31209">
        <ele>465.359072</ele>
        <time>2020-03-09T23:51:02.988Z</time>
      </trkpt>
      <trkpt lat="44.30007" lon="3.31269">
        <ele>459.792697</ele>
        <time>2020-03-09T23:51:11.631Z</time>
      </trkpt>
      <trkpt lat="44.30002" lon="3.31275">
        <ele>459.424842</ele>
        <time>2020-03-09T23:51:12.149Z</time>
      </trkpt>
      <trkpt lat="44.29999" lon="3.31283">
        <ele>459.057205</ele>
        <time>2020-03-09T23:51:12.746Z</time>
      </trkpt>
      <trkpt lat="44.30003" lon="3.31312">
        <ele>457.813536</ele>
        <time>2020-03-09T23:51:14.829Z</time>
      </trkpt>
      <trkpt lat="44.30038" lon="3.3137">
        <ele>455.55251</ele>
        <time>2020-03-09T23:51:19.811Z</time>
      </trkpt>
      <trkpt lat="44.30078" lon="3.31422">
        <ele>453.468504</ele>
        <time>2020-03-09T23:51:25.049Z</time>
      </trkpt>
      <trkpt lat="44.30101" lon="3.31489">
        <ele>451.413058</ele>
        <time>2020-03-09T23:51:30.675Z</time>
      </trkpt>
      <trkpt lat="44.30118" lon="3.31585">
        <ele>449.910605</ele>
        <time>2020-03-09T23:51:39.072Z</time>
      </trkpt>
      <trkpt lat="44.30122" lon="3.31603">
        <ele>449.746212</ele>
        <time>2020-03-09T23:51:40.562Z</time>
      </trkpt>
      <trkpt lat="44.30128" lon="3.31628">
        <ele>449.531269</ele>
        <time>2020-03-09T23:51:43.342Z</time>
      </trkpt>
      <trkpt lat="44.30139" lon="3.31681">
        <ele>449.067265</ele>
        <time>2020-03-09T23:51:48.107Z</time>
      </trkpt>
      <trkpt lat="44.30139" lon="3.31693">
        <ele>448.962714</ele>
        <time>2020-03-09T23:51:49.170Z</time>
      </trkpt>
      <trkpt lat="44.30139" lon="3.31709">
        <ele>448.832429</ele>
        <time>2020-03-09T23:51:50.328Z</time>
      </trkpt>
      <trkpt lat="44.30128" lon="3.31783">
        <ele>448.269225</ele>
        <time>2020-03-09T23:51:57.339Z</time>
      </trkpt>
      <trkpt lat="44.30127" lon="3.31832">
        <ele>448.10728</ele>
        <time>2020-03-09T23:52:01.826Z</time>
      </trkpt>
      <trkpt lat="44.30127" lon="3.31845">
        <ele>448.064458</ele>
        <time>2020-03-09T23:52:03.174Z</time>
      </trkpt>
      <trkpt lat="44.30127" lon="3.31865">
        <ele>448.001544</ele>
        <time>2020-03-09T23:52:04.658Z</time>
      </trkpt>
      <trkpt lat="44.30126" lon="3.31905">
        <ele>447.867714</ele>
        <time>2020-03-09T23:52:09.090Z</time>
      </trkpt>
      <trkpt lat="44.30124" lon="3.31928">
        <ele>447.792737</ele>
        <time>2020-03-09T23:52:11.224Z</time>
      </trkpt>
      <trkpt lat="44.30124" lon="3.31939">
        <ele>447.757489</ele>
        <time>2020-03-09T23:52:12.149Z</time>
      </trkpt>
      <trkpt lat="44.30124" lon="3.31946">
        <ele>447.733438</ele>
        <time>2020-03-09T23:52:12.910Z</time>
      </trkpt>
      <trkpt lat="44.30125" lon="3.31953">
        <ele>447.708787</ele>
        <time>2020-03-09T23:52:13.783Z</time>
      </trkpt>
      <trkpt lat="44.30126" lon="3.31958">
        <ele>447.694437</ele>
        <time>2020-03-09T23:52:14.204Z</time>
      </trkpt>
      <trkpt lat="44.30129" lon="3.31974">
        <ele>447.638792</ele>
        <time>2020-03-09T23:52:15.928Z</time>
      </trkpt>
      <trkpt lat="44.30129" lon="3.31978">
        <ele>447.626616</ele>
        <time>2020-03-09T23:52:16.312Z</time>
      </trkpt>
      <trkpt lat="44.30132" lon="3.32017">
        <ele>447.49638</ele>
        <time>2020-03-09T23:52:20.385Z</time>
      </trkpt>
      <trkpt lat="44.30131" lon="3.32024">
        <ele>447.518905</ele>
        <time>2020-03-09T23:52:21.289Z</time>
      </trkpt>
      <trkpt lat="44.30126" lon="3.32047">
        <ele>447.62018</ele>
        <time>2020-03-09T23:52:24.406Z</time>
      </trkpt>
      <trkpt lat="44.30125" lon="3.32049">
        <ele>447.629957</ele>
        <time>2020-03-09T23:52:24.582Z</time>
      </trkpt>
      <trkpt lat="44.30125" lon="3.32058">
        <ele>447.667725</ele>
        <time>2020-03-09T23:52:25.357Z</time>
      </trkpt>
      <trkpt lat="44.30126" lon="3.32065">
        <ele>447.699061</ele>
        <time>2020-03-09T23:52:26.053Z</time>
      </trkpt>
      <trkpt lat="44.30127" lon="3.32071">
        <ele>447.723829</ele>
        <time>2020-03-09T23:52:26.629Z</time>
      </trkpt>
      <trkpt lat="44.3013" lon="3.3209">
        <ele>447.806801</ele>
        <time>2020-03-09T23:52:28.755Z</time>
      </trkpt>
      <trkpt lat="44.30131" lon="3.32098">
        <ele>447.842159</ele>
        <time>2020-03-09T23:52:30.175Z</time>
      </trkpt>
      <trkpt lat="44.30141" lon="3.32131">
        <ele>447.993826</ele>
        <time>2020-03-09T23:52:34.002Z</time>
      </trkpt>
      <trkpt lat="44.3018" lon="3.32202">
        <ele>448.371741</ele>
        <time>2020-03-09T23:52:45.235Z</time>
      </trkpt>
      <trkpt lat="44.30186" lon="3.32214">
        <ele>448.43632</ele>
        <time>2020-03-09T23:52:47.208Z</time>
      </trkpt>
      <trkpt lat="44.30198" lon="3.32236">
        <ele>448.55021</ele>
        <time>2020-03-09T23:52:50.811Z</time>
      </trkpt>
      <trkpt lat="44.30209" lon="3.32256">
        <ele>448.735626</ele>
        <time>2020-03-09T23:52:54.660Z</time>
      </trkpt>
      <trkpt lat="44.30217" lon="3.32271">
        <ele>448.876099</ele>
        <time>2020-03-09T23:52:58.397Z</time>
      </trkpt>
      <trkpt lat="44.30239" lon="3.32299">
        <ele>449.195614</ele>
        <time>2020-03-09T23:53:04.838Z</time>
      </trkpt>
      <trkpt lat="44.30274" lon="3.32328">
        <ele>449.629123</ele>
        <time>2020-03-09T23:53:12.579Z</time>
      </trkpt>
      <trkpt lat="44.30283" lon="3.32339">
        <ele>449.754102</ele>
        <time>2020-03-09T23:53:14.789Z</time>
      </trkpt>
      <trkpt lat="44.30293" lon="3.32351">
        <ele>449.891787</ele>
        <time>2020-03-09T23:53:17.124Z</time>
      </trkpt>
      <trkpt lat="44.30301" lon="3.32363">
        <ele>450.018631</ele>
        <time>2020-03-09T23:53:19.145Z</time>
      </trkpt>
      <trkpt lat="44.30312" lon="3.32381">
        <ele>450.20056</ele>
        <time>2020-03-09T23:53:21.807Z</time>
      </trkpt>
      <trkpt lat="44.3032" lon="3.32393">
        <ele>450.323983</ele>
        <time>2020-03-09T23:53:23.895Z</time>
      </trkpt>
      <trkpt lat="44.30327" lon="3.32406">
        <ele>450.447504</ele>
        <time>2020-03-09T23:53:25.689Z</time>
      </trkpt>
      <trkpt lat="44.30334" lon="3.32415">
        <ele>450.527215</ele>
        <time>2020-03-09T23:53:27.931Z</time>
      </trkpt>
      <trkpt lat="44.30342" lon="3.32424">
        <ele>450.606269</ele>
        <time>2020-03-09T23:53:29.300Z</time>
      </trkpt>
      <trkpt lat="44.3045" lon="3.32571">
        <ele>451.776965</ele>
        <time>2020-03-09T23:53:56.254Z</time>
      </trkpt>
      <trkpt lat="44.30661" lon="3.32892">
        <ele>454.784012</ele>
        <time>2020-03-09T23:54:55.762Z</time>
      </trkpt>
      <trkpt lat="44.30745" lon="3.32985">
        <ele>455.382774</ele>
        <time>2020-03-09T23:55:14.004Z</time>
      </trkpt>
      <trkpt lat="44.30785" lon="3.3301">
        <ele>455.456891</ele>
        <time>2020-03-09T23:55:21.138Z</time>
      </trkpt>
      <trkpt lat="44.30808" lon="3.33029">
        <ele>455.50264</ele>
        <time>2020-03-09T23:55:25.087Z</time>
      </trkpt>
      <trkpt lat="44.30865" lon="3.33074">
        <ele>455.599601</ele>
        <time>2020-03-09T23:55:34.533Z</time>
      </trkpt>
      <trkpt lat="44.30904" lon="3.33104">
        <ele>455.525326</ele>
        <time>2020-03-09T23:55:40.790Z</time>
      </trkpt>
      <trkpt lat="44.30954" lon="3.33153">
        <ele>455.425533</ele>
        <time>2020-03-09T23:55:48.841Z</time>
      </trkpt>
      <trkpt lat="44.30977" lon="3.3319">
        <ele>455.3679</ele>
        <time>2020-03-09T23:55:53.983Z</time>
      </trkpt>
      <trkpt lat="44.31027" lon="3.33249">
        <ele>455.386075</ele>
        <time>2020-03-09T23:56:04.341Z</time>
      </trkpt>
      <trkpt lat="44.31037" lon="3.33263">
        <ele>455.419875</ele>
        <time>2020-03-09T23:56:06.014Z</time>
      </trkpt>
      <trkpt lat="44.31046" lon="3.33279">
        <ele>455.457242</ele>
        <time>2020-03-09T23:56:08.902Z</time>
      </trkpt>
      <trkpt lat="44.31113" lon="3.33419">
        <ele>455.760407</ele>
        <time>2020-03-09T23:56:28.192Z</time>
      </trkpt>
      <trkpt lat="44.31149" lon="3.33473">
        <ele>455.733778</ele>
        <time>2020-03-09T23:56:36.679Z</time>
      </trkpt>
      <trkpt lat="44.31171" lon="3.33522">
        <ele>455.71178</ele>
        <time>2020-03-09T23:56:42.524Z</time>
      </trkpt>
      <trkpt lat="44.31204" lon="3.33578">
        <ele>455.684151</ele>
        <time>2020-03-09T23:56:49.113Z</time>
      </trkpt>
      <trkpt lat="44.31247" lon="3.33633">
        <ele>455.749772</ele>
        <time>2020-03-09T23:56:58.534Z</time>
      </trkpt>
      <trkpt lat="44.31279" lon="3.33661">
        <ele>455.886038</ele>
        <time>2020-03-09T23:57:04.385Z</time>
      </trkpt>
      <trkpt lat="44.31288" lon="3.33669">
        <ele>455.923652</ele>
        <time>2020-03-09T23:57:05.530Z</time>
      </trkpt>
      <trkpt lat="44.31298" lon="3.33678">
        <ele>455.966125</ele>
        <time>2020-03-09T23:57:08.564Z</time>
      </trkpt>
      <trkpt lat="44.31361" lon="3.33754">
        <ele>456.259862</ele>
        <time>2020-03-09T23:57:22.778Z</time>
      </trkpt>
      <trkpt lat="44.31441" lon="3.33822">
        <ele>456.52921</ele>
        <time>2020-03-09T23:57:38.905Z</time>
      </trkpt>
      <trkpt lat="44.31522" lon="3.33862">
        <ele>456.766036</ele>
        <time>2020-03-09T23:57:51.811Z</time>
      </trkpt>
      <trkpt lat="44.31568" lon="3.33919">
        <ele>456.841527</ele>
        <time>2020-03-09T23:58:00.491Z</time>
      </trkpt>
      <trkpt lat="44.31585" lon="3.33955">
        <ele>456.867128</ele>
        <time>2020-03-09T23:58:04.793Z</time>
      </trkpt>
      <trkpt lat="44.31631" lon="3.34089">
        <ele>456.946534</ele>
        <time>2020-03-09T23:58:21.790Z</time>
      </trkpt>
      <trkpt lat="44.3165" lon="3.34125">
        <ele>456.929973</ele>
        <time>2020-03-09T23:58:27.018Z</time>
      </trkpt>
      <trkpt lat="44.31662" lon="3.34179">
        <ele>456.908452</ele>
        <time>2020-03-09T23:58:33.372Z</time>
      </trkpt>
      <trkpt lat="44.31666" lon="3.34196">
        <ele>456.901681</ele>
        <time>2020-03-09T23:58:36.227Z</time>
      </trkpt>
      <trkpt lat="44.31669" lon="3.34206">
        <ele>456.897764</ele>
        <time>2020-03-09T23:58:37.026Z</time>
      </trkpt>
      <trkpt lat="44.31683" lon="3.34298">
        <ele>456.862315</ele>
        <time>2020-03-09T23:58:46.150Z</time>
      </trkpt>
      <trkpt lat="44.31712" lon="3.34419">
        <ele>456.545005</ele>
        <time>2020-03-09T23:58:58.175Z</time>
      </trkpt>
      <trkpt lat="44.31717" lon="3.34434">
        <ele>456.497685</ele>
        <time>2020-03-09T23:58:59.454Z</time>
      </trkpt>
      <trkpt lat="44.31722" lon="3.34448">
        <ele>456.456518</ele>
        <time>2020-03-09T23:59:01.155Z</time>
      </trkpt>
      <trkpt lat="44.31748" lon="3.34518">
        <ele>456.23192</ele>
        <time>2020-03-09T23:59:08.540Z</time>
      </trkpt>
      <trkpt lat="44.31774" lon="3.34555">
        <ele>456.357504</ele>
        <time>2020-03-09T23:59:14.232Z</time>
      </trkpt>
      <trkpt lat="44.31816" lon="3.34589">
        <ele>457.096758</ele>
        <time>2020-03-09T23:59:23.315Z</time>
      </trkpt>
      <trkpt lat="44.31869" lon="3.34602">
        <ele>457.918091</ele>
        <time>2020-03-09T23:59:35.201Z</time>
      </trkpt>
      <trkpt lat="44.3199" lon="3.34612">
        <ele>460.167304</ele>
        <time>2020-03-10T00:00:04.855Z</time>
      </trkpt>
      <trkpt lat="44.32047" lon="3.34599">
        <ele>461.451511</ele>
        <time>2020-03-10T00:00:19.637Z</time>
      </trkpt>
      <trkpt lat="44.32099" lon="3.34576">
        <ele>462.645391</ele>
        <time>2020-03-10T00:00:32.229Z</time>
      </trkpt>
      <trkpt lat="44.32175" lon="3.34559">
        <ele>462.846673</ele>
        <time>2020-03-10T00:00:47.414Z</time>
      </trkpt>
      <trkpt lat="44.32281" lon="3.34553">
        <ele>462.839887</ele>
        <time>2020-03-10T00:01:01.156Z</time>
      </trkpt>
      <trkpt lat="44.3234" lon="3.34517">
        <ele>461.788541</ele>
        <time>2020-03-10T00:01:08.224Z</time>
      </trkpt>
      <trkpt lat="44.32354" lon="3.3452">
        <ele>461.523654</ele>
        <time>2020-03-10T00:01:09.730Z</time>
      </trkpt>
      <trkpt lat="44.32384" lon="3.34557">
        <ele>460.80015</ele>
        <time>2020-03-10T00:01:14.112Z</time>
      </trkpt>
      <trkpt lat="44.32395" lon="3.34564">
        <ele>460.591954</ele>
        <time>2020-03-10T00:01:15.488Z</time>
      </trkpt>
      <trkpt lat="44.32412" lon="3.34569">
        <ele>460.276106</ele>
        <time>2020-03-10T00:01:17.297Z</time>
      </trkpt>
      <trkpt lat="44.32425" lon="3.34572">
        <ele>460.033836</ele>
        <time>2020-03-10T00:01:18.931Z</time>
      </trkpt>
      <trkpt lat="44.32486" lon="3.34583">
        <ele>459.374728</ele>
        <time>2020-03-10T00:01:25.813Z</time>
      </trkpt>
      <trkpt lat="44.32524" lon="3.34603">
        <ele>459.134388</ele>
        <time>2020-03-10T00:01:30.904Z</time>
      </trkpt>
      <trkpt lat="44.32567" lon="3.34608">
        <ele>458.885686</ele>
        <time>2020-03-10T00:01:36.502Z</time>
      </trkpt>
      <trkpt lat="44.32617" lon="3.3464">
        <ele>458.563414</ele>
        <time>2020-03-10T00:01:45.437Z</time>
      </trkpt>
      <trkpt lat="44.32656" lon="3.34651">
        <ele>458.732545</ele>
        <time>2020-03-10T00:01:52.122Z</time>
      </trkpt>
      <trkpt lat="44.32667" lon="3.3466">
        <ele>458.80058</ele>
        <time>2020-03-10T00:01:54.301Z</time>
      </trkpt>
      <trkpt lat="44.3267" lon="3.34664">
        <ele>458.828615</ele>
        <time>2020-03-10T00:01:55.693Z</time>
      </trkpt>
      <trkpt lat="44.32675" lon="3.34673">
        <ele>458.870226</ele>
        <time>2020-03-10T00:01:56.650Z</time>
      </trkpt>
      <trkpt lat="44.32679" lon="3.34684">
        <ele>458.922212</ele>
        <time>2020-03-10T00:01:58.027Z</time>
      </trkpt>
      <trkpt lat="44.32694" lon="3.3472">
        <ele>459.083444</ele>
        <time>2020-03-10T00:02:03.154Z</time>
      </trkpt>
      <trkpt lat="44.32733" lon="3.3475">
        <ele>459.333617</ele>
        <time>2020-03-10T00:02:10.711Z</time>
      </trkpt>
      <trkpt lat="44.32824" lon="3.34866">
        <ele>459.806203</ele>
        <time>2020-03-10T00:02:32.356Z</time>
      </trkpt>
      <trkpt lat="44.32858" lon="3.34951">
        <ele>460.024594</ele>
        <time>2020-03-10T00:02:43.281Z</time>
      </trkpt>
      <trkpt lat="44.3287" lon="3.35032">
        <ele>459.795428</ele>
        <time>2020-03-10T00:02:51.497Z</time>
      </trkpt>
      <trkpt lat="44.32916" lon="3.35157">
        <ele>458.943596</ele>
        <time>2020-03-10T00:03:03.978Z</time>
      </trkpt>
      <trkpt lat="44.32945" lon="3.35286">
        <ele>458.285719</ele>
        <time>2020-03-10T00:03:15.196Z</time>
      </trkpt>
      <trkpt lat="44.32981" lon="3.35359">
        <ele>457.947965</ele>
        <time>2020-03-10T00:03:23.738Z</time>
      </trkpt>
      <trkpt lat="44.32987" lon="3.35368">
        <ele>457.897929</ele>
        <time>2020-03-10T00:03:24.780Z</time>
      </trkpt>
      <trkpt lat="44.33001" lon="3.35383">
        <ele>457.805017</ele>
        <time>2020-03-10T00:03:27.893Z</time>
      </trkpt>
      <trkpt lat="44.3302" lon="3.35399">
        <ele>457.687488</ele>
        <time>2020-03-10T00:03:30.811Z</time>
      </trkpt>
      <trkpt lat="44.33079" lon="3.35429">
        <ele>458.016714</ele>
        <time>2020-03-10T00:03:41.326Z</time>
      </trkpt>
      <trkpt lat="44.3317" lon="3.35451">
        <ele>458.810763</ele>
        <time>2020-03-10T00:03:59.150Z</time>
      </trkpt>
      <trkpt lat="44.33226" lon="3.35485">
        <ele>459.426903</ele>
        <time>2020-03-10T00:04:10.957Z</time>
      </trkpt>
      <trkpt lat="44.33263" lon="3.35495">
        <ele>459.904744</ele>
        <time>2020-03-10T00:04:18.209Z</time>
      </trkpt>
      <trkpt lat="44.33376" lon="3.35564">
        <ele>461.493732</ele>
        <time>2020-03-10T00:04:42.858Z</time>
      </trkpt>
      <trkpt lat="44.33464" lon="3.3565">
        <ele>464.24621</ele>
        <time>2020-03-10T00:05:05.602Z</time>
      </trkpt>
      <trkpt lat="44.33522" lon="3.35753">
        <ele>466.818872</ele>
        <time>2020-03-10T00:05:35.832Z</time>
      </trkpt>
      <trkpt lat="44.33552" lon="3.35791">
        <ele>468.124425</ele>
        <time>2020-03-10T00:05:47.047Z</time>
      </trkpt>
      <trkpt lat="44.33559" lon="3.35801">
        <ele>468.44713</ele>
        <time>2020-03-10T00:05:49.849Z</time>
      </trkpt>
      <trkpt lat="44.33566" lon="3.35809">
        <ele>468.743109</ele>
        <time>2020-03-10T00:05:51.818Z</time>
      </trkpt>
      <trkpt lat="44.33575" lon="3.3582">
        <ele>469.115602</ele>
        <time>2020-03-10T00:05:55.937Z</time>
      </trkpt>
      <trkpt lat="44.3359" lon="3.3584">
        <ele>469.808786</ele>
        <time>2020-03-10T00:06:00.944Z</time>
      </trkpt>
      <trkpt lat="44.33598" lon="3.35866">
        <ele>470.463267</ele>
        <time>2020-03-10T00:06:06.772Z</time>
      </trkpt>
      <trkpt lat="44.33598" lon="3.35872">
        <ele>470.617119</ele>
        <time>2020-03-10T00:06:09.065Z</time>
      </trkpt>
      <trkpt lat="44.33593" lon="3.35891">
        <ele>471.078889</ele>
        <time>2020-03-10T00:06:11.231Z</time>
      </trkpt>
      <trkpt lat="44.33587" lon="3.35915">
        <ele>471.666867</ele>
        <time>2020-03-10T00:06:16.906Z</time>
      </trkpt>
      <trkpt lat="44.33588" lon="3.35928">
        <ele>471.930659</ele>
        <time>2020-03-10T00:06:18.816Z</time>
      </trkpt>
      <trkpt lat="44.33589" lon="3.36014">
        <ele>472.951416</ele>
        <time>2020-03-10T00:06:34.551Z</time>
      </trkpt>
      <trkpt lat="44.33585" lon="3.36199">
        <ele>475.370956</ele>
        <time>2020-03-10T00:06:58.478Z</time>
      </trkpt>
      <trkpt lat="44.33586" lon="3.36227">
        <ele>475.955889</ele>
        <time>2020-03-10T00:07:03.151Z</time>
      </trkpt>
      <trkpt lat="44.33593" lon="3.36242">
        <ele>476.327242</ele>
        <time>2020-03-10T00:07:06.037Z</time>
      </trkpt>
      <trkpt lat="44.33604" lon="3.36249">
        <ele>476.68394</ele>
        <time>2020-03-10T00:07:09.105Z</time>
      </trkpt>
      <trkpt lat="44.33644" lon="3.36244">
        <ele>477.86993</ele>
        <time>2020-03-10T00:07:23.611Z</time>
      </trkpt>
      <trkpt lat="44.33699" lon="3.36205">
        <ele>479.703343</ele>
        <time>2020-03-10T00:07:41.709Z</time>
      </trkpt>
      <trkpt lat="44.33732" lon="3.36195">
        <ele>480.037011</ele>
        <time>2020-03-10T00:07:50.382Z</time>
      </trkpt>
      <trkpt lat="44.33753" lon="3.36179">
        <ele>479.797501</ele>
        <time>2020-03-10T00:07:54.551Z</time>
      </trkpt>
      <trkpt lat="44.3376" lon="3.3617">
        <ele>479.699359</ele>
        <time>2020-03-10T00:07:57.605Z</time>
      </trkpt>
      <trkpt lat="44.3377" lon="3.36153">
        <ele>479.545311</ele>
        <time>2020-03-10T00:08:00.635Z</time>
      </trkpt>
      <trkpt lat="44.3379" lon="3.3612">
        <ele>479.236578</ele>
        <time>2020-03-10T00:08:04.807Z</time>
      </trkpt>
      <trkpt lat="44.33808" lon="3.3611">
        <ele>479.037586</ele>
        <time>2020-03-10T00:08:06.938Z</time>
      </trkpt>
      <trkpt lat="44.3387" lon="3.36131">
        <ele>478.350926</ele>
        <time>2020-03-10T00:08:13.404Z</time>
      </trkpt>
      <trkpt lat="44.33914" lon="3.36172">
        <ele>475.091273</ele>
        <time>2020-03-10T00:08:18.173Z</time>
      </trkpt>
      <trkpt lat="44.33928" lon="3.36207">
        <ele>473.287624</ele>
        <time>2020-03-10T00:08:20.732Z</time>
      </trkpt>
      <trkpt lat="44.33942" lon="3.36279">
        <ele>469.978168</ele>
        <time>2020-03-10T00:08:25.493Z</time>
      </trkpt>
      <trkpt lat="44.3395" lon="3.36294">
        <ele>469.10943</ele>
        <time>2020-03-10T00:08:26.749Z</time>
      </trkpt>
      <trkpt lat="44.33996" lon="3.36329">
        <ele>466.446823</ele>
        <time>2020-03-10T00:08:31.524Z</time>
      </trkpt>
      <trkpt lat="44.34035" lon="3.36407">
        <ele>464.13525</ele>
        <time>2020-03-10T00:08:37.937Z</time>
      </trkpt>
      <trkpt lat="44.34094" lon="3.36496">
        <ele>461.184411</ele>
        <time>2020-03-10T00:08:47.856Z</time>
      </trkpt>
      <trkpt lat="44.34129" lon="3.36535">
        <ele>461.399602</ele>
        <time>2020-03-10T00:08:53.565Z</time>
      </trkpt>
      <trkpt lat="44.34132" lon="3.3654">
        <ele>461.442375</ele>
        <time>2020-03-10T00:08:54.084Z</time>
      </trkpt>
      <trkpt lat="44.34138" lon="3.36553">
        <ele>461.537508</ele>
        <time>2020-03-10T00:08:57.533Z</time>
      </trkpt>
      <trkpt lat="44.34159" lon="3.36583">
        <ele>461.789286</ele>
        <time>2020-03-10T00:09:01.759Z</time>
      </trkpt>
      <trkpt lat="44.34162" lon="3.36586">
        <ele>461.815282</ele>
        <time>2020-03-10T00:09:03.585Z</time>
      </trkpt>
      <trkpt lat="44.34167" lon="3.36593">
        <ele>461.875755</ele>
        <time>2020-03-10T00:09:04.830Z</time>
      </trkpt>
      <trkpt lat="44.34186" lon="3.36612">
        <ele>462.069976</ele>
        <time>2020-03-10T00:09:08.201Z</time>
      </trkpt>
      <trkpt lat="44.34216" lon="3.36653">
        <ele>462.418453</ele>
        <time>2020-03-10T00:09:18.733Z</time>
      </trkpt>
      <trkpt lat="44.34243" lon="3.36705">
        <ele>463.225632</ele>
        <time>2020-03-10T00:09:29.839Z</time>
      </trkpt>
      <trkpt lat="44.3425" lon="3.36719">
        <ele>463.505068</ele>
        <time>2020-03-10T00:09:32.594Z</time>
      </trkpt>
      <trkpt lat="44.3426" lon="3.36743">
        <ele>463.954922</ele>
        <time>2020-03-10T00:09:37.848Z</time>
      </trkpt>
      <trkpt lat="44.34271" lon="3.36765">
        <ele>464.387956</ele>
        <time>2020-03-10T00:09:42.003Z</time>
      </trkpt>
      <trkpt lat="44.34289" lon="3.36812">
        <ele>465.256382</ele>
        <time>2020-03-10T00:09:50.640Z</time>
      </trkpt>
      <trkpt lat="44.34311" lon="3.36922">
        <ele>467.208659</ele>
        <time>2020-03-10T00:10:10.900Z</time>
      </trkpt>
      <trkpt lat="44.34315" lon="3.37059">
        <ele>469.902627</ele>
        <time>2020-03-10T00:10:36.138Z</time>
      </trkpt>
      <trkpt lat="44.34305" lon="3.37132">
        <ele>471.347424</ele>
        <time>2020-03-10T00:10:50.529Z</time>
      </trkpt>
      <trkpt lat="44.34302" lon="3.37177">
        <ele>472.302199</ele>
        <time>2020-03-10T00:10:58.731Z</time>
      </trkpt>
      <trkpt lat="44.34301" lon="3.37188">
        <ele>472.538319</ele>
        <time>2020-03-10T00:11:00.833Z</time>
      </trkpt>
      <trkpt lat="44.34297" lon="3.37203">
        <ele>472.874612</ele>
        <time>2020-03-10T00:11:04.004Z</time>
      </trkpt>
      <trkpt lat="44.34284" lon="3.37244">
        <ele>473.828901</ele>
        <time>2020-03-10T00:11:12.440Z</time>
      </trkpt>
      <trkpt lat="44.34273" lon="3.37262">
        <ele>474.337274</ele>
        <time>2020-03-10T00:11:15.891Z</time>
      </trkpt>
      <trkpt lat="44.34265" lon="3.37271">
        <ele>474.647439</ele>
        <time>2020-03-10T00:11:18.999Z</time>
      </trkpt>
      <trkpt lat="44.3426" lon="3.37278">
        <ele>474.848803</ele>
        <time>2020-03-10T00:11:22.560Z</time>
      </trkpt>
      <trkpt lat="44.3425" lon="3.37296">
        <ele>475.333687</ele>
        <time>2020-03-10T00:11:27.267Z</time>
      </trkpt>
      <trkpt lat="44.34238" lon="3.37323">
        <ele>476.00556</ele>
        <time>2020-03-10T00:11:34.546Z</time>
      </trkpt>
      <trkpt lat="44.3423" lon="3.37337">
        <ele>476.392835</ele>
        <time>2020-03-10T00:11:37.860Z</time>
      </trkpt>
      <trkpt lat="44.34202" lon="3.37374">
        <ele>477.08557</ele>
        <time>2020-03-10T00:11:47.451Z</time>
      </trkpt>
      <trkpt lat="44.34199" lon="3.37379">
        <ele>477.118648</ele>
        <time>2020-03-10T00:11:47.881Z</time>
      </trkpt>
      <trkpt lat="44.34197" lon="3.37383">
        <ele>477.140478</ele>
        <time>2020-03-10T00:11:48.751Z</time>
      </trkpt>
      <trkpt lat="44.34193" lon="3.37389">
        <ele>477.180457</ele>
        <time>2020-03-10T00:11:50.079Z</time>
      </trkpt>
      <trkpt lat="44.34192" lon="3.3739">
        <ele>477.189051</ele>
        <time>2020-03-10T00:11:50.918Z</time>
      </trkpt>
      <trkpt lat="44.34163" lon="3.37437">
        <ele>477.498838</ele>
        <time>2020-03-10T00:11:59.455Z</time>
      </trkpt>
      <trkpt lat="44.3416" lon="3.37442">
        <ele>477.530801</ele>
        <time>2020-03-10T00:12:01.819Z</time>
      </trkpt>
      <trkpt lat="44.34153" lon="3.37452">
        <ele>477.598414</ele>
        <time>2020-03-10T00:12:02.716Z</time>
      </trkpt>
      <trkpt lat="44.34142" lon="3.37466">
        <ele>477.70366</ele>
        <time>2020-03-10T00:12:05.331Z</time>
      </trkpt>
      <trkpt lat="44.34092" lon="3.37494">
        <ele>478.074939</ele>
        <time>2020-03-10T00:12:13.920Z</time>
      </trkpt>
      <trkpt lat="44.34085" lon="3.37501">
        <ele>478.134698</ele>
        <time>2020-03-10T00:12:14.732Z</time>
      </trkpt>
      <trkpt lat="44.3408" lon="3.37506">
        <ele>478.178025</ele>
        <time>2020-03-10T00:12:15.600Z</time>
      </trkpt>
      <trkpt lat="44.34045" lon="3.37542">
        <ele>478.607327</ele>
        <time>2020-03-10T00:12:21.595Z</time>
      </trkpt>
      <trkpt lat="44.33956" lon="3.37702">
        <ele>480.301586</ele>
        <time>2020-03-10T00:12:49.157Z</time>
      </trkpt>
      <trkpt lat="44.33945" lon="3.37726">
        <ele>481.192381</ele>
        <time>2020-03-10T00:12:55.080Z</time>
      </trkpt>
      <trkpt lat="44.33935" lon="3.37747">
        <ele>481.955439</ele>
        <time>2020-03-10T00:13:01.875Z</time>
      </trkpt>
      <trkpt lat="44.33902" lon="3.37817">
        <ele>484.544862</ele>
        <time>2020-03-10T00:13:23.472Z</time>
      </trkpt>
      <trkpt lat="44.33791" lon="3.37949">
        <ele>488.247347</ele>
        <time>2020-03-10T00:14:12.703Z</time>
      </trkpt>
      <trkpt lat="44.33682" lon="3.38062">
        <ele>487.598239</ele>
        <time>2020-03-10T00:14:28.406Z</time>
      </trkpt>
      <trkpt lat="44.33619" lon="3.38107">
        <ele>484.065741</ele>
        <time>2020-03-10T00:14:34.672Z</time>
      </trkpt>
      <trkpt lat="44.33611" lon="3.38115">
        <ele>483.553187</ele>
        <time>2020-03-10T00:14:35.513Z</time>
      </trkpt>
      <trkpt lat="44.33584" lon="3.38139">
        <ele>481.951057</ele>
        <time>2020-03-10T00:14:38.445Z</time>
      </trkpt>
      <trkpt lat="44.33562" lon="3.38172">
        <ele>480.323639</ele>
        <time>2020-03-10T00:14:41.794Z</time>
      </trkpt>
      <trkpt lat="44.3356" lon="3.3818">
        <ele>480.002687</ele>
        <time>2020-03-10T00:14:42.322Z</time>
      </trkpt>
      <trkpt lat="44.33558" lon="3.3819">
        <ele>479.966807</ele>
        <time>2020-03-10T00:14:43.892Z</time>
      </trkpt>
      <trkpt lat="44.33557" lon="3.38229">
        <ele>480.427997</ele>
        <time>2020-03-10T00:14:46.981Z</time>
      </trkpt>
      <trkpt lat="44.33558" lon="3.38241">
        <ele>480.564383</ele>
        <time>2020-03-10T00:14:48.696Z</time>
      </trkpt>
      <trkpt lat="44.33561" lon="3.38252">
        <ele>480.703648</ele>
        <time>2020-03-10T00:14:52.042Z</time>
      </trkpt>
      <trkpt lat="44.33574" lon="3.38277">
        <ele>481.076508</ele>
        <time>2020-03-10T00:14:54.753Z</time>
      </trkpt>
      <trkpt lat="44.33581" lon="3.38282">
        <ele>481.206266</ele>
        <time>2020-03-10T00:14:57.187Z</time>
      </trkpt>
      <trkpt lat="44.33592" lon="3.38284">
        <ele>481.382249</ele>
        <time>2020-03-10T00:15:01.443Z</time>
      </trkpt>
      <trkpt lat="44.33599" lon="3.38283">
        <ele>481.497927</ele>
        <time>2020-03-10T00:15:04.102Z</time>
      </trkpt>
      <trkpt lat="44.33605" lon="3.38281">
        <ele>481.605478</ele>
        <time>2020-03-10T00:15:04.726Z</time>
      </trkpt>
      <trkpt lat="44.33608" lon="3.38278">
        <ele>481.669128</ele>
        <time>2020-03-10T00:15:06.023Z</time>
      </trkpt>
      <trkpt lat="44.33611" lon="3.38273">
        <ele>481.750171</ele>
        <time>2020-03-10T00:15:07.946Z</time>
      </trkpt>
      <trkpt lat="44.33614" lon="3.38268">
        <ele>481.825134</ele>
        <time>2020-03-10T00:15:09.907Z</time>
      </trkpt>
      <trkpt lat="44.3363" lon="3.38225">
        <ele>482.389149</ele>
        <time>2020-03-10T00:15:21.902Z</time>
      </trkpt>
      <trkpt lat="44.33631" lon="3.38223">
        <ele>482.422825</ele>
        <time>2020-03-10T00:15:22.276Z</time>
      </trkpt>
      <trkpt lat="44.33635" lon="3.38215">
        <ele>482.530611</ele>
        <time>2020-03-10T00:15:25.060Z</time>
      </trkpt>
      <trkpt lat="44.33668" lon="3.38184">
        <ele>482.644299</ele>
        <time>2020-03-10T00:15:36.933Z</time>
      </trkpt>
      <trkpt lat="44.33675" lon="3.38179">
        <ele>482.570969</ele>
        <time>2020-03-10T00:15:40.498Z</time>
      </trkpt>
      <trkpt lat="44.33688" lon="3.38172">
        <ele>482.427089</ele>
        <time>2020-03-10T00:15:42.847Z</time>
      </trkpt>
      <trkpt lat="44.33705" lon="3.38166">
        <ele>482.255418</ele>
        <time>2020-03-10T00:15:44.861Z</time>
      </trkpt>
      <trkpt lat="44.33747" lon="3.38166">
        <ele>481.831977</ele>
        <time>2020-03-10T00:15:53.254Z</time>
      </trkpt>
      <trkpt lat="44.3376" lon="3.38168">
        <ele>481.708316</ele>
        <time>2020-03-10T00:15:54.591Z</time>
      </trkpt>
      <trkpt lat="44.33776" lon="3.38172">
        <ele>481.541319</ele>
        <time>2020-03-10T00:15:56.163Z</time>
      </trkpt>
      <trkpt lat="44.33827" lon="3.38186">
        <ele>480.90095</ele>
        <time>2020-03-10T00:16:01.321Z</time>
      </trkpt>
      <trkpt lat="44.33834" lon="3.38192">
        <ele>480.504355</ele>
        <time>2020-03-10T00:16:02.002Z</time>
      </trkpt>
      <trkpt lat="44.3384" lon="3.38198">
        <ele>480.121991</ele>
        <time>2020-03-10T00:16:02.688Z</time>
      </trkpt>
      <trkpt lat="44.33869" lon="3.38237">
        <ele>478.169323</ele>
        <time>2020-03-10T00:16:06.267Z</time>
      </trkpt>
      <trkpt lat="44.33907" lon="3.38272">
        <ele>475.989276</ele>
        <time>2020-03-10T00:16:10.362Z</time>
      </trkpt>
      <trkpt lat="44.33965" lon="3.3838">
        <ele>472.188279</ele>
        <time>2020-03-10T00:16:20.261Z</time>
      </trkpt>
      <trkpt lat="44.33984" lon="3.38428">
        <ele>471.925613</ele>
        <time>2020-03-10T00:16:25.909Z</time>
      </trkpt>
      <trkpt lat="44.34011" lon="3.3847">
        <ele>471.658488</ele>
        <time>2020-03-10T00:16:32.030Z</time>
      </trkpt>
      <trkpt lat="44.34045" lon="3.38513">
        <ele>471.354449</ele>
        <time>2020-03-10T00:16:38.671Z</time>
      </trkpt>
      <trkpt lat="44.34123" lon="3.38593">
        <ele>471.064558</ele>
        <time>2020-03-10T00:16:52.268Z</time>
      </trkpt>
      <trkpt lat="44.34155" lon="3.38634">
        <ele>471.016885</ele>
        <time>2020-03-10T00:16:58.416Z</time>
      </trkpt>
      <trkpt lat="44.34192" lon="3.38759">
        <ele>471.009257</ele>
        <time>2020-03-10T00:17:12.427Z</time>
      </trkpt>
      <trkpt lat="44.34227" lon="3.3884">
        <ele>471.216672</ele>
        <time>2020-03-10T00:17:22.800Z</time>
      </trkpt>
      <trkpt lat="44.34278" lon="3.38866">
        <ele>471.380543</ele>
        <time>2020-03-10T00:17:32.011Z</time>
      </trkpt>
      <trkpt lat="44.34309" lon="3.38859">
        <ele>471.477466</ele>
        <time>2020-03-10T00:17:37.582Z</time>
      </trkpt>
      <trkpt lat="44.34384" lon="3.38864">
        <ele>471.69087</ele>
        <time>2020-03-10T00:17:50.726Z</time>
      </trkpt>
      <trkpt lat="44.344" lon="3.38874">
        <ele>471.739345</ele>
        <time>2020-03-10T00:17:53.338Z</time>
      </trkpt>
      <trkpt lat="44.34419" lon="3.38904">
        <ele>471.821826</ele>
        <time>2020-03-10T00:17:57.974Z</time>
      </trkpt>
      <trkpt lat="44.34485" lon="3.3892">
        <ele>471.966669</ele>
        <time>2020-03-10T00:18:08.179Z</time>
      </trkpt>
      <trkpt lat="44.34516" lon="3.38941">
        <ele>471.797583</ele>
        <time>2020-03-10T00:18:12.858Z</time>
      </trkpt>
      <trkpt lat="44.3453" lon="3.38959">
        <ele>471.703277</ele>
        <time>2020-03-10T00:18:15.259Z</time>
      </trkpt>
      <trkpt lat="44.34574" lon="3.39036">
        <ele>471.358287</ele>
        <time>2020-03-10T00:18:24.284Z</time>
      </trkpt>
      <trkpt lat="44.34575" lon="3.39055">
        <ele>471.291718</ele>
        <time>2020-03-10T00:18:26.093Z</time>
      </trkpt>
      <trkpt lat="44.34571" lon="3.39111">
        <ele>471.110137</ele>
        <time>2020-03-10T00:18:31.279Z</time>
      </trkpt>
      <trkpt lat="44.34557" lon="3.39194">
        <ele>471.108084</ele>
        <time>2020-03-10T00:18:39.604Z</time>
      </trkpt>
      <trkpt lat="44.34551" lon="3.39262">
        <ele>471.10645</ele>
        <time>2020-03-10T00:18:46.706Z</time>
      </trkpt>
      <trkpt lat="44.34535" lon="3.3932">
        <ele>471.104944</ele>
        <time>2020-03-10T00:18:53.568Z</time>
      </trkpt>
      <trkpt lat="44.34535" lon="3.39361">
        <ele>471.205744</ele>
        <time>2020-03-10T00:18:58.366Z</time>
      </trkpt>
      <trkpt lat="44.34581" lon="3.3947">
        <ele>472.415312</ele>
        <time>2020-03-10T00:19:16.468Z</time>
      </trkpt>
      <trkpt lat="44.34618" lon="3.39524">
        <ele>473.125556</ele>
        <time>2020-03-10T00:19:27.594Z</time>
      </trkpt>
      <trkpt lat="44.34625" lon="3.39532">
        <ele>473.248513</ele>
        <time>2020-03-10T00:19:29.810Z</time>
      </trkpt>
      <trkpt lat="44.34635" lon="3.39541">
        <ele>473.401618</ele>
        <time>2020-03-10T00:19:32.360Z</time>
      </trkpt>
      <trkpt lat="44.34647" lon="3.39552">
        <ele>473.610317</ele>
        <time>2020-03-10T00:19:35.383Z</time>
      </trkpt>
      <trkpt lat="44.3466" lon="3.39562">
        <ele>473.819681</ele>
        <time>2020-03-10T00:19:38.926Z</time>
      </trkpt>
      <trkpt lat="44.34694" lon="3.39576">
        <ele>474.342582</ele>
        <time>2020-03-10T00:19:46.888Z</time>
      </trkpt>
      <trkpt lat="44.34731" lon="3.39581">
        <ele>474.884382</ele>
        <time>2020-03-10T00:19:55.259Z</time>
      </trkpt>
      <trkpt lat="44.34878" lon="3.39559">
        <ele>475.941683</ele>
        <time>2020-03-10T00:20:23.103Z</time>
      </trkpt>
      <trkpt lat="44.34919" lon="3.39562">
        <ele>475.809737</ele>
        <time>2020-03-10T00:20:28.661Z</time>
      </trkpt>
      <trkpt lat="44.34967" lon="3.39575">
        <ele>475.655145</ele>
        <time>2020-03-10T00:20:34.673Z</time>
      </trkpt>
      <trkpt lat="44.35002" lon="3.39559">
        <ele>475.390649</ele>
        <time>2020-03-10T00:20:38.962Z</time>
      </trkpt>
      <trkpt lat="44.35026" lon="3.3956">
        <ele>474.943889</ele>
        <time>2020-03-10T00:20:41.611Z</time>
      </trkpt>
      <trkpt lat="44.351" lon="3.39606">
        <ele>473.404092</ele>
        <time>2020-03-10T00:20:50.305Z</time>
      </trkpt>
      <trkpt lat="44.35126" lon="3.39639">
        <ele>472.729565</ele>
        <time>2020-03-10T00:20:54.156Z</time>
      </trkpt>
      <trkpt lat="44.35184" lon="3.39693">
        <ele>471.84069</ele>
        <time>2020-03-10T00:21:01.986Z</time>
      </trkpt>
      <trkpt lat="44.352" lon="3.3972">
        <ele>471.639564</ele>
        <time>2020-03-10T00:21:04.993Z</time>
      </trkpt>
      <trkpt lat="44.35205" lon="3.39735">
        <ele>471.543421</ele>
        <time>2020-03-10T00:21:06.403Z</time>
      </trkpt>
      <trkpt lat="44.35209" lon="3.3975">
        <ele>471.447583</ele>
        <time>2020-03-10T00:21:07.748Z</time>
      </trkpt>
      <trkpt lat="44.35213" lon="3.39768">
        <ele>471.338808</ele>
        <time>2020-03-10T00:21:09.894Z</time>
      </trkpt>
      <trkpt lat="44.35223" lon="3.39814">
        <ele>471.061471</ele>
        <time>2020-03-10T00:21:14.390Z</time>
      </trkpt>
      <trkpt lat="44.35259" lon="3.39903">
        <ele>470.914186</ele>
        <time>2020-03-10T00:21:25.213Z</time>
      </trkpt>
      <trkpt lat="44.35274" lon="3.39966">
        <ele>471.275551</ele>
        <time>2020-03-10T00:21:33.464Z</time>
      </trkpt>
      <trkpt lat="44.35303" lon="3.40048">
        <ele>471.767277</ele>
        <time>2020-03-10T00:21:46.136Z</time>
      </trkpt>
      <trkpt lat="44.35346" lon="3.40126">
        <ele>472.209033</ele>
        <time>2020-03-10T00:21:59.487Z</time>
      </trkpt>
      <trkpt lat="44.35362" lon="3.40159">
        <ele>472.342699</ele>
        <time>2020-03-10T00:22:04.783Z</time>
      </trkpt>
      <trkpt lat="44.35372" lon="3.40177">
        <ele>472.417384</ele>
        <time>2020-03-10T00:22:07.543Z</time>
      </trkpt>
      <trkpt lat="44.3544" lon="3.40321">
        <ele>472.772162</ele>
        <time>2020-03-10T00:22:27.151Z</time>
      </trkpt>
      <trkpt lat="44.35531" lon="3.40387">
        <ele>472.112484</ele>
        <time>2020-03-10T00:22:40.046Z</time>
      </trkpt>
      <trkpt lat="44.35568" lon="3.40403">
        <ele>471.864973</ele>
        <time>2020-03-10T00:22:44.825Z</time>
      </trkpt>
      <trkpt lat="44.35665" lon="3.40425">
        <ele>471.344318</ele>
        <time>2020-03-10T00:22:57.180Z</time>
      </trkpt>
      <trkpt lat="44.35714" lon="3.40446">
        <ele>471.083045</ele>
        <time>2020-03-10T00:23:03.967Z</time>
      </trkpt>
      <trkpt lat="44.35776" lon="3.4045">
        <ele>470.887324</ele>
        <time>2020-03-10T00:23:12.869Z</time>
      </trkpt>
      <trkpt lat="44.35826" lon="3.40461">
        <ele>471.093623</ele>
        <time>2020-03-10T00:23:20.416Z</time>
      </trkpt>
      <trkpt lat="44.35873" lon="3.40497">
        <ele>471.311447</ele>
        <time>2020-03-10T00:23:29.145Z</time>
      </trkpt>
      <trkpt lat="44.35916" lon="3.40546">
        <ele>471.540493</ele>
        <time>2020-03-10T00:23:39.431Z</time>
      </trkpt>
      <trkpt lat="44.35958" lon="3.40602">
        <ele>471.957941</ele>
        <time>2020-03-10T00:23:49.962Z</time>
      </trkpt>
      <trkpt lat="44.35972" lon="3.40623">
        <ele>472.117274</ele>
        <time>2020-03-10T00:23:54.176Z</time>
      </trkpt>
      <trkpt lat="44.35987" lon="3.40649">
        <ele>472.300683</ele>
        <time>2020-03-10T00:23:58.393Z</time>
      </trkpt>
      <trkpt lat="44.35993" lon="3.40664">
        <ele>472.396022</ele>
        <time>2020-03-10T00:24:00.880Z</time>
      </trkpt>
      <trkpt lat="44.36008" lon="3.40705">
        <ele>472.651165</ele>
        <time>2020-03-10T00:24:06.884Z</time>
      </trkpt>
      <trkpt lat="44.36038" lon="3.40751">
        <ele>472.9507</ele>
        <time>2020-03-10T00:24:14.722Z</time>
      </trkpt>
      <trkpt lat="44.36153" lon="3.41017">
        <ele>474.248126</ele>
        <time>2020-03-10T00:24:46.298Z</time>
      </trkpt>
      <trkpt lat="44.36178" lon="3.41074">
        <ele>475.504681</ele>
        <time>2020-03-10T00:24:57.020Z</time>
      </trkpt>
      <trkpt lat="44.36191" lon="3.41101">
        <ele>476.11891</ele>
        <time>2020-03-10T00:25:02.998Z</time>
      </trkpt>
      <trkpt lat="44.36201" lon="3.41119">
        <ele>476.564308</ele>
        <time>2020-03-10T00:25:08.949Z</time>
      </trkpt>
      <trkpt lat="44.36244" lon="3.41166">
        <ele>478.31732</ele>
        <time>2020-03-10T00:25:25.631Z</time>
      </trkpt>
      <trkpt lat="44.36253" lon="3.4117">
        <ele>478.901465</ele>
        <time>2020-03-10T00:25:28.007Z</time>
      </trkpt>
      <trkpt lat="44.36261" lon="3.41173">
        <ele>479.42955</ele>
        <time>2020-03-10T00:25:34.187Z</time>
      </trkpt>
      <trkpt lat="44.36275" lon="3.41171">
        <ele>480.27225</ele>
        <time>2020-03-10T00:25:41.051Z</time>
      </trkpt>
      <trkpt lat="44.36298" lon="3.41153">
        <ele>481.913851</ele>
        <time>2020-03-10T00:25:54.457Z</time>
      </trkpt>
      <trkpt lat="44.36306" lon="3.41119">
        <ele>483.469284</ele>
        <time>2020-03-10T00:26:06.077Z</time>
      </trkpt>
      <trkpt lat="44.36305" lon="3.4106">
        <ele>486.072841</ele>
        <time>2020-03-10T00:26:26.805Z</time>
      </trkpt>
      <trkpt lat="44.36324" lon="3.41027">
        <ele>487.962769</ele>
        <time>2020-03-10T00:26:36.941Z</time>
      </trkpt>
      <trkpt lat="44.36339" lon="3.41005">
        <ele>488.497368</ele>
        <time>2020-03-10T00:26:46.477Z</time>
      </trkpt>
      <trkpt lat="44.36391" lon="3.40939">
        <ele>486.152443</ele>
        <time>2020-03-10T00:26:54.373Z</time>
      </trkpt>
      <trkpt lat="44.36399" lon="3.40932">
        <ele>485.849401</ele>
        <time>2020-03-10T00:26:55.116Z</time>
      </trkpt>
      <trkpt lat="44.36431" lon="3.4092">
        <ele>484.720333</ele>
        <time>2020-03-10T00:26:58.514Z</time>
      </trkpt>
      <trkpt lat="44.36457" lon="3.40919">
        <ele>483.877507</ele>
        <time>2020-03-10T00:27:01.540Z</time>
      </trkpt>
      <trkpt lat="44.36468" lon="3.4092">
        <ele>483.487402</ele>
        <time>2020-03-10T00:27:02.506Z</time>
      </trkpt>
      <trkpt lat="44.36477" lon="3.40922">
        <ele>483.192541</ele>
        <time>2020-03-10T00:27:03.295Z</time>
      </trkpt>
      <trkpt lat="44.36505" lon="3.40948">
        <ele>482.045772</ele>
        <time>2020-03-10T00:27:06.269Z</time>
      </trkpt>
      <trkpt lat="44.36531" lon="3.40963">
        <ele>481.096389</ele>
        <time>2020-03-10T00:27:08.801Z</time>
      </trkpt>
      <trkpt lat="44.36551" lon="3.41012">
        <ele>479.730509</ele>
        <time>2020-03-10T00:27:12.511Z</time>
      </trkpt>
      <trkpt lat="44.36555" lon="3.41025">
        <ele>479.376046</ele>
        <time>2020-03-10T00:27:13.578Z</time>
      </trkpt>
      <trkpt lat="44.36556" lon="3.4103">
        <ele>479.257572</ele>
        <time>2020-03-10T00:27:14.812Z</time>
      </trkpt>
      <trkpt lat="44.36557" lon="3.41034">
        <ele>479.141357</ele>
        <time>2020-03-10T00:27:15.716Z</time>
      </trkpt>
      <trkpt lat="44.36559" lon="3.41042">
        <ele>478.92916</ele>
        <time>2020-03-10T00:27:16.344Z</time>
      </trkpt>
      <trkpt lat="44.36559" lon="3.41051">
        <ele>478.711912</ele>
        <time>2020-03-10T00:27:16.891Z</time>
      </trkpt>
      <trkpt lat="44.36559" lon="3.41053">
        <ele>478.670415</ele>
        <time>2020-03-10T00:27:17.000Z</time>
      </trkpt>
      <trkpt lat="44.36566" lon="3.41055">
        <ele>478.429811</ele>
        <time>2020-03-10T00:27:17.639Z</time>
      </trkpt>
      <trkpt lat="44.36567" lon="3.41055">
        <ele>478.381021</ele>
        <time>2020-03-10T00:27:17.777Z</time>
      </trkpt>
      <trkpt lat="44.36575" lon="3.41056">
        <ele>478.116975</ele>
        <time>2020-03-10T00:27:19.194Z</time>
      </trkpt>
      <trkpt lat="44.36589" lon="3.41058">
        <ele>477.637354</ele>
        <time>2020-03-10T00:27:22.680Z</time>
      </trkpt>
      <trkpt lat="44.36605" lon="3.41063">
        <ele>477.064747</ele>
        <time>2020-03-10T00:27:25.378Z</time>
      </trkpt>
      <trkpt lat="44.36615" lon="3.41065">
        <ele>476.731325</ele>
        <time>2020-03-10T00:27:28.905Z</time>
      </trkpt>
      <trkpt lat="44.36641" lon="3.41066">
        <ele>477.272587</ele>
        <time>2020-03-10T00:27:33.684Z</time>
      </trkpt>
      <trkpt lat="44.36668" lon="3.41056">
        <ele>478.012188</ele>
        <time>2020-03-10T00:27:40.820Z</time>
      </trkpt>
      <trkpt lat="44.367" lon="3.41044">
        <ele>478.925952</ele>
        <time>2020-03-10T00:27:47.706Z</time>
      </trkpt>
      <trkpt lat="44.3671" lon="3.41024">
        <ele>479.409117</ele>
        <time>2020-03-10T00:27:53.546Z</time>
      </trkpt>
      <trkpt lat="44.36701" lon="3.40996">
        <ele>480.004101</ele>
        <time>2020-03-10T00:27:58.302Z</time>
      </trkpt>
      <trkpt lat="44.36661" lon="3.40958">
        <ele>481.328963</ele>
        <time>2020-03-10T00:28:13.155Z</time>
      </trkpt>
      <trkpt lat="44.36644" lon="3.40951">
        <ele>482.385877</ele>
        <time>2020-03-10T00:28:17.530Z</time>
      </trkpt>
      <trkpt lat="44.36621" lon="3.40954">
        <ele>484.232246</ele>
        <time>2020-03-10T00:28:26.353Z</time>
      </trkpt>
      <trkpt lat="44.36611" lon="3.40955">
        <ele>485.057862</ele>
        <time>2020-03-10T00:28:28.545Z</time>
      </trkpt>
      <trkpt lat="44.36594" lon="3.40957">
        <ele>486.463653</ele>
        <time>2020-03-10T00:28:36.451Z</time>
      </trkpt>
      <trkpt lat="44.36577" lon="3.40949">
        <ele>487.90841</ele>
        <time>2020-03-10T00:28:42.917Z</time>
      </trkpt>
      <trkpt lat="44.36546" lon="3.40908">
        <ele>491.483812</ele>
        <time>2020-03-10T00:29:04.303Z</time>
      </trkpt>
      <trkpt lat="44.36465" lon="3.40874">
        <ele>497.474444</ele>
        <time>2020-03-10T00:30:02.750Z</time>
      </trkpt>
      <trkpt lat="44.36402" lon="3.40882">
        <ele>500.460526</ele>
        <time>2020-03-10T00:30:27.441Z</time>
      </trkpt>
      <trkpt lat="44.36397" lon="3.40884">
        <ele>500.740197</ele>
        <time>2020-03-10T00:30:33.887Z</time>
      </trkpt>
      <trkpt lat="44.3639" lon="3.40886">
        <ele>501.038358</ele>
        <time>2020-03-10T00:30:34.407Z</time>
      </trkpt>
      <trkpt lat="44.36385" lon="3.40889">
        <ele>501.3358</ele>
        <time>2020-03-10T00:30:35.131Z</time>
      </trkpt>
      <trkpt lat="44.36379" lon="3.40894">
        <ele>501.635682</ele>
        <time>2020-03-10T00:30:38.298Z</time>
      </trkpt>
      <trkpt lat="44.36375" lon="3.40898">
        <ele>501.854775</ele>
        <time>2020-03-10T00:30:39.181Z</time>
      </trkpt>
      <trkpt lat="44.36373" lon="3.40902">
        <ele>502.038835</ele>
        <time>2020-03-10T00:30:39.883Z</time>
      </trkpt>
      <trkpt lat="44.36371" lon="3.40907">
        <ele>502.237409</ele>
        <time>2020-03-10T00:30:42.674Z</time>
      </trkpt>
      <trkpt lat="44.36369" lon="3.40913">
        <ele>502.437753</ele>
        <time>2020-03-10T00:30:47.286Z</time>
      </trkpt>
      <trkpt lat="44.36368" lon="3.40917">
        <ele>502.601409</ele>
        <time>2020-03-10T00:30:47.573Z</time>
      </trkpt>
      <trkpt lat="44.36364" lon="3.40938">
        <ele>503.319634</ele>
        <time>2020-03-10T00:30:49.834Z</time>
      </trkpt>
      <trkpt lat="44.36354" lon="3.40956">
        <ele>504.110776</ele>
        <time>2020-03-10T00:30:57.347Z</time>
      </trkpt>
      <trkpt lat="44.36349" lon="3.4096">
        <ele>504.358292</ele>
        <time>2020-03-10T00:30:57.777Z</time>
      </trkpt>
      <trkpt lat="44.36344" lon="3.40964">
        <ele>504.647763</ele>
        <time>2020-03-10T00:30:58.317Z</time>
      </trkpt>
      <trkpt lat="44.36317" lon="3.40977">
        <ele>503.530396</ele>
        <time>2020-03-10T00:31:01.362Z</time>
      </trkpt>
      <trkpt lat="44.363" lon="3.40995">
        <ele>502.462837</ele>
        <time>2020-03-10T00:31:03.263Z</time>
      </trkpt>
      <trkpt lat="44.3626" lon="3.41078">
        <ele>498.963991</ele>
        <time>2020-03-10T00:31:09.539Z</time>
      </trkpt>
      <trkpt lat="44.3625" lon="3.41083">
        <ele>498.42895</ele>
        <time>2020-03-10T00:31:11.014Z</time>
      </trkpt>
      <trkpt lat="44.36238" lon="3.41071">
        <ele>497.690787</ele>
        <time>2020-03-10T00:31:12.327Z</time>
      </trkpt>
      <trkpt lat="44.36235" lon="3.41064">
        <ele>497.421158</ele>
        <time>2020-03-10T00:31:12.779Z</time>
      </trkpt>
      <trkpt lat="44.36225" lon="3.41032">
        <ele>496.175223</ele>
        <time>2020-03-10T00:31:17.390Z</time>
      </trkpt>
      <trkpt lat="44.36163" lon="3.40854">
        <ele>498.454413</ele>
        <time>2020-03-10T00:31:44.742Z</time>
      </trkpt>
      <trkpt lat="44.36134" lon="3.40739">
        <ele>501.620243</ele>
        <time>2020-03-10T00:32:18.504Z</time>
      </trkpt>
      <trkpt lat="44.36108" lon="3.40675">
        <ele>504.481241</ele>
        <time>2020-03-10T00:32:37.858Z</time>
      </trkpt>
      <trkpt lat="44.36093" lon="3.40602">
        <ele>507.410896</ele>
        <time>2020-03-10T00:32:57.901Z</time>
      </trkpt>
      <trkpt lat="44.36031" lon="3.40565">
        <ele>511.665058</ele>
        <time>2020-03-10T00:33:21.440Z</time>
      </trkpt>
      <trkpt lat="44.36007" lon="3.40508">
        <ele>514.998926</ele>
        <time>2020-03-10T00:33:39.785Z</time>
      </trkpt>
      <trkpt lat="44.3596" lon="3.40455">
        <ele>519.250282</ele>
        <time>2020-03-10T00:34:06.430Z</time>
      </trkpt>
      <trkpt lat="44.35914" lon="3.40384">
        <ele>525.170316</ele>
        <time>2020-03-10T00:34:42.631Z</time>
      </trkpt>
      <trkpt lat="44.35823" lon="3.40325">
        <ele>535.278636</ele>
        <time>2020-03-10T00:35:42.729Z</time>
      </trkpt>
      <trkpt lat="44.35795" lon="3.40324">
        <ele>538.090702</ele>
        <time>2020-03-10T00:35:59.123Z</time>
      </trkpt>
      <trkpt lat="44.35767" lon="3.40314">
        <ele>540.151581</ele>
        <time>2020-03-10T00:36:14.168Z</time>
      </trkpt>
      <trkpt lat="44.35755" lon="3.40303">
        <ele>540.649658</ele>
        <time>2020-03-10T00:36:19.556Z</time>
      </trkpt>
      <trkpt lat="44.35734" lon="3.40264">
        <ele>541.854353</ele>
        <time>2020-03-10T00:36:33.457Z</time>
      </trkpt>
      <trkpt lat="44.35732" lon="3.40254">
        <ele>542.121817</ele>
        <time>2020-03-10T00:36:35.840Z</time>
      </trkpt>
      <trkpt lat="44.35734" lon="3.40249">
        <ele>542.256034</ele>
        <time>2020-03-10T00:36:40.182Z</time>
      </trkpt>
      <trkpt lat="44.35729" lon="3.40244">
        <ele>542.489843</ele>
        <time>2020-03-10T00:36:40.758Z</time>
      </trkpt>
      <trkpt lat="44.35707" lon="3.4024">
        <ele>543.23918</ele>
        <time>2020-03-10T00:36:44.884Z</time>
      </trkpt>
      <trkpt lat="44.3563" lon="3.40261">
        <ele>545.923609</ele>
        <time>2020-03-10T00:37:01.335Z</time>
      </trkpt>
      <trkpt lat="44.35598" lon="3.40256">
        <ele>545.337712</ele>
        <time>2020-03-10T00:37:04.313Z</time>
      </trkpt>
      <trkpt lat="44.35574" lon="3.40243">
        <ele>544.863249</ele>
        <time>2020-03-10T00:37:07.063Z</time>
      </trkpt>
      <trkpt lat="44.35559" lon="3.40224">
        <ele>544.492109</ele>
        <time>2020-03-10T00:37:08.989Z</time>
      </trkpt>
      <trkpt lat="44.35524" lon="3.40159">
        <ele>543.429319</ele>
        <time>2020-03-10T00:37:14.917Z</time>
      </trkpt>
      <trkpt lat="44.35478" lon="3.40046">
        <ele>544.514341</ele>
        <time>2020-03-10T00:37:31.236Z</time>
      </trkpt>
      <trkpt lat="44.3545" lon="3.3999">
        <ele>546.329484</ele>
        <time>2020-03-10T00:37:45.609Z</time>
      </trkpt>
      <trkpt lat="44.35431" lon="3.39947">
        <ele>547.65089</ele>
        <time>2020-03-10T00:37:58.484Z</time>
      </trkpt>
      <trkpt lat="44.35401" lon="3.39883">
        <ele>550.05171</ele>
        <time>2020-03-10T00:38:20.154Z</time>
      </trkpt>
      <trkpt lat="44.35405" lon="3.39876">
        <ele>550.507256</ele>
        <time>2020-03-10T00:38:22.855Z</time>
      </trkpt>
      <trkpt lat="44.35413" lon="3.39877">
        <ele>551.097325</ele>
        <time>2020-03-10T00:38:26.398Z</time>
      </trkpt>
      <trkpt lat="44.35431" lon="3.39921">
        <ele>553.713887</ele>
        <time>2020-03-10T00:38:42.082Z</time>
      </trkpt>
      <trkpt lat="44.35509" lon="3.40043">
        <ele>562.310526</ele>
        <time>2020-03-10T00:39:35.561Z</time>
      </trkpt>
      <trkpt lat="44.35549" lon="3.40119">
        <ele>567.201715</ele>
        <time>2020-03-10T00:40:06.280Z</time>
      </trkpt>
      <trkpt lat="44.35593" lon="3.40175">
        <ele>571.498782</ele>
        <time>2020-03-10T00:40:32.507Z</time>
      </trkpt>
      <trkpt lat="44.35603" lon="3.40185">
        <ele>572.38335</ele>
        <time>2020-03-10T00:40:37.493Z</time>
      </trkpt>
      <trkpt lat="44.35611" lon="3.40182">
        <ele>572.982106</ele>
        <time>2020-03-10T00:40:41.147Z</time>
      </trkpt>
      <trkpt lat="44.3561" lon="3.4017">
        <ele>573.651268</ele>
        <time>2020-03-10T00:40:45.202Z</time>
      </trkpt>
      <trkpt lat="44.35586" lon="3.40145">
        <ele>575.821402</ele>
        <time>2020-03-10T00:40:57.653Z</time>
      </trkpt>
      <trkpt lat="44.35572" lon="3.40122">
        <ele>577.357257</ele>
        <time>2020-03-10T00:41:06.560Z</time>
      </trkpt>
      <trkpt lat="44.35539" lon="3.4003">
        <ele>582.530462</ele>
        <time>2020-03-10T00:41:36.791Z</time>
      </trkpt>
      <trkpt lat="44.355" lon="3.39981">
        <ele>586.192559</ele>
        <time>2020-03-10T00:41:58.755Z</time>
      </trkpt>
      <trkpt lat="44.3548" lon="3.39912">
        <ele>590.748089</ele>
        <time>2020-03-10T00:42:23.677Z</time>
      </trkpt>
      <trkpt lat="44.35449" lon="3.39836">
        <ele>597.097187</ele>
        <time>2020-03-10T00:42:56.168Z</time>
      </trkpt>
      <trkpt lat="44.3544" lon="3.39791">
        <ele>600.45848</ele>
        <time>2020-03-10T00:43:14.812Z</time>
      </trkpt>
      <trkpt lat="44.35441" lon="3.3977">
        <ele>601.983545</ele>
        <time>2020-03-10T00:43:23.619Z</time>
      </trkpt>
      <trkpt lat="44.35509" lon="3.39544">
        <ele>623.240986</ele>
        <time>2020-03-10T00:45:18.498Z</time>
      </trkpt>
      <trkpt lat="44.35537" lon="3.39484">
        <ele>629.778773</ele>
        <time>2020-03-10T00:45:54.109Z</time>
      </trkpt>
      <trkpt lat="44.35629" lon="3.39386">
        <ele>644.049704</ele>
        <time>2020-03-10T00:47:11.727Z</time>
      </trkpt>
      <trkpt lat="44.35714" lon="3.39334">
        <ele>654.625592</ele>
        <time>2020-03-10T00:48:05.953Z</time>
      </trkpt>
      <trkpt lat="44.35793" lon="3.39249">
        <ele>664.330821</ele>
        <time>2020-03-10T00:49:02.071Z</time>
      </trkpt>
      <trkpt lat="44.35854" lon="3.39216">
        <ele>669.920229</ele>
        <time>2020-03-10T00:49:33.646Z</time>
      </trkpt>
      <trkpt lat="44.35876" lon="3.39207">
        <ele>671.027152</ele>
        <time>2020-03-10T00:49:43.718Z</time>
      </trkpt>
      <trkpt lat="44.35908" lon="3.39195">
        <ele>672.577174</ele>
        <time>2020-03-10T00:49:56.509Z</time>
      </trkpt>
      <trkpt lat="44.35927" lon="3.3919">
        <ele>673.536815</ele>
        <time>2020-03-10T00:50:00.596Z</time>
      </trkpt>
      <trkpt lat="44.35932" lon="3.3919">
        <ele>673.743369</ele>
        <time>2020-03-10T00:50:04.690Z</time>
      </trkpt>
      <trkpt lat="44.35938" lon="3.39189">
        <ele>674.031683</ele>
        <time>2020-03-10T00:50:06.754Z</time>
      </trkpt>
      <trkpt lat="44.35956" lon="3.39178">
        <ele>674.970172</ele>
        <time>2020-03-10T00:50:09.183Z</time>
      </trkpt>
      <trkpt lat="44.35959" lon="3.39171">
        <ele>675.290793</ele>
        <time>2020-03-10T00:50:12.527Z</time>
      </trkpt>
      <trkpt lat="44.3596" lon="3.39166">
        <ele>675.470063</ele>
        <time>2020-03-10T00:50:15.834Z</time>
      </trkpt>
      <trkpt lat="44.3596" lon="3.39152">
        <ele>675.922405</ele>
        <time>2020-03-10T00:50:18.599Z</time>
      </trkpt>
      <trkpt lat="44.35959" lon="3.39146">
        <ele>676.149957</ele>
        <time>2020-03-10T00:50:19.451Z</time>
      </trkpt>
      <trkpt lat="44.35957" lon="3.39143">
        <ele>676.28377</ele>
        <time>2020-03-10T00:50:19.682Z</time>
      </trkpt>
      <trkpt lat="44.35945" lon="3.39134">
        <ele>676.968226</ele>
        <time>2020-03-10T00:50:24.692Z</time>
      </trkpt>
      <trkpt lat="44.35806" lon="3.39106">
        <ele>680.216642</ele>
        <time>2020-03-10T00:50:57.438Z</time>
      </trkpt>
      <trkpt lat="44.35779" lon="3.3909">
        <ele>680.799843</ele>
        <time>2020-03-10T00:51:02.163Z</time>
      </trkpt>
      <trkpt lat="44.35752" lon="3.39065">
        <ele>681.469595</ele>
        <time>2020-03-10T00:51:08.781Z</time>
      </trkpt>
      <trkpt lat="44.35741" lon="3.39056">
        <ele>681.735506</ele>
        <time>2020-03-10T00:51:15.278Z</time>
      </trkpt>
      <trkpt lat="44.35736" lon="3.39054">
        <ele>681.836821</ele>
        <time>2020-03-10T00:51:16.464Z</time>
      </trkpt>
      <trkpt lat="44.35727" lon="3.39053">
        <ele>682.041133</ele>
        <time>2020-03-10T00:51:18.799Z</time>
      </trkpt>
      <trkpt lat="44.35721" lon="3.39055">
        <ele>682.158707</ele>
        <time>2020-03-10T00:51:20.144Z</time>
      </trkpt>
      <trkpt lat="44.35718" lon="3.39057">
        <ele>682.240742</ele>
        <time>2020-03-10T00:51:20.460Z</time>
      </trkpt>
      <trkpt lat="44.35691" lon="3.39109">
        <ele>683.221805</ele>
        <time>2020-03-10T00:51:32.441Z</time>
      </trkpt>
      <trkpt lat="44.35656" lon="3.39134">
        <ele>684.055545</ele>
        <time>2020-03-10T00:51:40.350Z</time>
      </trkpt>
      <trkpt lat="44.35513" lon="3.39125">
        <ele>691.098226</ele>
        <time>2020-03-10T00:52:19.227Z</time>
      </trkpt>
      <trkpt lat="44.35503" lon="3.39124">
        <ele>691.752807</ele>
        <time>2020-03-10T00:52:24.854Z</time>
      </trkpt>
      <trkpt lat="44.35509" lon="3.39114">
        <ele>692.357566</ele>
        <time>2020-03-10T00:52:29.129Z</time>
      </trkpt>
      <trkpt lat="44.35597" lon="3.39105">
        <ele>698.654365</ele>
        <time>2020-03-10T00:53:16.198Z</time>
      </trkpt>
      <trkpt lat="44.35648" lon="3.39089">
        <ele>703.424028</ele>
        <time>2020-03-10T00:53:52.641Z</time>
      </trkpt>
      <trkpt lat="44.35668" lon="3.39063">
        <ele>705.914665</ele>
        <time>2020-03-10T00:54:10.452Z</time>
      </trkpt>
      <trkpt lat="44.35684" lon="3.38984">
        <ele>711.320995</ele>
        <time>2020-03-10T00:54:35.771Z</time>
      </trkpt>
      <trkpt lat="44.35699" lon="3.38949">
        <ele>713.541065</ele>
        <time>2020-03-10T00:54:43.144Z</time>
      </trkpt>
      <trkpt lat="44.35708" lon="3.38941">
        <ele>713.742999</ele>
        <time>2020-03-10T00:54:51.603Z</time>
      </trkpt>
      <trkpt lat="44.35718" lon="3.38942">
        <ele>713.956658</ele>
        <time>2020-03-10T00:54:54.272Z</time>
      </trkpt>
      <trkpt lat="44.35727" lon="3.38953">
        <ele>714.180774</ele>
        <time>2020-03-10T00:54:55.286Z</time>
      </trkpt>
      <trkpt lat="44.35737" lon="3.38967">
        <ele>714.478845</ele>
        <time>2020-03-10T00:55:04.197Z</time>
      </trkpt>
      <trkpt lat="44.35808" lon="3.3901">
        <ele>716.010323</ele>
        <time>2020-03-10T00:55:18.855Z</time>
      </trkpt>
      <trkpt lat="44.35892" lon="3.39008">
        <ele>718.567829</ele>
        <time>2020-03-10T00:55:28.559Z</time>
      </trkpt>
      <trkpt lat="44.36002" lon="3.39018">
        <ele>723.579264</ele>
        <time>2020-03-10T00:56:05.358Z</time>
      </trkpt>
      <trkpt lat="44.3609" lon="3.3907">
        <ele>732.056965</ele>
        <time>2020-03-10T00:56:57.603Z</time>
      </trkpt>
      <trkpt lat="44.36113" lon="3.39075">
        <ele>734.677021</ele>
        <time>2020-03-10T00:57:11.751Z</time>
      </trkpt>
      <trkpt lat="44.36236" lon="3.39011">
        <ele>749.638211</ele>
        <time>2020-03-10T00:58:38.135Z</time>
      </trkpt>
      <trkpt lat="44.36303" lon="3.38992">
        <ele>757.547602</ele>
        <time>2020-03-10T00:59:21.544Z</time>
      </trkpt>
      <trkpt lat="44.36377" lon="3.38916">
        <ele>767.6797</ele>
        <time>2020-03-10T01:00:14.727Z</time>
      </trkpt>
      <trkpt lat="44.36421" lon="3.38893">
        <ele>771.630471</ele>
        <time>2020-03-10T01:00:39.489Z</time>
      </trkpt>
      <trkpt lat="44.36559" lon="3.38875">
        <ele>782.926663</ele>
        <time>2020-03-10T01:01:42.389Z</time>
      </trkpt>
      <trkpt lat="44.36651" lon="3.38883">
        <ele>788.880022</ele>
        <time>2020-03-10T01:02:20.475Z</time>
      </trkpt>
      <trkpt lat="44.36724" lon="3.38875">
        <ele>793.537404</ele>
        <time>2020-03-10T01:02:47.868Z</time>
      </trkpt>
      <trkpt lat="44.36748" lon="3.3887">
        <ele>794.914598</ele>
        <time>2020-03-10T01:02:57.021Z</time>
      </trkpt>
      <trkpt lat="44.36783" lon="3.38863">
        <ele>796.930776</ele>
        <time>2020-03-10T01:03:11.043Z</time>
      </trkpt>
      <trkpt lat="44.36823" lon="3.38851">
        <ele>799.206598</ele>
        <time>2020-03-10T01:03:26.271Z</time>
      </trkpt>
      <trkpt lat="44.36875" lon="3.38825">
        <ele>802.328699</ele>
        <time>2020-03-10T01:03:47.124Z</time>
      </trkpt>
      <trkpt lat="44.36901" lon="3.38811">
        <ele>803.772974</ele>
        <time>2020-03-10T01:03:57.007Z</time>
      </trkpt>
      <trkpt lat="44.36911" lon="3.3881">
        <ele>804.164326</ele>
        <time>2020-03-10T01:04:00.708Z</time>
      </trkpt>
      <trkpt lat="44.37022" lon="3.38775">
        <ele>809.016553</ele>
        <time>2020-03-10T01:04:38.140Z</time>
      </trkpt>
      <trkpt lat="44.37159" lon="3.3878">
        <ele>813.286014</ele>
        <time>2020-03-10T01:05:14.647Z</time>
      </trkpt>
      <trkpt lat="44.37202" lon="3.38754">
        <ele>814.475056</ele>
        <time>2020-03-10T01:05:25.421Z</time>
      </trkpt>
      <trkpt lat="44.37227" lon="3.38746">
        <ele>815.151841</ele>
        <time>2020-03-10T01:05:31.531Z</time>
      </trkpt>
      <trkpt lat="44.37263" lon="3.38748">
        <ele>815.983149</ele>
        <time>2020-03-10T01:05:39.625Z</time>
      </trkpt>
      <trkpt lat="44.37309" lon="3.38739">
        <ele>817.012374</ele>
        <time>2020-03-10T01:05:50.375Z</time>
      </trkpt>
      <trkpt lat="44.37394" lon="3.38757">
        <ele>818.884877</ele>
        <time>2020-03-10T01:06:10.566Z</time>
      </trkpt>
      <trkpt lat="44.3742" lon="3.3875">
        <ele>819.476798</ele>
        <time>2020-03-10T01:06:17.253Z</time>
      </trkpt>
      <trkpt lat="44.37536" lon="3.38684">
        <ele>822.371545</ele>
        <time>2020-03-10T01:06:48.514Z</time>
      </trkpt>
      <trkpt lat="44.37549" lon="3.38684">
        <ele>822.660905</ele>
        <time>2020-03-10T01:06:51.484Z</time>
      </trkpt>
      <trkpt lat="44.37579" lon="3.38699">
        <ele>823.416888</ele>
        <time>2020-03-10T01:06:59.132Z</time>
      </trkpt>
      <trkpt lat="44.37607" lon="3.38705">
        <ele>823.876166</ele>
        <time>2020-03-10T01:07:05.616Z</time>
      </trkpt>
      <trkpt lat="44.37751" lon="3.38677">
        <ele>825.635459</ele>
        <time>2020-03-10T01:07:34.204Z</time>
      </trkpt>
      <trkpt lat="44.37829" lon="3.38646">
        <ele>825.977645</ele>
        <time>2020-03-10T01:07:47.222Z</time>
      </trkpt>
      <trkpt lat="44.37865" lon="3.38648">
        <ele>826.057956</ele>
        <time>2020-03-10T01:07:52.652Z</time>
      </trkpt>
      <trkpt lat="44.38078" lon="3.3871">
        <ele>826.463451</ele>
        <time>2020-03-10T01:08:25.145Z</time>
      </trkpt>
      <trkpt lat="44.38135" lon="3.38724">
        <ele>826.558646</ele>
        <time>2020-03-10T01:08:35.042Z</time>
      </trkpt>
      <trkpt lat="44.38156" lon="3.38729">
        <ele>826.591283</ele>
        <time>2020-03-10T01:08:38.579Z</time>
      </trkpt>
      <trkpt lat="44.38234" lon="3.3875">
        <ele>826.717534</ele>
        <time>2020-03-10T01:08:51.620Z</time>
      </trkpt>
      <trkpt lat="44.38269" lon="3.38753">
        <ele>826.772542</ele>
        <time>2020-03-10T01:08:56.917Z</time>
      </trkpt>
      <trkpt lat="44.38377" lon="3.3873">
        <ele>826.179976</ele>
        <time>2020-03-10T01:09:11.012Z</time>
      </trkpt>
      <trkpt lat="44.38424" lon="3.38706">
        <ele>825.78303</ele>
        <time>2020-03-10T01:09:16.982Z</time>
      </trkpt>
      <trkpt lat="44.38481" lon="3.38641">
        <ele>825.630151</ele>
        <time>2020-03-10T01:09:26.020Z</time>
      </trkpt>
      <trkpt lat="44.38513" lon="3.38632">
        <ele>825.944248</ele>
        <time>2020-03-10T01:09:30.510Z</time>
      </trkpt>
      <trkpt lat="44.38564" lon="3.38636">
        <ele>826.424529</ele>
        <time>2020-03-10T01:09:39.583Z</time>
      </trkpt>
      <trkpt lat="44.3861" lon="3.3867">
        <ele>826.912338</ele>
        <time>2020-03-10T01:09:51.458Z</time>
      </trkpt>
      <trkpt lat="44.38655" lon="3.38669">
        <ele>827.88509</ele>
        <time>2020-03-10T01:10:03.397Z</time>
      </trkpt>
      <trkpt lat="44.38684" lon="3.38676">
        <ele>828.81934</ele>
        <time>2020-03-10T01:10:11.616Z</time>
      </trkpt>
      <trkpt lat="44.38701" lon="3.38678">
        <ele>829.328819</ele>
        <time>2020-03-10T01:10:16.979Z</time>
      </trkpt>
      <trkpt lat="44.38723" lon="3.38686">
        <ele>830.055177</ele>
        <time>2020-03-10T01:10:23.162Z</time>
      </trkpt>
      <trkpt lat="44.3874" lon="3.38696">
        <ele>830.619938</ele>
        <time>2020-03-10T01:10:28.965Z</time>
      </trkpt>
      <trkpt lat="44.38757" lon="3.38714">
        <ele>831.286626</ele>
        <time>2020-03-10T01:10:34.767Z</time>
      </trkpt>
      <trkpt lat="44.38771" lon="3.38738">
        <ele>831.971322</ele>
        <time>2020-03-10T01:10:40.997Z</time>
      </trkpt>
      <trkpt lat="44.38805" lon="3.38837">
        <ele>833.251265</ele>
        <time>2020-03-10T01:11:01.284Z</time>
      </trkpt>
      <trkpt lat="44.38836" lon="3.38874">
        <ele>833.669095</ele>
        <time>2020-03-10T01:11:09.063Z</time>
      </trkpt>
      <trkpt lat="44.38912" lon="3.38924">
        <ele>834.528572</ele>
        <time>2020-03-10T01:11:21.194Z</time>
      </trkpt>
      <trkpt lat="44.38977" lon="3.39034">
        <ele>833.89492</ele>
        <time>2020-03-10T01:11:33.985Z</time>
      </trkpt>
      <trkpt lat="44.38988" lon="3.39045">
        <ele>833.815185</ele>
        <time>2020-03-10T01:11:35.723Z</time>
      </trkpt>
      <trkpt lat="44.38992" lon="3.39047">
        <ele>833.789024</ele>
        <time>2020-03-10T01:11:36.133Z</time>
      </trkpt>
      <trkpt lat="44.38997" lon="3.39049">
        <ele>833.755743</ele>
        <time>2020-03-10T01:11:36.783Z</time>
      </trkpt>
      <trkpt lat="44.39223" lon="3.39075">
        <ele>833.280628</ele>
        <time>2020-03-10T01:12:08.568Z</time>
      </trkpt>
      <trkpt lat="44.39379" lon="3.39114">
        <ele>834.686441</ele>
        <time>2020-03-10T01:12:37.831Z</time>
      </trkpt>
      <trkpt lat="44.39522" lon="3.39079">
        <ele>836.901506</ele>
        <time>2020-03-10T01:13:08.839Z</time>
      </trkpt>
      <trkpt lat="44.39522" lon="3.39079">
        <ele>836.901506</ele>
        <time>2020-03-10T01:13:08.987Z</time>
      </trkpt>
      <trkpt lat="44.39533" lon="3.39081">
        <ele>837.091269</ele>
        <time>2020-03-10T01:13:11.244Z</time>
      </trkpt>
      <trkpt lat="44.39612" lon="3.39126">
        <ele>838.562864</ele>
        <time>2020-03-10T01:13:29.504Z</time>
      </trkpt>
      <trkpt lat="44.39735" lon="3.39219">
        <ele>841.107702</ele>
        <time>2020-03-10T01:14:00.468Z</time>
      </trkpt>
      <trkpt lat="44.3976" lon="3.39226">
        <ele>841.594363</ele>
        <time>2020-03-10T01:14:05.573Z</time>
      </trkpt>
      <trkpt lat="44.39768" lon="3.39222">
        <ele>841.765981</ele>
        <time>2020-03-10T01:14:07.805Z</time>
      </trkpt>
      <trkpt lat="44.39783" lon="3.3921">
        <ele>842.10318</ele>
        <time>2020-03-10T01:14:11.952Z</time>
      </trkpt>
      <trkpt lat="44.39831" lon="3.39172">
        <ele>843.189544</ele>
        <time>2020-03-10T01:14:24.826Z</time>
      </trkpt>
      <trkpt lat="44.3988" lon="3.39155">
        <ele>844.190104</ele>
        <time>2020-03-10T01:14:37.032Z</time>
      </trkpt>
      <trkpt lat="44.39896" lon="3.39148">
        <ele>844.520223</ele>
        <time>2020-03-10T01:14:40.823Z</time>
      </trkpt>
      <trkpt lat="44.39914" lon="3.3914">
        <ele>844.833257</ele>
        <time>2020-03-10T01:14:45.060Z</time>
      </trkpt>
      <trkpt lat="44.40004" lon="3.39129">
        <ele>845.709871</ele>
        <time>2020-03-10T01:15:02.203Z</time>
      </trkpt>
      <trkpt lat="44.40025" lon="3.39132">
        <ele>845.919747</ele>
        <time>2020-03-10T01:15:06.039Z</time>
      </trkpt>
      <trkpt lat="44.40027" lon="3.3913">
        <ele>845.946294</ele>
        <time>2020-03-10T01:15:07.138Z</time>
      </trkpt>
      <trkpt lat="44.40049" lon="3.39111">
        <ele>846.197698</ele>
        <time>2020-03-10T01:15:11.124Z</time>
      </trkpt>
      <trkpt lat="44.40125" lon="3.39079">
        <ele>847.110503</ele>
        <time>2020-03-10T01:15:23.775Z</time>
      </trkpt>
      <trkpt lat="44.40202" lon="3.39093">
        <ele>848.116781</ele>
        <time>2020-03-10T01:15:37.592Z</time>
      </trkpt>
      <trkpt lat="44.40216" lon="3.39099">
        <ele>848.304321</ele>
        <time>2020-03-10T01:15:40.677Z</time>
      </trkpt>
      <trkpt lat="44.40269" lon="3.39154">
        <ele>850.003014</ele>
        <time>2020-03-10T01:15:57.461Z</time>
      </trkpt>
      <trkpt lat="44.40282" lon="3.39164">
        <ele>850.710988</ele>
        <time>2020-03-10T01:16:01.761Z</time>
      </trkpt>
      <trkpt lat="44.40296" lon="3.39166">
        <ele>851.416659</ele>
        <time>2020-03-10T01:16:06.228Z</time>
      </trkpt>
      <trkpt lat="44.40314" lon="3.39156">
        <ele>852.387084</ele>
        <time>2020-03-10T01:16:12.744Z</time>
      </trkpt>
      <trkpt lat="44.40345" lon="3.39127">
        <ele>854.197607</ele>
        <time>2020-03-10T01:16:25.887Z</time>
      </trkpt>
      <trkpt lat="44.40389" lon="3.39114">
        <ele>856.418262</ele>
        <time>2020-03-10T01:16:43.388Z</time>
      </trkpt>
      <trkpt lat="44.40413" lon="3.3912">
        <ele>857.607354</ele>
        <time>2020-03-10T01:16:53.248Z</time>
      </trkpt>
      <trkpt lat="44.40429" lon="3.39146">
        <ele>859.379059</ele>
        <time>2020-03-10T01:17:03.770Z</time>
      </trkpt>
      <trkpt lat="44.40453" lon="3.39163">
        <ele>861.302922</ele>
        <time>2020-03-10T01:17:15.272Z</time>
      </trkpt>
      <trkpt lat="44.40465" lon="3.39163">
        <ele>862.200196</ele>
        <time>2020-03-10T01:17:20.802Z</time>
      </trkpt>
      <trkpt lat="44.40542" lon="3.3913">
        <ele>868.001131</ele>
        <time>2020-03-10T01:17:57.203Z</time>
      </trkpt>
      <trkpt lat="44.40605" lon="3.39129">
        <ele>872.373063</ele>
        <time>2020-03-10T01:18:25.408Z</time>
      </trkpt>
      <trkpt lat="44.40642" lon="3.39168">
        <ele>875.368653</ele>
        <time>2020-03-10T01:18:45.146Z</time>
      </trkpt>
      <trkpt lat="44.40657" lon="3.39191">
        <ele>876.785507</ele>
        <time>2020-03-10T01:18:54.165Z</time>
      </trkpt>
      <trkpt lat="44.40669" lon="3.3923">
        <ele>878.738612</ele>
        <time>2020-03-10T01:19:06.337Z</time>
      </trkpt>
      <trkpt lat="44.40682" lon="3.39251">
        <ele>880.042695</ele>
        <time>2020-03-10T01:19:14.221Z</time>
      </trkpt>
      <trkpt lat="44.40713" lon="3.3928">
        <ele>882.398321</ele>
        <time>2020-03-10T01:19:28.110Z</time>
      </trkpt>
      <trkpt lat="44.40738" lon="3.39294">
        <ele>883.690932</ele>
        <time>2020-03-10T01:19:37.829Z</time>
      </trkpt>
      <trkpt lat="44.40736" lon="3.39314">
        <ele>884.373727</ele>
        <time>2020-03-10T01:19:42.827Z</time>
      </trkpt>
      <trkpt lat="44.40691" lon="3.39318">
        <ele>886.518144</ele>
        <time>2020-03-10T01:19:57.840Z</time>
      </trkpt>
      <trkpt lat="44.4067" lon="3.39335">
        <ele>887.642719</ele>
        <time>2020-03-10T01:20:05.464Z</time>
      </trkpt>
      <trkpt lat="44.40653" lon="3.3939">
        <ele>889.670812</ele>
        <time>2020-03-10T01:20:19.160Z</time>
      </trkpt>
      <trkpt lat="44.4065" lon="3.39432">
        <ele>891.102186</ele>
        <time>2020-03-10T01:20:28.993Z</time>
      </trkpt>
      <trkpt lat="44.40656" lon="3.39577">
        <ele>896.070738</ele>
        <time>2020-03-10T01:21:04.106Z</time>
      </trkpt>
      <trkpt lat="44.40652" lon="3.39621">
        <ele>897.572183</ele>
        <time>2020-03-10T01:21:15.230Z</time>
      </trkpt>
      <trkpt lat="44.40569" lon="3.3991">
        <ele>908.10479</ele>
        <time>2020-03-10T01:22:32.560Z</time>
      </trkpt>
      <trkpt lat="44.4055" lon="3.40043">
        <ele>911.019155</ele>
        <time>2020-03-10T01:22:58.700Z</time>
      </trkpt>
      <trkpt lat="44.40548" lon="3.40082">
        <ele>911.861808</ele>
        <time>2020-03-10T01:23:05.293Z</time>
      </trkpt>
      <trkpt lat="44.40558" lon="3.40338">
        <ele>917.137945</ele>
        <time>2020-03-10T01:23:51.036Z</time>
      </trkpt>
      <trkpt lat="44.40559" lon="3.40362">
        <ele>917.621809</ele>
        <time>2020-03-10T01:23:55.924Z</time>
      </trkpt>
      <trkpt lat="44.40561" lon="3.40383">
        <ele>918.054552</ele>
        <time>2020-03-10T01:24:00.420Z</time>
      </trkpt>
      <trkpt lat="44.40567" lon="3.40409">
        <ele>918.623114</ele>
        <time>2020-03-10T01:24:05.837Z</time>
      </trkpt>
      <trkpt lat="44.40573" lon="3.40425">
        <ele>919.097891</ele>
        <time>2020-03-10T01:24:09.510Z</time>
      </trkpt>
      <trkpt lat="44.40605" lon="3.40513">
        <ele>921.707584</ele>
        <time>2020-03-10T01:24:31.024Z</time>
      </trkpt>
      <trkpt lat="44.40608" lon="3.40523">
        <ele>921.975903</ele>
        <time>2020-03-10T01:24:33.582Z</time>
      </trkpt>
      <trkpt lat="44.40616" lon="3.40547">
        <ele>922.680207</ele>
        <time>2020-03-10T01:24:39.562Z</time>
      </trkpt>
      <trkpt lat="44.40652" lon="3.40691">
        <ele>926.8492</ele>
        <time>2020-03-10T01:25:10.207Z</time>
      </trkpt>
      <trkpt lat="44.40675" lon="3.40752">
        <ele>928.885518</ele>
        <time>2020-03-10T01:25:26.227Z</time>
      </trkpt>
      <trkpt lat="44.40702" lon="3.40792">
        <ele>930.492879</ele>
        <time>2020-03-10T01:25:38.545Z</time>
      </trkpt>
      <trkpt lat="44.4075" lon="3.40834">
        <ele>932.812765</ele>
        <time>2020-03-10T01:25:56.790Z</time>
      </trkpt>
      <trkpt lat="44.40763" lon="3.40854">
        <ele>933.624022</ele>
        <time>2020-03-10T01:26:03.571Z</time>
      </trkpt>
      <trkpt lat="44.40765" lon="3.40857">
        <ele>933.742509</ele>
        <time>2020-03-10T01:26:04.995Z</time>
      </trkpt>
      <trkpt lat="44.40788" lon="3.40893">
        <ele>935.162694</ele>
        <time>2020-03-10T01:26:16.451Z</time>
      </trkpt>
      <trkpt lat="44.40794" lon="3.40902">
        <ele>935.535903</ele>
        <time>2020-03-10T01:26:19.451Z</time>
      </trkpt>
      <trkpt lat="44.40805" lon="3.4092">
        <ele>936.233713</ele>
        <time>2020-03-10T01:26:24.774Z</time>
      </trkpt>
      <trkpt lat="44.40831" lon="3.40961">
        <ele>937.860884</ele>
        <time>2020-03-10T01:26:37.660Z</time>
      </trkpt>
      <trkpt lat="44.40835" lon="3.40968">
        <ele>938.114019</ele>
        <time>2020-03-10T01:26:40.005Z</time>
      </trkpt>
      <trkpt lat="44.40874" lon="3.41035">
        <ele>939.927817</ele>
        <time>2020-03-10T01:26:57.785Z</time>
      </trkpt>
      <trkpt lat="44.40912" lon="3.41091">
        <ele>940.091288</ele>
        <time>2020-03-10T01:27:09.157Z</time>
      </trkpt>
      <trkpt lat="44.40928" lon="3.41115">
        <ele>940.159145</ele>
        <time>2020-03-10T01:27:12.804Z</time>
      </trkpt>
      <trkpt lat="44.40936" lon="3.41127">
        <ele>940.193097</ele>
        <time>2020-03-10T01:27:14.910Z</time>
      </trkpt>
      <trkpt lat="44.40946" lon="3.41141">
        <ele>940.233448</ele>
        <time>2020-03-10T01:27:17.318Z</time>
      </trkpt>
      <trkpt lat="44.40952" lon="3.4115">
        <ele>940.260349</ele>
        <time>2020-03-10T01:27:18.301Z</time>
      </trkpt>
      <trkpt lat="44.4097" lon="3.41192">
        <ele>940.362159</ele>
        <time>2020-03-10T01:27:22.226Z</time>
      </trkpt>
      <trkpt lat="44.4101" lon="3.41339">
        <ele>937.167212</ele>
        <time>2020-03-10T01:27:33.661Z</time>
      </trkpt>
      <trkpt lat="44.41011" lon="3.41353">
        <ele>936.852111</ele>
        <time>2020-03-10T01:27:34.568Z</time>
      </trkpt>
      <trkpt lat="44.41044" lon="3.41336">
        <ele>935.729872</ele>
        <time>2020-03-10T01:27:38.054Z</time>
      </trkpt>
      <trkpt lat="44.41087" lon="3.41327">
        <ele>934.349984</ele>
        <time>2020-03-10T01:27:42.389Z</time>
      </trkpt>
      <trkpt lat="44.41162" lon="3.41333">
        <ele>932.063975</ele>
        <time>2020-03-10T01:27:49.943Z</time>
      </trkpt>
      <trkpt lat="44.41212" lon="3.41324">
        <ele>930.559335</ele>
        <time>2020-03-10T01:27:55.131Z</time>
      </trkpt>
      <trkpt lat="44.41336" lon="3.41255">
        <ele>926.671759</ele>
        <time>2020-03-10T01:28:09.145Z</time>
      </trkpt>
      <trkpt lat="44.41438" lon="3.41199">
        <ele>923.500494</ele>
        <time>2020-03-10T01:28:20.411Z</time>
      </trkpt>
      <trkpt lat="44.41445" lon="3.41195">
        <ele>923.260321</ele>
        <time>2020-03-10T01:28:21.109Z</time>
      </trkpt>
      <trkpt lat="44.41501" lon="3.41151">
        <ele>921.160672</ele>
        <time>2020-03-10T01:28:27.664Z</time>
      </trkpt>
      <trkpt lat="44.41532" lon="3.41119">
        <ele>919.89026</ele>
        <time>2020-03-10T01:28:31.547Z</time>
      </trkpt>
      <trkpt lat="44.41563" lon="3.41071">
        <ele>918.372746</ele>
        <time>2020-03-10T01:28:36.154Z</time>
      </trkpt>
      <trkpt lat="44.41596" lon="3.41031">
        <ele>916.720797</ele>
        <time>2020-03-10T01:28:40.576Z</time>
      </trkpt>
      <trkpt lat="44.41693" lon="3.40969">
        <ele>912.660756</ele>
        <time>2020-03-10T01:28:50.986Z</time>
      </trkpt>
      <trkpt lat="44.41724" lon="3.40943">
        <ele>911.268557</ele>
        <time>2020-03-10T01:28:54.520Z</time>
      </trkpt>
      <trkpt lat="44.41772" lon="3.40843">
        <ele>907.8204</ele>
        <time>2020-03-10T01:29:02.901Z</time>
      </trkpt>
      <trkpt lat="44.41846" lon="3.40778">
        <ele>904.319712</ele>
        <time>2020-03-10T01:29:11.436Z</time>
      </trkpt>
      <trkpt lat="44.41874" lon="3.40746">
        <ele>903.16936</ele>
        <time>2020-03-10T01:29:15.018Z</time>
      </trkpt>
      <trkpt lat="44.41898" lon="3.4071">
        <ele>902.124851</ele>
        <time>2020-03-10T01:29:18.494Z</time>
      </trkpt>
      <trkpt lat="44.4192" lon="3.4069">
        <ele>901.318973</ele>
        <time>2020-03-10T01:29:21.199Z</time>
      </trkpt>
      <trkpt lat="44.42029" lon="3.40678">
        <ele>898.29922</ele>
        <time>2020-03-10T01:29:32.649Z</time>
      </trkpt>
      <trkpt lat="44.42077" lon="3.40659">
        <ele>897.420916</ele>
        <time>2020-03-10T01:29:38.298Z</time>
      </trkpt>
      <trkpt lat="44.42181" lon="3.4059">
        <ele>895.408508</ele>
        <time>2020-03-10T01:29:51.549Z</time>
      </trkpt>
      <trkpt lat="44.42219" lon="3.40566">
        <ele>894.71557</ele>
        <time>2020-03-10T01:29:56.374Z</time>
      </trkpt>
      <trkpt lat="44.42273" lon="3.40526">
        <ele>893.695826</ele>
        <time>2020-03-10T01:30:03.346Z</time>
      </trkpt>
      <trkpt lat="44.42411" lon="3.40358">
        <ele>890.69331</ele>
        <time>2020-03-10T01:30:23.714Z</time>
      </trkpt>
      <trkpt lat="44.42655" lon="3.40111">
        <ele>886.600952</ele>
        <time>2020-03-10T01:30:58.951Z</time>
      </trkpt>
      <trkpt lat="44.4269" lon="3.40093">
        <ele>886.226405</ele>
        <time>2020-03-10T01:31:03.523Z</time>
      </trkpt>
      <trkpt lat="44.42716" lon="3.40082">
        <ele>885.943983</ele>
        <time>2020-03-10T01:31:06.993Z</time>
      </trkpt>
      <trkpt lat="44.42722" lon="3.40079">
        <ele>885.87657</ele>
        <time>2020-03-10T01:31:07.880Z</time>
      </trkpt>
      <trkpt lat="44.42741" lon="3.40061">
        <ele>885.643036</ele>
        <time>2020-03-10T01:31:10.828Z</time>
      </trkpt>
      <trkpt lat="44.42843" lon="3.39902">
        <ele>883.894782</ele>
        <time>2020-03-10T01:31:29.466Z</time>
      </trkpt>
      <trkpt lat="44.42844" lon="3.39902">
        <ele>883.886418</ele>
        <time>2020-03-10T01:31:29.539Z</time>
      </trkpt>
      <trkpt lat="44.42867" lon="3.39876">
        <ele>883.538583</ele>
        <time>2020-03-10T01:31:33.017Z</time>
      </trkpt>
      <trkpt lat="44.42878" lon="3.3985">
        <ele>883.278462</ele>
        <time>2020-03-10T01:31:35.466Z</time>
      </trkpt>
      <trkpt lat="44.42903" lon="3.39742">
        <ele>882.096482</ele>
        <time>2020-03-10T01:31:44.691Z</time>
      </trkpt>
      <trkpt lat="44.42938" lon="3.39664">
        <ele>881.112493</ele>
        <time>2020-03-10T01:31:52.040Z</time>
      </trkpt>
      <trkpt lat="44.42969" lon="3.39616">
        <ele>880.42891</ele>
        <time>2020-03-10T01:31:57.627Z</time>
      </trkpt>
      <trkpt lat="44.43012" lon="3.39573">
        <ele>879.752949</ele>
        <time>2020-03-10T01:32:04.179Z</time>
      </trkpt>
      <trkpt lat="44.43082" lon="3.39435">
        <ele>878.239024</ele>
        <time>2020-03-10T01:32:18.493Z</time>
      </trkpt>
      <trkpt lat="44.43115" lon="3.39394">
        <ele>877.518749</ele>
        <time>2020-03-10T01:32:23.655Z</time>
      </trkpt>
      <trkpt lat="44.43117" lon="3.39391">
        <ele>877.459607</ele>
        <time>2020-03-10T01:32:24.011Z</time>
      </trkpt>
      <trkpt lat="44.43257" lon="3.39089">
        <ele>873.099813</ele>
        <time>2020-03-10T01:32:52.788Z</time>
      </trkpt>
      <trkpt lat="44.43265" lon="3.39054">
        <ele>872.640734</ele>
        <time>2020-03-10T01:32:55.717Z</time>
      </trkpt>
      <trkpt lat="44.43273" lon="3.38988">
        <ele>871.871576</ele>
        <time>2020-03-10T01:33:01.100Z</time>
      </trkpt>
      <trkpt lat="44.43276" lon="3.38965">
        <ele>871.644446</ele>
        <time>2020-03-10T01:33:03.053Z</time>
      </trkpt>
      <trkpt lat="44.43277" lon="3.38959">
        <ele>871.584886</ele>
        <time>2020-03-10T01:33:03.533Z</time>
      </trkpt>
      <trkpt lat="44.43294" lon="3.3891">
        <ele>871.062269</ele>
        <time>2020-03-10T01:33:07.996Z</time>
      </trkpt>
      <trkpt lat="44.43407" lon="3.38767">
        <ele>869.275077</ele>
        <time>2020-03-10T01:33:26.418Z</time>
      </trkpt>
      <trkpt lat="44.43438" lon="3.38743">
        <ele>868.994436</ele>
        <time>2020-03-10T01:33:30.867Z</time>
      </trkpt>
      <trkpt lat="44.435" lon="3.38722">
        <ele>868.470093</ele>
        <time>2020-03-10T01:33:39.174Z</time>
      </trkpt>
      <trkpt lat="44.43528" lon="3.38702">
        <ele>868.221218</ele>
        <time>2020-03-10T01:33:43.137Z</time>
      </trkpt>
      <trkpt lat="44.43565" lon="3.38653">
        <ele>867.858392</ele>
        <time>2020-03-10T01:33:49.729Z</time>
      </trkpt>
      <trkpt lat="44.43648" lon="3.38515">
        <ele>866.948132</ele>
        <time>2020-03-10T01:34:06.195Z</time>
      </trkpt>
      <trkpt lat="44.43766" lon="3.38283">
        <ele>865.172716</ele>
        <time>2020-03-10T01:34:31.396Z</time>
      </trkpt>
      <trkpt lat="44.43794" lon="3.38227">
        <ele>864.83914</ele>
        <time>2020-03-10T01:34:37.531Z</time>
      </trkpt>
      <trkpt lat="44.43832" lon="3.38154">
        <ele>864.396105</ele>
        <time>2020-03-10T01:34:45.982Z</time>
      </trkpt>
      <trkpt lat="44.43907" lon="3.38047">
        <ele>863.583387</ele>
        <time>2020-03-10T01:35:00.165Z</time>
      </trkpt>
      <trkpt lat="44.44121" lon="3.37831">
        <ele>861.15034</ele>
        <time>2020-03-10T01:35:32.544Z</time>
      </trkpt>
      <trkpt lat="44.4424" lon="3.37726">
        <ele>859.534345</ele>
        <time>2020-03-10T01:35:49.403Z</time>
      </trkpt>
      <trkpt lat="44.44259" lon="3.37709">
        <ele>859.268388</ele>
        <time>2020-03-10T01:35:52.041Z</time>
      </trkpt>
      <trkpt lat="44.44278" lon="3.37685">
        <ele>858.966373</ele>
        <time>2020-03-10T01:35:55.131Z</time>
      </trkpt>
      <trkpt lat="44.44358" lon="3.37583">
        <ele>857.539615</ele>
        <time>2020-03-10T01:36:07.925Z</time>
      </trkpt>
      <trkpt lat="44.44422" lon="3.37515">
        <ele>856.462344</ele>
        <time>2020-03-10T01:36:17.255Z</time>
      </trkpt>
      <trkpt lat="44.44475" lon="3.37475">
        <ele>855.567174</ele>
        <time>2020-03-10T01:36:24.230Z</time>
      </trkpt>
      <trkpt lat="44.44615" lon="3.3741">
        <ele>853.269715</ele>
        <time>2020-03-10T01:36:41.097Z</time>
      </trkpt>
      <trkpt lat="44.44707" lon="3.37354">
        <ele>851.268266</ele>
        <time>2020-03-10T01:36:52.319Z</time>
      </trkpt>
      <trkpt lat="44.44769" lon="3.37303">
        <ele>849.812048</ele>
        <time>2020-03-10T01:37:00.036Z</time>
      </trkpt>
      <trkpt lat="44.44871" lon="3.37196">
        <ele>846.663595</ele>
        <time>2020-03-10T01:37:13.486Z</time>
      </trkpt>
      <trkpt lat="44.44931" lon="3.3716">
        <ele>845.207281</ele>
        <time>2020-03-10T01:37:20.348Z</time>
      </trkpt>
      <trkpt lat="44.44967" lon="3.37129">
        <ele>844.468403</ele>
        <time>2020-03-10T01:37:25.042Z</time>
      </trkpt>
      <trkpt lat="44.44994" lon="3.37094">
        <ele>843.845578</ele>
        <time>2020-03-10T01:37:29.116Z</time>
      </trkpt>
      <trkpt lat="44.45019" lon="3.37063">
        <ele>843.260615</ele>
        <time>2020-03-10T01:37:33.023Z</time>
      </trkpt>
      <trkpt lat="44.45106" lon="3.36998">
        <ele>841.652058</ele>
        <time>2020-03-10T01:37:44.669Z</time>
      </trkpt>
      <trkpt lat="44.45176" lon="3.36925">
        <ele>840.298995</ele>
        <time>2020-03-10T01:37:55.202Z</time>
      </trkpt>
      <trkpt lat="44.45207" lon="3.3688">
        <ele>839.57688</ele>
        <time>2020-03-10T01:38:00.096Z</time>
      </trkpt>
      <trkpt lat="44.4527" lon="3.36757">
        <ele>836.149396</ele>
        <time>2020-03-10T01:38:11.077Z</time>
      </trkpt>
      <trkpt lat="44.45283" lon="3.36726">
        <ele>835.326882</ele>
        <time>2020-03-10T01:38:13.665Z</time>
      </trkpt>
      <trkpt lat="44.45307" lon="3.36655">
        <ele>833.360342</ele>
        <time>2020-03-10T01:38:19.209Z</time>
      </trkpt>
      <trkpt lat="44.45319" lon="3.36612">
        <ele>831.769994</ele>
        <time>2020-03-10T01:38:22.472Z</time>
      </trkpt>
      <trkpt lat="44.45342" lon="3.36566">
        <ele>829.853461</ele>
        <time>2020-03-10T01:38:26.319Z</time>
      </trkpt>
      <trkpt lat="44.45359" lon="3.36551">
        <ele>828.885904</ele>
        <time>2020-03-10T01:38:28.238Z</time>
      </trkpt>
      <trkpt lat="44.45379" lon="3.3654">
        <ele>827.893605</ele>
        <time>2020-03-10T01:38:30.204Z</time>
      </trkpt>
      <trkpt lat="44.45418" lon="3.3653">
        <ele>825.982892</ele>
        <time>2020-03-10T01:38:33.969Z</time>
      </trkpt>
      <trkpt lat="44.45449" lon="3.36512">
        <ele>823.778452</ele>
        <time>2020-03-10T01:38:37.039Z</time>
      </trkpt>
      <trkpt lat="44.45514" lon="3.36427">
        <ele>816.694267</ele>
        <time>2020-03-10T01:38:45.002Z</time>
      </trkpt>
      <trkpt lat="44.45596" lon="3.36371">
        <ele>809.279106</ele>
        <time>2020-03-10T01:38:52.867Z</time>
      </trkpt>
      <trkpt lat="44.45626" lon="3.36326">
        <ele>805.277097</ele>
        <time>2020-03-10T01:38:56.696Z</time>
      </trkpt>
      <trkpt lat="44.45664" lon="3.36248">
        <ele>799.221029</ele>
        <time>2020-03-10T01:39:02.571Z</time>
      </trkpt>
      <trkpt lat="44.45687" lon="3.3623">
        <ele>796.889055</ele>
        <time>2020-03-10T01:39:04.864Z</time>
      </trkpt>
      <trkpt lat="44.45737" lon="3.36209">
        <ele>792.493694</ele>
        <time>2020-03-10T01:39:09.531Z</time>
      </trkpt>
      <trkpt lat="44.45822" lon="3.36118">
        <ele>783.888384</ele>
        <time>2020-03-10T01:39:19.089Z</time>
      </trkpt>
      <trkpt lat="44.45838" lon="3.36112">
        <ele>782.529834</ele>
        <time>2020-03-10T01:39:20.582Z</time>
      </trkpt>
      <trkpt lat="44.4586" lon="3.36111">
        <ele>780.788718</ele>
        <time>2020-03-10T01:39:22.485Z</time>
      </trkpt>
      <trkpt lat="44.45928" lon="3.36125">
        <ele>772.046638</ele>
        <time>2020-03-10T01:39:28.378Z</time>
      </trkpt>
      <trkpt lat="44.4595" lon="3.36108">
        <ele>768.739296</ele>
        <time>2020-03-10T01:39:30.507Z</time>
      </trkpt>
      <trkpt lat="44.45958" lon="3.36081">
        <ele>766.099732</ele>
        <time>2020-03-10T01:39:32.199Z</time>
      </trkpt>
      <trkpt lat="44.45957" lon="3.36067">
        <ele>764.703185</ele>
        <time>2020-03-10T01:39:33.088Z</time>
      </trkpt>
      <trkpt lat="44.45929" lon="3.36">
        <ele>757.519015</ele>
        <time>2020-03-10T01:39:37.669Z</time>
      </trkpt>
      <trkpt lat="44.45886" lon="3.35928">
        <ele>747.743975</ele>
        <time>2020-03-10T01:39:43.220Z</time>
      </trkpt>
      <trkpt lat="44.45881" lon="3.35893">
        <ele>743.944834</ele>
        <time>2020-03-10T01:39:45.375Z</time>
      </trkpt>
      <trkpt lat="44.45894" lon="3.35824">
        <ele>736.511408</ele>
        <time>2020-03-10T01:39:49.599Z</time>
      </trkpt>
      <trkpt lat="44.45938" lon="3.35699">
        <ele>724.200335</ele>
        <time>2020-03-10T01:39:57.952Z</time>
      </trkpt>
      <trkpt lat="44.45976" lon="3.35561">
        <ele>712.661707</ele>
        <time>2020-03-10T01:40:07.082Z</time>
      </trkpt>
      <trkpt lat="44.45978" lon="3.35495">
        <ele>708.987535</ele>
        <time>2020-03-10T01:40:11.172Z</time>
      </trkpt>
      <trkpt lat="44.45965" lon="3.35416">
        <ele>705.219091</ele>
        <time>2020-03-10T01:40:16.371Z</time>
      </trkpt>
      <trkpt lat="44.45961" lon="3.3538">
        <ele>703.512332</ele>
        <time>2020-03-10T01:40:18.790Z</time>
      </trkpt>
      <trkpt lat="44.45964" lon="3.35349">
        <ele>702.094078</ele>
        <time>2020-03-10T01:40:20.850Z</time>
      </trkpt>
      <trkpt lat="44.4598" lon="3.35294">
        <ele>699.358498</ele>
        <time>2020-03-10T01:40:25.053Z</time>
      </trkpt>
      <trkpt lat="44.46012" lon="3.35239">
        <ele>697.417219</ele>
        <time>2020-03-10T01:40:30.159Z</time>
      </trkpt>
      <trkpt lat="44.46053" lon="3.35206">
        <ele>695.6027</ele>
        <time>2020-03-10T01:40:34.854Z</time>
      </trkpt>
      <trkpt lat="44.46102" lon="3.35194">
        <ele>693.710379</ele>
        <time>2020-03-10T01:40:39.898Z</time>
      </trkpt>
      <trkpt lat="44.46109" lon="3.35186">
        <ele>693.392212</ele>
        <time>2020-03-10T01:40:40.802Z</time>
      </trkpt>
      <trkpt lat="44.46111" lon="3.35177">
        <ele>693.112357</ele>
        <time>2020-03-10T01:40:41.874Z</time>
      </trkpt>
      <trkpt lat="44.46107" lon="3.35166">
        <ele>692.774075</ele>
        <time>2020-03-10T01:40:42.644Z</time>
      </trkpt>
      <trkpt lat="44.46092" lon="3.35164">
        <ele>692.071866</ele>
        <time>2020-03-10T01:40:44.034Z</time>
      </trkpt>
      <trkpt lat="44.46012" lon="3.35192">
        <ele>687.441197</ele>
        <time>2020-03-10T01:40:51.822Z</time>
      </trkpt>
      <trkpt lat="44.45984" lon="3.35182">
        <ele>685.833635</ele>
        <time>2020-03-10T01:40:54.390Z</time>
      </trkpt>
      <trkpt lat="44.45969" lon="3.35159">
        <ele>684.593269</ele>
        <time>2020-03-10T01:40:56.423Z</time>
      </trkpt>
      <trkpt lat="44.45966" lon="3.35145">
        <ele>684.005214</ele>
        <time>2020-03-10T01:40:57.366Z</time>
      </trkpt>
      <trkpt lat="44.45965" lon="3.3514">
        <ele>683.791988</ele>
        <time>2020-03-10T01:40:57.700Z</time>
      </trkpt>
      <trkpt lat="44.45973" lon="3.35102">
        <ele>682.232748</ele>
        <time>2020-03-10T01:41:00.389Z</time>
      </trkpt>
      <trkpt lat="44.45984" lon="3.35089">
        <ele>681.510278</ele>
        <time>2020-03-10T01:41:01.687Z</time>
      </trkpt>
      <trkpt lat="44.46076" lon="3.35041">
        <ele>676.543856</ele>
        <time>2020-03-10T01:41:10.735Z</time>
      </trkpt>
      <trkpt lat="44.46102" lon="3.35019">
        <ele>675.013917</ele>
        <time>2020-03-10T01:41:13.689Z</time>
      </trkpt>
      <trkpt lat="44.46128" lon="3.34987">
        <ele>673.303027</ele>
        <time>2020-03-10T01:41:17.185Z</time>
      </trkpt>
      <trkpt lat="44.46139" lon="3.34972">
        <ele>672.872502</ele>
        <time>2020-03-10T01:41:18.647Z</time>
      </trkpt>
      <trkpt lat="44.46187" lon="3.34904">
        <ele>670.921584</ele>
        <time>2020-03-10T01:41:25.618Z</time>
      </trkpt>
      <trkpt lat="44.46277" lon="3.34789">
        <ele>667.681088</ele>
        <time>2020-03-10T01:41:38.667Z</time>
      </trkpt>
      <trkpt lat="44.46292" lon="3.34763">
        <ele>667.203378</ele>
        <time>2020-03-10T01:41:41.292Z</time>
      </trkpt>
      <trkpt lat="44.46318" lon="3.34715">
        <ele>666.315369</ele>
        <time>2020-03-10T01:41:46.379Z</time>
      </trkpt>
      <trkpt lat="44.46363" lon="3.34665">
        <ele>665.121915</ele>
        <time>2020-03-10T01:41:52.716Z</time>
      </trkpt>
      <trkpt lat="44.4639" lon="3.34623">
        <ele>664.134176</ele>
        <time>2020-03-10T01:41:56.980Z</time>
      </trkpt>
      <trkpt lat="44.46413" lon="3.34568">
        <ele>662.606812</ele>
        <time>2020-03-10T01:42:01.672Z</time>
      </trkpt>
      <trkpt lat="44.46416" lon="3.34561">
        <ele>662.420258</ele>
        <time>2020-03-10T01:42:02.195Z</time>
      </trkpt>
      <trkpt lat="44.4644" lon="3.34497">
        <ele>660.704374</ele>
        <time>2020-03-10T01:42:07.428Z</time>
      </trkpt>
      <trkpt lat="44.46459" lon="3.34484">
        <ele>660.011714</ele>
        <time>2020-03-10T01:42:09.436Z</time>
      </trkpt>
      <trkpt lat="44.46481" lon="3.34479">
        <ele>659.251665</ele>
        <time>2020-03-10T01:42:11.735Z</time>
      </trkpt>
      <trkpt lat="44.46487" lon="3.34477">
        <ele>659.066285</ele>
        <time>2020-03-10T01:42:12.253Z</time>
      </trkpt>
      <trkpt lat="44.46505" lon="3.34466">
        <ele>658.437069</ele>
        <time>2020-03-10T01:42:14.266Z</time>
      </trkpt>
      <trkpt lat="44.46521" lon="3.34452">
        <ele>657.970145</ele>
        <time>2020-03-10T01:42:16.090Z</time>
      </trkpt>
      <trkpt lat="44.46529" lon="3.34453">
        <ele>657.794966</ele>
        <time>2020-03-10T01:42:16.763Z</time>
      </trkpt>
      <trkpt lat="44.46555" lon="3.34474">
        <ele>657.04172</ele>
        <time>2020-03-10T01:42:19.830Z</time>
      </trkpt>
      <trkpt lat="44.46568" lon="3.34484">
        <ele>656.69164</ele>
        <time>2020-03-10T01:42:21.313Z</time>
      </trkpt>
      <trkpt lat="44.46584" lon="3.34494">
        <ele>656.245487</ele>
        <time>2020-03-10T01:42:23.080Z</time>
      </trkpt>
      <trkpt lat="44.46607" lon="3.34501">
        <ele>655.66956</ele>
        <time>2020-03-10T01:42:25.546Z</time>
      </trkpt>
      <trkpt lat="44.46611" lon="3.345">
        <ele>655.563075</ele>
        <time>2020-03-10T01:42:25.959Z</time>
      </trkpt>
      <trkpt lat="44.46622" lon="3.34499">
        <ele>655.305259</ele>
        <time>2020-03-10T01:42:26.994Z</time>
      </trkpt>
      <trkpt lat="44.46632" lon="3.34494">
        <ele>655.03096</ele>
        <time>2020-03-10T01:42:28.193Z</time>
      </trkpt>
      <trkpt lat="44.46642" lon="3.34494">
        <ele>654.794078</ele>
        <time>2020-03-10T01:42:29.270Z</time>
      </trkpt>
      <trkpt lat="44.4676" lon="3.34494">
        <ele>656.789807</ele>
        <time>2020-03-10T01:42:51.465Z</time>
      </trkpt>
      <trkpt lat="44.46771" lon="3.34494">
        <ele>657.114764</ele>
        <time>2020-03-10T01:42:57.011Z</time>
      </trkpt>
      <trkpt lat="44.4678" lon="3.34496">
        <ele>657.359665</ele>
        <time>2020-03-10T01:42:58.570Z</time>
      </trkpt>
      <trkpt lat="44.46798" lon="3.34504">
        <ele>657.925662</ele>
        <time>2020-03-10T01:43:05.275Z</time>
      </trkpt>
      <trkpt lat="44.468" lon="3.34498">
        <ele>658.071466</ele>
        <time>2020-03-10T01:43:09.051Z</time>
      </trkpt>
      <trkpt lat="44.46813" lon="3.34447">
        <ele>659.190726</ele>
        <time>2020-03-10T01:43:22.469Z</time>
      </trkpt>
      <trkpt lat="44.46818" lon="3.34426">
        <ele>659.820255</ele>
        <time>2020-03-10T01:43:25.697Z</time>
      </trkpt>
      <trkpt lat="44.46821" lon="3.34372">
        <ele>661.684563</ele>
        <time>2020-03-10T01:43:39.580Z</time>
      </trkpt>
      <trkpt lat="44.4682" lon="3.34361">
        <ele>662.044227</ele>
        <time>2020-03-10T01:43:43.605Z</time>
      </trkpt>
      <trkpt lat="44.46819" lon="3.34354">
        <ele>662.289621</ele>
        <time>2020-03-10T01:43:47.124Z</time>
      </trkpt>
      <trkpt lat="44.46813" lon="3.34328">
        <ele>663.222509</ele>
        <time>2020-03-10T01:43:52.230Z</time>
      </trkpt>
      <trkpt lat="44.46763" lon="3.34212">
        <ele>667.839646</ele>
        <time>2020-03-10T01:44:26.128Z</time>
      </trkpt>
      <trkpt lat="44.46756" lon="3.34163">
        <ele>668.726779</ele>
        <time>2020-03-10T01:44:36.600Z</time>
      </trkpt>
      <trkpt lat="44.46745" lon="3.34126">
        <ele>669.376971</ele>
        <time>2020-03-10T01:44:42.227Z</time>
      </trkpt>
      <trkpt lat="44.46722" lon="3.34075">
        <ele>670.36538</ele>
        <time>2020-03-10T01:44:50.798Z</time>
      </trkpt>
      <trkpt lat="44.46714" lon="3.34058">
        <ele>670.689583</ele>
        <time>2020-03-10T01:44:53.539Z</time>
      </trkpt>
      <trkpt lat="44.46708" lon="3.34045">
        <ele>670.943371</ele>
        <time>2020-03-10T01:44:56.030Z</time>
      </trkpt>
      <trkpt lat="44.467" lon="3.34037">
        <ele>671.173633</ele>
        <time>2020-03-10T01:44:58.012Z</time>
      </trkpt>
      <trkpt lat="44.46672" lon="3.34014">
        <ele>671.911555</ele>
        <time>2020-03-10T01:45:05.281Z</time>
      </trkpt>
      <trkpt lat="44.46671" lon="3.34012">
        <ele>671.956484</ele>
        <time>2020-03-10T01:45:05.760Z</time>
      </trkpt>
      <trkpt lat="44.46658" lon="3.33999">
        <ele>672.414881</ele>
        <time>2020-03-10T01:45:09.404Z</time>
      </trkpt>
      <trkpt lat="44.46642" lon="3.33973">
        <ele>673.184977</ele>
        <time>2020-03-10T01:45:16.040Z</time>
      </trkpt>
      <trkpt lat="44.46606" lon="3.33863">
        <ele>675.883758</ele>
        <time>2020-03-10T01:45:39.280Z</time>
      </trkpt>
      <trkpt lat="44.46598" lon="3.33836">
        <ele>676.522688</ele>
        <time>2020-03-10T01:45:45.426Z</time>
      </trkpt>
      <trkpt lat="44.46594" lon="3.33823">
        <ele>676.829347</ele>
        <time>2020-03-10T01:45:48.021Z</time>
      </trkpt>
      <trkpt lat="44.46591" lon="3.33813">
        <ele>677.067029</ele>
        <time>2020-03-10T01:45:50.705Z</time>
      </trkpt>
      <trkpt lat="44.46568" lon="3.3377">
        <ele>678.484179</ele>
        <time>2020-03-10T01:46:02.768Z</time>
      </trkpt>
      <trkpt lat="44.46551" lon="3.33753">
        <ele>679.353424</ele>
        <time>2020-03-10T01:46:08.951Z</time>
      </trkpt>
      <trkpt lat="44.46493" lon="3.33717">
        <ele>681.984903</ele>
        <time>2020-03-10T01:46:28.888Z</time>
      </trkpt>
      <trkpt lat="44.46484" lon="3.33713">
        <ele>682.379726</ele>
        <time>2020-03-10T01:46:32.054Z</time>
      </trkpt>
      <trkpt lat="44.46431" lon="3.33686">
        <ele>684.732749</ele>
        <time>2020-03-10T01:46:49.510Z</time>
      </trkpt>
      <trkpt lat="44.46346" lon="3.33633">
        <ele>689.512707</ele>
        <time>2020-03-10T01:47:21.201Z</time>
      </trkpt>
      <trkpt lat="44.46282" lon="3.3357">
        <ele>693.679075</ele>
        <time>2020-03-10T01:47:50.373Z</time>
      </trkpt>
      <trkpt lat="44.46167" lon="3.33488">
        <ele>701.300928</ele>
        <time>2020-03-10T01:48:41.808Z</time>
      </trkpt>
      <trkpt lat="44.45945" lon="3.33402">
        <ele>714.066621</ele>
        <time>2020-03-10T01:50:08.970Z</time>
      </trkpt>
      <trkpt lat="44.45919" lon="3.33407">
        <ele>715.400297</ele>
        <time>2020-03-10T01:50:16.884Z</time>
      </trkpt>
      <trkpt lat="44.45856" lon="3.3344">
        <ele>718.584313</ele>
        <time>2020-03-10T01:50:36.226Z</time>
      </trkpt>
      <trkpt lat="44.45831" lon="3.33443">
        <ele>719.735249</ele>
        <time>2020-03-10T01:50:42.615Z</time>
      </trkpt>
      <trkpt lat="44.45686" lon="3.33365">
        <ele>731.150528</ele>
        <time>2020-03-10T01:51:42.445Z</time>
      </trkpt>
      <trkpt lat="44.45542" lon="3.33321">
        <ele>747.895341</ele>
        <time>2020-03-10T01:53:20.910Z</time>
      </trkpt>
      <trkpt lat="44.45508" lon="3.33305">
        <ele>753.07334</ele>
        <time>2020-03-10T01:53:50.593Z</time>
      </trkpt>
      <trkpt lat="44.45481" lon="3.33272">
        <ele>758.287541</ele>
        <time>2020-03-10T01:54:18.497Z</time>
      </trkpt>
      <trkpt lat="44.45469" lon="3.33217">
        <ele>764.200099</ele>
        <time>2020-03-10T01:54:47.952Z</time>
      </trkpt>
      <trkpt lat="44.45469" lon="3.33206">
        <ele>765.363932</ele>
        <time>2020-03-10T01:54:56.491Z</time>
      </trkpt>
      <trkpt lat="44.45475" lon="3.33161">
        <ele>769.402026</ele>
        <time>2020-03-10T01:55:17.517Z</time>
      </trkpt>
      <trkpt lat="44.45485" lon="3.33107">
        <ele>773.331845</ele>
        <time>2020-03-10T01:55:43.267Z</time>
      </trkpt>
      <trkpt lat="44.45484" lon="3.33079">
        <ele>775.336535</ele>
        <time>2020-03-10T01:55:52.707Z</time>
      </trkpt>
      <trkpt lat="44.45469" lon="3.33026">
        <ele>779.366367</ele>
        <time>2020-03-10T01:56:14.956Z</time>
      </trkpt>
      <trkpt lat="44.45468" lon="3.33025">
        <ele>779.448446</ele>
        <time>2020-03-10T01:56:15.683Z</time>
      </trkpt>
      <trkpt lat="44.4545" lon="3.32999">
        <ele>782.010388</ele>
        <time>2020-03-10T01:56:29.896Z</time>
      </trkpt>
      <trkpt lat="44.4542" lon="3.32973">
        <ele>785.543485</ele>
        <time>2020-03-10T01:56:43.992Z</time>
      </trkpt>
      <trkpt lat="44.45354" lon="3.32937">
        <ele>788.859121</ele>
        <time>2020-03-10T01:57:10.772Z</time>
      </trkpt>
      <trkpt lat="44.4529" lon="3.32912">
        <ele>791.92467</ele>
        <time>2020-03-10T01:57:32.776Z</time>
      </trkpt>
      <trkpt lat="44.45264" lon="3.32894">
        <ele>793.282932</ele>
        <time>2020-03-10T01:57:41.232Z</time>
      </trkpt>
      <trkpt lat="44.45242" lon="3.32868">
        <ele>794.09691</ele>
        <time>2020-03-10T01:57:48.755Z</time>
      </trkpt>
      <trkpt lat="44.4511" lon="3.3267">
        <ele>795.934527</ele>
        <time>2020-03-10T01:58:20.474Z</time>
      </trkpt>
      <trkpt lat="44.451" lon="3.32653">
        <ele>796.13984</ele>
        <time>2020-03-10T01:58:22.875Z</time>
      </trkpt>
      <trkpt lat="44.45087" lon="3.32635">
        <ele>796.377488</ele>
        <time>2020-03-10T01:58:25.844Z</time>
      </trkpt>
      <trkpt lat="44.4507" lon="3.32603">
        <ele>796.745748</ele>
        <time>2020-03-10T01:58:30.800Z</time>
      </trkpt>
      <trkpt lat="44.45062" lon="3.32571">
        <ele>797.067745</ele>
        <time>2020-03-10T01:58:35.660Z</time>
      </trkpt>
      <trkpt lat="44.45054" lon="3.3249">
        <ele>797.823409</ele>
        <time>2020-03-10T01:58:48.867Z</time>
      </trkpt>
      <trkpt lat="44.45047" lon="3.32472">
        <ele>798.231823</ele>
        <time>2020-03-10T01:58:52.761Z</time>
      </trkpt>
      <trkpt lat="44.45026" lon="3.32452">
        <ele>799.241922</ele>
        <time>2020-03-10T01:58:59.643Z</time>
      </trkpt>
      <trkpt lat="44.45002" lon="3.32447">
        <ele>800.245087</ele>
        <time>2020-03-10T01:59:06.950Z</time>
      </trkpt>
      <trkpt lat="44.44967" lon="3.32456">
        <ele>801.712913</ele>
        <time>2020-03-10T01:59:18.584Z</time>
      </trkpt>
      <trkpt lat="44.44918" lon="3.32459">
        <ele>803.681221</ele>
        <time>2020-03-10T01:59:34.937Z</time>
      </trkpt>
      <trkpt lat="44.44774" lon="3.32459">
        <ele>809.677831</ele>
        <time>2020-03-10T02:00:23.861Z</time>
      </trkpt>
      <trkpt lat="44.4473" lon="3.32449">
        <ele>811.573401</ele>
        <time>2020-03-10T02:00:37.932Z</time>
      </trkpt>
      <trkpt lat="44.44667" lon="3.32414">
        <ele>813.464812</ele>
        <time>2020-03-10T02:00:55.652Z</time>
      </trkpt>
      <trkpt lat="44.44652" lon="3.32409">
        <ele>813.742463</ele>
        <time>2020-03-10T02:00:59.569Z</time>
      </trkpt>
      <trkpt lat="44.44637" lon="3.32407">
        <ele>814.008023</ele>
        <time>2020-03-10T02:01:02.774Z</time>
      </trkpt>
      <trkpt lat="44.44619" lon="3.32408">
        <ele>814.329931</ele>
        <time>2020-03-10T02:01:06.781Z</time>
      </trkpt>
      <trkpt lat="44.44585" lon="3.32418">
        <ele>814.955215</ele>
        <time>2020-03-10T02:01:13.863Z</time>
      </trkpt>
      <trkpt lat="44.4454" lon="3.32435">
        <ele>815.777839</ele>
        <time>2020-03-10T02:01:22.491Z</time>
      </trkpt>
      <trkpt lat="44.44504" lon="3.32456">
        <ele>816.387504</ele>
        <time>2020-03-10T02:01:29.538Z</time>
      </trkpt>
      <trkpt lat="44.44454" lon="3.32509">
        <ele>817.294834</ele>
        <time>2020-03-10T02:01:39.940Z</time>
      </trkpt>
      <trkpt lat="44.44422" lon="3.32595">
        <ele>818.284856</ele>
        <time>2020-03-10T02:01:55.848Z</time>
      </trkpt>
      <trkpt lat="44.44417" lon="3.32678">
        <ele>819.889136</ele>
        <time>2020-03-10T02:02:10.864Z</time>
      </trkpt>
      <trkpt lat="44.4442" lon="3.32726">
        <ele>821.039561</ele>
        <time>2020-03-10T02:02:20.529Z</time>
      </trkpt>
      <trkpt lat="44.44417" lon="3.32745">
        <ele>821.492424</ele>
        <time>2020-03-10T02:02:25.211Z</time>
      </trkpt>
      <trkpt lat="44.44405" lon="3.32773">
        <ele>822.267071</ele>
        <time>2020-03-10T02:02:31.375Z</time>
      </trkpt>
      <trkpt lat="44.44362" lon="3.32819">
        <ele>824.05779</ele>
        <time>2020-03-10T02:02:48.166Z</time>
      </trkpt>
      <trkpt lat="44.44258" lon="3.32857">
        <ele>827.364789</ele>
        <time>2020-03-10T02:03:19.247Z</time>
      </trkpt>
      <trkpt lat="44.44206" lon="3.32882">
        <ele>828.999667</ele>
        <time>2020-03-10T02:03:32.741Z</time>
      </trkpt>
      <trkpt lat="44.44164" lon="3.32919">
        <ele>830.345289</ele>
        <time>2020-03-10T02:03:44.597Z</time>
      </trkpt>
      <trkpt lat="44.44136" lon="3.32954">
        <ele>831.139834</ele>
        <time>2020-03-10T02:03:53.263Z</time>
      </trkpt>
      <trkpt lat="44.44109" lon="3.32974">
        <ele>831.786975</ele>
        <time>2020-03-10T02:04:00.823Z</time>
      </trkpt>
      <trkpt lat="44.44014" lon="3.33025">
        <ele>833.905941</ele>
        <time>2020-03-10T02:04:24.456Z</time>
      </trkpt>
      <trkpt lat="44.4398" lon="3.33041">
        <ele>834.425276</ele>
        <time>2020-03-10T02:04:32.106Z</time>
      </trkpt>
      <trkpt lat="44.43971" lon="3.33044">
        <ele>834.559391</ele>
        <time>2020-03-10T02:04:34.560Z</time>
      </trkpt>
      <trkpt lat="44.43826" lon="3.33054">
        <ele>836.656927</ele>
        <time>2020-03-10T02:05:03.570Z</time>
      </trkpt>
      <trkpt lat="44.43796" lon="3.33043">
        <ele>837.025962</ele>
        <time>2020-03-10T02:05:08.621Z</time>
      </trkpt>
      <trkpt lat="44.43727" lon="3.33002">
        <ele>837.909648</ele>
        <time>2020-03-10T02:05:21.696Z</time>
      </trkpt>
      <trkpt lat="44.43695" lon="3.33">
        <ele>838.295288</ele>
        <time>2020-03-10T02:05:28.701Z</time>
      </trkpt>
      <trkpt lat="44.43621" lon="3.33019">
        <ele>839.989864</ele>
        <time>2020-03-10T02:05:46.583Z</time>
      </trkpt>
      <trkpt lat="44.43577" lon="3.33003">
        <ele>841.240659</ele>
        <time>2020-03-10T02:05:58.372Z</time>
      </trkpt>
      <trkpt lat="44.43552" lon="3.3299">
        <ele>841.98377</ele>
        <time>2020-03-10T02:06:06.076Z</time>
      </trkpt>
      <trkpt lat="44.43358" lon="3.32902">
        <ele>847.280125</ele>
        <time>2020-03-10T02:07:01.201Z</time>
      </trkpt>
      <trkpt lat="44.4322" lon="3.3284">
        <ele>848.410567</ele>
        <time>2020-03-10T02:07:27.049Z</time>
      </trkpt>
      <trkpt lat="44.43166" lon="3.32841">
        <ele>848.561414</ele>
        <time>2020-03-10T02:07:33.814Z</time>
      </trkpt>
      <trkpt lat="44.43084" lon="3.32851">
        <ele>849.058881</ele>
        <time>2020-03-10T02:07:44.651Z</time>
      </trkpt>
      <trkpt lat="44.43037" lon="3.32856">
        <ele>849.375391</ele>
        <time>2020-03-10T02:07:52.019Z</time>
      </trkpt>
      <trkpt lat="44.43005" lon="3.3286">
        <ele>849.585996</ele>
        <time>2020-03-10T02:07:58.255Z</time>
      </trkpt>
      <trkpt lat="44.42957" lon="3.3286">
        <ele>850.696814</ele>
        <time>2020-03-10T02:08:09.387Z</time>
      </trkpt>
      <trkpt lat="44.42892" lon="3.3284">
        <ele>854.236656</ele>
        <time>2020-03-10T02:08:30.857Z</time>
      </trkpt>
      <trkpt lat="44.42842" lon="3.32808">
        <ele>857.204546</ele>
        <time>2020-03-10T02:08:54.344Z</time>
      </trkpt>
      <trkpt lat="44.42814" lon="3.32783">
        <ele>858.984169</ele>
        <time>2020-03-10T02:09:08.689Z</time>
      </trkpt>
      <trkpt lat="44.42757" lon="3.32719">
        <ele>863.782025</ele>
        <time>2020-03-10T02:09:40.747Z</time>
      </trkpt>
      <trkpt lat="44.42727" lon="3.32688">
        <ele>866.301612</ele>
        <time>2020-03-10T02:09:56.965Z</time>
      </trkpt>
      <trkpt lat="44.4269" lon="3.32664">
        <ele>869.044437</ele>
        <time>2020-03-10T02:10:14.130Z</time>
      </trkpt>
      <trkpt lat="44.42581" lon="3.32617">
        <ele>874.306787</ele>
        <time>2020-03-10T02:10:57.505Z</time>
      </trkpt>
      <trkpt lat="44.4253" lon="3.32583">
        <ele>876.338399</ele>
        <time>2020-03-10T02:11:11.823Z</time>
      </trkpt>
      <trkpt lat="44.42518" lon="3.32571">
        <ele>876.854086</ele>
        <time>2020-03-10T02:11:16.027Z</time>
      </trkpt>
      <trkpt lat="44.42516" lon="3.32568">
        <ele>876.955408</ele>
        <time>2020-03-10T02:11:16.901Z</time>
      </trkpt>
      <trkpt lat="44.42442" lon="3.32445">
        <ele>877.231772</ele>
        <time>2020-03-10T02:11:34.910Z</time>
      </trkpt>
      <trkpt lat="44.42421" lon="3.32423">
        <ele>876.99751</ele>
        <time>2020-03-10T02:11:38.176Z</time>
      </trkpt>
      <trkpt lat="44.42386" lon="3.324">
        <ele>876.656964</ele>
        <time>2020-03-10T02:11:42.186Z</time>
      </trkpt>
      <trkpt lat="44.42336" lon="3.32396">
        <ele>876.041501</ele>
        <time>2020-03-10T02:11:47.363Z</time>
      </trkpt>
      <trkpt lat="44.42232" lon="3.32437">
        <ele>874.235835</ele>
        <time>2020-03-10T02:11:59.307Z</time>
      </trkpt>
      <trkpt lat="44.42167" lon="3.32442">
        <ele>873.172857</ele>
        <time>2020-03-10T02:12:07.549Z</time>
      </trkpt>
      <trkpt lat="44.42143" lon="3.32434">
        <ele>872.821907</ele>
        <time>2020-03-10T02:12:10.822Z</time>
      </trkpt>
      <trkpt lat="44.42101" lon="3.3241">
        <ele>872.170951</ele>
        <time>2020-03-10T02:12:16.546Z</time>
      </trkpt>
      <trkpt lat="44.42017" lon="3.32337">
        <ele>870.705526</ele>
        <time>2020-03-10T02:12:27.801Z</time>
      </trkpt>
      <trkpt lat="44.41791" lon="3.32234">
        <ele>863.950548</ele>
        <time>2020-03-10T02:12:51.730Z</time>
      </trkpt>
      <trkpt lat="44.4169" lon="3.32186">
        <ele>861.518558</ele>
        <time>2020-03-10T02:13:03.599Z</time>
      </trkpt>
      <trkpt lat="44.41215" lon="3.31956">
        <ele>853.784568</ele>
        <time>2020-03-10T02:14:02.985Z</time>
      </trkpt>
      <trkpt lat="44.4118" lon="3.31937">
        <ele>852.987187</ele>
        <time>2020-03-10T02:14:06.652Z</time>
      </trkpt>
      <trkpt lat="44.41145" lon="3.31915">
        <ele>851.797705</ele>
        <time>2020-03-10T02:14:10.310Z</time>
      </trkpt>
      <trkpt lat="44.41026" lon="3.31809">
        <ele>846.828612</ele>
        <time>2020-03-10T02:14:24.114Z</time>
      </trkpt>
      <trkpt lat="44.40993" lon="3.31773">
        <ele>846.378775</ele>
        <time>2020-03-10T02:14:28.833Z</time>
      </trkpt>
      <trkpt lat="44.4096" lon="3.31689">
        <ele>846.285666</ele>
        <time>2020-03-10T02:14:38.051Z</time>
      </trkpt>
      <trkpt lat="44.4094" lon="3.31618">
        <ele>846.212141</ele>
        <time>2020-03-10T02:14:48.002Z</time>
      </trkpt>
      <trkpt lat="44.40928" lon="3.31538">
        <ele>846.786884</ele>
        <time>2020-03-10T02:15:00.752Z</time>
      </trkpt>
      <trkpt lat="44.40921" lon="3.31222">
        <ele>850.666776</ele>
        <time>2020-03-10T02:15:52.655Z</time>
      </trkpt>
      <trkpt lat="44.40939" lon="3.31137">
        <ele>851.522353</ele>
        <time>2020-03-10T02:16:05.397Z</time>
      </trkpt>
      <trkpt lat="44.40943" lon="3.31081">
        <ele>852.05199</ele>
        <time>2020-03-10T02:16:12.869Z</time>
      </trkpt>
      <trkpt lat="44.40902" lon="3.30867">
        <ele>851.662187</ele>
        <time>2020-03-10T02:16:34.306Z</time>
      </trkpt>
      <trkpt lat="44.40903" lon="3.3085">
        <ele>851.630699</ele>
        <time>2020-03-10T02:16:35.891Z</time>
      </trkpt>
      <trkpt lat="44.40927" lon="3.30764">
        <ele>851.676473</ele>
        <time>2020-03-10T02:16:44.994Z</time>
      </trkpt>
      <trkpt lat="44.40932" lon="3.30738">
        <ele>851.697842</ele>
        <time>2020-03-10T02:16:47.246Z</time>
      </trkpt>
      <trkpt lat="44.40934" lon="3.30721">
        <ele>851.712043</ele>
        <time>2020-03-10T02:16:50.160Z</time>
      </trkpt>
      <trkpt lat="44.40934" lon="3.30693">
        <ele>851.733985</ele>
        <time>2020-03-10T02:16:52.676Z</time>
      </trkpt>
      <trkpt lat="44.40921" lon="3.30619">
        <ele>851.795717</ele>
        <time>2020-03-10T02:17:03.037Z</time>
      </trkpt>
      <trkpt lat="44.40846" lon="3.30502">
        <ele>851.157938</ele>
        <time>2020-03-10T02:17:21.410Z</time>
      </trkpt>
      <trkpt lat="44.40832" lon="3.30456">
        <ele>850.914442</ele>
        <time>2020-03-10T02:17:25.753Z</time>
      </trkpt>
      <trkpt lat="44.40818" lon="3.30396">
        <ele>850.605265</ele>
        <time>2020-03-10T02:17:30.844Z</time>
      </trkpt>
      <trkpt lat="44.40811" lon="3.30357">
        <ele>849.437823</ele>
        <time>2020-03-10T02:17:33.755Z</time>
      </trkpt>
      <trkpt lat="44.40793" lon="3.30289">
        <ele>847.21232</ele>
        <time>2020-03-10T02:17:38.823Z</time>
      </trkpt>
      <trkpt lat="44.40781" lon="3.30273">
        <ele>846.482277</ele>
        <time>2020-03-10T02:17:40.405Z</time>
      </trkpt>
      <trkpt lat="44.40677" lon="3.30233">
        <ele>841.743633</ele>
        <time>2020-03-10T02:17:50.459Z</time>
      </trkpt>
      <trkpt lat="44.40589" lon="3.30187">
        <ele>837.529123</ele>
        <time>2020-03-10T02:17:59.358Z</time>
      </trkpt>
      <trkpt lat="44.40566" lon="3.30171">
        <ele>836.367571</ele>
        <time>2020-03-10T02:18:01.855Z</time>
      </trkpt>
      <trkpt lat="44.40554" lon="3.30156">
        <ele>835.661072</ele>
        <time>2020-03-10T02:18:03.379Z</time>
      </trkpt>
      <trkpt lat="44.40548" lon="3.30138">
        <ele>835.011238</ele>
        <time>2020-03-10T02:18:04.796Z</time>
      </trkpt>
      <trkpt lat="44.40547" lon="3.30114">
        <ele>834.514523</ele>
        <time>2020-03-10T02:18:06.470Z</time>
      </trkpt>
      <trkpt lat="44.40557" lon="3.30033">
        <ele>833.505279</ele>
        <time>2020-03-10T02:18:12.580Z</time>
      </trkpt>
      <trkpt lat="44.40554" lon="3.29989">
        <ele>832.955339</ele>
        <time>2020-03-10T02:18:16.195Z</time>
      </trkpt>
      <trkpt lat="44.4054" lon="3.29937">
        <ele>832.275518</ele>
        <time>2020-03-10T02:18:20.992Z</time>
      </trkpt>
      <trkpt lat="44.40478" lon="3.29869">
        <ele>831.682511</ele>
        <time>2020-03-10T02:18:32.739Z</time>
      </trkpt>
      <trkpt lat="44.40464" lon="3.29838">
        <ele>831.748343</ele>
        <time>2020-03-10T02:18:37.512Z</time>
      </trkpt>
      <trkpt lat="44.40417" lon="3.29583">
        <ele>830.498424</ele>
        <time>2020-03-10T02:19:07.944Z</time>
      </trkpt>
      <trkpt lat="44.40396" lon="3.29394">
        <ele>826.217147</ele>
        <time>2020-03-10T02:19:21.690Z</time>
      </trkpt>
      <trkpt lat="44.4039" lon="3.29368">
        <ele>824.886409</ele>
        <time>2020-03-10T02:19:23.512Z</time>
      </trkpt>
      <trkpt lat="44.40283" lon="3.29121">
        <ele>811.267246</ele>
        <time>2020-03-10T02:19:41.766Z</time>
      </trkpt>
      <trkpt lat="44.40272" lon="3.2909">
        <ele>809.675553</ele>
        <time>2020-03-10T02:19:44.011Z</time>
      </trkpt>
      <trkpt lat="44.40274" lon="3.29088">
        <ele>809.513355</ele>
        <time>2020-03-10T02:19:44.242Z</time>
      </trkpt>
      <trkpt lat="44.40276" lon="3.29084">
        <ele>809.309458</ele>
        <time>2020-03-10T02:19:44.554Z</time>
      </trkpt>
      <trkpt lat="44.40277" lon="3.29079">
        <ele>809.073485</ele>
        <time>2020-03-10T02:19:44.907Z</time>
      </trkpt>
      <trkpt lat="44.40277" lon="3.29073">
        <ele>808.776755</ele>
        <time>2020-03-10T02:19:45.342Z</time>
      </trkpt>
      <trkpt lat="44.40275" lon="3.29068">
        <ele>808.546403</ele>
        <time>2020-03-10T02:19:45.676Z</time>
      </trkpt>
      <trkpt lat="44.40278" lon="3.29053">
        <ele>807.849948</ele>
        <time>2020-03-10T02:19:46.679Z</time>
      </trkpt>
      <trkpt lat="44.40284" lon="3.29035">
        <ele>806.915375</ele>
        <time>2020-03-10T02:19:48.057Z</time>
      </trkpt>
      <trkpt lat="44.40302" lon="3.29008">
        <ele>805.236384</ele>
        <time>2020-03-10T02:19:50.535Z</time>
      </trkpt>
      <trkpt lat="44.40329" lon="3.28982">
        <ele>804.039963</ele>
        <time>2020-03-10T02:19:53.686Z</time>
      </trkpt>
      <trkpt lat="44.40346" lon="3.28972">
        <ele>803.565908</ele>
        <time>2020-03-10T02:19:55.570Z</time>
      </trkpt>
      <trkpt lat="44.40395" lon="3.28964">
        <ele>802.301073</ele>
        <time>2020-03-10T02:20:00.785Z</time>
      </trkpt>
      <trkpt lat="44.40414" lon="3.28952">
        <ele>801.775806</ele>
        <time>2020-03-10T02:20:03.260Z</time>
      </trkpt>
      <trkpt lat="44.40524" lon="3.28846">
        <ele>798.442082</ele>
        <time>2020-03-10T02:20:18.451Z</time>
      </trkpt>
      <trkpt lat="44.40623" lon="3.28729">
        <ele>795.31528</ele>
        <time>2020-03-10T02:20:31.720Z</time>
      </trkpt>
      <trkpt lat="44.40699" lon="3.28675">
        <ele>793.463525</ele>
        <time>2020-03-10T02:20:40.758Z</time>
      </trkpt>
      <trkpt lat="44.40715" lon="3.28658">
        <ele>793.033262</ele>
        <time>2020-03-10T02:20:42.932Z</time>
      </trkpt>
      <trkpt lat="44.40726" lon="3.28629">
        <ele>792.530664</ele>
        <time>2020-03-10T02:20:45.541Z</time>
      </trkpt>
      <trkpt lat="44.40729" lon="3.28603">
        <ele>792.118025</ele>
        <time>2020-03-10T02:20:47.722Z</time>
      </trkpt>
      <trkpt lat="44.4073" lon="3.28512">
        <ele>791.354638</ele>
        <time>2020-03-10T02:20:55.565Z</time>
      </trkpt>
      <trkpt lat="44.40721" lon="3.28484">
        <ele>791.177856</ele>
        <time>2020-03-10T02:20:58.296Z</time>
      </trkpt>
      <trkpt lat="44.40688" lon="3.28424">
        <ele>790.737384</ele>
        <time>2020-03-10T02:21:05.431Z</time>
      </trkpt>
      <trkpt lat="44.40685" lon="3.28357">
        <ele>790.343153</ele>
        <time>2020-03-10T02:21:11.885Z</time>
      </trkpt>
      <trkpt lat="44.40696" lon="3.28303">
        <ele>789.905605</ele>
        <time>2020-03-10T02:21:16.982Z</time>
      </trkpt>
      <trkpt lat="44.40739" lon="3.28203">
        <ele>788.93459</ele>
        <time>2020-03-10T02:21:27.097Z</time>
      </trkpt>
      <trkpt lat="44.40749" lon="3.28163">
        <ele>788.577137</ele>
        <time>2020-03-10T02:21:30.679Z</time>
      </trkpt>
      <trkpt lat="44.40762" lon="3.27958">
        <ele>786.645967</ele>
        <time>2020-03-10T02:21:47.266Z</time>
      </trkpt>
      <trkpt lat="44.40792" lon="3.27871">
        <ele>785.710983</ele>
        <time>2020-03-10T02:21:56.040Z</time>
      </trkpt>
      <trkpt lat="44.40795" lon="3.27861">
        <ele>785.644267</ele>
        <time>2020-03-10T02:21:56.819Z</time>
      </trkpt>
      <trkpt lat="44.40818" lon="3.27779">
        <ele>785.086456</ele>
        <time>2020-03-10T02:22:05.034Z</time>
      </trkpt>
      <trkpt lat="44.40843" lon="3.27722">
        <ele>784.667601</ele>
        <time>2020-03-10T02:22:10.942Z</time>
      </trkpt>
      <trkpt lat="44.40849" lon="3.2771">
        <ele>784.577178</ele>
        <time>2020-03-10T02:22:12.117Z</time>
      </trkpt>
      <trkpt lat="44.40901" lon="3.27624">
        <ele>783.644443</ele>
        <time>2020-03-10T02:22:22.557Z</time>
      </trkpt>
      <trkpt lat="44.40921" lon="3.27604">
        <ele>783.247538</ele>
        <time>2020-03-10T02:22:25.455Z</time>
      </trkpt>
      <trkpt lat="44.40962" lon="3.27579">
        <ele>782.53149</ele>
        <time>2020-03-10T02:22:30.326Z</time>
      </trkpt>
      <trkpt lat="44.40982" lon="3.2754">
        <ele>781.985934</ele>
        <time>2020-03-10T02:22:34.117Z</time>
      </trkpt>
      <trkpt lat="44.41002" lon="3.27434">
        <ele>780.720317</ele>
        <time>2020-03-10T02:22:42.868Z</time>
      </trkpt>
      <trkpt lat="44.41027" lon="3.2737">
        <ele>779.875998</ele>
        <time>2020-03-10T02:22:48.695Z</time>
      </trkpt>
      <trkpt lat="44.41034" lon="3.27332">
        <ele>779.423178</ele>
        <time>2020-03-10T02:22:51.869Z</time>
      </trkpt>
      <trkpt lat="44.41063" lon="3.27054">
        <ele>776.422808</ele>
        <time>2020-03-10T02:23:15.530Z</time>
      </trkpt>
      <trkpt lat="44.41063" lon="3.27047">
        <ele>776.353822</ele>
        <time>2020-03-10T02:23:16.065Z</time>
      </trkpt>
      <trkpt lat="44.41068" lon="3.26971">
        <ele>775.499025</ele>
        <time>2020-03-10T02:23:22.260Z</time>
      </trkpt>
      <trkpt lat="44.41073" lon="3.2687">
        <ele>774.085717</ele>
        <time>2020-03-10T02:23:30.288Z</time>
      </trkpt>
      <trkpt lat="44.4108" lon="3.26824">
        <ele>773.42938</ele>
        <time>2020-03-10T02:23:33.963Z</time>
      </trkpt>
      <trkpt lat="44.41091" lon="3.26783">
        <ele>772.82004</ele>
        <time>2020-03-10T02:23:37.334Z</time>
      </trkpt>
      <trkpt lat="44.41118" lon="3.26718">
        <ele>772.023355</ele>
        <time>2020-03-10T02:23:43.152Z</time>
      </trkpt>
      <trkpt lat="44.41122" lon="3.26693">
        <ele>771.838973</ele>
        <time>2020-03-10T02:23:45.298Z</time>
      </trkpt>
      <trkpt lat="44.4112" lon="3.26669">
        <ele>771.668521</ele>
        <time>2020-03-10T02:23:47.344Z</time>
      </trkpt>
      <trkpt lat="44.41096" lon="3.26589">
        <ele>771.065254</ele>
        <time>2020-03-10T02:23:55.111Z</time>
      </trkpt>
      <trkpt lat="44.41089" lon="3.26458">
        <ele>770.401001</ele>
        <time>2020-03-10T02:24:08.232Z</time>
      </trkpt>
      <trkpt lat="44.41082" lon="3.26433">
        <ele>770.347622</ele>
        <time>2020-03-10T02:24:11.198Z</time>
      </trkpt>
      <trkpt lat="44.40989" lon="3.26218">
        <ele>768.955927</ele>
        <time>2020-03-10T02:24:35.992Z</time>
      </trkpt>
      <trkpt lat="44.40972" lon="3.26128">
        <ele>767.70647</ele>
        <time>2020-03-10T02:24:43.418Z</time>
      </trkpt>
      <trkpt lat="44.40962" lon="3.26099">
        <ele>767.271993</ele>
        <time>2020-03-10T02:24:45.872Z</time>
      </trkpt>
      <trkpt lat="44.40924" lon="3.26018">
        <ele>764.866272</ele>
        <time>2020-03-10T02:24:52.801Z</time>
      </trkpt>
      <trkpt lat="44.40873" lon="3.25932">
        <ele>760.784745</ele>
        <time>2020-03-10T02:25:00.345Z</time>
      </trkpt>
      <trkpt lat="44.4087" lon="3.25904">
        <ele>759.745803</ele>
        <time>2020-03-10T02:25:02.230Z</time>
      </trkpt>
      <trkpt lat="44.40873" lon="3.25877">
        <ele>758.737326</ele>
        <time>2020-03-10T02:25:04.032Z</time>
      </trkpt>
      <trkpt lat="44.40882" lon="3.25853">
        <ele>757.773346</ele>
        <time>2020-03-10T02:25:05.762Z</time>
      </trkpt>
      <trkpt lat="44.409" lon="3.2583">
        <ele>755.969728</ele>
        <time>2020-03-10T02:25:07.970Z</time>
      </trkpt>
      <trkpt lat="44.40915" lon="3.25797">
        <ele>753.657454</ele>
        <time>2020-03-10T02:25:10.507Z</time>
      </trkpt>
      <trkpt lat="44.40922" lon="3.25764">
        <ele>751.621393</ele>
        <time>2020-03-10T02:25:12.736Z</time>
      </trkpt>
      <trkpt lat="44.4092" lon="3.25714">
        <ele>748.694367</ele>
        <time>2020-03-10T02:25:15.902Z</time>
      </trkpt>
      <trkpt lat="44.40943" lon="3.25624">
        <ele>743.082455</ele>
        <time>2020-03-10T02:25:21.885Z</time>
      </trkpt>
      <trkpt lat="44.40925" lon="3.2555">
        <ele>736.284784</ele>
        <time>2020-03-10T02:25:26.703Z</time>
      </trkpt>
      <trkpt lat="44.40914" lon="3.25529">
        <ele>733.951432</ele>
        <time>2020-03-10T02:25:28.296Z</time>
      </trkpt>
      <trkpt lat="44.40871" lon="3.25494">
        <ele>727.830401</ele>
        <time>2020-03-10T02:25:32.440Z</time>
      </trkpt>
      <trkpt lat="44.40861" lon="3.25478">
        <ele>725.871923</ele>
        <time>2020-03-10T02:25:33.750Z</time>
      </trkpt>
      <trkpt lat="44.40859" lon="3.25462">
        <ele>724.401973</ele>
        <time>2020-03-10T02:25:34.739Z</time>
      </trkpt>
      <trkpt lat="44.40863" lon="3.25444">
        <ele>722.754843</ele>
        <time>2020-03-10T02:25:35.840Z</time>
      </trkpt>
      <trkpt lat="44.40899" lon="3.25401">
        <ele>715.925552</ele>
        <time>2020-03-10T02:25:39.753Z</time>
      </trkpt>
      <trkpt lat="44.4091" lon="3.25377">
        <ele>712.682967</ele>
        <time>2020-03-10T02:25:41.442Z</time>
      </trkpt>
      <trkpt lat="44.40926" lon="3.25291">
        <ele>702.560454</ele>
        <time>2020-03-10T02:25:46.703Z</time>
      </trkpt>
      <trkpt lat="44.40957" lon="3.2521">
        <ele>692.120533</ele>
        <time>2020-03-10T02:25:52.127Z</time>
      </trkpt>
      <trkpt lat="44.40957" lon="3.25144">
        <ele>685.959517</ele>
        <time>2020-03-10T02:25:56.053Z</time>
      </trkpt>
      <trkpt lat="44.40953" lon="3.25127">
        <ele>684.301636</ele>
        <time>2020-03-10T02:25:57.130Z</time>
      </trkpt>
      <trkpt lat="44.40929" lon="3.25071">
        <ele>678.282168</ele>
        <time>2020-03-10T02:26:01.061Z</time>
      </trkpt>
      <trkpt lat="44.40921" lon="3.25027">
        <ele>674.108235</ele>
        <time>2020-03-10T02:26:03.818Z</time>
      </trkpt>
      <trkpt lat="44.40906" lon="3.24985">
        <ele>669.839839</ele>
        <time>2020-03-10T02:26:06.651Z</time>
      </trkpt>
      <trkpt lat="44.40857" lon="3.24881">
        <ele>662.885818</ele>
        <time>2020-03-10T02:26:14.442Z</time>
      </trkpt>
      <trkpt lat="44.40858" lon="3.24846">
        <ele>661.106437</ele>
        <time>2020-03-10T02:26:16.694Z</time>
      </trkpt>
      <trkpt lat="44.40844" lon="3.24818">
        <ele>659.387993</ele>
        <time>2020-03-10T02:26:18.915Z</time>
      </trkpt>
      <trkpt lat="44.40842" lon="3.24799">
        <ele>658.421748</ele>
        <time>2020-03-10T02:26:20.182Z</time>
      </trkpt>
      <trkpt lat="44.40846" lon="3.2478">
        <ele>657.378467</ele>
        <time>2020-03-10T02:26:21.570Z</time>
      </trkpt>
      <trkpt lat="44.40863" lon="3.24753">
        <ele>655.591828</ele>
        <time>2020-03-10T02:26:24.008Z</time>
      </trkpt>
      <trkpt lat="44.40867" lon="3.24726">
        <ele>654.742122</ele>
        <time>2020-03-10T02:26:25.894Z</time>
      </trkpt>
      <trkpt lat="44.40865" lon="3.247">
        <ele>653.926011</ele>
        <time>2020-03-10T02:26:27.724Z</time>
      </trkpt>
      <trkpt lat="44.40829" lon="3.24595">
        <ele>650.307036</ele>
        <time>2020-03-10T02:26:35.869Z</time>
      </trkpt>
      <trkpt lat="44.40828" lon="3.24537">
        <ele>648.516828</ele>
        <time>2020-03-10T02:26:39.869Z</time>
      </trkpt>
      <trkpt lat="44.40834" lon="3.24498">
        <ele>647.285619</ele>
        <time>2020-03-10T02:26:42.598Z</time>
      </trkpt>
      <trkpt lat="44.40846" lon="3.24457">
        <ele>645.88737</ele>
        <time>2020-03-10T02:26:45.649Z</time>
      </trkpt>
      <trkpt lat="44.40846" lon="3.24347">
        <ele>642.419359</ele>
        <time>2020-03-10T02:26:53.149Z</time>
      </trkpt>
      <trkpt lat="44.4083" lon="3.2429">
        <ele>640.474733</ele>
        <time>2020-03-10T02:26:57.391Z</time>
      </trkpt>
      <trkpt lat="44.40798" lon="3.24242">
        <ele>638.827404</ele>
        <time>2020-03-10T02:27:02.107Z</time>
      </trkpt>
      <trkpt lat="44.40789" lon="3.24212">
        <ele>638.102387</ele>
        <time>2020-03-10T02:27:04.262Z</time>
      </trkpt>
      <trkpt lat="44.40795" lon="3.24182">
        <ele>637.372523</ele>
        <time>2020-03-10T02:27:06.668Z</time>
      </trkpt>
      <trkpt lat="44.40803" lon="3.24169">
        <ele>636.994253</ele>
        <time>2020-03-10T02:27:07.810Z</time>
      </trkpt>
      <trkpt lat="44.4087" lon="3.24121">
        <ele>634.556093</ele>
        <time>2020-03-10T02:27:15.713Z</time>
      </trkpt>
      <trkpt lat="44.40874" lon="3.24116">
        <ele>634.384431</ele>
        <time>2020-03-10T02:27:17.277Z</time>
      </trkpt>
      <trkpt lat="44.40896" lon="3.24091">
        <ele>633.544672</ele>
        <time>2020-03-10T02:27:20.026Z</time>
      </trkpt>
      <trkpt lat="44.40916" lon="3.24042">
        <ele>632.357855</ele>
        <time>2020-03-10T02:27:24.366Z</time>
      </trkpt>
      <trkpt lat="44.4093" lon="3.23931">
        <ele>630.002382</ele>
        <time>2020-03-10T02:27:32.744Z</time>
      </trkpt>
      <trkpt lat="44.40944" lon="3.23905">
        <ele>629.337794</ele>
        <time>2020-03-10T02:27:34.928Z</time>
      </trkpt>
      <trkpt lat="44.41241" lon="3.23598">
        <ele>617.707104</ele>
        <time>2020-03-10T02:28:12.417Z</time>
      </trkpt>
      <trkpt lat="44.41335" lon="3.23543">
        <ele>614.84863</ele>
        <time>2020-03-10T02:28:23.081Z</time>
      </trkpt>
      <trkpt lat="44.41399" lon="3.2345">
        <ele>612.296127</ele>
        <time>2020-03-10T02:28:32.663Z</time>
      </trkpt>
      <trkpt lat="44.41427" lon="3.23426">
        <ele>611.401121</ele>
        <time>2020-03-10T02:28:36.099Z</time>
      </trkpt>
      <trkpt lat="44.41518" lon="3.23382">
        <ele>608.789869</ele>
        <time>2020-03-10T02:28:46.105Z</time>
      </trkpt>
      <trkpt lat="44.41611" lon="3.23309">
        <ele>605.975174</ele>
        <time>2020-03-10T02:28:57.178Z</time>
      </trkpt>
      <trkpt lat="44.41626" lon="3.23293">
        <ele>605.490268</ele>
        <time>2020-03-10T02:28:59.086Z</time>
      </trkpt>
      <trkpt lat="44.41675" lon="3.23242">
        <ele>603.904696</ele>
        <time>2020-03-10T02:29:05.511Z</time>
      </trkpt>
      <trkpt lat="44.41719" lon="3.23157">
        <ele>602.464035</ele>
        <time>2020-03-10T02:29:13.611Z</time>
      </trkpt>
      <trkpt lat="44.41731" lon="3.23138">
        <ele>602.223298</ele>
        <time>2020-03-10T02:29:15.546Z</time>
      </trkpt>
      <trkpt lat="44.41765" lon="3.23091">
        <ele>601.599499</ele>
        <time>2020-03-10T02:29:21.222Z</time>
      </trkpt>
      <trkpt lat="44.41849" lon="3.22991">
        <ele>600.647714</ele>
        <time>2020-03-10T02:29:35.541Z</time>
      </trkpt>
      <trkpt lat="44.41917" lon="3.22888">
        <ele>600.716373</ele>
        <time>2020-03-10T02:29:52.364Z</time>
      </trkpt>
      <trkpt lat="44.42084" lon="3.2272">
        <ele>600.274236</ele>
        <time>2020-03-10T02:30:22.507Z</time>
      </trkpt>
      <trkpt lat="44.42109" lon="3.22699">
        <ele>599.990049</ele>
        <time>2020-03-10T02:30:26.057Z</time>
      </trkpt>
      <trkpt lat="44.42122" lon="3.22688">
        <ele>599.677776</ele>
        <time>2020-03-10T02:30:27.761Z</time>
      </trkpt>
      <trkpt lat="44.4213" lon="3.22686">
        <ele>599.524422</ele>
        <time>2020-03-10T02:30:28.709Z</time>
      </trkpt>
      <trkpt lat="44.42136" lon="3.22685">
        <ele>599.397963</ele>
        <time>2020-03-10T02:30:29.447Z</time>
      </trkpt>
      <trkpt lat="44.4214" lon="3.22682">
        <ele>599.307271</ele>
        <time>2020-03-10T02:30:29.902Z</time>
      </trkpt>
      <trkpt lat="44.42142" lon="3.22677">
        <ele>599.216342</ele>
        <time>2020-03-10T02:30:30.358Z</time>
      </trkpt>
      <trkpt lat="44.42143" lon="3.2267">
        <ele>599.11494</ele>
        <time>2020-03-10T02:30:30.855Z</time>
      </trkpt>
      <trkpt lat="44.4215" lon="3.22659">
        <ele>598.906583</ele>
        <time>2020-03-10T02:30:32.056Z</time>
      </trkpt>
      <trkpt lat="44.4216" lon="3.22654">
        <ele>598.695357</ele>
        <time>2020-03-10T02:30:33.281Z</time>
      </trkpt>
      <trkpt lat="44.42173" lon="3.22648">
        <ele>598.406604</ele>
        <time>2020-03-10T02:30:34.696Z</time>
      </trkpt>
      <trkpt lat="44.4219" lon="3.22639">
        <ele>598.038057</ele>
        <time>2020-03-10T02:30:36.744Z</time>
      </trkpt>
      <trkpt lat="44.42245" lon="3.22582">
        <ele>596.648266</ele>
        <time>2020-03-10T02:30:43.907Z</time>
      </trkpt>
      <trkpt lat="44.42313" lon="3.22549">
        <ele>595.683089</ele>
        <time>2020-03-10T02:30:51.516Z</time>
      </trkpt>
      <trkpt lat="44.42319" lon="3.22546">
        <ele>595.598974</ele>
        <time>2020-03-10T02:30:52.304Z</time>
      </trkpt>
      <trkpt lat="44.42325" lon="3.22541">
        <ele>595.50856</ele>
        <time>2020-03-10T02:30:53.157Z</time>
      </trkpt>
      <trkpt lat="44.42336" lon="3.22529">
        <ele>595.318726</ele>
        <time>2020-03-10T02:30:54.918Z</time>
      </trkpt>
      <trkpt lat="44.42431" lon="3.224">
        <ele>593.612055</ele>
        <time>2020-03-10T02:31:12.573Z</time>
      </trkpt>
      <trkpt lat="44.42485" lon="3.22362">
        <ele>592.870344</ele>
        <time>2020-03-10T02:31:20.426Z</time>
      </trkpt>
      <trkpt lat="44.42573" lon="3.22314">
        <ele>590.854307</ele>
        <time>2020-03-10T02:31:30.850Z</time>
      </trkpt>
      <trkpt lat="44.4262" lon="3.22302">
        <ele>588.486526</ele>
        <time>2020-03-10T02:31:35.603Z</time>
      </trkpt>
      <trkpt lat="44.42753" lon="3.22238">
        <ele>581.416071</ele>
        <time>2020-03-10T02:31:48.394Z</time>
      </trkpt>
      <trkpt lat="44.42795" lon="3.2223">
        <ele>579.263675</ele>
        <time>2020-03-10T02:31:52.198Z</time>
      </trkpt>
      <trkpt lat="44.42821" lon="3.22225">
        <ele>577.885735</ele>
        <time>2020-03-10T02:31:54.692Z</time>
      </trkpt>
      <trkpt lat="44.42846" lon="3.2222">
        <ele>576.617834</ele>
        <time>2020-03-10T02:31:56.994Z</time>
      </trkpt>
      <trkpt lat="44.42875" lon="3.22216">
        <ele>575.074836</ele>
        <time>2020-03-10T02:32:01.125Z</time>
      </trkpt>
      <trkpt lat="44.42898" lon="3.22211">
        <ele>573.879217</ele>
        <time>2020-03-10T02:32:04.451Z</time>
      </trkpt>
      <trkpt lat="44.42918" lon="3.22199">
        <ele>573.771128</ele>
        <time>2020-03-10T02:32:07.505Z</time>
      </trkpt>
      <trkpt lat="44.42958" lon="3.22177">
        <ele>573.771128</ele>
        <time>2020-03-10T02:32:15.111Z</time>
      </trkpt>
      <trkpt lat="44.42973" lon="3.22167">
        <ele>573.771128</ele>
        <time>2020-03-10T02:32:19.380Z</time>
      </trkpt>
      <trkpt lat="44.42988" lon="3.22147">
        <ele>573.771128</ele>
        <time>2020-03-10T02:32:24.731Z</time>
      </trkpt>
      <trkpt lat="44.43004" lon="3.22112">
        <ele>573.771128</ele>
        <time>2020-03-10T02:32:33.798Z</time>
      </trkpt>
      <trkpt lat="44.43008" lon="3.22091">
        <ele>573.771128</ele>
        <time>2020-03-10T02:32:38.407Z</time>
      </trkpt>
      <trkpt lat="44.43008" lon="3.22076">
        <ele>573.771128</ele>
        <time>2020-03-10T02:32:42.208Z</time>
      </trkpt>
      <trkpt lat="44.43006" lon="3.2206">
        <ele>573.771128</ele>
        <time>2020-03-10T02:32:45.459Z</time>
      </trkpt>
      <trkpt lat="44.43008" lon="3.22046">
        <ele>573.771128</ele>
        <time>2020-03-10T02:32:48.118Z</time>
      </trkpt>
      <trkpt lat="44.43022" lon="3.22048">
        <ele>573.771128</ele>
        <time>2020-03-10T02:32:53.387Z</time>
      </trkpt>
      <trkpt lat="44.43052" lon="3.22046">
        <ele>573.771128</ele>
        <time>2020-03-10T02:33:02.257Z</time>
      </trkpt>
      <trkpt lat="44.43076" lon="3.22055">
        <ele>573.771128</ele>
        <time>2020-03-10T02:33:09.138Z</time>
      </trkpt>
      <trkpt lat="44.43088" lon="3.22071">
        <ele>573.771128</ele>
        <time>2020-03-10T02:33:14.857Z</time>
      </trkpt>
      <trkpt lat="44.4309" lon="3.22073">
        <ele>573.771128</ele>
        <time>2020-03-10T02:33:15.383Z</time>
      </trkpt>
    </trkseg>
  </trk>
</gpx>